<?xml version="1.0" encoding="UTF-8"?>
<gpx version="1.1" creator="https://www.youtrack.es" xsi:schemaLocation="http://www.topografix.com/GPX/1/1 http://www.topografix.com/GPX/1/1/gpx.xsd http://www.garmin.com/xmlschemas/GpxExtensions/v3 http://www.garmin.com/xmlschemas/GpxExtensionsv3.xsd http://www.garmin.com/xmlschemas/TrackPointExtension/v1 http://www.garmin.com/xmlschemas/TrackPointExtensionv1.xsd" xmlns:gpxtpx="http://www.garmin.com/xmlschemas/TrackPointExtension/v1" xmlns:gpxx="http://www.garmin.com/xmlschemas/GpxExtensions/v3" xmlns:xsi="http://www.w3.org/2001/XMLSchema-instance">
  <metadata>
    <link href="https://www.youtrack.es">
      <text>YouTrack.es</text>
    </link>
    <time>2026-05-08T14:49:29Z</time>
  </metadata>
  <trk>
    <src>https://www.youtrack.es</src>
    <link href="https://www.youtrack.es/ruta/16998-beyu-pen-1">
      <text>YouTrack.es</text>
    </link>
    <trkseg>
      <trkpt lat="43.273453" lon="-5.143425">
        <ele>82.0</ele>
        <time>2020-11-01T10:31:26Z</time>
      </trkpt>
      <trkpt lat="43.273468" lon="-5.1434245">
        <ele>82.0</ele>
        <time>2020-11-01T10:31:27Z</time>
      </trkpt>
      <trkpt lat="43.273483" lon="-5.1434255">
        <ele>82.0</ele>
        <time>2020-11-01T10:31:28Z</time>
      </trkpt>
      <trkpt lat="43.273483" lon="-5.1434226">
        <ele>82.0</ele>
        <time>2020-11-01T10:31:29Z</time>
      </trkpt>
      <trkpt lat="43.273457" lon="-5.143414">
        <ele>82.0</ele>
        <time>2020-11-01T10:31:30Z</time>
      </trkpt>
      <trkpt lat="43.273407" lon="-5.143402">
        <ele>82.0</ele>
        <time>2020-11-01T10:31:31Z</time>
      </trkpt>
      <trkpt lat="43.273354" lon="-5.143392">
        <ele>82.0</ele>
        <time>2020-11-01T10:31:32Z</time>
      </trkpt>
      <trkpt lat="43.27331" lon="-5.1433854">
        <ele>82.0</ele>
        <time>2020-11-01T10:31:33Z</time>
      </trkpt>
      <trkpt lat="43.27328" lon="-5.1433816">
        <ele>82.0</ele>
        <time>2020-11-01T10:31:34Z</time>
      </trkpt>
      <trkpt lat="43.27326" lon="-5.1433816">
        <ele>82.0</ele>
        <time>2020-11-01T10:31:35Z</time>
      </trkpt>
      <trkpt lat="43.273235" lon="-5.1433825">
        <ele>82.0</ele>
        <time>2020-11-01T10:31:36Z</time>
      </trkpt>
      <trkpt lat="43.273228" lon="-5.143386">
        <ele>82.0</ele>
        <time>2020-11-01T10:31:37Z</time>
      </trkpt>
      <trkpt lat="43.27322" lon="-5.1433916">
        <ele>82.0</ele>
        <time>2020-11-01T10:31:38Z</time>
      </trkpt>
      <trkpt lat="43.2732" lon="-5.1434016">
        <ele>82.0</ele>
        <time>2020-11-01T10:31:40Z</time>
      </trkpt>
      <trkpt lat="43.2732" lon="-5.143402">
        <ele>81.0</ele>
        <time>2020-11-01T10:31:41Z</time>
      </trkpt>
      <trkpt lat="43.273197" lon="-5.143404">
        <ele>81.0</ele>
        <time>2020-11-01T10:31:42Z</time>
      </trkpt>
      <trkpt lat="43.273197" lon="-5.1434073">
        <ele>81.0</ele>
        <time>2020-11-01T10:31:43Z</time>
      </trkpt>
      <trkpt lat="43.273197" lon="-5.143412">
        <ele>81.0</ele>
        <time>2020-11-01T10:31:44Z</time>
      </trkpt>
      <trkpt lat="43.2732" lon="-5.143418">
        <ele>81.0</ele>
        <time>2020-11-01T10:31:45Z</time>
      </trkpt>
      <trkpt lat="43.273205" lon="-5.143422">
        <ele>81.0</ele>
        <time>2020-11-01T10:31:46Z</time>
      </trkpt>
      <trkpt lat="43.273205" lon="-5.1434264">
        <ele>81.0</ele>
        <time>2020-11-01T10:31:47Z</time>
      </trkpt>
      <trkpt lat="43.273212" lon="-5.14343">
        <ele>81.0</ele>
        <time>2020-11-01T10:31:48Z</time>
      </trkpt>
      <trkpt lat="43.273216" lon="-5.143434">
        <ele>81.0</ele>
        <time>2020-11-01T10:31:49Z</time>
      </trkpt>
      <trkpt lat="43.273228" lon="-5.143442">
        <ele>81.0</ele>
        <time>2020-11-01T10:31:50Z</time>
      </trkpt>
      <trkpt lat="43.273235" lon="-5.143454">
        <ele>81.0</ele>
        <time>2020-11-01T10:31:51Z</time>
      </trkpt>
      <trkpt lat="43.27325" lon="-5.1434655">
        <ele>81.0</ele>
        <time>2020-11-01T10:31:52Z</time>
      </trkpt>
      <trkpt lat="43.273266" lon="-5.1434755">
        <ele>81.0</ele>
        <time>2020-11-01T10:31:53Z</time>
      </trkpt>
      <trkpt lat="43.27328" lon="-5.1434827">
        <ele>81.0</ele>
        <time>2020-11-01T10:31:54Z</time>
      </trkpt>
      <trkpt lat="43.273293" lon="-5.14349">
        <ele>81.0</ele>
        <time>2020-11-01T10:31:55Z</time>
      </trkpt>
      <trkpt lat="43.273304" lon="-5.1434937">
        <ele>81.0</ele>
        <time>2020-11-01T10:31:56Z</time>
      </trkpt>
      <trkpt lat="43.27332" lon="-5.1434975">
        <ele>81.0</ele>
        <time>2020-11-01T10:31:57Z</time>
      </trkpt>
      <trkpt lat="43.273327" lon="-5.1435018">
        <ele>81.0</ele>
        <time>2020-11-01T10:31:58Z</time>
      </trkpt>
      <trkpt lat="43.273342" lon="-5.1435056">
        <ele>81.0</ele>
        <time>2020-11-01T10:31:59Z</time>
      </trkpt>
      <trkpt lat="43.273354" lon="-5.143508">
        <ele>81.0</ele>
        <time>2020-11-01T10:32:00Z</time>
      </trkpt>
      <trkpt lat="43.27336" lon="-5.14351">
        <ele>81.0</ele>
        <time>2020-11-01T10:32:01Z</time>
      </trkpt>
      <trkpt lat="43.273376" lon="-5.1435146">
        <ele>81.0</ele>
        <time>2020-11-01T10:32:02Z</time>
      </trkpt>
      <trkpt lat="43.273384" lon="-5.14352">
        <ele>81.0</ele>
        <time>2020-11-01T10:32:03Z</time>
      </trkpt>
      <trkpt lat="43.273415" lon="-5.1435366">
        <ele>81.0</ele>
        <time>2020-11-01T10:32:05Z</time>
      </trkpt>
      <trkpt lat="43.273415" lon="-5.1435404">
        <ele>81.0</ele>
        <time>2020-11-01T10:32:06Z</time>
      </trkpt>
      <trkpt lat="43.273422" lon="-5.1435494">
        <ele>81.0</ele>
        <time>2020-11-01T10:32:07Z</time>
      </trkpt>
      <trkpt lat="43.273415" lon="-5.1435614">
        <ele>81.0</ele>
        <time>2020-11-01T10:32:08Z</time>
      </trkpt>
      <trkpt lat="43.273415" lon="-5.143576">
        <ele>81.0</ele>
        <time>2020-11-01T10:32:09Z</time>
      </trkpt>
      <trkpt lat="43.273415" lon="-5.143589">
        <ele>81.0</ele>
        <time>2020-11-01T10:32:10Z</time>
      </trkpt>
      <trkpt lat="43.273415" lon="-5.143604">
        <ele>81.0</ele>
        <time>2020-11-01T10:32:11Z</time>
      </trkpt>
      <trkpt lat="43.273415" lon="-5.143618">
        <ele>81.0</ele>
        <time>2020-11-01T10:32:12Z</time>
      </trkpt>
      <trkpt lat="43.273422" lon="-5.1436315">
        <ele>81.0</ele>
        <time>2020-11-01T10:32:13Z</time>
      </trkpt>
      <trkpt lat="43.273422" lon="-5.143641">
        <ele>81.0</ele>
        <time>2020-11-01T10:32:14Z</time>
      </trkpt>
      <trkpt lat="43.273422" lon="-5.1436496">
        <ele>81.0</ele>
        <time>2020-11-01T10:32:15Z</time>
      </trkpt>
      <trkpt lat="43.273422" lon="-5.143659">
        <ele>81.0</ele>
        <time>2020-11-01T10:32:16Z</time>
      </trkpt>
      <trkpt lat="43.27343" lon="-5.1436687">
        <ele>81.0</ele>
        <time>2020-11-01T10:32:17Z</time>
      </trkpt>
      <trkpt lat="43.273438" lon="-5.1436787">
        <ele>81.0</ele>
        <time>2020-11-01T10:32:18Z</time>
      </trkpt>
      <trkpt lat="43.273445" lon="-5.143688">
        <ele>81.0</ele>
        <time>2020-11-01T10:32:19Z</time>
      </trkpt>
      <trkpt lat="43.273453" lon="-5.143697">
        <ele>81.0</ele>
        <time>2020-11-01T10:32:20Z</time>
      </trkpt>
      <trkpt lat="43.27346" lon="-5.1437054">
        <ele>81.0</ele>
        <time>2020-11-01T10:32:21Z</time>
      </trkpt>
      <trkpt lat="43.273468" lon="-5.143714">
        <ele>81.0</ele>
        <time>2020-11-01T10:32:22Z</time>
      </trkpt>
      <trkpt lat="43.273476" lon="-5.143722">
        <ele>81.0</ele>
        <time>2020-11-01T10:32:23Z</time>
      </trkpt>
      <trkpt lat="43.273487" lon="-5.1437263">
        <ele>81.0</ele>
        <time>2020-11-01T10:32:24Z</time>
      </trkpt>
      <trkpt lat="43.273502" lon="-5.143728">
        <ele>81.0</ele>
        <time>2020-11-01T10:32:25Z</time>
      </trkpt>
      <trkpt lat="43.273514" lon="-5.14373">
        <ele>81.0</ele>
        <time>2020-11-01T10:32:26Z</time>
      </trkpt>
      <trkpt lat="43.273518" lon="-5.1437345">
        <ele>81.0</ele>
        <time>2020-11-01T10:32:27Z</time>
      </trkpt>
      <trkpt lat="43.27353" lon="-5.143741">
        <ele>81.0</ele>
        <time>2020-11-01T10:32:28Z</time>
      </trkpt>
      <trkpt lat="43.273533" lon="-5.1437483">
        <ele>81.0</ele>
        <time>2020-11-01T10:32:29Z</time>
      </trkpt>
      <trkpt lat="43.27353" lon="-5.143755">
        <ele>81.0</ele>
        <time>2020-11-01T10:32:30Z</time>
      </trkpt>
      <trkpt lat="43.27353" lon="-5.143762">
        <ele>81.0</ele>
        <time>2020-11-01T10:32:31Z</time>
      </trkpt>
      <trkpt lat="43.27352" lon="-5.1437707">
        <ele>81.0</ele>
        <time>2020-11-01T10:32:32Z</time>
      </trkpt>
      <trkpt lat="43.273518" lon="-5.1437807">
        <ele>81.0</ele>
        <time>2020-11-01T10:32:33Z</time>
      </trkpt>
      <trkpt lat="43.27352" lon="-5.143794">
        <ele>81.0</ele>
        <time>2020-11-01T10:32:34Z</time>
      </trkpt>
      <trkpt lat="43.27352" lon="-5.14381">
        <ele>81.0</ele>
        <time>2020-11-01T10:32:35Z</time>
      </trkpt>
      <trkpt lat="43.273518" lon="-5.1438284">
        <ele>81.0</ele>
        <time>2020-11-01T10:32:36Z</time>
      </trkpt>
      <trkpt lat="43.273518" lon="-5.1438437">
        <ele>81.0</ele>
        <time>2020-11-01T10:32:37Z</time>
      </trkpt>
      <trkpt lat="43.273518" lon="-5.143856">
        <ele>81.0</ele>
        <time>2020-11-01T10:32:38Z</time>
      </trkpt>
      <trkpt lat="43.273518" lon="-5.143866">
        <ele>81.0</ele>
        <time>2020-11-01T10:32:39Z</time>
      </trkpt>
      <trkpt lat="43.273514" lon="-5.1438756">
        <ele>81.0</ele>
        <time>2020-11-01T10:32:40Z</time>
      </trkpt>
      <trkpt lat="43.273518" lon="-5.1438866">
        <ele>81.0</ele>
        <time>2020-11-01T10:32:41Z</time>
      </trkpt>
      <trkpt lat="43.27352" lon="-5.143901">
        <ele>81.0</ele>
        <time>2020-11-01T10:32:42Z</time>
      </trkpt>
      <trkpt lat="43.27352" lon="-5.1439147">
        <ele>81.0</ele>
        <time>2020-11-01T10:32:43Z</time>
      </trkpt>
      <trkpt lat="43.27353" lon="-5.143929">
        <ele>81.0</ele>
        <time>2020-11-01T10:32:44Z</time>
      </trkpt>
      <trkpt lat="43.273533" lon="-5.143943">
        <ele>81.0</ele>
        <time>2020-11-01T10:32:45Z</time>
      </trkpt>
      <trkpt lat="43.273533" lon="-5.1439548">
        <ele>81.0</ele>
        <time>2020-11-01T10:32:46Z</time>
      </trkpt>
      <trkpt lat="43.273533" lon="-5.1439667">
        <ele>81.0</ele>
        <time>2020-11-01T10:32:47Z</time>
      </trkpt>
      <trkpt lat="43.273533" lon="-5.143979">
        <ele>81.0</ele>
        <time>2020-11-01T10:32:48Z</time>
      </trkpt>
      <trkpt lat="43.273533" lon="-5.1439924">
        <ele>81.0</ele>
        <time>2020-11-01T10:32:49Z</time>
      </trkpt>
      <trkpt lat="43.273537" lon="-5.1440063">
        <ele>81.0</ele>
        <time>2020-11-01T10:32:50Z</time>
      </trkpt>
      <trkpt lat="43.273537" lon="-5.1440187">
        <ele>81.0</ele>
        <time>2020-11-01T10:32:51Z</time>
      </trkpt>
      <trkpt lat="43.273537" lon="-5.14403">
        <ele>81.0</ele>
        <time>2020-11-01T10:32:52Z</time>
      </trkpt>
      <trkpt lat="43.273544" lon="-5.144041">
        <ele>81.0</ele>
        <time>2020-11-01T10:32:53Z</time>
      </trkpt>
      <trkpt lat="43.273544" lon="-5.1440535">
        <ele>81.0</ele>
        <time>2020-11-01T10:32:54Z</time>
      </trkpt>
      <trkpt lat="43.273544" lon="-5.144064">
        <ele>81.0</ele>
        <time>2020-11-01T10:32:55Z</time>
      </trkpt>
      <trkpt lat="43.273544" lon="-5.144074">
        <ele>81.0</ele>
        <time>2020-11-01T10:32:56Z</time>
      </trkpt>
      <trkpt lat="43.273537" lon="-5.144084">
        <ele>81.0</ele>
        <time>2020-11-01T10:32:57Z</time>
      </trkpt>
      <trkpt lat="43.273537" lon="-5.1440916">
        <ele>81.0</ele>
        <time>2020-11-01T10:32:58Z</time>
      </trkpt>
      <trkpt lat="43.273533" lon="-5.1440988">
        <ele>81.0</ele>
        <time>2020-11-01T10:32:59Z</time>
      </trkpt>
      <trkpt lat="43.27353" lon="-5.1441054">
        <ele>81.0</ele>
        <time>2020-11-01T10:33:00Z</time>
      </trkpt>
      <trkpt lat="43.27353" lon="-5.144114">
        <ele>81.0</ele>
        <time>2020-11-01T10:33:01Z</time>
      </trkpt>
      <trkpt lat="43.27353" lon="-5.1441345">
        <ele>81.0</ele>
        <time>2020-11-01T10:33:03Z</time>
      </trkpt>
      <trkpt lat="43.27353" lon="-5.144134">
        <ele>81.0</ele>
        <time>2020-11-01T10:33:04Z</time>
      </trkpt>
      <trkpt lat="43.27353" lon="-5.1441336">
        <ele>81.0</ele>
        <time>2020-11-01T10:33:05Z</time>
      </trkpt>
      <trkpt lat="43.27353" lon="-5.1441274">
        <ele>81.0</ele>
        <time>2020-11-01T10:33:06Z</time>
      </trkpt>
      <trkpt lat="43.27353" lon="-5.1441216">
        <ele>81.0</ele>
        <time>2020-11-01T10:33:07Z</time>
      </trkpt>
      <trkpt lat="43.27353" lon="-5.1441154">
        <ele>81.0</ele>
        <time>2020-11-01T10:33:08Z</time>
      </trkpt>
      <trkpt lat="43.273533" lon="-5.144112">
        <ele>81.0</ele>
        <time>2020-11-01T10:33:09Z</time>
      </trkpt>
      <trkpt lat="43.27353" lon="-5.1441083">
        <ele>81.0</ele>
        <time>2020-11-01T10:33:10Z</time>
      </trkpt>
      <trkpt lat="43.27353" lon="-5.1441045">
        <ele>81.0</ele>
        <time>2020-11-01T10:33:11Z</time>
      </trkpt>
      <trkpt lat="43.27352" lon="-5.1440997">
        <ele>81.0</ele>
        <time>2020-11-01T10:33:12Z</time>
      </trkpt>
      <trkpt lat="43.273518" lon="-5.144095">
        <ele>81.0</ele>
        <time>2020-11-01T10:33:13Z</time>
      </trkpt>
      <trkpt lat="43.273514" lon="-5.144096">
        <ele>81.0</ele>
        <time>2020-11-01T10:33:14Z</time>
      </trkpt>
      <trkpt lat="43.273518" lon="-5.144102">
        <ele>81.0</ele>
        <time>2020-11-01T10:33:15Z</time>
      </trkpt>
      <trkpt lat="43.273518" lon="-5.1441083">
        <ele>81.0</ele>
        <time>2020-11-01T10:33:16Z</time>
      </trkpt>
      <trkpt lat="43.273518" lon="-5.1441145">
        <ele>81.0</ele>
        <time>2020-11-01T10:33:17Z</time>
      </trkpt>
      <trkpt lat="43.273514" lon="-5.1441193">
        <ele>81.0</ele>
        <time>2020-11-01T10:33:18Z</time>
      </trkpt>
      <trkpt lat="43.273514" lon="-5.1441207">
        <ele>81.0</ele>
        <time>2020-11-01T10:33:19Z</time>
      </trkpt>
      <trkpt lat="43.273514" lon="-5.144123">
        <ele>81.0</ele>
        <time>2020-11-01T10:33:20Z</time>
      </trkpt>
      <trkpt lat="43.273514" lon="-5.1441255">
        <ele>81.0</ele>
        <time>2020-11-01T10:33:21Z</time>
      </trkpt>
      <trkpt lat="43.273506" lon="-5.1441283">
        <ele>81.0</ele>
        <time>2020-11-01T10:33:22Z</time>
      </trkpt>
      <trkpt lat="43.273506" lon="-5.1441298">
        <ele>81.0</ele>
        <time>2020-11-01T10:33:23Z</time>
      </trkpt>
      <trkpt lat="43.273506" lon="-5.1441307">
        <ele>81.0</ele>
        <time>2020-11-01T10:33:24Z</time>
      </trkpt>
      <trkpt lat="43.273514" lon="-5.1441307">
        <ele>81.0</ele>
        <time>2020-11-01T10:33:25Z</time>
      </trkpt>
      <trkpt lat="43.273514" lon="-5.14413">
        <ele>81.0</ele>
        <time>2020-11-01T10:33:26Z</time>
      </trkpt>
      <trkpt lat="43.273514" lon="-5.144128">
        <ele>81.0</ele>
        <time>2020-11-01T10:33:31Z</time>
      </trkpt>
      <trkpt lat="43.273506" lon="-5.1441264">
        <ele>81.0</ele>
        <time>2020-11-01T10:33:32Z</time>
      </trkpt>
      <trkpt lat="43.2735" lon="-5.1441226">
        <ele>81.0</ele>
        <time>2020-11-01T10:33:33Z</time>
      </trkpt>
      <trkpt lat="43.273487" lon="-5.1441197">
        <ele>81.0</ele>
        <time>2020-11-01T10:33:34Z</time>
      </trkpt>
      <trkpt lat="43.273468" lon="-5.144119">
        <ele>81.0</ele>
        <time>2020-11-01T10:33:35Z</time>
      </trkpt>
      <trkpt lat="43.273453" lon="-5.144118">
        <ele>81.0</ele>
        <time>2020-11-01T10:33:36Z</time>
      </trkpt>
      <trkpt lat="43.273438" lon="-5.1441183">
        <ele>81.0</ele>
        <time>2020-11-01T10:33:37Z</time>
      </trkpt>
      <trkpt lat="43.273426" lon="-5.14412">
        <ele>82.0</ele>
        <time>2020-11-01T10:33:38Z</time>
      </trkpt>
      <trkpt lat="43.273415" lon="-5.144121">
        <ele>82.0</ele>
        <time>2020-11-01T10:33:39Z</time>
      </trkpt>
      <trkpt lat="43.2734" lon="-5.1441183">
        <ele>82.0</ele>
        <time>2020-11-01T10:33:40Z</time>
      </trkpt>
      <trkpt lat="43.27339" lon="-5.144114">
        <ele>82.0</ele>
        <time>2020-11-01T10:33:41Z</time>
      </trkpt>
      <trkpt lat="43.273384" lon="-5.1441135">
        <ele>82.0</ele>
        <time>2020-11-01T10:33:42Z</time>
      </trkpt>
      <trkpt lat="43.27338" lon="-5.144114">
        <ele>82.0</ele>
        <time>2020-11-01T10:33:43Z</time>
      </trkpt>
      <trkpt lat="43.273376" lon="-5.1441145">
        <ele>82.0</ele>
        <time>2020-11-01T10:33:44Z</time>
      </trkpt>
      <trkpt lat="43.27337" lon="-5.1441154">
        <ele>82.0</ele>
        <time>2020-11-01T10:33:45Z</time>
      </trkpt>
      <trkpt lat="43.273365" lon="-5.1441174">
        <ele>82.0</ele>
        <time>2020-11-01T10:33:46Z</time>
      </trkpt>
      <trkpt lat="43.273365" lon="-5.1441164">
        <ele>82.0</ele>
        <time>2020-11-01T10:33:47Z</time>
      </trkpt>
      <trkpt lat="43.27336" lon="-5.144115">
        <ele>82.0</ele>
        <time>2020-11-01T10:33:48Z</time>
      </trkpt>
      <trkpt lat="43.27335" lon="-5.144103">
        <ele>82.0</ele>
        <time>2020-11-01T10:33:50Z</time>
      </trkpt>
      <trkpt lat="43.27335" lon="-5.1440997">
        <ele>82.0</ele>
        <time>2020-11-01T10:33:51Z</time>
      </trkpt>
      <trkpt lat="43.273342" lon="-5.1440935">
        <ele>82.0</ele>
        <time>2020-11-01T10:33:52Z</time>
      </trkpt>
      <trkpt lat="43.27334" lon="-5.1440854">
        <ele>82.0</ele>
        <time>2020-11-01T10:33:53Z</time>
      </trkpt>
      <trkpt lat="43.273342" lon="-5.144078">
        <ele>82.0</ele>
        <time>2020-11-01T10:33:54Z</time>
      </trkpt>
      <trkpt lat="43.27335" lon="-5.1440682">
        <ele>82.0</ele>
        <time>2020-11-01T10:33:55Z</time>
      </trkpt>
      <trkpt lat="43.273354" lon="-5.1440578">
        <ele>82.0</ele>
        <time>2020-11-01T10:33:56Z</time>
      </trkpt>
      <trkpt lat="43.27336" lon="-5.1440487">
        <ele>82.0</ele>
        <time>2020-11-01T10:33:57Z</time>
      </trkpt>
      <trkpt lat="43.273365" lon="-5.144041">
        <ele>82.0</ele>
        <time>2020-11-01T10:33:58Z</time>
      </trkpt>
      <trkpt lat="43.273376" lon="-5.1440353">
        <ele>82.0</ele>
        <time>2020-11-01T10:33:59Z</time>
      </trkpt>
      <trkpt lat="43.273384" lon="-5.1440306">
        <ele>82.0</ele>
        <time>2020-11-01T10:34:00Z</time>
      </trkpt>
      <trkpt lat="43.273384" lon="-5.144022">
        <ele>82.0</ele>
        <time>2020-11-01T10:34:01Z</time>
      </trkpt>
      <trkpt lat="43.27339" lon="-5.1440144">
        <ele>82.0</ele>
        <time>2020-11-01T10:34:02Z</time>
      </trkpt>
      <trkpt lat="43.273384" lon="-5.1440067">
        <ele>82.0</ele>
        <time>2020-11-01T10:34:03Z</time>
      </trkpt>
      <trkpt lat="43.273384" lon="-5.1439977">
        <ele>82.0</ele>
        <time>2020-11-01T10:34:04Z</time>
      </trkpt>
      <trkpt lat="43.273376" lon="-5.143985">
        <ele>82.0</ele>
        <time>2020-11-01T10:34:05Z</time>
      </trkpt>
      <trkpt lat="43.273365" lon="-5.1439676">
        <ele>82.0</ele>
        <time>2020-11-01T10:34:06Z</time>
      </trkpt>
      <trkpt lat="43.27335" lon="-5.143949">
        <ele>82.0</ele>
        <time>2020-11-01T10:34:07Z</time>
      </trkpt>
      <trkpt lat="43.273335" lon="-5.1439295">
        <ele>82.0</ele>
        <time>2020-11-01T10:34:08Z</time>
      </trkpt>
      <trkpt lat="43.27331" lon="-5.143911">
        <ele>82.0</ele>
        <time>2020-11-01T10:34:09Z</time>
      </trkpt>
      <trkpt lat="43.27329" lon="-5.1438947">
        <ele>82.0</ele>
        <time>2020-11-01T10:34:10Z</time>
      </trkpt>
      <trkpt lat="43.273266" lon="-5.143882">
        <ele>82.0</ele>
        <time>2020-11-01T10:34:11Z</time>
      </trkpt>
      <trkpt lat="43.273247" lon="-5.143873">
        <ele>82.0</ele>
        <time>2020-11-01T10:34:12Z</time>
      </trkpt>
      <trkpt lat="43.273235" lon="-5.1438727">
        <ele>82.0</ele>
        <time>2020-11-01T10:34:13Z</time>
      </trkpt>
      <trkpt lat="43.273243" lon="-5.14388">
        <ele>82.0</ele>
        <time>2020-11-01T10:34:14Z</time>
      </trkpt>
      <trkpt lat="43.273247" lon="-5.14389">
        <ele>82.0</ele>
        <time>2020-11-01T10:34:15Z</time>
      </trkpt>
      <trkpt lat="43.273247" lon="-5.1438932">
        <ele>82.0</ele>
        <time>2020-11-01T10:34:16Z</time>
      </trkpt>
      <trkpt lat="43.27325" lon="-5.1438947">
        <ele>82.0</ele>
        <time>2020-11-01T10:34:17Z</time>
      </trkpt>
      <trkpt lat="43.273262" lon="-5.143897">
        <ele>82.0</ele>
        <time>2020-11-01T10:34:18Z</time>
      </trkpt>
      <trkpt lat="43.273266" lon="-5.1438975">
        <ele>82.0</ele>
        <time>2020-11-01T10:34:19Z</time>
      </trkpt>
      <trkpt lat="43.273266" lon="-5.143895">
        <ele>82.0</ele>
        <time>2020-11-01T10:34:20Z</time>
      </trkpt>
      <trkpt lat="43.273273" lon="-5.1438913">
        <ele>82.0</ele>
        <time>2020-11-01T10:34:21Z</time>
      </trkpt>
      <trkpt lat="43.273273" lon="-5.1438856">
        <ele>82.0</ele>
        <time>2020-11-01T10:34:22Z</time>
      </trkpt>
      <trkpt lat="43.273273" lon="-5.1438794">
        <ele>82.0</ele>
        <time>2020-11-01T10:34:23Z</time>
      </trkpt>
      <trkpt lat="43.273273" lon="-5.1438723">
        <ele>82.0</ele>
        <time>2020-11-01T10:34:24Z</time>
      </trkpt>
      <trkpt lat="43.273266" lon="-5.1438665">
        <ele>82.0</ele>
        <time>2020-11-01T10:34:25Z</time>
      </trkpt>
      <trkpt lat="43.27326" lon="-5.1438627">
        <ele>82.0</ele>
        <time>2020-11-01T10:34:26Z</time>
      </trkpt>
      <trkpt lat="43.27325" lon="-5.143858">
        <ele>82.0</ele>
        <time>2020-11-01T10:34:27Z</time>
      </trkpt>
      <trkpt lat="43.273243" lon="-5.143851">
        <ele>82.0</ele>
        <time>2020-11-01T10:34:28Z</time>
      </trkpt>
      <trkpt lat="43.273235" lon="-5.1438446">
        <ele>82.0</ele>
        <time>2020-11-01T10:34:29Z</time>
      </trkpt>
      <trkpt lat="43.273235" lon="-5.14384">
        <ele>82.0</ele>
        <time>2020-11-01T10:34:30Z</time>
      </trkpt>
      <trkpt lat="43.273235" lon="-5.1438403">
        <ele>82.0</ele>
        <time>2020-11-01T10:34:31Z</time>
      </trkpt>
      <trkpt lat="43.273235" lon="-5.1438413">
        <ele>82.0</ele>
        <time>2020-11-01T10:34:32Z</time>
      </trkpt>
      <trkpt lat="43.273243" lon="-5.1438446">
        <ele>82.0</ele>
        <time>2020-11-01T10:34:38Z</time>
      </trkpt>
      <trkpt lat="43.273243" lon="-5.1438484">
        <ele>82.0</ele>
        <time>2020-11-01T10:34:39Z</time>
      </trkpt>
      <trkpt lat="43.273243" lon="-5.143855">
        <ele>82.0</ele>
        <time>2020-11-01T10:34:40Z</time>
      </trkpt>
      <trkpt lat="43.273243" lon="-5.1438637">
        <ele>82.0</ele>
        <time>2020-11-01T10:34:41Z</time>
      </trkpt>
      <trkpt lat="43.273243" lon="-5.143872">
        <ele>82.0</ele>
        <time>2020-11-01T10:34:42Z</time>
      </trkpt>
      <trkpt lat="43.273243" lon="-5.1438794">
        <ele>82.0</ele>
        <time>2020-11-01T10:34:43Z</time>
      </trkpt>
      <trkpt lat="43.273243" lon="-5.143887">
        <ele>82.0</ele>
        <time>2020-11-01T10:34:44Z</time>
      </trkpt>
      <trkpt lat="43.273243" lon="-5.1438966">
        <ele>82.0</ele>
        <time>2020-11-01T10:34:45Z</time>
      </trkpt>
      <trkpt lat="43.273243" lon="-5.1439066">
        <ele>82.0</ele>
        <time>2020-11-01T10:34:46Z</time>
      </trkpt>
      <trkpt lat="43.273243" lon="-5.143914">
        <ele>82.0</ele>
        <time>2020-11-01T10:34:47Z</time>
      </trkpt>
      <trkpt lat="43.273243" lon="-5.1439195">
        <ele>82.0</ele>
        <time>2020-11-01T10:34:48Z</time>
      </trkpt>
      <trkpt lat="43.273243" lon="-5.143923">
        <ele>82.0</ele>
        <time>2020-11-01T10:34:49Z</time>
      </trkpt>
      <trkpt lat="43.273235" lon="-5.1439276">
        <ele>82.0</ele>
        <time>2020-11-01T10:34:50Z</time>
      </trkpt>
      <trkpt lat="43.27323" lon="-5.1439323">
        <ele>82.0</ele>
        <time>2020-11-01T10:34:51Z</time>
      </trkpt>
      <trkpt lat="43.273228" lon="-5.1439357">
        <ele>82.0</ele>
        <time>2020-11-01T10:34:52Z</time>
      </trkpt>
      <trkpt lat="43.27322" lon="-5.143939">
        <ele>82.0</ele>
        <time>2020-11-01T10:34:53Z</time>
      </trkpt>
      <trkpt lat="43.273216" lon="-5.143944">
        <ele>82.0</ele>
        <time>2020-11-01T10:34:54Z</time>
      </trkpt>
      <trkpt lat="43.273212" lon="-5.1439476">
        <ele>82.0</ele>
        <time>2020-11-01T10:34:55Z</time>
      </trkpt>
      <trkpt lat="43.273205" lon="-5.143954">
        <ele>82.0</ele>
        <time>2020-11-01T10:34:56Z</time>
      </trkpt>
      <trkpt lat="43.273205" lon="-5.143961">
        <ele>82.0</ele>
        <time>2020-11-01T10:34:57Z</time>
      </trkpt>
      <trkpt lat="43.2732" lon="-5.14397">
        <ele>82.0</ele>
        <time>2020-11-01T10:34:58Z</time>
      </trkpt>
      <trkpt lat="43.2732" lon="-5.14398">
        <ele>82.0</ele>
        <time>2020-11-01T10:34:59Z</time>
      </trkpt>
      <trkpt lat="43.273197" lon="-5.1439905">
        <ele>82.0</ele>
        <time>2020-11-01T10:35:00Z</time>
      </trkpt>
      <trkpt lat="43.273186" lon="-5.143997">
        <ele>82.0</ele>
        <time>2020-11-01T10:35:01Z</time>
      </trkpt>
      <trkpt lat="43.273182" lon="-5.1440034">
        <ele>82.0</ele>
        <time>2020-11-01T10:35:02Z</time>
      </trkpt>
      <trkpt lat="43.27317" lon="-5.1440086">
        <ele>82.0</ele>
        <time>2020-11-01T10:35:03Z</time>
      </trkpt>
      <trkpt lat="43.273167" lon="-5.144012">
        <ele>82.0</ele>
        <time>2020-11-01T10:35:04Z</time>
      </trkpt>
      <trkpt lat="43.27316" lon="-5.144014">
        <ele>82.0</ele>
        <time>2020-11-01T10:35:05Z</time>
      </trkpt>
      <trkpt lat="43.273155" lon="-5.1440153">
        <ele>82.0</ele>
        <time>2020-11-01T10:35:06Z</time>
      </trkpt>
      <trkpt lat="43.273155" lon="-5.1440234">
        <ele>82.0</ele>
        <time>2020-11-01T10:35:07Z</time>
      </trkpt>
      <trkpt lat="43.273148" lon="-5.144032">
        <ele>82.0</ele>
        <time>2020-11-01T10:35:08Z</time>
      </trkpt>
      <trkpt lat="43.273148" lon="-5.1440363">
        <ele>82.0</ele>
        <time>2020-11-01T10:35:09Z</time>
      </trkpt>
      <trkpt lat="43.273144" lon="-5.1440387">
        <ele>82.0</ele>
        <time>2020-11-01T10:35:10Z</time>
      </trkpt>
      <trkpt lat="43.27314" lon="-5.144039">
        <ele>82.0</ele>
        <time>2020-11-01T10:35:11Z</time>
      </trkpt>
      <trkpt lat="43.273132" lon="-5.1440387">
        <ele>82.0</ele>
        <time>2020-11-01T10:35:12Z</time>
      </trkpt>
      <trkpt lat="43.273125" lon="-5.144039">
        <ele>82.0</ele>
        <time>2020-11-01T10:35:13Z</time>
      </trkpt>
      <trkpt lat="43.273113" lon="-5.144039">
        <ele>82.0</ele>
        <time>2020-11-01T10:35:14Z</time>
      </trkpt>
      <trkpt lat="43.2731" lon="-5.1440353">
        <ele>82.0</ele>
        <time>2020-11-01T10:35:15Z</time>
      </trkpt>
      <trkpt lat="43.273094" lon="-5.1440296">
        <ele>82.0</ele>
        <time>2020-11-01T10:35:16Z</time>
      </trkpt>
      <trkpt lat="43.273083" lon="-5.1440244">
        <ele>82.0</ele>
        <time>2020-11-01T10:35:17Z</time>
      </trkpt>
      <trkpt lat="43.273067" lon="-5.1440206">
        <ele>82.0</ele>
        <time>2020-11-01T10:35:18Z</time>
      </trkpt>
      <trkpt lat="43.273056" lon="-5.1440196">
        <ele>82.0</ele>
        <time>2020-11-01T10:35:19Z</time>
      </trkpt>
      <trkpt lat="43.27305" lon="-5.1440206">
        <ele>82.0</ele>
        <time>2020-11-01T10:35:20Z</time>
      </trkpt>
      <trkpt lat="43.27304" lon="-5.144024">
        <ele>82.0</ele>
        <time>2020-11-01T10:35:21Z</time>
      </trkpt>
      <trkpt lat="43.273033" lon="-5.144026">
        <ele>82.0</ele>
        <time>2020-11-01T10:35:22Z</time>
      </trkpt>
      <trkpt lat="43.27302" lon="-5.1440225">
        <ele>82.0</ele>
        <time>2020-11-01T10:35:23Z</time>
      </trkpt>
      <trkpt lat="43.273006" lon="-5.144015">
        <ele>82.0</ele>
        <time>2020-11-01T10:35:24Z</time>
      </trkpt>
      <trkpt lat="43.27299" lon="-5.144007">
        <ele>82.0</ele>
        <time>2020-11-01T10:35:25Z</time>
      </trkpt>
      <trkpt lat="43.27295" lon="-5.1439877">
        <ele>79.0</ele>
        <time>2020-11-01T10:35:27Z</time>
      </trkpt>
      <trkpt lat="43.27295" lon="-5.1439896">
        <ele>79.0</ele>
        <time>2020-11-01T10:35:28Z</time>
      </trkpt>
      <trkpt lat="43.27295" lon="-5.1439924">
        <ele>79.0</ele>
        <time>2020-11-01T10:35:29Z</time>
      </trkpt>
      <trkpt lat="43.272945" lon="-5.143996">
        <ele>79.0</ele>
        <time>2020-11-01T10:35:30Z</time>
      </trkpt>
      <trkpt lat="43.272945" lon="-5.1440005">
        <ele>79.0</ele>
        <time>2020-11-01T10:35:31Z</time>
      </trkpt>
      <trkpt lat="43.272938" lon="-5.1440024">
        <ele>79.0</ele>
        <time>2020-11-01T10:35:32Z</time>
      </trkpt>
      <trkpt lat="43.27293" lon="-5.1440034">
        <ele>79.0</ele>
        <time>2020-11-01T10:35:33Z</time>
      </trkpt>
      <trkpt lat="43.272923" lon="-5.1440015">
        <ele>79.0</ele>
        <time>2020-11-01T10:35:34Z</time>
      </trkpt>
      <trkpt lat="43.272915" lon="-5.1439986">
        <ele>79.0</ele>
        <time>2020-11-01T10:35:35Z</time>
      </trkpt>
      <trkpt lat="43.272903" lon="-5.143992">
        <ele>79.0</ele>
        <time>2020-11-01T10:35:36Z</time>
      </trkpt>
      <trkpt lat="43.272892" lon="-5.143984">
        <ele>79.0</ele>
        <time>2020-11-01T10:35:37Z</time>
      </trkpt>
      <trkpt lat="43.272884" lon="-5.1439743">
        <ele>79.0</ele>
        <time>2020-11-01T10:35:38Z</time>
      </trkpt>
      <trkpt lat="43.272873" lon="-5.1439652">
        <ele>79.0</ele>
        <time>2020-11-01T10:35:39Z</time>
      </trkpt>
      <trkpt lat="43.27286" lon="-5.1439576">
        <ele>79.0</ele>
        <time>2020-11-01T10:35:39Z</time>
      </trkpt>
      <trkpt lat="43.272846" lon="-5.143949">
        <ele>79.0</ele>
        <time>2020-11-01T10:35:40Z</time>
      </trkpt>
      <trkpt lat="43.27284" lon="-5.143939">
        <ele>79.0</ele>
        <time>2020-11-01T10:35:41Z</time>
      </trkpt>
      <trkpt lat="43.272827" lon="-5.1439304">
        <ele>79.0</ele>
        <time>2020-11-01T10:35:42Z</time>
      </trkpt>
      <trkpt lat="43.272816" lon="-5.1439238">
        <ele>79.0</ele>
        <time>2020-11-01T10:35:43Z</time>
      </trkpt>
      <trkpt lat="43.27281" lon="-5.1439204">
        <ele>79.0</ele>
        <time>2020-11-01T10:35:44Z</time>
      </trkpt>
      <trkpt lat="43.272808" lon="-5.1439166">
        <ele>79.0</ele>
        <time>2020-11-01T10:35:45Z</time>
      </trkpt>
      <trkpt lat="43.2728" lon="-5.1439133">
        <ele>79.0</ele>
        <time>2020-11-01T10:35:46Z</time>
      </trkpt>
      <trkpt lat="43.272793" lon="-5.1439104">
        <ele>79.0</ele>
        <time>2020-11-01T10:35:47Z</time>
      </trkpt>
      <trkpt lat="43.272785" lon="-5.143913">
        <ele>79.0</ele>
        <time>2020-11-01T10:35:48Z</time>
      </trkpt>
      <trkpt lat="43.272778" lon="-5.1439176">
        <ele>79.0</ele>
        <time>2020-11-01T10:35:49Z</time>
      </trkpt>
      <trkpt lat="43.272766" lon="-5.1439214">
        <ele>79.0</ele>
        <time>2020-11-01T10:35:50Z</time>
      </trkpt>
      <trkpt lat="43.27275" lon="-5.1439247">
        <ele>80.0</ele>
        <time>2020-11-01T10:35:51Z</time>
      </trkpt>
      <trkpt lat="43.272736" lon="-5.143927">
        <ele>80.0</ele>
        <time>2020-11-01T10:35:52Z</time>
      </trkpt>
      <trkpt lat="43.27272" lon="-5.14393">
        <ele>80.0</ele>
        <time>2020-11-01T10:35:53Z</time>
      </trkpt>
      <trkpt lat="43.27271" lon="-5.1439333">
        <ele>80.0</ele>
        <time>2020-11-01T10:35:54Z</time>
      </trkpt>
      <trkpt lat="43.272694" lon="-5.143936">
        <ele>80.0</ele>
        <time>2020-11-01T10:35:55Z</time>
      </trkpt>
      <trkpt lat="43.272682" lon="-5.14394">
        <ele>80.0</ele>
        <time>2020-11-01T10:35:56Z</time>
      </trkpt>
      <trkpt lat="43.272675" lon="-5.143944">
        <ele>80.0</ele>
        <time>2020-11-01T10:35:57Z</time>
      </trkpt>
      <trkpt lat="43.272667" lon="-5.1439476">
        <ele>80.0</ele>
        <time>2020-11-01T10:35:58Z</time>
      </trkpt>
      <trkpt lat="43.272663" lon="-5.143953">
        <ele>80.0</ele>
        <time>2020-11-01T10:35:59Z</time>
      </trkpt>
      <trkpt lat="43.27265" lon="-5.143961">
        <ele>80.0</ele>
        <time>2020-11-01T10:36:00Z</time>
      </trkpt>
      <trkpt lat="43.272644" lon="-5.143974">
        <ele>80.0</ele>
        <time>2020-11-01T10:36:01Z</time>
      </trkpt>
      <trkpt lat="43.272636" lon="-5.1439915">
        <ele>80.0</ele>
        <time>2020-11-01T10:36:02Z</time>
      </trkpt>
      <trkpt lat="43.27262" lon="-5.14401">
        <ele>80.0</ele>
        <time>2020-11-01T10:36:03Z</time>
      </trkpt>
      <trkpt lat="43.272614" lon="-5.144025">
        <ele>80.0</ele>
        <time>2020-11-01T10:36:04Z</time>
      </trkpt>
      <trkpt lat="43.272602" lon="-5.1440363">
        <ele>80.0</ele>
        <time>2020-11-01T10:36:05Z</time>
      </trkpt>
      <trkpt lat="43.2726" lon="-5.1440444">
        <ele>80.0</ele>
        <time>2020-11-01T10:36:06Z</time>
      </trkpt>
      <trkpt lat="43.272587" lon="-5.1440487">
        <ele>80.0</ele>
        <time>2020-11-01T10:36:07Z</time>
      </trkpt>
      <trkpt lat="43.272583" lon="-5.14405">
        <ele>80.0</ele>
        <time>2020-11-01T10:36:08Z</time>
      </trkpt>
      <trkpt lat="43.272575" lon="-5.144049">
        <ele>80.0</ele>
        <time>2020-11-01T10:36:09Z</time>
      </trkpt>
      <trkpt lat="43.272564" lon="-5.1440463">
        <ele>80.0</ele>
        <time>2020-11-01T10:36:10Z</time>
      </trkpt>
      <trkpt lat="43.272556" lon="-5.1440406">
        <ele>80.0</ele>
        <time>2020-11-01T10:36:11Z</time>
      </trkpt>
      <trkpt lat="43.27254" lon="-5.1440363">
        <ele>80.0</ele>
        <time>2020-11-01T10:36:12Z</time>
      </trkpt>
      <trkpt lat="43.272526" lon="-5.144037">
        <ele>80.0</ele>
        <time>2020-11-01T10:36:13Z</time>
      </trkpt>
      <trkpt lat="43.272514" lon="-5.1440344">
        <ele>80.0</ele>
        <time>2020-11-01T10:36:14Z</time>
      </trkpt>
      <trkpt lat="43.27251" lon="-5.1440296">
        <ele>80.0</ele>
        <time>2020-11-01T10:36:15Z</time>
      </trkpt>
      <trkpt lat="43.2725" lon="-5.144025">
        <ele>80.0</ele>
        <time>2020-11-01T10:36:16Z</time>
      </trkpt>
      <trkpt lat="43.272488" lon="-5.14402">
        <ele>80.0</ele>
        <time>2020-11-01T10:36:17Z</time>
      </trkpt>
      <trkpt lat="43.272484" lon="-5.1440167">
        <ele>80.0</ele>
        <time>2020-11-01T10:36:18Z</time>
      </trkpt>
      <trkpt lat="43.27247" lon="-5.144012">
        <ele>80.0</ele>
        <time>2020-11-01T10:36:19Z</time>
      </trkpt>
      <trkpt lat="43.272457" lon="-5.144007">
        <ele>80.0</ele>
        <time>2020-11-01T10:36:20Z</time>
      </trkpt>
      <trkpt lat="43.27244" lon="-5.144">
        <ele>80.0</ele>
        <time>2020-11-01T10:36:21Z</time>
      </trkpt>
      <trkpt lat="43.272427" lon="-5.143991">
        <ele>80.0</ele>
        <time>2020-11-01T10:36:22Z</time>
      </trkpt>
      <trkpt lat="43.272423" lon="-5.143983">
        <ele>80.0</ele>
        <time>2020-11-01T10:36:23Z</time>
      </trkpt>
      <trkpt lat="43.27242" lon="-5.1439753">
        <ele>80.0</ele>
        <time>2020-11-01T10:36:24Z</time>
      </trkpt>
      <trkpt lat="43.27241" lon="-5.143971">
        <ele>80.0</ele>
        <time>2020-11-01T10:36:25Z</time>
      </trkpt>
      <trkpt lat="43.272408" lon="-5.143967">
        <ele>80.0</ele>
        <time>2020-11-01T10:36:26Z</time>
      </trkpt>
      <trkpt lat="43.272396" lon="-5.1439624">
        <ele>80.0</ele>
        <time>2020-11-01T10:36:27Z</time>
      </trkpt>
      <trkpt lat="43.272392" lon="-5.1439586">
        <ele>80.0</ele>
        <time>2020-11-01T10:36:28Z</time>
      </trkpt>
      <trkpt lat="43.27238" lon="-5.1439543">
        <ele>80.0</ele>
        <time>2020-11-01T10:36:29Z</time>
      </trkpt>
      <trkpt lat="43.27237" lon="-5.143951">
        <ele>80.0</ele>
        <time>2020-11-01T10:36:30Z</time>
      </trkpt>
      <trkpt lat="43.27237" lon="-5.14395">
        <ele>80.0</ele>
        <time>2020-11-01T10:36:31Z</time>
      </trkpt>
      <trkpt lat="43.272366" lon="-5.14395">
        <ele>80.0</ele>
        <time>2020-11-01T10:36:32Z</time>
      </trkpt>
      <trkpt lat="43.27237" lon="-5.143953">
        <ele>80.0</ele>
        <time>2020-11-01T10:36:33Z</time>
      </trkpt>
      <trkpt lat="43.272366" lon="-5.1439548">
        <ele>80.0</ele>
        <time>2020-11-01T10:36:34Z</time>
      </trkpt>
      <trkpt lat="43.27236" lon="-5.143953">
        <ele>80.0</ele>
        <time>2020-11-01T10:36:35Z</time>
      </trkpt>
      <trkpt lat="43.272354" lon="-5.143948">
        <ele>80.0</ele>
        <time>2020-11-01T10:36:36Z</time>
      </trkpt>
      <trkpt lat="43.27234" lon="-5.1439404">
        <ele>80.0</ele>
        <time>2020-11-01T10:36:37Z</time>
      </trkpt>
      <trkpt lat="43.27233" lon="-5.1439304">
        <ele>80.0</ele>
        <time>2020-11-01T10:36:38Z</time>
      </trkpt>
      <trkpt lat="43.27232" lon="-5.1439204">
        <ele>80.0</ele>
        <time>2020-11-01T10:36:39Z</time>
      </trkpt>
      <trkpt lat="43.27231" lon="-5.143912">
        <ele>80.0</ele>
        <time>2020-11-01T10:36:40Z</time>
      </trkpt>
      <trkpt lat="43.272278" lon="-5.1438913">
        <ele>80.0</ele>
        <time>2020-11-01T10:36:42Z</time>
      </trkpt>
      <trkpt lat="43.272278" lon="-5.14389">
        <ele>82.0</ele>
        <time>2020-11-01T10:36:43Z</time>
      </trkpt>
      <trkpt lat="43.272274" lon="-5.1438894">
        <ele>82.0</ele>
        <time>2020-11-01T10:36:44Z</time>
      </trkpt>
      <trkpt lat="43.272274" lon="-5.143891">
        <ele>82.0</ele>
        <time>2020-11-01T10:36:45Z</time>
      </trkpt>
      <trkpt lat="43.27227" lon="-5.1438923">
        <ele>82.0</ele>
        <time>2020-11-01T10:36:46Z</time>
      </trkpt>
      <trkpt lat="43.27227" lon="-5.143893">
        <ele>82.0</ele>
        <time>2020-11-01T10:36:47Z</time>
      </trkpt>
      <trkpt lat="43.272263" lon="-5.1438904">
        <ele>82.0</ele>
        <time>2020-11-01T10:36:48Z</time>
      </trkpt>
      <trkpt lat="43.27226" lon="-5.1438856">
        <ele>82.0</ele>
        <time>2020-11-01T10:36:49Z</time>
      </trkpt>
      <trkpt lat="43.272247" lon="-5.1438766">
        <ele>82.0</ele>
        <time>2020-11-01T10:36:50Z</time>
      </trkpt>
      <trkpt lat="43.272243" lon="-5.1438665">
        <ele>82.0</ele>
        <time>2020-11-01T10:36:51Z</time>
      </trkpt>
      <trkpt lat="43.27223" lon="-5.143856">
        <ele>82.0</ele>
        <time>2020-11-01T10:36:52Z</time>
      </trkpt>
      <trkpt lat="43.272217" lon="-5.1438465">
        <ele>82.0</ele>
        <time>2020-11-01T10:36:53Z</time>
      </trkpt>
      <trkpt lat="43.27221" lon="-5.1438365">
        <ele>82.0</ele>
        <time>2020-11-01T10:36:54Z</time>
      </trkpt>
      <trkpt lat="43.272198" lon="-5.1438265">
        <ele>82.0</ele>
        <time>2020-11-01T10:36:55Z</time>
      </trkpt>
      <trkpt lat="43.272186" lon="-5.143816">
        <ele>82.0</ele>
        <time>2020-11-01T10:36:56Z</time>
      </trkpt>
      <trkpt lat="43.272175" lon="-5.143803">
        <ele>82.0</ele>
        <time>2020-11-01T10:36:57Z</time>
      </trkpt>
      <trkpt lat="43.27216" lon="-5.143789">
        <ele>82.0</ele>
        <time>2020-11-01T10:36:58Z</time>
      </trkpt>
      <trkpt lat="43.272152" lon="-5.143777">
        <ele>82.0</ele>
        <time>2020-11-01T10:36:59Z</time>
      </trkpt>
      <trkpt lat="43.272144" lon="-5.1437674">
        <ele>82.0</ele>
        <time>2020-11-01T10:37:00Z</time>
      </trkpt>
      <trkpt lat="43.27214" lon="-5.143757">
        <ele>82.0</ele>
        <time>2020-11-01T10:37:01Z</time>
      </trkpt>
      <trkpt lat="43.27213" lon="-5.1437464">
        <ele>82.0</ele>
        <time>2020-11-01T10:37:02Z</time>
      </trkpt>
      <trkpt lat="43.272125" lon="-5.143737">
        <ele>82.0</ele>
        <time>2020-11-01T10:37:03Z</time>
      </trkpt>
      <trkpt lat="43.272114" lon="-5.1437273">
        <ele>82.0</ele>
        <time>2020-11-01T10:37:04Z</time>
      </trkpt>
      <trkpt lat="43.2721" lon="-5.1437173">
        <ele>82.0</ele>
        <time>2020-11-01T10:37:05Z</time>
      </trkpt>
      <trkpt lat="43.272083" lon="-5.1437054">
        <ele>82.0</ele>
        <time>2020-11-01T10:37:06Z</time>
      </trkpt>
      <trkpt lat="43.272068" lon="-5.143692">
        <ele>82.0</ele>
        <time>2020-11-01T10:37:07Z</time>
      </trkpt>
      <trkpt lat="43.27206" lon="-5.1436787">
        <ele>82.0</ele>
        <time>2020-11-01T10:37:08Z</time>
      </trkpt>
      <trkpt lat="43.27205" lon="-5.143669">
        <ele>82.0</ele>
        <time>2020-11-01T10:37:09Z</time>
      </trkpt>
      <trkpt lat="43.272038" lon="-5.143657">
        <ele>82.0</ele>
        <time>2020-11-01T10:37:10Z</time>
      </trkpt>
      <trkpt lat="43.27203" lon="-5.1436434">
        <ele>82.0</ele>
        <time>2020-11-01T10:37:11Z</time>
      </trkpt>
      <trkpt lat="43.27202" lon="-5.1436276">
        <ele>82.0</ele>
        <time>2020-11-01T10:37:12Z</time>
      </trkpt>
      <trkpt lat="43.272007" lon="-5.143613">
        <ele>82.0</ele>
        <time>2020-11-01T10:37:13Z</time>
      </trkpt>
      <trkpt lat="43.271996" lon="-5.1435995">
        <ele>82.0</ele>
        <time>2020-11-01T10:37:14Z</time>
      </trkpt>
      <trkpt lat="43.27199" lon="-5.1435857">
        <ele>82.0</ele>
        <time>2020-11-01T10:37:15Z</time>
      </trkpt>
      <trkpt lat="43.271988" lon="-5.1435723">
        <ele>82.0</ele>
        <time>2020-11-01T10:37:16Z</time>
      </trkpt>
      <trkpt lat="43.27198" lon="-5.1435604">
        <ele>82.0</ele>
        <time>2020-11-01T10:37:17Z</time>
      </trkpt>
      <trkpt lat="43.271976" lon="-5.143551">
        <ele>82.0</ele>
        <time>2020-11-01T10:37:18Z</time>
      </trkpt>
      <trkpt lat="43.271965" lon="-5.1435385">
        <ele>82.0</ele>
        <time>2020-11-01T10:37:19Z</time>
      </trkpt>
      <trkpt lat="43.271957" lon="-5.1435256">
        <ele>82.0</ele>
        <time>2020-11-01T10:37:20Z</time>
      </trkpt>
      <trkpt lat="43.27195" lon="-5.1435113">
        <ele>82.0</ele>
        <time>2020-11-01T10:37:21Z</time>
      </trkpt>
      <trkpt lat="43.271942" lon="-5.1434984">
        <ele>82.0</ele>
        <time>2020-11-01T10:37:22Z</time>
      </trkpt>
      <trkpt lat="43.27193" lon="-5.143486">
        <ele>82.0</ele>
        <time>2020-11-01T10:37:23Z</time>
      </trkpt>
      <trkpt lat="43.27192" lon="-5.1434746">
        <ele>82.0</ele>
        <time>2020-11-01T10:37:24Z</time>
      </trkpt>
      <trkpt lat="43.27191" lon="-5.1434655">
        <ele>82.0</ele>
        <time>2020-11-01T10:37:25Z</time>
      </trkpt>
      <trkpt lat="43.271896" lon="-5.1434574">
        <ele>82.0</ele>
        <time>2020-11-01T10:37:26Z</time>
      </trkpt>
      <trkpt lat="43.271885" lon="-5.14345">
        <ele>82.0</ele>
        <time>2020-11-01T10:37:27Z</time>
      </trkpt>
      <trkpt lat="43.271873" lon="-5.143441">
        <ele>82.0</ele>
        <time>2020-11-01T10:37:28Z</time>
      </trkpt>
      <trkpt lat="43.27186" lon="-5.1434293">
        <ele>82.0</ele>
        <time>2020-11-01T10:37:29Z</time>
      </trkpt>
      <trkpt lat="43.27185" lon="-5.1434145">
        <ele>82.0</ele>
        <time>2020-11-01T10:37:30Z</time>
      </trkpt>
      <trkpt lat="43.27184" lon="-5.1433983">
        <ele>82.0</ele>
        <time>2020-11-01T10:37:31Z</time>
      </trkpt>
      <trkpt lat="43.271835" lon="-5.1433864">
        <ele>82.0</ele>
        <time>2020-11-01T10:37:32Z</time>
      </trkpt>
      <trkpt lat="43.271828" lon="-5.143374">
        <ele>82.0</ele>
        <time>2020-11-01T10:37:33Z</time>
      </trkpt>
      <trkpt lat="43.271835" lon="-5.143361">
        <ele>82.0</ele>
        <time>2020-11-01T10:37:34Z</time>
      </trkpt>
      <trkpt lat="43.271835" lon="-5.143346">
        <ele>82.0</ele>
        <time>2020-11-01T10:37:35Z</time>
      </trkpt>
      <trkpt lat="43.271835" lon="-5.143334">
        <ele>82.0</ele>
        <time>2020-11-01T10:37:36Z</time>
      </trkpt>
      <trkpt lat="43.271835" lon="-5.1433253">
        <ele>82.0</ele>
        <time>2020-11-01T10:37:37Z</time>
      </trkpt>
      <trkpt lat="43.271828" lon="-5.143318">
        <ele>82.0</ele>
        <time>2020-11-01T10:37:38Z</time>
      </trkpt>
      <trkpt lat="43.271828" lon="-5.143313">
        <ele>82.0</ele>
        <time>2020-11-01T10:37:39Z</time>
      </trkpt>
      <trkpt lat="43.27182" lon="-5.1433067">
        <ele>83.0</ele>
        <time>2020-11-01T10:37:44Z</time>
      </trkpt>
      <trkpt lat="43.27181" lon="-5.14332">
        <ele>83.0</ele>
        <time>2020-11-01T10:37:46Z</time>
      </trkpt>
      <trkpt lat="43.27181" lon="-5.143321">
        <ele>83.0</ele>
        <time>2020-11-01T10:37:47Z</time>
      </trkpt>
      <trkpt lat="43.27181" lon="-5.1433234">
        <ele>83.0</ele>
        <time>2020-11-01T10:37:48Z</time>
      </trkpt>
      <trkpt lat="43.271812" lon="-5.143328">
        <ele>83.0</ele>
        <time>2020-11-01T10:37:49Z</time>
      </trkpt>
      <trkpt lat="43.27182" lon="-5.143345">
        <ele>83.0</ele>
        <time>2020-11-01T10:37:51Z</time>
      </trkpt>
      <trkpt lat="43.27182" lon="-5.1433444">
        <ele>83.0</ele>
        <time>2020-11-01T10:37:52Z</time>
      </trkpt>
      <trkpt lat="43.27181" lon="-5.1433415">
        <ele>83.0</ele>
        <time>2020-11-01T10:38:08Z</time>
      </trkpt>
      <trkpt lat="43.27181" lon="-5.1433406">
        <ele>83.0</ele>
        <time>2020-11-01T10:38:09Z</time>
      </trkpt>
      <trkpt lat="43.2718" lon="-5.143336">
        <ele>83.0</ele>
        <time>2020-11-01T10:38:10Z</time>
      </trkpt>
      <trkpt lat="43.271786" lon="-5.143327">
        <ele>83.0</ele>
        <time>2020-11-01T10:38:11Z</time>
      </trkpt>
      <trkpt lat="43.27178" lon="-5.1433153">
        <ele>83.0</ele>
        <time>2020-11-01T10:38:12Z</time>
      </trkpt>
      <trkpt lat="43.271763" lon="-5.1433">
        <ele>83.0</ele>
        <time>2020-11-01T10:38:13Z</time>
      </trkpt>
      <trkpt lat="43.27175" lon="-5.143281">
        <ele>83.0</ele>
        <time>2020-11-01T10:38:14Z</time>
      </trkpt>
      <trkpt lat="43.271748" lon="-5.1432605">
        <ele>83.0</ele>
        <time>2020-11-01T10:38:15Z</time>
      </trkpt>
      <trkpt lat="43.27174" lon="-5.1432385">
        <ele>83.0</ele>
        <time>2020-11-01T10:38:16Z</time>
      </trkpt>
      <trkpt lat="43.271736" lon="-5.143218">
        <ele>83.0</ele>
        <time>2020-11-01T10:38:17Z</time>
      </trkpt>
      <trkpt lat="43.271732" lon="-5.1431985">
        <ele>83.0</ele>
        <time>2020-11-01T10:38:18Z</time>
      </trkpt>
      <trkpt lat="43.271732" lon="-5.1431813">
        <ele>83.0</ele>
        <time>2020-11-01T10:38:19Z</time>
      </trkpt>
      <trkpt lat="43.271725" lon="-5.1431637">
        <ele>83.0</ele>
        <time>2020-11-01T10:38:20Z</time>
      </trkpt>
      <trkpt lat="43.27172" lon="-5.1431413">
        <ele>83.0</ele>
        <time>2020-11-01T10:38:21Z</time>
      </trkpt>
      <trkpt lat="43.271717" lon="-5.143118">
        <ele>83.0</ele>
        <time>2020-11-01T10:38:22Z</time>
      </trkpt>
      <trkpt lat="43.27171" lon="-5.143095">
        <ele>83.0</ele>
        <time>2020-11-01T10:38:23Z</time>
      </trkpt>
      <trkpt lat="43.271706" lon="-5.1430736">
        <ele>83.0</ele>
        <time>2020-11-01T10:38:24Z</time>
      </trkpt>
      <trkpt lat="43.2717" lon="-5.1430554">
        <ele>83.0</ele>
        <time>2020-11-01T10:38:25Z</time>
      </trkpt>
      <trkpt lat="43.271694" lon="-5.143038">
        <ele>83.0</ele>
        <time>2020-11-01T10:38:26Z</time>
      </trkpt>
      <trkpt lat="43.271694" lon="-5.1430216">
        <ele>83.0</ele>
        <time>2020-11-01T10:38:27Z</time>
      </trkpt>
      <trkpt lat="43.27169" lon="-5.143008">
        <ele>83.0</ele>
        <time>2020-11-01T10:38:28Z</time>
      </trkpt>
      <trkpt lat="43.271687" lon="-5.1429973">
        <ele>83.0</ele>
        <time>2020-11-01T10:38:29Z</time>
      </trkpt>
      <trkpt lat="43.271675" lon="-5.142986">
        <ele>83.0</ele>
        <time>2020-11-01T10:38:30Z</time>
      </trkpt>
      <trkpt lat="43.27167" lon="-5.142977">
        <ele>83.0</ele>
        <time>2020-11-01T10:38:31Z</time>
      </trkpt>
      <trkpt lat="43.27167" lon="-5.14297">
        <ele>83.0</ele>
        <time>2020-11-01T10:38:32Z</time>
      </trkpt>
      <trkpt lat="43.27166" lon="-5.1429625">
        <ele>83.0</ele>
        <time>2020-11-01T10:38:33Z</time>
      </trkpt>
      <trkpt lat="43.271656" lon="-5.1429567">
        <ele>83.0</ele>
        <time>2020-11-01T10:38:34Z</time>
      </trkpt>
      <trkpt lat="43.27165" lon="-5.1429486">
        <ele>83.0</ele>
        <time>2020-11-01T10:38:35Z</time>
      </trkpt>
      <trkpt lat="43.271645" lon="-5.142937">
        <ele>83.0</ele>
        <time>2020-11-01T10:38:36Z</time>
      </trkpt>
      <trkpt lat="43.27164" lon="-5.142927">
        <ele>83.0</ele>
        <time>2020-11-01T10:38:37Z</time>
      </trkpt>
      <trkpt lat="43.271633" lon="-5.1429157">
        <ele>83.0</ele>
        <time>2020-11-01T10:38:38Z</time>
      </trkpt>
      <trkpt lat="43.27163" lon="-5.1429033">
        <ele>83.0</ele>
        <time>2020-11-01T10:38:39Z</time>
      </trkpt>
      <trkpt lat="43.271626" lon="-5.142891">
        <ele>83.0</ele>
        <time>2020-11-01T10:38:40Z</time>
      </trkpt>
      <trkpt lat="43.271614" lon="-5.1428766">
        <ele>83.0</ele>
        <time>2020-11-01T10:38:41Z</time>
      </trkpt>
      <trkpt lat="43.271606" lon="-5.142865">
        <ele>83.0</ele>
        <time>2020-11-01T10:38:42Z</time>
      </trkpt>
      <trkpt lat="43.2716" lon="-5.142856">
        <ele>83.0</ele>
        <time>2020-11-01T10:38:43Z</time>
      </trkpt>
      <trkpt lat="43.271587" lon="-5.14285">
        <ele>83.0</ele>
        <time>2020-11-01T10:38:44Z</time>
      </trkpt>
      <trkpt lat="43.271576" lon="-5.1428447">
        <ele>83.0</ele>
        <time>2020-11-01T10:38:45Z</time>
      </trkpt>
      <trkpt lat="43.27157" lon="-5.142843">
        <ele>83.0</ele>
        <time>2020-11-01T10:38:46Z</time>
      </trkpt>
      <trkpt lat="43.271553" lon="-5.14284">
        <ele>85.0</ele>
        <time>2020-11-01T10:38:47Z</time>
      </trkpt>
      <trkpt lat="43.27154" lon="-5.1428356">
        <ele>85.0</ele>
        <time>2020-11-01T10:38:48Z</time>
      </trkpt>
      <trkpt lat="43.27153" lon="-5.142832">
        <ele>85.0</ele>
        <time>2020-11-01T10:38:49Z</time>
      </trkpt>
      <trkpt lat="43.271523" lon="-5.142828">
        <ele>85.0</ele>
        <time>2020-11-01T10:38:50Z</time>
      </trkpt>
      <trkpt lat="43.27151" lon="-5.142827">
        <ele>85.0</ele>
        <time>2020-11-01T10:38:51Z</time>
      </trkpt>
      <trkpt lat="43.271507" lon="-5.142827">
        <ele>85.0</ele>
        <time>2020-11-01T10:38:52Z</time>
      </trkpt>
      <trkpt lat="43.2715" lon="-5.142826">
        <ele>85.0</ele>
        <time>2020-11-01T10:38:53Z</time>
      </trkpt>
      <trkpt lat="43.271496" lon="-5.1428266">
        <ele>85.0</ele>
        <time>2020-11-01T10:38:54Z</time>
      </trkpt>
      <trkpt lat="43.271492" lon="-5.1428266">
        <ele>85.0</ele>
        <time>2020-11-01T10:38:55Z</time>
      </trkpt>
      <trkpt lat="43.271484" lon="-5.1428266">
        <ele>85.0</ele>
        <time>2020-11-01T10:38:56Z</time>
      </trkpt>
      <trkpt lat="43.271484" lon="-5.142829">
        <ele>85.0</ele>
        <time>2020-11-01T10:38:57Z</time>
      </trkpt>
      <trkpt lat="43.27148" lon="-5.142833">
        <ele>85.0</ele>
        <time>2020-11-01T10:38:58Z</time>
      </trkpt>
      <trkpt lat="43.271477" lon="-5.1428385">
        <ele>85.0</ele>
        <time>2020-11-01T10:38:59Z</time>
      </trkpt>
      <trkpt lat="43.271477" lon="-5.142845">
        <ele>85.0</ele>
        <time>2020-11-01T10:39:00Z</time>
      </trkpt>
      <trkpt lat="43.27147" lon="-5.142854">
        <ele>85.0</ele>
        <time>2020-11-01T10:39:01Z</time>
      </trkpt>
      <trkpt lat="43.27147" lon="-5.142867">
        <ele>85.0</ele>
        <time>2020-11-01T10:39:02Z</time>
      </trkpt>
      <trkpt lat="43.27147" lon="-5.1428823">
        <ele>85.0</ele>
        <time>2020-11-01T10:39:03Z</time>
      </trkpt>
      <trkpt lat="43.27147" lon="-5.142896">
        <ele>85.0</ele>
        <time>2020-11-01T10:39:04Z</time>
      </trkpt>
      <trkpt lat="43.271465" lon="-5.1429076">
        <ele>85.0</ele>
        <time>2020-11-01T10:39:05Z</time>
      </trkpt>
      <trkpt lat="43.271465" lon="-5.1429167">
        <ele>85.0</ele>
        <time>2020-11-01T10:39:06Z</time>
      </trkpt>
      <trkpt lat="43.271465" lon="-5.142928">
        <ele>85.0</ele>
        <time>2020-11-01T10:39:07Z</time>
      </trkpt>
      <trkpt lat="43.271465" lon="-5.1429415">
        <ele>85.0</ele>
        <time>2020-11-01T10:39:08Z</time>
      </trkpt>
      <trkpt lat="43.271465" lon="-5.1429563">
        <ele>85.0</ele>
        <time>2020-11-01T10:39:09Z</time>
      </trkpt>
      <trkpt lat="43.27146" lon="-5.142969">
        <ele>85.0</ele>
        <time>2020-11-01T10:39:10Z</time>
      </trkpt>
      <trkpt lat="43.27145" lon="-5.1429815">
        <ele>85.0</ele>
        <time>2020-11-01T10:39:11Z</time>
      </trkpt>
      <trkpt lat="43.27144" lon="-5.1429935">
        <ele>85.0</ele>
        <time>2020-11-01T10:39:12Z</time>
      </trkpt>
      <trkpt lat="43.27143" lon="-5.1430016">
        <ele>85.0</ele>
        <time>2020-11-01T10:39:13Z</time>
      </trkpt>
      <trkpt lat="43.27142" lon="-5.143006">
        <ele>85.0</ele>
        <time>2020-11-01T10:39:14Z</time>
      </trkpt>
      <trkpt lat="43.271408" lon="-5.143009">
        <ele>85.0</ele>
        <time>2020-11-01T10:39:15Z</time>
      </trkpt>
      <trkpt lat="43.271397" lon="-5.1430135">
        <ele>85.0</ele>
        <time>2020-11-01T10:39:16Z</time>
      </trkpt>
      <trkpt lat="43.27139" lon="-5.143019">
        <ele>85.0</ele>
        <time>2020-11-01T10:39:17Z</time>
      </trkpt>
      <trkpt lat="43.27138" lon="-5.143024">
        <ele>85.0</ele>
        <time>2020-11-01T10:39:18Z</time>
      </trkpt>
      <trkpt lat="43.27138" lon="-5.1430316">
        <ele>86.0</ele>
        <time>2020-11-01T10:39:19Z</time>
      </trkpt>
      <trkpt lat="43.271374" lon="-5.1430373">
        <ele>86.0</ele>
        <time>2020-11-01T10:39:20Z</time>
      </trkpt>
      <trkpt lat="43.271366" lon="-5.143043">
        <ele>86.0</ele>
        <time>2020-11-01T10:39:21Z</time>
      </trkpt>
      <trkpt lat="43.271362" lon="-5.1430473">
        <ele>86.0</ele>
        <time>2020-11-01T10:39:22Z</time>
      </trkpt>
      <trkpt lat="43.27136" lon="-5.1430497">
        <ele>86.0</ele>
        <time>2020-11-01T10:39:23Z</time>
      </trkpt>
      <trkpt lat="43.271347" lon="-5.143049">
        <ele>86.0</ele>
        <time>2020-11-01T10:39:24Z</time>
      </trkpt>
      <trkpt lat="43.271336" lon="-5.1430473">
        <ele>86.0</ele>
        <time>2020-11-01T10:39:25Z</time>
      </trkpt>
      <trkpt lat="43.271328" lon="-5.143046">
        <ele>87.0</ele>
        <time>2020-11-01T10:39:26Z</time>
      </trkpt>
      <trkpt lat="43.271317" lon="-5.143045">
        <ele>87.0</ele>
        <time>2020-11-01T10:39:27Z</time>
      </trkpt>
      <trkpt lat="43.271305" lon="-5.143044">
        <ele>87.0</ele>
        <time>2020-11-01T10:39:28Z</time>
      </trkpt>
      <trkpt lat="43.271297" lon="-5.1430397">
        <ele>87.0</ele>
        <time>2020-11-01T10:39:29Z</time>
      </trkpt>
      <trkpt lat="43.271286" lon="-5.143035">
        <ele>87.0</ele>
        <time>2020-11-01T10:39:30Z</time>
      </trkpt>
      <trkpt lat="43.271255" lon="-5.14301">
        <ele>87.0</ele>
        <time>2020-11-01T10:39:33Z</time>
      </trkpt>
      <trkpt lat="43.271255" lon="-5.143009">
        <ele>87.0</ele>
        <time>2020-11-01T10:39:34Z</time>
      </trkpt>
      <trkpt lat="43.271255" lon="-5.143006">
        <ele>87.0</ele>
        <time>2020-11-01T10:39:35Z</time>
      </trkpt>
      <trkpt lat="43.271255" lon="-5.143002">
        <ele>87.0</ele>
        <time>2020-11-01T10:39:36Z</time>
      </trkpt>
      <trkpt lat="43.27125" lon="-5.142998">
        <ele>87.0</ele>
        <time>2020-11-01T10:39:38Z</time>
      </trkpt>
      <trkpt lat="43.271244" lon="-5.1430006">
        <ele>87.0</ele>
        <time>2020-11-01T10:39:39Z</time>
      </trkpt>
      <trkpt lat="43.271244" lon="-5.143003">
        <ele>87.0</ele>
        <time>2020-11-01T10:39:40Z</time>
      </trkpt>
      <trkpt lat="43.27124" lon="-5.143003">
        <ele>87.0</ele>
        <time>2020-11-01T10:39:41Z</time>
      </trkpt>
      <trkpt lat="43.271217" lon="-5.143002">
        <ele>87.0</ele>
        <time>2020-11-01T10:39:44Z</time>
      </trkpt>
      <trkpt lat="43.271214" lon="-5.143001">
        <ele>87.0</ele>
        <time>2020-11-01T10:39:45Z</time>
      </trkpt>
      <trkpt lat="43.271214" lon="-5.1430006">
        <ele>87.0</ele>
        <time>2020-11-01T10:39:46Z</time>
      </trkpt>
      <trkpt lat="43.27121" lon="-5.143">
        <ele>87.0</ele>
        <time>2020-11-01T10:39:47Z</time>
      </trkpt>
      <trkpt lat="43.271202" lon="-5.143002">
        <ele>87.0</ele>
        <time>2020-11-01T10:39:48Z</time>
      </trkpt>
      <trkpt lat="43.271194" lon="-5.143004">
        <ele>87.0</ele>
        <time>2020-11-01T10:39:49Z</time>
      </trkpt>
      <trkpt lat="43.271194" lon="-5.143007">
        <ele>87.0</ele>
        <time>2020-11-01T10:39:50Z</time>
      </trkpt>
      <trkpt lat="43.271187" lon="-5.143008">
        <ele>87.0</ele>
        <time>2020-11-01T10:39:51Z</time>
      </trkpt>
      <trkpt lat="43.271187" lon="-5.143008">
        <ele>87.0</ele>
        <time>2020-11-01T10:39:52Z</time>
      </trkpt>
      <trkpt lat="43.271194" lon="-5.143009">
        <ele>87.0</ele>
        <time>2020-11-01T10:39:53Z</time>
      </trkpt>
      <trkpt lat="43.271194" lon="-5.14301">
        <ele>87.0</ele>
        <time>2020-11-01T10:39:54Z</time>
      </trkpt>
      <trkpt lat="43.2712" lon="-5.1430125">
        <ele>87.0</ele>
        <time>2020-11-01T10:39:54Z</time>
      </trkpt>
      <trkpt lat="43.2712" lon="-5.1430154">
        <ele>87.0</ele>
        <time>2020-11-01T10:39:55Z</time>
      </trkpt>
      <trkpt lat="43.2712" lon="-5.14302">
        <ele>87.0</ele>
        <time>2020-11-01T10:40:00Z</time>
      </trkpt>
      <trkpt lat="43.2712" lon="-5.1430197">
        <ele>87.0</ele>
        <time>2020-11-01T10:40:01Z</time>
      </trkpt>
      <trkpt lat="43.2712" lon="-5.1430197">
        <ele>87.0</ele>
        <time>2020-11-01T10:40:02Z</time>
      </trkpt>
      <trkpt lat="43.2712" lon="-5.1430206">
        <ele>87.0</ele>
        <time>2020-11-01T10:40:03Z</time>
      </trkpt>
      <trkpt lat="43.2712" lon="-5.143022">
        <ele>87.0</ele>
        <time>2020-11-01T10:40:04Z</time>
      </trkpt>
      <trkpt lat="43.27121" lon="-5.143015">
        <ele>87.0</ele>
        <time>2020-11-01T10:40:08Z</time>
      </trkpt>
      <trkpt lat="43.271202" lon="-5.1430254">
        <ele>87.0</ele>
        <time>2020-11-01T10:40:21Z</time>
      </trkpt>
      <trkpt lat="43.271202" lon="-5.1430254">
        <ele>87.0</ele>
        <time>2020-11-01T10:40:22Z</time>
      </trkpt>
      <trkpt lat="43.2712" lon="-5.143026">
        <ele>87.0</ele>
        <time>2020-11-01T10:40:23Z</time>
      </trkpt>
      <trkpt lat="43.271194" lon="-5.1430254">
        <ele>87.0</ele>
        <time>2020-11-01T10:40:24Z</time>
      </trkpt>
      <trkpt lat="43.271194" lon="-5.143022">
        <ele>87.0</ele>
        <time>2020-11-01T10:40:25Z</time>
      </trkpt>
      <trkpt lat="43.271187" lon="-5.143016">
        <ele>87.0</ele>
        <time>2020-11-01T10:40:26Z</time>
      </trkpt>
      <trkpt lat="43.271183" lon="-5.143009">
        <ele>87.0</ele>
        <time>2020-11-01T10:40:27Z</time>
      </trkpt>
      <trkpt lat="43.27118" lon="-5.1429987">
        <ele>87.0</ele>
        <time>2020-11-01T10:40:28Z</time>
      </trkpt>
      <trkpt lat="43.27117" lon="-5.1429887">
        <ele>87.0</ele>
        <time>2020-11-01T10:40:29Z</time>
      </trkpt>
      <trkpt lat="43.27117" lon="-5.1429796">
        <ele>87.0</ele>
        <time>2020-11-01T10:40:30Z</time>
      </trkpt>
      <trkpt lat="43.271168" lon="-5.142972">
        <ele>87.0</ele>
        <time>2020-11-01T10:40:31Z</time>
      </trkpt>
      <trkpt lat="43.271164" lon="-5.1429534">
        <ele>87.0</ele>
        <time>2020-11-01T10:40:34Z</time>
      </trkpt>
      <trkpt lat="43.271164" lon="-5.142954">
        <ele>87.0</ele>
        <time>2020-11-01T10:40:35Z</time>
      </trkpt>
      <trkpt lat="43.271156" lon="-5.1429553">
        <ele>87.0</ele>
        <time>2020-11-01T10:40:36Z</time>
      </trkpt>
      <trkpt lat="43.271156" lon="-5.142957">
        <ele>87.0</ele>
        <time>2020-11-01T10:40:37Z</time>
      </trkpt>
      <trkpt lat="43.271164" lon="-5.142959">
        <ele>87.0</ele>
        <time>2020-11-01T10:40:38Z</time>
      </trkpt>
      <trkpt lat="43.27117" lon="-5.1429577">
        <ele>87.0</ele>
        <time>2020-11-01T10:40:39Z</time>
      </trkpt>
      <trkpt lat="43.27118" lon="-5.1429505">
        <ele>87.0</ele>
        <time>2020-11-01T10:40:40Z</time>
      </trkpt>
      <trkpt lat="43.271183" lon="-5.14294">
        <ele>87.0</ele>
        <time>2020-11-01T10:40:41Z</time>
      </trkpt>
      <trkpt lat="43.271183" lon="-5.1429305">
        <ele>87.0</ele>
        <time>2020-11-01T10:40:42Z</time>
      </trkpt>
      <trkpt lat="43.271187" lon="-5.1429234">
        <ele>87.0</ele>
        <time>2020-11-01T10:40:43Z</time>
      </trkpt>
      <trkpt lat="43.271187" lon="-5.1429167">
        <ele>87.0</ele>
        <time>2020-11-01T10:40:44Z</time>
      </trkpt>
      <trkpt lat="43.271183" lon="-5.142913">
        <ele>87.0</ele>
        <time>2020-11-01T10:40:45Z</time>
      </trkpt>
      <trkpt lat="43.27118" lon="-5.1429114">
        <ele>87.0</ele>
        <time>2020-11-01T10:40:46Z</time>
      </trkpt>
      <trkpt lat="43.27118" lon="-5.1429095">
        <ele>87.0</ele>
        <time>2020-11-01T10:40:47Z</time>
      </trkpt>
      <trkpt lat="43.27118" lon="-5.1429057">
        <ele>87.0</ele>
        <time>2020-11-01T10:40:48Z</time>
      </trkpt>
      <trkpt lat="43.271183" lon="-5.142899">
        <ele>87.0</ele>
        <time>2020-11-01T10:40:49Z</time>
      </trkpt>
      <trkpt lat="43.271183" lon="-5.142896">
        <ele>87.0</ele>
        <time>2020-11-01T10:40:50Z</time>
      </trkpt>
      <trkpt lat="43.271183" lon="-5.142897">
        <ele>87.0</ele>
        <time>2020-11-01T10:40:51Z</time>
      </trkpt>
      <trkpt lat="43.271183" lon="-5.142897">
        <ele>87.0</ele>
        <time>2020-11-01T10:40:52Z</time>
      </trkpt>
      <trkpt lat="43.271164" lon="-5.142905">
        <ele>87.0</ele>
        <time>2020-11-01T10:40:54Z</time>
      </trkpt>
      <trkpt lat="43.271164" lon="-5.1429076">
        <ele>87.0</ele>
        <time>2020-11-01T10:40:55Z</time>
      </trkpt>
      <trkpt lat="43.271152" lon="-5.142915">
        <ele>87.0</ele>
        <time>2020-11-01T10:40:56Z</time>
      </trkpt>
      <trkpt lat="43.27114" lon="-5.1429243">
        <ele>87.0</ele>
        <time>2020-11-01T10:40:57Z</time>
      </trkpt>
      <trkpt lat="43.271133" lon="-5.1429315">
        <ele>87.0</ele>
        <time>2020-11-01T10:40:58Z</time>
      </trkpt>
      <trkpt lat="43.271122" lon="-5.1429377">
        <ele>87.0</ele>
        <time>2020-11-01T10:40:59Z</time>
      </trkpt>
      <trkpt lat="43.27111" lon="-5.142944">
        <ele>87.0</ele>
        <time>2020-11-01T10:41:00Z</time>
      </trkpt>
      <trkpt lat="43.271107" lon="-5.1429467">
        <ele>87.0</ele>
        <time>2020-11-01T10:41:01Z</time>
      </trkpt>
      <trkpt lat="43.271103" lon="-5.142946">
        <ele>87.0</ele>
        <time>2020-11-01T10:41:02Z</time>
      </trkpt>
      <trkpt lat="43.271107" lon="-5.1429334">
        <ele>87.0</ele>
        <time>2020-11-01T10:41:05Z</time>
      </trkpt>
      <trkpt lat="43.271107" lon="-5.142929">
        <ele>87.0</ele>
        <time>2020-11-01T10:41:06Z</time>
      </trkpt>
      <trkpt lat="43.27111" lon="-5.1429214">
        <ele>87.0</ele>
        <time>2020-11-01T10:41:07Z</time>
      </trkpt>
      <trkpt lat="43.27112" lon="-5.142914">
        <ele>87.0</ele>
        <time>2020-11-01T10:41:08Z</time>
      </trkpt>
      <trkpt lat="43.271122" lon="-5.142904">
        <ele>87.0</ele>
        <time>2020-11-01T10:41:09Z</time>
      </trkpt>
      <trkpt lat="43.271126" lon="-5.1428914">
        <ele>87.0</ele>
        <time>2020-11-01T10:41:10Z</time>
      </trkpt>
      <trkpt lat="43.271126" lon="-5.1428823">
        <ele>87.0</ele>
        <time>2020-11-01T10:41:11Z</time>
      </trkpt>
      <trkpt lat="43.271126" lon="-5.1428747">
        <ele>87.0</ele>
        <time>2020-11-01T10:41:12Z</time>
      </trkpt>
      <trkpt lat="43.271126" lon="-5.1428676">
        <ele>87.0</ele>
        <time>2020-11-01T10:41:13Z</time>
      </trkpt>
      <trkpt lat="43.271126" lon="-5.142864">
        <ele>87.0</ele>
        <time>2020-11-01T10:41:14Z</time>
      </trkpt>
      <trkpt lat="43.271126" lon="-5.1428633">
        <ele>87.0</ele>
        <time>2020-11-01T10:41:15Z</time>
      </trkpt>
      <trkpt lat="43.271126" lon="-5.142863">
        <ele>87.0</ele>
        <time>2020-11-01T10:41:16Z</time>
      </trkpt>
      <trkpt lat="43.271126" lon="-5.142861">
        <ele>87.0</ele>
        <time>2020-11-01T10:41:17Z</time>
      </trkpt>
      <trkpt lat="43.271126" lon="-5.1428576">
        <ele>87.0</ele>
        <time>2020-11-01T10:41:18Z</time>
      </trkpt>
      <trkpt lat="43.271133" lon="-5.1428514">
        <ele>87.0</ele>
        <time>2020-11-01T10:41:19Z</time>
      </trkpt>
      <trkpt lat="43.27114" lon="-5.142842">
        <ele>87.0</ele>
        <time>2020-11-01T10:41:21Z</time>
      </trkpt>
      <trkpt lat="43.27114" lon="-5.142843">
        <ele>87.0</ele>
        <time>2020-11-01T10:41:22Z</time>
      </trkpt>
      <trkpt lat="43.27114" lon="-5.142846">
        <ele>87.0</ele>
        <time>2020-11-01T10:41:23Z</time>
      </trkpt>
      <trkpt lat="43.271137" lon="-5.14285">
        <ele>87.0</ele>
        <time>2020-11-01T10:41:24Z</time>
      </trkpt>
      <trkpt lat="43.271133" lon="-5.142856">
        <ele>87.0</ele>
        <time>2020-11-01T10:41:25Z</time>
      </trkpt>
      <trkpt lat="43.271133" lon="-5.1428638">
        <ele>87.0</ele>
        <time>2020-11-01T10:41:26Z</time>
      </trkpt>
      <trkpt lat="43.271133" lon="-5.142871">
        <ele>87.0</ele>
        <time>2020-11-01T10:41:27Z</time>
      </trkpt>
      <trkpt lat="43.271126" lon="-5.1428823">
        <ele>87.0</ele>
        <time>2020-11-01T10:41:28Z</time>
      </trkpt>
      <trkpt lat="43.271122" lon="-5.1428967">
        <ele>87.0</ele>
        <time>2020-11-01T10:41:29Z</time>
      </trkpt>
      <trkpt lat="43.271122" lon="-5.14291">
        <ele>87.0</ele>
        <time>2020-11-01T10:41:30Z</time>
      </trkpt>
      <trkpt lat="43.271122" lon="-5.1429214">
        <ele>87.0</ele>
        <time>2020-11-01T10:41:31Z</time>
      </trkpt>
      <trkpt lat="43.271122" lon="-5.142932">
        <ele>87.0</ele>
        <time>2020-11-01T10:41:32Z</time>
      </trkpt>
      <trkpt lat="43.27112" lon="-5.142942">
        <ele>87.0</ele>
        <time>2020-11-01T10:41:33Z</time>
      </trkpt>
      <trkpt lat="43.27112" lon="-5.1429486">
        <ele>87.0</ele>
        <time>2020-11-01T10:41:34Z</time>
      </trkpt>
      <trkpt lat="43.27111" lon="-5.1429543">
        <ele>87.0</ele>
        <time>2020-11-01T10:41:35Z</time>
      </trkpt>
      <trkpt lat="43.27111" lon="-5.1429596">
        <ele>87.0</ele>
        <time>2020-11-01T10:41:36Z</time>
      </trkpt>
      <trkpt lat="43.27111" lon="-5.1429634">
        <ele>87.0</ele>
        <time>2020-11-01T10:41:37Z</time>
      </trkpt>
      <trkpt lat="43.27111" lon="-5.1429677">
        <ele>93.0</ele>
        <time>2020-11-01T10:41:38Z</time>
      </trkpt>
      <trkpt lat="43.27111" lon="-5.1429744">
        <ele>93.0</ele>
        <time>2020-11-01T10:41:39Z</time>
      </trkpt>
      <trkpt lat="43.27111" lon="-5.142982">
        <ele>93.0</ele>
        <time>2020-11-01T10:41:40Z</time>
      </trkpt>
      <trkpt lat="43.27111" lon="-5.14299">
        <ele>93.0</ele>
        <time>2020-11-01T10:41:41Z</time>
      </trkpt>
      <trkpt lat="43.27111" lon="-5.1429973">
        <ele>93.0</ele>
        <time>2020-11-01T10:41:42Z</time>
      </trkpt>
      <trkpt lat="43.27111" lon="-5.143005">
        <ele>93.0</ele>
        <time>2020-11-01T10:41:43Z</time>
      </trkpt>
      <trkpt lat="43.27111" lon="-5.143015">
        <ele>93.0</ele>
        <time>2020-11-01T10:41:44Z</time>
      </trkpt>
      <trkpt lat="43.271107" lon="-5.143024">
        <ele>94.0</ele>
        <time>2020-11-01T10:41:45Z</time>
      </trkpt>
      <trkpt lat="43.271103" lon="-5.143032">
        <ele>94.0</ele>
        <time>2020-11-01T10:41:46Z</time>
      </trkpt>
      <trkpt lat="43.271095" lon="-5.1430383">
        <ele>94.0</ele>
        <time>2020-11-01T10:41:47Z</time>
      </trkpt>
      <trkpt lat="43.27109" lon="-5.143045">
        <ele>94.0</ele>
        <time>2020-11-01T10:41:48Z</time>
      </trkpt>
      <trkpt lat="43.271088" lon="-5.1430497">
        <ele>94.0</ele>
        <time>2020-11-01T10:41:49Z</time>
      </trkpt>
      <trkpt lat="43.271076" lon="-5.143052">
        <ele>94.0</ele>
        <time>2020-11-01T10:41:50Z</time>
      </trkpt>
      <trkpt lat="43.271076" lon="-5.1430554">
        <ele>94.0</ele>
        <time>2020-11-01T10:41:51Z</time>
      </trkpt>
      <trkpt lat="43.271072" lon="-5.1430593">
        <ele>94.0</ele>
        <time>2020-11-01T10:41:52Z</time>
      </trkpt>
      <trkpt lat="43.271072" lon="-5.143064">
        <ele>94.0</ele>
        <time>2020-11-01T10:41:53Z</time>
      </trkpt>
      <trkpt lat="43.271065" lon="-5.1430697">
        <ele>94.0</ele>
        <time>2020-11-01T10:41:54Z</time>
      </trkpt>
      <trkpt lat="43.271065" lon="-5.1430764">
        <ele>94.0</ele>
        <time>2020-11-01T10:41:55Z</time>
      </trkpt>
      <trkpt lat="43.271065" lon="-5.1430826">
        <ele>94.0</ele>
        <time>2020-11-01T10:41:56Z</time>
      </trkpt>
      <trkpt lat="43.27106" lon="-5.143088">
        <ele>94.0</ele>
        <time>2020-11-01T10:41:57Z</time>
      </trkpt>
      <trkpt lat="43.27106" lon="-5.1430945">
        <ele>94.0</ele>
        <time>2020-11-01T10:41:58Z</time>
      </trkpt>
      <trkpt lat="43.271057" lon="-5.1431046">
        <ele>94.0</ele>
        <time>2020-11-01T10:41:59Z</time>
      </trkpt>
      <trkpt lat="43.27105" lon="-5.143114">
        <ele>94.0</ele>
        <time>2020-11-01T10:42:00Z</time>
      </trkpt>
      <trkpt lat="43.27104" lon="-5.1431227">
        <ele>94.0</ele>
        <time>2020-11-01T10:42:01Z</time>
      </trkpt>
      <trkpt lat="43.271034" lon="-5.1431303">
        <ele>94.0</ele>
        <time>2020-11-01T10:42:02Z</time>
      </trkpt>
      <trkpt lat="43.27103" lon="-5.1431403">
        <ele>94.0</ele>
        <time>2020-11-01T10:42:03Z</time>
      </trkpt>
      <trkpt lat="43.271023" lon="-5.14315">
        <ele>94.0</ele>
        <time>2020-11-01T10:42:04Z</time>
      </trkpt>
      <trkpt lat="43.271015" lon="-5.1431603">
        <ele>94.0</ele>
        <time>2020-11-01T10:42:05Z</time>
      </trkpt>
      <trkpt lat="43.271008" lon="-5.1431713">
        <ele>94.0</ele>
        <time>2020-11-01T10:42:06Z</time>
      </trkpt>
      <trkpt lat="43.271" lon="-5.1431794">
        <ele>94.0</ele>
        <time>2020-11-01T10:42:07Z</time>
      </trkpt>
      <trkpt lat="43.270992" lon="-5.1431894">
        <ele>94.0</ele>
        <time>2020-11-01T10:42:08Z</time>
      </trkpt>
      <trkpt lat="43.27099" lon="-5.1431985">
        <ele>94.0</ele>
        <time>2020-11-01T10:42:09Z</time>
      </trkpt>
      <trkpt lat="43.270985" lon="-5.1432076">
        <ele>94.0</ele>
        <time>2020-11-01T10:42:10Z</time>
      </trkpt>
      <trkpt lat="43.270985" lon="-5.143216">
        <ele>94.0</ele>
        <time>2020-11-01T10:42:11Z</time>
      </trkpt>
      <trkpt lat="43.270985" lon="-5.1432266">
        <ele>94.0</ele>
        <time>2020-11-01T10:42:12Z</time>
      </trkpt>
      <trkpt lat="43.270985" lon="-5.143241">
        <ele>94.0</ele>
        <time>2020-11-01T10:42:13Z</time>
      </trkpt>
      <trkpt lat="43.27099" lon="-5.143259">
        <ele>94.0</ele>
        <time>2020-11-01T10:42:14Z</time>
      </trkpt>
      <trkpt lat="43.270992" lon="-5.1432767">
        <ele>94.0</ele>
        <time>2020-11-01T10:42:15Z</time>
      </trkpt>
      <trkpt lat="43.270992" lon="-5.1432905">
        <ele>94.0</ele>
        <time>2020-11-01T10:42:16Z</time>
      </trkpt>
      <trkpt lat="43.27099" lon="-5.143301">
        <ele>94.0</ele>
        <time>2020-11-01T10:42:17Z</time>
      </trkpt>
      <trkpt lat="43.270985" lon="-5.1433063">
        <ele>94.0</ele>
        <time>2020-11-01T10:42:18Z</time>
      </trkpt>
      <trkpt lat="43.270977" lon="-5.1433105">
        <ele>94.0</ele>
        <time>2020-11-01T10:42:19Z</time>
      </trkpt>
      <trkpt lat="43.270973" lon="-5.1433144">
        <ele>94.0</ele>
        <time>2020-11-01T10:42:20Z</time>
      </trkpt>
      <trkpt lat="43.27097" lon="-5.143318">
        <ele>94.0</ele>
        <time>2020-11-01T10:42:21Z</time>
      </trkpt>
      <trkpt lat="43.27096" lon="-5.143323">
        <ele>95.0</ele>
        <time>2020-11-01T10:42:22Z</time>
      </trkpt>
      <trkpt lat="43.27096" lon="-5.143328">
        <ele>95.0</ele>
        <time>2020-11-01T10:42:23Z</time>
      </trkpt>
      <trkpt lat="43.27096" lon="-5.1433344">
        <ele>95.0</ele>
        <time>2020-11-01T10:42:24Z</time>
      </trkpt>
      <trkpt lat="43.27096" lon="-5.1433434">
        <ele>95.0</ele>
        <time>2020-11-01T10:42:25Z</time>
      </trkpt>
      <trkpt lat="43.27096" lon="-5.143351">
        <ele>95.0</ele>
        <time>2020-11-01T10:42:26Z</time>
      </trkpt>
      <trkpt lat="43.27096" lon="-5.1433587">
        <ele>96.0</ele>
        <time>2020-11-01T10:42:27Z</time>
      </trkpt>
      <trkpt lat="43.27096" lon="-5.143364">
        <ele>96.0</ele>
        <time>2020-11-01T10:42:28Z</time>
      </trkpt>
      <trkpt lat="43.27096" lon="-5.143368">
        <ele>96.0</ele>
        <time>2020-11-01T10:42:29Z</time>
      </trkpt>
      <trkpt lat="43.270958" lon="-5.1433682">
        <ele>96.0</ele>
        <time>2020-11-01T10:42:30Z</time>
      </trkpt>
      <trkpt lat="43.270947" lon="-5.143368">
        <ele>96.0</ele>
        <time>2020-11-01T10:42:31Z</time>
      </trkpt>
      <trkpt lat="43.270943" lon="-5.1433654">
        <ele>97.0</ele>
        <time>2020-11-01T10:42:32Z</time>
      </trkpt>
      <trkpt lat="43.27093" lon="-5.143365">
        <ele>97.0</ele>
        <time>2020-11-01T10:42:33Z</time>
      </trkpt>
      <trkpt lat="43.270927" lon="-5.143365">
        <ele>97.0</ele>
        <time>2020-11-01T10:42:34Z</time>
      </trkpt>
      <trkpt lat="43.270916" lon="-5.143366">
        <ele>97.0</ele>
        <time>2020-11-01T10:42:35Z</time>
      </trkpt>
      <trkpt lat="43.270912" lon="-5.143366">
        <ele>97.0</ele>
        <time>2020-11-01T10:42:36Z</time>
      </trkpt>
      <trkpt lat="43.27091" lon="-5.143366">
        <ele>97.0</ele>
        <time>2020-11-01T10:42:37Z</time>
      </trkpt>
      <trkpt lat="43.2709" lon="-5.143367">
        <ele>97.0</ele>
        <time>2020-11-01T10:42:38Z</time>
      </trkpt>
      <trkpt lat="43.270897" lon="-5.1433716">
        <ele>97.0</ele>
        <time>2020-11-01T10:42:39Z</time>
      </trkpt>
      <trkpt lat="43.270893" lon="-5.143379">
        <ele>97.0</ele>
        <time>2020-11-01T10:42:40Z</time>
      </trkpt>
      <trkpt lat="43.270893" lon="-5.1433883">
        <ele>97.0</ele>
        <time>2020-11-01T10:42:41Z</time>
      </trkpt>
      <trkpt lat="43.270885" lon="-5.143398">
        <ele>97.0</ele>
        <time>2020-11-01T10:42:42Z</time>
      </trkpt>
      <trkpt lat="43.270885" lon="-5.1434083">
        <ele>97.0</ele>
        <time>2020-11-01T10:42:43Z</time>
      </trkpt>
      <trkpt lat="43.27088" lon="-5.1434197">
        <ele>98.0</ele>
        <time>2020-11-01T10:42:44Z</time>
      </trkpt>
      <trkpt lat="43.27088" lon="-5.143432">
        <ele>98.0</ele>
        <time>2020-11-01T10:42:45Z</time>
      </trkpt>
      <trkpt lat="43.27088" lon="-5.1434445">
        <ele>98.0</ele>
        <time>2020-11-01T10:42:46Z</time>
      </trkpt>
      <trkpt lat="43.270878" lon="-5.1434536">
        <ele>98.0</ele>
        <time>2020-11-01T10:42:47Z</time>
      </trkpt>
      <trkpt lat="43.270878" lon="-5.1434617">
        <ele>98.0</ele>
        <time>2020-11-01T10:42:48Z</time>
      </trkpt>
      <trkpt lat="43.270878" lon="-5.14347">
        <ele>98.0</ele>
        <time>2020-11-01T10:42:49Z</time>
      </trkpt>
      <trkpt lat="43.270878" lon="-5.14348">
        <ele>98.0</ele>
        <time>2020-11-01T10:42:50Z</time>
      </trkpt>
      <trkpt lat="43.270878" lon="-5.1434917">
        <ele>98.0</ele>
        <time>2020-11-01T10:42:51Z</time>
      </trkpt>
      <trkpt lat="43.27088" lon="-5.1435046">
        <ele>98.0</ele>
        <time>2020-11-01T10:42:52Z</time>
      </trkpt>
      <trkpt lat="43.270885" lon="-5.143516">
        <ele>98.0</ele>
        <time>2020-11-01T10:42:53Z</time>
      </trkpt>
      <trkpt lat="43.270885" lon="-5.143527">
        <ele>98.0</ele>
        <time>2020-11-01T10:42:54Z</time>
      </trkpt>
      <trkpt lat="43.270885" lon="-5.143539">
        <ele>98.0</ele>
        <time>2020-11-01T10:42:55Z</time>
      </trkpt>
      <trkpt lat="43.270885" lon="-5.1435523">
        <ele>98.0</ele>
        <time>2020-11-01T10:42:56Z</time>
      </trkpt>
      <trkpt lat="43.270885" lon="-5.143567">
        <ele>98.0</ele>
        <time>2020-11-01T10:42:57Z</time>
      </trkpt>
      <trkpt lat="43.270885" lon="-5.143582">
        <ele>98.0</ele>
        <time>2020-11-01T10:42:58Z</time>
      </trkpt>
      <trkpt lat="43.270885" lon="-5.1435947">
        <ele>98.0</ele>
        <time>2020-11-01T10:42:59Z</time>
      </trkpt>
      <trkpt lat="43.270885" lon="-5.1436043">
        <ele>98.0</ele>
        <time>2020-11-01T10:43:00Z</time>
      </trkpt>
      <trkpt lat="43.27088" lon="-5.1436124">
        <ele>98.0</ele>
        <time>2020-11-01T10:43:01Z</time>
      </trkpt>
      <trkpt lat="43.27088" lon="-5.1436234">
        <ele>98.0</ele>
        <time>2020-11-01T10:43:02Z</time>
      </trkpt>
      <trkpt lat="43.270878" lon="-5.1436377">
        <ele>98.0</ele>
        <time>2020-11-01T10:43:03Z</time>
      </trkpt>
      <trkpt lat="43.270878" lon="-5.1436524">
        <ele>98.0</ele>
        <time>2020-11-01T10:43:04Z</time>
      </trkpt>
      <trkpt lat="43.270878" lon="-5.1436677">
        <ele>98.0</ele>
        <time>2020-11-01T10:43:05Z</time>
      </trkpt>
      <trkpt lat="43.270878" lon="-5.143682">
        <ele>98.0</ele>
        <time>2020-11-01T10:43:06Z</time>
      </trkpt>
      <trkpt lat="43.270878" lon="-5.1436934">
        <ele>98.0</ele>
        <time>2020-11-01T10:43:07Z</time>
      </trkpt>
      <trkpt lat="43.27087" lon="-5.143706">
        <ele>98.0</ele>
        <time>2020-11-01T10:43:08Z</time>
      </trkpt>
      <trkpt lat="43.27087" lon="-5.1437154">
        <ele>98.0</ele>
        <time>2020-11-01T10:43:09Z</time>
      </trkpt>
      <trkpt lat="43.270866" lon="-5.143722">
        <ele>98.0</ele>
        <time>2020-11-01T10:43:10Z</time>
      </trkpt>
      <trkpt lat="43.27085" lon="-5.1437397">
        <ele>98.0</ele>
        <time>2020-11-01T10:43:13Z</time>
      </trkpt>
      <trkpt lat="43.270847" lon="-5.1437407">
        <ele>98.0</ele>
        <time>2020-11-01T10:43:14Z</time>
      </trkpt>
      <trkpt lat="43.27084" lon="-5.143742">
        <ele>98.0</ele>
        <time>2020-11-01T10:43:15Z</time>
      </trkpt>
      <trkpt lat="43.270824" lon="-5.143753">
        <ele>98.0</ele>
        <time>2020-11-01T10:43:17Z</time>
      </trkpt>
      <trkpt lat="43.270824" lon="-5.1437545">
        <ele>98.0</ele>
        <time>2020-11-01T10:43:18Z</time>
      </trkpt>
      <trkpt lat="43.27084" lon="-5.143783">
        <ele>98.0</ele>
        <time>2020-11-01T10:43:23Z</time>
      </trkpt>
      <trkpt lat="43.27084" lon="-5.1437764">
        <ele>98.0</ele>
        <time>2020-11-01T10:43:24Z</time>
      </trkpt>
      <trkpt lat="43.27083" lon="-5.143765">
        <ele>98.0</ele>
        <time>2020-11-01T10:43:27Z</time>
      </trkpt>
      <trkpt lat="43.27084" lon="-5.1437597">
        <ele>98.0</ele>
        <time>2020-11-01T10:43:30Z</time>
      </trkpt>
      <trkpt lat="43.27084" lon="-5.143757">
        <ele>98.0</ele>
        <time>2020-11-01T10:43:31Z</time>
      </trkpt>
      <trkpt lat="43.27085" lon="-5.1437564">
        <ele>98.0</ele>
        <time>2020-11-01T10:43:32Z</time>
      </trkpt>
      <trkpt lat="43.270855" lon="-5.143757">
        <ele>98.0</ele>
        <time>2020-11-01T10:43:33Z</time>
      </trkpt>
      <trkpt lat="43.270863" lon="-5.1437607">
        <ele>98.0</ele>
        <time>2020-11-01T10:43:34Z</time>
      </trkpt>
      <trkpt lat="43.270866" lon="-5.143768">
        <ele>98.0</ele>
        <time>2020-11-01T10:43:35Z</time>
      </trkpt>
      <trkpt lat="43.270866" lon="-5.1437764">
        <ele>98.0</ele>
        <time>2020-11-01T10:43:36Z</time>
      </trkpt>
      <trkpt lat="43.27087" lon="-5.1437855">
        <ele>98.0</ele>
        <time>2020-11-01T10:43:37Z</time>
      </trkpt>
      <trkpt lat="43.270878" lon="-5.143794">
        <ele>98.0</ele>
        <time>2020-11-01T10:43:38Z</time>
      </trkpt>
      <trkpt lat="43.270878" lon="-5.143802">
        <ele>98.0</ele>
        <time>2020-11-01T10:43:39Z</time>
      </trkpt>
      <trkpt lat="43.27088" lon="-5.143809">
        <ele>98.0</ele>
        <time>2020-11-01T10:43:40Z</time>
      </trkpt>
      <trkpt lat="43.27088" lon="-5.143815">
        <ele>98.0</ele>
        <time>2020-11-01T10:43:41Z</time>
      </trkpt>
      <trkpt lat="43.27088" lon="-5.1438203">
        <ele>98.0</ele>
        <time>2020-11-01T10:43:42Z</time>
      </trkpt>
      <trkpt lat="43.270878" lon="-5.143824">
        <ele>98.0</ele>
        <time>2020-11-01T10:43:43Z</time>
      </trkpt>
      <trkpt lat="43.27087" lon="-5.1438255">
        <ele>98.0</ele>
        <time>2020-11-01T10:43:44Z</time>
      </trkpt>
      <trkpt lat="43.27087" lon="-5.1438293">
        <ele>98.0</ele>
        <time>2020-11-01T10:43:45Z</time>
      </trkpt>
      <trkpt lat="43.270863" lon="-5.1438303">
        <ele>98.0</ele>
        <time>2020-11-01T10:43:46Z</time>
      </trkpt>
      <trkpt lat="43.27084" lon="-5.1438365">
        <ele>98.0</ele>
        <time>2020-11-01T10:43:48Z</time>
      </trkpt>
      <trkpt lat="43.27084" lon="-5.1438394">
        <ele>98.0</ele>
        <time>2020-11-01T10:43:49Z</time>
      </trkpt>
      <trkpt lat="43.27084" lon="-5.1438446">
        <ele>98.0</ele>
        <time>2020-11-01T10:43:50Z</time>
      </trkpt>
      <trkpt lat="43.27084" lon="-5.1438494">
        <ele>98.0</ele>
        <time>2020-11-01T10:43:51Z</time>
      </trkpt>
      <trkpt lat="43.270836" lon="-5.143866">
        <ele>98.0</ele>
        <time>2020-11-01T10:43:53Z</time>
      </trkpt>
      <trkpt lat="43.27083" lon="-5.14387">
        <ele>98.0</ele>
        <time>2020-11-01T10:43:55Z</time>
      </trkpt>
      <trkpt lat="43.270836" lon="-5.143871">
        <ele>98.0</ele>
        <time>2020-11-01T10:43:56Z</time>
      </trkpt>
      <trkpt lat="43.27084" lon="-5.1438727">
        <ele>98.0</ele>
        <time>2020-11-01T10:43:57Z</time>
      </trkpt>
      <trkpt lat="43.270855" lon="-5.1438727">
        <ele>98.0</ele>
        <time>2020-11-01T10:43:59Z</time>
      </trkpt>
      <trkpt lat="43.27085" lon="-5.143872">
        <ele>98.0</ele>
        <time>2020-11-01T10:44:00Z</time>
      </trkpt>
      <trkpt lat="43.27085" lon="-5.143871">
        <ele>98.0</ele>
        <time>2020-11-01T10:44:01Z</time>
      </trkpt>
      <trkpt lat="43.27085" lon="-5.1438694">
        <ele>98.0</ele>
        <time>2020-11-01T10:44:02Z</time>
      </trkpt>
      <trkpt lat="43.270847" lon="-5.1438646">
        <ele>98.0</ele>
        <time>2020-11-01T10:44:05Z</time>
      </trkpt>
      <trkpt lat="43.270847" lon="-5.143865">
        <ele>98.0</ele>
        <time>2020-11-01T10:44:06Z</time>
      </trkpt>
      <trkpt lat="43.270847" lon="-5.143867">
        <ele>98.0</ele>
        <time>2020-11-01T10:44:07Z</time>
      </trkpt>
      <trkpt lat="43.270847" lon="-5.1438727">
        <ele>98.0</ele>
        <time>2020-11-01T10:44:08Z</time>
      </trkpt>
      <trkpt lat="43.270847" lon="-5.143885">
        <ele>98.0</ele>
        <time>2020-11-01T10:44:09Z</time>
      </trkpt>
      <trkpt lat="43.27085" lon="-5.1439013">
        <ele>98.0</ele>
        <time>2020-11-01T10:44:09Z</time>
      </trkpt>
      <trkpt lat="43.270855" lon="-5.143918">
        <ele>98.0</ele>
        <time>2020-11-01T10:44:10Z</time>
      </trkpt>
      <trkpt lat="43.270866" lon="-5.143935">
        <ele>98.0</ele>
        <time>2020-11-01T10:44:11Z</time>
      </trkpt>
      <trkpt lat="43.27087" lon="-5.143953">
        <ele>98.0</ele>
        <time>2020-11-01T10:44:12Z</time>
      </trkpt>
      <trkpt lat="43.27088" lon="-5.143969">
        <ele>98.0</ele>
        <time>2020-11-01T10:44:13Z</time>
      </trkpt>
      <trkpt lat="43.270893" lon="-5.143979">
        <ele>98.0</ele>
        <time>2020-11-01T10:44:14Z</time>
      </trkpt>
      <trkpt lat="43.270897" lon="-5.1439853">
        <ele>98.0</ele>
        <time>2020-11-01T10:44:15Z</time>
      </trkpt>
      <trkpt lat="43.2709" lon="-5.143986">
        <ele>98.0</ele>
        <time>2020-11-01T10:44:16Z</time>
      </trkpt>
      <trkpt lat="43.270912" lon="-5.1439815">
        <ele>102.0</ele>
        <time>2020-11-01T10:44:18Z</time>
      </trkpt>
      <trkpt lat="43.270912" lon="-5.143983">
        <ele>102.0</ele>
        <time>2020-11-01T10:44:21Z</time>
      </trkpt>
      <trkpt lat="43.270912" lon="-5.1439857">
        <ele>102.0</ele>
        <time>2020-11-01T10:44:22Z</time>
      </trkpt>
      <trkpt lat="43.270912" lon="-5.143991">
        <ele>102.0</ele>
        <time>2020-11-01T10:44:23Z</time>
      </trkpt>
      <trkpt lat="43.270912" lon="-5.1439962">
        <ele>102.0</ele>
        <time>2020-11-01T10:44:24Z</time>
      </trkpt>
      <trkpt lat="43.2709" lon="-5.1440063">
        <ele>102.0</ele>
        <time>2020-11-01T10:44:28Z</time>
      </trkpt>
      <trkpt lat="43.2709" lon="-5.144007">
        <ele>102.0</ele>
        <time>2020-11-01T10:44:29Z</time>
      </trkpt>
      <trkpt lat="43.270897" lon="-5.144008">
        <ele>102.0</ele>
        <time>2020-11-01T10:44:30Z</time>
      </trkpt>
      <trkpt lat="43.270897" lon="-5.1440096">
        <ele>102.0</ele>
        <time>2020-11-01T10:44:31Z</time>
      </trkpt>
      <trkpt lat="43.270885" lon="-5.1440096">
        <ele>102.0</ele>
        <time>2020-11-01T10:44:32Z</time>
      </trkpt>
      <trkpt lat="43.27088" lon="-5.144016">
        <ele>102.0</ele>
        <time>2020-11-01T10:44:33Z</time>
      </trkpt>
      <trkpt lat="43.27087" lon="-5.144024">
        <ele>102.0</ele>
        <time>2020-11-01T10:44:34Z</time>
      </trkpt>
      <trkpt lat="43.270863" lon="-5.1440325">
        <ele>102.0</ele>
        <time>2020-11-01T10:44:35Z</time>
      </trkpt>
      <trkpt lat="43.27085" lon="-5.144042">
        <ele>102.0</ele>
        <time>2020-11-01T10:44:36Z</time>
      </trkpt>
      <trkpt lat="43.270836" lon="-5.1440525">
        <ele>102.0</ele>
        <time>2020-11-01T10:44:37Z</time>
      </trkpt>
      <trkpt lat="43.270813" lon="-5.1440578">
        <ele>102.0</ele>
        <time>2020-11-01T10:44:38Z</time>
      </trkpt>
      <trkpt lat="43.27079" lon="-5.144057">
        <ele>102.0</ele>
        <time>2020-11-01T10:44:39Z</time>
      </trkpt>
      <trkpt lat="43.270775" lon="-5.1440616">
        <ele>102.0</ele>
        <time>2020-11-01T10:44:40Z</time>
      </trkpt>
      <trkpt lat="43.270763" lon="-5.14406">
        <ele>102.0</ele>
        <time>2020-11-01T10:44:41Z</time>
      </trkpt>
      <trkpt lat="43.27076" lon="-5.1440606">
        <ele>102.0</ele>
        <time>2020-11-01T10:44:42Z</time>
      </trkpt>
      <trkpt lat="43.27076" lon="-5.1440635">
        <ele>102.0</ele>
        <time>2020-11-01T10:44:43Z</time>
      </trkpt>
      <trkpt lat="43.27076" lon="-5.144067">
        <ele>102.0</ele>
        <time>2020-11-01T10:44:44Z</time>
      </trkpt>
      <trkpt lat="43.27076" lon="-5.1440697">
        <ele>102.0</ele>
        <time>2020-11-01T10:44:45Z</time>
      </trkpt>
      <trkpt lat="43.270752" lon="-5.144072">
        <ele>102.0</ele>
        <time>2020-11-01T10:44:46Z</time>
      </trkpt>
      <trkpt lat="43.270744" lon="-5.144073">
        <ele>102.0</ele>
        <time>2020-11-01T10:44:47Z</time>
      </trkpt>
      <trkpt lat="43.270733" lon="-5.1440754">
        <ele>102.0</ele>
        <time>2020-11-01T10:44:48Z</time>
      </trkpt>
      <trkpt lat="43.27073" lon="-5.1440783">
        <ele>102.0</ele>
        <time>2020-11-01T10:44:49Z</time>
      </trkpt>
      <trkpt lat="43.27072" lon="-5.1440825">
        <ele>102.0</ele>
        <time>2020-11-01T10:44:50Z</time>
      </trkpt>
      <trkpt lat="43.270714" lon="-5.1440945">
        <ele>102.0</ele>
        <time>2020-11-01T10:44:55Z</time>
      </trkpt>
      <trkpt lat="43.270706" lon="-5.1440935">
        <ele>102.0</ele>
        <time>2020-11-01T10:44:56Z</time>
      </trkpt>
      <trkpt lat="43.270702" lon="-5.1440916">
        <ele>102.0</ele>
        <time>2020-11-01T10:44:57Z</time>
      </trkpt>
      <trkpt lat="43.2707" lon="-5.1440897">
        <ele>102.0</ele>
        <time>2020-11-01T10:44:58Z</time>
      </trkpt>
      <trkpt lat="43.270687" lon="-5.144083">
        <ele>102.0</ele>
        <time>2020-11-01T10:45:01Z</time>
      </trkpt>
      <trkpt lat="43.270687" lon="-5.144082">
        <ele>102.0</ele>
        <time>2020-11-01T10:45:02Z</time>
      </trkpt>
      <trkpt lat="43.270687" lon="-5.144079">
        <ele>102.0</ele>
        <time>2020-11-01T10:45:03Z</time>
      </trkpt>
      <trkpt lat="43.270687" lon="-5.14408">
        <ele>102.0</ele>
        <time>2020-11-01T10:45:04Z</time>
      </trkpt>
      <trkpt lat="43.270687" lon="-5.1440816">
        <ele>102.0</ele>
        <time>2020-11-01T10:45:05Z</time>
      </trkpt>
      <trkpt lat="43.27069" lon="-5.144083">
        <ele>102.0</ele>
        <time>2020-11-01T10:45:06Z</time>
      </trkpt>
      <trkpt lat="43.270687" lon="-5.1440773">
        <ele>102.0</ele>
        <time>2020-11-01T10:45:07Z</time>
      </trkpt>
      <trkpt lat="43.27069" lon="-5.1440697">
        <ele>102.0</ele>
        <time>2020-11-01T10:45:08Z</time>
      </trkpt>
      <trkpt lat="43.27069" lon="-5.1440587">
        <ele>102.0</ele>
        <time>2020-11-01T10:45:09Z</time>
      </trkpt>
      <trkpt lat="43.2707" lon="-5.144048">
        <ele>102.0</ele>
        <time>2020-11-01T10:45:10Z</time>
      </trkpt>
      <trkpt lat="43.270702" lon="-5.144041">
        <ele>102.0</ele>
        <time>2020-11-01T10:45:11Z</time>
      </trkpt>
      <trkpt lat="43.270706" lon="-5.144036">
        <ele>102.0</ele>
        <time>2020-11-01T10:45:12Z</time>
      </trkpt>
      <trkpt lat="43.270714" lon="-5.14403">
        <ele>102.0</ele>
        <time>2020-11-01T10:45:13Z</time>
      </trkpt>
      <trkpt lat="43.27072" lon="-5.144026">
        <ele>102.0</ele>
        <time>2020-11-01T10:45:14Z</time>
      </trkpt>
      <trkpt lat="43.27073" lon="-5.1440225">
        <ele>102.0</ele>
        <time>2020-11-01T10:45:15Z</time>
      </trkpt>
      <trkpt lat="43.270733" lon="-5.1440187">
        <ele>102.0</ele>
        <time>2020-11-01T10:45:16Z</time>
      </trkpt>
      <trkpt lat="43.270737" lon="-5.144016">
        <ele>102.0</ele>
        <time>2020-11-01T10:45:17Z</time>
      </trkpt>
      <trkpt lat="43.27075" lon="-5.1440163">
        <ele>102.0</ele>
        <time>2020-11-01T10:45:18Z</time>
      </trkpt>
      <trkpt lat="43.270752" lon="-5.144017">
        <ele>102.0</ele>
        <time>2020-11-01T10:45:19Z</time>
      </trkpt>
      <trkpt lat="43.270763" lon="-5.1440187">
        <ele>102.0</ele>
        <time>2020-11-01T10:45:20Z</time>
      </trkpt>
      <trkpt lat="43.270775" lon="-5.144023">
        <ele>102.0</ele>
        <time>2020-11-01T10:45:22Z</time>
      </trkpt>
      <trkpt lat="43.27078" lon="-5.1440196">
        <ele>102.0</ele>
        <time>2020-11-01T10:45:23Z</time>
      </trkpt>
      <trkpt lat="43.270794" lon="-5.144017">
        <ele>102.0</ele>
        <time>2020-11-01T10:45:24Z</time>
      </trkpt>
      <trkpt lat="43.270798" lon="-5.144012">
        <ele>102.0</ele>
        <time>2020-11-01T10:45:25Z</time>
      </trkpt>
      <trkpt lat="43.270813" lon="-5.1440163">
        <ele>102.0</ele>
        <time>2020-11-01T10:45:26Z</time>
      </trkpt>
      <trkpt lat="43.27083" lon="-5.144022">
        <ele>102.0</ele>
        <time>2020-11-01T10:45:27Z</time>
      </trkpt>
      <trkpt lat="43.270847" lon="-5.1440363">
        <ele>102.0</ele>
        <time>2020-11-01T10:45:28Z</time>
      </trkpt>
      <trkpt lat="43.270866" lon="-5.144057">
        <ele>102.0</ele>
        <time>2020-11-01T10:45:29Z</time>
      </trkpt>
      <trkpt lat="43.270885" lon="-5.1440754">
        <ele>102.0</ele>
        <time>2020-11-01T10:45:30Z</time>
      </trkpt>
      <trkpt lat="43.270813" lon="-5.1440315">
        <ele>102.0</ele>
        <time>2020-11-01T10:45:32Z</time>
      </trkpt>
      <trkpt lat="43.270813" lon="-5.1440296">
        <ele>102.0</ele>
        <time>2020-11-01T10:45:33Z</time>
      </trkpt>
      <trkpt lat="43.270813" lon="-5.1440277">
        <ele>102.0</ele>
        <time>2020-11-01T10:45:34Z</time>
      </trkpt>
      <trkpt lat="43.27081" lon="-5.144025">
        <ele>102.0</ele>
        <time>2020-11-01T10:45:35Z</time>
      </trkpt>
      <trkpt lat="43.27079" lon="-5.144013">
        <ele>102.0</ele>
        <time>2020-11-01T10:45:37Z</time>
      </trkpt>
      <trkpt lat="43.270782" lon="-5.1440115">
        <ele>102.0</ele>
        <time>2020-11-01T10:45:38Z</time>
      </trkpt>
      <trkpt lat="43.270775" lon="-5.1440105">
        <ele>102.0</ele>
        <time>2020-11-01T10:45:39Z</time>
      </trkpt>
      <trkpt lat="43.270767" lon="-5.1440086">
        <ele>102.0</ele>
        <time>2020-11-01T10:45:40Z</time>
      </trkpt>
      <trkpt lat="43.270763" lon="-5.1440053">
        <ele>102.0</ele>
        <time>2020-11-01T10:45:41Z</time>
      </trkpt>
      <trkpt lat="43.27076" lon="-5.1440015">
        <ele>102.0</ele>
        <time>2020-11-01T10:45:42Z</time>
      </trkpt>
      <trkpt lat="43.270752" lon="-5.1439967">
        <ele>102.0</ele>
        <time>2020-11-01T10:45:43Z</time>
      </trkpt>
      <trkpt lat="43.27075" lon="-5.143985">
        <ele>102.0</ele>
        <time>2020-11-01T10:45:45Z</time>
      </trkpt>
      <trkpt lat="43.270752" lon="-5.1439877">
        <ele>102.0</ele>
        <time>2020-11-01T10:45:47Z</time>
      </trkpt>
      <trkpt lat="43.270752" lon="-5.1439886">
        <ele>102.0</ele>
        <time>2020-11-01T10:45:48Z</time>
      </trkpt>
      <trkpt lat="43.270775" lon="-5.1440043">
        <ele>102.0</ele>
        <time>2020-11-01T10:45:50Z</time>
      </trkpt>
      <trkpt lat="43.270775" lon="-5.144003">
        <ele>102.0</ele>
        <time>2020-11-01T10:45:54Z</time>
      </trkpt>
      <trkpt lat="43.270775" lon="-5.1439977">
        <ele>102.0</ele>
        <time>2020-11-01T10:45:56Z</time>
      </trkpt>
      <trkpt lat="43.270775" lon="-5.1440015">
        <ele>102.0</ele>
        <time>2020-11-01T10:45:58Z</time>
      </trkpt>
      <trkpt lat="43.270775" lon="-5.1440015">
        <ele>102.0</ele>
        <time>2020-11-01T10:45:59Z</time>
      </trkpt>
      <trkpt lat="43.270775" lon="-5.1440034">
        <ele>102.0</ele>
        <time>2020-11-01T10:46:00Z</time>
      </trkpt>
      <trkpt lat="43.270767" lon="-5.1440144">
        <ele>102.0</ele>
        <time>2020-11-01T10:46:08Z</time>
      </trkpt>
      <trkpt lat="43.270763" lon="-5.1440167">
        <ele>102.0</ele>
        <time>2020-11-01T10:46:09Z</time>
      </trkpt>
      <trkpt lat="43.27076" lon="-5.1440206">
        <ele>102.0</ele>
        <time>2020-11-01T10:46:10Z</time>
      </trkpt>
      <trkpt lat="43.270752" lon="-5.144024">
        <ele>102.0</ele>
        <time>2020-11-01T10:46:11Z</time>
      </trkpt>
      <trkpt lat="43.270744" lon="-5.1440268">
        <ele>102.0</ele>
        <time>2020-11-01T10:46:12Z</time>
      </trkpt>
      <trkpt lat="43.270737" lon="-5.1440306">
        <ele>102.0</ele>
        <time>2020-11-01T10:46:13Z</time>
      </trkpt>
      <trkpt lat="43.270733" lon="-5.1440387">
        <ele>102.0</ele>
        <time>2020-11-01T10:46:14Z</time>
      </trkpt>
      <trkpt lat="43.27073" lon="-5.1440506">
        <ele>102.0</ele>
        <time>2020-11-01T10:46:15Z</time>
      </trkpt>
      <trkpt lat="43.27072" lon="-5.144065">
        <ele>102.0</ele>
        <time>2020-11-01T10:46:16Z</time>
      </trkpt>
      <trkpt lat="43.270718" lon="-5.144078">
        <ele>102.0</ele>
        <time>2020-11-01T10:46:17Z</time>
      </trkpt>
      <trkpt lat="43.270718" lon="-5.1440907">
        <ele>102.0</ele>
        <time>2020-11-01T10:46:18Z</time>
      </trkpt>
      <trkpt lat="43.270718" lon="-5.1441">
        <ele>102.0</ele>
        <time>2020-11-01T10:46:19Z</time>
      </trkpt>
      <trkpt lat="43.270718" lon="-5.1441073">
        <ele>102.0</ele>
        <time>2020-11-01T10:46:20Z</time>
      </trkpt>
      <trkpt lat="43.270718" lon="-5.1441193">
        <ele>102.0</ele>
        <time>2020-11-01T10:46:21Z</time>
      </trkpt>
      <trkpt lat="43.270714" lon="-5.144132">
        <ele>102.0</ele>
        <time>2020-11-01T10:46:22Z</time>
      </trkpt>
      <trkpt lat="43.270718" lon="-5.144146">
        <ele>102.0</ele>
        <time>2020-11-01T10:46:23Z</time>
      </trkpt>
      <trkpt lat="43.27072" lon="-5.14416">
        <ele>102.0</ele>
        <time>2020-11-01T10:46:24Z</time>
      </trkpt>
      <trkpt lat="43.27073" lon="-5.1441703">
        <ele>102.0</ele>
        <time>2020-11-01T10:46:25Z</time>
      </trkpt>
      <trkpt lat="43.270733" lon="-5.1441765">
        <ele>102.0</ele>
        <time>2020-11-01T10:46:26Z</time>
      </trkpt>
      <trkpt lat="43.270733" lon="-5.1441813">
        <ele>102.0</ele>
        <time>2020-11-01T10:46:27Z</time>
      </trkpt>
      <trkpt lat="43.270733" lon="-5.144188">
        <ele>102.0</ele>
        <time>2020-11-01T10:46:28Z</time>
      </trkpt>
      <trkpt lat="43.27073" lon="-5.144193">
        <ele>102.0</ele>
        <time>2020-11-01T10:46:29Z</time>
      </trkpt>
      <trkpt lat="43.27073" lon="-5.1442">
        <ele>102.0</ele>
        <time>2020-11-01T10:46:30Z</time>
      </trkpt>
      <trkpt lat="43.27073" lon="-5.1442065">
        <ele>102.0</ele>
        <time>2020-11-01T10:46:31Z</time>
      </trkpt>
      <trkpt lat="43.27073" lon="-5.144215">
        <ele>102.0</ele>
        <time>2020-11-01T10:46:32Z</time>
      </trkpt>
      <trkpt lat="43.270733" lon="-5.1442223">
        <ele>102.0</ele>
        <time>2020-11-01T10:46:33Z</time>
      </trkpt>
      <trkpt lat="43.270744" lon="-5.144231">
        <ele>102.0</ele>
        <time>2020-11-01T10:46:34Z</time>
      </trkpt>
      <trkpt lat="43.27075" lon="-5.1442385">
        <ele>102.0</ele>
        <time>2020-11-01T10:46:35Z</time>
      </trkpt>
      <trkpt lat="43.270752" lon="-5.1442447">
        <ele>107.0</ele>
        <time>2020-11-01T10:46:36Z</time>
      </trkpt>
      <trkpt lat="43.27076" lon="-5.1442475">
        <ele>107.0</ele>
        <time>2020-11-01T10:46:37Z</time>
      </trkpt>
      <trkpt lat="43.27076" lon="-5.1442504">
        <ele>107.0</ele>
        <time>2020-11-01T10:46:38Z</time>
      </trkpt>
      <trkpt lat="43.27076" lon="-5.144253">
        <ele>108.0</ele>
        <time>2020-11-01T10:46:39Z</time>
      </trkpt>
      <trkpt lat="43.27076" lon="-5.144252">
        <ele>108.0</ele>
        <time>2020-11-01T10:46:40Z</time>
      </trkpt>
      <trkpt lat="43.27075" lon="-5.144243">
        <ele>108.0</ele>
        <time>2020-11-01T10:46:42Z</time>
      </trkpt>
      <trkpt lat="43.270737" lon="-5.144243">
        <ele>108.0</ele>
        <time>2020-11-01T10:46:46Z</time>
      </trkpt>
      <trkpt lat="43.270737" lon="-5.144243">
        <ele>108.0</ele>
        <time>2020-11-01T10:46:47Z</time>
      </trkpt>
      <trkpt lat="43.270733" lon="-5.144242">
        <ele>108.0</ele>
        <time>2020-11-01T10:46:48Z</time>
      </trkpt>
      <trkpt lat="43.27073" lon="-5.144242">
        <ele>108.0</ele>
        <time>2020-11-01T10:46:49Z</time>
      </trkpt>
      <trkpt lat="43.27072" lon="-5.1442437">
        <ele>108.0</ele>
        <time>2020-11-01T10:46:50Z</time>
      </trkpt>
      <trkpt lat="43.270718" lon="-5.1442466">
        <ele>108.0</ele>
        <time>2020-11-01T10:46:51Z</time>
      </trkpt>
      <trkpt lat="43.270718" lon="-5.1442533">
        <ele>108.0</ele>
        <time>2020-11-01T10:46:52Z</time>
      </trkpt>
      <trkpt lat="43.270718" lon="-5.144264">
        <ele>109.0</ele>
        <time>2020-11-01T10:46:53Z</time>
      </trkpt>
      <trkpt lat="43.270718" lon="-5.144277">
        <ele>109.0</ele>
        <time>2020-11-01T10:46:54Z</time>
      </trkpt>
      <trkpt lat="43.270718" lon="-5.1442885">
        <ele>109.0</ele>
        <time>2020-11-01T10:46:55Z</time>
      </trkpt>
      <trkpt lat="43.27072" lon="-5.1443224">
        <ele>109.0</ele>
        <time>2020-11-01T10:46:58Z</time>
      </trkpt>
      <trkpt lat="43.27072" lon="-5.1443253">
        <ele>109.0</ele>
        <time>2020-11-01T10:46:59Z</time>
      </trkpt>
      <trkpt lat="43.27072" lon="-5.14433">
        <ele>109.0</ele>
        <time>2020-11-01T10:47:00Z</time>
      </trkpt>
      <trkpt lat="43.27072" lon="-5.144334">
        <ele>109.0</ele>
        <time>2020-11-01T10:47:01Z</time>
      </trkpt>
      <trkpt lat="43.270718" lon="-5.144336">
        <ele>110.0</ele>
        <time>2020-11-01T10:47:02Z</time>
      </trkpt>
      <trkpt lat="43.270714" lon="-5.1443405">
        <ele>110.0</ele>
        <time>2020-11-01T10:47:03Z</time>
      </trkpt>
      <trkpt lat="43.270706" lon="-5.1443443">
        <ele>110.0</ele>
        <time>2020-11-01T10:47:04Z</time>
      </trkpt>
      <trkpt lat="43.270702" lon="-5.1443477">
        <ele>110.0</ele>
        <time>2020-11-01T10:47:05Z</time>
      </trkpt>
      <trkpt lat="43.27069" lon="-5.1443486">
        <ele>110.0</ele>
        <time>2020-11-01T10:47:06Z</time>
      </trkpt>
      <trkpt lat="43.270683" lon="-5.1443477">
        <ele>110.0</ele>
        <time>2020-11-01T10:47:07Z</time>
      </trkpt>
      <trkpt lat="43.270676" lon="-5.1443467">
        <ele>110.0</ele>
        <time>2020-11-01T10:47:08Z</time>
      </trkpt>
      <trkpt lat="43.270668" lon="-5.1443467">
        <ele>110.0</ele>
        <time>2020-11-01T10:47:09Z</time>
      </trkpt>
      <trkpt lat="43.27066" lon="-5.144348">
        <ele>110.0</ele>
        <time>2020-11-01T10:47:10Z</time>
      </trkpt>
      <trkpt lat="43.270657" lon="-5.1443515">
        <ele>110.0</ele>
        <time>2020-11-01T10:47:11Z</time>
      </trkpt>
      <trkpt lat="43.270657" lon="-5.144356">
        <ele>110.0</ele>
        <time>2020-11-01T10:47:12Z</time>
      </trkpt>
      <trkpt lat="43.270653" lon="-5.1443596">
        <ele>111.0</ele>
        <time>2020-11-01T10:47:13Z</time>
      </trkpt>
      <trkpt lat="43.270653" lon="-5.1443615">
        <ele>111.0</ele>
        <time>2020-11-01T10:47:14Z</time>
      </trkpt>
      <trkpt lat="43.270653" lon="-5.1443663">
        <ele>111.0</ele>
        <time>2020-11-01T10:47:15Z</time>
      </trkpt>
      <trkpt lat="43.270657" lon="-5.144374">
        <ele>111.0</ele>
        <time>2020-11-01T10:47:16Z</time>
      </trkpt>
      <trkpt lat="43.270657" lon="-5.144384">
        <ele>111.0</ele>
        <time>2020-11-01T10:47:17Z</time>
      </trkpt>
      <trkpt lat="43.270657" lon="-5.1443925">
        <ele>111.0</ele>
        <time>2020-11-01T10:47:18Z</time>
      </trkpt>
      <trkpt lat="43.27066" lon="-5.144401">
        <ele>111.0</ele>
        <time>2020-11-01T10:47:19Z</time>
      </trkpt>
      <trkpt lat="43.27066" lon="-5.1444087">
        <ele>111.0</ele>
        <time>2020-11-01T10:47:20Z</time>
      </trkpt>
      <trkpt lat="43.270657" lon="-5.1444154">
        <ele>111.0</ele>
        <time>2020-11-01T10:47:21Z</time>
      </trkpt>
      <trkpt lat="43.270653" lon="-5.1444187">
        <ele>111.0</ele>
        <time>2020-11-01T10:47:22Z</time>
      </trkpt>
      <trkpt lat="43.27064" lon="-5.144419">
        <ele>111.0</ele>
        <time>2020-11-01T10:47:23Z</time>
      </trkpt>
      <trkpt lat="43.27063" lon="-5.1444187">
        <ele>111.0</ele>
        <time>2020-11-01T10:47:24Z</time>
      </trkpt>
      <trkpt lat="43.270615" lon="-5.1444244">
        <ele>111.0</ele>
        <time>2020-11-01T10:47:26Z</time>
      </trkpt>
      <trkpt lat="43.270615" lon="-5.1444254">
        <ele>111.0</ele>
        <time>2020-11-01T10:47:27Z</time>
      </trkpt>
      <trkpt lat="43.27062" lon="-5.1444273">
        <ele>111.0</ele>
        <time>2020-11-01T10:47:28Z</time>
      </trkpt>
      <trkpt lat="43.27062" lon="-5.144429">
        <ele>111.0</ele>
        <time>2020-11-01T10:47:29Z</time>
      </trkpt>
      <trkpt lat="43.270626" lon="-5.144432">
        <ele>111.0</ele>
        <time>2020-11-01T10:47:30Z</time>
      </trkpt>
      <trkpt lat="43.27062" lon="-5.144436">
        <ele>112.0</ele>
        <time>2020-11-01T10:47:31Z</time>
      </trkpt>
      <trkpt lat="43.270626" lon="-5.1444387">
        <ele>112.0</ele>
        <time>2020-11-01T10:47:32Z</time>
      </trkpt>
      <trkpt lat="43.270626" lon="-5.144439">
        <ele>112.0</ele>
        <time>2020-11-01T10:47:33Z</time>
      </trkpt>
      <trkpt lat="43.27062" lon="-5.1444387">
        <ele>112.0</ele>
        <time>2020-11-01T10:47:34Z</time>
      </trkpt>
      <trkpt lat="43.27062" lon="-5.144436">
        <ele>112.0</ele>
        <time>2020-11-01T10:47:35Z</time>
      </trkpt>
      <trkpt lat="43.27062" lon="-5.144437">
        <ele>112.0</ele>
        <time>2020-11-01T10:47:36Z</time>
      </trkpt>
      <trkpt lat="43.27063" lon="-5.1444407">
        <ele>112.0</ele>
        <time>2020-11-01T10:47:37Z</time>
      </trkpt>
      <trkpt lat="43.270634" lon="-5.144442">
        <ele>112.0</ele>
        <time>2020-11-01T10:47:38Z</time>
      </trkpt>
      <trkpt lat="43.270634" lon="-5.144441">
        <ele>112.0</ele>
        <time>2020-11-01T10:47:39Z</time>
      </trkpt>
      <trkpt lat="43.270634" lon="-5.1444383">
        <ele>112.0</ele>
        <time>2020-11-01T10:47:40Z</time>
      </trkpt>
      <trkpt lat="43.27063" lon="-5.1444345">
        <ele>112.0</ele>
        <time>2020-11-01T10:47:41Z</time>
      </trkpt>
      <trkpt lat="43.270626" lon="-5.144434">
        <ele>112.0</ele>
        <time>2020-11-01T10:47:42Z</time>
      </trkpt>
      <trkpt lat="43.270626" lon="-5.1444354">
        <ele>112.0</ele>
        <time>2020-11-01T10:47:43Z</time>
      </trkpt>
      <trkpt lat="43.270626" lon="-5.1444397">
        <ele>112.0</ele>
        <time>2020-11-01T10:47:44Z</time>
      </trkpt>
      <trkpt lat="43.270626" lon="-5.1444488">
        <ele>112.0</ele>
        <time>2020-11-01T10:47:45Z</time>
      </trkpt>
      <trkpt lat="43.270634" lon="-5.1444597">
        <ele>113.0</ele>
        <time>2020-11-01T10:47:46Z</time>
      </trkpt>
      <trkpt lat="43.27064" lon="-5.144471">
        <ele>113.0</ele>
        <time>2020-11-01T10:47:47Z</time>
      </trkpt>
      <trkpt lat="43.270653" lon="-5.144483">
        <ele>113.0</ele>
        <time>2020-11-01T10:47:48Z</time>
      </trkpt>
      <trkpt lat="43.270668" lon="-5.1444974">
        <ele>113.0</ele>
        <time>2020-11-01T10:47:49Z</time>
      </trkpt>
      <trkpt lat="43.270683" lon="-5.144512">
        <ele>113.0</ele>
        <time>2020-11-01T10:47:50Z</time>
      </trkpt>
      <trkpt lat="43.27069" lon="-5.1445236">
        <ele>113.0</ele>
        <time>2020-11-01T10:47:51Z</time>
      </trkpt>
      <trkpt lat="43.2707" lon="-5.144537">
        <ele>113.0</ele>
        <time>2020-11-01T10:47:52Z</time>
      </trkpt>
      <trkpt lat="43.270706" lon="-5.1445537">
        <ele>114.0</ele>
        <time>2020-11-01T10:47:53Z</time>
      </trkpt>
      <trkpt lat="43.270714" lon="-5.144572">
        <ele>114.0</ele>
        <time>2020-11-01T10:47:54Z</time>
      </trkpt>
      <trkpt lat="43.270718" lon="-5.144586">
        <ele>114.0</ele>
        <time>2020-11-01T10:47:55Z</time>
      </trkpt>
      <trkpt lat="43.27072" lon="-5.144595">
        <ele>114.0</ele>
        <time>2020-11-01T10:47:56Z</time>
      </trkpt>
      <trkpt lat="43.27072" lon="-5.144602">
        <ele>114.0</ele>
        <time>2020-11-01T10:47:57Z</time>
      </trkpt>
      <trkpt lat="43.270718" lon="-5.1446047">
        <ele>114.0</ele>
        <time>2020-11-01T10:47:58Z</time>
      </trkpt>
      <trkpt lat="43.270706" lon="-5.1446037">
        <ele>114.0</ele>
        <time>2020-11-01T10:47:59Z</time>
      </trkpt>
      <trkpt lat="43.270702" lon="-5.144604">
        <ele>115.0</ele>
        <time>2020-11-01T10:48:00Z</time>
      </trkpt>
      <trkpt lat="43.27069" lon="-5.1446085">
        <ele>115.0</ele>
        <time>2020-11-01T10:48:01Z</time>
      </trkpt>
      <trkpt lat="43.27069" lon="-5.1446157">
        <ele>115.0</ele>
        <time>2020-11-01T10:48:02Z</time>
      </trkpt>
      <trkpt lat="43.270687" lon="-5.144622">
        <ele>115.0</ele>
        <time>2020-11-01T10:48:03Z</time>
      </trkpt>
      <trkpt lat="43.27069" lon="-5.144629">
        <ele>115.0</ele>
        <time>2020-11-01T10:48:04Z</time>
      </trkpt>
      <trkpt lat="43.27069" lon="-5.1446385">
        <ele>115.0</ele>
        <time>2020-11-01T10:48:05Z</time>
      </trkpt>
      <trkpt lat="43.27069" lon="-5.1446486">
        <ele>115.0</ele>
        <time>2020-11-01T10:48:06Z</time>
      </trkpt>
      <trkpt lat="43.27069" lon="-5.1446567">
        <ele>116.0</ele>
        <time>2020-11-01T10:48:07Z</time>
      </trkpt>
      <trkpt lat="43.27069" lon="-5.144664">
        <ele>116.0</ele>
        <time>2020-11-01T10:48:08Z</time>
      </trkpt>
      <trkpt lat="43.270687" lon="-5.1446695">
        <ele>116.0</ele>
        <time>2020-11-01T10:48:09Z</time>
      </trkpt>
      <trkpt lat="43.270683" lon="-5.144673">
        <ele>116.0</ele>
        <time>2020-11-01T10:48:10Z</time>
      </trkpt>
      <trkpt lat="43.270668" lon="-5.144672">
        <ele>116.0</ele>
        <time>2020-11-01T10:48:11Z</time>
      </trkpt>
      <trkpt lat="43.270657" lon="-5.144672">
        <ele>116.0</ele>
        <time>2020-11-01T10:48:12Z</time>
      </trkpt>
      <trkpt lat="43.27064" lon="-5.144671">
        <ele>116.0</ele>
        <time>2020-11-01T10:48:13Z</time>
      </trkpt>
      <trkpt lat="43.27062" lon="-5.1446743">
        <ele>116.0</ele>
        <time>2020-11-01T10:48:14Z</time>
      </trkpt>
      <trkpt lat="43.270603" lon="-5.1446786">
        <ele>116.0</ele>
        <time>2020-11-01T10:48:15Z</time>
      </trkpt>
      <trkpt lat="43.270584" lon="-5.1446843">
        <ele>116.0</ele>
        <time>2020-11-01T10:48:16Z</time>
      </trkpt>
      <trkpt lat="43.27057" lon="-5.14469">
        <ele>116.0</ele>
        <time>2020-11-01T10:48:17Z</time>
      </trkpt>
      <trkpt lat="43.270554" lon="-5.144695">
        <ele>116.0</ele>
        <time>2020-11-01T10:48:18Z</time>
      </trkpt>
      <trkpt lat="43.27054" lon="-5.144697">
        <ele>116.0</ele>
        <time>2020-11-01T10:48:19Z</time>
      </trkpt>
      <trkpt lat="43.270523" lon="-5.144697">
        <ele>116.0</ele>
        <time>2020-11-01T10:48:20Z</time>
      </trkpt>
      <trkpt lat="43.270508" lon="-5.144696">
        <ele>116.0</ele>
        <time>2020-11-01T10:48:21Z</time>
      </trkpt>
      <trkpt lat="43.270496" lon="-5.144694">
        <ele>116.0</ele>
        <time>2020-11-01T10:48:22Z</time>
      </trkpt>
      <trkpt lat="43.27049" lon="-5.144691">
        <ele>116.0</ele>
        <time>2020-11-01T10:48:23Z</time>
      </trkpt>
      <trkpt lat="43.270477" lon="-5.144687">
        <ele>116.0</ele>
        <time>2020-11-01T10:48:24Z</time>
      </trkpt>
      <trkpt lat="43.270466" lon="-5.1446834">
        <ele>116.0</ele>
        <time>2020-11-01T10:48:24Z</time>
      </trkpt>
      <trkpt lat="43.270462" lon="-5.144682">
        <ele>116.0</ele>
        <time>2020-11-01T10:48:25Z</time>
      </trkpt>
      <trkpt lat="43.270462" lon="-5.1446824">
        <ele>116.0</ele>
        <time>2020-11-01T10:48:26Z</time>
      </trkpt>
      <trkpt lat="43.27045" lon="-5.144687">
        <ele>116.0</ele>
        <time>2020-11-01T10:48:28Z</time>
      </trkpt>
      <trkpt lat="43.27045" lon="-5.144688">
        <ele>116.0</ele>
        <time>2020-11-01T10:48:29Z</time>
      </trkpt>
      <trkpt lat="43.27045" lon="-5.1446896">
        <ele>116.0</ele>
        <time>2020-11-01T10:48:30Z</time>
      </trkpt>
      <trkpt lat="43.270447" lon="-5.144688">
        <ele>116.0</ele>
        <time>2020-11-01T10:48:31Z</time>
      </trkpt>
      <trkpt lat="43.27044" lon="-5.144685">
        <ele>116.0</ele>
        <time>2020-11-01T10:48:32Z</time>
      </trkpt>
      <trkpt lat="43.270435" lon="-5.144682">
        <ele>116.0</ele>
        <time>2020-11-01T10:48:33Z</time>
      </trkpt>
      <trkpt lat="43.27043" lon="-5.1446834">
        <ele>116.0</ele>
        <time>2020-11-01T10:48:34Z</time>
      </trkpt>
      <trkpt lat="43.270424" lon="-5.144686">
        <ele>116.0</ele>
        <time>2020-11-01T10:48:35Z</time>
      </trkpt>
      <trkpt lat="43.27042" lon="-5.144691">
        <ele>116.0</ele>
        <time>2020-11-01T10:48:36Z</time>
      </trkpt>
      <trkpt lat="43.270416" lon="-5.144699">
        <ele>116.0</ele>
        <time>2020-11-01T10:48:37Z</time>
      </trkpt>
      <trkpt lat="43.270416" lon="-5.1447096">
        <ele>116.0</ele>
        <time>2020-11-01T10:48:38Z</time>
      </trkpt>
      <trkpt lat="43.27041" lon="-5.1447244">
        <ele>116.0</ele>
        <time>2020-11-01T10:48:39Z</time>
      </trkpt>
      <trkpt lat="43.27041" lon="-5.1447415">
        <ele>116.0</ele>
        <time>2020-11-01T10:48:40Z</time>
      </trkpt>
      <trkpt lat="43.27041" lon="-5.144758">
        <ele>116.0</ele>
        <time>2020-11-01T10:48:41Z</time>
      </trkpt>
      <trkpt lat="43.270405" lon="-5.1447744">
        <ele>116.0</ele>
        <time>2020-11-01T10:48:42Z</time>
      </trkpt>
      <trkpt lat="43.270405" lon="-5.14479">
        <ele>116.0</ele>
        <time>2020-11-01T10:48:43Z</time>
      </trkpt>
      <trkpt lat="43.2704" lon="-5.144806">
        <ele>116.0</ele>
        <time>2020-11-01T10:48:44Z</time>
      </trkpt>
      <trkpt lat="43.270393" lon="-5.144818">
        <ele>116.0</ele>
        <time>2020-11-01T10:48:45Z</time>
      </trkpt>
      <trkpt lat="43.27039" lon="-5.144827">
        <ele>116.0</ele>
        <time>2020-11-01T10:48:46Z</time>
      </trkpt>
      <trkpt lat="43.27039" lon="-5.144835">
        <ele>116.0</ele>
        <time>2020-11-01T10:48:47Z</time>
      </trkpt>
      <trkpt lat="43.270386" lon="-5.144843">
        <ele>116.0</ele>
        <time>2020-11-01T10:48:48Z</time>
      </trkpt>
      <trkpt lat="43.270386" lon="-5.1448517">
        <ele>116.0</ele>
        <time>2020-11-01T10:48:49Z</time>
      </trkpt>
      <trkpt lat="43.27038" lon="-5.1448565">
        <ele>116.0</ele>
        <time>2020-11-01T10:48:50Z</time>
      </trkpt>
      <trkpt lat="43.270374" lon="-5.1448593">
        <ele>116.0</ele>
        <time>2020-11-01T10:48:51Z</time>
      </trkpt>
      <trkpt lat="43.270374" lon="-5.1448593">
        <ele>116.0</ele>
        <time>2020-11-01T10:48:52Z</time>
      </trkpt>
      <trkpt lat="43.27037" lon="-5.1448603">
        <ele>116.0</ele>
        <time>2020-11-01T10:48:53Z</time>
      </trkpt>
      <trkpt lat="43.270363" lon="-5.1448627">
        <ele>116.0</ele>
        <time>2020-11-01T10:48:54Z</time>
      </trkpt>
      <trkpt lat="43.27036" lon="-5.1448655">
        <ele>116.0</ele>
        <time>2020-11-01T10:48:55Z</time>
      </trkpt>
      <trkpt lat="43.270355" lon="-5.1448684">
        <ele>116.0</ele>
        <time>2020-11-01T10:48:56Z</time>
      </trkpt>
      <trkpt lat="43.270344" lon="-5.144868">
        <ele>116.0</ele>
        <time>2020-11-01T10:48:57Z</time>
      </trkpt>
      <trkpt lat="43.270325" lon="-5.144862">
        <ele>116.0</ele>
        <time>2020-11-01T10:48:59Z</time>
      </trkpt>
      <trkpt lat="43.270325" lon="-5.144858">
        <ele>116.0</ele>
        <time>2020-11-01T10:49:00Z</time>
      </trkpt>
      <trkpt lat="43.270317" lon="-5.1448545">
        <ele>116.0</ele>
        <time>2020-11-01T10:49:01Z</time>
      </trkpt>
      <trkpt lat="43.270313" lon="-5.144849">
        <ele>116.0</ele>
        <time>2020-11-01T10:49:02Z</time>
      </trkpt>
      <trkpt lat="43.270313" lon="-5.1448464">
        <ele>116.0</ele>
        <time>2020-11-01T10:49:03Z</time>
      </trkpt>
      <trkpt lat="43.27031" lon="-5.144846">
        <ele>116.0</ele>
        <time>2020-11-01T10:49:04Z</time>
      </trkpt>
      <trkpt lat="43.270313" lon="-5.1448455">
        <ele>116.0</ele>
        <time>2020-11-01T10:49:05Z</time>
      </trkpt>
      <trkpt lat="43.270313" lon="-5.1448445">
        <ele>116.0</ele>
        <time>2020-11-01T10:49:06Z</time>
      </trkpt>
      <trkpt lat="43.270317" lon="-5.144844">
        <ele>116.0</ele>
        <time>2020-11-01T10:49:07Z</time>
      </trkpt>
      <trkpt lat="43.270317" lon="-5.1448455">
        <ele>116.0</ele>
        <time>2020-11-01T10:49:08Z</time>
      </trkpt>
      <trkpt lat="43.270325" lon="-5.1448507">
        <ele>116.0</ele>
        <time>2020-11-01T10:49:09Z</time>
      </trkpt>
      <trkpt lat="43.270325" lon="-5.1448574">
        <ele>116.0</ele>
        <time>2020-11-01T10:49:10Z</time>
      </trkpt>
      <trkpt lat="43.27033" lon="-5.144863">
        <ele>116.0</ele>
        <time>2020-11-01T10:49:11Z</time>
      </trkpt>
      <trkpt lat="43.270332" lon="-5.1448674">
        <ele>116.0</ele>
        <time>2020-11-01T10:49:12Z</time>
      </trkpt>
      <trkpt lat="43.270332" lon="-5.1448655">
        <ele>116.0</ele>
        <time>2020-11-01T10:49:13Z</time>
      </trkpt>
      <trkpt lat="43.27033" lon="-5.144862">
        <ele>116.0</ele>
        <time>2020-11-01T10:49:14Z</time>
      </trkpt>
      <trkpt lat="43.270298" lon="-5.1448593">
        <ele>116.0</ele>
        <time>2020-11-01T10:49:16Z</time>
      </trkpt>
      <trkpt lat="43.270298" lon="-5.1448584">
        <ele>116.0</ele>
        <time>2020-11-01T10:49:17Z</time>
      </trkpt>
      <trkpt lat="43.270294" lon="-5.144859">
        <ele>116.0</ele>
        <time>2020-11-01T10:49:18Z</time>
      </trkpt>
      <trkpt lat="43.270283" lon="-5.144861">
        <ele>118.0</ele>
        <time>2020-11-01T10:49:19Z</time>
      </trkpt>
      <trkpt lat="43.27027" lon="-5.1448636">
        <ele>118.0</ele>
        <time>2020-11-01T10:49:20Z</time>
      </trkpt>
      <trkpt lat="43.270267" lon="-5.1448674">
        <ele>118.0</ele>
        <time>2020-11-01T10:49:21Z</time>
      </trkpt>
      <trkpt lat="43.270256" lon="-5.1448774">
        <ele>118.0</ele>
        <time>2020-11-01T10:49:24Z</time>
      </trkpt>
      <trkpt lat="43.270256" lon="-5.14488">
        <ele>118.0</ele>
        <time>2020-11-01T10:49:25Z</time>
      </trkpt>
      <trkpt lat="43.270252" lon="-5.1448855">
        <ele>118.0</ele>
        <time>2020-11-01T10:49:26Z</time>
      </trkpt>
      <trkpt lat="43.270252" lon="-5.1448913">
        <ele>118.0</ele>
        <time>2020-11-01T10:49:27Z</time>
      </trkpt>
      <trkpt lat="43.270252" lon="-5.1449003">
        <ele>118.0</ele>
        <time>2020-11-01T10:49:28Z</time>
      </trkpt>
      <trkpt lat="43.270245" lon="-5.144911">
        <ele>118.0</ele>
        <time>2020-11-01T10:49:29Z</time>
      </trkpt>
      <trkpt lat="43.270252" lon="-5.1449265">
        <ele>118.0</ele>
        <time>2020-11-01T10:49:30Z</time>
      </trkpt>
      <trkpt lat="43.270256" lon="-5.1449437">
        <ele>118.0</ele>
        <time>2020-11-01T10:49:31Z</time>
      </trkpt>
      <trkpt lat="43.27026" lon="-5.14496">
        <ele>118.0</ele>
        <time>2020-11-01T10:49:32Z</time>
      </trkpt>
      <trkpt lat="43.27026" lon="-5.1449766">
        <ele>118.0</ele>
        <time>2020-11-01T10:49:33Z</time>
      </trkpt>
      <trkpt lat="43.27026" lon="-5.144988">
        <ele>118.0</ele>
        <time>2020-11-01T10:49:34Z</time>
      </trkpt>
      <trkpt lat="43.270267" lon="-5.144999">
        <ele>118.0</ele>
        <time>2020-11-01T10:49:35Z</time>
      </trkpt>
      <trkpt lat="43.27026" lon="-5.145006">
        <ele>118.0</ele>
        <time>2020-11-01T10:49:36Z</time>
      </trkpt>
      <trkpt lat="43.270256" lon="-5.145009">
        <ele>118.0</ele>
        <time>2020-11-01T10:49:37Z</time>
      </trkpt>
      <trkpt lat="43.270245" lon="-5.1450114">
        <ele>118.0</ele>
        <time>2020-11-01T10:49:38Z</time>
      </trkpt>
      <trkpt lat="43.27023" lon="-5.1450105">
        <ele>118.0</ele>
        <time>2020-11-01T10:49:39Z</time>
      </trkpt>
      <trkpt lat="43.27022" lon="-5.145007">
        <ele>118.0</ele>
        <time>2020-11-01T10:49:40Z</time>
      </trkpt>
      <trkpt lat="43.270206" lon="-5.1450024">
        <ele>118.0</ele>
        <time>2020-11-01T10:49:41Z</time>
      </trkpt>
      <trkpt lat="43.270195" lon="-5.1450024">
        <ele>118.0</ele>
        <time>2020-11-01T10:49:42Z</time>
      </trkpt>
      <trkpt lat="43.270184" lon="-5.1450067">
        <ele>118.0</ele>
        <time>2020-11-01T10:49:43Z</time>
      </trkpt>
      <trkpt lat="43.27018" lon="-5.1450124">
        <ele>118.0</ele>
        <time>2020-11-01T10:49:44Z</time>
      </trkpt>
      <trkpt lat="43.270176" lon="-5.14502">
        <ele>118.0</ele>
        <time>2020-11-01T10:49:45Z</time>
      </trkpt>
      <trkpt lat="43.270176" lon="-5.1450286">
        <ele>118.0</ele>
        <time>2020-11-01T10:49:46Z</time>
      </trkpt>
      <trkpt lat="43.270176" lon="-5.1450367">
        <ele>118.0</ele>
        <time>2020-11-01T10:49:47Z</time>
      </trkpt>
      <trkpt lat="43.270176" lon="-5.1450424">
        <ele>118.0</ele>
        <time>2020-11-01T10:49:48Z</time>
      </trkpt>
      <trkpt lat="43.27017" lon="-5.145046">
        <ele>118.0</ele>
        <time>2020-11-01T10:49:49Z</time>
      </trkpt>
      <trkpt lat="43.27016" lon="-5.145046">
        <ele>118.0</ele>
        <time>2020-11-01T10:49:50Z</time>
      </trkpt>
      <trkpt lat="43.270153" lon="-5.1450486">
        <ele>118.0</ele>
        <time>2020-11-01T10:49:51Z</time>
      </trkpt>
      <trkpt lat="43.270145" lon="-5.145056">
        <ele>118.0</ele>
        <time>2020-11-01T10:49:52Z</time>
      </trkpt>
      <trkpt lat="43.270138" lon="-5.145065">
        <ele>118.0</ele>
        <time>2020-11-01T10:49:53Z</time>
      </trkpt>
      <trkpt lat="43.270134" lon="-5.1450734">
        <ele>118.0</ele>
        <time>2020-11-01T10:49:54Z</time>
      </trkpt>
      <trkpt lat="43.270134" lon="-5.14508">
        <ele>118.0</ele>
        <time>2020-11-01T10:49:55Z</time>
      </trkpt>
      <trkpt lat="43.27013" lon="-5.1450863">
        <ele>118.0</ele>
        <time>2020-11-01T10:49:56Z</time>
      </trkpt>
      <trkpt lat="43.270123" lon="-5.145089">
        <ele>118.0</ele>
        <time>2020-11-01T10:49:57Z</time>
      </trkpt>
      <trkpt lat="43.27012" lon="-5.1450896">
        <ele>118.0</ele>
        <time>2020-11-01T10:49:58Z</time>
      </trkpt>
      <trkpt lat="43.270115" lon="-5.145091">
        <ele>118.0</ele>
        <time>2020-11-01T10:49:59Z</time>
      </trkpt>
      <trkpt lat="43.270115" lon="-5.145095">
        <ele>118.0</ele>
        <time>2020-11-01T10:50:00Z</time>
      </trkpt>
      <trkpt lat="43.270115" lon="-5.1450963">
        <ele>118.0</ele>
        <time>2020-11-01T10:50:01Z</time>
      </trkpt>
      <trkpt lat="43.270115" lon="-5.145096">
        <ele>118.0</ele>
        <time>2020-11-01T10:50:02Z</time>
      </trkpt>
      <trkpt lat="43.270115" lon="-5.145099">
        <ele>118.0</ele>
        <time>2020-11-01T10:50:03Z</time>
      </trkpt>
      <trkpt lat="43.270123" lon="-5.1451073">
        <ele>118.0</ele>
        <time>2020-11-01T10:50:06Z</time>
      </trkpt>
      <trkpt lat="43.270123" lon="-5.1451077">
        <ele>118.0</ele>
        <time>2020-11-01T10:50:07Z</time>
      </trkpt>
      <trkpt lat="43.27013" lon="-5.145107">
        <ele>118.0</ele>
        <time>2020-11-01T10:50:08Z</time>
      </trkpt>
      <trkpt lat="43.270134" lon="-5.1450987">
        <ele>118.0</ele>
        <time>2020-11-01T10:50:09Z</time>
      </trkpt>
      <trkpt lat="43.270134" lon="-5.1450973">
        <ele>118.0</ele>
        <time>2020-11-01T10:50:10Z</time>
      </trkpt>
      <trkpt lat="43.270138" lon="-5.1450996">
        <ele>118.0</ele>
        <time>2020-11-01T10:50:11Z</time>
      </trkpt>
      <trkpt lat="43.270138" lon="-5.1451015">
        <ele>118.0</ele>
        <time>2020-11-01T10:50:12Z</time>
      </trkpt>
      <trkpt lat="43.270134" lon="-5.145097">
        <ele>118.0</ele>
        <time>2020-11-01T10:50:13Z</time>
      </trkpt>
      <trkpt lat="43.270134" lon="-5.1450925">
        <ele>118.0</ele>
        <time>2020-11-01T10:50:14Z</time>
      </trkpt>
      <trkpt lat="43.27013" lon="-5.145086">
        <ele>118.0</ele>
        <time>2020-11-01T10:50:15Z</time>
      </trkpt>
      <trkpt lat="43.270123" lon="-5.145062">
        <ele>118.0</ele>
        <time>2020-11-01T10:50:17Z</time>
      </trkpt>
      <trkpt lat="43.270123" lon="-5.1450605">
        <ele>118.0</ele>
        <time>2020-11-01T10:50:18Z</time>
      </trkpt>
      <trkpt lat="43.27013" lon="-5.1450553">
        <ele>118.0</ele>
        <time>2020-11-01T10:50:19Z</time>
      </trkpt>
      <trkpt lat="43.270134" lon="-5.145053">
        <ele>118.0</ele>
        <time>2020-11-01T10:50:20Z</time>
      </trkpt>
      <trkpt lat="43.270153" lon="-5.145049">
        <ele>118.0</ele>
        <time>2020-11-01T10:50:22Z</time>
      </trkpt>
      <trkpt lat="43.270153" lon="-5.14505">
        <ele>118.0</ele>
        <time>2020-11-01T10:50:23Z</time>
      </trkpt>
      <trkpt lat="43.27015" lon="-5.1450543">
        <ele>118.0</ele>
        <time>2020-11-01T10:50:24Z</time>
      </trkpt>
      <trkpt lat="43.27015" lon="-5.14506">
        <ele>118.0</ele>
        <time>2020-11-01T10:50:25Z</time>
      </trkpt>
      <trkpt lat="43.27015" lon="-5.1450677">
        <ele>118.0</ele>
        <time>2020-11-01T10:50:26Z</time>
      </trkpt>
      <trkpt lat="43.270153" lon="-5.145077">
        <ele>118.0</ele>
        <time>2020-11-01T10:50:27Z</time>
      </trkpt>
      <trkpt lat="43.270153" lon="-5.145089">
        <ele>118.0</ele>
        <time>2020-11-01T10:50:28Z</time>
      </trkpt>
      <trkpt lat="43.27015" lon="-5.1450977">
        <ele>118.0</ele>
        <time>2020-11-01T10:50:29Z</time>
      </trkpt>
      <trkpt lat="43.270145" lon="-5.145103">
        <ele>118.0</ele>
        <time>2020-11-01T10:50:30Z</time>
      </trkpt>
      <trkpt lat="43.270145" lon="-5.1451097">
        <ele>118.0</ele>
        <time>2020-11-01T10:50:31Z</time>
      </trkpt>
      <trkpt lat="43.270145" lon="-5.1451144">
        <ele>118.0</ele>
        <time>2020-11-01T10:50:32Z</time>
      </trkpt>
      <trkpt lat="43.270138" lon="-5.1451206">
        <ele>121.0</ele>
        <time>2020-11-01T10:50:33Z</time>
      </trkpt>
      <trkpt lat="43.270138" lon="-5.145126">
        <ele>121.0</ele>
        <time>2020-11-01T10:50:34Z</time>
      </trkpt>
      <trkpt lat="43.270134" lon="-5.145131">
        <ele>121.0</ele>
        <time>2020-11-01T10:50:35Z</time>
      </trkpt>
      <trkpt lat="43.270134" lon="-5.145136">
        <ele>121.0</ele>
        <time>2020-11-01T10:50:36Z</time>
      </trkpt>
      <trkpt lat="43.27013" lon="-5.14514">
        <ele>121.0</ele>
        <time>2020-11-01T10:50:37Z</time>
      </trkpt>
      <trkpt lat="43.27013" lon="-5.1451445">
        <ele>121.0</ele>
        <time>2020-11-01T10:50:38Z</time>
      </trkpt>
      <trkpt lat="43.270123" lon="-5.145149">
        <ele>122.0</ele>
        <time>2020-11-01T10:50:39Z</time>
      </trkpt>
      <trkpt lat="43.27012" lon="-5.1451526">
        <ele>122.0</ele>
        <time>2020-11-01T10:50:40Z</time>
      </trkpt>
      <trkpt lat="43.270115" lon="-5.14516">
        <ele>122.0</ele>
        <time>2020-11-01T10:50:41Z</time>
      </trkpt>
      <trkpt lat="43.270107" lon="-5.1451683">
        <ele>122.0</ele>
        <time>2020-11-01T10:50:42Z</time>
      </trkpt>
      <trkpt lat="43.270103" lon="-5.1451764">
        <ele>122.0</ele>
        <time>2020-11-01T10:50:43Z</time>
      </trkpt>
      <trkpt lat="43.270092" lon="-5.1451836">
        <ele>122.0</ele>
        <time>2020-11-01T10:50:44Z</time>
      </trkpt>
      <trkpt lat="43.27009" lon="-5.145192">
        <ele>122.0</ele>
        <time>2020-11-01T10:50:45Z</time>
      </trkpt>
      <trkpt lat="43.270084" lon="-5.145197">
        <ele>122.0</ele>
        <time>2020-11-01T10:50:46Z</time>
      </trkpt>
      <trkpt lat="43.270073" lon="-5.1452">
        <ele>122.0</ele>
        <time>2020-11-01T10:50:47Z</time>
      </trkpt>
      <trkpt lat="43.27006" lon="-5.1452055">
        <ele>122.0</ele>
        <time>2020-11-01T10:50:48Z</time>
      </trkpt>
      <trkpt lat="43.270058" lon="-5.145212">
        <ele>122.0</ele>
        <time>2020-11-01T10:50:49Z</time>
      </trkpt>
      <trkpt lat="43.27005" lon="-5.145223">
        <ele>123.0</ele>
        <time>2020-11-01T10:50:50Z</time>
      </trkpt>
      <trkpt lat="43.270046" lon="-5.145238">
        <ele>123.0</ele>
        <time>2020-11-01T10:50:51Z</time>
      </trkpt>
      <trkpt lat="43.270046" lon="-5.14525">
        <ele>123.0</ele>
        <time>2020-11-01T10:50:52Z</time>
      </trkpt>
      <trkpt lat="43.270042" lon="-5.1452613">
        <ele>123.0</ele>
        <time>2020-11-01T10:50:53Z</time>
      </trkpt>
      <trkpt lat="43.270042" lon="-5.145272">
        <ele>123.0</ele>
        <time>2020-11-01T10:50:54Z</time>
      </trkpt>
      <trkpt lat="43.270042" lon="-5.145281">
        <ele>123.0</ele>
        <time>2020-11-01T10:50:55Z</time>
      </trkpt>
      <trkpt lat="43.270035" lon="-5.1452885">
        <ele>123.0</ele>
        <time>2020-11-01T10:50:56Z</time>
      </trkpt>
      <trkpt lat="43.27003" lon="-5.145293">
        <ele>124.0</ele>
        <time>2020-11-01T10:50:57Z</time>
      </trkpt>
      <trkpt lat="43.27003" lon="-5.145297">
        <ele>124.0</ele>
        <time>2020-11-01T10:50:58Z</time>
      </trkpt>
      <trkpt lat="43.270027" lon="-5.145304">
        <ele>124.0</ele>
        <time>2020-11-01T10:50:59Z</time>
      </trkpt>
      <trkpt lat="43.270027" lon="-5.1453133">
        <ele>124.0</ele>
        <time>2020-11-01T10:51:00Z</time>
      </trkpt>
      <trkpt lat="43.27002" lon="-5.145323">
        <ele>124.0</ele>
        <time>2020-11-01T10:51:01Z</time>
      </trkpt>
      <trkpt lat="43.270016" lon="-5.1453295">
        <ele>124.0</ele>
        <time>2020-11-01T10:51:02Z</time>
      </trkpt>
      <trkpt lat="43.27001" lon="-5.1453333">
        <ele>125.0</ele>
        <time>2020-11-01T10:51:03Z</time>
      </trkpt>
      <trkpt lat="43.270004" lon="-5.145336">
        <ele>125.0</ele>
        <time>2020-11-01T10:51:04Z</time>
      </trkpt>
      <trkpt lat="43.270004" lon="-5.1453395">
        <ele>125.0</ele>
        <time>2020-11-01T10:51:05Z</time>
      </trkpt>
      <trkpt lat="43.26999" lon="-5.1453505">
        <ele>125.0</ele>
        <time>2020-11-01T10:51:07Z</time>
      </trkpt>
      <trkpt lat="43.26999" lon="-5.1453533">
        <ele>125.0</ele>
        <time>2020-11-01T10:51:08Z</time>
      </trkpt>
      <trkpt lat="43.269997" lon="-5.145363">
        <ele>126.0</ele>
        <time>2020-11-01T10:51:09Z</time>
      </trkpt>
      <trkpt lat="43.27" lon="-5.145377">
        <ele>126.0</ele>
        <time>2020-11-01T10:51:10Z</time>
      </trkpt>
      <trkpt lat="43.270004" lon="-5.1453915">
        <ele>126.0</ele>
        <time>2020-11-01T10:51:11Z</time>
      </trkpt>
      <trkpt lat="43.270016" lon="-5.145403">
        <ele>126.0</ele>
        <time>2020-11-01T10:51:12Z</time>
      </trkpt>
      <trkpt lat="43.270027" lon="-5.1454334">
        <ele>126.0</ele>
        <time>2020-11-01T10:51:14Z</time>
      </trkpt>
      <trkpt lat="43.27002" lon="-5.1454344">
        <ele>127.0</ele>
        <time>2020-11-01T10:51:15Z</time>
      </trkpt>
      <trkpt lat="43.270016" lon="-5.145435">
        <ele>127.0</ele>
        <time>2020-11-01T10:51:16Z</time>
      </trkpt>
      <trkpt lat="43.27001" lon="-5.1454344">
        <ele>127.0</ele>
        <time>2020-11-01T10:51:17Z</time>
      </trkpt>
      <trkpt lat="43.270004" lon="-5.1454353">
        <ele>127.0</ele>
        <time>2020-11-01T10:51:18Z</time>
      </trkpt>
      <trkpt lat="43.26999" lon="-5.1454353">
        <ele>127.0</ele>
        <time>2020-11-01T10:51:19Z</time>
      </trkpt>
      <trkpt lat="43.269974" lon="-5.145434">
        <ele>127.0</ele>
        <time>2020-11-01T10:51:20Z</time>
      </trkpt>
      <trkpt lat="43.269966" lon="-5.145435">
        <ele>128.0</ele>
        <time>2020-11-01T10:51:21Z</time>
      </trkpt>
      <trkpt lat="43.26995" lon="-5.1454377">
        <ele>128.0</ele>
        <time>2020-11-01T10:51:22Z</time>
      </trkpt>
      <trkpt lat="43.26994" lon="-5.145442">
        <ele>128.0</ele>
        <time>2020-11-01T10:51:23Z</time>
      </trkpt>
      <trkpt lat="43.269924" lon="-5.145448">
        <ele>128.0</ele>
        <time>2020-11-01T10:51:24Z</time>
      </trkpt>
      <trkpt lat="43.26991" lon="-5.145457">
        <ele>128.0</ele>
        <time>2020-11-01T10:51:25Z</time>
      </trkpt>
      <trkpt lat="43.269905" lon="-5.1454706">
        <ele>128.0</ele>
        <time>2020-11-01T10:51:26Z</time>
      </trkpt>
      <trkpt lat="43.269897" lon="-5.145484">
        <ele>128.0</ele>
        <time>2020-11-01T10:51:27Z</time>
      </trkpt>
      <trkpt lat="43.269897" lon="-5.1454964">
        <ele>128.0</ele>
        <time>2020-11-01T10:51:28Z</time>
      </trkpt>
      <trkpt lat="43.269894" lon="-5.145506">
        <ele>128.0</ele>
        <time>2020-11-01T10:51:29Z</time>
      </trkpt>
      <trkpt lat="43.26989" lon="-5.1455135">
        <ele>128.0</ele>
        <time>2020-11-01T10:51:30Z</time>
      </trkpt>
      <trkpt lat="43.26988" lon="-5.145524">
        <ele>128.0</ele>
        <time>2020-11-01T10:51:31Z</time>
      </trkpt>
      <trkpt lat="43.26987" lon="-5.145538">
        <ele>128.0</ele>
        <time>2020-11-01T10:51:32Z</time>
      </trkpt>
      <trkpt lat="43.269863" lon="-5.145552">
        <ele>128.0</ele>
        <time>2020-11-01T10:51:33Z</time>
      </trkpt>
      <trkpt lat="43.269855" lon="-5.1455646">
        <ele>128.0</ele>
        <time>2020-11-01T10:51:34Z</time>
      </trkpt>
      <trkpt lat="43.26985" lon="-5.145577">
        <ele>128.0</ele>
        <time>2020-11-01T10:51:35Z</time>
      </trkpt>
      <trkpt lat="43.26984" lon="-5.1455884">
        <ele>128.0</ele>
        <time>2020-11-01T10:51:36Z</time>
      </trkpt>
      <trkpt lat="43.269836" lon="-5.1456003">
        <ele>128.0</ele>
        <time>2020-11-01T10:51:37Z</time>
      </trkpt>
      <trkpt lat="43.269833" lon="-5.1456137">
        <ele>128.0</ele>
        <time>2020-11-01T10:51:38Z</time>
      </trkpt>
      <trkpt lat="43.269833" lon="-5.145628">
        <ele>129.0</ele>
        <time>2020-11-01T10:51:39Z</time>
      </trkpt>
      <trkpt lat="43.269833" lon="-5.145642">
        <ele>129.0</ele>
        <time>2020-11-01T10:51:40Z</time>
      </trkpt>
      <trkpt lat="43.269833" lon="-5.145655">
        <ele>129.0</ele>
        <time>2020-11-01T10:51:41Z</time>
      </trkpt>
      <trkpt lat="43.269833" lon="-5.1456685">
        <ele>129.0</ele>
        <time>2020-11-01T10:51:42Z</time>
      </trkpt>
      <trkpt lat="43.269825" lon="-5.1456823">
        <ele>129.0</ele>
        <time>2020-11-01T10:51:43Z</time>
      </trkpt>
      <trkpt lat="43.269825" lon="-5.1456966">
        <ele>129.0</ele>
        <time>2020-11-01T10:51:44Z</time>
      </trkpt>
      <trkpt lat="43.269825" lon="-5.1457148">
        <ele>129.0</ele>
        <time>2020-11-01T10:51:45Z</time>
      </trkpt>
      <trkpt lat="43.269825" lon="-5.145732">
        <ele>129.0</ele>
        <time>2020-11-01T10:51:46Z</time>
      </trkpt>
      <trkpt lat="43.26982" lon="-5.145738">
        <ele>129.0</ele>
        <time>2020-11-01T10:51:47Z</time>
      </trkpt>
      <trkpt lat="43.269817" lon="-5.145743">
        <ele>129.0</ele>
        <time>2020-11-01T10:51:48Z</time>
      </trkpt>
      <trkpt lat="43.269817" lon="-5.1457477">
        <ele>129.0</ele>
        <time>2020-11-01T10:51:49Z</time>
      </trkpt>
      <trkpt lat="43.26981" lon="-5.145768">
        <ele>129.0</ele>
        <time>2020-11-01T10:51:54Z</time>
      </trkpt>
      <trkpt lat="43.269806" lon="-5.1457696">
        <ele>129.0</ele>
        <time>2020-11-01T10:51:55Z</time>
      </trkpt>
      <trkpt lat="43.269806" lon="-5.1457725">
        <ele>129.0</ele>
        <time>2020-11-01T10:51:56Z</time>
      </trkpt>
      <trkpt lat="43.269802" lon="-5.1457953">
        <ele>129.0</ele>
        <time>2020-11-01T10:51:58Z</time>
      </trkpt>
      <trkpt lat="43.269794" lon="-5.1458">
        <ele>129.0</ele>
        <time>2020-11-01T10:52:01Z</time>
      </trkpt>
      <trkpt lat="43.26979" lon="-5.145798">
        <ele>129.0</ele>
        <time>2020-11-01T10:52:03Z</time>
      </trkpt>
      <trkpt lat="43.26979" lon="-5.145805">
        <ele>129.0</ele>
        <time>2020-11-01T10:52:05Z</time>
      </trkpt>
      <trkpt lat="43.26979" lon="-5.1458073">
        <ele>129.0</ele>
        <time>2020-11-01T10:52:06Z</time>
      </trkpt>
      <trkpt lat="43.26979" lon="-5.14581">
        <ele>129.0</ele>
        <time>2020-11-01T10:52:07Z</time>
      </trkpt>
      <trkpt lat="43.269787" lon="-5.145814">
        <ele>129.0</ele>
        <time>2020-11-01T10:52:08Z</time>
      </trkpt>
      <trkpt lat="43.26978" lon="-5.1458187">
        <ele>129.0</ele>
        <time>2020-11-01T10:52:09Z</time>
      </trkpt>
      <trkpt lat="43.26978" lon="-5.1458263">
        <ele>129.0</ele>
        <time>2020-11-01T10:52:10Z</time>
      </trkpt>
      <trkpt lat="43.26979" lon="-5.1458383">
        <ele>129.0</ele>
        <time>2020-11-01T10:52:11Z</time>
      </trkpt>
      <trkpt lat="43.269794" lon="-5.1458507">
        <ele>129.0</ele>
        <time>2020-11-01T10:52:12Z</time>
      </trkpt>
      <trkpt lat="43.269802" lon="-5.14586">
        <ele>129.0</ele>
        <time>2020-11-01T10:52:13Z</time>
      </trkpt>
      <trkpt lat="43.269806" lon="-5.145869">
        <ele>129.0</ele>
        <time>2020-11-01T10:52:14Z</time>
      </trkpt>
      <trkpt lat="43.26981" lon="-5.145876">
        <ele>129.0</ele>
        <time>2020-11-01T10:52:15Z</time>
      </trkpt>
      <trkpt lat="43.269817" lon="-5.1458817">
        <ele>129.0</ele>
        <time>2020-11-01T10:52:16Z</time>
      </trkpt>
      <trkpt lat="43.269825" lon="-5.1458964">
        <ele>129.0</ele>
        <time>2020-11-01T10:52:18Z</time>
      </trkpt>
      <trkpt lat="43.269825" lon="-5.1458974">
        <ele>129.0</ele>
        <time>2020-11-01T10:52:19Z</time>
      </trkpt>
      <trkpt lat="43.269825" lon="-5.1458983">
        <ele>129.0</ele>
        <time>2020-11-01T10:52:20Z</time>
      </trkpt>
      <trkpt lat="43.26982" lon="-5.1459002">
        <ele>129.0</ele>
        <time>2020-11-01T10:52:21Z</time>
      </trkpt>
      <trkpt lat="43.269817" lon="-5.1458964">
        <ele>129.0</ele>
        <time>2020-11-01T10:52:22Z</time>
      </trkpt>
      <trkpt lat="43.26981" lon="-5.14588">
        <ele>129.0</ele>
        <time>2020-11-01T10:52:23Z</time>
      </trkpt>
      <trkpt lat="43.269802" lon="-5.1458635">
        <ele>129.0</ele>
        <time>2020-11-01T10:52:24Z</time>
      </trkpt>
      <trkpt lat="43.26979" lon="-5.1458497">
        <ele>129.0</ele>
        <time>2020-11-01T10:52:25Z</time>
      </trkpt>
      <trkpt lat="43.26978" lon="-5.1458416">
        <ele>129.0</ele>
        <time>2020-11-01T10:52:26Z</time>
      </trkpt>
      <trkpt lat="43.269775" lon="-5.145838">
        <ele>129.0</ele>
        <time>2020-11-01T10:52:27Z</time>
      </trkpt>
      <trkpt lat="43.269764" lon="-5.1458354">
        <ele>129.0</ele>
        <time>2020-11-01T10:52:28Z</time>
      </trkpt>
      <trkpt lat="43.26976" lon="-5.1458344">
        <ele>129.0</ele>
        <time>2020-11-01T10:52:29Z</time>
      </trkpt>
      <trkpt lat="43.26974" lon="-5.145833">
        <ele>129.0</ele>
        <time>2020-11-01T10:52:30Z</time>
      </trkpt>
      <trkpt lat="43.26972" lon="-5.1458306">
        <ele>129.0</ele>
        <time>2020-11-01T10:52:31Z</time>
      </trkpt>
      <trkpt lat="43.2697" lon="-5.1458273">
        <ele>129.0</ele>
        <time>2020-11-01T10:52:32Z</time>
      </trkpt>
      <trkpt lat="43.269672" lon="-5.1458225">
        <ele>129.0</ele>
        <time>2020-11-01T10:52:33Z</time>
      </trkpt>
      <trkpt lat="43.269657" lon="-5.145815">
        <ele>129.0</ele>
        <time>2020-11-01T10:52:34Z</time>
      </trkpt>
      <trkpt lat="43.269638" lon="-5.145805">
        <ele>129.0</ele>
        <time>2020-11-01T10:52:35Z</time>
      </trkpt>
      <trkpt lat="43.269627" lon="-5.145798">
        <ele>129.0</ele>
        <time>2020-11-01T10:52:36Z</time>
      </trkpt>
      <trkpt lat="43.26961" lon="-5.1457934">
        <ele>129.0</ele>
        <time>2020-11-01T10:52:37Z</time>
      </trkpt>
      <trkpt lat="43.269608" lon="-5.1457925">
        <ele>129.0</ele>
        <time>2020-11-01T10:52:38Z</time>
      </trkpt>
      <trkpt lat="43.269596" lon="-5.1457934">
        <ele>129.0</ele>
        <time>2020-11-01T10:52:39Z</time>
      </trkpt>
      <trkpt lat="43.269585" lon="-5.145796">
        <ele>129.0</ele>
        <time>2020-11-01T10:52:39Z</time>
      </trkpt>
      <trkpt lat="43.26958" lon="-5.1457973">
        <ele>129.0</ele>
        <time>2020-11-01T10:52:40Z</time>
      </trkpt>
      <trkpt lat="43.26958" lon="-5.1458025">
        <ele>129.0</ele>
        <time>2020-11-01T10:52:41Z</time>
      </trkpt>
      <trkpt lat="43.269585" lon="-5.1458063">
        <ele>129.0</ele>
        <time>2020-11-01T10:52:42Z</time>
      </trkpt>
      <trkpt lat="43.269585" lon="-5.1458063">
        <ele>129.0</ele>
        <time>2020-11-01T10:52:43Z</time>
      </trkpt>
      <trkpt lat="43.269585" lon="-5.145804">
        <ele>129.0</ele>
        <time>2020-11-01T10:52:44Z</time>
      </trkpt>
      <trkpt lat="43.269585" lon="-5.1457987">
        <ele>129.0</ele>
        <time>2020-11-01T10:52:45Z</time>
      </trkpt>
      <trkpt lat="43.26958" lon="-5.145788">
        <ele>129.0</ele>
        <time>2020-11-01T10:52:46Z</time>
      </trkpt>
      <trkpt lat="43.26958" lon="-5.1457796">
        <ele>129.0</ele>
        <time>2020-11-01T10:52:47Z</time>
      </trkpt>
      <trkpt lat="43.26958" lon="-5.1457705">
        <ele>129.0</ele>
        <time>2020-11-01T10:52:48Z</time>
      </trkpt>
      <trkpt lat="43.26958" lon="-5.1457624">
        <ele>129.0</ele>
        <time>2020-11-01T10:52:49Z</time>
      </trkpt>
      <trkpt lat="43.26958" lon="-5.1457553">
        <ele>129.0</ele>
        <time>2020-11-01T10:52:50Z</time>
      </trkpt>
      <trkpt lat="43.26958" lon="-5.1457524">
        <ele>129.0</ele>
        <time>2020-11-01T10:52:51Z</time>
      </trkpt>
      <trkpt lat="43.269577" lon="-5.1457486">
        <ele>129.0</ele>
        <time>2020-11-01T10:52:52Z</time>
      </trkpt>
      <trkpt lat="43.269577" lon="-5.1457515">
        <ele>129.0</ele>
        <time>2020-11-01T10:52:53Z</time>
      </trkpt>
      <trkpt lat="43.269577" lon="-5.1457562">
        <ele>129.0</ele>
        <time>2020-11-01T10:52:54Z</time>
      </trkpt>
      <trkpt lat="43.26957" lon="-5.1457615">
        <ele>129.0</ele>
        <time>2020-11-01T10:52:55Z</time>
      </trkpt>
      <trkpt lat="43.269566" lon="-5.145765">
        <ele>129.0</ele>
        <time>2020-11-01T10:52:56Z</time>
      </trkpt>
      <trkpt lat="43.26956" lon="-5.145767">
        <ele>129.0</ele>
        <time>2020-11-01T10:52:57Z</time>
      </trkpt>
      <trkpt lat="43.269554" lon="-5.145771">
        <ele>129.0</ele>
        <time>2020-11-01T10:52:58Z</time>
      </trkpt>
      <trkpt lat="43.269554" lon="-5.1457767">
        <ele>129.0</ele>
        <time>2020-11-01T10:52:59Z</time>
      </trkpt>
      <trkpt lat="43.269554" lon="-5.145786">
        <ele>129.0</ele>
        <time>2020-11-01T10:53:00Z</time>
      </trkpt>
      <trkpt lat="43.269554" lon="-5.145795">
        <ele>129.0</ele>
        <time>2020-11-01T10:53:01Z</time>
      </trkpt>
      <trkpt lat="43.26955" lon="-5.145803">
        <ele>129.0</ele>
        <time>2020-11-01T10:53:02Z</time>
      </trkpt>
      <trkpt lat="43.26955" lon="-5.1458125">
        <ele>129.0</ele>
        <time>2020-11-01T10:53:03Z</time>
      </trkpt>
      <trkpt lat="43.26955" lon="-5.1458197">
        <ele>129.0</ele>
        <time>2020-11-01T10:53:04Z</time>
      </trkpt>
      <trkpt lat="43.26954" lon="-5.1458273">
        <ele>129.0</ele>
        <time>2020-11-01T10:53:05Z</time>
      </trkpt>
      <trkpt lat="43.269535" lon="-5.1458344">
        <ele>129.0</ele>
        <time>2020-11-01T10:53:06Z</time>
      </trkpt>
      <trkpt lat="43.269524" lon="-5.145843">
        <ele>129.0</ele>
        <time>2020-11-01T10:53:07Z</time>
      </trkpt>
      <trkpt lat="43.269516" lon="-5.1458507">
        <ele>129.0</ele>
        <time>2020-11-01T10:53:08Z</time>
      </trkpt>
      <trkpt lat="43.269505" lon="-5.145856">
        <ele>129.0</ele>
        <time>2020-11-01T10:53:09Z</time>
      </trkpt>
      <trkpt lat="43.269493" lon="-5.145858">
        <ele>129.0</ele>
        <time>2020-11-01T10:53:10Z</time>
      </trkpt>
      <trkpt lat="43.269478" lon="-5.1458564">
        <ele>129.0</ele>
        <time>2020-11-01T10:53:11Z</time>
      </trkpt>
      <trkpt lat="43.269466" lon="-5.1458545">
        <ele>129.0</ele>
        <time>2020-11-01T10:53:12Z</time>
      </trkpt>
      <trkpt lat="43.269463" lon="-5.145857">
        <ele>129.0</ele>
        <time>2020-11-01T10:53:13Z</time>
      </trkpt>
      <trkpt lat="43.269463" lon="-5.1458607">
        <ele>129.0</ele>
        <time>2020-11-01T10:53:14Z</time>
      </trkpt>
      <trkpt lat="43.269463" lon="-5.145871">
        <ele>129.0</ele>
        <time>2020-11-01T10:53:15Z</time>
      </trkpt>
      <trkpt lat="43.269447" lon="-5.145847">
        <ele>129.0</ele>
        <time>2020-11-01T10:53:22Z</time>
      </trkpt>
      <trkpt lat="43.269447" lon="-5.1458473">
        <ele>129.0</ele>
        <time>2020-11-01T10:53:23Z</time>
      </trkpt>
      <trkpt lat="43.269447" lon="-5.14585">
        <ele>129.0</ele>
        <time>2020-11-01T10:53:24Z</time>
      </trkpt>
      <trkpt lat="43.26945" lon="-5.1458783">
        <ele>129.0</ele>
        <time>2020-11-01T10:53:26Z</time>
      </trkpt>
      <trkpt lat="43.26946" lon="-5.1458826">
        <ele>129.0</ele>
        <time>2020-11-01T10:53:27Z</time>
      </trkpt>
      <trkpt lat="43.26946" lon="-5.1458907">
        <ele>129.0</ele>
        <time>2020-11-01T10:53:28Z</time>
      </trkpt>
      <trkpt lat="43.269463" lon="-5.1458983">
        <ele>129.0</ele>
        <time>2020-11-01T10:53:29Z</time>
      </trkpt>
      <trkpt lat="43.269466" lon="-5.145907">
        <ele>129.0</ele>
        <time>2020-11-01T10:53:30Z</time>
      </trkpt>
      <trkpt lat="43.269474" lon="-5.145915">
        <ele>129.0</ele>
        <time>2020-11-01T10:53:31Z</time>
      </trkpt>
      <trkpt lat="43.269478" lon="-5.145925">
        <ele>129.0</ele>
        <time>2020-11-01T10:53:32Z</time>
      </trkpt>
      <trkpt lat="43.269478" lon="-5.1459355">
        <ele>129.0</ele>
        <time>2020-11-01T10:53:33Z</time>
      </trkpt>
      <trkpt lat="43.269474" lon="-5.145947">
        <ele>129.0</ele>
        <time>2020-11-01T10:53:34Z</time>
      </trkpt>
      <trkpt lat="43.269466" lon="-5.1459575">
        <ele>129.0</ele>
        <time>2020-11-01T10:53:35Z</time>
      </trkpt>
      <trkpt lat="43.269466" lon="-5.1459765">
        <ele>129.0</ele>
        <time>2020-11-01T10:53:36Z</time>
      </trkpt>
      <trkpt lat="43.269466" lon="-5.1459966">
        <ele>132.0</ele>
        <time>2020-11-01T10:53:37Z</time>
      </trkpt>
      <trkpt lat="43.269474" lon="-5.1460166">
        <ele>132.0</ele>
        <time>2020-11-01T10:53:38Z</time>
      </trkpt>
      <trkpt lat="43.269478" lon="-5.1460385">
        <ele>132.0</ele>
        <time>2020-11-01T10:53:39Z</time>
      </trkpt>
      <trkpt lat="43.26949" lon="-5.146061">
        <ele>132.0</ele>
        <time>2020-11-01T10:53:40Z</time>
      </trkpt>
      <trkpt lat="43.2695" lon="-5.1460843">
        <ele>132.0</ele>
        <time>2020-11-01T10:53:41Z</time>
      </trkpt>
      <trkpt lat="43.269516" lon="-5.146104">
        <ele>132.0</ele>
        <time>2020-11-01T10:53:42Z</time>
      </trkpt>
      <trkpt lat="43.269524" lon="-5.14612">
        <ele>132.0</ele>
        <time>2020-11-01T10:53:43Z</time>
      </trkpt>
      <trkpt lat="43.269524" lon="-5.1461396">
        <ele>132.0</ele>
        <time>2020-11-01T10:53:46Z</time>
      </trkpt>
      <trkpt lat="43.269524" lon="-5.1461406">
        <ele>132.0</ele>
        <time>2020-11-01T10:53:47Z</time>
      </trkpt>
      <trkpt lat="43.269524" lon="-5.1461415">
        <ele>132.0</ele>
        <time>2020-11-01T10:53:48Z</time>
      </trkpt>
      <trkpt lat="43.269524" lon="-5.1461463">
        <ele>132.0</ele>
        <time>2020-11-01T10:53:49Z</time>
      </trkpt>
      <trkpt lat="43.26953" lon="-5.1461554">
        <ele>132.0</ele>
        <time>2020-11-01T10:53:50Z</time>
      </trkpt>
      <trkpt lat="43.26953" lon="-5.1461673">
        <ele>132.0</ele>
        <time>2020-11-01T10:53:51Z</time>
      </trkpt>
      <trkpt lat="43.269535" lon="-5.146176">
        <ele>132.0</ele>
        <time>2020-11-01T10:53:52Z</time>
      </trkpt>
      <trkpt lat="43.26954" lon="-5.1461797">
        <ele>132.0</ele>
        <time>2020-11-01T10:53:53Z</time>
      </trkpt>
      <trkpt lat="43.269547" lon="-5.1461825">
        <ele>132.0</ele>
        <time>2020-11-01T10:53:54Z</time>
      </trkpt>
      <trkpt lat="43.26955" lon="-5.146188">
        <ele>132.0</ele>
        <time>2020-11-01T10:53:55Z</time>
      </trkpt>
      <trkpt lat="43.269554" lon="-5.14619">
        <ele>132.0</ele>
        <time>2020-11-01T10:53:56Z</time>
      </trkpt>
      <trkpt lat="43.26957" lon="-5.1461935">
        <ele>132.0</ele>
        <time>2020-11-01T10:53:58Z</time>
      </trkpt>
      <trkpt lat="43.26957" lon="-5.146192">
        <ele>132.0</ele>
        <time>2020-11-01T10:53:59Z</time>
      </trkpt>
      <trkpt lat="43.26957" lon="-5.1461935">
        <ele>132.0</ele>
        <time>2020-11-01T10:54:00Z</time>
      </trkpt>
      <trkpt lat="43.269566" lon="-5.1461797">
        <ele>132.0</ele>
        <time>2020-11-01T10:54:01Z</time>
      </trkpt>
      <trkpt lat="43.26953" lon="-5.146108">
        <ele>132.0</ele>
        <time>2020-11-01T10:54:03Z</time>
      </trkpt>
      <trkpt lat="43.26953" lon="-5.146104">
        <ele>132.0</ele>
        <time>2020-11-01T10:54:04Z</time>
      </trkpt>
      <trkpt lat="43.269524" lon="-5.146099">
        <ele>132.0</ele>
        <time>2020-11-01T10:54:05Z</time>
      </trkpt>
      <trkpt lat="43.26952" lon="-5.1460896">
        <ele>132.0</ele>
        <time>2020-11-01T10:54:06Z</time>
      </trkpt>
      <trkpt lat="43.269516" lon="-5.146075">
        <ele>132.0</ele>
        <time>2020-11-01T10:54:07Z</time>
      </trkpt>
      <trkpt lat="43.269516" lon="-5.1460605">
        <ele>132.0</ele>
        <time>2020-11-01T10:54:08Z</time>
      </trkpt>
      <trkpt lat="43.269516" lon="-5.1460543">
        <ele>132.0</ele>
        <time>2020-11-01T10:54:09Z</time>
      </trkpt>
      <trkpt lat="43.269524" lon="-5.146052">
        <ele>132.0</ele>
        <time>2020-11-01T10:54:10Z</time>
      </trkpt>
      <trkpt lat="43.269535" lon="-5.1460495">
        <ele>132.0</ele>
        <time>2020-11-01T10:54:11Z</time>
      </trkpt>
      <trkpt lat="43.26954" lon="-5.146045">
        <ele>132.0</ele>
        <time>2020-11-01T10:54:12Z</time>
      </trkpt>
      <trkpt lat="43.26954" lon="-5.1460404">
        <ele>132.0</ele>
        <time>2020-11-01T10:54:13Z</time>
      </trkpt>
      <trkpt lat="43.26954" lon="-5.1460433">
        <ele>132.0</ele>
        <time>2020-11-01T10:54:14Z</time>
      </trkpt>
      <trkpt lat="43.26954" lon="-5.1460557">
        <ele>132.0</ele>
        <time>2020-11-01T10:54:15Z</time>
      </trkpt>
      <trkpt lat="43.26954" lon="-5.146061">
        <ele>132.0</ele>
        <time>2020-11-01T10:54:16Z</time>
      </trkpt>
      <trkpt lat="43.26954" lon="-5.1460657">
        <ele>132.0</ele>
        <time>2020-11-01T10:54:17Z</time>
      </trkpt>
      <trkpt lat="43.26954" lon="-5.146069">
        <ele>132.0</ele>
        <time>2020-11-01T10:54:18Z</time>
      </trkpt>
      <trkpt lat="43.26954" lon="-5.1460733">
        <ele>132.0</ele>
        <time>2020-11-01T10:54:19Z</time>
      </trkpt>
      <trkpt lat="43.269535" lon="-5.1460767">
        <ele>132.0</ele>
        <time>2020-11-01T10:54:20Z</time>
      </trkpt>
      <trkpt lat="43.269535" lon="-5.146077">
        <ele>132.0</ele>
        <time>2020-11-01T10:54:21Z</time>
      </trkpt>
      <trkpt lat="43.269524" lon="-5.146071">
        <ele>132.0</ele>
        <time>2020-11-01T10:54:22Z</time>
      </trkpt>
      <trkpt lat="43.269516" lon="-5.146062">
        <ele>132.0</ele>
        <time>2020-11-01T10:54:23Z</time>
      </trkpt>
      <trkpt lat="43.26951" lon="-5.146056">
        <ele>132.0</ele>
        <time>2020-11-01T10:54:24Z</time>
      </trkpt>
      <trkpt lat="43.2695" lon="-5.146052">
        <ele>132.0</ele>
        <time>2020-11-01T10:54:25Z</time>
      </trkpt>
      <trkpt lat="43.26948" lon="-5.146046">
        <ele>132.0</ele>
        <time>2020-11-01T10:54:28Z</time>
      </trkpt>
      <trkpt lat="43.26948" lon="-5.1460476">
        <ele>132.0</ele>
        <time>2020-11-01T10:54:29Z</time>
      </trkpt>
      <trkpt lat="43.26948" lon="-5.1460485">
        <ele>132.0</ele>
        <time>2020-11-01T10:54:30Z</time>
      </trkpt>
      <trkpt lat="43.269478" lon="-5.146049">
        <ele>132.0</ele>
        <time>2020-11-01T10:54:31Z</time>
      </trkpt>
      <trkpt lat="43.269474" lon="-5.1460495">
        <ele>132.0</ele>
        <time>2020-11-01T10:54:32Z</time>
      </trkpt>
      <trkpt lat="43.26946" lon="-5.1460414">
        <ele>132.0</ele>
        <time>2020-11-01T10:54:36Z</time>
      </trkpt>
      <trkpt lat="43.26945" lon="-5.146042">
        <ele>132.0</ele>
        <time>2020-11-01T10:54:37Z</time>
      </trkpt>
      <trkpt lat="43.26945" lon="-5.1460333">
        <ele>132.0</ele>
        <time>2020-11-01T10:54:41Z</time>
      </trkpt>
      <trkpt lat="43.26945" lon="-5.1460323">
        <ele>132.0</ele>
        <time>2020-11-01T10:54:42Z</time>
      </trkpt>
      <trkpt lat="43.26945" lon="-5.146033">
        <ele>132.0</ele>
        <time>2020-11-01T10:54:43Z</time>
      </trkpt>
      <trkpt lat="43.26945" lon="-5.1460333">
        <ele>132.0</ele>
        <time>2020-11-01T10:54:44Z</time>
      </trkpt>
      <trkpt lat="43.26946" lon="-5.1460342">
        <ele>132.0</ele>
        <time>2020-11-01T10:54:45Z</time>
      </trkpt>
      <trkpt lat="43.269463" lon="-5.1460357">
        <ele>132.0</ele>
        <time>2020-11-01T10:54:46Z</time>
      </trkpt>
      <trkpt lat="43.269466" lon="-5.1460414">
        <ele>132.0</ele>
        <time>2020-11-01T10:54:48Z</time>
      </trkpt>
      <trkpt lat="43.269463" lon="-5.1460414">
        <ele>132.0</ele>
        <time>2020-11-01T10:54:49Z</time>
      </trkpt>
      <trkpt lat="43.26945" lon="-5.1460404">
        <ele>132.0</ele>
        <time>2020-11-01T10:54:50Z</time>
      </trkpt>
      <trkpt lat="43.269444" lon="-5.146037">
        <ele>132.0</ele>
        <time>2020-11-01T10:54:51Z</time>
      </trkpt>
      <trkpt lat="43.269432" lon="-5.1460342">
        <ele>132.0</ele>
        <time>2020-11-01T10:54:52Z</time>
      </trkpt>
      <trkpt lat="43.269405" lon="-5.146028">
        <ele>132.0</ele>
        <time>2020-11-01T10:54:54Z</time>
      </trkpt>
      <trkpt lat="43.2694" lon="-5.1460304">
        <ele>132.0</ele>
        <time>2020-11-01T10:54:55Z</time>
      </trkpt>
      <trkpt lat="43.2694" lon="-5.146035">
        <ele>132.0</ele>
        <time>2020-11-01T10:54:56Z</time>
      </trkpt>
      <trkpt lat="43.269398" lon="-5.1460457">
        <ele>132.0</ele>
        <time>2020-11-01T10:54:57Z</time>
      </trkpt>
      <trkpt lat="43.269398" lon="-5.146059">
        <ele>132.0</ele>
        <time>2020-11-01T10:54:58Z</time>
      </trkpt>
      <trkpt lat="43.26939" lon="-5.146074">
        <ele>132.0</ele>
        <time>2020-11-01T10:54:59Z</time>
      </trkpt>
      <trkpt lat="43.26939" lon="-5.146088">
        <ele>132.0</ele>
        <time>2020-11-01T10:55:00Z</time>
      </trkpt>
      <trkpt lat="43.269386" lon="-5.1461034">
        <ele>132.0</ele>
        <time>2020-11-01T10:55:01Z</time>
      </trkpt>
      <trkpt lat="43.269386" lon="-5.146119">
        <ele>132.0</ele>
        <time>2020-11-01T10:55:02Z</time>
      </trkpt>
      <trkpt lat="43.269386" lon="-5.146134">
        <ele>132.0</ele>
        <time>2020-11-01T10:55:03Z</time>
      </trkpt>
      <trkpt lat="43.269386" lon="-5.146145">
        <ele>132.0</ele>
        <time>2020-11-01T10:55:04Z</time>
      </trkpt>
      <trkpt lat="43.269386" lon="-5.146146">
        <ele>132.0</ele>
        <time>2020-11-01T10:55:05Z</time>
      </trkpt>
      <trkpt lat="43.269386" lon="-5.1461425">
        <ele>132.0</ele>
        <time>2020-11-01T10:55:06Z</time>
      </trkpt>
      <trkpt lat="43.269386" lon="-5.146132">
        <ele>132.0</ele>
        <time>2020-11-01T10:55:07Z</time>
      </trkpt>
      <trkpt lat="43.269386" lon="-5.1461296">
        <ele>132.0</ele>
        <time>2020-11-01T10:55:08Z</time>
      </trkpt>
      <trkpt lat="43.269382" lon="-5.1461225">
        <ele>132.0</ele>
        <time>2020-11-01T10:55:09Z</time>
      </trkpt>
      <trkpt lat="43.269375" lon="-5.146113">
        <ele>132.0</ele>
        <time>2020-11-01T10:55:10Z</time>
      </trkpt>
      <trkpt lat="43.269367" lon="-5.1461034">
        <ele>132.0</ele>
        <time>2020-11-01T10:55:11Z</time>
      </trkpt>
      <trkpt lat="43.26936" lon="-5.146088">
        <ele>132.0</ele>
        <time>2020-11-01T10:55:13Z</time>
      </trkpt>
      <trkpt lat="43.26936" lon="-5.146087">
        <ele>132.0</ele>
        <time>2020-11-01T10:55:14Z</time>
      </trkpt>
      <trkpt lat="43.26936" lon="-5.146086">
        <ele>132.0</ele>
        <time>2020-11-01T10:55:15Z</time>
      </trkpt>
      <trkpt lat="43.26936" lon="-5.1460886">
        <ele>132.0</ele>
        <time>2020-11-01T10:55:16Z</time>
      </trkpt>
      <trkpt lat="43.269356" lon="-5.146091">
        <ele>132.0</ele>
        <time>2020-11-01T10:55:17Z</time>
      </trkpt>
      <trkpt lat="43.269352" lon="-5.146091">
        <ele>132.0</ele>
        <time>2020-11-01T10:55:18Z</time>
      </trkpt>
      <trkpt lat="43.269344" lon="-5.14609">
        <ele>132.0</ele>
        <time>2020-11-01T10:55:19Z</time>
      </trkpt>
      <trkpt lat="43.26934" lon="-5.1460853">
        <ele>132.0</ele>
        <time>2020-11-01T10:55:20Z</time>
      </trkpt>
      <trkpt lat="43.26933" lon="-5.1460757">
        <ele>132.0</ele>
        <time>2020-11-01T10:55:21Z</time>
      </trkpt>
      <trkpt lat="43.269325" lon="-5.1460733">
        <ele>132.0</ele>
        <time>2020-11-01T10:55:22Z</time>
      </trkpt>
      <trkpt lat="43.26932" lon="-5.146072">
        <ele>132.0</ele>
        <time>2020-11-01T10:55:23Z</time>
      </trkpt>
      <trkpt lat="43.269314" lon="-5.1460705">
        <ele>132.0</ele>
        <time>2020-11-01T10:55:24Z</time>
      </trkpt>
      <trkpt lat="43.269306" lon="-5.1460676">
        <ele>132.0</ele>
        <time>2020-11-01T10:55:25Z</time>
      </trkpt>
      <trkpt lat="43.2693" lon="-5.1460648">
        <ele>132.0</ele>
        <time>2020-11-01T10:55:26Z</time>
      </trkpt>
      <trkpt lat="43.269295" lon="-5.1460633">
        <ele>132.0</ele>
        <time>2020-11-01T10:55:27Z</time>
      </trkpt>
      <trkpt lat="43.269295" lon="-5.146063">
        <ele>132.0</ele>
        <time>2020-11-01T10:55:28Z</time>
      </trkpt>
      <trkpt lat="43.2693" lon="-5.1460624">
        <ele>132.0</ele>
        <time>2020-11-01T10:55:29Z</time>
      </trkpt>
      <trkpt lat="43.2693" lon="-5.1460676">
        <ele>132.0</ele>
        <time>2020-11-01T10:55:30Z</time>
      </trkpt>
      <trkpt lat="43.269306" lon="-5.1460724">
        <ele>132.0</ele>
        <time>2020-11-01T10:55:31Z</time>
      </trkpt>
      <trkpt lat="43.26931" lon="-5.146088">
        <ele>132.0</ele>
        <time>2020-11-01T10:55:33Z</time>
      </trkpt>
      <trkpt lat="43.26931" lon="-5.146089">
        <ele>132.0</ele>
        <time>2020-11-01T10:55:34Z</time>
      </trkpt>
      <trkpt lat="43.26931" lon="-5.1460915">
        <ele>132.0</ele>
        <time>2020-11-01T10:55:35Z</time>
      </trkpt>
      <trkpt lat="43.26931" lon="-5.1460953">
        <ele>132.0</ele>
        <time>2020-11-01T10:55:36Z</time>
      </trkpt>
      <trkpt lat="43.26931" lon="-5.146103">
        <ele>132.0</ele>
        <time>2020-11-01T10:55:37Z</time>
      </trkpt>
      <trkpt lat="43.269306" lon="-5.1461196">
        <ele>132.0</ele>
        <time>2020-11-01T10:55:39Z</time>
      </trkpt>
      <trkpt lat="43.2693" lon="-5.146121">
        <ele>132.0</ele>
        <time>2020-11-01T10:55:40Z</time>
      </trkpt>
      <trkpt lat="43.269287" lon="-5.1461225">
        <ele>132.0</ele>
        <time>2020-11-01T10:55:41Z</time>
      </trkpt>
      <trkpt lat="43.26927" lon="-5.14613">
        <ele>132.0</ele>
        <time>2020-11-01T10:55:45Z</time>
      </trkpt>
      <trkpt lat="43.26927" lon="-5.146131">
        <ele>132.0</ele>
        <time>2020-11-01T10:55:46Z</time>
      </trkpt>
      <trkpt lat="43.26927" lon="-5.146118">
        <ele>132.0</ele>
        <time>2020-11-01T10:55:48Z</time>
      </trkpt>
      <trkpt lat="43.26927" lon="-5.146117">
        <ele>132.0</ele>
        <time>2020-11-01T10:55:49Z</time>
      </trkpt>
      <trkpt lat="43.269268" lon="-5.146116">
        <ele>132.0</ele>
        <time>2020-11-01T10:55:50Z</time>
      </trkpt>
      <trkpt lat="43.269268" lon="-5.1461167">
        <ele>132.0</ele>
        <time>2020-11-01T10:55:51Z</time>
      </trkpt>
      <trkpt lat="43.269268" lon="-5.1461215">
        <ele>132.0</ele>
        <time>2020-11-01T10:55:52Z</time>
      </trkpt>
      <trkpt lat="43.26927" lon="-5.1461234">
        <ele>132.0</ele>
        <time>2020-11-01T10:55:53Z</time>
      </trkpt>
      <trkpt lat="43.26927" lon="-5.1461267">
        <ele>132.0</ele>
        <time>2020-11-01T10:55:54Z</time>
      </trkpt>
      <trkpt lat="43.26928" lon="-5.146129">
        <ele>132.0</ele>
        <time>2020-11-01T10:55:55Z</time>
      </trkpt>
      <trkpt lat="43.269295" lon="-5.146145">
        <ele>132.0</ele>
        <time>2020-11-01T10:55:58Z</time>
      </trkpt>
      <trkpt lat="43.269295" lon="-5.1461463">
        <ele>132.0</ele>
        <time>2020-11-01T10:55:59Z</time>
      </trkpt>
      <trkpt lat="43.269295" lon="-5.14615">
        <ele>132.0</ele>
        <time>2020-11-01T10:56:00Z</time>
      </trkpt>
      <trkpt lat="43.2693" lon="-5.146153">
        <ele>132.0</ele>
        <time>2020-11-01T10:56:01Z</time>
      </trkpt>
      <trkpt lat="43.269306" lon="-5.146156">
        <ele>132.0</ele>
        <time>2020-11-01T10:56:02Z</time>
      </trkpt>
      <trkpt lat="43.269306" lon="-5.1461573">
        <ele>132.0</ele>
        <time>2020-11-01T10:56:03Z</time>
      </trkpt>
      <trkpt lat="43.26931" lon="-5.1461587">
        <ele>132.0</ele>
        <time>2020-11-01T10:56:04Z</time>
      </trkpt>
      <trkpt lat="43.269314" lon="-5.1461616">
        <ele>132.0</ele>
        <time>2020-11-01T10:56:05Z</time>
      </trkpt>
      <trkpt lat="43.269314" lon="-5.146166">
        <ele>132.0</ele>
        <time>2020-11-01T10:56:06Z</time>
      </trkpt>
      <trkpt lat="43.26932" lon="-5.146173">
        <ele>132.0</ele>
        <time>2020-11-01T10:56:07Z</time>
      </trkpt>
      <trkpt lat="43.26932" lon="-5.1461797">
        <ele>132.0</ele>
        <time>2020-11-01T10:56:08Z</time>
      </trkpt>
      <trkpt lat="43.269325" lon="-5.1461916">
        <ele>132.0</ele>
        <time>2020-11-01T10:56:09Z</time>
      </trkpt>
      <trkpt lat="43.26932" lon="-5.1462035">
        <ele>132.0</ele>
        <time>2020-11-01T10:56:10Z</time>
      </trkpt>
      <trkpt lat="43.26931" lon="-5.1462216">
        <ele>132.0</ele>
        <time>2020-11-01T10:56:11Z</time>
      </trkpt>
      <trkpt lat="43.2693" lon="-5.146235">
        <ele>132.0</ele>
        <time>2020-11-01T10:56:12Z</time>
      </trkpt>
      <trkpt lat="43.269295" lon="-5.146245">
        <ele>132.0</ele>
        <time>2020-11-01T10:56:13Z</time>
      </trkpt>
      <trkpt lat="43.269283" lon="-5.146242">
        <ele>132.0</ele>
        <time>2020-11-01T10:56:14Z</time>
      </trkpt>
      <trkpt lat="43.26927" lon="-5.146234">
        <ele>132.0</ele>
        <time>2020-11-01T10:56:15Z</time>
      </trkpt>
      <trkpt lat="43.269264" lon="-5.146223">
        <ele>132.0</ele>
        <time>2020-11-01T10:56:16Z</time>
      </trkpt>
      <trkpt lat="43.269264" lon="-5.146213">
        <ele>132.0</ele>
        <time>2020-11-01T10:56:17Z</time>
      </trkpt>
      <trkpt lat="43.269268" lon="-5.1461964">
        <ele>132.0</ele>
        <time>2020-11-01T10:56:20Z</time>
      </trkpt>
      <trkpt lat="43.269264" lon="-5.1461997">
        <ele>132.0</ele>
        <time>2020-11-01T10:56:23Z</time>
      </trkpt>
      <trkpt lat="43.269264" lon="-5.146204">
        <ele>132.0</ele>
        <time>2020-11-01T10:56:24Z</time>
      </trkpt>
      <trkpt lat="43.269264" lon="-5.1462135">
        <ele>132.0</ele>
        <time>2020-11-01T10:56:25Z</time>
      </trkpt>
      <trkpt lat="43.269264" lon="-5.1462274">
        <ele>132.0</ele>
        <time>2020-11-01T10:56:26Z</time>
      </trkpt>
      <trkpt lat="43.269264" lon="-5.146241">
        <ele>132.0</ele>
        <time>2020-11-01T10:56:27Z</time>
      </trkpt>
      <trkpt lat="43.269264" lon="-5.146253">
        <ele>132.0</ele>
        <time>2020-11-01T10:56:28Z</time>
      </trkpt>
      <trkpt lat="43.269264" lon="-5.146263">
        <ele>132.0</ele>
        <time>2020-11-01T10:56:29Z</time>
      </trkpt>
      <trkpt lat="43.269257" lon="-5.146269">
        <ele>132.0</ele>
        <time>2020-11-01T10:56:30Z</time>
      </trkpt>
      <trkpt lat="43.26925" lon="-5.146271">
        <ele>132.0</ele>
        <time>2020-11-01T10:56:31Z</time>
      </trkpt>
      <trkpt lat="43.26924" lon="-5.1462736">
        <ele>132.0</ele>
        <time>2020-11-01T10:56:32Z</time>
      </trkpt>
      <trkpt lat="43.269234" lon="-5.1462746">
        <ele>132.0</ele>
        <time>2020-11-01T10:56:33Z</time>
      </trkpt>
      <trkpt lat="43.269226" lon="-5.146276">
        <ele>132.0</ele>
        <time>2020-11-01T10:56:34Z</time>
      </trkpt>
      <trkpt lat="43.269222" lon="-5.146279">
        <ele>132.0</ele>
        <time>2020-11-01T10:56:35Z</time>
      </trkpt>
      <trkpt lat="43.26922" lon="-5.1462812">
        <ele>132.0</ele>
        <time>2020-11-01T10:56:36Z</time>
      </trkpt>
      <trkpt lat="43.26922" lon="-5.1462836">
        <ele>132.0</ele>
        <time>2020-11-01T10:56:37Z</time>
      </trkpt>
      <trkpt lat="43.26921" lon="-5.1462774">
        <ele>132.0</ele>
        <time>2020-11-01T10:56:38Z</time>
      </trkpt>
      <trkpt lat="43.269207" lon="-5.146269">
        <ele>132.0</ele>
        <time>2020-11-01T10:56:39Z</time>
      </trkpt>
      <trkpt lat="43.269196" lon="-5.146263">
        <ele>132.0</ele>
        <time>2020-11-01T10:56:40Z</time>
      </trkpt>
      <trkpt lat="43.26919" lon="-5.1462574">
        <ele>132.0</ele>
        <time>2020-11-01T10:56:41Z</time>
      </trkpt>
      <trkpt lat="43.269176" lon="-5.1462517">
        <ele>132.0</ele>
        <time>2020-11-01T10:56:42Z</time>
      </trkpt>
      <trkpt lat="43.269165" lon="-5.1462455">
        <ele>132.0</ele>
        <time>2020-11-01T10:56:43Z</time>
      </trkpt>
      <trkpt lat="43.26915" lon="-5.1462398">
        <ele>140.0</ele>
        <time>2020-11-01T10:56:44Z</time>
      </trkpt>
      <trkpt lat="43.269146" lon="-5.1462407">
        <ele>140.0</ele>
        <time>2020-11-01T10:56:45Z</time>
      </trkpt>
      <trkpt lat="43.269146" lon="-5.1462464">
        <ele>140.0</ele>
        <time>2020-11-01T10:56:46Z</time>
      </trkpt>
      <trkpt lat="43.269142" lon="-5.1462526">
        <ele>140.0</ele>
        <time>2020-11-01T10:56:47Z</time>
      </trkpt>
      <trkpt lat="43.269135" lon="-5.146258">
        <ele>140.0</ele>
        <time>2020-11-01T10:56:49Z</time>
      </trkpt>
      <trkpt lat="43.269135" lon="-5.1462584">
        <ele>140.0</ele>
        <time>2020-11-01T10:56:50Z</time>
      </trkpt>
      <trkpt lat="43.26913" lon="-5.146259">
        <ele>140.0</ele>
        <time>2020-11-01T10:56:51Z</time>
      </trkpt>
      <trkpt lat="43.26913" lon="-5.1462574">
        <ele>141.0</ele>
        <time>2020-11-01T10:56:52Z</time>
      </trkpt>
      <trkpt lat="43.269127" lon="-5.146255">
        <ele>141.0</ele>
        <time>2020-11-01T10:56:53Z</time>
      </trkpt>
      <trkpt lat="43.26912" lon="-5.1462526">
        <ele>141.0</ele>
        <time>2020-11-01T10:56:54Z</time>
      </trkpt>
      <trkpt lat="43.26912" lon="-5.1462474">
        <ele>141.0</ele>
        <time>2020-11-01T10:56:54Z</time>
      </trkpt>
      <trkpt lat="43.269115" lon="-5.146248">
        <ele>141.0</ele>
        <time>2020-11-01T10:56:55Z</time>
      </trkpt>
      <trkpt lat="43.269115" lon="-5.1462502">
        <ele>141.0</ele>
        <time>2020-11-01T10:56:56Z</time>
      </trkpt>
      <trkpt lat="43.26911" lon="-5.1462536">
        <ele>142.0</ele>
        <time>2020-11-01T10:56:57Z</time>
      </trkpt>
      <trkpt lat="43.269104" lon="-5.1462555">
        <ele>142.0</ele>
        <time>2020-11-01T10:56:58Z</time>
      </trkpt>
      <trkpt lat="43.2691" lon="-5.1462574">
        <ele>142.0</ele>
        <time>2020-11-01T10:56:59Z</time>
      </trkpt>
      <trkpt lat="43.269093" lon="-5.146261">
        <ele>142.0</ele>
        <time>2020-11-01T10:57:00Z</time>
      </trkpt>
      <trkpt lat="43.269093" lon="-5.1462646">
        <ele>142.0</ele>
        <time>2020-11-01T10:57:01Z</time>
      </trkpt>
      <trkpt lat="43.26909" lon="-5.146265">
        <ele>143.0</ele>
        <time>2020-11-01T10:57:02Z</time>
      </trkpt>
      <trkpt lat="43.269085" lon="-5.1462626">
        <ele>143.0</ele>
        <time>2020-11-01T10:57:03Z</time>
      </trkpt>
      <trkpt lat="43.269085" lon="-5.1462655">
        <ele>143.0</ele>
        <time>2020-11-01T10:57:04Z</time>
      </trkpt>
      <trkpt lat="43.269077" lon="-5.1462684">
        <ele>143.0</ele>
        <time>2020-11-01T10:57:05Z</time>
      </trkpt>
      <trkpt lat="43.269073" lon="-5.1462765">
        <ele>143.0</ele>
        <time>2020-11-01T10:57:06Z</time>
      </trkpt>
      <trkpt lat="43.269073" lon="-5.14629">
        <ele>143.0</ele>
        <time>2020-11-01T10:57:07Z</time>
      </trkpt>
      <trkpt lat="43.26907" lon="-5.146304">
        <ele>143.0</ele>
        <time>2020-11-01T10:57:08Z</time>
      </trkpt>
      <trkpt lat="43.269062" lon="-5.146316">
        <ele>143.0</ele>
        <time>2020-11-01T10:57:09Z</time>
      </trkpt>
      <trkpt lat="43.269062" lon="-5.1463366">
        <ele>143.0</ele>
        <time>2020-11-01T10:57:10Z</time>
      </trkpt>
      <trkpt lat="43.26906" lon="-5.146353">
        <ele>143.0</ele>
        <time>2020-11-01T10:57:11Z</time>
      </trkpt>
      <trkpt lat="43.269047" lon="-5.1463656">
        <ele>143.0</ele>
        <time>2020-11-01T10:57:12Z</time>
      </trkpt>
      <trkpt lat="43.269043" lon="-5.1463766">
        <ele>143.0</ele>
        <time>2020-11-01T10:57:13Z</time>
      </trkpt>
      <trkpt lat="43.26903" lon="-5.1463866">
        <ele>144.0</ele>
        <time>2020-11-01T10:57:14Z</time>
      </trkpt>
      <trkpt lat="43.269028" lon="-5.1463947">
        <ele>144.0</ele>
        <time>2020-11-01T10:57:15Z</time>
      </trkpt>
      <trkpt lat="43.269028" lon="-5.1464014">
        <ele>144.0</ele>
        <time>2020-11-01T10:57:16Z</time>
      </trkpt>
      <trkpt lat="43.269024" lon="-5.1464086">
        <ele>144.0</ele>
        <time>2020-11-01T10:57:17Z</time>
      </trkpt>
      <trkpt lat="43.269024" lon="-5.1464167">
        <ele>144.0</ele>
        <time>2020-11-01T10:57:18Z</time>
      </trkpt>
      <trkpt lat="43.269016" lon="-5.146425">
        <ele>144.0</ele>
        <time>2020-11-01T10:57:19Z</time>
      </trkpt>
      <trkpt lat="43.269016" lon="-5.1464314">
        <ele>145.0</ele>
        <time>2020-11-01T10:57:20Z</time>
      </trkpt>
      <trkpt lat="43.269012" lon="-5.146425">
        <ele>145.0</ele>
        <time>2020-11-01T10:57:21Z</time>
      </trkpt>
      <trkpt lat="43.269" lon="-5.1464143">
        <ele>145.0</ele>
        <time>2020-11-01T10:57:22Z</time>
      </trkpt>
      <trkpt lat="43.268997" lon="-5.146405">
        <ele>145.0</ele>
        <time>2020-11-01T10:57:23Z</time>
      </trkpt>
      <trkpt lat="43.268986" lon="-5.1463957">
        <ele>145.0</ele>
        <time>2020-11-01T10:57:24Z</time>
      </trkpt>
      <trkpt lat="43.26898" lon="-5.1463904">
        <ele>145.0</ele>
        <time>2020-11-01T10:57:25Z</time>
      </trkpt>
      <trkpt lat="43.268967" lon="-5.146386">
        <ele>146.0</ele>
        <time>2020-11-01T10:57:27Z</time>
      </trkpt>
      <trkpt lat="43.268967" lon="-5.146389">
        <ele>146.0</ele>
        <time>2020-11-01T10:57:28Z</time>
      </trkpt>
      <trkpt lat="43.268967" lon="-5.1463923">
        <ele>146.0</ele>
        <time>2020-11-01T10:57:29Z</time>
      </trkpt>
      <trkpt lat="43.268967" lon="-5.146394">
        <ele>146.0</ele>
        <time>2020-11-01T10:57:30Z</time>
      </trkpt>
      <trkpt lat="43.268967" lon="-5.1463957">
        <ele>146.0</ele>
        <time>2020-11-01T10:57:31Z</time>
      </trkpt>
      <trkpt lat="43.268963" lon="-5.1463943">
        <ele>146.0</ele>
        <time>2020-11-01T10:57:32Z</time>
      </trkpt>
      <trkpt lat="43.268963" lon="-5.146391">
        <ele>147.0</ele>
        <time>2020-11-01T10:57:33Z</time>
      </trkpt>
      <trkpt lat="43.268955" lon="-5.1463857">
        <ele>147.0</ele>
        <time>2020-11-01T10:57:34Z</time>
      </trkpt>
      <trkpt lat="43.26895" lon="-5.146381">
        <ele>147.0</ele>
        <time>2020-11-01T10:57:35Z</time>
      </trkpt>
      <trkpt lat="43.26895" lon="-5.146368">
        <ele>147.0</ele>
        <time>2020-11-01T10:57:37Z</time>
      </trkpt>
      <trkpt lat="43.26895" lon="-5.146363">
        <ele>147.0</ele>
        <time>2020-11-01T10:57:38Z</time>
      </trkpt>
      <trkpt lat="43.268955" lon="-5.146355">
        <ele>148.0</ele>
        <time>2020-11-01T10:57:39Z</time>
      </trkpt>
      <trkpt lat="43.268963" lon="-5.1463466">
        <ele>148.0</ele>
        <time>2020-11-01T10:57:40Z</time>
      </trkpt>
      <trkpt lat="43.268967" lon="-5.146341">
        <ele>148.0</ele>
        <time>2020-11-01T10:57:41Z</time>
      </trkpt>
      <trkpt lat="43.268967" lon="-5.146335">
        <ele>148.0</ele>
        <time>2020-11-01T10:57:42Z</time>
      </trkpt>
      <trkpt lat="43.26897" lon="-5.1463304">
        <ele>148.0</ele>
        <time>2020-11-01T10:57:43Z</time>
      </trkpt>
      <trkpt lat="43.26898" lon="-5.146325">
        <ele>149.0</ele>
        <time>2020-11-01T10:57:44Z</time>
      </trkpt>
      <trkpt lat="43.268982" lon="-5.1463194">
        <ele>149.0</ele>
        <time>2020-11-01T10:57:45Z</time>
      </trkpt>
      <trkpt lat="43.268986" lon="-5.1463113">
        <ele>149.0</ele>
        <time>2020-11-01T10:57:46Z</time>
      </trkpt>
      <trkpt lat="43.268993" lon="-5.1463013">
        <ele>149.0</ele>
        <time>2020-11-01T10:57:47Z</time>
      </trkpt>
      <trkpt lat="43.268997" lon="-5.1462827">
        <ele>149.0</ele>
        <time>2020-11-01T10:57:48Z</time>
      </trkpt>
      <trkpt lat="43.269" lon="-5.1462626">
        <ele>149.0</ele>
        <time>2020-11-01T10:57:49Z</time>
      </trkpt>
      <trkpt lat="43.269" lon="-5.146243">
        <ele>149.0</ele>
        <time>2020-11-01T10:57:50Z</time>
      </trkpt>
      <trkpt lat="43.269" lon="-5.14623">
        <ele>149.0</ele>
        <time>2020-11-01T10:57:51Z</time>
      </trkpt>
      <trkpt lat="43.268993" lon="-5.1462293">
        <ele>149.0</ele>
        <time>2020-11-01T10:57:52Z</time>
      </trkpt>
      <trkpt lat="43.268993" lon="-5.146229">
        <ele>149.0</ele>
        <time>2020-11-01T10:57:53Z</time>
      </trkpt>
      <trkpt lat="43.268993" lon="-5.1462226">
        <ele>149.0</ele>
        <time>2020-11-01T10:57:54Z</time>
      </trkpt>
      <trkpt lat="43.268997" lon="-5.1462126">
        <ele>149.0</ele>
        <time>2020-11-01T10:57:55Z</time>
      </trkpt>
      <trkpt lat="43.26901" lon="-5.1462035">
        <ele>149.0</ele>
        <time>2020-11-01T10:57:56Z</time>
      </trkpt>
      <trkpt lat="43.269012" lon="-5.146198">
        <ele>149.0</ele>
        <time>2020-11-01T10:57:57Z</time>
      </trkpt>
      <trkpt lat="43.269024" lon="-5.146199">
        <ele>149.0</ele>
        <time>2020-11-01T10:57:58Z</time>
      </trkpt>
      <trkpt lat="43.269028" lon="-5.146204">
        <ele>149.0</ele>
        <time>2020-11-01T10:57:59Z</time>
      </trkpt>
      <trkpt lat="43.26904" lon="-5.146206">
        <ele>149.0</ele>
        <time>2020-11-01T10:58:00Z</time>
      </trkpt>
      <trkpt lat="43.269047" lon="-5.146208">
        <ele>149.0</ele>
        <time>2020-11-01T10:58:01Z</time>
      </trkpt>
      <trkpt lat="43.26906" lon="-5.1462097">
        <ele>149.0</ele>
        <time>2020-11-01T10:58:02Z</time>
      </trkpt>
      <trkpt lat="43.269062" lon="-5.1462126">
        <ele>149.0</ele>
        <time>2020-11-01T10:58:03Z</time>
      </trkpt>
      <trkpt lat="43.269062" lon="-5.146216">
        <ele>149.0</ele>
        <time>2020-11-01T10:58:04Z</time>
      </trkpt>
      <trkpt lat="43.26906" lon="-5.146218">
        <ele>149.0</ele>
        <time>2020-11-01T10:58:05Z</time>
      </trkpt>
      <trkpt lat="43.269054" lon="-5.146218">
        <ele>149.0</ele>
        <time>2020-11-01T10:58:06Z</time>
      </trkpt>
      <trkpt lat="43.269047" lon="-5.146215">
        <ele>149.0</ele>
        <time>2020-11-01T10:58:07Z</time>
      </trkpt>
      <trkpt lat="43.269047" lon="-5.1462145">
        <ele>149.0</ele>
        <time>2020-11-01T10:58:08Z</time>
      </trkpt>
      <trkpt lat="43.269047" lon="-5.146217">
        <ele>149.0</ele>
        <time>2020-11-01T10:58:09Z</time>
      </trkpt>
      <trkpt lat="43.269047" lon="-5.1462207">
        <ele>149.0</ele>
        <time>2020-11-01T10:58:10Z</time>
      </trkpt>
      <trkpt lat="43.269043" lon="-5.14622">
        <ele>149.0</ele>
        <time>2020-11-01T10:58:11Z</time>
      </trkpt>
      <trkpt lat="43.26904" lon="-5.1462193">
        <ele>149.0</ele>
        <time>2020-11-01T10:58:12Z</time>
      </trkpt>
      <trkpt lat="43.26903" lon="-5.1462135">
        <ele>149.0</ele>
        <time>2020-11-01T10:58:13Z</time>
      </trkpt>
      <trkpt lat="43.26903" lon="-5.146207">
        <ele>149.0</ele>
        <time>2020-11-01T10:58:14Z</time>
      </trkpt>
      <trkpt lat="43.26903" lon="-5.1462007">
        <ele>149.0</ele>
        <time>2020-11-01T10:58:15Z</time>
      </trkpt>
      <trkpt lat="43.26903" lon="-5.1461916">
        <ele>149.0</ele>
        <time>2020-11-01T10:58:16Z</time>
      </trkpt>
      <trkpt lat="43.269028" lon="-5.146194">
        <ele>149.0</ele>
        <time>2020-11-01T10:58:17Z</time>
      </trkpt>
      <trkpt lat="43.269012" lon="-5.1461163">
        <ele>149.0</ele>
        <time>2020-11-01T10:58:19Z</time>
      </trkpt>
      <trkpt lat="43.26901" lon="-5.146112">
        <ele>149.0</ele>
        <time>2020-11-01T10:58:20Z</time>
      </trkpt>
      <trkpt lat="43.268993" lon="-5.1461167">
        <ele>149.0</ele>
        <time>2020-11-01T10:58:21Z</time>
      </trkpt>
      <trkpt lat="43.268967" lon="-5.1461306">
        <ele>149.0</ele>
        <time>2020-11-01T10:58:22Z</time>
      </trkpt>
      <trkpt lat="43.26895" lon="-5.1461396">
        <ele>149.0</ele>
        <time>2020-11-01T10:58:23Z</time>
      </trkpt>
      <trkpt lat="43.268936" lon="-5.1461525">
        <ele>149.0</ele>
        <time>2020-11-01T10:58:24Z</time>
      </trkpt>
      <trkpt lat="43.268925" lon="-5.1461616">
        <ele>149.0</ele>
        <time>2020-11-01T10:58:25Z</time>
      </trkpt>
      <trkpt lat="43.26805" lon="-5.1462483">
        <ele>216.0</ele>
        <time>2020-11-01T11:00:53Z</time>
      </trkpt>
      <trkpt lat="43.26898" lon="-5.14631">
        <ele>216.0</ele>
        <time>2020-11-01T11:00:56Z</time>
      </trkpt>
      <trkpt lat="43.268997" lon="-5.146322">
        <ele>216.0</ele>
        <time>2020-11-01T11:00:57Z</time>
      </trkpt>
      <trkpt lat="43.269054" lon="-5.1462884">
        <ele>216.0</ele>
        <time>2020-11-01T11:01:07Z</time>
      </trkpt>
      <trkpt lat="43.26906" lon="-5.146287">
        <ele>216.0</ele>
        <time>2020-11-01T11:01:07Z</time>
      </trkpt>
      <trkpt lat="43.26909" lon="-5.1462846">
        <ele>216.0</ele>
        <time>2020-11-01T11:01:08Z</time>
      </trkpt>
      <trkpt lat="43.269444" lon="-5.146273">
        <ele>216.0</ele>
        <time>2020-11-01T11:01:11Z</time>
      </trkpt>
      <trkpt lat="43.26945" lon="-5.146272">
        <ele>216.0</ele>
        <time>2020-11-01T11:01:12Z</time>
      </trkpt>
      <trkpt lat="43.269142" lon="-5.146277">
        <ele>216.0</ele>
        <time>2020-11-01T11:01:15Z</time>
      </trkpt>
      <trkpt lat="43.26913" lon="-5.146276">
        <ele>216.0</ele>
        <time>2020-11-01T11:01:16Z</time>
      </trkpt>
      <trkpt lat="43.269104" lon="-5.1462736">
        <ele>216.0</ele>
        <time>2020-11-01T11:01:17Z</time>
      </trkpt>
      <trkpt lat="43.269062" lon="-5.1462703">
        <ele>216.0</ele>
        <time>2020-11-01T11:01:18Z</time>
      </trkpt>
      <trkpt lat="43.26904" lon="-5.146515">
        <ele>217.0</ele>
        <time>2020-11-01T11:01:21Z</time>
      </trkpt>
      <trkpt lat="43.269028" lon="-5.14652">
        <ele>217.0</ele>
        <time>2020-11-01T11:01:22Z</time>
      </trkpt>
      <trkpt lat="43.26901" lon="-5.1465244">
        <ele>217.0</ele>
        <time>2020-11-01T11:01:23Z</time>
      </trkpt>
      <trkpt lat="43.26898" lon="-5.1465144">
        <ele>217.0</ele>
        <time>2020-11-01T11:01:24Z</time>
      </trkpt>
      <trkpt lat="43.268955" lon="-5.1465096">
        <ele>217.0</ele>
        <time>2020-11-01T11:01:26Z</time>
      </trkpt>
      <trkpt lat="43.26895" lon="-5.1465087">
        <ele>217.0</ele>
        <time>2020-11-01T11:01:26Z</time>
      </trkpt>
      <trkpt lat="43.26895" lon="-5.146507">
        <ele>217.0</ele>
        <time>2020-11-01T11:01:27Z</time>
      </trkpt>
      <trkpt lat="43.268948" lon="-5.1465006">
        <ele>217.0</ele>
        <time>2020-11-01T11:01:28Z</time>
      </trkpt>
      <trkpt lat="43.26894" lon="-5.146497">
        <ele>217.0</ele>
        <time>2020-11-01T11:01:29Z</time>
      </trkpt>
      <trkpt lat="43.268936" lon="-5.1465044">
        <ele>217.0</ele>
        <time>2020-11-01T11:01:30Z</time>
      </trkpt>
      <trkpt lat="43.268932" lon="-5.1465173">
        <ele>217.0</ele>
        <time>2020-11-01T11:01:31Z</time>
      </trkpt>
      <trkpt lat="43.268932" lon="-5.146532">
        <ele>217.0</ele>
        <time>2020-11-01T11:01:32Z</time>
      </trkpt>
      <trkpt lat="43.268932" lon="-5.1465473">
        <ele>217.0</ele>
        <time>2020-11-01T11:01:34Z</time>
      </trkpt>
      <trkpt lat="43.268936" lon="-5.1465654">
        <ele>217.0</ele>
        <time>2020-11-01T11:01:34Z</time>
      </trkpt>
      <trkpt lat="43.26894" lon="-5.1465816">
        <ele>217.0</ele>
        <time>2020-11-01T11:01:35Z</time>
      </trkpt>
      <trkpt lat="43.26894" lon="-5.1465945">
        <ele>217.0</ele>
        <time>2020-11-01T11:01:36Z</time>
      </trkpt>
      <trkpt lat="43.268948" lon="-5.146607">
        <ele>217.0</ele>
        <time>2020-11-01T11:01:37Z</time>
      </trkpt>
      <trkpt lat="43.268955" lon="-5.1466193">
        <ele>217.0</ele>
        <time>2020-11-01T11:01:38Z</time>
      </trkpt>
      <trkpt lat="43.268967" lon="-5.1466346">
        <ele>217.0</ele>
        <time>2020-11-01T11:01:39Z</time>
      </trkpt>
      <trkpt lat="43.268963" lon="-5.146644">
        <ele>217.0</ele>
        <time>2020-11-01T11:01:40Z</time>
      </trkpt>
      <trkpt lat="43.268955" lon="-5.14665">
        <ele>217.0</ele>
        <time>2020-11-01T11:01:41Z</time>
      </trkpt>
      <trkpt lat="43.268948" lon="-5.1466584">
        <ele>217.0</ele>
        <time>2020-11-01T11:01:42Z</time>
      </trkpt>
      <trkpt lat="43.268936" lon="-5.1466727">
        <ele>217.0</ele>
        <time>2020-11-01T11:01:43Z</time>
      </trkpt>
      <trkpt lat="43.268932" lon="-5.1466885">
        <ele>217.0</ele>
        <time>2020-11-01T11:01:44Z</time>
      </trkpt>
      <trkpt lat="43.268925" lon="-5.1467">
        <ele>218.0</ele>
        <time>2020-11-01T11:01:45Z</time>
      </trkpt>
      <trkpt lat="43.268925" lon="-5.1467147">
        <ele>218.0</ele>
        <time>2020-11-01T11:01:46Z</time>
      </trkpt>
      <trkpt lat="43.268925" lon="-5.1467323">
        <ele>218.0</ele>
        <time>2020-11-01T11:01:47Z</time>
      </trkpt>
      <trkpt lat="43.268925" lon="-5.1467457">
        <ele>218.0</ele>
        <time>2020-11-01T11:01:48Z</time>
      </trkpt>
      <trkpt lat="43.268925" lon="-5.146754">
        <ele>218.0</ele>
        <time>2020-11-01T11:01:49Z</time>
      </trkpt>
      <trkpt lat="43.268925" lon="-5.146762">
        <ele>218.0</ele>
        <time>2020-11-01T11:01:50Z</time>
      </trkpt>
      <trkpt lat="43.268925" lon="-5.1467724">
        <ele>219.0</ele>
        <time>2020-11-01T11:01:51Z</time>
      </trkpt>
      <trkpt lat="43.268925" lon="-5.146784">
        <ele>219.0</ele>
        <time>2020-11-01T11:01:52Z</time>
      </trkpt>
      <trkpt lat="43.268925" lon="-5.1468067">
        <ele>219.0</ele>
        <time>2020-11-01T11:01:54Z</time>
      </trkpt>
      <trkpt lat="43.268925" lon="-5.1468086">
        <ele>219.0</ele>
        <time>2020-11-01T11:01:55Z</time>
      </trkpt>
      <trkpt lat="43.268932" lon="-5.146811">
        <ele>219.0</ele>
        <time>2020-11-01T11:01:56Z</time>
      </trkpt>
      <trkpt lat="43.268932" lon="-5.146813">
        <ele>219.0</ele>
        <time>2020-11-01T11:01:58Z</time>
      </trkpt>
      <trkpt lat="43.268936" lon="-5.146816">
        <ele>219.0</ele>
        <time>2020-11-01T11:01:58Z</time>
      </trkpt>
      <trkpt lat="43.268936" lon="-5.1468153">
        <ele>219.0</ele>
        <time>2020-11-01T11:01:59Z</time>
      </trkpt>
      <trkpt lat="43.268936" lon="-5.146814">
        <ele>219.0</ele>
        <time>2020-11-01T11:02:00Z</time>
      </trkpt>
      <trkpt lat="43.268936" lon="-5.146812">
        <ele>219.0</ele>
        <time>2020-11-01T11:02:01Z</time>
      </trkpt>
      <trkpt lat="43.268932" lon="-5.146808">
        <ele>219.0</ele>
        <time>2020-11-01T11:02:02Z</time>
      </trkpt>
      <trkpt lat="43.26892" lon="-5.146801">
        <ele>219.0</ele>
        <time>2020-11-01T11:02:03Z</time>
      </trkpt>
      <trkpt lat="43.26888" lon="-5.1467934">
        <ele>219.0</ele>
        <time>2020-11-01T11:02:04Z</time>
      </trkpt>
      <trkpt lat="43.268837" lon="-5.146787">
        <ele>219.0</ele>
        <time>2020-11-01T11:02:05Z</time>
      </trkpt>
      <trkpt lat="43.26862" lon="-5.1467533">
        <ele>219.0</ele>
        <time>2020-11-01T11:02:08Z</time>
      </trkpt>
      <trkpt lat="43.268574" lon="-5.1467648">
        <ele>219.0</ele>
        <time>2020-11-01T11:02:10Z</time>
      </trkpt>
      <trkpt lat="43.268593" lon="-5.1467648">
        <ele>219.0</ele>
        <time>2020-11-01T11:02:11Z</time>
      </trkpt>
      <trkpt lat="43.268623" lon="-5.146767">
        <ele>219.0</ele>
        <time>2020-11-01T11:02:12Z</time>
      </trkpt>
      <trkpt lat="43.26865" lon="-5.1467733">
        <ele>219.0</ele>
        <time>2020-11-01T11:02:13Z</time>
      </trkpt>
      <trkpt lat="43.268673" lon="-5.1467805">
        <ele>219.0</ele>
        <time>2020-11-01T11:02:15Z</time>
      </trkpt>
      <trkpt lat="43.268684" lon="-5.1467776">
        <ele>219.0</ele>
        <time>2020-11-01T11:02:15Z</time>
      </trkpt>
      <trkpt lat="43.268673" lon="-5.1467643">
        <ele>219.0</ele>
        <time>2020-11-01T11:02:16Z</time>
      </trkpt>
      <trkpt lat="43.268665" lon="-5.146749">
        <ele>219.0</ele>
        <time>2020-11-01T11:02:17Z</time>
      </trkpt>
      <trkpt lat="43.268654" lon="-5.146737">
        <ele>219.0</ele>
        <time>2020-11-01T11:02:18Z</time>
      </trkpt>
      <trkpt lat="43.268658" lon="-5.14673">
        <ele>219.0</ele>
        <time>2020-11-01T11:02:19Z</time>
      </trkpt>
      <trkpt lat="43.268665" lon="-5.1467257">
        <ele>219.0</ele>
        <time>2020-11-01T11:02:20Z</time>
      </trkpt>
      <trkpt lat="43.26868" lon="-5.1467285">
        <ele>219.0</ele>
        <time>2020-11-01T11:02:21Z</time>
      </trkpt>
      <trkpt lat="43.26869" lon="-5.146734">
        <ele>219.0</ele>
        <time>2020-11-01T11:02:22Z</time>
      </trkpt>
      <trkpt lat="43.2687" lon="-5.146739">
        <ele>219.0</ele>
        <time>2020-11-01T11:02:24Z</time>
      </trkpt>
      <trkpt lat="43.268703" lon="-5.1467423">
        <ele>219.0</ele>
        <time>2020-11-01T11:02:24Z</time>
      </trkpt>
      <trkpt lat="43.268703" lon="-5.146743">
        <ele>219.0</ele>
        <time>2020-11-01T11:02:25Z</time>
      </trkpt>
      <trkpt lat="43.26871" lon="-5.1467433">
        <ele>219.0</ele>
        <time>2020-11-01T11:02:27Z</time>
      </trkpt>
      <trkpt lat="43.268715" lon="-5.1467443">
        <ele>219.0</ele>
        <time>2020-11-01T11:02:28Z</time>
      </trkpt>
      <trkpt lat="43.268715" lon="-5.146749">
        <ele>219.0</ele>
        <time>2020-11-01T11:02:29Z</time>
      </trkpt>
      <trkpt lat="43.268723" lon="-5.146757">
        <ele>219.0</ele>
        <time>2020-11-01T11:02:30Z</time>
      </trkpt>
      <trkpt lat="43.268723" lon="-5.1467667">
        <ele>219.0</ele>
        <time>2020-11-01T11:02:31Z</time>
      </trkpt>
      <trkpt lat="43.268723" lon="-5.1468034">
        <ele>219.0</ele>
        <time>2020-11-01T11:02:33Z</time>
      </trkpt>
      <trkpt lat="43.268723" lon="-5.1468043">
        <ele>219.0</ele>
        <time>2020-11-01T11:02:34Z</time>
      </trkpt>
      <trkpt lat="43.268723" lon="-5.1468086">
        <ele>219.0</ele>
        <time>2020-11-01T11:02:35Z</time>
      </trkpt>
      <trkpt lat="43.268715" lon="-5.146811">
        <ele>219.0</ele>
        <time>2020-11-01T11:02:36Z</time>
      </trkpt>
      <trkpt lat="43.268703" lon="-5.1468096">
        <ele>221.0</ele>
        <time>2020-11-01T11:02:37Z</time>
      </trkpt>
      <trkpt lat="43.2687" lon="-5.146807">
        <ele>221.0</ele>
        <time>2020-11-01T11:02:38Z</time>
      </trkpt>
      <trkpt lat="43.268684" lon="-5.1468034">
        <ele>221.0</ele>
        <time>2020-11-01T11:02:39Z</time>
      </trkpt>
      <trkpt lat="43.26867" lon="-5.1467967">
        <ele>221.0</ele>
        <time>2020-11-01T11:02:40Z</time>
      </trkpt>
      <trkpt lat="43.268658" lon="-5.1467915">
        <ele>221.0</ele>
        <time>2020-11-01T11:02:41Z</time>
      </trkpt>
      <trkpt lat="43.26865" lon="-5.1467915">
        <ele>221.0</ele>
        <time>2020-11-01T11:02:42Z</time>
      </trkpt>
      <trkpt lat="43.268642" lon="-5.1467905">
        <ele>221.0</ele>
        <time>2020-11-01T11:02:43Z</time>
      </trkpt>
      <trkpt lat="43.26864" lon="-5.146786">
        <ele>221.0</ele>
        <time>2020-11-01T11:02:44Z</time>
      </trkpt>
      <trkpt lat="43.268623" lon="-5.1467733">
        <ele>221.0</ele>
        <time>2020-11-01T11:02:45Z</time>
      </trkpt>
      <trkpt lat="43.26861" lon="-5.1467605">
        <ele>221.0</ele>
        <time>2020-11-01T11:02:46Z</time>
      </trkpt>
      <trkpt lat="43.268597" lon="-5.146749">
        <ele>221.0</ele>
        <time>2020-11-01T11:02:47Z</time>
      </trkpt>
      <trkpt lat="43.268593" lon="-5.1467247">
        <ele>221.0</ele>
        <time>2020-11-01T11:02:49Z</time>
      </trkpt>
      <trkpt lat="43.268593" lon="-5.146725">
        <ele>221.0</ele>
        <time>2020-11-01T11:02:50Z</time>
      </trkpt>
      <trkpt lat="43.268597" lon="-5.1467237">
        <ele>221.0</ele>
        <time>2020-11-01T11:02:51Z</time>
      </trkpt>
      <trkpt lat="43.268604" lon="-5.146724">
        <ele>221.0</ele>
        <time>2020-11-01T11:02:52Z</time>
      </trkpt>
      <trkpt lat="43.268612" lon="-5.1467237">
        <ele>221.0</ele>
        <time>2020-11-01T11:02:53Z</time>
      </trkpt>
      <trkpt lat="43.268612" lon="-5.1467204">
        <ele>221.0</ele>
        <time>2020-11-01T11:02:55Z</time>
      </trkpt>
      <trkpt lat="43.268612" lon="-5.146715">
        <ele>221.0</ele>
        <time>2020-11-01T11:02:55Z</time>
      </trkpt>
      <trkpt lat="43.26861" lon="-5.1467075">
        <ele>222.0</ele>
        <time>2020-11-01T11:02:56Z</time>
      </trkpt>
      <trkpt lat="43.268604" lon="-5.1466994">
        <ele>222.0</ele>
        <time>2020-11-01T11:02:57Z</time>
      </trkpt>
      <trkpt lat="43.268604" lon="-5.1466947">
        <ele>222.0</ele>
        <time>2020-11-01T11:02:58Z</time>
      </trkpt>
      <trkpt lat="43.268604" lon="-5.1466904">
        <ele>222.0</ele>
        <time>2020-11-01T11:02:59Z</time>
      </trkpt>
      <trkpt lat="43.26861" lon="-5.146684">
        <ele>222.0</ele>
        <time>2020-11-01T11:03:01Z</time>
      </trkpt>
      <trkpt lat="43.268612" lon="-5.1466837">
        <ele>222.0</ele>
        <time>2020-11-01T11:03:01Z</time>
      </trkpt>
      <trkpt lat="43.26862" lon="-5.1466885">
        <ele>222.0</ele>
        <time>2020-11-01T11:03:02Z</time>
      </trkpt>
      <trkpt lat="43.268623" lon="-5.146697">
        <ele>223.0</ele>
        <time>2020-11-01T11:03:03Z</time>
      </trkpt>
      <trkpt lat="43.268635" lon="-5.146705">
        <ele>223.0</ele>
        <time>2020-11-01T11:03:04Z</time>
      </trkpt>
      <trkpt lat="43.268654" lon="-5.1467266">
        <ele>223.0</ele>
        <time>2020-11-01T11:03:07Z</time>
      </trkpt>
      <trkpt lat="43.268654" lon="-5.1467304">
        <ele>223.0</ele>
        <time>2020-11-01T11:03:08Z</time>
      </trkpt>
      <trkpt lat="43.268654" lon="-5.1467304">
        <ele>223.0</ele>
        <time>2020-11-01T11:03:09Z</time>
      </trkpt>
      <trkpt lat="43.268658" lon="-5.1467323">
        <ele>223.0</ele>
        <time>2020-11-01T11:03:11Z</time>
      </trkpt>
      <trkpt lat="43.268658" lon="-5.146734">
        <ele>223.0</ele>
        <time>2020-11-01T11:03:11Z</time>
      </trkpt>
      <trkpt lat="43.268658" lon="-5.1467366">
        <ele>223.0</ele>
        <time>2020-11-01T11:03:12Z</time>
      </trkpt>
      <trkpt lat="43.268665" lon="-5.146739">
        <ele>223.0</ele>
        <time>2020-11-01T11:03:13Z</time>
      </trkpt>
      <trkpt lat="43.26867" lon="-5.146744">
        <ele>223.0</ele>
        <time>2020-11-01T11:03:14Z</time>
      </trkpt>
      <trkpt lat="43.26868" lon="-5.146751">
        <ele>223.0</ele>
        <time>2020-11-01T11:03:15Z</time>
      </trkpt>
      <trkpt lat="43.268684" lon="-5.1467576">
        <ele>223.0</ele>
        <time>2020-11-01T11:03:16Z</time>
      </trkpt>
      <trkpt lat="43.268684" lon="-5.146762">
        <ele>223.0</ele>
        <time>2020-11-01T11:03:17Z</time>
      </trkpt>
      <trkpt lat="43.26868" lon="-5.1467648">
        <ele>223.0</ele>
        <time>2020-11-01T11:03:18Z</time>
      </trkpt>
      <trkpt lat="43.26867" lon="-5.1467786">
        <ele>224.0</ele>
        <time>2020-11-01T11:03:19Z</time>
      </trkpt>
      <trkpt lat="43.268658" lon="-5.1467896">
        <ele>224.0</ele>
        <time>2020-11-01T11:03:20Z</time>
      </trkpt>
      <trkpt lat="43.268654" lon="-5.1468005">
        <ele>224.0</ele>
        <time>2020-11-01T11:03:21Z</time>
      </trkpt>
      <trkpt lat="43.268642" lon="-5.146809">
        <ele>224.0</ele>
        <time>2020-11-01T11:03:22Z</time>
      </trkpt>
      <trkpt lat="43.26864" lon="-5.1468167">
        <ele>224.0</ele>
        <time>2020-11-01T11:03:23Z</time>
      </trkpt>
      <trkpt lat="43.268635" lon="-5.146826">
        <ele>224.0</ele>
        <time>2020-11-01T11:03:24Z</time>
      </trkpt>
      <trkpt lat="43.268635" lon="-5.1468353">
        <ele>224.0</ele>
        <time>2020-11-01T11:03:25Z</time>
      </trkpt>
      <trkpt lat="43.268627" lon="-5.146838">
        <ele>224.0</ele>
        <time>2020-11-01T11:03:26Z</time>
      </trkpt>
      <trkpt lat="43.268623" lon="-5.1468344">
        <ele>224.0</ele>
        <time>2020-11-01T11:03:27Z</time>
      </trkpt>
      <trkpt lat="43.268623" lon="-5.146825">
        <ele>224.0</ele>
        <time>2020-11-01T11:03:28Z</time>
      </trkpt>
      <trkpt lat="43.26862" lon="-5.14681">
        <ele>224.0</ele>
        <time>2020-11-01T11:03:29Z</time>
      </trkpt>
      <trkpt lat="43.268612" lon="-5.146792">
        <ele>224.0</ele>
        <time>2020-11-01T11:03:30Z</time>
      </trkpt>
      <trkpt lat="43.268604" lon="-5.14677">
        <ele>224.0</ele>
        <time>2020-11-01T11:03:31Z</time>
      </trkpt>
      <trkpt lat="43.268593" lon="-5.146749">
        <ele>224.0</ele>
        <time>2020-11-01T11:03:32Z</time>
      </trkpt>
      <trkpt lat="43.26859" lon="-5.1467314">
        <ele>224.0</ele>
        <time>2020-11-01T11:03:33Z</time>
      </trkpt>
      <trkpt lat="43.26858" lon="-5.14672">
        <ele>225.0</ele>
        <time>2020-11-01T11:03:34Z</time>
      </trkpt>
      <trkpt lat="43.26858" lon="-5.146713">
        <ele>225.0</ele>
        <time>2020-11-01T11:03:36Z</time>
      </trkpt>
      <trkpt lat="43.268578" lon="-5.146706">
        <ele>225.0</ele>
        <time>2020-11-01T11:03:36Z</time>
      </trkpt>
      <trkpt lat="43.26858" lon="-5.146705">
        <ele>225.0</ele>
        <time>2020-11-01T11:03:37Z</time>
      </trkpt>
      <trkpt lat="43.268578" lon="-5.1467032">
        <ele>225.0</ele>
        <time>2020-11-01T11:03:38Z</time>
      </trkpt>
      <trkpt lat="43.268578" lon="-5.1466994">
        <ele>225.0</ele>
        <time>2020-11-01T11:03:39Z</time>
      </trkpt>
      <trkpt lat="43.268574" lon="-5.1466913">
        <ele>226.0</ele>
        <time>2020-11-01T11:03:40Z</time>
      </trkpt>
      <trkpt lat="43.268566" lon="-5.14668">
        <ele>226.0</ele>
        <time>2020-11-01T11:03:41Z</time>
      </trkpt>
      <trkpt lat="43.268562" lon="-5.146675">
        <ele>226.0</ele>
        <time>2020-11-01T11:03:42Z</time>
      </trkpt>
      <trkpt lat="43.26856" lon="-5.146673">
        <ele>226.0</ele>
        <time>2020-11-01T11:03:43Z</time>
      </trkpt>
      <trkpt lat="43.26856" lon="-5.146669">
        <ele>227.0</ele>
        <time>2020-11-01T11:03:44Z</time>
      </trkpt>
      <trkpt lat="43.26855" lon="-5.1466646">
        <ele>227.0</ele>
        <time>2020-11-01T11:03:45Z</time>
      </trkpt>
      <trkpt lat="43.26855" lon="-5.1466637">
        <ele>227.0</ele>
        <time>2020-11-01T11:03:46Z</time>
      </trkpt>
      <trkpt lat="43.26855" lon="-5.146665">
        <ele>227.0</ele>
        <time>2020-11-01T11:03:47Z</time>
      </trkpt>
      <trkpt lat="43.26855" lon="-5.1466737">
        <ele>227.0</ele>
        <time>2020-11-01T11:03:48Z</time>
      </trkpt>
      <trkpt lat="43.26855" lon="-5.1466827">
        <ele>228.0</ele>
        <time>2020-11-01T11:03:49Z</time>
      </trkpt>
      <trkpt lat="43.26855" lon="-5.1466894">
        <ele>228.0</ele>
        <time>2020-11-01T11:03:50Z</time>
      </trkpt>
      <trkpt lat="43.26855" lon="-5.1466923">
        <ele>228.0</ele>
        <time>2020-11-01T11:03:51Z</time>
      </trkpt>
      <trkpt lat="43.26855" lon="-5.146692">
        <ele>228.0</ele>
        <time>2020-11-01T11:03:52Z</time>
      </trkpt>
      <trkpt lat="43.26855" lon="-5.1466947">
        <ele>228.0</ele>
        <time>2020-11-01T11:03:53Z</time>
      </trkpt>
      <trkpt lat="43.26855" lon="-5.1466985">
        <ele>228.0</ele>
        <time>2020-11-01T11:03:54Z</time>
      </trkpt>
      <trkpt lat="43.26856" lon="-5.1467056">
        <ele>229.0</ele>
        <time>2020-11-01T11:03:55Z</time>
      </trkpt>
      <trkpt lat="43.268562" lon="-5.1467185">
        <ele>229.0</ele>
        <time>2020-11-01T11:03:56Z</time>
      </trkpt>
      <trkpt lat="43.268562" lon="-5.146733">
        <ele>229.0</ele>
        <time>2020-11-01T11:03:57Z</time>
      </trkpt>
      <trkpt lat="43.268574" lon="-5.146748">
        <ele>229.0</ele>
        <time>2020-11-01T11:03:58Z</time>
      </trkpt>
      <trkpt lat="43.268578" lon="-5.146761">
        <ele>229.0</ele>
        <time>2020-11-01T11:03:59Z</time>
      </trkpt>
      <trkpt lat="43.268578" lon="-5.1467724">
        <ele>229.0</ele>
        <time>2020-11-01T11:04:00Z</time>
      </trkpt>
      <trkpt lat="43.26858" lon="-5.146782">
        <ele>229.0</ele>
        <time>2020-11-01T11:04:01Z</time>
      </trkpt>
      <trkpt lat="43.26858" lon="-5.1467915">
        <ele>229.0</ele>
        <time>2020-11-01T11:04:02Z</time>
      </trkpt>
      <trkpt lat="43.26859" lon="-5.146802">
        <ele>229.0</ele>
        <time>2020-11-01T11:04:03Z</time>
      </trkpt>
      <trkpt lat="43.268593" lon="-5.146815">
        <ele>229.0</ele>
        <time>2020-11-01T11:04:04Z</time>
      </trkpt>
      <trkpt lat="43.268597" lon="-5.146832">
        <ele>229.0</ele>
        <time>2020-11-01T11:04:05Z</time>
      </trkpt>
      <trkpt lat="43.268604" lon="-5.146851">
        <ele>229.0</ele>
        <time>2020-11-01T11:04:07Z</time>
      </trkpt>
      <trkpt lat="43.26861" lon="-5.14687">
        <ele>230.0</ele>
        <time>2020-11-01T11:04:07Z</time>
      </trkpt>
      <trkpt lat="43.268612" lon="-5.146891">
        <ele>230.0</ele>
        <time>2020-11-01T11:04:08Z</time>
      </trkpt>
      <trkpt lat="43.268623" lon="-5.146912">
        <ele>230.0</ele>
        <time>2020-11-01T11:04:09Z</time>
      </trkpt>
      <trkpt lat="43.268627" lon="-5.146932">
        <ele>230.0</ele>
        <time>2020-11-01T11:04:10Z</time>
      </trkpt>
      <trkpt lat="43.268627" lon="-5.146949">
        <ele>230.0</ele>
        <time>2020-11-01T11:04:11Z</time>
      </trkpt>
      <trkpt lat="43.268627" lon="-5.1469603">
        <ele>231.0</ele>
        <time>2020-11-01T11:04:12Z</time>
      </trkpt>
      <trkpt lat="43.268623" lon="-5.1469665">
        <ele>231.0</ele>
        <time>2020-11-01T11:04:13Z</time>
      </trkpt>
      <trkpt lat="43.268623" lon="-5.1469693">
        <ele>231.0</ele>
        <time>2020-11-01T11:04:14Z</time>
      </trkpt>
      <trkpt lat="43.26862" lon="-5.146969">
        <ele>231.0</ele>
        <time>2020-11-01T11:04:15Z</time>
      </trkpt>
      <trkpt lat="43.268604" lon="-5.1469626">
        <ele>231.0</ele>
        <time>2020-11-01T11:04:16Z</time>
      </trkpt>
      <trkpt lat="43.26859" lon="-5.14696">
        <ele>232.0</ele>
        <time>2020-11-01T11:04:17Z</time>
      </trkpt>
      <trkpt lat="43.268574" lon="-5.146957">
        <ele>232.0</ele>
        <time>2020-11-01T11:04:18Z</time>
      </trkpt>
      <trkpt lat="43.26856" lon="-5.1469555">
        <ele>232.0</ele>
        <time>2020-11-01T11:04:19Z</time>
      </trkpt>
      <trkpt lat="43.268536" lon="-5.146958">
        <ele>232.0</ele>
        <time>2020-11-01T11:04:21Z</time>
      </trkpt>
      <trkpt lat="43.268543" lon="-5.146959">
        <ele>232.0</ele>
        <time>2020-11-01T11:04:23Z</time>
      </trkpt>
      <trkpt lat="43.268543" lon="-5.1469617">
        <ele>232.0</ele>
        <time>2020-11-01T11:04:23Z</time>
      </trkpt>
      <trkpt lat="43.268536" lon="-5.146963">
        <ele>233.0</ele>
        <time>2020-11-01T11:04:24Z</time>
      </trkpt>
      <trkpt lat="43.26853" lon="-5.146963">
        <ele>233.0</ele>
        <time>2020-11-01T11:04:25Z</time>
      </trkpt>
      <trkpt lat="43.268528" lon="-5.146965">
        <ele>233.0</ele>
        <time>2020-11-01T11:04:26Z</time>
      </trkpt>
      <trkpt lat="43.26852" lon="-5.1469693">
        <ele>233.0</ele>
        <time>2020-11-01T11:04:27Z</time>
      </trkpt>
      <trkpt lat="43.268517" lon="-5.1469765">
        <ele>233.0</ele>
        <time>2020-11-01T11:04:28Z</time>
      </trkpt>
      <trkpt lat="43.268517" lon="-5.146986">
        <ele>233.0</ele>
        <time>2020-11-01T11:04:29Z</time>
      </trkpt>
      <trkpt lat="43.268517" lon="-5.146998">
        <ele>234.0</ele>
        <time>2020-11-01T11:04:31Z</time>
      </trkpt>
      <trkpt lat="43.26852" lon="-5.1470075">
        <ele>234.0</ele>
        <time>2020-11-01T11:04:31Z</time>
      </trkpt>
      <trkpt lat="43.26852" lon="-5.147014">
        <ele>234.0</ele>
        <time>2020-11-01T11:04:32Z</time>
      </trkpt>
      <trkpt lat="43.26852" lon="-5.1470165">
        <ele>234.0</ele>
        <time>2020-11-01T11:04:33Z</time>
      </trkpt>
      <trkpt lat="43.268517" lon="-5.1470156">
        <ele>234.0</ele>
        <time>2020-11-01T11:04:34Z</time>
      </trkpt>
      <trkpt lat="43.26851" lon="-5.1470156">
        <ele>234.0</ele>
        <time>2020-11-01T11:04:35Z</time>
      </trkpt>
      <trkpt lat="43.268505" lon="-5.1470175">
        <ele>234.0</ele>
        <time>2020-11-01T11:04:36Z</time>
      </trkpt>
      <trkpt lat="43.268494" lon="-5.1470213">
        <ele>235.0</ele>
        <time>2020-11-01T11:04:37Z</time>
      </trkpt>
      <trkpt lat="43.26849" lon="-5.1470265">
        <ele>235.0</ele>
        <time>2020-11-01T11:04:38Z</time>
      </trkpt>
      <trkpt lat="43.26848" lon="-5.1470323">
        <ele>235.0</ele>
        <time>2020-11-01T11:04:39Z</time>
      </trkpt>
      <trkpt lat="43.26848" lon="-5.14704">
        <ele>235.0</ele>
        <time>2020-11-01T11:04:40Z</time>
      </trkpt>
      <trkpt lat="43.26848" lon="-5.1470475">
        <ele>235.0</ele>
        <time>2020-11-01T11:04:41Z</time>
      </trkpt>
      <trkpt lat="43.268486" lon="-5.1470575">
        <ele>235.0</ele>
        <time>2020-11-01T11:04:42Z</time>
      </trkpt>
      <trkpt lat="43.26849" lon="-5.147067">
        <ele>235.0</ele>
        <time>2020-11-01T11:04:43Z</time>
      </trkpt>
      <trkpt lat="43.26849" lon="-5.1470747">
        <ele>235.0</ele>
        <time>2020-11-01T11:04:44Z</time>
      </trkpt>
      <trkpt lat="43.268494" lon="-5.1470785">
        <ele>235.0</ele>
        <time>2020-11-01T11:04:45Z</time>
      </trkpt>
      <trkpt lat="43.26849" lon="-5.1470814">
        <ele>235.0</ele>
        <time>2020-11-01T11:04:47Z</time>
      </trkpt>
      <trkpt lat="43.26849" lon="-5.1470833">
        <ele>235.0</ele>
        <time>2020-11-01T11:04:48Z</time>
      </trkpt>
      <trkpt lat="43.26849" lon="-5.147088">
        <ele>235.0</ele>
        <time>2020-11-01T11:04:49Z</time>
      </trkpt>
      <trkpt lat="43.268494" lon="-5.1470957">
        <ele>235.0</ele>
        <time>2020-11-01T11:04:50Z</time>
      </trkpt>
      <trkpt lat="43.268494" lon="-5.1471043">
        <ele>235.0</ele>
        <time>2020-11-01T11:04:51Z</time>
      </trkpt>
      <trkpt lat="43.268494" lon="-5.147114">
        <ele>235.0</ele>
        <time>2020-11-01T11:04:52Z</time>
      </trkpt>
      <trkpt lat="43.268494" lon="-5.1471267">
        <ele>236.0</ele>
        <time>2020-11-01T11:04:53Z</time>
      </trkpt>
      <trkpt lat="43.268494" lon="-5.1471424">
        <ele>236.0</ele>
        <time>2020-11-01T11:04:55Z</time>
      </trkpt>
      <trkpt lat="43.2685" lon="-5.147159">
        <ele>236.0</ele>
        <time>2020-11-01T11:04:55Z</time>
      </trkpt>
      <trkpt lat="43.268505" lon="-5.1471767">
        <ele>236.0</ele>
        <time>2020-11-01T11:04:56Z</time>
      </trkpt>
      <trkpt lat="43.26851" lon="-5.14719">
        <ele>236.0</ele>
        <time>2020-11-01T11:04:57Z</time>
      </trkpt>
      <trkpt lat="43.26851" lon="-5.147201">
        <ele>237.0</ele>
        <time>2020-11-01T11:04:58Z</time>
      </trkpt>
      <trkpt lat="43.268505" lon="-5.147209">
        <ele>237.0</ele>
        <time>2020-11-01T11:04:59Z</time>
      </trkpt>
      <trkpt lat="43.2685" lon="-5.147216">
        <ele>237.0</ele>
        <time>2020-11-01T11:05:01Z</time>
      </trkpt>
      <trkpt lat="43.268494" lon="-5.1472216">
        <ele>237.0</ele>
        <time>2020-11-01T11:05:01Z</time>
      </trkpt>
      <trkpt lat="43.26849" lon="-5.1472287">
        <ele>237.0</ele>
        <time>2020-11-01T11:05:02Z</time>
      </trkpt>
      <trkpt lat="43.268494" lon="-5.147238">
        <ele>237.0</ele>
        <time>2020-11-01T11:05:03Z</time>
      </trkpt>
      <trkpt lat="43.2685" lon="-5.147247">
        <ele>238.0</ele>
        <time>2020-11-01T11:05:04Z</time>
      </trkpt>
      <trkpt lat="43.2685" lon="-5.147255">
        <ele>238.0</ele>
        <time>2020-11-01T11:05:05Z</time>
      </trkpt>
      <trkpt lat="43.268505" lon="-5.1472645">
        <ele>238.0</ele>
        <time>2020-11-01T11:05:06Z</time>
      </trkpt>
      <trkpt lat="43.268505" lon="-5.1472692">
        <ele>238.0</ele>
        <time>2020-11-01T11:05:06Z</time>
      </trkpt>
      <trkpt lat="43.268505" lon="-5.1472716">
        <ele>238.0</ele>
        <time>2020-11-01T11:05:08Z</time>
      </trkpt>
      <trkpt lat="43.2685" lon="-5.1472735">
        <ele>238.0</ele>
        <time>2020-11-01T11:05:08Z</time>
      </trkpt>
      <trkpt lat="43.268494" lon="-5.147275">
        <ele>238.0</ele>
        <time>2020-11-01T11:05:09Z</time>
      </trkpt>
      <trkpt lat="43.26849" lon="-5.147275">
        <ele>239.0</ele>
        <time>2020-11-01T11:05:10Z</time>
      </trkpt>
      <trkpt lat="43.26848" lon="-5.147275">
        <ele>239.0</ele>
        <time>2020-11-01T11:05:11Z</time>
      </trkpt>
      <trkpt lat="43.268475" lon="-5.147276">
        <ele>239.0</ele>
        <time>2020-11-01T11:05:12Z</time>
      </trkpt>
      <trkpt lat="43.26847" lon="-5.147277">
        <ele>239.0</ele>
        <time>2020-11-01T11:05:13Z</time>
      </trkpt>
      <trkpt lat="43.26847" lon="-5.1472793">
        <ele>239.0</ele>
        <time>2020-11-01T11:05:14Z</time>
      </trkpt>
      <trkpt lat="43.268463" lon="-5.147279">
        <ele>240.0</ele>
        <time>2020-11-01T11:05:16Z</time>
      </trkpt>
      <trkpt lat="43.268463" lon="-5.1472774">
        <ele>240.0</ele>
        <time>2020-11-01T11:05:16Z</time>
      </trkpt>
      <trkpt lat="43.26846" lon="-5.1472783">
        <ele>240.0</ele>
        <time>2020-11-01T11:05:17Z</time>
      </trkpt>
      <trkpt lat="43.268456" lon="-5.1472793">
        <ele>240.0</ele>
        <time>2020-11-01T11:05:18Z</time>
      </trkpt>
      <trkpt lat="43.268448" lon="-5.1472836">
        <ele>240.0</ele>
        <time>2020-11-01T11:05:19Z</time>
      </trkpt>
      <trkpt lat="43.268444" lon="-5.1472917">
        <ele>240.0</ele>
        <time>2020-11-01T11:05:20Z</time>
      </trkpt>
      <trkpt lat="43.26844" lon="-5.1473026">
        <ele>240.0</ele>
        <time>2020-11-01T11:05:21Z</time>
      </trkpt>
      <trkpt lat="43.26843" lon="-5.147311">
        <ele>240.0</ele>
        <time>2020-11-01T11:05:22Z</time>
      </trkpt>
      <trkpt lat="43.268417" lon="-5.147318">
        <ele>240.0</ele>
        <time>2020-11-01T11:05:23Z</time>
      </trkpt>
      <trkpt lat="43.26841" lon="-5.1473207">
        <ele>240.0</ele>
        <time>2020-11-01T11:05:24Z</time>
      </trkpt>
      <trkpt lat="43.2684" lon="-5.1473227">
        <ele>240.0</ele>
        <time>2020-11-01T11:05:25Z</time>
      </trkpt>
      <trkpt lat="43.268383" lon="-5.1473227">
        <ele>240.0</ele>
        <time>2020-11-01T11:05:26Z</time>
      </trkpt>
      <trkpt lat="43.268368" lon="-5.1473193">
        <ele>241.0</ele>
        <time>2020-11-01T11:05:27Z</time>
      </trkpt>
      <trkpt lat="43.268353" lon="-5.147313">
        <ele>241.0</ele>
        <time>2020-11-01T11:05:28Z</time>
      </trkpt>
      <trkpt lat="43.26834" lon="-5.147307">
        <ele>241.0</ele>
        <time>2020-11-01T11:05:29Z</time>
      </trkpt>
      <trkpt lat="43.26833" lon="-5.1473026">
        <ele>241.0</ele>
        <time>2020-11-01T11:05:30Z</time>
      </trkpt>
      <trkpt lat="43.268326" lon="-5.1472974">
        <ele>241.0</ele>
        <time>2020-11-01T11:05:31Z</time>
      </trkpt>
      <trkpt lat="43.268314" lon="-5.1472898">
        <ele>241.0</ele>
        <time>2020-11-01T11:05:32Z</time>
      </trkpt>
      <trkpt lat="43.26831" lon="-5.147282">
        <ele>241.0</ele>
        <time>2020-11-01T11:05:33Z</time>
      </trkpt>
      <trkpt lat="43.268307" lon="-5.1472745">
        <ele>242.0</ele>
        <time>2020-11-01T11:05:34Z</time>
      </trkpt>
      <trkpt lat="43.268295" lon="-5.147269">
        <ele>242.0</ele>
        <time>2020-11-01T11:05:35Z</time>
      </trkpt>
      <trkpt lat="43.26829" lon="-5.1472664">
        <ele>242.0</ele>
        <time>2020-11-01T11:05:36Z</time>
      </trkpt>
      <trkpt lat="43.26828" lon="-5.147263">
        <ele>242.0</ele>
        <time>2020-11-01T11:05:37Z</time>
      </trkpt>
      <trkpt lat="43.26827" lon="-5.147255">
        <ele>242.0</ele>
        <time>2020-11-01T11:05:39Z</time>
      </trkpt>
      <trkpt lat="43.26827" lon="-5.1472535">
        <ele>242.0</ele>
        <time>2020-11-01T11:05:40Z</time>
      </trkpt>
      <trkpt lat="43.268265" lon="-5.147248">
        <ele>242.0</ele>
        <time>2020-11-01T11:05:42Z</time>
      </trkpt>
      <trkpt lat="43.268265" lon="-5.1472487">
        <ele>242.0</ele>
        <time>2020-11-01T11:05:43Z</time>
      </trkpt>
      <trkpt lat="43.268265" lon="-5.1472516">
        <ele>242.0</ele>
        <time>2020-11-01T11:05:44Z</time>
      </trkpt>
      <trkpt lat="43.268265" lon="-5.147253">
        <ele>243.0</ele>
        <time>2020-11-01T11:05:45Z</time>
      </trkpt>
      <trkpt lat="43.26827" lon="-5.147258">
        <ele>243.0</ele>
        <time>2020-11-01T11:05:46Z</time>
      </trkpt>
      <trkpt lat="43.268276" lon="-5.147262">
        <ele>243.0</ele>
        <time>2020-11-01T11:05:48Z</time>
      </trkpt>
      <trkpt lat="43.26828" lon="-5.1472673">
        <ele>243.0</ele>
        <time>2020-11-01T11:05:48Z</time>
      </trkpt>
      <trkpt lat="43.268284" lon="-5.147271">
        <ele>243.0</ele>
        <time>2020-11-01T11:05:49Z</time>
      </trkpt>
      <trkpt lat="43.26829" lon="-5.147277">
        <ele>243.0</ele>
        <time>2020-11-01T11:05:50Z</time>
      </trkpt>
      <trkpt lat="43.2683" lon="-5.147283">
        <ele>244.0</ele>
        <time>2020-11-01T11:05:51Z</time>
      </trkpt>
      <trkpt lat="43.268307" lon="-5.1472864">
        <ele>244.0</ele>
        <time>2020-11-01T11:05:52Z</time>
      </trkpt>
      <trkpt lat="43.268307" lon="-5.147289">
        <ele>244.0</ele>
        <time>2020-11-01T11:05:53Z</time>
      </trkpt>
      <trkpt lat="43.268307" lon="-5.147292">
        <ele>244.0</ele>
        <time>2020-11-01T11:05:54Z</time>
      </trkpt>
      <trkpt lat="43.2683" lon="-5.147296">
        <ele>244.0</ele>
        <time>2020-11-01T11:05:55Z</time>
      </trkpt>
      <trkpt lat="43.2683" lon="-5.1472993">
        <ele>245.0</ele>
        <time>2020-11-01T11:05:56Z</time>
      </trkpt>
      <trkpt lat="43.2683" lon="-5.1473045">
        <ele>245.0</ele>
        <time>2020-11-01T11:05:57Z</time>
      </trkpt>
      <trkpt lat="43.268307" lon="-5.1473107">
        <ele>245.0</ele>
        <time>2020-11-01T11:05:58Z</time>
      </trkpt>
      <trkpt lat="43.26831" lon="-5.1473184">
        <ele>245.0</ele>
        <time>2020-11-01T11:05:59Z</time>
      </trkpt>
      <trkpt lat="43.26831" lon="-5.1473246">
        <ele>245.0</ele>
        <time>2020-11-01T11:06:00Z</time>
      </trkpt>
      <trkpt lat="43.26831" lon="-5.147331">
        <ele>245.0</ele>
        <time>2020-11-01T11:06:01Z</time>
      </trkpt>
      <trkpt lat="43.26831" lon="-5.1473384">
        <ele>245.0</ele>
        <time>2020-11-01T11:06:02Z</time>
      </trkpt>
      <trkpt lat="43.26831" lon="-5.147345">
        <ele>245.0</ele>
        <time>2020-11-01T11:06:03Z</time>
      </trkpt>
      <trkpt lat="43.268307" lon="-5.147353">
        <ele>245.0</ele>
        <time>2020-11-01T11:06:04Z</time>
      </trkpt>
      <trkpt lat="43.268307" lon="-5.147362">
        <ele>246.0</ele>
        <time>2020-11-01T11:06:05Z</time>
      </trkpt>
      <trkpt lat="43.2683" lon="-5.147373">
        <ele>246.0</ele>
        <time>2020-11-01T11:06:06Z</time>
      </trkpt>
      <trkpt lat="43.268295" lon="-5.147385">
        <ele>246.0</ele>
        <time>2020-11-01T11:06:07Z</time>
      </trkpt>
      <trkpt lat="43.26829" lon="-5.147398">
        <ele>246.0</ele>
        <time>2020-11-01T11:06:08Z</time>
      </trkpt>
      <trkpt lat="43.26828" lon="-5.1474113">
        <ele>246.0</ele>
        <time>2020-11-01T11:06:10Z</time>
      </trkpt>
      <trkpt lat="43.268276" lon="-5.147425">
        <ele>246.0</ele>
        <time>2020-11-01T11:06:10Z</time>
      </trkpt>
      <trkpt lat="43.268265" lon="-5.1474347">
        <ele>246.0</ele>
        <time>2020-11-01T11:06:11Z</time>
      </trkpt>
      <trkpt lat="43.26826" lon="-5.1474395">
        <ele>246.0</ele>
        <time>2020-11-01T11:06:12Z</time>
      </trkpt>
      <trkpt lat="43.268253" lon="-5.1474423">
        <ele>246.0</ele>
        <time>2020-11-01T11:06:13Z</time>
      </trkpt>
      <trkpt lat="43.26825" lon="-5.1474442">
        <ele>246.0</ele>
        <time>2020-11-01T11:06:14Z</time>
      </trkpt>
      <trkpt lat="43.268246" lon="-5.1474442">
        <ele>246.0</ele>
        <time>2020-11-01T11:06:15Z</time>
      </trkpt>
      <trkpt lat="43.268238" lon="-5.1474442">
        <ele>246.0</ele>
        <time>2020-11-01T11:06:16Z</time>
      </trkpt>
      <trkpt lat="43.26823" lon="-5.147446">
        <ele>246.0</ele>
        <time>2020-11-01T11:06:17Z</time>
      </trkpt>
      <trkpt lat="43.268223" lon="-5.1474466">
        <ele>247.0</ele>
        <time>2020-11-01T11:06:18Z</time>
      </trkpt>
      <trkpt lat="43.268215" lon="-5.1474495">
        <ele>247.0</ele>
        <time>2020-11-01T11:06:19Z</time>
      </trkpt>
      <trkpt lat="43.268208" lon="-5.147457">
        <ele>247.0</ele>
        <time>2020-11-01T11:06:20Z</time>
      </trkpt>
      <trkpt lat="43.268204" lon="-5.1474657">
        <ele>247.0</ele>
        <time>2020-11-01T11:06:21Z</time>
      </trkpt>
      <trkpt lat="43.2682" lon="-5.147471">
        <ele>247.0</ele>
        <time>2020-11-01T11:06:22Z</time>
      </trkpt>
      <trkpt lat="43.268204" lon="-5.1474776">
        <ele>247.0</ele>
        <time>2020-11-01T11:06:23Z</time>
      </trkpt>
      <trkpt lat="43.268204" lon="-5.147477">
        <ele>248.0</ele>
        <time>2020-11-01T11:06:24Z</time>
      </trkpt>
      <trkpt lat="43.2682" lon="-5.147476">
        <ele>248.0</ele>
        <time>2020-11-01T11:06:26Z</time>
      </trkpt>
      <trkpt lat="43.2682" lon="-5.147478">
        <ele>248.0</ele>
        <time>2020-11-01T11:06:27Z</time>
      </trkpt>
      <trkpt lat="43.2682" lon="-5.1474824">
        <ele>248.0</ele>
        <time>2020-11-01T11:06:28Z</time>
      </trkpt>
      <trkpt lat="43.268204" lon="-5.147487">
        <ele>248.0</ele>
        <time>2020-11-01T11:06:29Z</time>
      </trkpt>
      <trkpt lat="43.268204" lon="-5.14749">
        <ele>248.0</ele>
        <time>2020-11-01T11:06:30Z</time>
      </trkpt>
      <trkpt lat="43.268204" lon="-5.1474924">
        <ele>249.0</ele>
        <time>2020-11-01T11:06:31Z</time>
      </trkpt>
      <trkpt lat="43.2682" lon="-5.147495">
        <ele>249.0</ele>
        <time>2020-11-01T11:06:32Z</time>
      </trkpt>
      <trkpt lat="43.268192" lon="-5.1475043">
        <ele>249.0</ele>
        <time>2020-11-01T11:06:39Z</time>
      </trkpt>
      <trkpt lat="43.26819" lon="-5.1475067">
        <ele>249.0</ele>
        <time>2020-11-01T11:06:40Z</time>
      </trkpt>
      <trkpt lat="43.268185" lon="-5.1475115">
        <ele>250.0</ele>
        <time>2020-11-01T11:06:41Z</time>
      </trkpt>
      <trkpt lat="43.268173" lon="-5.1475167">
        <ele>250.0</ele>
        <time>2020-11-01T11:06:42Z</time>
      </trkpt>
      <trkpt lat="43.26816" lon="-5.147527">
        <ele>250.0</ele>
        <time>2020-11-01T11:06:43Z</time>
      </trkpt>
      <trkpt lat="43.268147" lon="-5.1475487">
        <ele>250.0</ele>
        <time>2020-11-01T11:06:44Z</time>
      </trkpt>
      <trkpt lat="43.268127" lon="-5.1475782">
        <ele>251.0</ele>
        <time>2020-11-01T11:06:45Z</time>
      </trkpt>
      <trkpt lat="43.268112" lon="-5.147606">
        <ele>251.0</ele>
        <time>2020-11-01T11:06:46Z</time>
      </trkpt>
      <trkpt lat="43.268097" lon="-5.1476283">
        <ele>251.0</ele>
        <time>2020-11-01T11:06:47Z</time>
      </trkpt>
      <trkpt lat="43.26808" lon="-5.147644">
        <ele>251.0</ele>
        <time>2020-11-01T11:06:48Z</time>
      </trkpt>
      <trkpt lat="43.26807" lon="-5.147656">
        <ele>252.0</ele>
        <time>2020-11-01T11:06:49Z</time>
      </trkpt>
      <trkpt lat="43.26806" lon="-5.1476665">
        <ele>252.0</ele>
        <time>2020-11-01T11:06:50Z</time>
      </trkpt>
      <trkpt lat="43.26805" lon="-5.147673">
        <ele>252.0</ele>
        <time>2020-11-01T11:06:51Z</time>
      </trkpt>
      <trkpt lat="43.26804" lon="-5.147677">
        <ele>252.0</ele>
        <time>2020-11-01T11:06:52Z</time>
      </trkpt>
      <trkpt lat="43.268036" lon="-5.14768">
        <ele>252.0</ele>
        <time>2020-11-01T11:06:53Z</time>
      </trkpt>
      <trkpt lat="43.26803" lon="-5.147682">
        <ele>253.0</ele>
        <time>2020-11-01T11:06:54Z</time>
      </trkpt>
      <trkpt lat="43.268024" lon="-5.1476836">
        <ele>253.0</ele>
        <time>2020-11-01T11:06:55Z</time>
      </trkpt>
      <trkpt lat="43.26802" lon="-5.1476817">
        <ele>253.0</ele>
        <time>2020-11-01T11:06:56Z</time>
      </trkpt>
      <trkpt lat="43.268013" lon="-5.147678">
        <ele>253.0</ele>
        <time>2020-11-01T11:06:57Z</time>
      </trkpt>
      <trkpt lat="43.268013" lon="-5.147674">
        <ele>253.0</ele>
        <time>2020-11-01T11:06:58Z</time>
      </trkpt>
      <trkpt lat="43.268013" lon="-5.147672">
        <ele>253.0</ele>
        <time>2020-11-01T11:06:59Z</time>
      </trkpt>
      <trkpt lat="43.268013" lon="-5.1476693">
        <ele>253.0</ele>
        <time>2020-11-01T11:07:00Z</time>
      </trkpt>
      <trkpt lat="43.26767" lon="-5.1477094">
        <ele>261.0</ele>
        <time>2020-11-01T11:09:05Z</time>
      </trkpt>
      <trkpt lat="43.267666" lon="-5.147711">
        <ele>261.0</ele>
        <time>2020-11-01T11:09:06Z</time>
      </trkpt>
      <trkpt lat="43.267666" lon="-5.147713">
        <ele>261.0</ele>
        <time>2020-11-01T11:09:07Z</time>
      </trkpt>
      <trkpt lat="43.267662" lon="-5.1477146">
        <ele>261.0</ele>
        <time>2020-11-01T11:09:08Z</time>
      </trkpt>
      <trkpt lat="43.267654" lon="-5.147717">
        <ele>261.0</ele>
        <time>2020-11-01T11:09:09Z</time>
      </trkpt>
      <trkpt lat="43.267647" lon="-5.1477184">
        <ele>261.0</ele>
        <time>2020-11-01T11:09:11Z</time>
      </trkpt>
      <trkpt lat="43.26764" lon="-5.1477227">
        <ele>261.0</ele>
        <time>2020-11-01T11:09:11Z</time>
      </trkpt>
      <trkpt lat="43.267635" lon="-5.147729">
        <ele>261.0</ele>
        <time>2020-11-01T11:09:12Z</time>
      </trkpt>
      <trkpt lat="43.26763" lon="-5.14773">
        <ele>261.0</ele>
        <time>2020-11-01T11:09:13Z</time>
      </trkpt>
      <trkpt lat="43.267624" lon="-5.1477275">
        <ele>261.0</ele>
        <time>2020-11-01T11:09:14Z</time>
      </trkpt>
      <trkpt lat="43.267624" lon="-5.1477237">
        <ele>261.0</ele>
        <time>2020-11-01T11:09:15Z</time>
      </trkpt>
      <trkpt lat="43.267624" lon="-5.1477175">
        <ele>261.0</ele>
        <time>2020-11-01T11:09:16Z</time>
      </trkpt>
      <trkpt lat="43.26763" lon="-5.1477127">
        <ele>261.0</ele>
        <time>2020-11-01T11:09:17Z</time>
      </trkpt>
      <trkpt lat="43.26763" lon="-5.1477084">
        <ele>261.0</ele>
        <time>2020-11-01T11:09:19Z</time>
      </trkpt>
      <trkpt lat="43.26764" lon="-5.1477027">
        <ele>261.0</ele>
        <time>2020-11-01T11:09:22Z</time>
      </trkpt>
      <trkpt lat="43.267647" lon="-5.147704">
        <ele>261.0</ele>
        <time>2020-11-01T11:09:24Z</time>
      </trkpt>
      <trkpt lat="43.267647" lon="-5.1477046">
        <ele>261.0</ele>
        <time>2020-11-01T11:09:25Z</time>
      </trkpt>
      <trkpt lat="43.26764" lon="-5.147706">
        <ele>261.0</ele>
        <time>2020-11-01T11:09:26Z</time>
      </trkpt>
      <trkpt lat="43.26764" lon="-5.147708">
        <ele>261.0</ele>
        <time>2020-11-01T11:09:27Z</time>
      </trkpt>
      <trkpt lat="43.26764" lon="-5.147709">
        <ele>261.0</ele>
        <time>2020-11-01T11:09:29Z</time>
      </trkpt>
      <trkpt lat="43.267635" lon="-5.147716">
        <ele>261.0</ele>
        <time>2020-11-01T11:10:02Z</time>
      </trkpt>
      <trkpt lat="43.267635" lon="-5.1477165">
        <ele>261.0</ele>
        <time>2020-11-01T11:10:03Z</time>
      </trkpt>
      <trkpt lat="43.26763" lon="-5.147717">
        <ele>261.0</ele>
        <time>2020-11-01T11:10:04Z</time>
      </trkpt>
      <trkpt lat="43.267624" lon="-5.14772">
        <ele>261.0</ele>
        <time>2020-11-01T11:10:06Z</time>
      </trkpt>
      <trkpt lat="43.267616" lon="-5.1477213">
        <ele>261.0</ele>
        <time>2020-11-01T11:10:06Z</time>
      </trkpt>
      <trkpt lat="43.26761" lon="-5.1477227">
        <ele>261.0</ele>
        <time>2020-11-01T11:10:07Z</time>
      </trkpt>
      <trkpt lat="43.267605" lon="-5.147724">
        <ele>261.0</ele>
        <time>2020-11-01T11:10:08Z</time>
      </trkpt>
      <trkpt lat="43.267593" lon="-5.147726">
        <ele>261.0</ele>
        <time>2020-11-01T11:10:09Z</time>
      </trkpt>
      <trkpt lat="43.26759" lon="-5.1477265">
        <ele>261.0</ele>
        <time>2020-11-01T11:10:10Z</time>
      </trkpt>
      <trkpt lat="43.26758" lon="-5.1477246">
        <ele>261.0</ele>
        <time>2020-11-01T11:10:11Z</time>
      </trkpt>
      <trkpt lat="43.267574" lon="-5.147721">
        <ele>261.0</ele>
        <time>2020-11-01T11:10:12Z</time>
      </trkpt>
      <trkpt lat="43.26757" lon="-5.147717">
        <ele>261.0</ele>
        <time>2020-11-01T11:10:14Z</time>
      </trkpt>
      <trkpt lat="43.26756" lon="-5.147715">
        <ele>261.0</ele>
        <time>2020-11-01T11:10:14Z</time>
      </trkpt>
      <trkpt lat="43.26755" lon="-5.1477156">
        <ele>261.0</ele>
        <time>2020-11-01T11:10:15Z</time>
      </trkpt>
      <trkpt lat="43.267544" lon="-5.147717">
        <ele>261.0</ele>
        <time>2020-11-01T11:10:16Z</time>
      </trkpt>
      <trkpt lat="43.267536" lon="-5.147718">
        <ele>261.0</ele>
        <time>2020-11-01T11:10:17Z</time>
      </trkpt>
      <trkpt lat="43.267532" lon="-5.147719">
        <ele>261.0</ele>
        <time>2020-11-01T11:10:18Z</time>
      </trkpt>
      <trkpt lat="43.26752" lon="-5.147722">
        <ele>261.0</ele>
        <time>2020-11-01T11:10:19Z</time>
      </trkpt>
      <trkpt lat="43.267517" lon="-5.1477222">
        <ele>261.0</ele>
        <time>2020-11-01T11:10:20Z</time>
      </trkpt>
      <trkpt lat="43.2675" lon="-5.1477203">
        <ele>261.0</ele>
        <time>2020-11-01T11:10:21Z</time>
      </trkpt>
      <trkpt lat="43.26749" lon="-5.147718">
        <ele>261.0</ele>
        <time>2020-11-01T11:10:22Z</time>
      </trkpt>
      <trkpt lat="43.267487" lon="-5.147716">
        <ele>261.0</ele>
        <time>2020-11-01T11:10:23Z</time>
      </trkpt>
      <trkpt lat="43.267475" lon="-5.147715">
        <ele>261.0</ele>
        <time>2020-11-01T11:10:24Z</time>
      </trkpt>
      <trkpt lat="43.26747" lon="-5.1477146">
        <ele>261.0</ele>
        <time>2020-11-01T11:10:25Z</time>
      </trkpt>
      <trkpt lat="43.267467" lon="-5.147714">
        <ele>261.0</ele>
        <time>2020-11-01T11:10:26Z</time>
      </trkpt>
      <trkpt lat="43.267467" lon="-5.147712">
        <ele>261.0</ele>
        <time>2020-11-01T11:10:27Z</time>
      </trkpt>
      <trkpt lat="43.26746" lon="-5.147711">
        <ele>261.0</ele>
        <time>2020-11-01T11:10:28Z</time>
      </trkpt>
      <trkpt lat="43.267456" lon="-5.147708">
        <ele>261.0</ele>
        <time>2020-11-01T11:10:30Z</time>
      </trkpt>
      <trkpt lat="43.267452" lon="-5.1477065">
        <ele>261.0</ele>
        <time>2020-11-01T11:10:30Z</time>
      </trkpt>
      <trkpt lat="43.267445" lon="-5.147706">
        <ele>261.0</ele>
        <time>2020-11-01T11:10:31Z</time>
      </trkpt>
      <trkpt lat="43.26743" lon="-5.1477194">
        <ele>261.0</ele>
        <time>2020-11-01T11:10:33Z</time>
      </trkpt>
      <trkpt lat="43.26743" lon="-5.1477203">
        <ele>261.0</ele>
        <time>2020-11-01T11:10:34Z</time>
      </trkpt>
      <trkpt lat="43.267426" lon="-5.1477246">
        <ele>261.0</ele>
        <time>2020-11-01T11:10:35Z</time>
      </trkpt>
      <trkpt lat="43.267426" lon="-5.14773">
        <ele>261.0</ele>
        <time>2020-11-01T11:10:36Z</time>
      </trkpt>
      <trkpt lat="43.267414" lon="-5.147735">
        <ele>261.0</ele>
        <time>2020-11-01T11:10:37Z</time>
      </trkpt>
      <trkpt lat="43.26741" lon="-5.147732">
        <ele>261.0</ele>
        <time>2020-11-01T11:10:39Z</time>
      </trkpt>
      <trkpt lat="43.267406" lon="-5.1477237">
        <ele>261.0</ele>
        <time>2020-11-01T11:10:39Z</time>
      </trkpt>
      <trkpt lat="43.2674" lon="-5.1477113">
        <ele>261.0</ele>
        <time>2020-11-01T11:10:40Z</time>
      </trkpt>
      <trkpt lat="43.267395" lon="-5.1476974">
        <ele>261.0</ele>
        <time>2020-11-01T11:10:41Z</time>
      </trkpt>
      <trkpt lat="43.26739" lon="-5.14768">
        <ele>261.0</ele>
        <time>2020-11-01T11:10:42Z</time>
      </trkpt>
      <trkpt lat="43.267384" lon="-5.1476684">
        <ele>261.0</ele>
        <time>2020-11-01T11:10:43Z</time>
      </trkpt>
      <trkpt lat="43.26738" lon="-5.1476645">
        <ele>261.0</ele>
        <time>2020-11-01T11:10:44Z</time>
      </trkpt>
      <trkpt lat="43.267376" lon="-5.147657">
        <ele>261.0</ele>
        <time>2020-11-01T11:10:45Z</time>
      </trkpt>
      <trkpt lat="43.267376" lon="-5.1476474">
        <ele>261.0</ele>
        <time>2020-11-01T11:10:46Z</time>
      </trkpt>
      <trkpt lat="43.267365" lon="-5.147646">
        <ele>261.0</ele>
        <time>2020-11-01T11:10:47Z</time>
      </trkpt>
      <trkpt lat="43.267357" lon="-5.147644">
        <ele>261.0</ele>
        <time>2020-11-01T11:10:48Z</time>
      </trkpt>
      <trkpt lat="43.267353" lon="-5.14764">
        <ele>261.0</ele>
        <time>2020-11-01T11:10:49Z</time>
      </trkpt>
      <trkpt lat="43.26734" lon="-5.147637">
        <ele>261.0</ele>
        <time>2020-11-01T11:10:50Z</time>
      </trkpt>
      <trkpt lat="43.267338" lon="-5.147629">
        <ele>261.0</ele>
        <time>2020-11-01T11:10:51Z</time>
      </trkpt>
      <trkpt lat="43.267334" lon="-5.1476216">
        <ele>261.0</ele>
        <time>2020-11-01T11:10:52Z</time>
      </trkpt>
      <trkpt lat="43.267326" lon="-5.147619">
        <ele>261.0</ele>
        <time>2020-11-01T11:10:54Z</time>
      </trkpt>
      <trkpt lat="43.26732" lon="-5.147619">
        <ele>261.0</ele>
        <time>2020-11-01T11:10:54Z</time>
      </trkpt>
      <trkpt lat="43.26731" lon="-5.1476207">
        <ele>261.0</ele>
        <time>2020-11-01T11:10:55Z</time>
      </trkpt>
      <trkpt lat="43.267307" lon="-5.1476088">
        <ele>261.0</ele>
        <time>2020-11-01T11:10:56Z</time>
      </trkpt>
      <trkpt lat="43.267303" lon="-5.1475954">
        <ele>261.0</ele>
        <time>2020-11-01T11:10:57Z</time>
      </trkpt>
      <trkpt lat="43.267296" lon="-5.1475854">
        <ele>261.0</ele>
        <time>2020-11-01T11:10:58Z</time>
      </trkpt>
      <trkpt lat="43.267296" lon="-5.147576">
        <ele>261.0</ele>
        <time>2020-11-01T11:10:59Z</time>
      </trkpt>
      <trkpt lat="43.267292" lon="-5.147565">
        <ele>261.0</ele>
        <time>2020-11-01T11:11:00Z</time>
      </trkpt>
      <trkpt lat="43.26729" lon="-5.147561">
        <ele>261.0</ele>
        <time>2020-11-01T11:11:01Z</time>
      </trkpt>
      <trkpt lat="43.267277" lon="-5.147565">
        <ele>261.0</ele>
        <time>2020-11-01T11:11:02Z</time>
      </trkpt>
      <trkpt lat="43.267265" lon="-5.147574">
        <ele>261.0</ele>
        <time>2020-11-01T11:11:03Z</time>
      </trkpt>
      <trkpt lat="43.26725" lon="-5.1475825">
        <ele>261.0</ele>
        <time>2020-11-01T11:11:04Z</time>
      </trkpt>
      <trkpt lat="43.267242" lon="-5.147589">
        <ele>262.0</ele>
        <time>2020-11-01T11:11:05Z</time>
      </trkpt>
      <trkpt lat="43.267235" lon="-5.1475916">
        <ele>262.0</ele>
        <time>2020-11-01T11:11:06Z</time>
      </trkpt>
      <trkpt lat="43.267227" lon="-5.147594">
        <ele>262.0</ele>
        <time>2020-11-01T11:11:07Z</time>
      </trkpt>
      <trkpt lat="43.267216" lon="-5.147599">
        <ele>262.0</ele>
        <time>2020-11-01T11:11:08Z</time>
      </trkpt>
      <trkpt lat="43.267212" lon="-5.147605">
        <ele>262.0</ele>
        <time>2020-11-01T11:11:09Z</time>
      </trkpt>
      <trkpt lat="43.2672" lon="-5.1476116">
        <ele>262.0</ele>
        <time>2020-11-01T11:11:10Z</time>
      </trkpt>
      <trkpt lat="43.267197" lon="-5.147617">
        <ele>262.0</ele>
        <time>2020-11-01T11:11:11Z</time>
      </trkpt>
      <trkpt lat="43.267185" lon="-5.1476164">
        <ele>262.0</ele>
        <time>2020-11-01T11:11:12Z</time>
      </trkpt>
      <trkpt lat="43.267174" lon="-5.1476164">
        <ele>262.0</ele>
        <time>2020-11-01T11:11:13Z</time>
      </trkpt>
      <trkpt lat="43.26717" lon="-5.147615">
        <ele>262.0</ele>
        <time>2020-11-01T11:11:15Z</time>
      </trkpt>
      <trkpt lat="43.267162" lon="-5.1476126">
        <ele>262.0</ele>
        <time>2020-11-01T11:11:15Z</time>
      </trkpt>
      <trkpt lat="43.26716" lon="-5.1476154">
        <ele>262.0</ele>
        <time>2020-11-01T11:11:16Z</time>
      </trkpt>
      <trkpt lat="43.267155" lon="-5.1476197">
        <ele>262.0</ele>
        <time>2020-11-01T11:11:17Z</time>
      </trkpt>
      <trkpt lat="43.267143" lon="-5.1476235">
        <ele>262.0</ele>
        <time>2020-11-01T11:11:18Z</time>
      </trkpt>
      <trkpt lat="43.26714" lon="-5.1476245">
        <ele>262.0</ele>
        <time>2020-11-01T11:11:19Z</time>
      </trkpt>
      <trkpt lat="43.267128" lon="-5.147634">
        <ele>262.0</ele>
        <time>2020-11-01T11:11:20Z</time>
      </trkpt>
      <trkpt lat="43.267117" lon="-5.147641">
        <ele>262.0</ele>
        <time>2020-11-01T11:11:21Z</time>
      </trkpt>
      <trkpt lat="43.26711" lon="-5.147648">
        <ele>262.0</ele>
        <time>2020-11-01T11:11:22Z</time>
      </trkpt>
      <trkpt lat="43.2671" lon="-5.1476536">
        <ele>262.0</ele>
        <time>2020-11-01T11:11:23Z</time>
      </trkpt>
      <trkpt lat="43.267097" lon="-5.147658">
        <ele>262.0</ele>
        <time>2020-11-01T11:11:24Z</time>
      </trkpt>
      <trkpt lat="43.267094" lon="-5.147661">
        <ele>262.0</ele>
        <time>2020-11-01T11:11:25Z</time>
      </trkpt>
      <trkpt lat="43.267086" lon="-5.1476645">
        <ele>262.0</ele>
        <time>2020-11-01T11:11:26Z</time>
      </trkpt>
      <trkpt lat="43.267082" lon="-5.1476655">
        <ele>262.0</ele>
        <time>2020-11-01T11:11:27Z</time>
      </trkpt>
      <trkpt lat="43.267082" lon="-5.147667">
        <ele>262.0</ele>
        <time>2020-11-01T11:11:28Z</time>
      </trkpt>
      <trkpt lat="43.26708" lon="-5.1476727">
        <ele>262.0</ele>
        <time>2020-11-01T11:11:29Z</time>
      </trkpt>
      <trkpt lat="43.26707" lon="-5.147679">
        <ele>262.0</ele>
        <time>2020-11-01T11:11:30Z</time>
      </trkpt>
      <trkpt lat="43.267063" lon="-5.147688">
        <ele>262.0</ele>
        <time>2020-11-01T11:11:32Z</time>
      </trkpt>
      <trkpt lat="43.267063" lon="-5.147687">
        <ele>262.0</ele>
        <time>2020-11-01T11:11:33Z</time>
      </trkpt>
      <trkpt lat="43.26705" lon="-5.147696">
        <ele>262.0</ele>
        <time>2020-11-01T11:11:35Z</time>
      </trkpt>
      <trkpt lat="43.267048" lon="-5.1477">
        <ele>262.0</ele>
        <time>2020-11-01T11:11:36Z</time>
      </trkpt>
      <trkpt lat="43.26704" lon="-5.14771">
        <ele>262.0</ele>
        <time>2020-11-01T11:11:37Z</time>
      </trkpt>
      <trkpt lat="43.267033" lon="-5.1477203">
        <ele>262.0</ele>
        <time>2020-11-01T11:11:38Z</time>
      </trkpt>
      <trkpt lat="43.26702" lon="-5.147726">
        <ele>263.0</ele>
        <time>2020-11-01T11:11:39Z</time>
      </trkpt>
      <trkpt lat="43.26701" lon="-5.147729">
        <ele>263.0</ele>
        <time>2020-11-01T11:11:40Z</time>
      </trkpt>
      <trkpt lat="43.267002" lon="-5.1477304">
        <ele>263.0</ele>
        <time>2020-11-01T11:11:41Z</time>
      </trkpt>
      <trkpt lat="43.26699" lon="-5.1477284">
        <ele>263.0</ele>
        <time>2020-11-01T11:11:42Z</time>
      </trkpt>
      <trkpt lat="43.266987" lon="-5.1477246">
        <ele>263.0</ele>
        <time>2020-11-01T11:11:43Z</time>
      </trkpt>
      <trkpt lat="43.266975" lon="-5.14772">
        <ele>263.0</ele>
        <time>2020-11-01T11:11:44Z</time>
      </trkpt>
      <trkpt lat="43.266968" lon="-5.147713">
        <ele>263.0</ele>
        <time>2020-11-01T11:11:45Z</time>
      </trkpt>
      <trkpt lat="43.26696" lon="-5.1476974">
        <ele>263.0</ele>
        <time>2020-11-01T11:11:47Z</time>
      </trkpt>
      <trkpt lat="43.266953" lon="-5.1476984">
        <ele>263.0</ele>
        <time>2020-11-01T11:11:48Z</time>
      </trkpt>
      <trkpt lat="43.26695" lon="-5.1477027">
        <ele>263.0</ele>
        <time>2020-11-01T11:11:49Z</time>
      </trkpt>
      <trkpt lat="43.266945" lon="-5.1477046">
        <ele>263.0</ele>
        <time>2020-11-01T11:11:50Z</time>
      </trkpt>
      <trkpt lat="43.266937" lon="-5.147703">
        <ele>263.0</ele>
        <time>2020-11-01T11:11:51Z</time>
      </trkpt>
      <trkpt lat="43.266937" lon="-5.1477">
        <ele>263.0</ele>
        <time>2020-11-01T11:11:52Z</time>
      </trkpt>
      <trkpt lat="43.266933" lon="-5.147695">
        <ele>263.0</ele>
        <time>2020-11-01T11:11:53Z</time>
      </trkpt>
      <trkpt lat="43.266933" lon="-5.14769">
        <ele>264.0</ele>
        <time>2020-11-01T11:11:54Z</time>
      </trkpt>
      <trkpt lat="43.26693" lon="-5.147682">
        <ele>264.0</ele>
        <time>2020-11-01T11:11:55Z</time>
      </trkpt>
      <trkpt lat="43.26692" lon="-5.147668">
        <ele>264.0</ele>
        <time>2020-11-01T11:11:57Z</time>
      </trkpt>
      <trkpt lat="43.26692" lon="-5.147672">
        <ele>264.0</ele>
        <time>2020-11-01T11:11:58Z</time>
      </trkpt>
      <trkpt lat="43.266914" lon="-5.1476836">
        <ele>264.0</ele>
        <time>2020-11-01T11:11:59Z</time>
      </trkpt>
      <trkpt lat="43.266914" lon="-5.1477027">
        <ele>264.0</ele>
        <time>2020-11-01T11:12:00Z</time>
      </trkpt>
      <trkpt lat="43.266914" lon="-5.1477213">
        <ele>264.0</ele>
        <time>2020-11-01T11:12:01Z</time>
      </trkpt>
      <trkpt lat="43.266914" lon="-5.147742">
        <ele>265.0</ele>
        <time>2020-11-01T11:12:02Z</time>
      </trkpt>
      <trkpt lat="43.266914" lon="-5.1477547">
        <ele>265.0</ele>
        <time>2020-11-01T11:12:03Z</time>
      </trkpt>
      <trkpt lat="43.266914" lon="-5.147765">
        <ele>265.0</ele>
        <time>2020-11-01T11:12:04Z</time>
      </trkpt>
      <trkpt lat="43.266914" lon="-5.1477704">
        <ele>265.0</ele>
        <time>2020-11-01T11:12:05Z</time>
      </trkpt>
      <trkpt lat="43.266914" lon="-5.147774">
        <ele>265.0</ele>
        <time>2020-11-01T11:12:06Z</time>
      </trkpt>
      <trkpt lat="43.266914" lon="-5.1477757">
        <ele>265.0</ele>
        <time>2020-11-01T11:12:07Z</time>
      </trkpt>
      <trkpt lat="43.266907" lon="-5.1477785">
        <ele>265.0</ele>
        <time>2020-11-01T11:12:08Z</time>
      </trkpt>
      <trkpt lat="43.266907" lon="-5.147781">
        <ele>265.0</ele>
        <time>2020-11-01T11:12:09Z</time>
      </trkpt>
      <trkpt lat="43.266907" lon="-5.147787">
        <ele>265.0</ele>
        <time>2020-11-01T11:12:10Z</time>
      </trkpt>
      <trkpt lat="43.266907" lon="-5.1477933">
        <ele>265.0</ele>
        <time>2020-11-01T11:12:12Z</time>
      </trkpt>
      <trkpt lat="43.266907" lon="-5.1478014">
        <ele>265.0</ele>
        <time>2020-11-01T11:12:12Z</time>
      </trkpt>
      <trkpt lat="43.266907" lon="-5.1478076">
        <ele>266.0</ele>
        <time>2020-11-01T11:12:13Z</time>
      </trkpt>
      <trkpt lat="43.266907" lon="-5.1478105">
        <ele>266.0</ele>
        <time>2020-11-01T11:12:14Z</time>
      </trkpt>
      <trkpt lat="43.266907" lon="-5.1478124">
        <ele>266.0</ele>
        <time>2020-11-01T11:12:15Z</time>
      </trkpt>
      <trkpt lat="43.266907" lon="-5.1478133">
        <ele>266.0</ele>
        <time>2020-11-01T11:12:16Z</time>
      </trkpt>
      <trkpt lat="43.266914" lon="-5.1478257">
        <ele>266.0</ele>
        <time>2020-11-01T11:12:19Z</time>
      </trkpt>
      <trkpt lat="43.266914" lon="-5.1478276">
        <ele>266.0</ele>
        <time>2020-11-01T11:12:21Z</time>
      </trkpt>
      <trkpt lat="43.266907" lon="-5.147828">
        <ele>266.0</ele>
        <time>2020-11-01T11:12:23Z</time>
      </trkpt>
      <trkpt lat="43.266903" lon="-5.147825">
        <ele>266.0</ele>
        <time>2020-11-01T11:12:23Z</time>
      </trkpt>
      <trkpt lat="43.26689" lon="-5.147822">
        <ele>266.0</ele>
        <time>2020-11-01T11:12:24Z</time>
      </trkpt>
      <trkpt lat="43.266884" lon="-5.147822">
        <ele>266.0</ele>
        <time>2020-11-01T11:12:25Z</time>
      </trkpt>
      <trkpt lat="43.266876" lon="-5.1478214">
        <ele>266.0</ele>
        <time>2020-11-01T11:12:26Z</time>
      </trkpt>
      <trkpt lat="43.266872" lon="-5.147824">
        <ele>266.0</ele>
        <time>2020-11-01T11:12:27Z</time>
      </trkpt>
      <trkpt lat="43.26686" lon="-5.147832">
        <ele>266.0</ele>
        <time>2020-11-01T11:12:28Z</time>
      </trkpt>
      <trkpt lat="43.266857" lon="-5.147843">
        <ele>266.0</ele>
        <time>2020-11-01T11:12:29Z</time>
      </trkpt>
      <trkpt lat="43.266853" lon="-5.147853">
        <ele>266.0</ele>
        <time>2020-11-01T11:12:30Z</time>
      </trkpt>
      <trkpt lat="43.266846" lon="-5.1478605">
        <ele>266.0</ele>
        <time>2020-11-01T11:12:31Z</time>
      </trkpt>
      <trkpt lat="43.26684" lon="-5.147871">
        <ele>266.0</ele>
        <time>2020-11-01T11:12:33Z</time>
      </trkpt>
      <trkpt lat="43.26684" lon="-5.1478696">
        <ele>266.0</ele>
        <time>2020-11-01T11:12:34Z</time>
      </trkpt>
      <trkpt lat="43.26684" lon="-5.1478667">
        <ele>266.0</ele>
        <time>2020-11-01T11:12:35Z</time>
      </trkpt>
      <trkpt lat="43.266838" lon="-5.147862">
        <ele>266.0</ele>
        <time>2020-11-01T11:12:36Z</time>
      </trkpt>
      <trkpt lat="43.266838" lon="-5.1478586">
        <ele>266.0</ele>
        <time>2020-11-01T11:12:37Z</time>
      </trkpt>
      <trkpt lat="43.26683" lon="-5.147854">
        <ele>266.0</ele>
        <time>2020-11-01T11:12:48Z</time>
      </trkpt>
      <trkpt lat="43.266827" lon="-5.147854">
        <ele>266.0</ele>
        <time>2020-11-01T11:12:49Z</time>
      </trkpt>
      <trkpt lat="43.266823" lon="-5.147855">
        <ele>266.0</ele>
        <time>2020-11-01T11:12:50Z</time>
      </trkpt>
      <trkpt lat="43.266815" lon="-5.1478605">
        <ele>266.0</ele>
        <time>2020-11-01T11:12:51Z</time>
      </trkpt>
      <trkpt lat="43.266808" lon="-5.147872">
        <ele>266.0</ele>
        <time>2020-11-01T11:12:53Z</time>
      </trkpt>
      <trkpt lat="43.266796" lon="-5.1478853">
        <ele>266.0</ele>
        <time>2020-11-01T11:12:53Z</time>
      </trkpt>
      <trkpt lat="43.266785" lon="-5.1478987">
        <ele>266.0</ele>
        <time>2020-11-01T11:12:54Z</time>
      </trkpt>
      <trkpt lat="43.266773" lon="-5.1479087">
        <ele>266.0</ele>
        <time>2020-11-01T11:12:55Z</time>
      </trkpt>
      <trkpt lat="43.266758" lon="-5.1479197">
        <ele>268.0</ele>
        <time>2020-11-01T11:12:56Z</time>
      </trkpt>
      <trkpt lat="43.26675" lon="-5.14793">
        <ele>268.0</ele>
        <time>2020-11-01T11:12:57Z</time>
      </trkpt>
      <trkpt lat="43.26674" lon="-5.147939">
        <ele>268.0</ele>
        <time>2020-11-01T11:12:58Z</time>
      </trkpt>
      <trkpt lat="43.266727" lon="-5.147946">
        <ele>268.0</ele>
        <time>2020-11-01T11:12:59Z</time>
      </trkpt>
      <trkpt lat="43.266724" lon="-5.147952">
        <ele>269.0</ele>
        <time>2020-11-01T11:13:00Z</time>
      </trkpt>
      <trkpt lat="43.26671" lon="-5.147966">
        <ele>269.0</ele>
        <time>2020-11-01T11:13:02Z</time>
      </trkpt>
      <trkpt lat="43.266705" lon="-5.1479645">
        <ele>269.0</ele>
        <time>2020-11-01T11:13:03Z</time>
      </trkpt>
      <trkpt lat="43.266697" lon="-5.147961">
        <ele>269.0</ele>
        <time>2020-11-01T11:13:05Z</time>
      </trkpt>
      <trkpt lat="43.266697" lon="-5.147961">
        <ele>269.0</ele>
        <time>2020-11-01T11:13:06Z</time>
      </trkpt>
      <trkpt lat="43.266712" lon="-5.147966">
        <ele>269.0</ele>
        <time>2020-11-01T11:13:08Z</time>
      </trkpt>
      <trkpt lat="43.26672" lon="-5.147966">
        <ele>269.0</ele>
        <time>2020-11-01T11:13:09Z</time>
      </trkpt>
      <trkpt lat="43.26672" lon="-5.147962">
        <ele>270.0</ele>
        <time>2020-11-01T11:13:10Z</time>
      </trkpt>
      <trkpt lat="43.26672" lon="-5.147954">
        <ele>270.0</ele>
        <time>2020-11-01T11:13:11Z</time>
      </trkpt>
      <trkpt lat="43.26672" lon="-5.1479483">
        <ele>270.0</ele>
        <time>2020-11-01T11:13:12Z</time>
      </trkpt>
      <trkpt lat="43.266724" lon="-5.147946">
        <ele>270.0</ele>
        <time>2020-11-01T11:13:13Z</time>
      </trkpt>
      <trkpt lat="43.266727" lon="-5.1479464">
        <ele>271.0</ele>
        <time>2020-11-01T11:13:14Z</time>
      </trkpt>
      <trkpt lat="43.26674" lon="-5.1479487">
        <ele>271.0</ele>
        <time>2020-11-01T11:13:15Z</time>
      </trkpt>
      <trkpt lat="43.26675" lon="-5.147951">
        <ele>271.0</ele>
        <time>2020-11-01T11:13:16Z</time>
      </trkpt>
      <trkpt lat="43.266754" lon="-5.1479535">
        <ele>271.0</ele>
        <time>2020-11-01T11:13:17Z</time>
      </trkpt>
      <trkpt lat="43.266758" lon="-5.1479535">
        <ele>271.0</ele>
        <time>2020-11-01T11:13:18Z</time>
      </trkpt>
      <trkpt lat="43.266766" lon="-5.1479554">
        <ele>271.0</ele>
        <time>2020-11-01T11:13:19Z</time>
      </trkpt>
      <trkpt lat="43.26677" lon="-5.147956">
        <ele>272.0</ele>
        <time>2020-11-01T11:13:20Z</time>
      </trkpt>
      <trkpt lat="43.26677" lon="-5.1479554">
        <ele>272.0</ele>
        <time>2020-11-01T11:13:21Z</time>
      </trkpt>
      <trkpt lat="43.266773" lon="-5.147955">
        <ele>272.0</ele>
        <time>2020-11-01T11:13:22Z</time>
      </trkpt>
      <trkpt lat="43.266792" lon="-5.147959">
        <ele>272.0</ele>
        <time>2020-11-01T11:13:24Z</time>
      </trkpt>
      <trkpt lat="43.266796" lon="-5.1479597">
        <ele>272.0</ele>
        <time>2020-11-01T11:13:25Z</time>
      </trkpt>
      <trkpt lat="43.266796" lon="-5.1479583">
        <ele>272.0</ele>
        <time>2020-11-01T11:13:26Z</time>
      </trkpt>
      <trkpt lat="43.2668" lon="-5.1479545">
        <ele>273.0</ele>
        <time>2020-11-01T11:13:27Z</time>
      </trkpt>
      <trkpt lat="43.2668" lon="-5.1479497">
        <ele>273.0</ele>
        <time>2020-11-01T11:13:28Z</time>
      </trkpt>
      <trkpt lat="43.266808" lon="-5.1479473">
        <ele>273.0</ele>
        <time>2020-11-01T11:13:29Z</time>
      </trkpt>
      <trkpt lat="43.266815" lon="-5.1479445">
        <ele>273.0</ele>
        <time>2020-11-01T11:13:31Z</time>
      </trkpt>
      <trkpt lat="43.266815" lon="-5.1479445">
        <ele>273.0</ele>
        <time>2020-11-01T11:13:33Z</time>
      </trkpt>
      <trkpt lat="43.266823" lon="-5.1479506">
        <ele>274.0</ele>
        <time>2020-11-01T11:13:34Z</time>
      </trkpt>
      <trkpt lat="43.266823" lon="-5.1479535">
        <ele>274.0</ele>
        <time>2020-11-01T11:13:35Z</time>
      </trkpt>
      <trkpt lat="43.266827" lon="-5.147957">
        <ele>274.0</ele>
        <time>2020-11-01T11:13:36Z</time>
      </trkpt>
      <trkpt lat="43.266827" lon="-5.1479626">
        <ele>274.0</ele>
        <time>2020-11-01T11:13:36Z</time>
      </trkpt>
      <trkpt lat="43.26683" lon="-5.147969">
        <ele>275.0</ele>
        <time>2020-11-01T11:13:37Z</time>
      </trkpt>
      <trkpt lat="43.26683" lon="-5.14797">
        <ele>275.0</ele>
        <time>2020-11-01T11:13:38Z</time>
      </trkpt>
      <trkpt lat="43.266838" lon="-5.1479697">
        <ele>275.0</ele>
        <time>2020-11-01T11:13:39Z</time>
      </trkpt>
      <trkpt lat="43.266838" lon="-5.147969">
        <ele>275.0</ele>
        <time>2020-11-01T11:13:40Z</time>
      </trkpt>
      <trkpt lat="43.266838" lon="-5.147966">
        <ele>276.0</ele>
        <time>2020-11-01T11:13:41Z</time>
      </trkpt>
      <trkpt lat="43.26683" lon="-5.1479626">
        <ele>276.0</ele>
        <time>2020-11-01T11:13:42Z</time>
      </trkpt>
      <trkpt lat="43.26683" lon="-5.1479583">
        <ele>276.0</ele>
        <time>2020-11-01T11:13:43Z</time>
      </trkpt>
      <trkpt lat="43.266838" lon="-5.147956">
        <ele>276.0</ele>
        <time>2020-11-01T11:13:45Z</time>
      </trkpt>
      <trkpt lat="43.266838" lon="-5.1479564">
        <ele>276.0</ele>
        <time>2020-11-01T11:13:46Z</time>
      </trkpt>
      <trkpt lat="43.26684" lon="-5.147959">
        <ele>276.0</ele>
        <time>2020-11-01T11:13:47Z</time>
      </trkpt>
      <trkpt lat="43.26684" lon="-5.147961">
        <ele>276.0</ele>
        <time>2020-11-01T11:13:49Z</time>
      </trkpt>
      <trkpt lat="43.266846" lon="-5.147963">
        <ele>276.0</ele>
        <time>2020-11-01T11:13:49Z</time>
      </trkpt>
      <trkpt lat="43.266853" lon="-5.1479654">
        <ele>276.0</ele>
        <time>2020-11-01T11:13:50Z</time>
      </trkpt>
      <trkpt lat="43.266857" lon="-5.147969">
        <ele>276.0</ele>
        <time>2020-11-01T11:13:51Z</time>
      </trkpt>
      <trkpt lat="43.26686" lon="-5.147973">
        <ele>276.0</ele>
        <time>2020-11-01T11:13:52Z</time>
      </trkpt>
      <trkpt lat="43.26687" lon="-5.1479764">
        <ele>276.0</ele>
        <time>2020-11-01T11:13:53Z</time>
      </trkpt>
      <trkpt lat="43.266872" lon="-5.1479774">
        <ele>277.0</ele>
        <time>2020-11-01T11:13:54Z</time>
      </trkpt>
      <trkpt lat="43.266876" lon="-5.147979">
        <ele>277.0</ele>
        <time>2020-11-01T11:13:55Z</time>
      </trkpt>
      <trkpt lat="43.266884" lon="-5.147979">
        <ele>277.0</ele>
        <time>2020-11-01T11:13:56Z</time>
      </trkpt>
      <trkpt lat="43.266888" lon="-5.1479764">
        <ele>277.0</ele>
        <time>2020-11-01T11:13:57Z</time>
      </trkpt>
      <trkpt lat="43.266907" lon="-5.147976">
        <ele>277.0</ele>
        <time>2020-11-01T11:13:59Z</time>
      </trkpt>
      <trkpt lat="43.266907" lon="-5.147976">
        <ele>277.0</ele>
        <time>2020-11-01T11:14:00Z</time>
      </trkpt>
      <trkpt lat="43.266914" lon="-5.147977">
        <ele>278.0</ele>
        <time>2020-11-01T11:14:01Z</time>
      </trkpt>
      <trkpt lat="43.26692" lon="-5.147979">
        <ele>278.0</ele>
        <time>2020-11-01T11:14:03Z</time>
      </trkpt>
      <trkpt lat="43.266922" lon="-5.14798">
        <ele>278.0</ele>
        <time>2020-11-01T11:14:03Z</time>
      </trkpt>
      <trkpt lat="43.26693" lon="-5.1479816">
        <ele>278.0</ele>
        <time>2020-11-01T11:14:04Z</time>
      </trkpt>
      <trkpt lat="43.266937" lon="-5.1479893">
        <ele>278.0</ele>
        <time>2020-11-01T11:14:07Z</time>
      </trkpt>
      <trkpt lat="43.266937" lon="-5.1479897">
        <ele>279.0</ele>
        <time>2020-11-01T11:14:08Z</time>
      </trkpt>
      <trkpt lat="43.266937" lon="-5.147993">
        <ele>279.0</ele>
        <time>2020-11-01T11:14:09Z</time>
      </trkpt>
      <trkpt lat="43.266945" lon="-5.147995">
        <ele>279.0</ele>
        <time>2020-11-01T11:14:10Z</time>
      </trkpt>
      <trkpt lat="43.26695" lon="-5.147996">
        <ele>280.0</ele>
        <time>2020-11-01T11:14:11Z</time>
      </trkpt>
      <trkpt lat="43.266953" lon="-5.147998">
        <ele>280.0</ele>
        <time>2020-11-01T11:14:12Z</time>
      </trkpt>
      <trkpt lat="43.266953" lon="-5.148001">
        <ele>280.0</ele>
        <time>2020-11-01T11:14:13Z</time>
      </trkpt>
      <trkpt lat="43.26696" lon="-5.148005">
        <ele>280.0</ele>
        <time>2020-11-01T11:14:14Z</time>
      </trkpt>
      <trkpt lat="43.266964" lon="-5.148009">
        <ele>280.0</ele>
        <time>2020-11-01T11:14:15Z</time>
      </trkpt>
      <trkpt lat="43.266975" lon="-5.1480207">
        <ele>281.0</ele>
        <time>2020-11-01T11:14:17Z</time>
      </trkpt>
      <trkpt lat="43.26698" lon="-5.1480255">
        <ele>281.0</ele>
        <time>2020-11-01T11:14:18Z</time>
      </trkpt>
      <trkpt lat="43.26699" lon="-5.148038">
        <ele>281.0</ele>
        <time>2020-11-01T11:14:20Z</time>
      </trkpt>
      <trkpt lat="43.26701" lon="-5.1480594">
        <ele>281.0</ele>
        <time>2020-11-01T11:14:20Z</time>
      </trkpt>
      <trkpt lat="43.267036" lon="-5.1480846">
        <ele>281.0</ele>
        <time>2020-11-01T11:14:21Z</time>
      </trkpt>
      <trkpt lat="43.267056" lon="-5.148107">
        <ele>281.0</ele>
        <time>2020-11-01T11:14:22Z</time>
      </trkpt>
      <trkpt lat="43.267063" lon="-5.1481204">
        <ele>281.0</ele>
        <time>2020-11-01T11:14:23Z</time>
      </trkpt>
      <trkpt lat="43.267063" lon="-5.148128">
        <ele>281.0</ele>
        <time>2020-11-01T11:14:24Z</time>
      </trkpt>
      <trkpt lat="43.267063" lon="-5.1481338">
        <ele>281.0</ele>
        <time>2020-11-01T11:14:25Z</time>
      </trkpt>
      <trkpt lat="43.267056" lon="-5.148138">
        <ele>281.0</ele>
        <time>2020-11-01T11:14:26Z</time>
      </trkpt>
      <trkpt lat="43.267056" lon="-5.148142">
        <ele>281.0</ele>
        <time>2020-11-01T11:14:27Z</time>
      </trkpt>
      <trkpt lat="43.26705" lon="-5.1481457">
        <ele>281.0</ele>
        <time>2020-11-01T11:14:29Z</time>
      </trkpt>
      <trkpt lat="43.267048" lon="-5.148151">
        <ele>281.0</ele>
        <time>2020-11-01T11:14:29Z</time>
      </trkpt>
      <trkpt lat="43.26704" lon="-5.1481566">
        <ele>281.0</ele>
        <time>2020-11-01T11:14:30Z</time>
      </trkpt>
      <trkpt lat="43.267036" lon="-5.1481605">
        <ele>281.0</ele>
        <time>2020-11-01T11:14:31Z</time>
      </trkpt>
      <trkpt lat="43.267033" lon="-5.1481643">
        <ele>281.0</ele>
        <time>2020-11-01T11:14:32Z</time>
      </trkpt>
      <trkpt lat="43.26702" lon="-5.148168">
        <ele>281.0</ele>
        <time>2020-11-01T11:14:33Z</time>
      </trkpt>
      <trkpt lat="43.267017" lon="-5.1481724">
        <ele>281.0</ele>
        <time>2020-11-01T11:14:34Z</time>
      </trkpt>
      <trkpt lat="43.267017" lon="-5.1481776">
        <ele>281.0</ele>
        <time>2020-11-01T11:14:35Z</time>
      </trkpt>
      <trkpt lat="43.26701" lon="-5.148184">
        <ele>281.0</ele>
        <time>2020-11-01T11:14:36Z</time>
      </trkpt>
      <trkpt lat="43.267006" lon="-5.1481895">
        <ele>282.0</ele>
        <time>2020-11-01T11:14:38Z</time>
      </trkpt>
      <trkpt lat="43.266994" lon="-5.1482058">
        <ele>282.0</ele>
        <time>2020-11-01T11:14:39Z</time>
      </trkpt>
      <trkpt lat="43.266994" lon="-5.148209">
        <ele>282.0</ele>
        <time>2020-11-01T11:14:40Z</time>
      </trkpt>
      <trkpt lat="43.266994" lon="-5.148215">
        <ele>282.0</ele>
        <time>2020-11-01T11:14:41Z</time>
      </trkpt>
      <trkpt lat="43.26699" lon="-5.148221">
        <ele>282.0</ele>
        <time>2020-11-01T11:14:42Z</time>
      </trkpt>
      <trkpt lat="43.26699" lon="-5.148225">
        <ele>283.0</ele>
        <time>2020-11-01T11:14:43Z</time>
      </trkpt>
      <trkpt lat="43.266987" lon="-5.1482306">
        <ele>283.0</ele>
        <time>2020-11-01T11:14:44Z</time>
      </trkpt>
      <trkpt lat="43.26698" lon="-5.148235">
        <ele>283.0</ele>
        <time>2020-11-01T11:14:46Z</time>
      </trkpt>
      <trkpt lat="43.266975" lon="-5.1482406">
        <ele>283.0</ele>
        <time>2020-11-01T11:14:46Z</time>
      </trkpt>
      <trkpt lat="43.266975" lon="-5.1482477">
        <ele>283.0</ele>
        <time>2020-11-01T11:14:47Z</time>
      </trkpt>
      <trkpt lat="43.266975" lon="-5.1482587">
        <ele>284.0</ele>
        <time>2020-11-01T11:14:48Z</time>
      </trkpt>
      <trkpt lat="43.266975" lon="-5.1482697">
        <ele>284.0</ele>
        <time>2020-11-01T11:14:49Z</time>
      </trkpt>
      <trkpt lat="43.266975" lon="-5.148282">
        <ele>284.0</ele>
        <time>2020-11-01T11:14:50Z</time>
      </trkpt>
      <trkpt lat="43.266968" lon="-5.148293">
        <ele>284.0</ele>
        <time>2020-11-01T11:14:51Z</time>
      </trkpt>
      <trkpt lat="43.266964" lon="-5.1483">
        <ele>284.0</ele>
        <time>2020-11-01T11:14:52Z</time>
      </trkpt>
      <trkpt lat="43.266964" lon="-5.148307">
        <ele>284.0</ele>
        <time>2020-11-01T11:14:53Z</time>
      </trkpt>
      <trkpt lat="43.26696" lon="-5.1483154">
        <ele>285.0</ele>
        <time>2020-11-01T11:14:54Z</time>
      </trkpt>
      <trkpt lat="43.26696" lon="-5.148324">
        <ele>285.0</ele>
        <time>2020-11-01T11:14:55Z</time>
      </trkpt>
      <trkpt lat="43.26696" lon="-5.1483316">
        <ele>285.0</ele>
        <time>2020-11-01T11:14:56Z</time>
      </trkpt>
      <trkpt lat="43.266953" lon="-5.148338">
        <ele>285.0</ele>
        <time>2020-11-01T11:14:57Z</time>
      </trkpt>
      <trkpt lat="43.26695" lon="-5.1483445">
        <ele>285.0</ele>
        <time>2020-11-01T11:14:58Z</time>
      </trkpt>
      <trkpt lat="43.266945" lon="-5.148351">
        <ele>285.0</ele>
        <time>2020-11-01T11:14:59Z</time>
      </trkpt>
      <trkpt lat="43.266933" lon="-5.1483655">
        <ele>286.0</ele>
        <time>2020-11-01T11:15:01Z</time>
      </trkpt>
      <trkpt lat="43.266933" lon="-5.148366">
        <ele>286.0</ele>
        <time>2020-11-01T11:15:02Z</time>
      </trkpt>
      <trkpt lat="43.26693" lon="-5.1483684">
        <ele>286.0</ele>
        <time>2020-11-01T11:15:03Z</time>
      </trkpt>
      <trkpt lat="43.266922" lon="-5.1483717">
        <ele>286.0</ele>
        <time>2020-11-01T11:15:04Z</time>
      </trkpt>
      <trkpt lat="43.266914" lon="-5.1483746">
        <ele>286.0</ele>
        <time>2020-11-01T11:15:05Z</time>
      </trkpt>
      <trkpt lat="43.266907" lon="-5.1483755">
        <ele>287.0</ele>
        <time>2020-11-01T11:15:06Z</time>
      </trkpt>
      <trkpt lat="43.266903" lon="-5.1483765">
        <ele>287.0</ele>
        <time>2020-11-01T11:15:07Z</time>
      </trkpt>
      <trkpt lat="43.26689" lon="-5.1483855">
        <ele>287.0</ele>
        <time>2020-11-01T11:15:09Z</time>
      </trkpt>
      <trkpt lat="43.266888" lon="-5.148386">
        <ele>287.0</ele>
        <time>2020-11-01T11:15:10Z</time>
      </trkpt>
      <trkpt lat="43.266888" lon="-5.1483865">
        <ele>287.0</ele>
        <time>2020-11-01T11:15:11Z</time>
      </trkpt>
      <trkpt lat="43.266888" lon="-5.148388">
        <ele>287.0</ele>
        <time>2020-11-01T11:15:12Z</time>
      </trkpt>
      <trkpt lat="43.266884" lon="-5.1483884">
        <ele>287.0</ele>
        <time>2020-11-01T11:15:13Z</time>
      </trkpt>
      <trkpt lat="43.266884" lon="-5.148389">
        <ele>287.0</ele>
        <time>2020-11-01T11:15:14Z</time>
      </trkpt>
      <trkpt lat="43.266872" lon="-5.1483855">
        <ele>287.0</ele>
        <time>2020-11-01T11:15:19Z</time>
      </trkpt>
      <trkpt lat="43.266872" lon="-5.148386">
        <ele>287.0</ele>
        <time>2020-11-01T11:15:20Z</time>
      </trkpt>
      <trkpt lat="43.266872" lon="-5.1483865">
        <ele>287.0</ele>
        <time>2020-11-01T11:15:21Z</time>
      </trkpt>
      <trkpt lat="43.266872" lon="-5.1483874">
        <ele>287.0</ele>
        <time>2020-11-01T11:15:24Z</time>
      </trkpt>
      <trkpt lat="43.266872" lon="-5.1483874">
        <ele>287.0</ele>
        <time>2020-11-01T11:15:25Z</time>
      </trkpt>
      <trkpt lat="43.266872" lon="-5.148386">
        <ele>287.0</ele>
        <time>2020-11-01T11:15:26Z</time>
      </trkpt>
      <trkpt lat="43.266872" lon="-5.148381">
        <ele>287.0</ele>
        <time>2020-11-01T11:15:27Z</time>
      </trkpt>
      <trkpt lat="43.266872" lon="-5.1483755">
        <ele>287.0</ele>
        <time>2020-11-01T11:15:28Z</time>
      </trkpt>
      <trkpt lat="43.266872" lon="-5.148371">
        <ele>288.0</ele>
        <time>2020-11-01T11:15:29Z</time>
      </trkpt>
      <trkpt lat="43.266872" lon="-5.148367">
        <ele>288.0</ele>
        <time>2020-11-01T11:15:30Z</time>
      </trkpt>
      <trkpt lat="43.266876" lon="-5.148364">
        <ele>288.0</ele>
        <time>2020-11-01T11:15:31Z</time>
      </trkpt>
      <trkpt lat="43.266884" lon="-5.1483617">
        <ele>288.0</ele>
        <time>2020-11-01T11:15:32Z</time>
      </trkpt>
      <trkpt lat="43.266884" lon="-5.148357">
        <ele>288.0</ele>
        <time>2020-11-01T11:15:33Z</time>
      </trkpt>
      <trkpt lat="43.266888" lon="-5.148355">
        <ele>288.0</ele>
        <time>2020-11-01T11:15:34Z</time>
      </trkpt>
      <trkpt lat="43.26689" lon="-5.1483536">
        <ele>288.0</ele>
        <time>2020-11-01T11:15:36Z</time>
      </trkpt>
      <trkpt lat="43.26689" lon="-5.148353">
        <ele>289.0</ele>
        <time>2020-11-01T11:15:36Z</time>
      </trkpt>
      <trkpt lat="43.2669" lon="-5.148357">
        <ele>289.0</ele>
        <time>2020-11-01T11:15:39Z</time>
      </trkpt>
      <trkpt lat="43.2669" lon="-5.148358">
        <ele>289.0</ele>
        <time>2020-11-01T11:15:40Z</time>
      </trkpt>
      <trkpt lat="43.266903" lon="-5.148359">
        <ele>289.0</ele>
        <time>2020-11-01T11:15:43Z</time>
      </trkpt>
      <trkpt lat="43.266914" lon="-5.1483502">
        <ele>289.0</ele>
        <time>2020-11-01T11:16:05Z</time>
      </trkpt>
      <trkpt lat="43.266914" lon="-5.148349">
        <ele>289.0</ele>
        <time>2020-11-01T11:16:06Z</time>
      </trkpt>
      <trkpt lat="43.266914" lon="-5.148346">
        <ele>289.0</ele>
        <time>2020-11-01T11:16:07Z</time>
      </trkpt>
      <trkpt lat="43.26692" lon="-5.1483426">
        <ele>289.0</ele>
        <time>2020-11-01T11:16:08Z</time>
      </trkpt>
      <trkpt lat="43.266922" lon="-5.148339">
        <ele>289.0</ele>
        <time>2020-11-01T11:16:09Z</time>
      </trkpt>
      <trkpt lat="43.26693" lon="-5.148334">
        <ele>289.0</ele>
        <time>2020-11-01T11:16:10Z</time>
      </trkpt>
      <trkpt lat="43.266933" lon="-5.14833">
        <ele>289.0</ele>
        <time>2020-11-01T11:16:11Z</time>
      </trkpt>
      <trkpt lat="43.266937" lon="-5.148328">
        <ele>289.0</ele>
        <time>2020-11-01T11:16:12Z</time>
      </trkpt>
      <trkpt lat="43.266945" lon="-5.148326">
        <ele>289.0</ele>
        <time>2020-11-01T11:16:13Z</time>
      </trkpt>
      <trkpt lat="43.26695" lon="-5.148326">
        <ele>289.0</ele>
        <time>2020-11-01T11:16:14Z</time>
      </trkpt>
      <trkpt lat="43.266953" lon="-5.148325">
        <ele>289.0</ele>
        <time>2020-11-01T11:16:15Z</time>
      </trkpt>
      <trkpt lat="43.266964" lon="-5.1483192">
        <ele>289.0</ele>
        <time>2020-11-01T11:16:20Z</time>
      </trkpt>
      <trkpt lat="43.266964" lon="-5.1483183">
        <ele>289.0</ele>
        <time>2020-11-01T11:16:21Z</time>
      </trkpt>
      <trkpt lat="43.26696" lon="-5.148314">
        <ele>289.0</ele>
        <time>2020-11-01T11:16:32Z</time>
      </trkpt>
      <trkpt lat="43.266953" lon="-5.1483006">
        <ele>289.0</ele>
        <time>2020-11-01T11:16:40Z</time>
      </trkpt>
      <trkpt lat="43.266953" lon="-5.1482997">
        <ele>289.0</ele>
        <time>2020-11-01T11:16:41Z</time>
      </trkpt>
      <trkpt lat="43.26695" lon="-5.148296">
        <ele>289.0</ele>
        <time>2020-11-01T11:16:44Z</time>
      </trkpt>
      <trkpt lat="43.266945" lon="-5.148292">
        <ele>289.0</ele>
        <time>2020-11-01T11:16:47Z</time>
      </trkpt>
      <trkpt lat="43.266937" lon="-5.1482887">
        <ele>289.0</ele>
        <time>2020-11-01T11:17:03Z</time>
      </trkpt>
      <trkpt lat="43.266933" lon="-5.148286">
        <ele>289.0</ele>
        <time>2020-11-01T11:17:08Z</time>
      </trkpt>
      <trkpt lat="43.266922" lon="-5.148286">
        <ele>289.0</ele>
        <time>2020-11-01T11:17:14Z</time>
      </trkpt>
      <trkpt lat="43.266922" lon="-5.148286">
        <ele>289.0</ele>
        <time>2020-11-01T11:17:15Z</time>
      </trkpt>
      <trkpt lat="43.26692" lon="-5.148282">
        <ele>289.0</ele>
        <time>2020-11-01T11:17:19Z</time>
      </trkpt>
      <trkpt lat="43.266914" lon="-5.1482816">
        <ele>289.0</ele>
        <time>2020-11-01T11:17:19Z</time>
      </trkpt>
      <trkpt lat="43.266914" lon="-5.148281">
        <ele>289.0</ele>
        <time>2020-11-01T11:17:20Z</time>
      </trkpt>
      <trkpt lat="43.266903" lon="-5.1482773">
        <ele>289.0</ele>
        <time>2020-11-01T11:17:22Z</time>
      </trkpt>
      <trkpt lat="43.2669" lon="-5.1482763">
        <ele>289.0</ele>
        <time>2020-11-01T11:17:23Z</time>
      </trkpt>
      <trkpt lat="43.2669" lon="-5.148275">
        <ele>289.0</ele>
        <time>2020-11-01T11:17:24Z</time>
      </trkpt>
      <trkpt lat="43.266884" lon="-5.1482587">
        <ele>289.0</ele>
        <time>2020-11-01T11:17:53Z</time>
      </trkpt>
      <trkpt lat="43.26689" lon="-5.1482606">
        <ele>289.0</ele>
        <time>2020-11-01T11:18:03Z</time>
      </trkpt>
      <trkpt lat="43.26689" lon="-5.1482606">
        <ele>289.0</ele>
        <time>2020-11-01T11:18:05Z</time>
      </trkpt>
      <trkpt lat="43.26689" lon="-5.1482673">
        <ele>289.0</ele>
        <time>2020-11-01T11:18:07Z</time>
      </trkpt>
      <trkpt lat="43.26689" lon="-5.1482754">
        <ele>289.0</ele>
        <time>2020-11-01T11:18:09Z</time>
      </trkpt>
      <trkpt lat="43.266888" lon="-5.148276">
        <ele>289.0</ele>
        <time>2020-11-01T11:18:10Z</time>
      </trkpt>
      <trkpt lat="43.266884" lon="-5.1482754">
        <ele>289.0</ele>
        <time>2020-11-01T11:18:11Z</time>
      </trkpt>
      <trkpt lat="43.266876" lon="-5.1482763">
        <ele>289.0</ele>
        <time>2020-11-01T11:18:12Z</time>
      </trkpt>
      <trkpt lat="43.26687" lon="-5.148281">
        <ele>289.0</ele>
        <time>2020-11-01T11:18:13Z</time>
      </trkpt>
      <trkpt lat="43.266857" lon="-5.14829">
        <ele>289.0</ele>
        <time>2020-11-01T11:18:14Z</time>
      </trkpt>
      <trkpt lat="43.266846" lon="-5.1483016">
        <ele>289.0</ele>
        <time>2020-11-01T11:18:15Z</time>
      </trkpt>
      <trkpt lat="43.26684" lon="-5.1483164">
        <ele>289.0</ele>
        <time>2020-11-01T11:18:16Z</time>
      </trkpt>
      <trkpt lat="43.266838" lon="-5.1483335">
        <ele>289.0</ele>
        <time>2020-11-01T11:18:17Z</time>
      </trkpt>
      <trkpt lat="43.26683" lon="-5.148349">
        <ele>289.0</ele>
        <time>2020-11-01T11:18:18Z</time>
      </trkpt>
      <trkpt lat="43.266827" lon="-5.148357">
        <ele>289.0</ele>
        <time>2020-11-01T11:18:19Z</time>
      </trkpt>
      <trkpt lat="43.266823" lon="-5.1483617">
        <ele>289.0</ele>
        <time>2020-11-01T11:18:20Z</time>
      </trkpt>
      <trkpt lat="43.266815" lon="-5.1483645">
        <ele>289.0</ele>
        <time>2020-11-01T11:18:21Z</time>
      </trkpt>
      <trkpt lat="43.26681" lon="-5.1483674">
        <ele>289.0</ele>
        <time>2020-11-01T11:18:22Z</time>
      </trkpt>
      <trkpt lat="43.2668" lon="-5.1483703">
        <ele>289.0</ele>
        <time>2020-11-01T11:18:23Z</time>
      </trkpt>
      <trkpt lat="43.266796" lon="-5.1483717">
        <ele>289.0</ele>
        <time>2020-11-01T11:18:24Z</time>
      </trkpt>
      <trkpt lat="43.266785" lon="-5.1483736">
        <ele>289.0</ele>
        <time>2020-11-01T11:18:25Z</time>
      </trkpt>
      <trkpt lat="43.266773" lon="-5.1483755">
        <ele>289.0</ele>
        <time>2020-11-01T11:18:26Z</time>
      </trkpt>
      <trkpt lat="43.26677" lon="-5.1483793">
        <ele>289.0</ele>
        <time>2020-11-01T11:18:27Z</time>
      </trkpt>
      <trkpt lat="43.266766" lon="-5.1483865">
        <ele>289.0</ele>
        <time>2020-11-01T11:18:28Z</time>
      </trkpt>
      <trkpt lat="43.266758" lon="-5.1483955">
        <ele>289.0</ele>
        <time>2020-11-01T11:18:29Z</time>
      </trkpt>
      <trkpt lat="43.266754" lon="-5.148403">
        <ele>289.0</ele>
        <time>2020-11-01T11:18:30Z</time>
      </trkpt>
      <trkpt lat="43.26675" lon="-5.1484075">
        <ele>289.0</ele>
        <time>2020-11-01T11:18:31Z</time>
      </trkpt>
      <trkpt lat="43.26674" lon="-5.1484113">
        <ele>289.0</ele>
        <time>2020-11-01T11:18:32Z</time>
      </trkpt>
      <trkpt lat="43.266735" lon="-5.1484127">
        <ele>289.0</ele>
        <time>2020-11-01T11:18:33Z</time>
      </trkpt>
      <trkpt lat="43.266724" lon="-5.1484127">
        <ele>289.0</ele>
        <time>2020-11-01T11:18:34Z</time>
      </trkpt>
      <trkpt lat="43.26672" lon="-5.1484118">
        <ele>289.0</ele>
        <time>2020-11-01T11:18:35Z</time>
      </trkpt>
      <trkpt lat="43.26671" lon="-5.1484113">
        <ele>289.0</ele>
        <time>2020-11-01T11:18:36Z</time>
      </trkpt>
      <trkpt lat="43.266697" lon="-5.14841">
        <ele>289.0</ele>
        <time>2020-11-01T11:18:38Z</time>
      </trkpt>
      <trkpt lat="43.266693" lon="-5.1484084">
        <ele>297.0</ele>
        <time>2020-11-01T11:18:38Z</time>
      </trkpt>
      <trkpt lat="43.26668" lon="-5.148407">
        <ele>297.0</ele>
        <time>2020-11-01T11:18:39Z</time>
      </trkpt>
      <trkpt lat="43.266674" lon="-5.1484075">
        <ele>297.0</ele>
        <time>2020-11-01T11:18:40Z</time>
      </trkpt>
      <trkpt lat="43.266663" lon="-5.1484094">
        <ele>297.0</ele>
        <time>2020-11-01T11:18:41Z</time>
      </trkpt>
      <trkpt lat="43.26665" lon="-5.1484118">
        <ele>297.0</ele>
        <time>2020-11-01T11:18:42Z</time>
      </trkpt>
      <trkpt lat="43.266644" lon="-5.148416">
        <ele>297.0</ele>
        <time>2020-11-01T11:18:43Z</time>
      </trkpt>
      <trkpt lat="43.266632" lon="-5.148417">
        <ele>297.0</ele>
        <time>2020-11-01T11:18:44Z</time>
      </trkpt>
      <trkpt lat="43.26663" lon="-5.148417">
        <ele>297.0</ele>
        <time>2020-11-01T11:18:45Z</time>
      </trkpt>
      <trkpt lat="43.266617" lon="-5.1484165">
        <ele>297.0</ele>
        <time>2020-11-01T11:18:46Z</time>
      </trkpt>
      <trkpt lat="43.266613" lon="-5.1484175">
        <ele>297.0</ele>
        <time>2020-11-01T11:18:47Z</time>
      </trkpt>
      <trkpt lat="43.266605" lon="-5.148419">
        <ele>297.0</ele>
        <time>2020-11-01T11:18:48Z</time>
      </trkpt>
      <trkpt lat="43.2666" lon="-5.1484222">
        <ele>297.0</ele>
        <time>2020-11-01T11:18:49Z</time>
      </trkpt>
      <trkpt lat="43.266586" lon="-5.1484423">
        <ele>297.0</ele>
        <time>2020-11-01T11:18:51Z</time>
      </trkpt>
      <trkpt lat="43.266586" lon="-5.1484447">
        <ele>297.0</ele>
        <time>2020-11-01T11:18:52Z</time>
      </trkpt>
      <trkpt lat="43.266586" lon="-5.1484504">
        <ele>297.0</ele>
        <time>2020-11-01T11:18:54Z</time>
      </trkpt>
      <trkpt lat="43.26658" lon="-5.148457">
        <ele>297.0</ele>
        <time>2020-11-01T11:18:54Z</time>
      </trkpt>
      <trkpt lat="43.26658" lon="-5.148464">
        <ele>297.0</ele>
        <time>2020-11-01T11:18:55Z</time>
      </trkpt>
      <trkpt lat="43.26658" lon="-5.14847">
        <ele>298.0</ele>
        <time>2020-11-01T11:18:56Z</time>
      </trkpt>
      <trkpt lat="43.26658" lon="-5.1484756">
        <ele>298.0</ele>
        <time>2020-11-01T11:18:57Z</time>
      </trkpt>
      <trkpt lat="43.266575" lon="-5.148481">
        <ele>298.0</ele>
        <time>2020-11-01T11:18:58Z</time>
      </trkpt>
      <trkpt lat="43.26657" lon="-5.148485">
        <ele>298.0</ele>
        <time>2020-11-01T11:18:59Z</time>
      </trkpt>
      <trkpt lat="43.26657" lon="-5.1484885">
        <ele>298.0</ele>
        <time>2020-11-01T11:19:00Z</time>
      </trkpt>
      <trkpt lat="43.26657" lon="-5.1484914">
        <ele>298.0</ele>
        <time>2020-11-01T11:19:01Z</time>
      </trkpt>
      <trkpt lat="43.26657" lon="-5.1484942">
        <ele>298.0</ele>
        <time>2020-11-01T11:19:02Z</time>
      </trkpt>
      <trkpt lat="43.26657" lon="-5.1484985">
        <ele>299.0</ele>
        <time>2020-11-01T11:19:03Z</time>
      </trkpt>
      <trkpt lat="43.26657" lon="-5.148503">
        <ele>299.0</ele>
        <time>2020-11-01T11:19:04Z</time>
      </trkpt>
      <trkpt lat="43.26657" lon="-5.148508">
        <ele>299.0</ele>
        <time>2020-11-01T11:19:05Z</time>
      </trkpt>
      <trkpt lat="43.26657" lon="-5.148514">
        <ele>299.0</ele>
        <time>2020-11-01T11:19:06Z</time>
      </trkpt>
      <trkpt lat="43.26658" lon="-5.148527">
        <ele>299.0</ele>
        <time>2020-11-01T11:19:08Z</time>
      </trkpt>
      <trkpt lat="43.26658" lon="-5.148526">
        <ele>299.0</ele>
        <time>2020-11-01T11:19:09Z</time>
      </trkpt>
      <trkpt lat="43.26658" lon="-5.1485248">
        <ele>300.0</ele>
        <time>2020-11-01T11:19:10Z</time>
      </trkpt>
      <trkpt lat="43.26658" lon="-5.1485214">
        <ele>300.0</ele>
        <time>2020-11-01T11:19:11Z</time>
      </trkpt>
      <trkpt lat="43.26658" lon="-5.1485157">
        <ele>300.0</ele>
        <time>2020-11-01T11:19:12Z</time>
      </trkpt>
      <trkpt lat="43.266586" lon="-5.14851">
        <ele>300.0</ele>
        <time>2020-11-01T11:19:13Z</time>
      </trkpt>
      <trkpt lat="43.266586" lon="-5.1485076">
        <ele>300.0</ele>
        <time>2020-11-01T11:19:14Z</time>
      </trkpt>
      <trkpt lat="43.26659" lon="-5.1485085">
        <ele>300.0</ele>
        <time>2020-11-01T11:19:15Z</time>
      </trkpt>
      <trkpt lat="43.266594" lon="-5.148512">
        <ele>301.0</ele>
        <time>2020-11-01T11:19:16Z</time>
      </trkpt>
      <trkpt lat="43.2666" lon="-5.148516">
        <ele>301.0</ele>
        <time>2020-11-01T11:19:17Z</time>
      </trkpt>
      <trkpt lat="43.266605" lon="-5.1485224">
        <ele>301.0</ele>
        <time>2020-11-01T11:19:18Z</time>
      </trkpt>
      <trkpt lat="43.266613" lon="-5.148528">
        <ele>301.0</ele>
        <time>2020-11-01T11:19:19Z</time>
      </trkpt>
      <trkpt lat="43.266617" lon="-5.148534">
        <ele>301.0</ele>
        <time>2020-11-01T11:19:20Z</time>
      </trkpt>
      <trkpt lat="43.26662" lon="-5.148537">
        <ele>301.0</ele>
        <time>2020-11-01T11:19:21Z</time>
      </trkpt>
      <trkpt lat="43.26663" lon="-5.1485424">
        <ele>302.0</ele>
        <time>2020-11-01T11:19:22Z</time>
      </trkpt>
      <trkpt lat="43.266636" lon="-5.1485486">
        <ele>302.0</ele>
        <time>2020-11-01T11:19:24Z</time>
      </trkpt>
      <trkpt lat="43.266644" lon="-5.1485558">
        <ele>302.0</ele>
        <time>2020-11-01T11:19:24Z</time>
      </trkpt>
      <trkpt lat="43.26665" lon="-5.148563">
        <ele>302.0</ele>
        <time>2020-11-01T11:19:25Z</time>
      </trkpt>
      <trkpt lat="43.26666" lon="-5.148571">
        <ele>302.0</ele>
        <time>2020-11-01T11:19:26Z</time>
      </trkpt>
      <trkpt lat="43.266663" lon="-5.14858">
        <ele>303.0</ele>
        <time>2020-11-01T11:19:27Z</time>
      </trkpt>
      <trkpt lat="43.266666" lon="-5.148588">
        <ele>303.0</ele>
        <time>2020-11-01T11:19:28Z</time>
      </trkpt>
      <trkpt lat="43.266666" lon="-5.1485963">
        <ele>303.0</ele>
        <time>2020-11-01T11:19:29Z</time>
      </trkpt>
      <trkpt lat="43.266666" lon="-5.1486053">
        <ele>303.0</ele>
        <time>2020-11-01T11:19:30Z</time>
      </trkpt>
      <trkpt lat="43.266663" lon="-5.148615">
        <ele>303.0</ele>
        <time>2020-11-01T11:19:32Z</time>
      </trkpt>
      <trkpt lat="43.26666" lon="-5.148624">
        <ele>303.0</ele>
        <time>2020-11-01T11:19:32Z</time>
      </trkpt>
      <trkpt lat="43.26666" lon="-5.148632">
        <ele>303.0</ele>
        <time>2020-11-01T11:19:33Z</time>
      </trkpt>
      <trkpt lat="43.26665" lon="-5.1486382">
        <ele>303.0</ele>
        <time>2020-11-01T11:19:34Z</time>
      </trkpt>
      <trkpt lat="43.266647" lon="-5.148644">
        <ele>303.0</ele>
        <time>2020-11-01T11:19:35Z</time>
      </trkpt>
      <trkpt lat="43.266644" lon="-5.1486487">
        <ele>303.0</ele>
        <time>2020-11-01T11:19:36Z</time>
      </trkpt>
      <trkpt lat="43.266636" lon="-5.1486535">
        <ele>304.0</ele>
        <time>2020-11-01T11:19:37Z</time>
      </trkpt>
      <trkpt lat="43.266636" lon="-5.148659">
        <ele>304.0</ele>
        <time>2020-11-01T11:19:38Z</time>
      </trkpt>
      <trkpt lat="43.266636" lon="-5.148665">
        <ele>304.0</ele>
        <time>2020-11-01T11:19:39Z</time>
      </trkpt>
      <trkpt lat="43.266644" lon="-5.148671">
        <ele>304.0</ele>
        <time>2020-11-01T11:19:40Z</time>
      </trkpt>
      <trkpt lat="43.266644" lon="-5.1486773">
        <ele>304.0</ele>
        <time>2020-11-01T11:19:41Z</time>
      </trkpt>
      <trkpt lat="43.266644" lon="-5.1486835">
        <ele>305.0</ele>
        <time>2020-11-01T11:19:42Z</time>
      </trkpt>
      <trkpt lat="43.266647" lon="-5.148689">
        <ele>305.0</ele>
        <time>2020-11-01T11:19:43Z</time>
      </trkpt>
      <trkpt lat="43.266647" lon="-5.1486926">
        <ele>305.0</ele>
        <time>2020-11-01T11:19:44Z</time>
      </trkpt>
      <trkpt lat="43.26665" lon="-5.1486955">
        <ele>305.0</ele>
        <time>2020-11-01T11:19:45Z</time>
      </trkpt>
      <trkpt lat="43.26666" lon="-5.1486955">
        <ele>305.0</ele>
        <time>2020-11-01T11:19:47Z</time>
      </trkpt>
      <trkpt lat="43.266663" lon="-5.1486964">
        <ele>306.0</ele>
        <time>2020-11-01T11:19:47Z</time>
      </trkpt>
      <trkpt lat="43.266674" lon="-5.1487055">
        <ele>306.0</ele>
        <time>2020-11-01T11:19:51Z</time>
      </trkpt>
      <trkpt lat="43.266674" lon="-5.148706">
        <ele>306.0</ele>
        <time>2020-11-01T11:19:52Z</time>
      </trkpt>
      <trkpt lat="43.266678" lon="-5.1487083">
        <ele>306.0</ele>
        <time>2020-11-01T11:19:53Z</time>
      </trkpt>
      <trkpt lat="43.26668" lon="-5.1487107">
        <ele>307.0</ele>
        <time>2020-11-01T11:19:54Z</time>
      </trkpt>
      <trkpt lat="43.26669" lon="-5.148712">
        <ele>307.0</ele>
        <time>2020-11-01T11:19:55Z</time>
      </trkpt>
      <trkpt lat="43.266693" lon="-5.148711">
        <ele>307.0</ele>
        <time>2020-11-01T11:19:56Z</time>
      </trkpt>
      <trkpt lat="43.266697" lon="-5.1487107">
        <ele>307.0</ele>
        <time>2020-11-01T11:19:57Z</time>
      </trkpt>
      <trkpt lat="43.26671" lon="-5.1487093">
        <ele>308.0</ele>
        <time>2020-11-01T11:19:58Z</time>
      </trkpt>
      <trkpt lat="43.266712" lon="-5.1487093">
        <ele>308.0</ele>
        <time>2020-11-01T11:19:59Z</time>
      </trkpt>
      <trkpt lat="43.26672" lon="-5.1487083">
        <ele>308.0</ele>
        <time>2020-11-01T11:20:00Z</time>
      </trkpt>
      <trkpt lat="43.266724" lon="-5.1487064">
        <ele>308.0</ele>
        <time>2020-11-01T11:20:02Z</time>
      </trkpt>
      <trkpt lat="43.266724" lon="-5.1487026">
        <ele>308.0</ele>
        <time>2020-11-01T11:20:02Z</time>
      </trkpt>
      <trkpt lat="43.266727" lon="-5.1486993">
        <ele>308.0</ele>
        <time>2020-11-01T11:20:03Z</time>
      </trkpt>
      <trkpt lat="43.266735" lon="-5.148697">
        <ele>309.0</ele>
        <time>2020-11-01T11:20:04Z</time>
      </trkpt>
      <trkpt lat="43.26674" lon="-5.1486955">
        <ele>309.0</ele>
        <time>2020-11-01T11:20:05Z</time>
      </trkpt>
      <trkpt lat="43.26675" lon="-5.1486936">
        <ele>309.0</ele>
        <time>2020-11-01T11:20:06Z</time>
      </trkpt>
      <trkpt lat="43.266754" lon="-5.148694">
        <ele>309.0</ele>
        <time>2020-11-01T11:20:07Z</time>
      </trkpt>
      <trkpt lat="43.266766" lon="-5.148694">
        <ele>309.0</ele>
        <time>2020-11-01T11:20:08Z</time>
      </trkpt>
      <trkpt lat="43.26677" lon="-5.1486917">
        <ele>310.0</ele>
        <time>2020-11-01T11:20:10Z</time>
      </trkpt>
      <trkpt lat="43.26678" lon="-5.1486926">
        <ele>310.0</ele>
        <time>2020-11-01T11:20:10Z</time>
      </trkpt>
      <trkpt lat="43.266785" lon="-5.1486964">
        <ele>310.0</ele>
        <time>2020-11-01T11:20:11Z</time>
      </trkpt>
      <trkpt lat="43.266792" lon="-5.1487">
        <ele>310.0</ele>
        <time>2020-11-01T11:20:12Z</time>
      </trkpt>
      <trkpt lat="43.2668" lon="-5.1487045">
        <ele>310.0</ele>
        <time>2020-11-01T11:20:13Z</time>
      </trkpt>
      <trkpt lat="43.266808" lon="-5.1487083">
        <ele>310.0</ele>
        <time>2020-11-01T11:20:14Z</time>
      </trkpt>
      <trkpt lat="43.26681" lon="-5.148711">
        <ele>310.0</ele>
        <time>2020-11-01T11:20:15Z</time>
      </trkpt>
      <trkpt lat="43.266823" lon="-5.1487136">
        <ele>310.0</ele>
        <time>2020-11-01T11:20:16Z</time>
      </trkpt>
      <trkpt lat="43.266827" lon="-5.148716">
        <ele>310.0</ele>
        <time>2020-11-01T11:20:18Z</time>
      </trkpt>
      <trkpt lat="43.266838" lon="-5.1487193">
        <ele>310.0</ele>
        <time>2020-11-01T11:20:18Z</time>
      </trkpt>
      <trkpt lat="43.26684" lon="-5.1487217">
        <ele>311.0</ele>
        <time>2020-11-01T11:20:19Z</time>
      </trkpt>
      <trkpt lat="43.26684" lon="-5.148721">
        <ele>311.0</ele>
        <time>2020-11-01T11:20:20Z</time>
      </trkpt>
      <trkpt lat="43.266846" lon="-5.14872">
        <ele>311.0</ele>
        <time>2020-11-01T11:20:21Z</time>
      </trkpt>
      <trkpt lat="43.266853" lon="-5.1487174">
        <ele>311.0</ele>
        <time>2020-11-01T11:20:22Z</time>
      </trkpt>
      <trkpt lat="43.266853" lon="-5.148715">
        <ele>311.0</ele>
        <time>2020-11-01T11:20:23Z</time>
      </trkpt>
      <trkpt lat="43.266857" lon="-5.148714">
        <ele>311.0</ele>
        <time>2020-11-01T11:20:24Z</time>
      </trkpt>
      <trkpt lat="43.26686" lon="-5.148713">
        <ele>312.0</ele>
        <time>2020-11-01T11:20:26Z</time>
      </trkpt>
      <trkpt lat="43.26687" lon="-5.148711">
        <ele>312.0</ele>
        <time>2020-11-01T11:20:26Z</time>
      </trkpt>
      <trkpt lat="43.266872" lon="-5.148709">
        <ele>312.0</ele>
        <time>2020-11-01T11:20:27Z</time>
      </trkpt>
      <trkpt lat="43.266876" lon="-5.148708">
        <ele>312.0</ele>
        <time>2020-11-01T11:20:28Z</time>
      </trkpt>
      <trkpt lat="43.266884" lon="-5.1487083">
        <ele>313.0</ele>
        <time>2020-11-01T11:20:29Z</time>
      </trkpt>
      <trkpt lat="43.26689" lon="-5.1487093">
        <ele>313.0</ele>
        <time>2020-11-01T11:20:30Z</time>
      </trkpt>
      <trkpt lat="43.2669" lon="-5.14871">
        <ele>313.0</ele>
        <time>2020-11-01T11:20:31Z</time>
      </trkpt>
      <trkpt lat="43.266903" lon="-5.148712">
        <ele>313.0</ele>
        <time>2020-11-01T11:20:32Z</time>
      </trkpt>
      <trkpt lat="43.266907" lon="-5.148714">
        <ele>314.0</ele>
        <time>2020-11-01T11:20:33Z</time>
      </trkpt>
      <trkpt lat="43.26692" lon="-5.1487174">
        <ele>314.0</ele>
        <time>2020-11-01T11:20:34Z</time>
      </trkpt>
      <trkpt lat="43.266922" lon="-5.1487203">
        <ele>314.0</ele>
        <time>2020-11-01T11:20:35Z</time>
      </trkpt>
      <trkpt lat="43.26693" lon="-5.1487217">
        <ele>314.0</ele>
        <time>2020-11-01T11:20:36Z</time>
      </trkpt>
      <trkpt lat="43.266933" lon="-5.1487217">
        <ele>315.0</ele>
        <time>2020-11-01T11:20:37Z</time>
      </trkpt>
      <trkpt lat="43.266937" lon="-5.148721">
        <ele>315.0</ele>
        <time>2020-11-01T11:20:38Z</time>
      </trkpt>
      <trkpt lat="43.266945" lon="-5.1487203">
        <ele>315.0</ele>
        <time>2020-11-01T11:20:39Z</time>
      </trkpt>
      <trkpt lat="43.266953" lon="-5.148719">
        <ele>315.0</ele>
        <time>2020-11-01T11:20:41Z</time>
      </trkpt>
      <trkpt lat="43.26696" lon="-5.148716">
        <ele>315.0</ele>
        <time>2020-11-01T11:20:41Z</time>
      </trkpt>
      <trkpt lat="43.266964" lon="-5.148711">
        <ele>316.0</ele>
        <time>2020-11-01T11:20:42Z</time>
      </trkpt>
      <trkpt lat="43.266968" lon="-5.1487064">
        <ele>316.0</ele>
        <time>2020-11-01T11:20:43Z</time>
      </trkpt>
      <trkpt lat="43.266975" lon="-5.1487017">
        <ele>316.0</ele>
        <time>2020-11-01T11:20:44Z</time>
      </trkpt>
      <trkpt lat="43.266975" lon="-5.1486964">
        <ele>316.0</ele>
        <time>2020-11-01T11:20:45Z</time>
      </trkpt>
      <trkpt lat="43.26698" lon="-5.1486926">
        <ele>316.0</ele>
        <time>2020-11-01T11:20:46Z</time>
      </trkpt>
      <trkpt lat="43.266987" lon="-5.148689">
        <ele>316.0</ele>
        <time>2020-11-01T11:20:47Z</time>
      </trkpt>
      <trkpt lat="43.26699" lon="-5.1486845">
        <ele>316.0</ele>
        <time>2020-11-01T11:20:49Z</time>
      </trkpt>
      <trkpt lat="43.266994" lon="-5.148681">
        <ele>316.0</ele>
        <time>2020-11-01T11:20:49Z</time>
      </trkpt>
      <trkpt lat="43.267006" lon="-5.148679">
        <ele>316.0</ele>
        <time>2020-11-01T11:20:50Z</time>
      </trkpt>
      <trkpt lat="43.26701" lon="-5.1486783">
        <ele>316.0</ele>
        <time>2020-11-01T11:20:51Z</time>
      </trkpt>
      <trkpt lat="43.267017" lon="-5.148679">
        <ele>316.0</ele>
        <time>2020-11-01T11:20:52Z</time>
      </trkpt>
      <trkpt lat="43.267025" lon="-5.14868">
        <ele>316.0</ele>
        <time>2020-11-01T11:20:55Z</time>
      </trkpt>
      <trkpt lat="43.267025" lon="-5.148681">
        <ele>316.0</ele>
        <time>2020-11-01T11:20:56Z</time>
      </trkpt>
      <trkpt lat="43.26702" lon="-5.148692">
        <ele>316.0</ele>
        <time>2020-11-01T11:20:58Z</time>
      </trkpt>
      <trkpt lat="43.26702" lon="-5.148691">
        <ele>317.0</ele>
        <time>2020-11-01T11:20:59Z</time>
      </trkpt>
      <trkpt lat="43.26702" lon="-5.1486897">
        <ele>317.0</ele>
        <time>2020-11-01T11:21:00Z</time>
      </trkpt>
      <trkpt lat="43.267025" lon="-5.148685">
        <ele>317.0</ele>
        <time>2020-11-01T11:21:01Z</time>
      </trkpt>
      <trkpt lat="43.267025" lon="-5.1486797">
        <ele>317.0</ele>
        <time>2020-11-01T11:21:02Z</time>
      </trkpt>
      <trkpt lat="43.267033" lon="-5.148674">
        <ele>317.0</ele>
        <time>2020-11-01T11:21:03Z</time>
      </trkpt>
      <trkpt lat="43.267033" lon="-5.1486692">
        <ele>317.0</ele>
        <time>2020-11-01T11:21:05Z</time>
      </trkpt>
      <trkpt lat="43.267033" lon="-5.1486635">
        <ele>317.0</ele>
        <time>2020-11-01T11:21:06Z</time>
      </trkpt>
      <trkpt lat="43.267025" lon="-5.1486645">
        <ele>317.0</ele>
        <time>2020-11-01T11:21:07Z</time>
      </trkpt>
      <trkpt lat="43.267025" lon="-5.1486664">
        <ele>317.0</ele>
        <time>2020-11-01T11:21:08Z</time>
      </trkpt>
      <trkpt lat="43.26702" lon="-5.148667">
        <ele>317.0</ele>
        <time>2020-11-01T11:21:09Z</time>
      </trkpt>
      <trkpt lat="43.267017" lon="-5.1486692">
        <ele>317.0</ele>
        <time>2020-11-01T11:21:10Z</time>
      </trkpt>
      <trkpt lat="43.267017" lon="-5.148671">
        <ele>317.0</ele>
        <time>2020-11-01T11:21:11Z</time>
      </trkpt>
      <trkpt lat="43.26701" lon="-5.148675">
        <ele>317.0</ele>
        <time>2020-11-01T11:21:13Z</time>
      </trkpt>
      <trkpt lat="43.267006" lon="-5.1486783">
        <ele>317.0</ele>
        <time>2020-11-01T11:21:13Z</time>
      </trkpt>
      <trkpt lat="43.267002" lon="-5.1486835">
        <ele>317.0</ele>
        <time>2020-11-01T11:21:15Z</time>
      </trkpt>
      <trkpt lat="43.266853" lon="-5.1491737">
        <ele>329.0</ele>
        <time>2020-11-01T11:22:12Z</time>
      </trkpt>
      <trkpt lat="43.266853" lon="-5.1491737">
        <ele>329.0</ele>
        <time>2020-11-01T11:22:13Z</time>
      </trkpt>
      <trkpt lat="43.266846" lon="-5.149173">
        <ele>329.0</ele>
        <time>2020-11-01T11:22:14Z</time>
      </trkpt>
      <trkpt lat="43.266846" lon="-5.149176">
        <ele>329.0</ele>
        <time>2020-11-01T11:22:15Z</time>
      </trkpt>
      <trkpt lat="43.26684" lon="-5.1491833">
        <ele>329.0</ele>
        <time>2020-11-01T11:22:16Z</time>
      </trkpt>
      <trkpt lat="43.26684" lon="-5.1491895">
        <ele>329.0</ele>
        <time>2020-11-01T11:22:17Z</time>
      </trkpt>
      <trkpt lat="43.266838" lon="-5.1491976">
        <ele>329.0</ele>
        <time>2020-11-01T11:22:18Z</time>
      </trkpt>
      <trkpt lat="43.266838" lon="-5.1492066">
        <ele>329.0</ele>
        <time>2020-11-01T11:22:19Z</time>
      </trkpt>
      <trkpt lat="43.266838" lon="-5.1492143">
        <ele>329.0</ele>
        <time>2020-11-01T11:22:20Z</time>
      </trkpt>
      <trkpt lat="43.26683" lon="-5.149219">
        <ele>329.0</ele>
        <time>2020-11-01T11:22:21Z</time>
      </trkpt>
      <trkpt lat="43.266827" lon="-5.1492233">
        <ele>329.0</ele>
        <time>2020-11-01T11:22:22Z</time>
      </trkpt>
      <trkpt lat="43.266823" lon="-5.1492286">
        <ele>329.0</ele>
        <time>2020-11-01T11:22:24Z</time>
      </trkpt>
      <trkpt lat="43.266815" lon="-5.1492352">
        <ele>329.0</ele>
        <time>2020-11-01T11:22:24Z</time>
      </trkpt>
      <trkpt lat="43.26681" lon="-5.1492434">
        <ele>330.0</ele>
        <time>2020-11-01T11:22:25Z</time>
      </trkpt>
      <trkpt lat="43.26681" lon="-5.1492553">
        <ele>330.0</ele>
        <time>2020-11-01T11:22:26Z</time>
      </trkpt>
      <trkpt lat="43.266815" lon="-5.1492667">
        <ele>330.0</ele>
        <time>2020-11-01T11:22:27Z</time>
      </trkpt>
      <trkpt lat="43.266815" lon="-5.1492763">
        <ele>330.0</ele>
        <time>2020-11-01T11:22:28Z</time>
      </trkpt>
      <trkpt lat="43.266823" lon="-5.1492863">
        <ele>330.0</ele>
        <time>2020-11-01T11:22:29Z</time>
      </trkpt>
      <trkpt lat="43.26683" lon="-5.1492944">
        <ele>330.0</ele>
        <time>2020-11-01T11:22:31Z</time>
      </trkpt>
      <trkpt lat="43.26683" lon="-5.1493025">
        <ele>330.0</ele>
        <time>2020-11-01T11:22:31Z</time>
      </trkpt>
      <trkpt lat="43.266838" lon="-5.1493106">
        <ele>330.0</ele>
        <time>2020-11-01T11:22:32Z</time>
      </trkpt>
      <trkpt lat="43.266838" lon="-5.149319">
        <ele>330.0</ele>
        <time>2020-11-01T11:22:33Z</time>
      </trkpt>
      <trkpt lat="43.266838" lon="-5.1493287">
        <ele>330.0</ele>
        <time>2020-11-01T11:22:34Z</time>
      </trkpt>
      <trkpt lat="43.26684" lon="-5.1493382">
        <ele>330.0</ele>
        <time>2020-11-01T11:22:35Z</time>
      </trkpt>
      <trkpt lat="43.266846" lon="-5.1493497">
        <ele>330.0</ele>
        <time>2020-11-01T11:22:36Z</time>
      </trkpt>
      <trkpt lat="43.266853" lon="-5.149363">
        <ele>330.0</ele>
        <time>2020-11-01T11:22:37Z</time>
      </trkpt>
      <trkpt lat="43.266857" lon="-5.149395">
        <ele>330.0</ele>
        <time>2020-11-01T11:22:39Z</time>
      </trkpt>
      <trkpt lat="43.266857" lon="-5.149396">
        <ele>330.0</ele>
        <time>2020-11-01T11:22:40Z</time>
      </trkpt>
      <trkpt lat="43.266857" lon="-5.1493964">
        <ele>330.0</ele>
        <time>2020-11-01T11:22:41Z</time>
      </trkpt>
      <trkpt lat="43.266853" lon="-5.1493974">
        <ele>330.0</ele>
        <time>2020-11-01T11:22:42Z</time>
      </trkpt>
      <trkpt lat="43.266846" lon="-5.1494007">
        <ele>331.0</ele>
        <time>2020-11-01T11:22:43Z</time>
      </trkpt>
      <trkpt lat="43.26684" lon="-5.1494045">
        <ele>331.0</ele>
        <time>2020-11-01T11:22:44Z</time>
      </trkpt>
      <trkpt lat="43.26684" lon="-5.1494083">
        <ele>331.0</ele>
        <time>2020-11-01T11:22:45Z</time>
      </trkpt>
      <trkpt lat="43.266838" lon="-5.1494107">
        <ele>331.0</ele>
        <time>2020-11-01T11:22:46Z</time>
      </trkpt>
      <trkpt lat="43.26684" lon="-5.1494164">
        <ele>331.0</ele>
        <time>2020-11-01T11:22:47Z</time>
      </trkpt>
      <trkpt lat="43.266846" lon="-5.149425">
        <ele>331.0</ele>
        <time>2020-11-01T11:22:48Z</time>
      </trkpt>
      <trkpt lat="43.266853" lon="-5.149434">
        <ele>331.0</ele>
        <time>2020-11-01T11:22:49Z</time>
      </trkpt>
      <trkpt lat="43.266853" lon="-5.149442">
        <ele>332.0</ele>
        <time>2020-11-01T11:22:50Z</time>
      </trkpt>
      <trkpt lat="43.26687" lon="-5.149467">
        <ele>332.0</ele>
        <time>2020-11-01T11:22:52Z</time>
      </trkpt>
      <trkpt lat="43.266872" lon="-5.14947">
        <ele>332.0</ele>
        <time>2020-11-01T11:22:54Z</time>
      </trkpt>
      <trkpt lat="43.266872" lon="-5.1494684">
        <ele>332.0</ele>
        <time>2020-11-01T11:22:55Z</time>
      </trkpt>
      <trkpt lat="43.26687" lon="-5.1494684">
        <ele>332.0</ele>
        <time>2020-11-01T11:22:56Z</time>
      </trkpt>
      <trkpt lat="43.26687" lon="-5.14947">
        <ele>333.0</ele>
        <time>2020-11-01T11:22:57Z</time>
      </trkpt>
      <trkpt lat="43.26687" lon="-5.149472">
        <ele>333.0</ele>
        <time>2020-11-01T11:22:58Z</time>
      </trkpt>
      <trkpt lat="43.26686" lon="-5.149475">
        <ele>333.0</ele>
        <time>2020-11-01T11:23:00Z</time>
      </trkpt>
      <trkpt lat="43.26686" lon="-5.149476">
        <ele>333.0</ele>
        <time>2020-11-01T11:23:01Z</time>
      </trkpt>
      <trkpt lat="43.26686" lon="-5.149479">
        <ele>333.0</ele>
        <time>2020-11-01T11:23:02Z</time>
      </trkpt>
      <trkpt lat="43.26686" lon="-5.149482">
        <ele>334.0</ele>
        <time>2020-11-01T11:23:03Z</time>
      </trkpt>
      <trkpt lat="43.26686" lon="-5.1494846">
        <ele>334.0</ele>
        <time>2020-11-01T11:23:04Z</time>
      </trkpt>
      <trkpt lat="43.26686" lon="-5.1494884">
        <ele>334.0</ele>
        <time>2020-11-01T11:23:05Z</time>
      </trkpt>
      <trkpt lat="43.26686" lon="-5.1494937">
        <ele>334.0</ele>
        <time>2020-11-01T11:23:06Z</time>
      </trkpt>
      <trkpt lat="43.26686" lon="-5.1494985">
        <ele>335.0</ele>
        <time>2020-11-01T11:23:07Z</time>
      </trkpt>
      <trkpt lat="43.26686" lon="-5.149503">
        <ele>335.0</ele>
        <time>2020-11-01T11:23:08Z</time>
      </trkpt>
      <trkpt lat="43.26687" lon="-5.14951">
        <ele>335.0</ele>
        <time>2020-11-01T11:23:10Z</time>
      </trkpt>
      <trkpt lat="43.26687" lon="-5.1495166">
        <ele>335.0</ele>
        <time>2020-11-01T11:23:10Z</time>
      </trkpt>
      <trkpt lat="43.266872" lon="-5.149523">
        <ele>335.0</ele>
        <time>2020-11-01T11:23:11Z</time>
      </trkpt>
      <trkpt lat="43.266872" lon="-5.1495285">
        <ele>335.0</ele>
        <time>2020-11-01T11:23:12Z</time>
      </trkpt>
      <trkpt lat="43.266876" lon="-5.1495395">
        <ele>335.0</ele>
        <time>2020-11-01T11:23:13Z</time>
      </trkpt>
      <trkpt lat="43.266876" lon="-5.149551">
        <ele>335.0</ele>
        <time>2020-11-01T11:23:14Z</time>
      </trkpt>
      <trkpt lat="43.266876" lon="-5.14956">
        <ele>335.0</ele>
        <time>2020-11-01T11:23:15Z</time>
      </trkpt>
      <trkpt lat="43.266876" lon="-5.1495686">
        <ele>335.0</ele>
        <time>2020-11-01T11:23:16Z</time>
      </trkpt>
      <trkpt lat="43.266884" lon="-5.1495748">
        <ele>336.0</ele>
        <time>2020-11-01T11:23:17Z</time>
      </trkpt>
      <trkpt lat="43.266884" lon="-5.149582">
        <ele>336.0</ele>
        <time>2020-11-01T11:23:18Z</time>
      </trkpt>
      <trkpt lat="43.266888" lon="-5.1495895">
        <ele>336.0</ele>
        <time>2020-11-01T11:23:19Z</time>
      </trkpt>
      <trkpt lat="43.266888" lon="-5.1495957">
        <ele>336.0</ele>
        <time>2020-11-01T11:23:20Z</time>
      </trkpt>
      <trkpt lat="43.266888" lon="-5.1496024">
        <ele>336.0</ele>
        <time>2020-11-01T11:23:21Z</time>
      </trkpt>
      <trkpt lat="43.266888" lon="-5.149608">
        <ele>337.0</ele>
        <time>2020-11-01T11:23:22Z</time>
      </trkpt>
      <trkpt lat="43.266888" lon="-5.149614">
        <ele>337.0</ele>
        <time>2020-11-01T11:23:23Z</time>
      </trkpt>
      <trkpt lat="43.266876" lon="-5.149625">
        <ele>337.0</ele>
        <time>2020-11-01T11:23:25Z</time>
      </trkpt>
      <trkpt lat="43.266872" lon="-5.1496253">
        <ele>337.0</ele>
        <time>2020-11-01T11:23:26Z</time>
      </trkpt>
      <trkpt lat="43.266872" lon="-5.1496267">
        <ele>337.0</ele>
        <time>2020-11-01T11:23:27Z</time>
      </trkpt>
      <trkpt lat="43.266872" lon="-5.149629">
        <ele>338.0</ele>
        <time>2020-11-01T11:23:28Z</time>
      </trkpt>
      <trkpt lat="43.26687" lon="-5.1496296">
        <ele>338.0</ele>
        <time>2020-11-01T11:23:29Z</time>
      </trkpt>
      <trkpt lat="43.26687" lon="-5.1496315">
        <ele>338.0</ele>
        <time>2020-11-01T11:23:40Z</time>
      </trkpt>
      <trkpt lat="43.26686" lon="-5.1496882">
        <ele>338.0</ele>
        <time>2020-11-01T11:25:07Z</time>
      </trkpt>
      <trkpt lat="43.26686" lon="-5.149689">
        <ele>338.0</ele>
        <time>2020-11-01T11:25:08Z</time>
      </trkpt>
      <trkpt lat="43.266857" lon="-5.1496983">
        <ele>338.0</ele>
        <time>2020-11-01T11:25:17Z</time>
      </trkpt>
      <trkpt lat="43.266853" lon="-5.1496997">
        <ele>338.0</ele>
        <time>2020-11-01T11:25:25Z</time>
      </trkpt>
      <trkpt lat="43.266846" lon="-5.149695">
        <ele>338.0</ele>
        <time>2020-11-01T11:25:35Z</time>
      </trkpt>
      <trkpt lat="43.266846" lon="-5.1496935">
        <ele>338.0</ele>
        <time>2020-11-01T11:25:36Z</time>
      </trkpt>
      <trkpt lat="43.266846" lon="-5.1496882">
        <ele>338.0</ele>
        <time>2020-11-01T11:25:37Z</time>
      </trkpt>
      <trkpt lat="43.266853" lon="-5.149678">
        <ele>338.0</ele>
        <time>2020-11-01T11:25:38Z</time>
      </trkpt>
      <trkpt lat="43.266857" lon="-5.1496625">
        <ele>338.0</ele>
        <time>2020-11-01T11:25:39Z</time>
      </trkpt>
      <trkpt lat="43.266857" lon="-5.1496434">
        <ele>338.0</ele>
        <time>2020-11-01T11:25:40Z</time>
      </trkpt>
      <trkpt lat="43.266857" lon="-5.149625">
        <ele>338.0</ele>
        <time>2020-11-01T11:25:41Z</time>
      </trkpt>
      <trkpt lat="43.26686" lon="-5.149607">
        <ele>338.0</ele>
        <time>2020-11-01T11:25:42Z</time>
      </trkpt>
      <trkpt lat="43.26686" lon="-5.1495914">
        <ele>338.0</ele>
        <time>2020-11-01T11:25:43Z</time>
      </trkpt>
      <trkpt lat="43.26687" lon="-5.149579">
        <ele>338.0</ele>
        <time>2020-11-01T11:25:44Z</time>
      </trkpt>
      <trkpt lat="43.266872" lon="-5.1495724">
        <ele>344.0</ele>
        <time>2020-11-01T11:25:45Z</time>
      </trkpt>
      <trkpt lat="43.266876" lon="-5.1495748">
        <ele>344.0</ele>
        <time>2020-11-01T11:25:46Z</time>
      </trkpt>
      <trkpt lat="43.266884" lon="-5.149584">
        <ele>344.0</ele>
        <time>2020-11-01T11:25:48Z</time>
      </trkpt>
      <trkpt lat="43.266888" lon="-5.1495957">
        <ele>344.0</ele>
        <time>2020-11-01T11:25:48Z</time>
      </trkpt>
      <trkpt lat="43.266888" lon="-5.1496077">
        <ele>344.0</ele>
        <time>2020-11-01T11:25:49Z</time>
      </trkpt>
      <trkpt lat="43.266888" lon="-5.1496186">
        <ele>344.0</ele>
        <time>2020-11-01T11:25:50Z</time>
      </trkpt>
      <trkpt lat="43.266888" lon="-5.1496286">
        <ele>344.0</ele>
        <time>2020-11-01T11:25:51Z</time>
      </trkpt>
      <trkpt lat="43.266888" lon="-5.149638">
        <ele>344.0</ele>
        <time>2020-11-01T11:25:52Z</time>
      </trkpt>
      <trkpt lat="43.266888" lon="-5.149648">
        <ele>344.0</ele>
        <time>2020-11-01T11:25:53Z</time>
      </trkpt>
      <trkpt lat="43.266888" lon="-5.149658">
        <ele>344.0</ele>
        <time>2020-11-01T11:25:54Z</time>
      </trkpt>
      <trkpt lat="43.266884" lon="-5.149667">
        <ele>344.0</ele>
        <time>2020-11-01T11:25:55Z</time>
      </trkpt>
      <trkpt lat="43.266884" lon="-5.149675">
        <ele>344.0</ele>
        <time>2020-11-01T11:25:56Z</time>
      </trkpt>
      <trkpt lat="43.266884" lon="-5.1496816">
        <ele>345.0</ele>
        <time>2020-11-01T11:25:57Z</time>
      </trkpt>
      <trkpt lat="43.266876" lon="-5.1496844">
        <ele>345.0</ele>
        <time>2020-11-01T11:25:58Z</time>
      </trkpt>
      <trkpt lat="43.266876" lon="-5.1496835">
        <ele>345.0</ele>
        <time>2020-11-01T11:25:59Z</time>
      </trkpt>
      <trkpt lat="43.266884" lon="-5.14968">
        <ele>345.0</ele>
        <time>2020-11-01T11:26:00Z</time>
      </trkpt>
      <trkpt lat="43.266884" lon="-5.1496744">
        <ele>346.0</ele>
        <time>2020-11-01T11:26:01Z</time>
      </trkpt>
      <trkpt lat="43.266884" lon="-5.1496677">
        <ele>346.0</ele>
        <time>2020-11-01T11:26:02Z</time>
      </trkpt>
      <trkpt lat="43.266888" lon="-5.1496596">
        <ele>346.0</ele>
        <time>2020-11-01T11:26:03Z</time>
      </trkpt>
      <trkpt lat="43.26689" lon="-5.149652">
        <ele>346.0</ele>
        <time>2020-11-01T11:26:04Z</time>
      </trkpt>
      <trkpt lat="43.2669" lon="-5.1496425">
        <ele>346.0</ele>
        <time>2020-11-01T11:26:05Z</time>
      </trkpt>
      <trkpt lat="43.266907" lon="-5.1496315">
        <ele>347.0</ele>
        <time>2020-11-01T11:26:06Z</time>
      </trkpt>
      <trkpt lat="43.266914" lon="-5.1496205">
        <ele>347.0</ele>
        <time>2020-11-01T11:26:07Z</time>
      </trkpt>
      <trkpt lat="43.26692" lon="-5.1496105">
        <ele>347.0</ele>
        <time>2020-11-01T11:26:09Z</time>
      </trkpt>
      <trkpt lat="43.26692" lon="-5.149603">
        <ele>347.0</ele>
        <time>2020-11-01T11:26:09Z</time>
      </trkpt>
      <trkpt lat="43.266922" lon="-5.1495967">
        <ele>347.0</ele>
        <time>2020-11-01T11:26:10Z</time>
      </trkpt>
      <trkpt lat="43.26693" lon="-5.1495905">
        <ele>347.0</ele>
        <time>2020-11-01T11:26:11Z</time>
      </trkpt>
      <trkpt lat="43.26693" lon="-5.14957">
        <ele>347.0</ele>
        <time>2020-11-01T11:26:16Z</time>
      </trkpt>
      <trkpt lat="43.266933" lon="-5.149569">
        <ele>347.0</ele>
        <time>2020-11-01T11:26:17Z</time>
      </trkpt>
      <trkpt lat="43.266933" lon="-5.1495676">
        <ele>348.0</ele>
        <time>2020-11-01T11:26:19Z</time>
      </trkpt>
      <trkpt lat="43.266937" lon="-5.149566">
        <ele>348.0</ele>
        <time>2020-11-01T11:26:19Z</time>
      </trkpt>
      <trkpt lat="43.266945" lon="-5.149565">
        <ele>348.0</ele>
        <time>2020-11-01T11:26:20Z</time>
      </trkpt>
      <trkpt lat="43.26695" lon="-5.1495643">
        <ele>348.0</ele>
        <time>2020-11-01T11:26:21Z</time>
      </trkpt>
      <trkpt lat="43.26696" lon="-5.1495614">
        <ele>348.0</ele>
        <time>2020-11-01T11:26:21Z</time>
      </trkpt>
      <trkpt lat="43.266964" lon="-5.1495595">
        <ele>349.0</ele>
        <time>2020-11-01T11:26:22Z</time>
      </trkpt>
      <trkpt lat="43.266975" lon="-5.1495585">
        <ele>349.0</ele>
        <time>2020-11-01T11:26:23Z</time>
      </trkpt>
      <trkpt lat="43.26698" lon="-5.1495585">
        <ele>349.0</ele>
        <time>2020-11-01T11:26:24Z</time>
      </trkpt>
      <trkpt lat="43.26698" lon="-5.1495576">
        <ele>349.0</ele>
        <time>2020-11-01T11:26:26Z</time>
      </trkpt>
      <trkpt lat="43.266987" lon="-5.1495566">
        <ele>349.0</ele>
        <time>2020-11-01T11:26:26Z</time>
      </trkpt>
      <trkpt lat="43.26699" lon="-5.1495557">
        <ele>350.0</ele>
        <time>2020-11-01T11:26:27Z</time>
      </trkpt>
      <trkpt lat="43.266994" lon="-5.1495547">
        <ele>350.0</ele>
        <time>2020-11-01T11:26:28Z</time>
      </trkpt>
      <trkpt lat="43.267002" lon="-5.149553">
        <ele>350.0</ele>
        <time>2020-11-01T11:26:29Z</time>
      </trkpt>
      <trkpt lat="43.267006" lon="-5.149549">
        <ele>350.0</ele>
        <time>2020-11-01T11:26:30Z</time>
      </trkpt>
      <trkpt lat="43.26701" lon="-5.149546">
        <ele>350.0</ele>
        <time>2020-11-01T11:26:31Z</time>
      </trkpt>
      <trkpt lat="43.267017" lon="-5.149547">
        <ele>350.0</ele>
        <time>2020-11-01T11:26:32Z</time>
      </trkpt>
      <trkpt lat="43.267025" lon="-5.149555">
        <ele>350.0</ele>
        <time>2020-11-01T11:26:36Z</time>
      </trkpt>
      <trkpt lat="43.267025" lon="-5.1495557">
        <ele>350.0</ele>
        <time>2020-11-01T11:26:37Z</time>
      </trkpt>
      <trkpt lat="43.267036" lon="-5.1495566">
        <ele>350.0</ele>
        <time>2020-11-01T11:26:39Z</time>
      </trkpt>
      <trkpt lat="43.267036" lon="-5.149558">
        <ele>350.0</ele>
        <time>2020-11-01T11:26:40Z</time>
      </trkpt>
      <trkpt lat="43.267036" lon="-5.1495614">
        <ele>350.0</ele>
        <time>2020-11-01T11:26:41Z</time>
      </trkpt>
      <trkpt lat="43.267036" lon="-5.1495657">
        <ele>350.0</ele>
        <time>2020-11-01T11:26:42Z</time>
      </trkpt>
      <trkpt lat="43.267036" lon="-5.149572">
        <ele>350.0</ele>
        <time>2020-11-01T11:26:43Z</time>
      </trkpt>
      <trkpt lat="43.267036" lon="-5.14958">
        <ele>350.0</ele>
        <time>2020-11-01T11:26:45Z</time>
      </trkpt>
      <trkpt lat="43.26704" lon="-5.1495914">
        <ele>350.0</ele>
        <time>2020-11-01T11:26:45Z</time>
      </trkpt>
      <trkpt lat="43.26704" lon="-5.1496034">
        <ele>350.0</ele>
        <time>2020-11-01T11:26:46Z</time>
      </trkpt>
      <trkpt lat="43.26704" lon="-5.149616">
        <ele>350.0</ele>
        <time>2020-11-01T11:26:47Z</time>
      </trkpt>
      <trkpt lat="43.26704" lon="-5.1496267">
        <ele>351.0</ele>
        <time>2020-11-01T11:26:48Z</time>
      </trkpt>
      <trkpt lat="43.267036" lon="-5.1496377">
        <ele>351.0</ele>
        <time>2020-11-01T11:26:49Z</time>
      </trkpt>
      <trkpt lat="43.267036" lon="-5.149647">
        <ele>351.0</ele>
        <time>2020-11-01T11:26:50Z</time>
      </trkpt>
      <trkpt lat="43.267036" lon="-5.149655">
        <ele>351.0</ele>
        <time>2020-11-01T11:26:51Z</time>
      </trkpt>
      <trkpt lat="43.267036" lon="-5.1496634">
        <ele>351.0</ele>
        <time>2020-11-01T11:26:53Z</time>
      </trkpt>
      <trkpt lat="43.267036" lon="-5.149673">
        <ele>352.0</ele>
        <time>2020-11-01T11:26:53Z</time>
      </trkpt>
      <trkpt lat="43.267033" lon="-5.149683">
        <ele>352.0</ele>
        <time>2020-11-01T11:26:54Z</time>
      </trkpt>
      <trkpt lat="43.267036" lon="-5.1496964">
        <ele>352.0</ele>
        <time>2020-11-01T11:26:55Z</time>
      </trkpt>
      <trkpt lat="43.26704" lon="-5.1497116">
        <ele>352.0</ele>
        <time>2020-11-01T11:26:56Z</time>
      </trkpt>
      <trkpt lat="43.26704" lon="-5.149728">
        <ele>352.0</ele>
        <time>2020-11-01T11:26:57Z</time>
      </trkpt>
      <trkpt lat="43.267048" lon="-5.1497455">
        <ele>353.0</ele>
        <time>2020-11-01T11:26:58Z</time>
      </trkpt>
      <trkpt lat="43.267056" lon="-5.1497607">
        <ele>353.0</ele>
        <time>2020-11-01T11:26:59Z</time>
      </trkpt>
      <trkpt lat="43.267056" lon="-5.1497726">
        <ele>353.0</ele>
        <time>2020-11-01T11:27:00Z</time>
      </trkpt>
      <trkpt lat="43.267063" lon="-5.149781">
        <ele>353.0</ele>
        <time>2020-11-01T11:27:01Z</time>
      </trkpt>
      <trkpt lat="43.267063" lon="-5.1497846">
        <ele>353.0</ele>
        <time>2020-11-01T11:27:02Z</time>
      </trkpt>
      <trkpt lat="43.267056" lon="-5.1497846">
        <ele>354.0</ele>
        <time>2020-11-01T11:27:03Z</time>
      </trkpt>
      <trkpt lat="43.267056" lon="-5.149784">
        <ele>354.0</ele>
        <time>2020-11-01T11:27:04Z</time>
      </trkpt>
      <trkpt lat="43.267056" lon="-5.149782">
        <ele>354.0</ele>
        <time>2020-11-01T11:27:05Z</time>
      </trkpt>
      <trkpt lat="43.267056" lon="-5.1497784">
        <ele>354.0</ele>
        <time>2020-11-01T11:27:06Z</time>
      </trkpt>
      <trkpt lat="43.267056" lon="-5.1497717">
        <ele>354.0</ele>
        <time>2020-11-01T11:27:07Z</time>
      </trkpt>
      <trkpt lat="43.267056" lon="-5.149763">
        <ele>354.0</ele>
        <time>2020-11-01T11:27:08Z</time>
      </trkpt>
      <trkpt lat="43.267056" lon="-5.1497545">
        <ele>355.0</ele>
        <time>2020-11-01T11:27:09Z</time>
      </trkpt>
      <trkpt lat="43.267063" lon="-5.1497474">
        <ele>355.0</ele>
        <time>2020-11-01T11:27:10Z</time>
      </trkpt>
      <trkpt lat="43.267067" lon="-5.1497416">
        <ele>355.0</ele>
        <time>2020-11-01T11:27:11Z</time>
      </trkpt>
      <trkpt lat="43.26707" lon="-5.1497374">
        <ele>355.0</ele>
        <time>2020-11-01T11:27:12Z</time>
      </trkpt>
      <trkpt lat="43.26708" lon="-5.1497326">
        <ele>355.0</ele>
        <time>2020-11-01T11:27:14Z</time>
      </trkpt>
      <trkpt lat="43.267082" lon="-5.149728">
        <ele>355.0</ele>
        <time>2020-11-01T11:27:14Z</time>
      </trkpt>
      <trkpt lat="43.267082" lon="-5.1497235">
        <ele>355.0</ele>
        <time>2020-11-01T11:27:15Z</time>
      </trkpt>
      <trkpt lat="43.267086" lon="-5.149719">
        <ele>355.0</ele>
        <time>2020-11-01T11:27:16Z</time>
      </trkpt>
      <trkpt lat="43.267086" lon="-5.1497135">
        <ele>355.0</ele>
        <time>2020-11-01T11:27:17Z</time>
      </trkpt>
      <trkpt lat="43.267086" lon="-5.1497073">
        <ele>355.0</ele>
        <time>2020-11-01T11:27:18Z</time>
      </trkpt>
      <trkpt lat="43.267094" lon="-5.1497025">
        <ele>355.0</ele>
        <time>2020-11-01T11:27:19Z</time>
      </trkpt>
      <trkpt lat="43.267094" lon="-5.1496987">
        <ele>355.0</ele>
        <time>2020-11-01T11:27:20Z</time>
      </trkpt>
      <trkpt lat="43.267097" lon="-5.1496944">
        <ele>355.0</ele>
        <time>2020-11-01T11:27:21Z</time>
      </trkpt>
      <trkpt lat="43.267097" lon="-5.149688">
        <ele>356.0</ele>
        <time>2020-11-01T11:27:22Z</time>
      </trkpt>
      <trkpt lat="43.2671" lon="-5.149681">
        <ele>356.0</ele>
        <time>2020-11-01T11:27:23Z</time>
      </trkpt>
      <trkpt lat="43.2671" lon="-5.149676">
        <ele>356.0</ele>
        <time>2020-11-01T11:27:24Z</time>
      </trkpt>
      <trkpt lat="43.26711" lon="-5.1496744">
        <ele>356.0</ele>
        <time>2020-11-01T11:27:25Z</time>
      </trkpt>
      <trkpt lat="43.267113" lon="-5.1496744">
        <ele>356.0</ele>
        <time>2020-11-01T11:27:26Z</time>
      </trkpt>
      <trkpt lat="43.267117" lon="-5.1496744">
        <ele>356.0</ele>
        <time>2020-11-01T11:27:27Z</time>
      </trkpt>
      <trkpt lat="43.267124" lon="-5.1496725">
        <ele>356.0</ele>
        <time>2020-11-01T11:27:28Z</time>
      </trkpt>
      <trkpt lat="43.267128" lon="-5.1496735">
        <ele>356.0</ele>
        <time>2020-11-01T11:27:29Z</time>
      </trkpt>
      <trkpt lat="43.26713" lon="-5.149676">
        <ele>357.0</ele>
        <time>2020-11-01T11:27:30Z</time>
      </trkpt>
      <trkpt lat="43.26714" lon="-5.1496787">
        <ele>357.0</ele>
        <time>2020-11-01T11:27:31Z</time>
      </trkpt>
      <trkpt lat="43.267143" lon="-5.1496825">
        <ele>357.0</ele>
        <time>2020-11-01T11:27:32Z</time>
      </trkpt>
      <trkpt lat="43.267143" lon="-5.149688">
        <ele>357.0</ele>
        <time>2020-11-01T11:27:33Z</time>
      </trkpt>
      <trkpt lat="43.267147" lon="-5.149694">
        <ele>357.0</ele>
        <time>2020-11-01T11:27:34Z</time>
      </trkpt>
      <trkpt lat="43.267147" lon="-5.1496997">
        <ele>358.0</ele>
        <time>2020-11-01T11:27:35Z</time>
      </trkpt>
      <trkpt lat="43.267147" lon="-5.1497045">
        <ele>358.0</ele>
        <time>2020-11-01T11:27:37Z</time>
      </trkpt>
      <trkpt lat="43.267143" lon="-5.149709">
        <ele>358.0</ele>
        <time>2020-11-01T11:27:37Z</time>
      </trkpt>
      <trkpt lat="43.267143" lon="-5.149713">
        <ele>358.0</ele>
        <time>2020-11-01T11:27:38Z</time>
      </trkpt>
      <trkpt lat="43.26714" lon="-5.1497173">
        <ele>358.0</ele>
        <time>2020-11-01T11:27:39Z</time>
      </trkpt>
      <trkpt lat="43.26713" lon="-5.1497207">
        <ele>358.0</ele>
        <time>2020-11-01T11:27:40Z</time>
      </trkpt>
      <trkpt lat="43.267128" lon="-5.149724">
        <ele>359.0</ele>
        <time>2020-11-01T11:27:41Z</time>
      </trkpt>
      <trkpt lat="43.267124" lon="-5.149727">
        <ele>359.0</ele>
        <time>2020-11-01T11:27:42Z</time>
      </trkpt>
      <trkpt lat="43.267124" lon="-5.1497293">
        <ele>359.0</ele>
        <time>2020-11-01T11:27:43Z</time>
      </trkpt>
      <trkpt lat="43.267117" lon="-5.149733">
        <ele>359.0</ele>
        <time>2020-11-01T11:27:44Z</time>
      </trkpt>
      <trkpt lat="43.267117" lon="-5.1497393">
        <ele>359.0</ele>
        <time>2020-11-01T11:27:45Z</time>
      </trkpt>
      <trkpt lat="43.267117" lon="-5.149747">
        <ele>359.0</ele>
        <time>2020-11-01T11:27:46Z</time>
      </trkpt>
      <trkpt lat="43.267113" lon="-5.1497545">
        <ele>359.0</ele>
        <time>2020-11-01T11:27:47Z</time>
      </trkpt>
      <trkpt lat="43.26711" lon="-5.149764">
        <ele>360.0</ele>
        <time>2020-11-01T11:27:48Z</time>
      </trkpt>
      <trkpt lat="43.26711" lon="-5.1497755">
        <ele>360.0</ele>
        <time>2020-11-01T11:27:49Z</time>
      </trkpt>
      <trkpt lat="43.2671" lon="-5.1497884">
        <ele>360.0</ele>
        <time>2020-11-01T11:27:50Z</time>
      </trkpt>
      <trkpt lat="43.2671" lon="-5.1498003">
        <ele>360.0</ele>
        <time>2020-11-01T11:27:51Z</time>
      </trkpt>
      <trkpt lat="43.26711" lon="-5.1498117">
        <ele>360.0</ele>
        <time>2020-11-01T11:27:52Z</time>
      </trkpt>
      <trkpt lat="43.26711" lon="-5.1498227">
        <ele>361.0</ele>
        <time>2020-11-01T11:27:53Z</time>
      </trkpt>
      <trkpt lat="43.26711" lon="-5.149834">
        <ele>361.0</ele>
        <time>2020-11-01T11:27:54Z</time>
      </trkpt>
      <trkpt lat="43.26711" lon="-5.149846">
        <ele>361.0</ele>
        <time>2020-11-01T11:27:55Z</time>
      </trkpt>
      <trkpt lat="43.26711" lon="-5.149858">
        <ele>361.0</ele>
        <time>2020-11-01T11:27:56Z</time>
      </trkpt>
      <trkpt lat="43.26711" lon="-5.149867">
        <ele>361.0</ele>
        <time>2020-11-01T11:27:58Z</time>
      </trkpt>
      <trkpt lat="43.26711" lon="-5.1498756">
        <ele>361.0</ele>
        <time>2020-11-01T11:27:58Z</time>
      </trkpt>
      <trkpt lat="43.267113" lon="-5.1498837">
        <ele>361.0</ele>
        <time>2020-11-01T11:27:59Z</time>
      </trkpt>
      <trkpt lat="43.267113" lon="-5.1498923">
        <ele>361.0</ele>
        <time>2020-11-01T11:28:00Z</time>
      </trkpt>
      <trkpt lat="43.267113" lon="-5.149902">
        <ele>361.0</ele>
        <time>2020-11-01T11:28:01Z</time>
      </trkpt>
      <trkpt lat="43.267117" lon="-5.1499133">
        <ele>361.0</ele>
        <time>2020-11-01T11:28:02Z</time>
      </trkpt>
      <trkpt lat="43.267124" lon="-5.1499224">
        <ele>361.0</ele>
        <time>2020-11-01T11:28:03Z</time>
      </trkpt>
      <trkpt lat="43.267124" lon="-5.1499295">
        <ele>362.0</ele>
        <time>2020-11-01T11:28:04Z</time>
      </trkpt>
      <trkpt lat="43.267124" lon="-5.149937">
        <ele>362.0</ele>
        <time>2020-11-01T11:28:05Z</time>
      </trkpt>
      <trkpt lat="43.267124" lon="-5.149945">
        <ele>362.0</ele>
        <time>2020-11-01T11:28:06Z</time>
      </trkpt>
      <trkpt lat="43.267117" lon="-5.149951">
        <ele>362.0</ele>
        <time>2020-11-01T11:28:07Z</time>
      </trkpt>
      <trkpt lat="43.267113" lon="-5.149955">
        <ele>362.0</ele>
        <time>2020-11-01T11:28:08Z</time>
      </trkpt>
      <trkpt lat="43.26711" lon="-5.1499662">
        <ele>363.0</ele>
        <time>2020-11-01T11:28:10Z</time>
      </trkpt>
      <trkpt lat="43.26711" lon="-5.149967">
        <ele>363.0</ele>
        <time>2020-11-01T11:28:11Z</time>
      </trkpt>
      <trkpt lat="43.26711" lon="-5.14997">
        <ele>363.0</ele>
        <time>2020-11-01T11:28:12Z</time>
      </trkpt>
      <trkpt lat="43.26711" lon="-5.149973">
        <ele>363.0</ele>
        <time>2020-11-01T11:28:14Z</time>
      </trkpt>
      <trkpt lat="43.26711" lon="-5.149979">
        <ele>364.0</ele>
        <time>2020-11-01T11:28:14Z</time>
      </trkpt>
      <trkpt lat="43.267113" lon="-5.1499867">
        <ele>364.0</ele>
        <time>2020-11-01T11:28:15Z</time>
      </trkpt>
      <trkpt lat="43.267113" lon="-5.149998">
        <ele>364.0</ele>
        <time>2020-11-01T11:28:16Z</time>
      </trkpt>
      <trkpt lat="43.267117" lon="-5.150011">
        <ele>364.0</ele>
        <time>2020-11-01T11:28:17Z</time>
      </trkpt>
      <trkpt lat="43.267124" lon="-5.1500225">
        <ele>364.0</ele>
        <time>2020-11-01T11:28:18Z</time>
      </trkpt>
      <trkpt lat="43.267124" lon="-5.1500316">
        <ele>365.0</ele>
        <time>2020-11-01T11:28:19Z</time>
      </trkpt>
      <trkpt lat="43.267124" lon="-5.1500382">
        <ele>365.0</ele>
        <time>2020-11-01T11:28:20Z</time>
      </trkpt>
      <trkpt lat="43.267124" lon="-5.150047">
        <ele>365.0</ele>
        <time>2020-11-01T11:28:22Z</time>
      </trkpt>
      <trkpt lat="43.267124" lon="-5.150057">
        <ele>365.0</ele>
        <time>2020-11-01T11:28:22Z</time>
      </trkpt>
      <trkpt lat="43.267124" lon="-5.150067">
        <ele>365.0</ele>
        <time>2020-11-01T11:28:23Z</time>
      </trkpt>
      <trkpt lat="43.267124" lon="-5.150076">
        <ele>366.0</ele>
        <time>2020-11-01T11:28:24Z</time>
      </trkpt>
      <trkpt lat="43.267124" lon="-5.150084">
        <ele>366.0</ele>
        <time>2020-11-01T11:28:25Z</time>
      </trkpt>
      <trkpt lat="43.267124" lon="-5.150091">
        <ele>366.0</ele>
        <time>2020-11-01T11:28:26Z</time>
      </trkpt>
      <trkpt lat="43.267124" lon="-5.150096">
        <ele>366.0</ele>
        <time>2020-11-01T11:28:27Z</time>
      </trkpt>
      <trkpt lat="43.267124" lon="-5.1501007">
        <ele>366.0</ele>
        <time>2020-11-01T11:28:28Z</time>
      </trkpt>
      <trkpt lat="43.267117" lon="-5.1501036">
        <ele>366.0</ele>
        <time>2020-11-01T11:28:29Z</time>
      </trkpt>
      <trkpt lat="43.267117" lon="-5.1501064">
        <ele>366.0</ele>
        <time>2020-11-01T11:28:30Z</time>
      </trkpt>
      <trkpt lat="43.267117" lon="-5.1501083">
        <ele>366.0</ele>
        <time>2020-11-01T11:28:31Z</time>
      </trkpt>
      <trkpt lat="43.267117" lon="-5.15011">
        <ele>367.0</ele>
        <time>2020-11-01T11:28:32Z</time>
      </trkpt>
      <trkpt lat="43.267113" lon="-5.1501117">
        <ele>367.0</ele>
        <time>2020-11-01T11:28:33Z</time>
      </trkpt>
      <trkpt lat="43.2671" lon="-5.150125">
        <ele>368.0</ele>
        <time>2020-11-01T11:28:52Z</time>
      </trkpt>
      <trkpt lat="43.267097" lon="-5.1501346">
        <ele>368.0</ele>
        <time>2020-11-01T11:28:55Z</time>
      </trkpt>
      <trkpt lat="43.267097" lon="-5.1501384">
        <ele>368.0</ele>
        <time>2020-11-01T11:28:56Z</time>
      </trkpt>
      <trkpt lat="43.267094" lon="-5.150144">
        <ele>368.0</ele>
        <time>2020-11-01T11:28:57Z</time>
      </trkpt>
      <trkpt lat="43.267086" lon="-5.1501513">
        <ele>368.0</ele>
        <time>2020-11-01T11:28:58Z</time>
      </trkpt>
      <trkpt lat="43.267082" lon="-5.150157">
        <ele>368.0</ele>
        <time>2020-11-01T11:28:59Z</time>
      </trkpt>
      <trkpt lat="43.26707" lon="-5.1501627">
        <ele>368.0</ele>
        <time>2020-11-01T11:29:00Z</time>
      </trkpt>
      <trkpt lat="43.267056" lon="-5.1501703">
        <ele>368.0</ele>
        <time>2020-11-01T11:29:01Z</time>
      </trkpt>
      <trkpt lat="43.267048" lon="-5.1501784">
        <ele>368.0</ele>
        <time>2020-11-01T11:29:02Z</time>
      </trkpt>
      <trkpt lat="43.267036" lon="-5.1501904">
        <ele>369.0</ele>
        <time>2020-11-01T11:29:03Z</time>
      </trkpt>
      <trkpt lat="43.267025" lon="-5.1502023">
        <ele>369.0</ele>
        <time>2020-11-01T11:29:04Z</time>
      </trkpt>
      <trkpt lat="43.26702" lon="-5.1502094">
        <ele>369.0</ele>
        <time>2020-11-01T11:29:05Z</time>
      </trkpt>
      <trkpt lat="43.267017" lon="-5.1502132">
        <ele>369.0</ele>
        <time>2020-11-01T11:29:06Z</time>
      </trkpt>
      <trkpt lat="43.267017" lon="-5.150216">
        <ele>369.0</ele>
        <time>2020-11-01T11:29:07Z</time>
      </trkpt>
      <trkpt lat="43.26701" lon="-5.1502194">
        <ele>369.0</ele>
        <time>2020-11-01T11:29:08Z</time>
      </trkpt>
      <trkpt lat="43.26701" lon="-5.150224">
        <ele>369.0</ele>
        <time>2020-11-01T11:29:09Z</time>
      </trkpt>
      <trkpt lat="43.26701" lon="-5.15023">
        <ele>370.0</ele>
        <time>2020-11-01T11:29:10Z</time>
      </trkpt>
      <trkpt lat="43.267006" lon="-5.1502366">
        <ele>370.0</ele>
        <time>2020-11-01T11:29:11Z</time>
      </trkpt>
      <trkpt lat="43.267002" lon="-5.1502433">
        <ele>370.0</ele>
        <time>2020-11-01T11:29:12Z</time>
      </trkpt>
      <trkpt lat="43.266994" lon="-5.1502514">
        <ele>370.0</ele>
        <time>2020-11-01T11:29:13Z</time>
      </trkpt>
      <trkpt lat="43.26699" lon="-5.150261">
        <ele>370.0</ele>
        <time>2020-11-01T11:29:14Z</time>
      </trkpt>
      <trkpt lat="43.26699" lon="-5.150272">
        <ele>370.0</ele>
        <time>2020-11-01T11:29:15Z</time>
      </trkpt>
      <trkpt lat="43.266987" lon="-5.1502824">
        <ele>371.0</ele>
        <time>2020-11-01T11:29:16Z</time>
      </trkpt>
      <trkpt lat="43.266987" lon="-5.150291">
        <ele>371.0</ele>
        <time>2020-11-01T11:29:17Z</time>
      </trkpt>
      <trkpt lat="43.26699" lon="-5.1503005">
        <ele>371.0</ele>
        <time>2020-11-01T11:29:18Z</time>
      </trkpt>
      <trkpt lat="43.26699" lon="-5.150308">
        <ele>371.0</ele>
        <time>2020-11-01T11:29:19Z</time>
      </trkpt>
      <trkpt lat="43.266994" lon="-5.1503143">
        <ele>371.0</ele>
        <time>2020-11-01T11:29:20Z</time>
      </trkpt>
      <trkpt lat="43.266994" lon="-5.1503196">
        <ele>371.0</ele>
        <time>2020-11-01T11:29:21Z</time>
      </trkpt>
      <trkpt lat="43.266994" lon="-5.150326">
        <ele>371.0</ele>
        <time>2020-11-01T11:29:22Z</time>
      </trkpt>
      <trkpt lat="43.267002" lon="-5.150333">
        <ele>371.0</ele>
        <time>2020-11-01T11:29:23Z</time>
      </trkpt>
      <trkpt lat="43.266994" lon="-5.1503396">
        <ele>371.0</ele>
        <time>2020-11-01T11:29:24Z</time>
      </trkpt>
      <trkpt lat="43.266994" lon="-5.1503425">
        <ele>371.0</ele>
        <time>2020-11-01T11:29:26Z</time>
      </trkpt>
      <trkpt lat="43.26699" lon="-5.150346">
        <ele>372.0</ele>
        <time>2020-11-01T11:29:26Z</time>
      </trkpt>
      <trkpt lat="43.26699" lon="-5.1503487">
        <ele>372.0</ele>
        <time>2020-11-01T11:29:27Z</time>
      </trkpt>
      <trkpt lat="43.266987" lon="-5.15035">
        <ele>372.0</ele>
        <time>2020-11-01T11:29:28Z</time>
      </trkpt>
      <trkpt lat="43.26698" lon="-5.1503515">
        <ele>372.0</ele>
        <time>2020-11-01T11:29:29Z</time>
      </trkpt>
      <trkpt lat="43.26698" lon="-5.150352">
        <ele>372.0</ele>
        <time>2020-11-01T11:29:30Z</time>
      </trkpt>
      <trkpt lat="43.266975" lon="-5.1503534">
        <ele>373.0</ele>
        <time>2020-11-01T11:29:31Z</time>
      </trkpt>
      <trkpt lat="43.266968" lon="-5.150356">
        <ele>373.0</ele>
        <time>2020-11-01T11:29:32Z</time>
      </trkpt>
      <trkpt lat="43.266964" lon="-5.1503572">
        <ele>373.0</ele>
        <time>2020-11-01T11:29:34Z</time>
      </trkpt>
      <trkpt lat="43.26696" lon="-5.1503615">
        <ele>373.0</ele>
        <time>2020-11-01T11:29:34Z</time>
      </trkpt>
      <trkpt lat="43.26696" lon="-5.1503677">
        <ele>373.0</ele>
        <time>2020-11-01T11:29:35Z</time>
      </trkpt>
      <trkpt lat="43.266953" lon="-5.150376">
        <ele>374.0</ele>
        <time>2020-11-01T11:29:36Z</time>
      </trkpt>
      <trkpt lat="43.26695" lon="-5.150386">
        <ele>374.0</ele>
        <time>2020-11-01T11:29:37Z</time>
      </trkpt>
      <trkpt lat="43.266945" lon="-5.1503963">
        <ele>374.0</ele>
        <time>2020-11-01T11:29:38Z</time>
      </trkpt>
      <trkpt lat="43.266945" lon="-5.1504054">
        <ele>374.0</ele>
        <time>2020-11-01T11:29:39Z</time>
      </trkpt>
      <trkpt lat="43.266937" lon="-5.1504145">
        <ele>374.0</ele>
        <time>2020-11-01T11:29:40Z</time>
      </trkpt>
      <trkpt lat="43.266937" lon="-5.1504226">
        <ele>375.0</ele>
        <time>2020-11-01T11:29:41Z</time>
      </trkpt>
      <trkpt lat="43.266937" lon="-5.1504307">
        <ele>375.0</ele>
        <time>2020-11-01T11:29:42Z</time>
      </trkpt>
      <trkpt lat="43.266937" lon="-5.1504407">
        <ele>375.0</ele>
        <time>2020-11-01T11:29:43Z</time>
      </trkpt>
      <trkpt lat="43.266937" lon="-5.1504498">
        <ele>375.0</ele>
        <time>2020-11-01T11:29:44Z</time>
      </trkpt>
      <trkpt lat="43.266937" lon="-5.150458">
        <ele>375.0</ele>
        <time>2020-11-01T11:29:45Z</time>
      </trkpt>
      <trkpt lat="43.266933" lon="-5.150465">
        <ele>375.0</ele>
        <time>2020-11-01T11:29:46Z</time>
      </trkpt>
      <trkpt lat="43.26693" lon="-5.150473">
        <ele>376.0</ele>
        <time>2020-11-01T11:29:47Z</time>
      </trkpt>
      <trkpt lat="43.26693" lon="-5.1504807">
        <ele>376.0</ele>
        <time>2020-11-01T11:29:49Z</time>
      </trkpt>
      <trkpt lat="43.26693" lon="-5.150489">
        <ele>376.0</ele>
        <time>2020-11-01T11:29:49Z</time>
      </trkpt>
      <trkpt lat="43.266922" lon="-5.1504955">
        <ele>376.0</ele>
        <time>2020-11-01T11:29:50Z</time>
      </trkpt>
      <trkpt lat="43.26692" lon="-5.150502">
        <ele>376.0</ele>
        <time>2020-11-01T11:29:51Z</time>
      </trkpt>
      <trkpt lat="43.26692" lon="-5.150508">
        <ele>377.0</ele>
        <time>2020-11-01T11:29:52Z</time>
      </trkpt>
      <trkpt lat="43.266914" lon="-5.1505127">
        <ele>377.0</ele>
        <time>2020-11-01T11:29:53Z</time>
      </trkpt>
      <trkpt lat="43.266907" lon="-5.150517">
        <ele>377.0</ele>
        <time>2020-11-01T11:29:54Z</time>
      </trkpt>
      <trkpt lat="43.2669" lon="-5.150521">
        <ele>377.0</ele>
        <time>2020-11-01T11:29:55Z</time>
      </trkpt>
      <trkpt lat="43.26689" lon="-5.1505218">
        <ele>378.0</ele>
        <time>2020-11-01T11:29:56Z</time>
      </trkpt>
      <trkpt lat="43.266888" lon="-5.1505218">
        <ele>378.0</ele>
        <time>2020-11-01T11:29:57Z</time>
      </trkpt>
      <trkpt lat="43.266876" lon="-5.1505194">
        <ele>378.0</ele>
        <time>2020-11-01T11:30:00Z</time>
      </trkpt>
      <trkpt lat="43.266872" lon="-5.1505194">
        <ele>378.0</ele>
        <time>2020-11-01T11:30:05Z</time>
      </trkpt>
      <trkpt lat="43.266872" lon="-5.15052">
        <ele>378.0</ele>
        <time>2020-11-01T11:30:05Z</time>
      </trkpt>
      <trkpt lat="43.266872" lon="-5.1505218">
        <ele>378.0</ele>
        <time>2020-11-01T11:30:06Z</time>
      </trkpt>
      <trkpt lat="43.26687" lon="-5.1505246">
        <ele>378.0</ele>
        <time>2020-11-01T11:30:07Z</time>
      </trkpt>
      <trkpt lat="43.26686" lon="-5.1505294">
        <ele>378.0</ele>
        <time>2020-11-01T11:30:08Z</time>
      </trkpt>
      <trkpt lat="43.266857" lon="-5.150534">
        <ele>378.0</ele>
        <time>2020-11-01T11:30:09Z</time>
      </trkpt>
      <trkpt lat="43.266846" lon="-5.1505394">
        <ele>378.0</ele>
        <time>2020-11-01T11:30:10Z</time>
      </trkpt>
      <trkpt lat="43.26684" lon="-5.150544">
        <ele>378.0</ele>
        <time>2020-11-01T11:30:11Z</time>
      </trkpt>
      <trkpt lat="43.26683" lon="-5.1505485">
        <ele>378.0</ele>
        <time>2020-11-01T11:30:12Z</time>
      </trkpt>
      <trkpt lat="43.266823" lon="-5.1505523">
        <ele>378.0</ele>
        <time>2020-11-01T11:30:14Z</time>
      </trkpt>
      <trkpt lat="43.266815" lon="-5.1505575">
        <ele>378.0</ele>
        <time>2020-11-01T11:30:14Z</time>
      </trkpt>
      <trkpt lat="43.26681" lon="-5.1505647">
        <ele>379.0</ele>
        <time>2020-11-01T11:30:15Z</time>
      </trkpt>
      <trkpt lat="43.266808" lon="-5.150574">
        <ele>379.0</ele>
        <time>2020-11-01T11:30:16Z</time>
      </trkpt>
      <trkpt lat="43.2668" lon="-5.1505847">
        <ele>379.0</ele>
        <time>2020-11-01T11:30:17Z</time>
      </trkpt>
      <trkpt lat="43.266796" lon="-5.150591">
        <ele>379.0</ele>
        <time>2020-11-01T11:30:18Z</time>
      </trkpt>
      <trkpt lat="43.266792" lon="-5.1505957">
        <ele>379.0</ele>
        <time>2020-11-01T11:30:19Z</time>
      </trkpt>
      <trkpt lat="43.266785" lon="-5.1505985">
        <ele>380.0</ele>
        <time>2020-11-01T11:30:20Z</time>
      </trkpt>
      <trkpt lat="43.26678" lon="-5.1506">
        <ele>380.0</ele>
        <time>2020-11-01T11:30:21Z</time>
      </trkpt>
      <trkpt lat="43.266773" lon="-5.1506004">
        <ele>380.0</ele>
        <time>2020-11-01T11:30:22Z</time>
      </trkpt>
      <trkpt lat="43.266773" lon="-5.1506">
        <ele>380.0</ele>
        <time>2020-11-01T11:30:23Z</time>
      </trkpt>
      <trkpt lat="43.26672" lon="-5.150558">
        <ele>380.0</ele>
        <time>2020-11-01T11:31:30Z</time>
      </trkpt>
      <trkpt lat="43.266712" lon="-5.150561">
        <ele>380.0</ele>
        <time>2020-11-01T11:31:40Z</time>
      </trkpt>
      <trkpt lat="43.26671" lon="-5.1505623">
        <ele>380.0</ele>
        <time>2020-11-01T11:31:41Z</time>
      </trkpt>
      <trkpt lat="43.266705" lon="-5.1505656">
        <ele>380.0</ele>
        <time>2020-11-01T11:31:42Z</time>
      </trkpt>
      <trkpt lat="43.266697" lon="-5.150569">
        <ele>380.0</ele>
        <time>2020-11-01T11:31:43Z</time>
      </trkpt>
      <trkpt lat="43.26669" lon="-5.150574">
        <ele>380.0</ele>
        <time>2020-11-01T11:31:44Z</time>
      </trkpt>
      <trkpt lat="43.26668" lon="-5.150579">
        <ele>380.0</ele>
        <time>2020-11-01T11:31:45Z</time>
      </trkpt>
      <trkpt lat="43.266674" lon="-5.150583">
        <ele>380.0</ele>
        <time>2020-11-01T11:31:46Z</time>
      </trkpt>
      <trkpt lat="43.266666" lon="-5.150587">
        <ele>384.0</ele>
        <time>2020-11-01T11:31:47Z</time>
      </trkpt>
      <trkpt lat="43.26666" lon="-5.1505933">
        <ele>384.0</ele>
        <time>2020-11-01T11:31:49Z</time>
      </trkpt>
      <trkpt lat="43.266647" lon="-5.1506004">
        <ele>384.0</ele>
        <time>2020-11-01T11:31:49Z</time>
      </trkpt>
      <trkpt lat="43.266644" lon="-5.1506076">
        <ele>384.0</ele>
        <time>2020-11-01T11:31:50Z</time>
      </trkpt>
      <trkpt lat="43.266636" lon="-5.1506124">
        <ele>384.0</ele>
        <time>2020-11-01T11:31:51Z</time>
      </trkpt>
      <trkpt lat="43.266632" lon="-5.1506195">
        <ele>384.0</ele>
        <time>2020-11-01T11:31:52Z</time>
      </trkpt>
      <trkpt lat="43.26663" lon="-5.150627">
        <ele>384.0</ele>
        <time>2020-11-01T11:31:53Z</time>
      </trkpt>
      <trkpt lat="43.26663" lon="-5.1506343">
        <ele>384.0</ele>
        <time>2020-11-01T11:31:54Z</time>
      </trkpt>
      <trkpt lat="43.26662" lon="-5.150642">
        <ele>385.0</ele>
        <time>2020-11-01T11:31:55Z</time>
      </trkpt>
      <trkpt lat="43.266617" lon="-5.150651">
        <ele>385.0</ele>
        <time>2020-11-01T11:31:56Z</time>
      </trkpt>
      <trkpt lat="43.266617" lon="-5.150662">
        <ele>385.0</ele>
        <time>2020-11-01T11:31:57Z</time>
      </trkpt>
      <trkpt lat="43.266617" lon="-5.1506715">
        <ele>385.0</ele>
        <time>2020-11-01T11:31:58Z</time>
      </trkpt>
      <trkpt lat="43.266617" lon="-5.150684">
        <ele>385.0</ele>
        <time>2020-11-01T11:31:59Z</time>
      </trkpt>
      <trkpt lat="43.26662" lon="-5.1507">
        <ele>385.0</ele>
        <time>2020-11-01T11:32:00Z</time>
      </trkpt>
      <trkpt lat="43.26662" lon="-5.1507173">
        <ele>385.0</ele>
        <time>2020-11-01T11:32:02Z</time>
      </trkpt>
      <trkpt lat="43.26662" lon="-5.150733">
        <ele>385.0</ele>
        <time>2020-11-01T11:32:02Z</time>
      </trkpt>
      <trkpt lat="43.26662" lon="-5.1507463">
        <ele>386.0</ele>
        <time>2020-11-01T11:32:03Z</time>
      </trkpt>
      <trkpt lat="43.26663" lon="-5.1507583">
        <ele>386.0</ele>
        <time>2020-11-01T11:32:04Z</time>
      </trkpt>
      <trkpt lat="43.26663" lon="-5.150771">
        <ele>386.0</ele>
        <time>2020-11-01T11:32:05Z</time>
      </trkpt>
      <trkpt lat="43.26663" lon="-5.1507807">
        <ele>386.0</ele>
        <time>2020-11-01T11:32:06Z</time>
      </trkpt>
      <trkpt lat="43.26663" lon="-5.1507883">
        <ele>387.0</ele>
        <time>2020-11-01T11:32:07Z</time>
      </trkpt>
      <trkpt lat="43.26663" lon="-5.150795">
        <ele>387.0</ele>
        <time>2020-11-01T11:32:08Z</time>
      </trkpt>
      <trkpt lat="43.26663" lon="-5.1508017">
        <ele>387.0</ele>
        <time>2020-11-01T11:32:09Z</time>
      </trkpt>
      <trkpt lat="43.26662" lon="-5.150808">
        <ele>387.0</ele>
        <time>2020-11-01T11:32:10Z</time>
      </trkpt>
      <trkpt lat="43.26662" lon="-5.150815">
        <ele>388.0</ele>
        <time>2020-11-01T11:32:11Z</time>
      </trkpt>
      <trkpt lat="43.26662" lon="-5.150823">
        <ele>388.0</ele>
        <time>2020-11-01T11:32:12Z</time>
      </trkpt>
      <trkpt lat="43.26662" lon="-5.15083">
        <ele>388.0</ele>
        <time>2020-11-01T11:32:13Z</time>
      </trkpt>
      <trkpt lat="43.26662" lon="-5.150839">
        <ele>388.0</ele>
        <time>2020-11-01T11:32:14Z</time>
      </trkpt>
      <trkpt lat="43.26662" lon="-5.150849">
        <ele>389.0</ele>
        <time>2020-11-01T11:32:15Z</time>
      </trkpt>
      <trkpt lat="43.26662" lon="-5.1508574">
        <ele>389.0</ele>
        <time>2020-11-01T11:32:17Z</time>
      </trkpt>
      <trkpt lat="43.266617" lon="-5.150865">
        <ele>389.0</ele>
        <time>2020-11-01T11:32:17Z</time>
      </trkpt>
      <trkpt lat="43.266617" lon="-5.150872">
        <ele>389.0</ele>
        <time>2020-11-01T11:32:18Z</time>
      </trkpt>
      <trkpt lat="43.266613" lon="-5.150879">
        <ele>389.0</ele>
        <time>2020-11-01T11:32:19Z</time>
      </trkpt>
      <trkpt lat="43.266605" lon="-5.1508846">
        <ele>390.0</ele>
        <time>2020-11-01T11:32:20Z</time>
      </trkpt>
      <trkpt lat="43.2666" lon="-5.150889">
        <ele>390.0</ele>
        <time>2020-11-01T11:32:21Z</time>
      </trkpt>
      <trkpt lat="43.266594" lon="-5.150895">
        <ele>390.0</ele>
        <time>2020-11-01T11:32:22Z</time>
      </trkpt>
      <trkpt lat="43.26659" lon="-5.150902">
        <ele>390.0</ele>
        <time>2020-11-01T11:32:23Z</time>
      </trkpt>
      <trkpt lat="43.266586" lon="-5.150908">
        <ele>391.0</ele>
        <time>2020-11-01T11:32:24Z</time>
      </trkpt>
      <trkpt lat="43.266586" lon="-5.1509147">
        <ele>391.0</ele>
        <time>2020-11-01T11:32:25Z</time>
      </trkpt>
      <trkpt lat="43.26658" lon="-5.15092">
        <ele>391.0</ele>
        <time>2020-11-01T11:32:26Z</time>
      </trkpt>
      <trkpt lat="43.266575" lon="-5.1509256">
        <ele>391.0</ele>
        <time>2020-11-01T11:32:27Z</time>
      </trkpt>
      <trkpt lat="43.266575" lon="-5.150932">
        <ele>392.0</ele>
        <time>2020-11-01T11:32:28Z</time>
      </trkpt>
      <trkpt lat="43.266575" lon="-5.1509376">
        <ele>392.0</ele>
        <time>2020-11-01T11:32:29Z</time>
      </trkpt>
      <trkpt lat="43.266575" lon="-5.1509457">
        <ele>392.0</ele>
        <time>2020-11-01T11:32:30Z</time>
      </trkpt>
      <trkpt lat="43.266575" lon="-5.150955">
        <ele>392.0</ele>
        <time>2020-11-01T11:32:31Z</time>
      </trkpt>
      <trkpt lat="43.266575" lon="-5.150965">
        <ele>392.0</ele>
        <time>2020-11-01T11:32:33Z</time>
      </trkpt>
      <trkpt lat="43.266575" lon="-5.1509767">
        <ele>393.0</ele>
        <time>2020-11-01T11:32:33Z</time>
      </trkpt>
      <trkpt lat="43.266575" lon="-5.150989">
        <ele>393.0</ele>
        <time>2020-11-01T11:32:34Z</time>
      </trkpt>
      <trkpt lat="43.266575" lon="-5.1509995">
        <ele>393.0</ele>
        <time>2020-11-01T11:32:35Z</time>
      </trkpt>
      <trkpt lat="43.266575" lon="-5.15101">
        <ele>393.0</ele>
        <time>2020-11-01T11:32:36Z</time>
      </trkpt>
      <trkpt lat="43.26657" lon="-5.1510196">
        <ele>393.0</ele>
        <time>2020-11-01T11:32:37Z</time>
      </trkpt>
      <trkpt lat="43.26657" lon="-5.1510286">
        <ele>393.0</ele>
        <time>2020-11-01T11:32:38Z</time>
      </trkpt>
      <trkpt lat="43.266563" lon="-5.1510367">
        <ele>393.0</ele>
        <time>2020-11-01T11:32:39Z</time>
      </trkpt>
      <trkpt lat="43.266563" lon="-5.151046">
        <ele>393.0</ele>
        <time>2020-11-01T11:32:40Z</time>
      </trkpt>
      <trkpt lat="43.26656" lon="-5.151056">
        <ele>393.0</ele>
        <time>2020-11-01T11:32:41Z</time>
      </trkpt>
      <trkpt lat="43.26656" lon="-5.151067">
        <ele>394.0</ele>
        <time>2020-11-01T11:32:42Z</time>
      </trkpt>
      <trkpt lat="43.26656" lon="-5.151078">
        <ele>394.0</ele>
        <time>2020-11-01T11:32:43Z</time>
      </trkpt>
      <trkpt lat="43.266556" lon="-5.151089">
        <ele>394.0</ele>
        <time>2020-11-01T11:32:44Z</time>
      </trkpt>
      <trkpt lat="43.266556" lon="-5.151098">
        <ele>394.0</ele>
        <time>2020-11-01T11:32:45Z</time>
      </trkpt>
      <trkpt lat="43.266556" lon="-5.151109">
        <ele>394.0</ele>
        <time>2020-11-01T11:32:46Z</time>
      </trkpt>
      <trkpt lat="43.26656" lon="-5.151121">
        <ele>395.0</ele>
        <time>2020-11-01T11:32:48Z</time>
      </trkpt>
      <trkpt lat="43.266563" lon="-5.1511316">
        <ele>395.0</ele>
        <time>2020-11-01T11:32:48Z</time>
      </trkpt>
      <trkpt lat="43.266563" lon="-5.151143">
        <ele>395.0</ele>
        <time>2020-11-01T11:32:49Z</time>
      </trkpt>
      <trkpt lat="43.266563" lon="-5.1511536">
        <ele>395.0</ele>
        <time>2020-11-01T11:32:50Z</time>
      </trkpt>
      <trkpt lat="43.266563" lon="-5.1511645">
        <ele>395.0</ele>
        <time>2020-11-01T11:32:51Z</time>
      </trkpt>
      <trkpt lat="43.266563" lon="-5.1511755">
        <ele>396.0</ele>
        <time>2020-11-01T11:32:52Z</time>
      </trkpt>
      <trkpt lat="43.266563" lon="-5.151186">
        <ele>396.0</ele>
        <time>2020-11-01T11:32:53Z</time>
      </trkpt>
      <trkpt lat="43.26656" lon="-5.1511955">
        <ele>396.0</ele>
        <time>2020-11-01T11:32:54Z</time>
      </trkpt>
      <trkpt lat="43.26656" lon="-5.151204">
        <ele>396.0</ele>
        <time>2020-11-01T11:32:55Z</time>
      </trkpt>
      <trkpt lat="43.266556" lon="-5.151212">
        <ele>396.0</ele>
        <time>2020-11-01T11:32:56Z</time>
      </trkpt>
      <trkpt lat="43.266556" lon="-5.151221">
        <ele>396.0</ele>
        <time>2020-11-01T11:32:57Z</time>
      </trkpt>
      <trkpt lat="43.26655" lon="-5.1512322">
        <ele>396.0</ele>
        <time>2020-11-01T11:32:58Z</time>
      </trkpt>
      <trkpt lat="43.26655" lon="-5.1512437">
        <ele>396.0</ele>
        <time>2020-11-01T11:32:59Z</time>
      </trkpt>
      <trkpt lat="43.266544" lon="-5.151255">
        <ele>397.0</ele>
        <time>2020-11-01T11:33:00Z</time>
      </trkpt>
      <trkpt lat="43.26654" lon="-5.151266">
        <ele>397.0</ele>
        <time>2020-11-01T11:33:01Z</time>
      </trkpt>
      <trkpt lat="43.26654" lon="-5.1512747">
        <ele>397.0</ele>
        <time>2020-11-01T11:33:02Z</time>
      </trkpt>
      <trkpt lat="43.26653" lon="-5.1512856">
        <ele>397.0</ele>
        <time>2020-11-01T11:33:04Z</time>
      </trkpt>
      <trkpt lat="43.26653" lon="-5.151284">
        <ele>397.0</ele>
        <time>2020-11-01T11:33:05Z</time>
      </trkpt>
      <trkpt lat="43.266525" lon="-5.1512837">
        <ele>397.0</ele>
        <time>2020-11-01T11:33:06Z</time>
      </trkpt>
      <trkpt lat="43.266518" lon="-5.1512856">
        <ele>397.0</ele>
        <time>2020-11-01T11:33:07Z</time>
      </trkpt>
      <trkpt lat="43.266518" lon="-5.1512895">
        <ele>397.0</ele>
        <time>2020-11-01T11:33:08Z</time>
      </trkpt>
      <trkpt lat="43.266514" lon="-5.151295">
        <ele>397.0</ele>
        <time>2020-11-01T11:33:09Z</time>
      </trkpt>
      <trkpt lat="43.266514" lon="-5.151303">
        <ele>397.0</ele>
        <time>2020-11-01T11:33:10Z</time>
      </trkpt>
      <trkpt lat="43.26651" lon="-5.151311">
        <ele>397.0</ele>
        <time>2020-11-01T11:33:11Z</time>
      </trkpt>
      <trkpt lat="43.266502" lon="-5.1513176">
        <ele>397.0</ele>
        <time>2020-11-01T11:33:12Z</time>
      </trkpt>
      <trkpt lat="43.2665" lon="-5.1513224">
        <ele>398.0</ele>
        <time>2020-11-01T11:33:13Z</time>
      </trkpt>
      <trkpt lat="43.266495" lon="-5.151326">
        <ele>398.0</ele>
        <time>2020-11-01T11:33:14Z</time>
      </trkpt>
      <trkpt lat="43.266487" lon="-5.1513295">
        <ele>398.0</ele>
        <time>2020-11-01T11:33:15Z</time>
      </trkpt>
      <trkpt lat="43.266483" lon="-5.1513324">
        <ele>398.0</ele>
        <time>2020-11-01T11:33:17Z</time>
      </trkpt>
      <trkpt lat="43.26648" lon="-5.151337">
        <ele>398.0</ele>
        <time>2020-11-01T11:33:17Z</time>
      </trkpt>
      <trkpt lat="43.266468" lon="-5.151342">
        <ele>398.0</ele>
        <time>2020-11-01T11:33:18Z</time>
      </trkpt>
      <trkpt lat="43.26645" lon="-5.1513524">
        <ele>398.0</ele>
        <time>2020-11-01T11:33:20Z</time>
      </trkpt>
      <trkpt lat="43.26645" lon="-5.151354">
        <ele>398.0</ele>
        <time>2020-11-01T11:33:25Z</time>
      </trkpt>
      <trkpt lat="43.26644" lon="-5.151355">
        <ele>398.0</ele>
        <time>2020-11-01T11:33:27Z</time>
      </trkpt>
      <trkpt lat="43.26644" lon="-5.1513577">
        <ele>398.0</ele>
        <time>2020-11-01T11:33:27Z</time>
      </trkpt>
      <trkpt lat="43.26644" lon="-5.1513615">
        <ele>398.0</ele>
        <time>2020-11-01T11:33:28Z</time>
      </trkpt>
      <trkpt lat="43.26644" lon="-5.151365">
        <ele>398.0</ele>
        <time>2020-11-01T11:33:29Z</time>
      </trkpt>
      <trkpt lat="43.266438" lon="-5.1513677">
        <ele>398.0</ele>
        <time>2020-11-01T11:33:30Z</time>
      </trkpt>
      <trkpt lat="43.266434" lon="-5.15137">
        <ele>398.0</ele>
        <time>2020-11-01T11:33:31Z</time>
      </trkpt>
      <trkpt lat="43.266434" lon="-5.151374">
        <ele>398.0</ele>
        <time>2020-11-01T11:33:32Z</time>
      </trkpt>
      <trkpt lat="43.266426" lon="-5.15138">
        <ele>398.0</ele>
        <time>2020-11-01T11:33:33Z</time>
      </trkpt>
      <trkpt lat="43.266422" lon="-5.151388">
        <ele>398.0</ele>
        <time>2020-11-01T11:33:34Z</time>
      </trkpt>
      <trkpt lat="43.26642" lon="-5.1513987">
        <ele>398.0</ele>
        <time>2020-11-01T11:33:35Z</time>
      </trkpt>
      <trkpt lat="43.26642" lon="-5.151407">
        <ele>398.0</ele>
        <time>2020-11-01T11:33:36Z</time>
      </trkpt>
      <trkpt lat="43.26641" lon="-5.151415">
        <ele>398.0</ele>
        <time>2020-11-01T11:33:37Z</time>
      </trkpt>
      <trkpt lat="43.26641" lon="-5.1514225">
        <ele>398.0</ele>
        <time>2020-11-01T11:33:38Z</time>
      </trkpt>
      <trkpt lat="43.266407" lon="-5.1514316">
        <ele>398.0</ele>
        <time>2020-11-01T11:33:39Z</time>
      </trkpt>
      <trkpt lat="43.266407" lon="-5.15144">
        <ele>398.0</ele>
        <time>2020-11-01T11:33:40Z</time>
      </trkpt>
      <trkpt lat="43.2664" lon="-5.1514463">
        <ele>398.0</ele>
        <time>2020-11-01T11:33:41Z</time>
      </trkpt>
      <trkpt lat="43.2664" lon="-5.151451">
        <ele>398.0</ele>
        <time>2020-11-01T11:33:43Z</time>
      </trkpt>
      <trkpt lat="43.266396" lon="-5.151455">
        <ele>398.0</ele>
        <time>2020-11-01T11:33:43Z</time>
      </trkpt>
      <trkpt lat="43.26639" lon="-5.15146">
        <ele>398.0</ele>
        <time>2020-11-01T11:33:44Z</time>
      </trkpt>
      <trkpt lat="43.26639" lon="-5.1514654">
        <ele>398.0</ele>
        <time>2020-11-01T11:33:45Z</time>
      </trkpt>
      <trkpt lat="43.26639" lon="-5.1514745">
        <ele>399.0</ele>
        <time>2020-11-01T11:33:46Z</time>
      </trkpt>
      <trkpt lat="43.26639" lon="-5.151484">
        <ele>399.0</ele>
        <time>2020-11-01T11:33:47Z</time>
      </trkpt>
      <trkpt lat="43.26639" lon="-5.151494">
        <ele>399.0</ele>
        <time>2020-11-01T11:33:48Z</time>
      </trkpt>
      <trkpt lat="43.26639" lon="-5.1515045">
        <ele>399.0</ele>
        <time>2020-11-01T11:33:49Z</time>
      </trkpt>
      <trkpt lat="43.266384" lon="-5.151514">
        <ele>399.0</ele>
        <time>2020-11-01T11:33:51Z</time>
      </trkpt>
      <trkpt lat="43.266384" lon="-5.1515245">
        <ele>399.0</ele>
        <time>2020-11-01T11:33:51Z</time>
      </trkpt>
      <trkpt lat="43.266384" lon="-5.1515346">
        <ele>399.0</ele>
        <time>2020-11-01T11:33:52Z</time>
      </trkpt>
      <trkpt lat="43.266384" lon="-5.151545">
        <ele>399.0</ele>
        <time>2020-11-01T11:33:53Z</time>
      </trkpt>
      <trkpt lat="43.26639" lon="-5.151557">
        <ele>399.0</ele>
        <time>2020-11-01T11:33:54Z</time>
      </trkpt>
      <trkpt lat="43.26639" lon="-5.1515684">
        <ele>399.0</ele>
        <time>2020-11-01T11:33:55Z</time>
      </trkpt>
      <trkpt lat="43.26639" lon="-5.1515794">
        <ele>400.0</ele>
        <time>2020-11-01T11:33:56Z</time>
      </trkpt>
      <trkpt lat="43.266384" lon="-5.15159">
        <ele>400.0</ele>
        <time>2020-11-01T11:33:57Z</time>
      </trkpt>
      <trkpt lat="43.26638" lon="-5.1516004">
        <ele>400.0</ele>
        <time>2020-11-01T11:33:58Z</time>
      </trkpt>
      <trkpt lat="43.266376" lon="-5.15161">
        <ele>400.0</ele>
        <time>2020-11-01T11:33:59Z</time>
      </trkpt>
      <trkpt lat="43.26637" lon="-5.151622">
        <ele>400.0</ele>
        <time>2020-11-01T11:34:00Z</time>
      </trkpt>
      <trkpt lat="43.266365" lon="-5.151635">
        <ele>400.0</ele>
        <time>2020-11-01T11:34:01Z</time>
      </trkpt>
      <trkpt lat="43.26636" lon="-5.1516485">
        <ele>400.0</ele>
        <time>2020-11-01T11:34:02Z</time>
      </trkpt>
      <trkpt lat="43.266354" lon="-5.151662">
        <ele>400.0</ele>
        <time>2020-11-01T11:34:04Z</time>
      </trkpt>
      <trkpt lat="43.266354" lon="-5.1516767">
        <ele>400.0</ele>
        <time>2020-11-01T11:34:04Z</time>
      </trkpt>
      <trkpt lat="43.26635" lon="-5.15169">
        <ele>400.0</ele>
        <time>2020-11-01T11:34:05Z</time>
      </trkpt>
      <trkpt lat="43.26635" lon="-5.151703">
        <ele>401.0</ele>
        <time>2020-11-01T11:34:06Z</time>
      </trkpt>
      <trkpt lat="43.26635" lon="-5.1517143">
        <ele>401.0</ele>
        <time>2020-11-01T11:34:07Z</time>
      </trkpt>
      <trkpt lat="43.266346" lon="-5.1517253">
        <ele>401.0</ele>
        <time>2020-11-01T11:34:08Z</time>
      </trkpt>
      <trkpt lat="43.266346" lon="-5.1517367">
        <ele>401.0</ele>
        <time>2020-11-01T11:34:09Z</time>
      </trkpt>
      <trkpt lat="43.266346" lon="-5.151752">
        <ele>401.0</ele>
        <time>2020-11-01T11:34:10Z</time>
      </trkpt>
      <trkpt lat="43.266346" lon="-5.1517673">
        <ele>401.0</ele>
        <time>2020-11-01T11:34:11Z</time>
      </trkpt>
      <trkpt lat="43.26634" lon="-5.1517806">
        <ele>401.0</ele>
        <time>2020-11-01T11:34:12Z</time>
      </trkpt>
      <trkpt lat="43.26634" lon="-5.151792">
        <ele>401.0</ele>
        <time>2020-11-01T11:34:13Z</time>
      </trkpt>
      <trkpt lat="43.266335" lon="-5.151803">
        <ele>401.0</ele>
        <time>2020-11-01T11:34:14Z</time>
      </trkpt>
      <trkpt lat="43.26633" lon="-5.151814">
        <ele>402.0</ele>
        <time>2020-11-01T11:34:15Z</time>
      </trkpt>
      <trkpt lat="43.266323" lon="-5.1518254">
        <ele>402.0</ele>
        <time>2020-11-01T11:34:16Z</time>
      </trkpt>
      <trkpt lat="43.266323" lon="-5.151832">
        <ele>402.0</ele>
        <time>2020-11-01T11:34:17Z</time>
      </trkpt>
      <trkpt lat="43.26632" lon="-5.151839">
        <ele>402.0</ele>
        <time>2020-11-01T11:34:18Z</time>
      </trkpt>
      <trkpt lat="43.266315" lon="-5.1518464">
        <ele>402.0</ele>
        <time>2020-11-01T11:34:19Z</time>
      </trkpt>
      <trkpt lat="43.266308" lon="-5.151854">
        <ele>402.0</ele>
        <time>2020-11-01T11:34:20Z</time>
      </trkpt>
      <trkpt lat="43.266308" lon="-5.1518626">
        <ele>402.0</ele>
        <time>2020-11-01T11:34:21Z</time>
      </trkpt>
      <trkpt lat="43.266308" lon="-5.151871">
        <ele>402.0</ele>
        <time>2020-11-01T11:34:22Z</time>
      </trkpt>
      <trkpt lat="43.266308" lon="-5.151879">
        <ele>402.0</ele>
        <time>2020-11-01T11:34:23Z</time>
      </trkpt>
      <trkpt lat="43.266308" lon="-5.151889">
        <ele>402.0</ele>
        <time>2020-11-01T11:34:24Z</time>
      </trkpt>
      <trkpt lat="43.266308" lon="-5.151898">
        <ele>402.0</ele>
        <time>2020-11-01T11:34:25Z</time>
      </trkpt>
      <trkpt lat="43.266308" lon="-5.1519094">
        <ele>402.0</ele>
        <time>2020-11-01T11:34:27Z</time>
      </trkpt>
      <trkpt lat="43.266315" lon="-5.1519213">
        <ele>402.0</ele>
        <time>2020-11-01T11:34:27Z</time>
      </trkpt>
      <trkpt lat="43.26632" lon="-5.1519337">
        <ele>403.0</ele>
        <time>2020-11-01T11:34:28Z</time>
      </trkpt>
      <trkpt lat="43.266323" lon="-5.151946">
        <ele>403.0</ele>
        <time>2020-11-01T11:34:29Z</time>
      </trkpt>
      <trkpt lat="43.26633" lon="-5.151954">
        <ele>403.0</ele>
        <time>2020-11-01T11:34:30Z</time>
      </trkpt>
      <trkpt lat="43.266335" lon="-5.1519685">
        <ele>403.0</ele>
        <time>2020-11-01T11:34:33Z</time>
      </trkpt>
      <trkpt lat="43.266335" lon="-5.1519675">
        <ele>403.0</ele>
        <time>2020-11-01T11:34:34Z</time>
      </trkpt>
      <trkpt lat="43.26632" lon="-5.1519604">
        <ele>403.0</ele>
        <time>2020-11-01T11:34:37Z</time>
      </trkpt>
      <trkpt lat="43.26632" lon="-5.1519575">
        <ele>403.0</ele>
        <time>2020-11-01T11:34:38Z</time>
      </trkpt>
      <trkpt lat="43.266315" lon="-5.1519437">
        <ele>403.0</ele>
        <time>2020-11-01T11:38:52Z</time>
      </trkpt>
      <trkpt lat="43.266315" lon="-5.15195">
        <ele>403.0</ele>
        <time>2020-11-01T11:38:52Z</time>
      </trkpt>
      <trkpt lat="43.266315" lon="-5.151962">
        <ele>403.0</ele>
        <time>2020-11-01T11:38:53Z</time>
      </trkpt>
      <trkpt lat="43.266308" lon="-5.151977">
        <ele>403.0</ele>
        <time>2020-11-01T11:38:54Z</time>
      </trkpt>
      <trkpt lat="43.266304" lon="-5.1519933">
        <ele>403.0</ele>
        <time>2020-11-01T11:38:55Z</time>
      </trkpt>
      <trkpt lat="43.266304" lon="-5.1520123">
        <ele>403.0</ele>
        <time>2020-11-01T11:38:56Z</time>
      </trkpt>
      <trkpt lat="43.2663" lon="-5.1520305">
        <ele>403.0</ele>
        <time>2020-11-01T11:38:57Z</time>
      </trkpt>
      <trkpt lat="43.266293" lon="-5.1520467">
        <ele>403.0</ele>
        <time>2020-11-01T11:38:58Z</time>
      </trkpt>
      <trkpt lat="43.26629" lon="-5.1520615">
        <ele>403.0</ele>
        <time>2020-11-01T11:39:00Z</time>
      </trkpt>
      <trkpt lat="43.266285" lon="-5.1520743">
        <ele>403.0</ele>
        <time>2020-11-01T11:39:00Z</time>
      </trkpt>
      <trkpt lat="43.266277" lon="-5.1520824">
        <ele>403.0</ele>
        <time>2020-11-01T11:39:01Z</time>
      </trkpt>
      <trkpt lat="43.266277" lon="-5.1520886">
        <ele>403.0</ele>
        <time>2020-11-01T11:39:02Z</time>
      </trkpt>
      <trkpt lat="43.266273" lon="-5.152093">
        <ele>403.0</ele>
        <time>2020-11-01T11:39:03Z</time>
      </trkpt>
      <trkpt lat="43.26627" lon="-5.152095">
        <ele>403.0</ele>
        <time>2020-11-01T11:39:04Z</time>
      </trkpt>
      <trkpt lat="43.266262" lon="-5.152097">
        <ele>403.0</ele>
        <time>2020-11-01T11:39:05Z</time>
      </trkpt>
      <trkpt lat="43.26626" lon="-5.1520996">
        <ele>403.0</ele>
        <time>2020-11-01T11:39:06Z</time>
      </trkpt>
      <trkpt lat="43.266254" lon="-5.152105">
        <ele>403.0</ele>
        <time>2020-11-01T11:39:06Z</time>
      </trkpt>
      <trkpt lat="43.266247" lon="-5.15211">
        <ele>403.0</ele>
        <time>2020-11-01T11:39:07Z</time>
      </trkpt>
      <trkpt lat="43.266243" lon="-5.152118">
        <ele>403.0</ele>
        <time>2020-11-01T11:39:08Z</time>
      </trkpt>
      <trkpt lat="43.26624" lon="-5.1521263">
        <ele>403.0</ele>
        <time>2020-11-01T11:39:09Z</time>
      </trkpt>
      <trkpt lat="43.266228" lon="-5.152136">
        <ele>403.0</ele>
        <time>2020-11-01T11:39:10Z</time>
      </trkpt>
      <trkpt lat="43.266224" lon="-5.1521463">
        <ele>403.0</ele>
        <time>2020-11-01T11:39:11Z</time>
      </trkpt>
      <trkpt lat="43.266224" lon="-5.1521583">
        <ele>403.0</ele>
        <time>2020-11-01T11:39:12Z</time>
      </trkpt>
      <trkpt lat="43.266216" lon="-5.152172">
        <ele>403.0</ele>
        <time>2020-11-01T11:39:13Z</time>
      </trkpt>
      <trkpt lat="43.266216" lon="-5.1521826">
        <ele>403.0</ele>
        <time>2020-11-01T11:39:14Z</time>
      </trkpt>
      <trkpt lat="43.266212" lon="-5.152193">
        <ele>403.0</ele>
        <time>2020-11-01T11:39:16Z</time>
      </trkpt>
      <trkpt lat="43.266212" lon="-5.152205">
        <ele>403.0</ele>
        <time>2020-11-01T11:39:16Z</time>
      </trkpt>
      <trkpt lat="43.266212" lon="-5.1522174">
        <ele>403.0</ele>
        <time>2020-11-01T11:39:17Z</time>
      </trkpt>
      <trkpt lat="43.266205" lon="-5.15223">
        <ele>403.0</ele>
        <time>2020-11-01T11:39:18Z</time>
      </trkpt>
      <trkpt lat="43.2662" lon="-5.1522408">
        <ele>403.0</ele>
        <time>2020-11-01T11:39:19Z</time>
      </trkpt>
      <trkpt lat="43.2662" lon="-5.152249">
        <ele>403.0</ele>
        <time>2020-11-01T11:39:20Z</time>
      </trkpt>
      <trkpt lat="43.266197" lon="-5.1522546">
        <ele>403.0</ele>
        <time>2020-11-01T11:39:21Z</time>
      </trkpt>
      <trkpt lat="43.26619" lon="-5.152262">
        <ele>403.0</ele>
        <time>2020-11-01T11:39:22Z</time>
      </trkpt>
      <trkpt lat="43.266186" lon="-5.1522694">
        <ele>403.0</ele>
        <time>2020-11-01T11:39:23Z</time>
      </trkpt>
      <trkpt lat="43.266186" lon="-5.152279">
        <ele>403.0</ele>
        <time>2020-11-01T11:39:24Z</time>
      </trkpt>
      <trkpt lat="43.266186" lon="-5.1522903">
        <ele>403.0</ele>
        <time>2020-11-01T11:39:25Z</time>
      </trkpt>
      <trkpt lat="43.266186" lon="-5.152304">
        <ele>403.0</ele>
        <time>2020-11-01T11:39:26Z</time>
      </trkpt>
      <trkpt lat="43.266186" lon="-5.1523156">
        <ele>403.0</ele>
        <time>2020-11-01T11:39:27Z</time>
      </trkpt>
      <trkpt lat="43.266182" lon="-5.1523275">
        <ele>403.0</ele>
        <time>2020-11-01T11:39:28Z</time>
      </trkpt>
      <trkpt lat="43.266174" lon="-5.1523385">
        <ele>403.0</ele>
        <time>2020-11-01T11:39:29Z</time>
      </trkpt>
      <trkpt lat="43.266167" lon="-5.152348">
        <ele>403.0</ele>
        <time>2020-11-01T11:39:31Z</time>
      </trkpt>
      <trkpt lat="43.26616" lon="-5.1523576">
        <ele>403.0</ele>
        <time>2020-11-01T11:39:31Z</time>
      </trkpt>
      <trkpt lat="43.26615" lon="-5.1523666">
        <ele>403.0</ele>
        <time>2020-11-01T11:39:32Z</time>
      </trkpt>
      <trkpt lat="43.26614" lon="-5.1523767">
        <ele>403.0</ele>
        <time>2020-11-01T11:39:33Z</time>
      </trkpt>
      <trkpt lat="43.266136" lon="-5.1523876">
        <ele>403.0</ele>
        <time>2020-11-01T11:39:34Z</time>
      </trkpt>
      <trkpt lat="43.26613" lon="-5.1523976">
        <ele>403.0</ele>
        <time>2020-11-01T11:39:35Z</time>
      </trkpt>
      <trkpt lat="43.266125" lon="-5.152408">
        <ele>403.0</ele>
        <time>2020-11-01T11:39:36Z</time>
      </trkpt>
      <trkpt lat="43.266113" lon="-5.1524186">
        <ele>403.0</ele>
        <time>2020-11-01T11:39:38Z</time>
      </trkpt>
      <trkpt lat="43.26611" lon="-5.1524277">
        <ele>403.0</ele>
        <time>2020-11-01T11:39:38Z</time>
      </trkpt>
      <trkpt lat="43.266106" lon="-5.1524367">
        <ele>403.0</ele>
        <time>2020-11-01T11:39:39Z</time>
      </trkpt>
      <trkpt lat="43.266098" lon="-5.152447">
        <ele>403.0</ele>
        <time>2020-11-01T11:39:40Z</time>
      </trkpt>
      <trkpt lat="43.26609" lon="-5.152456">
        <ele>406.0</ele>
        <time>2020-11-01T11:39:41Z</time>
      </trkpt>
      <trkpt lat="43.26609" lon="-5.152466">
        <ele>406.0</ele>
        <time>2020-11-01T11:39:42Z</time>
      </trkpt>
      <trkpt lat="43.266083" lon="-5.1524754">
        <ele>406.0</ele>
        <time>2020-11-01T11:39:43Z</time>
      </trkpt>
      <trkpt lat="43.26608" lon="-5.152485">
        <ele>406.0</ele>
        <time>2020-11-01T11:39:44Z</time>
      </trkpt>
      <trkpt lat="43.266068" lon="-5.1524944">
        <ele>406.0</ele>
        <time>2020-11-01T11:39:45Z</time>
      </trkpt>
      <trkpt lat="43.26606" lon="-5.1525054">
        <ele>406.0</ele>
        <time>2020-11-01T11:39:46Z</time>
      </trkpt>
      <trkpt lat="43.266052" lon="-5.1525154">
        <ele>406.0</ele>
        <time>2020-11-01T11:39:47Z</time>
      </trkpt>
      <trkpt lat="43.266045" lon="-5.152525">
        <ele>406.0</ele>
        <time>2020-11-01T11:39:48Z</time>
      </trkpt>
      <trkpt lat="43.266037" lon="-5.1525354">
        <ele>406.0</ele>
        <time>2020-11-01T11:39:49Z</time>
      </trkpt>
      <trkpt lat="43.266033" lon="-5.152545">
        <ele>406.0</ele>
        <time>2020-11-01T11:39:51Z</time>
      </trkpt>
      <trkpt lat="43.26603" lon="-5.152555">
        <ele>406.0</ele>
        <time>2020-11-01T11:39:51Z</time>
      </trkpt>
      <trkpt lat="43.26602" lon="-5.152564">
        <ele>406.0</ele>
        <time>2020-11-01T11:39:52Z</time>
      </trkpt>
      <trkpt lat="43.26602" lon="-5.152576">
        <ele>406.0</ele>
        <time>2020-11-01T11:39:53Z</time>
      </trkpt>
      <trkpt lat="43.266018" lon="-5.152592">
        <ele>406.0</ele>
        <time>2020-11-01T11:39:54Z</time>
      </trkpt>
      <trkpt lat="43.266018" lon="-5.1526055">
        <ele>406.0</ele>
        <time>2020-11-01T11:39:55Z</time>
      </trkpt>
      <trkpt lat="43.266018" lon="-5.1526194">
        <ele>406.0</ele>
        <time>2020-11-01T11:39:56Z</time>
      </trkpt>
      <trkpt lat="43.266018" lon="-5.1526327">
        <ele>406.0</ele>
        <time>2020-11-01T11:39:57Z</time>
      </trkpt>
      <trkpt lat="43.26601" lon="-5.152644">
        <ele>406.0</ele>
        <time>2020-11-01T11:39:58Z</time>
      </trkpt>
      <trkpt lat="43.26601" lon="-5.152655">
        <ele>406.0</ele>
        <time>2020-11-01T11:39:59Z</time>
      </trkpt>
      <trkpt lat="43.266006" lon="-5.1526666">
        <ele>406.0</ele>
        <time>2020-11-01T11:40:00Z</time>
      </trkpt>
      <trkpt lat="43.266006" lon="-5.1526775">
        <ele>406.0</ele>
        <time>2020-11-01T11:40:01Z</time>
      </trkpt>
      <trkpt lat="43.266003" lon="-5.1526875">
        <ele>406.0</ele>
        <time>2020-11-01T11:40:02Z</time>
      </trkpt>
      <trkpt lat="43.265995" lon="-5.1526985">
        <ele>406.0</ele>
        <time>2020-11-01T11:40:03Z</time>
      </trkpt>
      <trkpt lat="43.26599" lon="-5.152709">
        <ele>406.0</ele>
        <time>2020-11-01T11:40:04Z</time>
      </trkpt>
      <trkpt lat="43.26598" lon="-5.1527205">
        <ele>406.0</ele>
        <time>2020-11-01T11:40:05Z</time>
      </trkpt>
      <trkpt lat="43.265976" lon="-5.15273">
        <ele>406.0</ele>
        <time>2020-11-01T11:40:06Z</time>
      </trkpt>
      <trkpt lat="43.265972" lon="-5.152737">
        <ele>406.0</ele>
        <time>2020-11-01T11:40:07Z</time>
      </trkpt>
      <trkpt lat="43.265965" lon="-5.152743">
        <ele>406.0</ele>
        <time>2020-11-01T11:40:08Z</time>
      </trkpt>
      <trkpt lat="43.26596" lon="-5.152748">
        <ele>406.0</ele>
        <time>2020-11-01T11:40:09Z</time>
      </trkpt>
      <trkpt lat="43.265957" lon="-5.1527543">
        <ele>406.0</ele>
        <time>2020-11-01T11:40:10Z</time>
      </trkpt>
      <trkpt lat="43.26595" lon="-5.152761">
        <ele>406.0</ele>
        <time>2020-11-01T11:40:11Z</time>
      </trkpt>
      <trkpt lat="43.26594" lon="-5.1527686">
        <ele>406.0</ele>
        <time>2020-11-01T11:40:12Z</time>
      </trkpt>
      <trkpt lat="43.265934" lon="-5.152778">
        <ele>406.0</ele>
        <time>2020-11-01T11:40:14Z</time>
      </trkpt>
      <trkpt lat="43.265926" lon="-5.152787">
        <ele>406.0</ele>
        <time>2020-11-01T11:40:14Z</time>
      </trkpt>
      <trkpt lat="43.26592" lon="-5.1527953">
        <ele>406.0</ele>
        <time>2020-11-01T11:40:15Z</time>
      </trkpt>
      <trkpt lat="43.26591" lon="-5.152804">
        <ele>406.0</ele>
        <time>2020-11-01T11:40:16Z</time>
      </trkpt>
      <trkpt lat="43.265903" lon="-5.152811">
        <ele>406.0</ele>
        <time>2020-11-01T11:40:17Z</time>
      </trkpt>
      <trkpt lat="43.2659" lon="-5.1528196">
        <ele>406.0</ele>
        <time>2020-11-01T11:40:18Z</time>
      </trkpt>
      <trkpt lat="43.265896" lon="-5.1528277">
        <ele>406.0</ele>
        <time>2020-11-01T11:40:19Z</time>
      </trkpt>
      <trkpt lat="43.265884" lon="-5.152836">
        <ele>406.0</ele>
        <time>2020-11-01T11:40:20Z</time>
      </trkpt>
      <trkpt lat="43.265873" lon="-5.152844">
        <ele>406.0</ele>
        <time>2020-11-01T11:40:22Z</time>
      </trkpt>
      <trkpt lat="43.26587" lon="-5.152852">
        <ele>406.0</ele>
        <time>2020-11-01T11:40:22Z</time>
      </trkpt>
      <trkpt lat="43.265858" lon="-5.1528635">
        <ele>406.0</ele>
        <time>2020-11-01T11:40:23Z</time>
      </trkpt>
      <trkpt lat="43.265854" lon="-5.152875">
        <ele>406.0</ele>
        <time>2020-11-01T11:40:24Z</time>
      </trkpt>
      <trkpt lat="43.26585" lon="-5.152886">
        <ele>406.0</ele>
        <time>2020-11-01T11:40:25Z</time>
      </trkpt>
      <trkpt lat="43.26584" lon="-5.152898">
        <ele>406.0</ele>
        <time>2020-11-01T11:40:26Z</time>
      </trkpt>
      <trkpt lat="43.265835" lon="-5.1529107">
        <ele>406.0</ele>
        <time>2020-11-01T11:40:27Z</time>
      </trkpt>
      <trkpt lat="43.265827" lon="-5.152922">
        <ele>406.0</ele>
        <time>2020-11-01T11:40:28Z</time>
      </trkpt>
      <trkpt lat="43.265827" lon="-5.152935">
        <ele>406.0</ele>
        <time>2020-11-01T11:40:29Z</time>
      </trkpt>
      <trkpt lat="43.265823" lon="-5.1529484">
        <ele>405.0</ele>
        <time>2020-11-01T11:40:30Z</time>
      </trkpt>
      <trkpt lat="43.265816" lon="-5.152959">
        <ele>405.0</ele>
        <time>2020-11-01T11:40:31Z</time>
      </trkpt>
      <trkpt lat="43.26581" lon="-5.1529813">
        <ele>405.0</ele>
        <time>2020-11-01T11:40:33Z</time>
      </trkpt>
      <trkpt lat="43.26581" lon="-5.15298">
        <ele>405.0</ele>
        <time>2020-11-01T11:40:34Z</time>
      </trkpt>
      <trkpt lat="43.26581" lon="-5.152977">
        <ele>405.0</ele>
        <time>2020-11-01T11:40:35Z</time>
      </trkpt>
      <trkpt lat="43.26581" lon="-5.152968">
        <ele>405.0</ele>
        <time>2020-11-01T11:40:38Z</time>
      </trkpt>
      <trkpt lat="43.26581" lon="-5.1529646">
        <ele>405.0</ele>
        <time>2020-11-01T11:40:41Z</time>
      </trkpt>
      <trkpt lat="43.26581" lon="-5.1529512">
        <ele>405.0</ele>
        <time>2020-11-01T11:40:50Z</time>
      </trkpt>
      <trkpt lat="43.26581" lon="-5.1529465">
        <ele>405.0</ele>
        <time>2020-11-01T11:40:53Z</time>
      </trkpt>
      <trkpt lat="43.26581" lon="-5.152946">
        <ele>405.0</ele>
        <time>2020-11-01T11:40:54Z</time>
      </trkpt>
      <trkpt lat="43.26581" lon="-5.152944">
        <ele>405.0</ele>
        <time>2020-11-01T11:40:55Z</time>
      </trkpt>
      <trkpt lat="43.26581" lon="-5.1529417">
        <ele>405.0</ele>
        <time>2020-11-01T11:40:56Z</time>
      </trkpt>
      <trkpt lat="43.265812" lon="-5.1529393">
        <ele>405.0</ele>
        <time>2020-11-01T11:40:58Z</time>
      </trkpt>
      <trkpt lat="43.265816" lon="-5.1529346">
        <ele>405.0</ele>
        <time>2020-11-01T11:41:00Z</time>
      </trkpt>
      <trkpt lat="43.265816" lon="-5.152934">
        <ele>405.0</ele>
        <time>2020-11-01T11:41:01Z</time>
      </trkpt>
      <trkpt lat="43.265816" lon="-5.1529346">
        <ele>405.0</ele>
        <time>2020-11-01T11:41:02Z</time>
      </trkpt>
      <trkpt lat="43.265823" lon="-5.1529374">
        <ele>405.0</ele>
        <time>2020-11-01T11:41:03Z</time>
      </trkpt>
      <trkpt lat="43.265823" lon="-5.152943">
        <ele>405.0</ele>
        <time>2020-11-01T11:41:04Z</time>
      </trkpt>
      <trkpt lat="43.265823" lon="-5.1529512">
        <ele>405.0</ele>
        <time>2020-11-01T11:41:05Z</time>
      </trkpt>
      <trkpt lat="43.265823" lon="-5.152961">
        <ele>405.0</ele>
        <time>2020-11-01T11:41:07Z</time>
      </trkpt>
      <trkpt lat="43.265816" lon="-5.152972">
        <ele>405.0</ele>
        <time>2020-11-01T11:41:07Z</time>
      </trkpt>
      <trkpt lat="43.265816" lon="-5.152983">
        <ele>405.0</ele>
        <time>2020-11-01T11:41:08Z</time>
      </trkpt>
      <trkpt lat="43.265812" lon="-5.152992">
        <ele>405.0</ele>
        <time>2020-11-01T11:41:09Z</time>
      </trkpt>
      <trkpt lat="43.26581" lon="-5.1529994">
        <ele>405.0</ele>
        <time>2020-11-01T11:41:10Z</time>
      </trkpt>
      <trkpt lat="43.2658" lon="-5.1530037">
        <ele>405.0</ele>
        <time>2020-11-01T11:41:11Z</time>
      </trkpt>
      <trkpt lat="43.2658" lon="-5.153006">
        <ele>405.0</ele>
        <time>2020-11-01T11:41:12Z</time>
      </trkpt>
      <trkpt lat="43.265797" lon="-5.1530066">
        <ele>405.0</ele>
        <time>2020-11-01T11:41:13Z</time>
      </trkpt>
      <trkpt lat="43.265797" lon="-5.153013">
        <ele>405.0</ele>
        <time>2020-11-01T11:41:15Z</time>
      </trkpt>
      <trkpt lat="43.265793" lon="-5.1530232">
        <ele>405.0</ele>
        <time>2020-11-01T11:41:15Z</time>
      </trkpt>
      <trkpt lat="43.265785" lon="-5.153032">
        <ele>405.0</ele>
        <time>2020-11-01T11:41:16Z</time>
      </trkpt>
      <trkpt lat="43.26578" lon="-5.1530395">
        <ele>405.0</ele>
        <time>2020-11-01T11:41:17Z</time>
      </trkpt>
      <trkpt lat="43.265778" lon="-5.153051">
        <ele>405.0</ele>
        <time>2020-11-01T11:41:18Z</time>
      </trkpt>
      <trkpt lat="43.26577" lon="-5.153066">
        <ele>405.0</ele>
        <time>2020-11-01T11:41:19Z</time>
      </trkpt>
      <trkpt lat="43.265762" lon="-5.153082">
        <ele>405.0</ele>
        <time>2020-11-01T11:41:20Z</time>
      </trkpt>
      <trkpt lat="43.265747" lon="-5.1530943">
        <ele>405.0</ele>
        <time>2020-11-01T11:41:21Z</time>
      </trkpt>
      <trkpt lat="43.265736" lon="-5.1531024">
        <ele>405.0</ele>
        <time>2020-11-01T11:41:22Z</time>
      </trkpt>
      <trkpt lat="43.265724" lon="-5.15311">
        <ele>405.0</ele>
        <time>2020-11-01T11:41:23Z</time>
      </trkpt>
      <trkpt lat="43.265717" lon="-5.153117">
        <ele>405.0</ele>
        <time>2020-11-01T11:41:24Z</time>
      </trkpt>
      <trkpt lat="43.26571" lon="-5.1531253">
        <ele>405.0</ele>
        <time>2020-11-01T11:41:25Z</time>
      </trkpt>
      <trkpt lat="43.2657" lon="-5.153135">
        <ele>405.0</ele>
        <time>2020-11-01T11:41:26Z</time>
      </trkpt>
      <trkpt lat="43.265694" lon="-5.1531467">
        <ele>405.0</ele>
        <time>2020-11-01T11:41:27Z</time>
      </trkpt>
      <trkpt lat="43.26569" lon="-5.15316">
        <ele>405.0</ele>
        <time>2020-11-01T11:41:28Z</time>
      </trkpt>
      <trkpt lat="43.26568" lon="-5.153174">
        <ele>405.0</ele>
        <time>2020-11-01T11:41:29Z</time>
      </trkpt>
      <trkpt lat="43.26567" lon="-5.153187">
        <ele>405.0</ele>
        <time>2020-11-01T11:41:31Z</time>
      </trkpt>
      <trkpt lat="43.265663" lon="-5.1532006">
        <ele>405.0</ele>
        <time>2020-11-01T11:41:31Z</time>
      </trkpt>
      <trkpt lat="43.26566" lon="-5.153216">
        <ele>405.0</ele>
        <time>2020-11-01T11:41:32Z</time>
      </trkpt>
      <trkpt lat="43.26566" lon="-5.1532316">
        <ele>405.0</ele>
        <time>2020-11-01T11:41:33Z</time>
      </trkpt>
      <trkpt lat="43.26566" lon="-5.153249">
        <ele>405.0</ele>
        <time>2020-11-01T11:41:34Z</time>
      </trkpt>
      <trkpt lat="43.26566" lon="-5.1532664">
        <ele>405.0</ele>
        <time>2020-11-01T11:41:35Z</time>
      </trkpt>
      <trkpt lat="43.265656" lon="-5.153283">
        <ele>405.0</ele>
        <time>2020-11-01T11:41:36Z</time>
      </trkpt>
      <trkpt lat="43.265648" lon="-5.1532955">
        <ele>405.0</ele>
        <time>2020-11-01T11:41:37Z</time>
      </trkpt>
      <trkpt lat="43.26564" lon="-5.153305">
        <ele>405.0</ele>
        <time>2020-11-01T11:41:39Z</time>
      </trkpt>
      <trkpt lat="43.265633" lon="-5.153312">
        <ele>405.0</ele>
        <time>2020-11-01T11:41:39Z</time>
      </trkpt>
      <trkpt lat="43.26563" lon="-5.1533175">
        <ele>405.0</ele>
        <time>2020-11-01T11:41:40Z</time>
      </trkpt>
      <trkpt lat="43.26562" lon="-5.153322">
        <ele>405.0</ele>
        <time>2020-11-01T11:41:41Z</time>
      </trkpt>
      <trkpt lat="43.265617" lon="-5.1533237">
        <ele>405.0</ele>
        <time>2020-11-01T11:41:42Z</time>
      </trkpt>
      <trkpt lat="43.265614" lon="-5.153324">
        <ele>405.0</ele>
        <time>2020-11-01T11:41:43Z</time>
      </trkpt>
      <trkpt lat="43.2656" lon="-5.153328">
        <ele>405.0</ele>
        <time>2020-11-01T11:41:45Z</time>
      </trkpt>
      <trkpt lat="43.2656" lon="-5.1533313">
        <ele>405.0</ele>
        <time>2020-11-01T11:41:48Z</time>
      </trkpt>
      <trkpt lat="43.2656" lon="-5.153328">
        <ele>405.0</ele>
        <time>2020-11-01T11:41:50Z</time>
      </trkpt>
      <trkpt lat="43.2656" lon="-5.1533246">
        <ele>405.0</ele>
        <time>2020-11-01T11:41:52Z</time>
      </trkpt>
      <trkpt lat="43.2656" lon="-5.1533237">
        <ele>405.0</ele>
        <time>2020-11-01T11:41:53Z</time>
      </trkpt>
      <trkpt lat="43.2656" lon="-5.1533227">
        <ele>405.0</ele>
        <time>2020-11-01T11:41:54Z</time>
      </trkpt>
      <trkpt lat="43.265602" lon="-5.1533227">
        <ele>405.0</ele>
        <time>2020-11-01T11:41:56Z</time>
      </trkpt>
      <trkpt lat="43.265602" lon="-5.153323">
        <ele>405.0</ele>
        <time>2020-11-01T11:41:57Z</time>
      </trkpt>
      <trkpt lat="43.265606" lon="-5.1533237">
        <ele>405.0</ele>
        <time>2020-11-01T11:41:58Z</time>
      </trkpt>
      <trkpt lat="43.265606" lon="-5.1533237">
        <ele>405.0</ele>
        <time>2020-11-01T11:41:59Z</time>
      </trkpt>
      <trkpt lat="43.265606" lon="-5.153323">
        <ele>405.0</ele>
        <time>2020-11-01T11:42:00Z</time>
      </trkpt>
      <trkpt lat="43.265606" lon="-5.153323">
        <ele>405.0</ele>
        <time>2020-11-01T11:42:01Z</time>
      </trkpt>
      <trkpt lat="43.265602" lon="-5.153325">
        <ele>405.0</ele>
        <time>2020-11-01T11:42:02Z</time>
      </trkpt>
      <trkpt lat="43.265602" lon="-5.1533246">
        <ele>405.0</ele>
        <time>2020-11-01T11:42:03Z</time>
      </trkpt>
      <trkpt lat="43.2656" lon="-5.153326">
        <ele>405.0</ele>
        <time>2020-11-01T11:42:04Z</time>
      </trkpt>
      <trkpt lat="43.265587" lon="-5.1533303">
        <ele>405.0</ele>
        <time>2020-11-01T11:42:05Z</time>
      </trkpt>
      <trkpt lat="43.265583" lon="-5.1533356">
        <ele>405.0</ele>
        <time>2020-11-01T11:42:06Z</time>
      </trkpt>
      <trkpt lat="43.26557" lon="-5.1533413">
        <ele>405.0</ele>
        <time>2020-11-01T11:42:07Z</time>
      </trkpt>
      <trkpt lat="43.26556" lon="-5.153346">
        <ele>405.0</ele>
        <time>2020-11-01T11:42:08Z</time>
      </trkpt>
      <trkpt lat="43.265545" lon="-5.1533513">
        <ele>405.0</ele>
        <time>2020-11-01T11:42:09Z</time>
      </trkpt>
      <trkpt lat="43.26554" lon="-5.1533575">
        <ele>405.0</ele>
        <time>2020-11-01T11:42:10Z</time>
      </trkpt>
      <trkpt lat="43.26553" lon="-5.1533666">
        <ele>405.0</ele>
        <time>2020-11-01T11:42:12Z</time>
      </trkpt>
      <trkpt lat="43.265526" lon="-5.153379">
        <ele>405.0</ele>
        <time>2020-11-01T11:42:12Z</time>
      </trkpt>
      <trkpt lat="43.265514" lon="-5.15339">
        <ele>405.0</ele>
        <time>2020-11-01T11:42:13Z</time>
      </trkpt>
      <trkpt lat="43.26551" lon="-5.1534">
        <ele>403.0</ele>
        <time>2020-11-01T11:42:14Z</time>
      </trkpt>
      <trkpt lat="43.265495" lon="-5.153407">
        <ele>403.0</ele>
        <time>2020-11-01T11:42:15Z</time>
      </trkpt>
      <trkpt lat="43.265476" lon="-5.1534114">
        <ele>403.0</ele>
        <time>2020-11-01T11:42:16Z</time>
      </trkpt>
      <trkpt lat="43.26546" lon="-5.1534133">
        <ele>403.0</ele>
        <time>2020-11-01T11:42:17Z</time>
      </trkpt>
      <trkpt lat="43.265446" lon="-5.1534147">
        <ele>403.0</ele>
        <time>2020-11-01T11:42:18Z</time>
      </trkpt>
      <trkpt lat="43.265434" lon="-5.153417">
        <ele>403.0</ele>
        <time>2020-11-01T11:42:19Z</time>
      </trkpt>
      <trkpt lat="43.26542" lon="-5.153417">
        <ele>403.0</ele>
        <time>2020-11-01T11:42:20Z</time>
      </trkpt>
      <trkpt lat="43.265396" lon="-5.153415">
        <ele>403.0</ele>
        <time>2020-11-01T11:42:21Z</time>
      </trkpt>
      <trkpt lat="43.26539" lon="-5.153412">
        <ele>403.0</ele>
        <time>2020-11-01T11:42:22Z</time>
      </trkpt>
      <trkpt lat="43.265377" lon="-5.153405">
        <ele>403.0</ele>
        <time>2020-11-01T11:42:23Z</time>
      </trkpt>
      <trkpt lat="43.265373" lon="-5.1533957">
        <ele>403.0</ele>
        <time>2020-11-01T11:42:24Z</time>
      </trkpt>
      <trkpt lat="43.265366" lon="-5.1533885">
        <ele>403.0</ele>
        <time>2020-11-01T11:42:25Z</time>
      </trkpt>
      <trkpt lat="43.26536" lon="-5.153386">
        <ele>403.0</ele>
        <time>2020-11-01T11:42:27Z</time>
      </trkpt>
      <trkpt lat="43.265358" lon="-5.153387">
        <ele>403.0</ele>
        <time>2020-11-01T11:42:27Z</time>
      </trkpt>
      <trkpt lat="43.265347" lon="-5.153387">
        <ele>403.0</ele>
        <time>2020-11-01T11:42:28Z</time>
      </trkpt>
      <trkpt lat="43.265343" lon="-5.1533866">
        <ele>403.0</ele>
        <time>2020-11-01T11:42:29Z</time>
      </trkpt>
      <trkpt lat="43.26533" lon="-5.153384">
        <ele>403.0</ele>
        <time>2020-11-01T11:42:30Z</time>
      </trkpt>
      <trkpt lat="43.26532" lon="-5.1533813">
        <ele>403.0</ele>
        <time>2020-11-01T11:42:31Z</time>
      </trkpt>
      <trkpt lat="43.265312" lon="-5.1533785">
        <ele>403.0</ele>
        <time>2020-11-01T11:42:32Z</time>
      </trkpt>
      <trkpt lat="43.2653" lon="-5.153375">
        <ele>403.0</ele>
        <time>2020-11-01T11:42:33Z</time>
      </trkpt>
      <trkpt lat="43.26529" lon="-5.1533732">
        <ele>403.0</ele>
        <time>2020-11-01T11:42:34Z</time>
      </trkpt>
      <trkpt lat="43.265285" lon="-5.1533732">
        <ele>403.0</ele>
        <time>2020-11-01T11:42:35Z</time>
      </trkpt>
      <trkpt lat="43.265274" lon="-5.153374">
        <ele>403.0</ele>
        <time>2020-11-01T11:42:36Z</time>
      </trkpt>
      <trkpt lat="43.26527" lon="-5.1533775">
        <ele>403.0</ele>
        <time>2020-11-01T11:42:37Z</time>
      </trkpt>
      <trkpt lat="43.26526" lon="-5.1533813">
        <ele>403.0</ele>
        <time>2020-11-01T11:42:38Z</time>
      </trkpt>
      <trkpt lat="43.26525" lon="-5.1533856">
        <ele>403.0</ele>
        <time>2020-11-01T11:42:39Z</time>
      </trkpt>
      <trkpt lat="43.265244" lon="-5.1533895">
        <ele>403.0</ele>
        <time>2020-11-01T11:42:40Z</time>
      </trkpt>
      <trkpt lat="43.265232" lon="-5.1533933">
        <ele>403.0</ele>
        <time>2020-11-01T11:42:42Z</time>
      </trkpt>
      <trkpt lat="43.26523" lon="-5.1533966">
        <ele>403.0</ele>
        <time>2020-11-01T11:42:42Z</time>
      </trkpt>
      <trkpt lat="43.265217" lon="-5.1534023">
        <ele>403.0</ele>
        <time>2020-11-01T11:42:43Z</time>
      </trkpt>
      <trkpt lat="43.265213" lon="-5.1534095">
        <ele>403.0</ele>
        <time>2020-11-01T11:42:44Z</time>
      </trkpt>
      <trkpt lat="43.26521" lon="-5.1534147">
        <ele>403.0</ele>
        <time>2020-11-01T11:42:45Z</time>
      </trkpt>
      <trkpt lat="43.265198" lon="-5.153428">
        <ele>403.0</ele>
        <time>2020-11-01T11:42:47Z</time>
      </trkpt>
      <trkpt lat="43.265194" lon="-5.153429">
        <ele>403.0</ele>
        <time>2020-11-01T11:42:48Z</time>
      </trkpt>
      <trkpt lat="43.265186" lon="-5.1534305">
        <ele>403.0</ele>
        <time>2020-11-01T11:42:49Z</time>
      </trkpt>
      <trkpt lat="43.26518" lon="-5.153434">
        <ele>403.0</ele>
        <time>2020-11-01T11:42:50Z</time>
      </trkpt>
      <trkpt lat="43.265163" lon="-5.153434">
        <ele>403.0</ele>
        <time>2020-11-01T11:42:51Z</time>
      </trkpt>
      <trkpt lat="43.26514" lon="-5.15343">
        <ele>403.0</ele>
        <time>2020-11-01T11:42:52Z</time>
      </trkpt>
      <trkpt lat="43.265118" lon="-5.1534257">
        <ele>403.0</ele>
        <time>2020-11-01T11:42:53Z</time>
      </trkpt>
      <trkpt lat="43.26509" lon="-5.153419">
        <ele>404.0</ele>
        <time>2020-11-01T11:42:54Z</time>
      </trkpt>
      <trkpt lat="43.26507" lon="-5.1534147">
        <ele>404.0</ele>
        <time>2020-11-01T11:42:55Z</time>
      </trkpt>
      <trkpt lat="43.265057" lon="-5.153428">
        <ele>404.0</ele>
        <time>2020-11-01T11:42:56Z</time>
      </trkpt>
      <trkpt lat="43.26505" lon="-5.1534486">
        <ele>404.0</ele>
        <time>2020-11-01T11:42:57Z</time>
      </trkpt>
      <trkpt lat="43.265038" lon="-5.1534667">
        <ele>404.0</ele>
        <time>2020-11-01T11:42:58Z</time>
      </trkpt>
      <trkpt lat="43.265034" lon="-5.1534834">
        <ele>404.0</ele>
        <time>2020-11-01T11:42:59Z</time>
      </trkpt>
      <trkpt lat="43.26503" lon="-5.1534986">
        <ele>404.0</ele>
        <time>2020-11-01T11:43:00Z</time>
      </trkpt>
      <trkpt lat="43.26502" lon="-5.153506">
        <ele>404.0</ele>
        <time>2020-11-01T11:43:01Z</time>
      </trkpt>
      <trkpt lat="43.265015" lon="-5.1535068">
        <ele>404.0</ele>
        <time>2020-11-01T11:43:02Z</time>
      </trkpt>
      <trkpt lat="43.265003" lon="-5.153509">
        <ele>404.0</ele>
        <time>2020-11-01T11:43:03Z</time>
      </trkpt>
      <trkpt lat="43.265" lon="-5.1535125">
        <ele>404.0</ele>
        <time>2020-11-01T11:43:04Z</time>
      </trkpt>
      <trkpt lat="43.264988" lon="-5.153518">
        <ele>404.0</ele>
        <time>2020-11-01T11:43:05Z</time>
      </trkpt>
      <trkpt lat="43.264977" lon="-5.153522">
        <ele>404.0</ele>
        <time>2020-11-01T11:43:06Z</time>
      </trkpt>
      <trkpt lat="43.26497" lon="-5.1535244">
        <ele>404.0</ele>
        <time>2020-11-01T11:43:07Z</time>
      </trkpt>
      <trkpt lat="43.264957" lon="-5.1535287">
        <ele>404.0</ele>
        <time>2020-11-01T11:43:08Z</time>
      </trkpt>
      <trkpt lat="43.264946" lon="-5.153518">
        <ele>404.0</ele>
        <time>2020-11-01T11:43:09Z</time>
      </trkpt>
      <trkpt lat="43.26494" lon="-5.1535134">
        <ele>404.0</ele>
        <time>2020-11-01T11:43:11Z</time>
      </trkpt>
      <trkpt lat="43.264927" lon="-5.153509">
        <ele>404.0</ele>
        <time>2020-11-01T11:43:11Z</time>
      </trkpt>
      <trkpt lat="43.26491" lon="-5.153504">
        <ele>404.0</ele>
        <time>2020-11-01T11:43:12Z</time>
      </trkpt>
      <trkpt lat="43.2649" lon="-5.1534944">
        <ele>404.0</ele>
        <time>2020-11-01T11:43:13Z</time>
      </trkpt>
      <trkpt lat="43.264893" lon="-5.153483">
        <ele>404.0</ele>
        <time>2020-11-01T11:43:14Z</time>
      </trkpt>
      <trkpt lat="43.264885" lon="-5.1534767">
        <ele>404.0</ele>
        <time>2020-11-01T11:43:15Z</time>
      </trkpt>
      <trkpt lat="43.264877" lon="-5.153477">
        <ele>404.0</ele>
        <time>2020-11-01T11:43:16Z</time>
      </trkpt>
      <trkpt lat="43.264877" lon="-5.1534824">
        <ele>404.0</ele>
        <time>2020-11-01T11:43:17Z</time>
      </trkpt>
      <trkpt lat="43.264877" lon="-5.153491">
        <ele>404.0</ele>
        <time>2020-11-01T11:43:18Z</time>
      </trkpt>
      <trkpt lat="43.26488" lon="-5.153501">
        <ele>404.0</ele>
        <time>2020-11-01T11:43:19Z</time>
      </trkpt>
      <trkpt lat="43.264885" lon="-5.1535115">
        <ele>404.0</ele>
        <time>2020-11-01T11:43:20Z</time>
      </trkpt>
      <trkpt lat="43.264896" lon="-5.153525">
        <ele>403.0</ele>
        <time>2020-11-01T11:43:21Z</time>
      </trkpt>
      <trkpt lat="43.2649" lon="-5.1535397">
        <ele>403.0</ele>
        <time>2020-11-01T11:43:21Z</time>
      </trkpt>
      <trkpt lat="43.26491" lon="-5.1535525">
        <ele>403.0</ele>
        <time>2020-11-01T11:43:22Z</time>
      </trkpt>
      <trkpt lat="43.264915" lon="-5.1535645">
        <ele>403.0</ele>
        <time>2020-11-01T11:43:23Z</time>
      </trkpt>
      <trkpt lat="43.26493" lon="-5.1535892">
        <ele>403.0</ele>
        <time>2020-11-01T11:43:28Z</time>
      </trkpt>
      <trkpt lat="43.26493" lon="-5.1535907">
        <ele>403.0</ele>
        <time>2020-11-01T11:43:29Z</time>
      </trkpt>
      <trkpt lat="43.26493" lon="-5.153594">
        <ele>403.0</ele>
        <time>2020-11-01T11:43:30Z</time>
      </trkpt>
      <trkpt lat="43.264927" lon="-5.1535983">
        <ele>403.0</ele>
        <time>2020-11-01T11:43:31Z</time>
      </trkpt>
      <trkpt lat="43.264923" lon="-5.153602">
        <ele>403.0</ele>
        <time>2020-11-01T11:43:32Z</time>
      </trkpt>
      <trkpt lat="43.26491" lon="-5.153608">
        <ele>403.0</ele>
        <time>2020-11-01T11:43:39Z</time>
      </trkpt>
      <trkpt lat="43.264908" lon="-5.1536083">
        <ele>403.0</ele>
        <time>2020-11-01T11:43:40Z</time>
      </trkpt>
      <trkpt lat="43.264908" lon="-5.153609">
        <ele>403.0</ele>
        <time>2020-11-01T11:43:41Z</time>
      </trkpt>
      <trkpt lat="43.264908" lon="-5.153609">
        <ele>403.0</ele>
        <time>2020-11-01T11:43:42Z</time>
      </trkpt>
      <trkpt lat="43.2649" lon="-5.153608">
        <ele>403.0</ele>
        <time>2020-11-01T11:43:43Z</time>
      </trkpt>
      <trkpt lat="43.264896" lon="-5.153601">
        <ele>403.0</ele>
        <time>2020-11-01T11:43:54Z</time>
      </trkpt>
      <trkpt lat="43.264896" lon="-5.1535983">
        <ele>403.0</ele>
        <time>2020-11-01T11:43:55Z</time>
      </trkpt>
      <trkpt lat="43.264896" lon="-5.1535935">
        <ele>403.0</ele>
        <time>2020-11-01T11:43:56Z</time>
      </trkpt>
      <trkpt lat="43.264893" lon="-5.1535883">
        <ele>403.0</ele>
        <time>2020-11-01T11:43:57Z</time>
      </trkpt>
      <trkpt lat="43.264885" lon="-5.153582">
        <ele>403.0</ele>
        <time>2020-11-01T11:43:58Z</time>
      </trkpt>
      <trkpt lat="43.26488" lon="-5.1535764">
        <ele>403.0</ele>
        <time>2020-11-01T11:43:59Z</time>
      </trkpt>
      <trkpt lat="43.264877" lon="-5.1535687">
        <ele>403.0</ele>
        <time>2020-11-01T11:44:00Z</time>
      </trkpt>
      <trkpt lat="43.26487" lon="-5.153563">
        <ele>403.0</ele>
        <time>2020-11-01T11:44:01Z</time>
      </trkpt>
      <trkpt lat="43.264866" lon="-5.1535583">
        <ele>403.0</ele>
        <time>2020-11-01T11:44:02Z</time>
      </trkpt>
      <trkpt lat="43.264862" lon="-5.1535563">
        <ele>403.0</ele>
        <time>2020-11-01T11:44:03Z</time>
      </trkpt>
      <trkpt lat="43.264854" lon="-5.153561">
        <ele>403.0</ele>
        <time>2020-11-01T11:44:05Z</time>
      </trkpt>
      <trkpt lat="43.26485" lon="-5.1535697">
        <ele>403.0</ele>
        <time>2020-11-01T11:44:05Z</time>
      </trkpt>
      <trkpt lat="43.264843" lon="-5.153578">
        <ele>403.0</ele>
        <time>2020-11-01T11:44:06Z</time>
      </trkpt>
      <trkpt lat="43.264824" lon="-5.1535945">
        <ele>403.0</ele>
        <time>2020-11-01T11:44:08Z</time>
      </trkpt>
      <trkpt lat="43.264824" lon="-5.1535974">
        <ele>403.0</ele>
        <time>2020-11-01T11:44:09Z</time>
      </trkpt>
      <trkpt lat="43.26482" lon="-5.1536045">
        <ele>403.0</ele>
        <time>2020-11-01T11:44:10Z</time>
      </trkpt>
      <trkpt lat="43.264812" lon="-5.1536136">
        <ele>403.0</ele>
        <time>2020-11-01T11:44:11Z</time>
      </trkpt>
      <trkpt lat="43.26481" lon="-5.1536236">
        <ele>403.0</ele>
        <time>2020-11-01T11:44:12Z</time>
      </trkpt>
      <trkpt lat="43.264805" lon="-5.1536317">
        <ele>403.0</ele>
        <time>2020-11-01T11:44:13Z</time>
      </trkpt>
      <trkpt lat="43.264793" lon="-5.1536417">
        <ele>403.0</ele>
        <time>2020-11-01T11:44:14Z</time>
      </trkpt>
      <trkpt lat="43.26479" lon="-5.1536517">
        <ele>403.0</ele>
        <time>2020-11-01T11:44:15Z</time>
      </trkpt>
      <trkpt lat="43.264782" lon="-5.1536593">
        <ele>403.0</ele>
        <time>2020-11-01T11:44:16Z</time>
      </trkpt>
      <trkpt lat="43.26478" lon="-5.153666">
        <ele>403.0</ele>
        <time>2020-11-01T11:44:17Z</time>
      </trkpt>
      <trkpt lat="43.264767" lon="-5.153677">
        <ele>403.0</ele>
        <time>2020-11-01T11:44:18Z</time>
      </trkpt>
      <trkpt lat="43.264763" lon="-5.153686">
        <ele>403.0</ele>
        <time>2020-11-01T11:44:19Z</time>
      </trkpt>
      <trkpt lat="43.26476" lon="-5.153693">
        <ele>403.0</ele>
        <time>2020-11-01T11:44:21Z</time>
      </trkpt>
      <trkpt lat="43.264748" lon="-5.153704">
        <ele>403.0</ele>
        <time>2020-11-01T11:44:24Z</time>
      </trkpt>
      <trkpt lat="43.264748" lon="-5.1537056">
        <ele>403.0</ele>
        <time>2020-11-01T11:44:25Z</time>
      </trkpt>
      <trkpt lat="43.264748" lon="-5.153711">
        <ele>403.0</ele>
        <time>2020-11-01T11:44:26Z</time>
      </trkpt>
      <trkpt lat="43.264744" lon="-5.153719">
        <ele>403.0</ele>
        <time>2020-11-01T11:44:27Z</time>
      </trkpt>
      <trkpt lat="43.264744" lon="-5.1537285">
        <ele>403.0</ele>
        <time>2020-11-01T11:44:28Z</time>
      </trkpt>
      <trkpt lat="43.264744" lon="-5.1537395">
        <ele>403.0</ele>
        <time>2020-11-01T11:44:29Z</time>
      </trkpt>
      <trkpt lat="43.264736" lon="-5.1537504">
        <ele>403.0</ele>
        <time>2020-11-01T11:44:30Z</time>
      </trkpt>
      <trkpt lat="43.264732" lon="-5.1537614">
        <ele>403.0</ele>
        <time>2020-11-01T11:44:31Z</time>
      </trkpt>
      <trkpt lat="43.26473" lon="-5.153774">
        <ele>403.0</ele>
        <time>2020-11-01T11:44:32Z</time>
      </trkpt>
      <trkpt lat="43.26472" lon="-5.1537876">
        <ele>403.0</ele>
        <time>2020-11-01T11:44:33Z</time>
      </trkpt>
      <trkpt lat="43.264713" lon="-5.1538014">
        <ele>403.0</ele>
        <time>2020-11-01T11:44:34Z</time>
      </trkpt>
      <trkpt lat="43.2647" lon="-5.1538134">
        <ele>403.0</ele>
        <time>2020-11-01T11:44:35Z</time>
      </trkpt>
      <trkpt lat="43.26469" lon="-5.1538205">
        <ele>403.0</ele>
        <time>2020-11-01T11:44:36Z</time>
      </trkpt>
      <trkpt lat="43.264683" lon="-5.153825">
        <ele>403.0</ele>
        <time>2020-11-01T11:44:37Z</time>
      </trkpt>
      <trkpt lat="43.26467" lon="-5.153832">
        <ele>403.0</ele>
        <time>2020-11-01T11:44:38Z</time>
      </trkpt>
      <trkpt lat="43.264656" lon="-5.1538405">
        <ele>403.0</ele>
        <time>2020-11-01T11:44:39Z</time>
      </trkpt>
      <trkpt lat="43.264645" lon="-5.153848">
        <ele>403.0</ele>
        <time>2020-11-01T11:44:40Z</time>
      </trkpt>
      <trkpt lat="43.264633" lon="-5.153856">
        <ele>403.0</ele>
        <time>2020-11-01T11:44:41Z</time>
      </trkpt>
      <trkpt lat="43.264626" lon="-5.1538615">
        <ele>403.0</ele>
        <time>2020-11-01T11:44:42Z</time>
      </trkpt>
      <trkpt lat="43.264618" lon="-5.1538672">
        <ele>403.0</ele>
        <time>2020-11-01T11:44:43Z</time>
      </trkpt>
      <trkpt lat="43.26461" lon="-5.1538725">
        <ele>403.0</ele>
        <time>2020-11-01T11:44:44Z</time>
      </trkpt>
      <trkpt lat="43.26461" lon="-5.1538773">
        <ele>403.0</ele>
        <time>2020-11-01T11:44:46Z</time>
      </trkpt>
      <trkpt lat="43.264595" lon="-5.153894">
        <ele>403.0</ele>
        <time>2020-11-01T11:44:48Z</time>
      </trkpt>
      <trkpt lat="43.264595" lon="-5.153895">
        <ele>403.0</ele>
        <time>2020-11-01T11:44:49Z</time>
      </trkpt>
      <trkpt lat="43.264595" lon="-5.1538963">
        <ele>403.0</ele>
        <time>2020-11-01T11:44:50Z</time>
      </trkpt>
      <trkpt lat="43.264584" lon="-5.153898">
        <ele>403.0</ele>
        <time>2020-11-01T11:44:56Z</time>
      </trkpt>
      <trkpt lat="43.264584" lon="-5.1539006">
        <ele>403.0</ele>
        <time>2020-11-01T11:44:58Z</time>
      </trkpt>
      <trkpt lat="43.264584" lon="-5.1539016">
        <ele>403.0</ele>
        <time>2020-11-01T11:44:59Z</time>
      </trkpt>
      <trkpt lat="43.264584" lon="-5.153906">
        <ele>403.0</ele>
        <time>2020-11-01T11:45:00Z</time>
      </trkpt>
      <trkpt lat="43.264584" lon="-5.1539106">
        <ele>403.0</ele>
        <time>2020-11-01T11:45:01Z</time>
      </trkpt>
      <trkpt lat="43.264584" lon="-5.153917">
        <ele>403.0</ele>
        <time>2020-11-01T11:45:02Z</time>
      </trkpt>
      <trkpt lat="43.264584" lon="-5.153923">
        <ele>403.0</ele>
        <time>2020-11-01T11:45:03Z</time>
      </trkpt>
      <trkpt lat="43.26458" lon="-5.1539297">
        <ele>403.0</ele>
        <time>2020-11-01T11:45:04Z</time>
      </trkpt>
      <trkpt lat="43.264572" lon="-5.153937">
        <ele>405.0</ele>
        <time>2020-11-01T11:45:05Z</time>
      </trkpt>
      <trkpt lat="43.264565" lon="-5.1539416">
        <ele>405.0</ele>
        <time>2020-11-01T11:45:06Z</time>
      </trkpt>
      <trkpt lat="43.264557" lon="-5.1539435">
        <ele>405.0</ele>
        <time>2020-11-01T11:45:07Z</time>
      </trkpt>
      <trkpt lat="43.264553" lon="-5.1539454">
        <ele>405.0</ele>
        <time>2020-11-01T11:45:08Z</time>
      </trkpt>
      <trkpt lat="43.26455" lon="-5.1539474">
        <ele>405.0</ele>
        <time>2020-11-01T11:45:09Z</time>
      </trkpt>
      <trkpt lat="43.26454" lon="-5.15395">
        <ele>405.0</ele>
        <time>2020-11-01T11:45:10Z</time>
      </trkpt>
      <trkpt lat="43.264538" lon="-5.1539526">
        <ele>405.0</ele>
        <time>2020-11-01T11:45:11Z</time>
      </trkpt>
      <trkpt lat="43.264534" lon="-5.153955">
        <ele>405.0</ele>
        <time>2020-11-01T11:45:12Z</time>
      </trkpt>
      <trkpt lat="43.264526" lon="-5.153956">
        <ele>405.0</ele>
        <time>2020-11-01T11:45:13Z</time>
      </trkpt>
      <trkpt lat="43.264526" lon="-5.153958">
        <ele>405.0</ele>
        <time>2020-11-01T11:45:14Z</time>
      </trkpt>
      <trkpt lat="43.264523" lon="-5.15396">
        <ele>405.0</ele>
        <time>2020-11-01T11:45:15Z</time>
      </trkpt>
      <trkpt lat="43.26452" lon="-5.15396">
        <ele>405.0</ele>
        <time>2020-11-01T11:45:16Z</time>
      </trkpt>
      <trkpt lat="43.264507" lon="-5.1539493">
        <ele>405.0</ele>
        <time>2020-11-01T11:45:18Z</time>
      </trkpt>
      <trkpt lat="43.264507" lon="-5.1539493">
        <ele>405.0</ele>
        <time>2020-11-01T11:45:19Z</time>
      </trkpt>
      <trkpt lat="43.264503" lon="-5.153951">
        <ele>405.0</ele>
        <time>2020-11-01T11:45:20Z</time>
      </trkpt>
      <trkpt lat="43.264496" lon="-5.153953">
        <ele>405.0</ele>
        <time>2020-11-01T11:45:21Z</time>
      </trkpt>
      <trkpt lat="43.264492" lon="-5.153956">
        <ele>405.0</ele>
        <time>2020-11-01T11:45:22Z</time>
      </trkpt>
      <trkpt lat="43.26449" lon="-5.1539574">
        <ele>405.0</ele>
        <time>2020-11-01T11:45:23Z</time>
      </trkpt>
      <trkpt lat="43.264477" lon="-5.153958">
        <ele>405.0</ele>
        <time>2020-11-01T11:45:24Z</time>
      </trkpt>
      <trkpt lat="43.26447" lon="-5.153958">
        <ele>405.0</ele>
        <time>2020-11-01T11:45:25Z</time>
      </trkpt>
      <trkpt lat="43.26446" lon="-5.1539564">
        <ele>405.0</ele>
        <time>2020-11-01T11:45:26Z</time>
      </trkpt>
      <trkpt lat="43.264454" lon="-5.153954">
        <ele>405.0</ele>
        <time>2020-11-01T11:45:28Z</time>
      </trkpt>
      <trkpt lat="43.264446" lon="-5.153952">
        <ele>406.0</ele>
        <time>2020-11-01T11:45:28Z</time>
      </trkpt>
      <trkpt lat="43.264435" lon="-5.1539516">
        <ele>406.0</ele>
        <time>2020-11-01T11:45:29Z</time>
      </trkpt>
      <trkpt lat="43.264423" lon="-5.153952">
        <ele>406.0</ele>
        <time>2020-11-01T11:45:30Z</time>
      </trkpt>
      <trkpt lat="43.26441" lon="-5.153952">
        <ele>406.0</ele>
        <time>2020-11-01T11:45:31Z</time>
      </trkpt>
      <trkpt lat="43.264393" lon="-5.153951">
        <ele>406.0</ele>
        <time>2020-11-01T11:45:32Z</time>
      </trkpt>
      <trkpt lat="43.264385" lon="-5.1539507">
        <ele>406.0</ele>
        <time>2020-11-01T11:45:33Z</time>
      </trkpt>
      <trkpt lat="43.264378" lon="-5.1539474">
        <ele>406.0</ele>
        <time>2020-11-01T11:45:34Z</time>
      </trkpt>
      <trkpt lat="43.26437" lon="-5.1539435">
        <ele>406.0</ele>
        <time>2020-11-01T11:45:35Z</time>
      </trkpt>
      <trkpt lat="43.264362" lon="-5.1539416">
        <ele>406.0</ele>
        <time>2020-11-01T11:45:36Z</time>
      </trkpt>
      <trkpt lat="43.26436" lon="-5.153939">
        <ele>406.0</ele>
        <time>2020-11-01T11:45:37Z</time>
      </trkpt>
      <trkpt lat="43.264347" lon="-5.153934">
        <ele>406.0</ele>
        <time>2020-11-01T11:45:38Z</time>
      </trkpt>
      <trkpt lat="43.264347" lon="-5.1539307">
        <ele>406.0</ele>
        <time>2020-11-01T11:45:39Z</time>
      </trkpt>
      <trkpt lat="43.264343" lon="-5.153927">
        <ele>406.0</ele>
        <time>2020-11-01T11:45:40Z</time>
      </trkpt>
      <trkpt lat="43.26434" lon="-5.153926">
        <ele>406.0</ele>
        <time>2020-11-01T11:45:41Z</time>
      </trkpt>
      <trkpt lat="43.26433" lon="-5.153929">
        <ele>406.0</ele>
        <time>2020-11-01T11:45:42Z</time>
      </trkpt>
      <trkpt lat="43.26433" lon="-5.1539335">
        <ele>406.0</ele>
        <time>2020-11-01T11:45:44Z</time>
      </trkpt>
      <trkpt lat="43.264328" lon="-5.1539392">
        <ele>406.0</ele>
        <time>2020-11-01T11:45:44Z</time>
      </trkpt>
      <trkpt lat="43.264317" lon="-5.1539445">
        <ele>406.0</ele>
        <time>2020-11-01T11:45:45Z</time>
      </trkpt>
      <trkpt lat="43.264313" lon="-5.1539493">
        <ele>406.0</ele>
        <time>2020-11-01T11:45:46Z</time>
      </trkpt>
      <trkpt lat="43.2643" lon="-5.1539536">
        <ele>406.0</ele>
        <time>2020-11-01T11:45:47Z</time>
      </trkpt>
      <trkpt lat="43.264294" lon="-5.153956">
        <ele>406.0</ele>
        <time>2020-11-01T11:45:48Z</time>
      </trkpt>
      <trkpt lat="43.264282" lon="-5.1539574">
        <ele>406.0</ele>
        <time>2020-11-01T11:45:50Z</time>
      </trkpt>
      <trkpt lat="43.264275" lon="-5.1539593">
        <ele>406.0</ele>
        <time>2020-11-01T11:45:50Z</time>
      </trkpt>
      <trkpt lat="43.264267" lon="-5.153962">
        <ele>406.0</ele>
        <time>2020-11-01T11:45:51Z</time>
      </trkpt>
      <trkpt lat="43.264256" lon="-5.153964">
        <ele>406.0</ele>
        <time>2020-11-01T11:45:52Z</time>
      </trkpt>
      <trkpt lat="43.26425" lon="-5.1539645">
        <ele>406.0</ele>
        <time>2020-11-01T11:45:53Z</time>
      </trkpt>
      <trkpt lat="43.26424" lon="-5.153964">
        <ele>406.0</ele>
        <time>2020-11-01T11:45:54Z</time>
      </trkpt>
      <trkpt lat="43.26423" lon="-5.153961">
        <ele>406.0</ele>
        <time>2020-11-01T11:45:55Z</time>
      </trkpt>
      <trkpt lat="43.26422" lon="-5.153957">
        <ele>406.0</ele>
        <time>2020-11-01T11:45:56Z</time>
      </trkpt>
      <trkpt lat="43.26421" lon="-5.153952">
        <ele>406.0</ele>
        <time>2020-11-01T11:45:57Z</time>
      </trkpt>
      <trkpt lat="43.264206" lon="-5.1539474">
        <ele>406.0</ele>
        <time>2020-11-01T11:45:58Z</time>
      </trkpt>
      <trkpt lat="43.264194" lon="-5.1539426">
        <ele>406.0</ele>
        <time>2020-11-01T11:45:59Z</time>
      </trkpt>
      <trkpt lat="43.264183" lon="-5.1539397">
        <ele>406.0</ele>
        <time>2020-11-01T11:46:00Z</time>
      </trkpt>
      <trkpt lat="43.264175" lon="-5.153937">
        <ele>406.0</ele>
        <time>2020-11-01T11:46:01Z</time>
      </trkpt>
      <trkpt lat="43.264164" lon="-5.1539335">
        <ele>406.0</ele>
        <time>2020-11-01T11:46:02Z</time>
      </trkpt>
      <trkpt lat="43.26416" lon="-5.1539316">
        <ele>406.0</ele>
        <time>2020-11-01T11:46:03Z</time>
      </trkpt>
      <trkpt lat="43.26415" lon="-5.1539297">
        <ele>406.0</ele>
        <time>2020-11-01T11:46:05Z</time>
      </trkpt>
      <trkpt lat="43.264137" lon="-5.153927">
        <ele>406.0</ele>
        <time>2020-11-01T11:46:05Z</time>
      </trkpt>
      <trkpt lat="43.26413" lon="-5.1539254">
        <ele>406.0</ele>
        <time>2020-11-01T11:46:06Z</time>
      </trkpt>
      <trkpt lat="43.26412" lon="-5.153921">
        <ele>406.0</ele>
        <time>2020-11-01T11:46:07Z</time>
      </trkpt>
      <trkpt lat="43.264107" lon="-5.153917">
        <ele>406.0</ele>
        <time>2020-11-01T11:46:08Z</time>
      </trkpt>
      <trkpt lat="43.2641" lon="-5.153912">
        <ele>406.0</ele>
        <time>2020-11-01T11:46:09Z</time>
      </trkpt>
      <trkpt lat="43.26409" lon="-5.1539063">
        <ele>406.0</ele>
        <time>2020-11-01T11:46:10Z</time>
      </trkpt>
      <trkpt lat="43.264088" lon="-5.1538982">
        <ele>406.0</ele>
        <time>2020-11-01T11:46:11Z</time>
      </trkpt>
      <trkpt lat="43.264076" lon="-5.153891">
        <ele>406.0</ele>
        <time>2020-11-01T11:46:12Z</time>
      </trkpt>
      <trkpt lat="43.264065" lon="-5.1538854">
        <ele>406.0</ele>
        <time>2020-11-01T11:46:13Z</time>
      </trkpt>
      <trkpt lat="43.264057" lon="-5.153879">
        <ele>406.0</ele>
        <time>2020-11-01T11:46:14Z</time>
      </trkpt>
      <trkpt lat="43.264046" lon="-5.1538725">
        <ele>406.0</ele>
        <time>2020-11-01T11:46:15Z</time>
      </trkpt>
      <trkpt lat="43.264034" lon="-5.1538677">
        <ele>406.0</ele>
        <time>2020-11-01T11:46:16Z</time>
      </trkpt>
      <trkpt lat="43.26402" lon="-5.15386">
        <ele>406.0</ele>
        <time>2020-11-01T11:46:17Z</time>
      </trkpt>
      <trkpt lat="43.26401" lon="-5.153857">
        <ele>406.0</ele>
        <time>2020-11-01T11:46:18Z</time>
      </trkpt>
      <trkpt lat="43.264" lon="-5.1538563">
        <ele>407.0</ele>
        <time>2020-11-01T11:46:20Z</time>
      </trkpt>
      <trkpt lat="43.263985" lon="-5.153856">
        <ele>407.0</ele>
        <time>2020-11-01T11:46:20Z</time>
      </trkpt>
      <trkpt lat="43.263973" lon="-5.153855">
        <ele>407.0</ele>
        <time>2020-11-01T11:46:21Z</time>
      </trkpt>
      <trkpt lat="43.263958" lon="-5.1538434">
        <ele>407.0</ele>
        <time>2020-11-01T11:46:22Z</time>
      </trkpt>
      <trkpt lat="43.26395" lon="-5.1538258">
        <ele>407.0</ele>
        <time>2020-11-01T11:46:23Z</time>
      </trkpt>
      <trkpt lat="43.26394" lon="-5.153812">
        <ele>407.0</ele>
        <time>2020-11-01T11:46:24Z</time>
      </trkpt>
      <trkpt lat="43.263924" lon="-5.1537986">
        <ele>407.0</ele>
        <time>2020-11-01T11:46:25Z</time>
      </trkpt>
      <trkpt lat="43.263912" lon="-5.1537895">
        <ele>407.0</ele>
        <time>2020-11-01T11:46:26Z</time>
      </trkpt>
      <trkpt lat="43.263905" lon="-5.153789">
        <ele>407.0</ele>
        <time>2020-11-01T11:46:27Z</time>
      </trkpt>
      <trkpt lat="43.263897" lon="-5.153802">
        <ele>407.0</ele>
        <time>2020-11-01T11:46:28Z</time>
      </trkpt>
      <trkpt lat="43.263885" lon="-5.153813">
        <ele>407.0</ele>
        <time>2020-11-01T11:46:29Z</time>
      </trkpt>
      <trkpt lat="43.263878" lon="-5.1538215">
        <ele>407.0</ele>
        <time>2020-11-01T11:46:30Z</time>
      </trkpt>
      <trkpt lat="43.263866" lon="-5.1538277">
        <ele>407.0</ele>
        <time>2020-11-01T11:46:31Z</time>
      </trkpt>
      <trkpt lat="43.263863" lon="-5.1538324">
        <ele>407.0</ele>
        <time>2020-11-01T11:46:32Z</time>
      </trkpt>
      <trkpt lat="43.26385" lon="-5.1538367">
        <ele>407.0</ele>
        <time>2020-11-01T11:46:33Z</time>
      </trkpt>
      <trkpt lat="43.26384" lon="-5.153842">
        <ele>407.0</ele>
        <time>2020-11-01T11:46:34Z</time>
      </trkpt>
      <trkpt lat="43.263832" lon="-5.153847">
        <ele>407.0</ele>
        <time>2020-11-01T11:46:36Z</time>
      </trkpt>
      <trkpt lat="43.26382" lon="-5.153851">
        <ele>407.0</ele>
        <time>2020-11-01T11:46:36Z</time>
      </trkpt>
      <trkpt lat="43.263805" lon="-5.1538525">
        <ele>407.0</ele>
        <time>2020-11-01T11:46:37Z</time>
      </trkpt>
      <trkpt lat="43.263794" lon="-5.1538515">
        <ele>407.0</ele>
        <time>2020-11-01T11:46:38Z</time>
      </trkpt>
      <trkpt lat="43.26378" lon="-5.15385">
        <ele>407.0</ele>
        <time>2020-11-01T11:46:39Z</time>
      </trkpt>
      <trkpt lat="43.26377" lon="-5.1538477">
        <ele>407.0</ele>
        <time>2020-11-01T11:46:40Z</time>
      </trkpt>
      <trkpt lat="43.26376" lon="-5.1538444">
        <ele>407.0</ele>
        <time>2020-11-01T11:46:41Z</time>
      </trkpt>
      <trkpt lat="43.26375" lon="-5.15384">
        <ele>407.0</ele>
        <time>2020-11-01T11:46:42Z</time>
      </trkpt>
      <trkpt lat="43.263744" lon="-5.1538343">
        <ele>407.0</ele>
        <time>2020-11-01T11:46:43Z</time>
      </trkpt>
      <trkpt lat="43.263733" lon="-5.1538296">
        <ele>407.0</ele>
        <time>2020-11-01T11:46:44Z</time>
      </trkpt>
      <trkpt lat="43.263725" lon="-5.1538296">
        <ele>407.0</ele>
        <time>2020-11-01T11:46:45Z</time>
      </trkpt>
      <trkpt lat="43.263718" lon="-5.1538305">
        <ele>406.0</ele>
        <time>2020-11-01T11:46:46Z</time>
      </trkpt>
      <trkpt lat="43.26371" lon="-5.1538334">
        <ele>406.0</ele>
        <time>2020-11-01T11:46:47Z</time>
      </trkpt>
      <trkpt lat="43.263702" lon="-5.1538386">
        <ele>406.0</ele>
        <time>2020-11-01T11:46:49Z</time>
      </trkpt>
      <trkpt lat="43.26369" lon="-5.1538424">
        <ele>406.0</ele>
        <time>2020-11-01T11:46:49Z</time>
      </trkpt>
      <trkpt lat="43.263687" lon="-5.153847">
        <ele>406.0</ele>
        <time>2020-11-01T11:46:50Z</time>
      </trkpt>
      <trkpt lat="43.263683" lon="-5.153857">
        <ele>406.0</ele>
        <time>2020-11-01T11:46:51Z</time>
      </trkpt>
      <trkpt lat="43.263676" lon="-5.1538696">
        <ele>406.0</ele>
        <time>2020-11-01T11:46:52Z</time>
      </trkpt>
      <trkpt lat="43.26367" lon="-5.153881">
        <ele>406.0</ele>
        <time>2020-11-01T11:46:53Z</time>
      </trkpt>
      <trkpt lat="43.263668" lon="-5.153889">
        <ele>406.0</ele>
        <time>2020-11-01T11:46:54Z</time>
      </trkpt>
      <trkpt lat="43.26366" lon="-5.1538944">
        <ele>406.0</ele>
        <time>2020-11-01T11:46:55Z</time>
      </trkpt>
      <trkpt lat="43.263657" lon="-5.1538987">
        <ele>406.0</ele>
        <time>2020-11-01T11:46:56Z</time>
      </trkpt>
      <trkpt lat="43.263653" lon="-5.153903">
        <ele>406.0</ele>
        <time>2020-11-01T11:46:57Z</time>
      </trkpt>
      <trkpt lat="43.263645" lon="-5.1539083">
        <ele>406.0</ele>
        <time>2020-11-01T11:46:58Z</time>
      </trkpt>
      <trkpt lat="43.26364" lon="-5.1539145">
        <ele>406.0</ele>
        <time>2020-11-01T11:46:59Z</time>
      </trkpt>
      <trkpt lat="43.26364" lon="-5.15392">
        <ele>406.0</ele>
        <time>2020-11-01T11:47:00Z</time>
      </trkpt>
      <trkpt lat="43.263638" lon="-5.1539273">
        <ele>406.0</ele>
        <time>2020-11-01T11:47:01Z</time>
      </trkpt>
      <trkpt lat="43.263626" lon="-5.1539335">
        <ele>405.0</ele>
        <time>2020-11-01T11:47:02Z</time>
      </trkpt>
      <trkpt lat="43.263615" lon="-5.153938">
        <ele>405.0</ele>
        <time>2020-11-01T11:47:04Z</time>
      </trkpt>
      <trkpt lat="43.26361" lon="-5.153944">
        <ele>405.0</ele>
        <time>2020-11-01T11:47:04Z</time>
      </trkpt>
      <trkpt lat="43.2636" lon="-5.1539516">
        <ele>405.0</ele>
        <time>2020-11-01T11:47:05Z</time>
      </trkpt>
      <trkpt lat="43.26359" lon="-5.153957">
        <ele>405.0</ele>
        <time>2020-11-01T11:47:06Z</time>
      </trkpt>
      <trkpt lat="43.263584" lon="-5.1539617">
        <ele>405.0</ele>
        <time>2020-11-01T11:47:07Z</time>
      </trkpt>
      <trkpt lat="43.26358" lon="-5.1539664">
        <ele>405.0</ele>
        <time>2020-11-01T11:47:08Z</time>
      </trkpt>
      <trkpt lat="43.263577" lon="-5.1539726">
        <ele>405.0</ele>
        <time>2020-11-01T11:47:09Z</time>
      </trkpt>
      <trkpt lat="43.26357" lon="-5.1539793">
        <ele>405.0</ele>
        <time>2020-11-01T11:47:10Z</time>
      </trkpt>
      <trkpt lat="43.263565" lon="-5.1539874">
        <ele>404.0</ele>
        <time>2020-11-01T11:47:11Z</time>
      </trkpt>
      <trkpt lat="43.263565" lon="-5.1539946">
        <ele>404.0</ele>
        <time>2020-11-01T11:47:12Z</time>
      </trkpt>
      <trkpt lat="43.26356" lon="-5.1540003">
        <ele>404.0</ele>
        <time>2020-11-01T11:47:13Z</time>
      </trkpt>
      <trkpt lat="43.263554" lon="-5.1540065">
        <ele>404.0</ele>
        <time>2020-11-01T11:47:14Z</time>
      </trkpt>
      <trkpt lat="43.26355" lon="-5.154012">
        <ele>404.0</ele>
        <time>2020-11-01T11:47:15Z</time>
      </trkpt>
      <trkpt lat="43.263546" lon="-5.154018">
        <ele>404.0</ele>
        <time>2020-11-01T11:47:16Z</time>
      </trkpt>
      <trkpt lat="43.263535" lon="-5.154025">
        <ele>404.0</ele>
        <time>2020-11-01T11:47:17Z</time>
      </trkpt>
      <trkpt lat="43.26353" lon="-5.1540318">
        <ele>404.0</ele>
        <time>2020-11-01T11:47:18Z</time>
      </trkpt>
      <trkpt lat="43.26352" lon="-5.154039">
        <ele>404.0</ele>
        <time>2020-11-01T11:47:19Z</time>
      </trkpt>
      <trkpt lat="43.263508" lon="-5.154047">
        <ele>404.0</ele>
        <time>2020-11-01T11:47:20Z</time>
      </trkpt>
      <trkpt lat="43.263496" lon="-5.154054">
        <ele>403.0</ele>
        <time>2020-11-01T11:47:21Z</time>
      </trkpt>
      <trkpt lat="43.26349" lon="-5.1540604">
        <ele>403.0</ele>
        <time>2020-11-01T11:47:22Z</time>
      </trkpt>
      <trkpt lat="43.263477" lon="-5.154063">
        <ele>403.0</ele>
        <time>2020-11-01T11:47:23Z</time>
      </trkpt>
      <trkpt lat="43.263466" lon="-5.1540637">
        <ele>403.0</ele>
        <time>2020-11-01T11:47:24Z</time>
      </trkpt>
      <trkpt lat="43.26346" lon="-5.1540575">
        <ele>403.0</ele>
        <time>2020-11-01T11:47:25Z</time>
      </trkpt>
      <trkpt lat="43.263447" lon="-5.1540575">
        <ele>403.0</ele>
        <time>2020-11-01T11:47:26Z</time>
      </trkpt>
      <trkpt lat="43.263435" lon="-5.154067">
        <ele>403.0</ele>
        <time>2020-11-01T11:47:27Z</time>
      </trkpt>
      <trkpt lat="43.263428" lon="-5.1540775">
        <ele>403.0</ele>
        <time>2020-11-01T11:47:28Z</time>
      </trkpt>
      <trkpt lat="43.263412" lon="-5.154085">
        <ele>403.0</ele>
        <time>2020-11-01T11:47:29Z</time>
      </trkpt>
      <trkpt lat="43.2634" lon="-5.1540885">
        <ele>403.0</ele>
        <time>2020-11-01T11:47:30Z</time>
      </trkpt>
      <trkpt lat="43.26339" lon="-5.1540933">
        <ele>402.0</ele>
        <time>2020-11-01T11:47:31Z</time>
      </trkpt>
      <trkpt lat="43.263386" lon="-5.154098">
        <ele>402.0</ele>
        <time>2020-11-01T11:47:32Z</time>
      </trkpt>
      <trkpt lat="43.263374" lon="-5.154101">
        <ele>402.0</ele>
        <time>2020-11-01T11:47:33Z</time>
      </trkpt>
      <trkpt lat="43.26337" lon="-5.1541023">
        <ele>402.0</ele>
        <time>2020-11-01T11:47:34Z</time>
      </trkpt>
      <trkpt lat="43.263367" lon="-5.1541038">
        <ele>402.0</ele>
        <time>2020-11-01T11:47:35Z</time>
      </trkpt>
      <trkpt lat="43.26336" lon="-5.154104">
        <ele>402.0</ele>
        <time>2020-11-01T11:47:36Z</time>
      </trkpt>
      <trkpt lat="43.26335" lon="-5.154105">
        <ele>402.0</ele>
        <time>2020-11-01T11:47:36Z</time>
      </trkpt>
      <trkpt lat="43.26334" lon="-5.154107">
        <ele>401.0</ele>
        <time>2020-11-01T11:47:37Z</time>
      </trkpt>
      <trkpt lat="43.26333" lon="-5.154109">
        <ele>401.0</ele>
        <time>2020-11-01T11:47:38Z</time>
      </trkpt>
      <trkpt lat="43.26332" lon="-5.1541104">
        <ele>401.0</ele>
        <time>2020-11-01T11:47:39Z</time>
      </trkpt>
      <trkpt lat="43.26331" lon="-5.154112">
        <ele>401.0</ele>
        <time>2020-11-01T11:47:40Z</time>
      </trkpt>
      <trkpt lat="43.2633" lon="-5.154114">
        <ele>401.0</ele>
        <time>2020-11-01T11:47:41Z</time>
      </trkpt>
      <trkpt lat="43.263298" lon="-5.154115">
        <ele>401.0</ele>
        <time>2020-11-01T11:47:42Z</time>
      </trkpt>
      <trkpt lat="43.263294" lon="-5.1541176">
        <ele>401.0</ele>
        <time>2020-11-01T11:47:43Z</time>
      </trkpt>
      <trkpt lat="43.263287" lon="-5.1541214">
        <ele>401.0</ele>
        <time>2020-11-01T11:47:44Z</time>
      </trkpt>
      <trkpt lat="43.263283" lon="-5.1541243">
        <ele>401.0</ele>
        <time>2020-11-01T11:47:45Z</time>
      </trkpt>
      <trkpt lat="43.26327" lon="-5.1541257">
        <ele>401.0</ele>
        <time>2020-11-01T11:47:46Z</time>
      </trkpt>
      <trkpt lat="43.263268" lon="-5.1541276">
        <ele>401.0</ele>
        <time>2020-11-01T11:47:48Z</time>
      </trkpt>
      <trkpt lat="43.263256" lon="-5.1541295">
        <ele>401.0</ele>
        <time>2020-11-01T11:47:48Z</time>
      </trkpt>
      <trkpt lat="43.26325" lon="-5.1541314">
        <ele>401.0</ele>
        <time>2020-11-01T11:47:49Z</time>
      </trkpt>
      <trkpt lat="43.26324" lon="-5.1541314">
        <ele>401.0</ele>
        <time>2020-11-01T11:47:50Z</time>
      </trkpt>
      <trkpt lat="43.263233" lon="-5.1541324">
        <ele>401.0</ele>
        <time>2020-11-01T11:47:51Z</time>
      </trkpt>
      <trkpt lat="43.26322" lon="-5.154137">
        <ele>401.0</ele>
        <time>2020-11-01T11:47:52Z</time>
      </trkpt>
      <trkpt lat="43.26321" lon="-5.15414">
        <ele>401.0</ele>
        <time>2020-11-01T11:47:53Z</time>
      </trkpt>
      <trkpt lat="43.263206" lon="-5.1541405">
        <ele>401.0</ele>
        <time>2020-11-01T11:47:55Z</time>
      </trkpt>
      <trkpt lat="43.263195" lon="-5.1541405">
        <ele>401.0</ele>
        <time>2020-11-01T11:47:55Z</time>
      </trkpt>
      <trkpt lat="43.263195" lon="-5.15414">
        <ele>401.0</ele>
        <time>2020-11-01T11:47:56Z</time>
      </trkpt>
      <trkpt lat="43.263187" lon="-5.1541405">
        <ele>401.0</ele>
        <time>2020-11-01T11:47:59Z</time>
      </trkpt>
      <trkpt lat="43.263187" lon="-5.1541395">
        <ele>401.0</ele>
        <time>2020-11-01T11:48:00Z</time>
      </trkpt>
      <trkpt lat="43.26316" lon="-5.1541123">
        <ele>401.0</ele>
        <time>2020-11-01T11:48:13Z</time>
      </trkpt>
      <trkpt lat="43.26316" lon="-5.154113">
        <ele>399.0</ele>
        <time>2020-11-01T11:48:14Z</time>
      </trkpt>
      <trkpt lat="43.263157" lon="-5.1541123">
        <ele>399.0</ele>
        <time>2020-11-01T11:48:15Z</time>
      </trkpt>
      <trkpt lat="43.26315" lon="-5.154114">
        <ele>399.0</ele>
        <time>2020-11-01T11:48:16Z</time>
      </trkpt>
      <trkpt lat="43.263145" lon="-5.1541147">
        <ele>399.0</ele>
        <time>2020-11-01T11:48:17Z</time>
      </trkpt>
      <trkpt lat="43.26314" lon="-5.1541147">
        <ele>399.0</ele>
        <time>2020-11-01T11:48:18Z</time>
      </trkpt>
      <trkpt lat="43.263134" lon="-5.154113">
        <ele>399.0</ele>
        <time>2020-11-01T11:48:19Z</time>
      </trkpt>
      <trkpt lat="43.263126" lon="-5.154111">
        <ele>399.0</ele>
        <time>2020-11-01T11:48:20Z</time>
      </trkpt>
      <trkpt lat="43.26312" lon="-5.154109">
        <ele>399.0</ele>
        <time>2020-11-01T11:48:21Z</time>
      </trkpt>
      <trkpt lat="43.263107" lon="-5.154108">
        <ele>399.0</ele>
        <time>2020-11-01T11:48:22Z</time>
      </trkpt>
      <trkpt lat="43.263103" lon="-5.1541076">
        <ele>399.0</ele>
        <time>2020-11-01T11:48:23Z</time>
      </trkpt>
      <trkpt lat="43.263092" lon="-5.154109">
        <ele>399.0</ele>
        <time>2020-11-01T11:48:24Z</time>
      </trkpt>
      <trkpt lat="43.26309" lon="-5.154112">
        <ele>399.0</ele>
        <time>2020-11-01T11:48:25Z</time>
      </trkpt>
      <trkpt lat="43.263077" lon="-5.154114">
        <ele>399.0</ele>
        <time>2020-11-01T11:48:26Z</time>
      </trkpt>
      <trkpt lat="43.26307" lon="-5.154117">
        <ele>399.0</ele>
        <time>2020-11-01T11:48:27Z</time>
      </trkpt>
      <trkpt lat="43.263054" lon="-5.1541204">
        <ele>399.0</ele>
        <time>2020-11-01T11:48:29Z</time>
      </trkpt>
      <trkpt lat="43.263042" lon="-5.1541233">
        <ele>399.0</ele>
        <time>2020-11-01T11:48:29Z</time>
      </trkpt>
      <trkpt lat="43.263027" lon="-5.1541266">
        <ele>399.0</ele>
        <time>2020-11-01T11:48:30Z</time>
      </trkpt>
      <trkpt lat="43.263016" lon="-5.1541324">
        <ele>399.0</ele>
        <time>2020-11-01T11:48:31Z</time>
      </trkpt>
      <trkpt lat="43.263" lon="-5.1541386">
        <ele>399.0</ele>
        <time>2020-11-01T11:48:32Z</time>
      </trkpt>
      <trkpt lat="43.262993" lon="-5.1541457">
        <ele>399.0</ele>
        <time>2020-11-01T11:48:33Z</time>
      </trkpt>
      <trkpt lat="43.262978" lon="-5.1541524">
        <ele>399.0</ele>
        <time>2020-11-01T11:48:34Z</time>
      </trkpt>
      <trkpt lat="43.262966" lon="-5.1541595">
        <ele>399.0</ele>
        <time>2020-11-01T11:48:35Z</time>
      </trkpt>
      <trkpt lat="43.26295" lon="-5.154167">
        <ele>399.0</ele>
        <time>2020-11-01T11:48:36Z</time>
      </trkpt>
      <trkpt lat="43.26294" lon="-5.154175">
        <ele>399.0</ele>
        <time>2020-11-01T11:48:37Z</time>
      </trkpt>
      <trkpt lat="43.262924" lon="-5.154181">
        <ele>399.0</ele>
        <time>2020-11-01T11:48:38Z</time>
      </trkpt>
      <trkpt lat="43.262913" lon="-5.1541862">
        <ele>399.0</ele>
        <time>2020-11-01T11:48:39Z</time>
      </trkpt>
      <trkpt lat="43.262905" lon="-5.154192">
        <ele>399.0</ele>
        <time>2020-11-01T11:48:40Z</time>
      </trkpt>
      <trkpt lat="43.262894" lon="-5.1541977">
        <ele>399.0</ele>
        <time>2020-11-01T11:48:41Z</time>
      </trkpt>
      <trkpt lat="43.26288" lon="-5.154204">
        <ele>399.0</ele>
        <time>2020-11-01T11:48:42Z</time>
      </trkpt>
      <trkpt lat="43.262867" lon="-5.154208">
        <ele>399.0</ele>
        <time>2020-11-01T11:48:43Z</time>
      </trkpt>
      <trkpt lat="43.262863" lon="-5.15421">
        <ele>399.0</ele>
        <time>2020-11-01T11:48:44Z</time>
      </trkpt>
      <trkpt lat="43.26285" lon="-5.154209">
        <ele>399.0</ele>
        <time>2020-11-01T11:48:45Z</time>
      </trkpt>
      <trkpt lat="43.262848" lon="-5.1542053">
        <ele>399.0</ele>
        <time>2020-11-01T11:48:46Z</time>
      </trkpt>
      <trkpt lat="43.262844" lon="-5.154198">
        <ele>399.0</ele>
        <time>2020-11-01T11:48:47Z</time>
      </trkpt>
      <trkpt lat="43.262836" lon="-5.1541886">
        <ele>399.0</ele>
        <time>2020-11-01T11:48:48Z</time>
      </trkpt>
      <trkpt lat="43.262836" lon="-5.154178">
        <ele>399.0</ele>
        <time>2020-11-01T11:48:49Z</time>
      </trkpt>
      <trkpt lat="43.262833" lon="-5.1541696">
        <ele>399.0</ele>
        <time>2020-11-01T11:48:50Z</time>
      </trkpt>
      <trkpt lat="43.262833" lon="-5.154165">
        <ele>399.0</ele>
        <time>2020-11-01T11:48:51Z</time>
      </trkpt>
      <trkpt lat="43.262836" lon="-5.1541653">
        <ele>399.0</ele>
        <time>2020-11-01T11:48:52Z</time>
      </trkpt>
      <trkpt lat="43.262836" lon="-5.15417">
        <ele>399.0</ele>
        <time>2020-11-01T11:48:53Z</time>
      </trkpt>
      <trkpt lat="43.262833" lon="-5.154178">
        <ele>399.0</ele>
        <time>2020-11-01T11:48:54Z</time>
      </trkpt>
      <trkpt lat="43.26283" lon="-5.1541867">
        <ele>399.0</ele>
        <time>2020-11-01T11:48:55Z</time>
      </trkpt>
      <trkpt lat="43.26282" lon="-5.1541963">
        <ele>399.0</ele>
        <time>2020-11-01T11:48:56Z</time>
      </trkpt>
      <trkpt lat="43.262817" lon="-5.154209">
        <ele>399.0</ele>
        <time>2020-11-01T11:48:57Z</time>
      </trkpt>
      <trkpt lat="43.262814" lon="-5.154223">
        <ele>399.0</ele>
        <time>2020-11-01T11:48:58Z</time>
      </trkpt>
      <trkpt lat="43.262806" lon="-5.1542373">
        <ele>399.0</ele>
        <time>2020-11-01T11:48:59Z</time>
      </trkpt>
      <trkpt lat="43.262802" lon="-5.154249">
        <ele>399.0</ele>
        <time>2020-11-01T11:49:00Z</time>
      </trkpt>
      <trkpt lat="43.2628" lon="-5.15426">
        <ele>399.0</ele>
        <time>2020-11-01T11:49:01Z</time>
      </trkpt>
      <trkpt lat="43.26279" lon="-5.15427">
        <ele>399.0</ele>
        <time>2020-11-01T11:49:02Z</time>
      </trkpt>
      <trkpt lat="43.262787" lon="-5.154279">
        <ele>399.0</ele>
        <time>2020-11-01T11:49:03Z</time>
      </trkpt>
      <trkpt lat="43.262783" lon="-5.154287">
        <ele>399.0</ele>
        <time>2020-11-01T11:49:04Z</time>
      </trkpt>
      <trkpt lat="43.26277" lon="-5.1542945">
        <ele>399.0</ele>
        <time>2020-11-01T11:49:06Z</time>
      </trkpt>
      <trkpt lat="43.262768" lon="-5.154303">
        <ele>399.0</ele>
        <time>2020-11-01T11:49:06Z</time>
      </trkpt>
      <trkpt lat="43.26276" lon="-5.1543097">
        <ele>399.0</ele>
        <time>2020-11-01T11:49:07Z</time>
      </trkpt>
      <trkpt lat="43.262753" lon="-5.154316">
        <ele>399.0</ele>
        <time>2020-11-01T11:49:08Z</time>
      </trkpt>
      <trkpt lat="43.262745" lon="-5.1543207">
        <ele>399.0</ele>
        <time>2020-11-01T11:49:09Z</time>
      </trkpt>
      <trkpt lat="43.262733" lon="-5.1543255">
        <ele>399.0</ele>
        <time>2020-11-01T11:49:10Z</time>
      </trkpt>
      <trkpt lat="43.26273" lon="-5.1543307">
        <ele>399.0</ele>
        <time>2020-11-01T11:49:11Z</time>
      </trkpt>
      <trkpt lat="43.26272" lon="-5.154335">
        <ele>399.0</ele>
        <time>2020-11-01T11:49:12Z</time>
      </trkpt>
      <trkpt lat="43.26271" lon="-5.1543393">
        <ele>400.0</ele>
        <time>2020-11-01T11:49:13Z</time>
      </trkpt>
      <trkpt lat="43.2627" lon="-5.154347">
        <ele>400.0</ele>
        <time>2020-11-01T11:49:14Z</time>
      </trkpt>
      <trkpt lat="43.262684" lon="-5.1543546">
        <ele>400.0</ele>
        <time>2020-11-01T11:49:15Z</time>
      </trkpt>
      <trkpt lat="43.26267" lon="-5.154362">
        <ele>400.0</ele>
        <time>2020-11-01T11:49:16Z</time>
      </trkpt>
      <trkpt lat="43.262653" lon="-5.1543684">
        <ele>400.0</ele>
        <time>2020-11-01T11:49:17Z</time>
      </trkpt>
      <trkpt lat="43.26264" lon="-5.154372">
        <ele>400.0</ele>
        <time>2020-11-01T11:49:18Z</time>
      </trkpt>
      <trkpt lat="43.262634" lon="-5.1543746">
        <ele>400.0</ele>
        <time>2020-11-01T11:49:19Z</time>
      </trkpt>
      <trkpt lat="43.262623" lon="-5.1543765">
        <ele>400.0</ele>
        <time>2020-11-01T11:49:20Z</time>
      </trkpt>
      <trkpt lat="43.26262" lon="-5.1543794">
        <ele>400.0</ele>
        <time>2020-11-01T11:49:21Z</time>
      </trkpt>
      <trkpt lat="43.262608" lon="-5.154384">
        <ele>400.0</ele>
        <time>2020-11-01T11:49:22Z</time>
      </trkpt>
      <trkpt lat="43.262596" lon="-5.154389">
        <ele>400.0</ele>
        <time>2020-11-01T11:49:23Z</time>
      </trkpt>
      <trkpt lat="43.26258" lon="-5.154393">
        <ele>400.0</ele>
        <time>2020-11-01T11:49:24Z</time>
      </trkpt>
      <trkpt lat="43.262573" lon="-5.154398">
        <ele>400.0</ele>
        <time>2020-11-01T11:49:25Z</time>
      </trkpt>
      <trkpt lat="43.26256" lon="-5.1544027">
        <ele>400.0</ele>
        <time>2020-11-01T11:49:26Z</time>
      </trkpt>
      <trkpt lat="43.26255" lon="-5.154408">
        <ele>400.0</ele>
        <time>2020-11-01T11:49:28Z</time>
      </trkpt>
      <trkpt lat="43.262535" lon="-5.1544123">
        <ele>400.0</ele>
        <time>2020-11-01T11:49:28Z</time>
      </trkpt>
      <trkpt lat="43.262524" lon="-5.1544175">
        <ele>400.0</ele>
        <time>2020-11-01T11:49:29Z</time>
      </trkpt>
      <trkpt lat="43.262516" lon="-5.154423">
        <ele>400.0</ele>
        <time>2020-11-01T11:49:30Z</time>
      </trkpt>
      <trkpt lat="43.262505" lon="-5.1544294">
        <ele>400.0</ele>
        <time>2020-11-01T11:49:31Z</time>
      </trkpt>
      <trkpt lat="43.262493" lon="-5.1544356">
        <ele>400.0</ele>
        <time>2020-11-01T11:49:32Z</time>
      </trkpt>
      <trkpt lat="43.262486" lon="-5.1544414">
        <ele>401.0</ele>
        <time>2020-11-01T11:49:33Z</time>
      </trkpt>
      <trkpt lat="43.262474" lon="-5.1544476">
        <ele>401.0</ele>
        <time>2020-11-01T11:49:34Z</time>
      </trkpt>
      <trkpt lat="43.262463" lon="-5.154454">
        <ele>401.0</ele>
        <time>2020-11-01T11:49:35Z</time>
      </trkpt>
      <trkpt lat="43.262455" lon="-5.154459">
        <ele>401.0</ele>
        <time>2020-11-01T11:49:36Z</time>
      </trkpt>
      <trkpt lat="43.262444" lon="-5.154463">
        <ele>401.0</ele>
        <time>2020-11-01T11:49:37Z</time>
      </trkpt>
      <trkpt lat="43.262432" lon="-5.1544647">
        <ele>401.0</ele>
        <time>2020-11-01T11:49:38Z</time>
      </trkpt>
      <trkpt lat="43.262424" lon="-5.154466">
        <ele>401.0</ele>
        <time>2020-11-01T11:49:39Z</time>
      </trkpt>
      <trkpt lat="43.262413" lon="-5.154468">
        <ele>401.0</ele>
        <time>2020-11-01T11:49:40Z</time>
      </trkpt>
      <trkpt lat="43.2624" lon="-5.15447">
        <ele>401.0</ele>
        <time>2020-11-01T11:49:41Z</time>
      </trkpt>
      <trkpt lat="43.262386" lon="-5.154472">
        <ele>401.0</ele>
        <time>2020-11-01T11:49:42Z</time>
      </trkpt>
      <trkpt lat="43.26238" lon="-5.1544733">
        <ele>401.0</ele>
        <time>2020-11-01T11:49:43Z</time>
      </trkpt>
      <trkpt lat="43.262363" lon="-5.154477">
        <ele>401.0</ele>
        <time>2020-11-01T11:49:44Z</time>
      </trkpt>
      <trkpt lat="43.262352" lon="-5.1544814">
        <ele>402.0</ele>
        <time>2020-11-01T11:49:45Z</time>
      </trkpt>
      <trkpt lat="43.262337" lon="-5.1544833">
        <ele>402.0</ele>
        <time>2020-11-01T11:49:46Z</time>
      </trkpt>
      <trkpt lat="43.26232" lon="-5.1544843">
        <ele>402.0</ele>
        <time>2020-11-01T11:49:47Z</time>
      </trkpt>
      <trkpt lat="43.262314" lon="-5.154487">
        <ele>402.0</ele>
        <time>2020-11-01T11:49:49Z</time>
      </trkpt>
      <trkpt lat="43.262306" lon="-5.154492">
        <ele>402.0</ele>
        <time>2020-11-01T11:49:49Z</time>
      </trkpt>
      <trkpt lat="43.262295" lon="-5.154498">
        <ele>402.0</ele>
        <time>2020-11-01T11:49:50Z</time>
      </trkpt>
      <trkpt lat="43.262295" lon="-5.1545067">
        <ele>402.0</ele>
        <time>2020-11-01T11:49:51Z</time>
      </trkpt>
      <trkpt lat="43.26229" lon="-5.1545177">
        <ele>403.0</ele>
        <time>2020-11-01T11:49:52Z</time>
      </trkpt>
      <trkpt lat="43.26229" lon="-5.1545296">
        <ele>403.0</ele>
        <time>2020-11-01T11:49:53Z</time>
      </trkpt>
      <trkpt lat="43.26229" lon="-5.1545405">
        <ele>403.0</ele>
        <time>2020-11-01T11:49:54Z</time>
      </trkpt>
      <trkpt lat="43.262295" lon="-5.1545544">
        <ele>403.0</ele>
        <time>2020-11-01T11:49:55Z</time>
      </trkpt>
      <trkpt lat="43.262295" lon="-5.1545706">
        <ele>403.0</ele>
        <time>2020-11-01T11:49:56Z</time>
      </trkpt>
      <trkpt lat="43.262295" lon="-5.1545873">
        <ele>404.0</ele>
        <time>2020-11-01T11:49:57Z</time>
      </trkpt>
      <trkpt lat="43.262295" lon="-5.1546044">
        <ele>404.0</ele>
        <time>2020-11-01T11:49:58Z</time>
      </trkpt>
      <trkpt lat="43.262295" lon="-5.154621">
        <ele>404.0</ele>
        <time>2020-11-01T11:49:59Z</time>
      </trkpt>
      <trkpt lat="43.262295" lon="-5.1546373">
        <ele>404.0</ele>
        <time>2020-11-01T11:50:00Z</time>
      </trkpt>
      <trkpt lat="43.26229" lon="-5.154652">
        <ele>404.0</ele>
        <time>2020-11-01T11:50:01Z</time>
      </trkpt>
      <trkpt lat="43.26228" lon="-5.1546664">
        <ele>404.0</ele>
        <time>2020-11-01T11:50:02Z</time>
      </trkpt>
      <trkpt lat="43.262268" lon="-5.154678">
        <ele>404.0</ele>
        <time>2020-11-01T11:50:04Z</time>
      </trkpt>
      <trkpt lat="43.26226" lon="-5.154687">
        <ele>405.0</ele>
        <time>2020-11-01T11:50:04Z</time>
      </trkpt>
      <trkpt lat="43.26225" lon="-5.1546917">
        <ele>405.0</ele>
        <time>2020-11-01T11:50:05Z</time>
      </trkpt>
      <trkpt lat="43.262238" lon="-5.1546917">
        <ele>405.0</ele>
        <time>2020-11-01T11:50:06Z</time>
      </trkpt>
      <trkpt lat="43.26223" lon="-5.154688">
        <ele>405.0</ele>
        <time>2020-11-01T11:50:07Z</time>
      </trkpt>
      <trkpt lat="43.26222" lon="-5.154684">
        <ele>405.0</ele>
        <time>2020-11-01T11:50:08Z</time>
      </trkpt>
      <trkpt lat="43.262207" lon="-5.154681">
        <ele>405.0</ele>
        <time>2020-11-01T11:50:09Z</time>
      </trkpt>
      <trkpt lat="43.262203" lon="-5.1546793">
        <ele>405.0</ele>
        <time>2020-11-01T11:50:10Z</time>
      </trkpt>
      <trkpt lat="43.26219" lon="-5.154679">
        <ele>405.0</ele>
        <time>2020-11-01T11:50:11Z</time>
      </trkpt>
      <trkpt lat="43.262184" lon="-5.1546764">
        <ele>405.0</ele>
        <time>2020-11-01T11:50:12Z</time>
      </trkpt>
      <trkpt lat="43.262173" lon="-5.15467">
        <ele>405.0</ele>
        <time>2020-11-01T11:50:13Z</time>
      </trkpt>
      <trkpt lat="43.26216" lon="-5.154664">
        <ele>405.0</ele>
        <time>2020-11-01T11:50:14Z</time>
      </trkpt>
      <trkpt lat="43.26215" lon="-5.1546583">
        <ele>405.0</ele>
        <time>2020-11-01T11:50:15Z</time>
      </trkpt>
      <trkpt lat="43.262146" lon="-5.154652">
        <ele>405.0</ele>
        <time>2020-11-01T11:50:16Z</time>
      </trkpt>
      <trkpt lat="43.262135" lon="-5.1546454">
        <ele>405.0</ele>
        <time>2020-11-01T11:50:17Z</time>
      </trkpt>
      <trkpt lat="43.26212" lon="-5.1546407">
        <ele>405.0</ele>
        <time>2020-11-01T11:50:18Z</time>
      </trkpt>
      <trkpt lat="43.26211" lon="-5.1546392">
        <ele>405.0</ele>
        <time>2020-11-01T11:50:19Z</time>
      </trkpt>
      <trkpt lat="43.262096" lon="-5.1546397">
        <ele>405.0</ele>
        <time>2020-11-01T11:50:20Z</time>
      </trkpt>
      <trkpt lat="43.262085" lon="-5.154642">
        <ele>405.0</ele>
        <time>2020-11-01T11:50:21Z</time>
      </trkpt>
      <trkpt lat="43.26207" lon="-5.154644">
        <ele>405.0</ele>
        <time>2020-11-01T11:50:22Z</time>
      </trkpt>
      <trkpt lat="43.262066" lon="-5.154646">
        <ele>405.0</ele>
        <time>2020-11-01T11:50:23Z</time>
      </trkpt>
      <trkpt lat="43.262043" lon="-5.154649">
        <ele>405.0</ele>
        <time>2020-11-01T11:50:25Z</time>
      </trkpt>
      <trkpt lat="43.262043" lon="-5.154648">
        <ele>405.0</ele>
        <time>2020-11-01T11:50:26Z</time>
      </trkpt>
      <trkpt lat="43.262043" lon="-5.1546464">
        <ele>405.0</ele>
        <time>2020-11-01T11:50:27Z</time>
      </trkpt>
      <trkpt lat="43.262043" lon="-5.154645">
        <ele>405.0</ele>
        <time>2020-11-01T11:50:28Z</time>
      </trkpt>
      <trkpt lat="43.262035" lon="-5.15464">
        <ele>405.0</ele>
        <time>2020-11-01T11:50:30Z</time>
      </trkpt>
      <trkpt lat="43.262028" lon="-5.1546392">
        <ele>405.0</ele>
        <time>2020-11-01T11:50:31Z</time>
      </trkpt>
      <trkpt lat="43.26202" lon="-5.154636">
        <ele>405.0</ele>
        <time>2020-11-01T11:50:32Z</time>
      </trkpt>
      <trkpt lat="43.262012" lon="-5.154633">
        <ele>405.0</ele>
        <time>2020-11-01T11:50:33Z</time>
      </trkpt>
      <trkpt lat="43.262005" lon="-5.154628">
        <ele>405.0</ele>
        <time>2020-11-01T11:50:34Z</time>
      </trkpt>
      <trkpt lat="43.261993" lon="-5.1546206">
        <ele>405.0</ele>
        <time>2020-11-01T11:50:35Z</time>
      </trkpt>
      <trkpt lat="43.261982" lon="-5.154613">
        <ele>405.0</ele>
        <time>2020-11-01T11:50:36Z</time>
      </trkpt>
      <trkpt lat="43.26198" lon="-5.1546054">
        <ele>405.0</ele>
        <time>2020-11-01T11:50:37Z</time>
      </trkpt>
      <trkpt lat="43.261974" lon="-5.154598">
        <ele>405.0</ele>
        <time>2020-11-01T11:50:38Z</time>
      </trkpt>
      <trkpt lat="43.261963" lon="-5.1545906">
        <ele>405.0</ele>
        <time>2020-11-01T11:50:39Z</time>
      </trkpt>
      <trkpt lat="43.261955" lon="-5.154587">
        <ele>405.0</ele>
        <time>2020-11-01T11:50:40Z</time>
      </trkpt>
      <trkpt lat="43.261948" lon="-5.1545863">
        <ele>405.0</ele>
        <time>2020-11-01T11:50:41Z</time>
      </trkpt>
      <trkpt lat="43.261936" lon="-5.1545863">
        <ele>405.0</ele>
        <time>2020-11-01T11:50:42Z</time>
      </trkpt>
      <trkpt lat="43.261925" lon="-5.154588">
        <ele>405.0</ele>
        <time>2020-11-01T11:50:44Z</time>
      </trkpt>
      <trkpt lat="43.261917" lon="-5.154588">
        <ele>405.0</ele>
        <time>2020-11-01T11:50:44Z</time>
      </trkpt>
      <trkpt lat="43.261906" lon="-5.1545863">
        <ele>405.0</ele>
        <time>2020-11-01T11:50:45Z</time>
      </trkpt>
      <trkpt lat="43.261894" lon="-5.1545825">
        <ele>405.0</ele>
        <time>2020-11-01T11:50:46Z</time>
      </trkpt>
      <trkpt lat="43.261887" lon="-5.154576">
        <ele>405.0</ele>
        <time>2020-11-01T11:50:47Z</time>
      </trkpt>
      <trkpt lat="43.261875" lon="-5.154567">
        <ele>405.0</ele>
        <time>2020-11-01T11:50:48Z</time>
      </trkpt>
      <trkpt lat="43.261864" lon="-5.1545587">
        <ele>405.0</ele>
        <time>2020-11-01T11:50:50Z</time>
      </trkpt>
      <trkpt lat="43.26186" lon="-5.1545525">
        <ele>405.0</ele>
        <time>2020-11-01T11:50:50Z</time>
      </trkpt>
      <trkpt lat="43.26185" lon="-5.1545463">
        <ele>405.0</ele>
        <time>2020-11-01T11:50:51Z</time>
      </trkpt>
      <trkpt lat="43.261845" lon="-5.1545405">
        <ele>405.0</ele>
        <time>2020-11-01T11:50:52Z</time>
      </trkpt>
      <trkpt lat="43.261833" lon="-5.154535">
        <ele>405.0</ele>
        <time>2020-11-01T11:50:53Z</time>
      </trkpt>
      <trkpt lat="43.261826" lon="-5.15453">
        <ele>405.0</ele>
        <time>2020-11-01T11:50:54Z</time>
      </trkpt>
      <trkpt lat="43.261814" lon="-5.1545267">
        <ele>403.0</ele>
        <time>2020-11-01T11:50:55Z</time>
      </trkpt>
      <trkpt lat="43.261803" lon="-5.1545253">
        <ele>403.0</ele>
        <time>2020-11-01T11:50:56Z</time>
      </trkpt>
      <trkpt lat="43.261795" lon="-5.1545243">
        <ele>403.0</ele>
        <time>2020-11-01T11:50:57Z</time>
      </trkpt>
      <trkpt lat="43.261784" lon="-5.1545234">
        <ele>403.0</ele>
        <time>2020-11-01T11:50:58Z</time>
      </trkpt>
      <trkpt lat="43.261772" lon="-5.1545234">
        <ele>403.0</ele>
        <time>2020-11-01T11:50:59Z</time>
      </trkpt>
      <trkpt lat="43.26176" lon="-5.1545224">
        <ele>403.0</ele>
        <time>2020-11-01T11:51:00Z</time>
      </trkpt>
      <trkpt lat="43.261753" lon="-5.1545205">
        <ele>403.0</ele>
        <time>2020-11-01T11:51:01Z</time>
      </trkpt>
      <trkpt lat="43.26174" lon="-5.1545177">
        <ele>403.0</ele>
        <time>2020-11-01T11:51:02Z</time>
      </trkpt>
      <trkpt lat="43.26173" lon="-5.1545157">
        <ele>403.0</ele>
        <time>2020-11-01T11:51:03Z</time>
      </trkpt>
      <trkpt lat="43.261723" lon="-5.1545153">
        <ele>403.0</ele>
        <time>2020-11-01T11:51:05Z</time>
      </trkpt>
      <trkpt lat="43.26171" lon="-5.154516">
        <ele>403.0</ele>
        <time>2020-11-01T11:51:05Z</time>
      </trkpt>
      <trkpt lat="43.2617" lon="-5.1545167">
        <ele>403.0</ele>
        <time>2020-11-01T11:51:06Z</time>
      </trkpt>
      <trkpt lat="43.261692" lon="-5.154517">
        <ele>403.0</ele>
        <time>2020-11-01T11:51:07Z</time>
      </trkpt>
      <trkpt lat="43.26168" lon="-5.1545196">
        <ele>403.0</ele>
        <time>2020-11-01T11:51:08Z</time>
      </trkpt>
      <trkpt lat="43.26167" lon="-5.1545224">
        <ele>403.0</ele>
        <time>2020-11-01T11:51:09Z</time>
      </trkpt>
      <trkpt lat="43.261665" lon="-5.154523">
        <ele>403.0</ele>
        <time>2020-11-01T11:51:10Z</time>
      </trkpt>
      <trkpt lat="43.261654" lon="-5.154523">
        <ele>403.0</ele>
        <time>2020-11-01T11:51:11Z</time>
      </trkpt>
      <trkpt lat="43.26165" lon="-5.154524">
        <ele>403.0</ele>
        <time>2020-11-01T11:51:12Z</time>
      </trkpt>
      <trkpt lat="43.261646" lon="-5.154523">
        <ele>403.0</ele>
        <time>2020-11-01T11:51:13Z</time>
      </trkpt>
      <trkpt lat="43.26164" lon="-5.154524">
        <ele>403.0</ele>
        <time>2020-11-01T11:51:14Z</time>
      </trkpt>
      <trkpt lat="43.26164" lon="-5.154523">
        <ele>403.0</ele>
        <time>2020-11-01T11:51:15Z</time>
      </trkpt>
      <trkpt lat="43.261623" lon="-5.154527">
        <ele>403.0</ele>
        <time>2020-11-01T11:51:17Z</time>
      </trkpt>
      <trkpt lat="43.261623" lon="-5.154528">
        <ele>403.0</ele>
        <time>2020-11-01T11:51:18Z</time>
      </trkpt>
      <trkpt lat="43.26162" lon="-5.154531">
        <ele>403.0</ele>
        <time>2020-11-01T11:51:19Z</time>
      </trkpt>
      <trkpt lat="43.261616" lon="-5.1545343">
        <ele>403.0</ele>
        <time>2020-11-01T11:51:20Z</time>
      </trkpt>
      <trkpt lat="43.261604" lon="-5.1545377">
        <ele>403.0</ele>
        <time>2020-11-01T11:51:22Z</time>
      </trkpt>
      <trkpt lat="43.261593" lon="-5.154541">
        <ele>403.0</ele>
        <time>2020-11-01T11:51:22Z</time>
      </trkpt>
      <trkpt lat="43.261585" lon="-5.1545434">
        <ele>403.0</ele>
        <time>2020-11-01T11:51:23Z</time>
      </trkpt>
      <trkpt lat="43.261578" lon="-5.154546">
        <ele>403.0</ele>
        <time>2020-11-01T11:51:24Z</time>
      </trkpt>
      <trkpt lat="43.261578" lon="-5.154545">
        <ele>403.0</ele>
        <time>2020-11-01T11:51:25Z</time>
      </trkpt>
      <trkpt lat="43.26156" lon="-5.1545467">
        <ele>403.0</ele>
        <time>2020-11-01T11:51:27Z</time>
      </trkpt>
      <trkpt lat="43.26156" lon="-5.154549">
        <ele>403.0</ele>
        <time>2020-11-01T11:51:28Z</time>
      </trkpt>
      <trkpt lat="43.26156" lon="-5.1545506">
        <ele>403.0</ele>
        <time>2020-11-01T11:51:29Z</time>
      </trkpt>
      <trkpt lat="43.26155" lon="-5.1545525">
        <ele>403.0</ele>
        <time>2020-11-01T11:51:31Z</time>
      </trkpt>
      <trkpt lat="43.261547" lon="-5.1545563">
        <ele>403.0</ele>
        <time>2020-11-01T11:51:31Z</time>
      </trkpt>
      <trkpt lat="43.261543" lon="-5.154561">
        <ele>403.0</ele>
        <time>2020-11-01T11:51:32Z</time>
      </trkpt>
      <trkpt lat="43.261536" lon="-5.1545672">
        <ele>403.0</ele>
        <time>2020-11-01T11:51:33Z</time>
      </trkpt>
      <trkpt lat="43.261536" lon="-5.1545734">
        <ele>403.0</ele>
        <time>2020-11-01T11:51:34Z</time>
      </trkpt>
      <trkpt lat="43.26153" lon="-5.1545787">
        <ele>403.0</ele>
        <time>2020-11-01T11:51:35Z</time>
      </trkpt>
      <trkpt lat="43.261528" lon="-5.1545825">
        <ele>403.0</ele>
        <time>2020-11-01T11:51:36Z</time>
      </trkpt>
      <trkpt lat="43.261517" lon="-5.154585">
        <ele>403.0</ele>
        <time>2020-11-01T11:51:37Z</time>
      </trkpt>
      <trkpt lat="43.261505" lon="-5.1545873">
        <ele>403.0</ele>
        <time>2020-11-01T11:51:39Z</time>
      </trkpt>
      <trkpt lat="43.2615" lon="-5.1545906">
        <ele>403.0</ele>
        <time>2020-11-01T11:51:39Z</time>
      </trkpt>
      <trkpt lat="43.26149" lon="-5.154594">
        <ele>403.0</ele>
        <time>2020-11-01T11:51:40Z</time>
      </trkpt>
      <trkpt lat="43.261482" lon="-5.154598">
        <ele>403.0</ele>
        <time>2020-11-01T11:51:41Z</time>
      </trkpt>
      <trkpt lat="43.26147" lon="-5.154602">
        <ele>403.0</ele>
        <time>2020-11-01T11:51:42Z</time>
      </trkpt>
      <trkpt lat="43.26146" lon="-5.154606">
        <ele>403.0</ele>
        <time>2020-11-01T11:51:43Z</time>
      </trkpt>
      <trkpt lat="43.26145" lon="-5.154609">
        <ele>403.0</ele>
        <time>2020-11-01T11:51:44Z</time>
      </trkpt>
      <trkpt lat="43.261444" lon="-5.154611">
        <ele>403.0</ele>
        <time>2020-11-01T11:51:45Z</time>
      </trkpt>
      <trkpt lat="43.261436" lon="-5.1546125">
        <ele>403.0</ele>
        <time>2020-11-01T11:51:47Z</time>
      </trkpt>
      <trkpt lat="43.261425" lon="-5.154614">
        <ele>403.0</ele>
        <time>2020-11-01T11:51:47Z</time>
      </trkpt>
      <trkpt lat="43.26142" lon="-5.154616">
        <ele>403.0</ele>
        <time>2020-11-01T11:51:48Z</time>
      </trkpt>
      <trkpt lat="43.26141" lon="-5.1546197">
        <ele>403.0</ele>
        <time>2020-11-01T11:51:49Z</time>
      </trkpt>
      <trkpt lat="43.2614" lon="-5.1546216">
        <ele>403.0</ele>
        <time>2020-11-01T11:51:50Z</time>
      </trkpt>
      <trkpt lat="43.26139" lon="-5.1546254">
        <ele>403.0</ele>
        <time>2020-11-01T11:51:51Z</time>
      </trkpt>
      <trkpt lat="43.26138" lon="-5.154632">
        <ele>403.0</ele>
        <time>2020-11-01T11:51:51Z</time>
      </trkpt>
      <trkpt lat="43.261368" lon="-5.154639">
        <ele>402.0</ele>
        <time>2020-11-01T11:51:52Z</time>
      </trkpt>
      <trkpt lat="43.261364" lon="-5.154645">
        <ele>402.0</ele>
        <time>2020-11-01T11:51:53Z</time>
      </trkpt>
      <trkpt lat="43.261353" lon="-5.154652">
        <ele>402.0</ele>
        <time>2020-11-01T11:51:54Z</time>
      </trkpt>
      <trkpt lat="43.26134" lon="-5.1546617">
        <ele>402.0</ele>
        <time>2020-11-01T11:51:55Z</time>
      </trkpt>
      <trkpt lat="43.261333" lon="-5.1546717">
        <ele>402.0</ele>
        <time>2020-11-01T11:51:56Z</time>
      </trkpt>
      <trkpt lat="43.261322" lon="-5.154683">
        <ele>402.0</ele>
        <time>2020-11-01T11:51:57Z</time>
      </trkpt>
      <trkpt lat="43.26131" lon="-5.154695">
        <ele>402.0</ele>
        <time>2020-11-01T11:51:59Z</time>
      </trkpt>
      <trkpt lat="43.261303" lon="-5.1547084">
        <ele>402.0</ele>
        <time>2020-11-01T11:51:59Z</time>
      </trkpt>
      <trkpt lat="43.26129" lon="-5.15472">
        <ele>402.0</ele>
        <time>2020-11-01T11:52:00Z</time>
      </trkpt>
      <trkpt lat="43.261276" lon="-5.1547294">
        <ele>402.0</ele>
        <time>2020-11-01T11:52:01Z</time>
      </trkpt>
      <trkpt lat="43.261265" lon="-5.154735">
        <ele>402.0</ele>
        <time>2020-11-01T11:52:02Z</time>
      </trkpt>
      <trkpt lat="43.261257" lon="-5.1547384">
        <ele>402.0</ele>
        <time>2020-11-01T11:52:03Z</time>
      </trkpt>
      <trkpt lat="43.26123" lon="-5.154747">
        <ele>402.0</ele>
        <time>2020-11-01T11:52:05Z</time>
      </trkpt>
      <trkpt lat="43.261227" lon="-5.154749">
        <ele>402.0</ele>
        <time>2020-11-01T11:52:07Z</time>
      </trkpt>
      <trkpt lat="43.261227" lon="-5.1547527">
        <ele>402.0</ele>
        <time>2020-11-01T11:52:07Z</time>
      </trkpt>
      <trkpt lat="43.26122" lon="-5.154759">
        <ele>402.0</ele>
        <time>2020-11-01T11:52:08Z</time>
      </trkpt>
      <trkpt lat="43.261215" lon="-5.1547647">
        <ele>402.0</ele>
        <time>2020-11-01T11:52:09Z</time>
      </trkpt>
      <trkpt lat="43.26121" lon="-5.1547713">
        <ele>402.0</ele>
        <time>2020-11-01T11:52:10Z</time>
      </trkpt>
      <trkpt lat="43.261204" lon="-5.1547785">
        <ele>402.0</ele>
        <time>2020-11-01T11:52:11Z</time>
      </trkpt>
      <trkpt lat="43.2612" lon="-5.154787">
        <ele>402.0</ele>
        <time>2020-11-01T11:52:12Z</time>
      </trkpt>
      <trkpt lat="43.261196" lon="-5.154797">
        <ele>402.0</ele>
        <time>2020-11-01T11:52:13Z</time>
      </trkpt>
      <trkpt lat="43.261185" lon="-5.1548066">
        <ele>402.0</ele>
        <time>2020-11-01T11:52:15Z</time>
      </trkpt>
      <trkpt lat="43.261173" lon="-5.1548157">
        <ele>402.0</ele>
        <time>2020-11-01T11:52:15Z</time>
      </trkpt>
      <trkpt lat="43.26116" lon="-5.154825">
        <ele>402.0</ele>
        <time>2020-11-01T11:52:16Z</time>
      </trkpt>
      <trkpt lat="43.261154" lon="-5.1548357">
        <ele>402.0</ele>
        <time>2020-11-01T11:52:17Z</time>
      </trkpt>
      <trkpt lat="43.261143" lon="-5.1548448">
        <ele>402.0</ele>
        <time>2020-11-01T11:52:18Z</time>
      </trkpt>
      <trkpt lat="43.261127" lon="-5.1548543">
        <ele>402.0</ele>
        <time>2020-11-01T11:52:19Z</time>
      </trkpt>
      <trkpt lat="43.261116" lon="-5.1548615">
        <ele>402.0</ele>
        <time>2020-11-01T11:52:20Z</time>
      </trkpt>
      <trkpt lat="43.2611" lon="-5.154867">
        <ele>402.0</ele>
        <time>2020-11-01T11:52:21Z</time>
      </trkpt>
      <trkpt lat="43.261093" lon="-5.1548705">
        <ele>402.0</ele>
        <time>2020-11-01T11:52:22Z</time>
      </trkpt>
      <trkpt lat="43.261078" lon="-5.1548734">
        <ele>402.0</ele>
        <time>2020-11-01T11:52:23Z</time>
      </trkpt>
      <trkpt lat="43.261066" lon="-5.1548724">
        <ele>402.0</ele>
        <time>2020-11-01T11:52:24Z</time>
      </trkpt>
      <trkpt lat="43.261055" lon="-5.1548715">
        <ele>402.0</ele>
        <time>2020-11-01T11:52:25Z</time>
      </trkpt>
      <trkpt lat="43.26105" lon="-5.1548715">
        <ele>402.0</ele>
        <time>2020-11-01T11:52:26Z</time>
      </trkpt>
      <trkpt lat="43.26104" lon="-5.154871">
        <ele>402.0</ele>
        <time>2020-11-01T11:52:27Z</time>
      </trkpt>
      <trkpt lat="43.261036" lon="-5.1548705">
        <ele>402.0</ele>
        <time>2020-11-01T11:52:28Z</time>
      </trkpt>
      <trkpt lat="43.261024" lon="-5.154872">
        <ele>402.0</ele>
        <time>2020-11-01T11:52:30Z</time>
      </trkpt>
      <trkpt lat="43.261017" lon="-5.1548767">
        <ele>402.0</ele>
        <time>2020-11-01T11:52:30Z</time>
      </trkpt>
      <trkpt lat="43.26101" lon="-5.1548815">
        <ele>402.0</ele>
        <time>2020-11-01T11:52:31Z</time>
      </trkpt>
      <trkpt lat="43.261" lon="-5.1548853">
        <ele>402.0</ele>
        <time>2020-11-01T11:52:32Z</time>
      </trkpt>
      <trkpt lat="43.26099" lon="-5.154889">
        <ele>402.0</ele>
        <time>2020-11-01T11:52:33Z</time>
      </trkpt>
      <trkpt lat="43.260975" lon="-5.1548934">
        <ele>402.0</ele>
        <time>2020-11-01T11:52:34Z</time>
      </trkpt>
      <trkpt lat="43.260963" lon="-5.1548953">
        <ele>402.0</ele>
        <time>2020-11-01T11:52:35Z</time>
      </trkpt>
      <trkpt lat="43.260952" lon="-5.1548977">
        <ele>403.0</ele>
        <time>2020-11-01T11:52:36Z</time>
      </trkpt>
      <trkpt lat="43.260944" lon="-5.1549015">
        <ele>403.0</ele>
        <time>2020-11-01T11:52:38Z</time>
      </trkpt>
      <trkpt lat="43.260918" lon="-5.154923">
        <ele>403.0</ele>
        <time>2020-11-01T11:52:45Z</time>
      </trkpt>
      <trkpt lat="43.260918" lon="-5.154928">
        <ele>403.0</ele>
        <time>2020-11-01T11:52:48Z</time>
      </trkpt>
      <trkpt lat="43.260918" lon="-5.1549287">
        <ele>403.0</ele>
        <time>2020-11-01T11:52:48Z</time>
      </trkpt>
      <trkpt lat="43.260918" lon="-5.154929">
        <ele>403.0</ele>
        <time>2020-11-01T11:52:49Z</time>
      </trkpt>
      <trkpt lat="43.260914" lon="-5.1549315">
        <ele>403.0</ele>
        <time>2020-11-01T11:52:50Z</time>
      </trkpt>
      <trkpt lat="43.260902" lon="-5.154934">
        <ele>403.0</ele>
        <time>2020-11-01T11:52:51Z</time>
      </trkpt>
      <trkpt lat="43.2609" lon="-5.154936">
        <ele>403.0</ele>
        <time>2020-11-01T11:52:52Z</time>
      </trkpt>
      <trkpt lat="43.260887" lon="-5.154937">
        <ele>403.0</ele>
        <time>2020-11-01T11:52:53Z</time>
      </trkpt>
      <trkpt lat="43.260876" lon="-5.1549387">
        <ele>403.0</ele>
        <time>2020-11-01T11:52:54Z</time>
      </trkpt>
      <trkpt lat="43.26087" lon="-5.1549406">
        <ele>403.0</ele>
        <time>2020-11-01T11:52:55Z</time>
      </trkpt>
      <trkpt lat="43.26086" lon="-5.1549435">
        <ele>403.0</ele>
        <time>2020-11-01T11:52:56Z</time>
      </trkpt>
      <trkpt lat="43.260853" lon="-5.1549463">
        <ele>403.0</ele>
        <time>2020-11-01T11:52:57Z</time>
      </trkpt>
      <trkpt lat="43.260845" lon="-5.1549487">
        <ele>403.0</ele>
        <time>2020-11-01T11:52:58Z</time>
      </trkpt>
      <trkpt lat="43.260838" lon="-5.1549506">
        <ele>403.0</ele>
        <time>2020-11-01T11:52:59Z</time>
      </trkpt>
      <trkpt lat="43.26083" lon="-5.154956">
        <ele>403.0</ele>
        <time>2020-11-01T11:53:00Z</time>
      </trkpt>
      <trkpt lat="43.260815" lon="-5.154962">
        <ele>403.0</ele>
        <time>2020-11-01T11:53:01Z</time>
      </trkpt>
      <trkpt lat="43.2608" lon="-5.1549673">
        <ele>403.0</ele>
        <time>2020-11-01T11:53:02Z</time>
      </trkpt>
      <trkpt lat="43.260788" lon="-5.154971">
        <ele>403.0</ele>
        <time>2020-11-01T11:53:03Z</time>
      </trkpt>
      <trkpt lat="43.260784" lon="-5.154973">
        <ele>403.0</ele>
        <time>2020-11-01T11:53:05Z</time>
      </trkpt>
      <trkpt lat="43.26078" lon="-5.1549754">
        <ele>403.0</ele>
        <time>2020-11-01T11:53:05Z</time>
      </trkpt>
      <trkpt lat="43.260773" lon="-5.154977">
        <ele>403.0</ele>
        <time>2020-11-01T11:53:06Z</time>
      </trkpt>
      <trkpt lat="43.260765" lon="-5.1549807">
        <ele>403.0</ele>
        <time>2020-11-01T11:53:07Z</time>
      </trkpt>
      <trkpt lat="43.260757" lon="-5.1549854">
        <ele>403.0</ele>
        <time>2020-11-01T11:53:08Z</time>
      </trkpt>
      <trkpt lat="43.26075" lon="-5.15499">
        <ele>403.0</ele>
        <time>2020-11-01T11:53:09Z</time>
      </trkpt>
      <trkpt lat="43.260742" lon="-5.1549954">
        <ele>403.0</ele>
        <time>2020-11-01T11:53:10Z</time>
      </trkpt>
      <trkpt lat="43.260735" lon="-5.155001">
        <ele>403.0</ele>
        <time>2020-11-01T11:53:11Z</time>
      </trkpt>
      <trkpt lat="43.260727" lon="-5.155006">
        <ele>403.0</ele>
        <time>2020-11-01T11:53:12Z</time>
      </trkpt>
      <trkpt lat="43.26072" lon="-5.15501">
        <ele>403.0</ele>
        <time>2020-11-01T11:53:13Z</time>
      </trkpt>
      <trkpt lat="43.260708" lon="-5.1550136">
        <ele>403.0</ele>
        <time>2020-11-01T11:53:14Z</time>
      </trkpt>
      <trkpt lat="43.260696" lon="-5.155018">
        <ele>403.0</ele>
        <time>2020-11-01T11:53:15Z</time>
      </trkpt>
      <trkpt lat="43.260693" lon="-5.1550217">
        <ele>403.0</ele>
        <time>2020-11-01T11:53:16Z</time>
      </trkpt>
      <trkpt lat="43.260677" lon="-5.1550264">
        <ele>403.0</ele>
        <time>2020-11-01T11:53:17Z</time>
      </trkpt>
      <trkpt lat="43.260666" lon="-5.1550326">
        <ele>403.0</ele>
        <time>2020-11-01T11:53:18Z</time>
      </trkpt>
      <trkpt lat="43.260662" lon="-5.15504">
        <ele>403.0</ele>
        <time>2020-11-01T11:53:19Z</time>
      </trkpt>
      <trkpt lat="43.26065" lon="-5.155047">
        <ele>403.0</ele>
        <time>2020-11-01T11:53:21Z</time>
      </trkpt>
      <trkpt lat="43.260643" lon="-5.155053">
        <ele>403.0</ele>
        <time>2020-11-01T11:53:21Z</time>
      </trkpt>
      <trkpt lat="43.26063" lon="-5.1550584">
        <ele>403.0</ele>
        <time>2020-11-01T11:53:22Z</time>
      </trkpt>
      <trkpt lat="43.260616" lon="-5.1550617">
        <ele>403.0</ele>
        <time>2020-11-01T11:53:23Z</time>
      </trkpt>
      <trkpt lat="43.2606" lon="-5.1550612">
        <ele>403.0</ele>
        <time>2020-11-01T11:53:24Z</time>
      </trkpt>
      <trkpt lat="43.260593" lon="-5.15506">
        <ele>403.0</ele>
        <time>2020-11-01T11:53:25Z</time>
      </trkpt>
      <trkpt lat="43.260586" lon="-5.1550593">
        <ele>403.0</ele>
        <time>2020-11-01T11:53:26Z</time>
      </trkpt>
      <trkpt lat="43.26058" lon="-5.1550584">
        <ele>403.0</ele>
        <time>2020-11-01T11:53:27Z</time>
      </trkpt>
      <trkpt lat="43.26057" lon="-5.155056">
        <ele>403.0</ele>
        <time>2020-11-01T11:53:28Z</time>
      </trkpt>
      <trkpt lat="43.260563" lon="-5.155052">
        <ele>403.0</ele>
        <time>2020-11-01T11:53:29Z</time>
      </trkpt>
      <trkpt lat="43.26056" lon="-5.155049">
        <ele>403.0</ele>
        <time>2020-11-01T11:53:30Z</time>
      </trkpt>
      <trkpt lat="43.260548" lon="-5.1550446">
        <ele>403.0</ele>
        <time>2020-11-01T11:53:31Z</time>
      </trkpt>
      <trkpt lat="43.26054" lon="-5.1550426">
        <ele>403.0</ele>
        <time>2020-11-01T11:53:32Z</time>
      </trkpt>
      <trkpt lat="43.26053" lon="-5.155042">
        <ele>403.0</ele>
        <time>2020-11-01T11:53:33Z</time>
      </trkpt>
      <trkpt lat="43.260517" lon="-5.1550426">
        <ele>403.0</ele>
        <time>2020-11-01T11:53:34Z</time>
      </trkpt>
      <trkpt lat="43.26051" lon="-5.155043">
        <ele>403.0</ele>
        <time>2020-11-01T11:53:35Z</time>
      </trkpt>
      <trkpt lat="43.260498" lon="-5.155045">
        <ele>403.0</ele>
        <time>2020-11-01T11:53:36Z</time>
      </trkpt>
      <trkpt lat="43.260487" lon="-5.155047">
        <ele>403.0</ele>
        <time>2020-11-01T11:53:37Z</time>
      </trkpt>
      <trkpt lat="43.26047" lon="-5.155049">
        <ele>403.0</ele>
        <time>2020-11-01T11:53:38Z</time>
      </trkpt>
      <trkpt lat="43.260464" lon="-5.155049">
        <ele>403.0</ele>
        <time>2020-11-01T11:53:39Z</time>
      </trkpt>
      <trkpt lat="43.260452" lon="-5.155049">
        <ele>403.0</ele>
        <time>2020-11-01T11:53:40Z</time>
      </trkpt>
      <trkpt lat="43.26044" lon="-5.15505">
        <ele>403.0</ele>
        <time>2020-11-01T11:53:41Z</time>
      </trkpt>
      <trkpt lat="43.260433" lon="-5.1550517">
        <ele>403.0</ele>
        <time>2020-11-01T11:53:42Z</time>
      </trkpt>
      <trkpt lat="43.26042" lon="-5.1550536">
        <ele>403.0</ele>
        <time>2020-11-01T11:53:44Z</time>
      </trkpt>
      <trkpt lat="43.26041" lon="-5.155055">
        <ele>403.0</ele>
        <time>2020-11-01T11:53:44Z</time>
      </trkpt>
      <trkpt lat="43.2604" lon="-5.155055">
        <ele>403.0</ele>
        <time>2020-11-01T11:53:45Z</time>
      </trkpt>
      <trkpt lat="43.26039" lon="-5.1550546">
        <ele>404.0</ele>
        <time>2020-11-01T11:53:46Z</time>
      </trkpt>
      <trkpt lat="43.260384" lon="-5.1550546">
        <ele>404.0</ele>
        <time>2020-11-01T11:53:47Z</time>
      </trkpt>
      <trkpt lat="43.260376" lon="-5.155054">
        <ele>404.0</ele>
        <time>2020-11-01T11:53:48Z</time>
      </trkpt>
      <trkpt lat="43.260365" lon="-5.1550546">
        <ele>404.0</ele>
        <time>2020-11-01T11:53:49Z</time>
      </trkpt>
      <trkpt lat="43.26036" lon="-5.1550536">
        <ele>404.0</ele>
        <time>2020-11-01T11:53:50Z</time>
      </trkpt>
      <trkpt lat="43.260353" lon="-5.155053">
        <ele>404.0</ele>
        <time>2020-11-01T11:53:51Z</time>
      </trkpt>
      <trkpt lat="43.260345" lon="-5.1550503">
        <ele>404.0</ele>
        <time>2020-11-01T11:53:52Z</time>
      </trkpt>
      <trkpt lat="43.260338" lon="-5.1550446">
        <ele>404.0</ele>
        <time>2020-11-01T11:53:53Z</time>
      </trkpt>
      <trkpt lat="43.26033" lon="-5.15504">
        <ele>404.0</ele>
        <time>2020-11-01T11:53:54Z</time>
      </trkpt>
      <trkpt lat="43.260323" lon="-5.1550364">
        <ele>404.0</ele>
        <time>2020-11-01T11:53:55Z</time>
      </trkpt>
      <trkpt lat="43.260315" lon="-5.155035">
        <ele>404.0</ele>
        <time>2020-11-01T11:53:56Z</time>
      </trkpt>
      <trkpt lat="43.260303" lon="-5.155036">
        <ele>404.0</ele>
        <time>2020-11-01T11:53:57Z</time>
      </trkpt>
      <trkpt lat="43.260292" lon="-5.155038">
        <ele>404.0</ele>
        <time>2020-11-01T11:53:58Z</time>
      </trkpt>
      <trkpt lat="43.260284" lon="-5.15504">
        <ele>404.0</ele>
        <time>2020-11-01T11:53:59Z</time>
      </trkpt>
      <trkpt lat="43.260273" lon="-5.1550417">
        <ele>404.0</ele>
        <time>2020-11-01T11:54:00Z</time>
      </trkpt>
      <trkpt lat="43.26026" lon="-5.155043">
        <ele>404.0</ele>
        <time>2020-11-01T11:54:01Z</time>
      </trkpt>
      <trkpt lat="43.260254" lon="-5.155045">
        <ele>404.0</ele>
        <time>2020-11-01T11:54:02Z</time>
      </trkpt>
      <trkpt lat="43.260242" lon="-5.155047">
        <ele>404.0</ele>
        <time>2020-11-01T11:54:03Z</time>
      </trkpt>
      <trkpt lat="43.26024" lon="-5.1550484">
        <ele>404.0</ele>
        <time>2020-11-01T11:54:05Z</time>
      </trkpt>
      <trkpt lat="43.260227" lon="-5.1550503">
        <ele>404.0</ele>
        <time>2020-11-01T11:54:05Z</time>
      </trkpt>
      <trkpt lat="43.260216" lon="-5.1550546">
        <ele>404.0</ele>
        <time>2020-11-01T11:54:06Z</time>
      </trkpt>
      <trkpt lat="43.260204" lon="-5.1550603">
        <ele>404.0</ele>
        <time>2020-11-01T11:54:07Z</time>
      </trkpt>
      <trkpt lat="43.26019" lon="-5.1550646">
        <ele>404.0</ele>
        <time>2020-11-01T11:54:08Z</time>
      </trkpt>
      <trkpt lat="43.26018" lon="-5.155067">
        <ele>404.0</ele>
        <time>2020-11-01T11:54:09Z</time>
      </trkpt>
      <trkpt lat="43.26017" lon="-5.1550694">
        <ele>404.0</ele>
        <time>2020-11-01T11:54:10Z</time>
      </trkpt>
      <trkpt lat="43.26016" lon="-5.155072">
        <ele>404.0</ele>
        <time>2020-11-01T11:54:11Z</time>
      </trkpt>
      <trkpt lat="43.26015" lon="-5.155076">
        <ele>404.0</ele>
        <time>2020-11-01T11:54:12Z</time>
      </trkpt>
      <trkpt lat="43.26014" lon="-5.155081">
        <ele>404.0</ele>
        <time>2020-11-01T11:54:13Z</time>
      </trkpt>
      <trkpt lat="43.260128" lon="-5.155086">
        <ele>404.0</ele>
        <time>2020-11-01T11:54:14Z</time>
      </trkpt>
      <trkpt lat="43.26012" lon="-5.15509">
        <ele>404.0</ele>
        <time>2020-11-01T11:54:15Z</time>
      </trkpt>
      <trkpt lat="43.260113" lon="-5.1550922">
        <ele>404.0</ele>
        <time>2020-11-01T11:54:16Z</time>
      </trkpt>
      <trkpt lat="43.260105" lon="-5.1550937">
        <ele>404.0</ele>
        <time>2020-11-01T11:54:17Z</time>
      </trkpt>
      <trkpt lat="43.260094" lon="-5.1550956">
        <ele>404.0</ele>
        <time>2020-11-01T11:54:18Z</time>
      </trkpt>
      <trkpt lat="43.26009" lon="-5.1550975">
        <ele>404.0</ele>
        <time>2020-11-01T11:54:20Z</time>
      </trkpt>
      <trkpt lat="43.26008" lon="-5.1551">
        <ele>404.0</ele>
        <time>2020-11-01T11:54:20Z</time>
      </trkpt>
      <trkpt lat="43.260067" lon="-5.155104">
        <ele>404.0</ele>
        <time>2020-11-01T11:54:21Z</time>
      </trkpt>
      <trkpt lat="43.26006" lon="-5.1551104">
        <ele>404.0</ele>
        <time>2020-11-01T11:54:22Z</time>
      </trkpt>
      <trkpt lat="43.26005" lon="-5.155115">
        <ele>404.0</ele>
        <time>2020-11-01T11:54:23Z</time>
      </trkpt>
      <trkpt lat="43.260044" lon="-5.155119">
        <ele>404.0</ele>
        <time>2020-11-01T11:54:24Z</time>
      </trkpt>
      <trkpt lat="43.260033" lon="-5.1551223">
        <ele>404.0</ele>
        <time>2020-11-01T11:54:25Z</time>
      </trkpt>
      <trkpt lat="43.26002" lon="-5.1551256">
        <ele>404.0</ele>
        <time>2020-11-01T11:54:26Z</time>
      </trkpt>
      <trkpt lat="43.26001" lon="-5.1551304">
        <ele>404.0</ele>
        <time>2020-11-01T11:54:28Z</time>
      </trkpt>
      <trkpt lat="43.260002" lon="-5.155136">
        <ele>404.0</ele>
        <time>2020-11-01T11:54:28Z</time>
      </trkpt>
      <trkpt lat="43.259987" lon="-5.1551423">
        <ele>404.0</ele>
        <time>2020-11-01T11:54:29Z</time>
      </trkpt>
      <trkpt lat="43.259975" lon="-5.155147">
        <ele>404.0</ele>
        <time>2020-11-01T11:54:30Z</time>
      </trkpt>
      <trkpt lat="43.259964" lon="-5.155152">
        <ele>404.0</ele>
        <time>2020-11-01T11:54:31Z</time>
      </trkpt>
      <trkpt lat="43.25995" lon="-5.1551547">
        <ele>404.0</ele>
        <time>2020-11-01T11:54:32Z</time>
      </trkpt>
      <trkpt lat="43.25994" lon="-5.1551576">
        <ele>404.0</ele>
        <time>2020-11-01T11:54:33Z</time>
      </trkpt>
      <trkpt lat="43.259926" lon="-5.155161">
        <ele>404.0</ele>
        <time>2020-11-01T11:54:34Z</time>
      </trkpt>
      <trkpt lat="43.259914" lon="-5.1551657">
        <ele>404.0</ele>
        <time>2020-11-01T11:54:36Z</time>
      </trkpt>
      <trkpt lat="43.259903" lon="-5.1551695">
        <ele>404.0</ele>
        <time>2020-11-01T11:54:36Z</time>
      </trkpt>
      <trkpt lat="43.259895" lon="-5.1551743">
        <ele>404.0</ele>
        <time>2020-11-01T11:54:37Z</time>
      </trkpt>
      <trkpt lat="43.259872" lon="-5.1551743">
        <ele>404.0</ele>
        <time>2020-11-01T11:54:38Z</time>
      </trkpt>
      <trkpt lat="43.259857" lon="-5.1551714">
        <ele>404.0</ele>
        <time>2020-11-01T11:54:39Z</time>
      </trkpt>
      <trkpt lat="43.259842" lon="-5.1551685">
        <ele>404.0</ele>
        <time>2020-11-01T11:54:40Z</time>
      </trkpt>
      <trkpt lat="43.259827" lon="-5.1551704">
        <ele>404.0</ele>
        <time>2020-11-01T11:54:41Z</time>
      </trkpt>
      <trkpt lat="43.25981" lon="-5.1551747">
        <ele>404.0</ele>
        <time>2020-11-01T11:54:42Z</time>
      </trkpt>
      <trkpt lat="43.2598" lon="-5.155178">
        <ele>404.0</ele>
        <time>2020-11-01T11:54:43Z</time>
      </trkpt>
      <trkpt lat="43.259785" lon="-5.155184">
        <ele>404.0</ele>
        <time>2020-11-01T11:54:44Z</time>
      </trkpt>
      <trkpt lat="43.259777" lon="-5.15519">
        <ele>404.0</ele>
        <time>2020-11-01T11:54:45Z</time>
      </trkpt>
      <trkpt lat="43.25976" lon="-5.155195">
        <ele>404.0</ele>
        <time>2020-11-01T11:54:46Z</time>
      </trkpt>
      <trkpt lat="43.25975" lon="-5.155199">
        <ele>404.0</ele>
        <time>2020-11-01T11:54:47Z</time>
      </trkpt>
      <trkpt lat="43.259747" lon="-5.1552005">
        <ele>404.0</ele>
        <time>2020-11-01T11:54:48Z</time>
      </trkpt>
      <trkpt lat="43.259724" lon="-5.1551995">
        <ele>404.0</ele>
        <time>2020-11-01T11:54:50Z</time>
      </trkpt>
      <trkpt lat="43.259724" lon="-5.1551995">
        <ele>404.0</ele>
        <time>2020-11-01T11:54:52Z</time>
      </trkpt>
      <trkpt lat="43.259724" lon="-5.1551995">
        <ele>404.0</ele>
        <time>2020-11-01T11:54:53Z</time>
      </trkpt>
      <trkpt lat="43.259724" lon="-5.155199">
        <ele>404.0</ele>
        <time>2020-11-01T11:54:54Z</time>
      </trkpt>
      <trkpt lat="43.259724" lon="-5.1551967">
        <ele>404.0</ele>
        <time>2020-11-01T11:54:55Z</time>
      </trkpt>
      <trkpt lat="43.259724" lon="-5.155194">
        <ele>404.0</ele>
        <time>2020-11-01T11:54:57Z</time>
      </trkpt>
      <trkpt lat="43.25972" lon="-5.155189">
        <ele>404.0</ele>
        <time>2020-11-01T11:54:57Z</time>
      </trkpt>
      <trkpt lat="43.259716" lon="-5.155182">
        <ele>404.0</ele>
        <time>2020-11-01T11:54:58Z</time>
      </trkpt>
      <trkpt lat="43.25971" lon="-5.1551747">
        <ele>404.0</ele>
        <time>2020-11-01T11:54:59Z</time>
      </trkpt>
      <trkpt lat="43.259705" lon="-5.1551666">
        <ele>404.0</ele>
        <time>2020-11-01T11:55:00Z</time>
      </trkpt>
      <trkpt lat="43.259693" lon="-5.1551585">
        <ele>404.0</ele>
        <time>2020-11-01T11:55:01Z</time>
      </trkpt>
      <trkpt lat="43.259686" lon="-5.155153">
        <ele>404.0</ele>
        <time>2020-11-01T11:55:02Z</time>
      </trkpt>
      <trkpt lat="43.259678" lon="-5.155149">
        <ele>404.0</ele>
        <time>2020-11-01T11:55:03Z</time>
      </trkpt>
      <trkpt lat="43.259674" lon="-5.155144">
        <ele>404.0</ele>
        <time>2020-11-01T11:55:04Z</time>
      </trkpt>
      <trkpt lat="43.25967" lon="-5.1551394">
        <ele>404.0</ele>
        <time>2020-11-01T11:55:06Z</time>
      </trkpt>
      <trkpt lat="43.259663" lon="-5.1551356">
        <ele>404.0</ele>
        <time>2020-11-01T11:55:06Z</time>
      </trkpt>
      <trkpt lat="43.25966" lon="-5.1551304">
        <ele>404.0</ele>
        <time>2020-11-01T11:55:07Z</time>
      </trkpt>
      <trkpt lat="43.259655" lon="-5.1551256">
        <ele>404.0</ele>
        <time>2020-11-01T11:55:08Z</time>
      </trkpt>
      <trkpt lat="43.259647" lon="-5.15512">
        <ele>404.0</ele>
        <time>2020-11-01T11:55:09Z</time>
      </trkpt>
      <trkpt lat="43.259636" lon="-5.155113">
        <ele>404.0</ele>
        <time>2020-11-01T11:55:10Z</time>
      </trkpt>
      <trkpt lat="43.259632" lon="-5.1551065">
        <ele>404.0</ele>
        <time>2020-11-01T11:55:11Z</time>
      </trkpt>
      <trkpt lat="43.25962" lon="-5.1551013">
        <ele>404.0</ele>
        <time>2020-11-01T11:55:12Z</time>
      </trkpt>
      <trkpt lat="43.259613" lon="-5.1550965">
        <ele>404.0</ele>
        <time>2020-11-01T11:55:14Z</time>
      </trkpt>
      <trkpt lat="43.2596" lon="-5.1550937">
        <ele>404.0</ele>
        <time>2020-11-01T11:55:14Z</time>
      </trkpt>
      <trkpt lat="43.25959" lon="-5.1550913">
        <ele>404.0</ele>
        <time>2020-11-01T11:55:15Z</time>
      </trkpt>
      <trkpt lat="43.259583" lon="-5.15509">
        <ele>404.0</ele>
        <time>2020-11-01T11:55:16Z</time>
      </trkpt>
      <trkpt lat="43.25957" lon="-5.1550903">
        <ele>404.0</ele>
        <time>2020-11-01T11:55:17Z</time>
      </trkpt>
      <trkpt lat="43.259567" lon="-5.155091">
        <ele>404.0</ele>
        <time>2020-11-01T11:55:18Z</time>
      </trkpt>
      <trkpt lat="43.259556" lon="-5.1550937">
        <ele>404.0</ele>
        <time>2020-11-01T11:55:19Z</time>
      </trkpt>
      <trkpt lat="43.259544" lon="-5.1550946">
        <ele>404.0</ele>
        <time>2020-11-01T11:55:20Z</time>
      </trkpt>
      <trkpt lat="43.25954" lon="-5.155095">
        <ele>404.0</ele>
        <time>2020-11-01T11:55:22Z</time>
      </trkpt>
      <trkpt lat="43.259537" lon="-5.155093">
        <ele>404.0</ele>
        <time>2020-11-01T11:55:22Z</time>
      </trkpt>
      <trkpt lat="43.259525" lon="-5.1550894">
        <ele>404.0</ele>
        <time>2020-11-01T11:55:23Z</time>
      </trkpt>
      <trkpt lat="43.25952" lon="-5.1550837">
        <ele>404.0</ele>
        <time>2020-11-01T11:55:24Z</time>
      </trkpt>
      <trkpt lat="43.25951" lon="-5.155077">
        <ele>404.0</ele>
        <time>2020-11-01T11:55:25Z</time>
      </trkpt>
      <trkpt lat="43.2595" lon="-5.155071">
        <ele>404.0</ele>
        <time>2020-11-01T11:55:26Z</time>
      </trkpt>
      <trkpt lat="43.25949" lon="-5.155068">
        <ele>404.0</ele>
        <time>2020-11-01T11:55:27Z</time>
      </trkpt>
      <trkpt lat="43.25948" lon="-5.1550684">
        <ele>404.0</ele>
        <time>2020-11-01T11:55:28Z</time>
      </trkpt>
      <trkpt lat="43.259464" lon="-5.155071">
        <ele>404.0</ele>
        <time>2020-11-01T11:55:29Z</time>
      </trkpt>
      <trkpt lat="43.25945" lon="-5.1550756">
        <ele>404.0</ele>
        <time>2020-11-01T11:55:30Z</time>
      </trkpt>
      <trkpt lat="43.259434" lon="-5.15508">
        <ele>404.0</ele>
        <time>2020-11-01T11:55:31Z</time>
      </trkpt>
      <trkpt lat="43.259422" lon="-5.1550846">
        <ele>404.0</ele>
        <time>2020-11-01T11:55:32Z</time>
      </trkpt>
      <trkpt lat="43.259407" lon="-5.1550894">
        <ele>404.0</ele>
        <time>2020-11-01T11:55:33Z</time>
      </trkpt>
      <trkpt lat="43.25939" lon="-5.1550956">
        <ele>405.0</ele>
        <time>2020-11-01T11:55:34Z</time>
      </trkpt>
      <trkpt lat="43.259377" lon="-5.1551003">
        <ele>405.0</ele>
        <time>2020-11-01T11:55:35Z</time>
      </trkpt>
      <trkpt lat="43.25936" lon="-5.1551046">
        <ele>405.0</ele>
        <time>2020-11-01T11:55:37Z</time>
      </trkpt>
      <trkpt lat="43.259346" lon="-5.155106">
        <ele>405.0</ele>
        <time>2020-11-01T11:55:37Z</time>
      </trkpt>
      <trkpt lat="43.25933" lon="-5.155106">
        <ele>405.0</ele>
        <time>2020-11-01T11:55:38Z</time>
      </trkpt>
      <trkpt lat="43.259315" lon="-5.1551046">
        <ele>405.0</ele>
        <time>2020-11-01T11:55:39Z</time>
      </trkpt>
      <trkpt lat="43.259304" lon="-5.1551023">
        <ele>405.0</ele>
        <time>2020-11-01T11:55:40Z</time>
      </trkpt>
      <trkpt lat="43.259296" lon="-5.1551013">
        <ele>405.0</ele>
        <time>2020-11-01T11:55:41Z</time>
      </trkpt>
      <trkpt lat="43.259285" lon="-5.1551003">
        <ele>405.0</ele>
        <time>2020-11-01T11:55:42Z</time>
      </trkpt>
      <trkpt lat="43.259274" lon="-5.1551">
        <ele>405.0</ele>
        <time>2020-11-01T11:55:43Z</time>
      </trkpt>
      <trkpt lat="43.259266" lon="-5.1550965">
        <ele>405.0</ele>
        <time>2020-11-01T11:55:44Z</time>
      </trkpt>
      <trkpt lat="43.259254" lon="-5.1550956">
        <ele>405.0</ele>
        <time>2020-11-01T11:55:45Z</time>
      </trkpt>
      <trkpt lat="43.25924" lon="-5.155098">
        <ele>405.0</ele>
        <time>2020-11-01T11:55:46Z</time>
      </trkpt>
      <trkpt lat="43.259228" lon="-5.155102">
        <ele>405.0</ele>
        <time>2020-11-01T11:55:47Z</time>
      </trkpt>
      <trkpt lat="43.259216" lon="-5.155106">
        <ele>405.0</ele>
        <time>2020-11-01T11:55:48Z</time>
      </trkpt>
      <trkpt lat="43.25921" lon="-5.155111">
        <ele>405.0</ele>
        <time>2020-11-01T11:55:49Z</time>
      </trkpt>
      <trkpt lat="43.259197" lon="-5.1551147">
        <ele>405.0</ele>
        <time>2020-11-01T11:55:50Z</time>
      </trkpt>
      <trkpt lat="43.259186" lon="-5.15512">
        <ele>405.0</ele>
        <time>2020-11-01T11:55:51Z</time>
      </trkpt>
      <trkpt lat="43.25918" lon="-5.155123">
        <ele>405.0</ele>
        <time>2020-11-01T11:55:52Z</time>
      </trkpt>
      <trkpt lat="43.259167" lon="-5.155125">
        <ele>405.0</ele>
        <time>2020-11-01T11:55:53Z</time>
      </trkpt>
      <trkpt lat="43.259163" lon="-5.1551247">
        <ele>405.0</ele>
        <time>2020-11-01T11:55:54Z</time>
      </trkpt>
      <trkpt lat="43.259155" lon="-5.155123">
        <ele>405.0</ele>
        <time>2020-11-01T11:55:55Z</time>
      </trkpt>
      <trkpt lat="43.25915" lon="-5.1551237">
        <ele>405.0</ele>
        <time>2020-11-01T11:55:56Z</time>
      </trkpt>
      <trkpt lat="43.25914" lon="-5.155123">
        <ele>405.0</ele>
        <time>2020-11-01T11:55:58Z</time>
      </trkpt>
      <trkpt lat="43.259132" lon="-5.155121">
        <ele>405.0</ele>
        <time>2020-11-01T11:55:58Z</time>
      </trkpt>
      <trkpt lat="43.25912" lon="-5.155118">
        <ele>405.0</ele>
        <time>2020-11-01T11:55:59Z</time>
      </trkpt>
      <trkpt lat="43.259106" lon="-5.1551127">
        <ele>405.0</ele>
        <time>2020-11-01T11:56:00Z</time>
      </trkpt>
      <trkpt lat="43.259094" lon="-5.155107">
        <ele>405.0</ele>
        <time>2020-11-01T11:56:01Z</time>
      </trkpt>
      <trkpt lat="43.25908" lon="-5.1551027">
        <ele>405.0</ele>
        <time>2020-11-01T11:56:02Z</time>
      </trkpt>
      <trkpt lat="43.259068" lon="-5.1551003">
        <ele>405.0</ele>
        <time>2020-11-01T11:56:03Z</time>
      </trkpt>
      <trkpt lat="43.25906" lon="-5.1550994">
        <ele>405.0</ele>
        <time>2020-11-01T11:56:04Z</time>
      </trkpt>
      <trkpt lat="43.25905" lon="-5.1550994">
        <ele>405.0</ele>
        <time>2020-11-01T11:56:05Z</time>
      </trkpt>
      <trkpt lat="43.259045" lon="-5.1550994">
        <ele>405.0</ele>
        <time>2020-11-01T11:56:06Z</time>
      </trkpt>
      <trkpt lat="43.259033" lon="-5.155099">
        <ele>405.0</ele>
        <time>2020-11-01T11:56:06Z</time>
      </trkpt>
      <trkpt lat="43.25902" lon="-5.155098">
        <ele>405.0</ele>
        <time>2020-11-01T11:56:07Z</time>
      </trkpt>
      <trkpt lat="43.259014" lon="-5.155097">
        <ele>405.0</ele>
        <time>2020-11-01T11:56:08Z</time>
      </trkpt>
      <trkpt lat="43.259003" lon="-5.155095">
        <ele>405.0</ele>
        <time>2020-11-01T11:56:09Z</time>
      </trkpt>
      <trkpt lat="43.258987" lon="-5.1550937">
        <ele>405.0</ele>
        <time>2020-11-01T11:56:10Z</time>
      </trkpt>
      <trkpt lat="43.258976" lon="-5.1550913">
        <ele>405.0</ele>
        <time>2020-11-01T11:56:11Z</time>
      </trkpt>
      <trkpt lat="43.25897" lon="-5.1550894">
        <ele>405.0</ele>
        <time>2020-11-01T11:56:13Z</time>
      </trkpt>
      <trkpt lat="43.25896" lon="-5.1550875">
        <ele>405.0</ele>
        <time>2020-11-01T11:56:13Z</time>
      </trkpt>
      <trkpt lat="43.258953" lon="-5.155084">
        <ele>405.0</ele>
        <time>2020-11-01T11:56:14Z</time>
      </trkpt>
      <trkpt lat="43.25894" lon="-5.15508">
        <ele>405.0</ele>
        <time>2020-11-01T11:56:15Z</time>
      </trkpt>
      <trkpt lat="43.258938" lon="-5.155076">
        <ele>405.0</ele>
        <time>2020-11-01T11:56:16Z</time>
      </trkpt>
      <trkpt lat="43.258926" lon="-5.1550694">
        <ele>406.0</ele>
        <time>2020-11-01T11:56:17Z</time>
      </trkpt>
      <trkpt lat="43.258915" lon="-5.155065">
        <ele>406.0</ele>
        <time>2020-11-01T11:56:18Z</time>
      </trkpt>
      <trkpt lat="43.258907" lon="-5.1550627">
        <ele>406.0</ele>
        <time>2020-11-01T11:56:19Z</time>
      </trkpt>
      <trkpt lat="43.258896" lon="-5.1550627">
        <ele>406.0</ele>
        <time>2020-11-01T11:56:20Z</time>
      </trkpt>
      <trkpt lat="43.258884" lon="-5.155063">
        <ele>406.0</ele>
        <time>2020-11-01T11:56:21Z</time>
      </trkpt>
      <trkpt lat="43.258873" lon="-5.1550636">
        <ele>406.0</ele>
        <time>2020-11-01T11:56:22Z</time>
      </trkpt>
      <trkpt lat="43.258865" lon="-5.155063">
        <ele>406.0</ele>
        <time>2020-11-01T11:56:23Z</time>
      </trkpt>
      <trkpt lat="43.25885" lon="-5.155063">
        <ele>406.0</ele>
        <time>2020-11-01T11:56:24Z</time>
      </trkpt>
      <trkpt lat="43.258835" lon="-5.1550646">
        <ele>406.0</ele>
        <time>2020-11-01T11:56:25Z</time>
      </trkpt>
      <trkpt lat="43.25882" lon="-5.1550684">
        <ele>406.0</ele>
        <time>2020-11-01T11:56:26Z</time>
      </trkpt>
      <trkpt lat="43.25881" lon="-5.1550713">
        <ele>406.0</ele>
        <time>2020-11-01T11:56:27Z</time>
      </trkpt>
      <trkpt lat="43.258793" lon="-5.155072">
        <ele>406.0</ele>
        <time>2020-11-01T11:56:28Z</time>
      </trkpt>
      <trkpt lat="43.25878" lon="-5.155073">
        <ele>406.0</ele>
        <time>2020-11-01T11:56:29Z</time>
      </trkpt>
      <trkpt lat="43.258774" lon="-5.155072">
        <ele>406.0</ele>
        <time>2020-11-01T11:56:30Z</time>
      </trkpt>
      <trkpt lat="43.258766" lon="-5.1550713">
        <ele>406.0</ele>
        <time>2020-11-01T11:56:31Z</time>
      </trkpt>
      <trkpt lat="43.25876" lon="-5.1550684">
        <ele>406.0</ele>
        <time>2020-11-01T11:56:32Z</time>
      </trkpt>
      <trkpt lat="43.258747" lon="-5.155063">
        <ele>406.0</ele>
        <time>2020-11-01T11:56:33Z</time>
      </trkpt>
      <trkpt lat="43.258743" lon="-5.155058">
        <ele>406.0</ele>
        <time>2020-11-01T11:56:34Z</time>
      </trkpt>
      <trkpt lat="43.25873" lon="-5.1550546">
        <ele>406.0</ele>
        <time>2020-11-01T11:56:36Z</time>
      </trkpt>
      <trkpt lat="43.25872" lon="-5.155051">
        <ele>406.0</ele>
        <time>2020-11-01T11:56:36Z</time>
      </trkpt>
      <trkpt lat="43.258713" lon="-5.1550474">
        <ele>406.0</ele>
        <time>2020-11-01T11:56:37Z</time>
      </trkpt>
      <trkpt lat="43.2587" lon="-5.1550465">
        <ele>406.0</ele>
        <time>2020-11-01T11:56:38Z</time>
      </trkpt>
      <trkpt lat="43.258686" lon="-5.1550484">
        <ele>406.0</ele>
        <time>2020-11-01T11:56:39Z</time>
      </trkpt>
      <trkpt lat="43.258675" lon="-5.1550484">
        <ele>406.0</ele>
        <time>2020-11-01T11:56:40Z</time>
      </trkpt>
      <trkpt lat="43.258663" lon="-5.1550465">
        <ele>406.0</ele>
        <time>2020-11-01T11:56:41Z</time>
      </trkpt>
      <trkpt lat="43.25866" lon="-5.155046">
        <ele>406.0</ele>
        <time>2020-11-01T11:56:42Z</time>
      </trkpt>
      <trkpt lat="43.258648" lon="-5.1550446">
        <ele>406.0</ele>
        <time>2020-11-01T11:56:44Z</time>
      </trkpt>
      <trkpt lat="43.258644" lon="-5.1550426">
        <ele>406.0</ele>
        <time>2020-11-01T11:56:44Z</time>
      </trkpt>
      <trkpt lat="43.25864" lon="-5.1550407">
        <ele>406.0</ele>
        <time>2020-11-01T11:56:45Z</time>
      </trkpt>
      <trkpt lat="43.25863" lon="-5.1550403">
        <ele>406.0</ele>
        <time>2020-11-01T11:56:46Z</time>
      </trkpt>
      <trkpt lat="43.258617" lon="-5.15504">
        <ele>406.0</ele>
        <time>2020-11-01T11:56:47Z</time>
      </trkpt>
      <trkpt lat="43.258614" lon="-5.155037">
        <ele>406.0</ele>
        <time>2020-11-01T11:56:48Z</time>
      </trkpt>
      <trkpt lat="43.258602" lon="-5.155035">
        <ele>406.0</ele>
        <time>2020-11-01T11:56:49Z</time>
      </trkpt>
      <trkpt lat="43.2586" lon="-5.155033">
        <ele>406.0</ele>
        <time>2020-11-01T11:56:50Z</time>
      </trkpt>
      <trkpt lat="43.258587" lon="-5.1550303">
        <ele>406.0</ele>
        <time>2020-11-01T11:56:51Z</time>
      </trkpt>
      <trkpt lat="43.258583" lon="-5.155027">
        <ele>406.0</ele>
        <time>2020-11-01T11:56:52Z</time>
      </trkpt>
      <trkpt lat="43.25857" lon="-5.1550217">
        <ele>406.0</ele>
        <time>2020-11-01T11:56:53Z</time>
      </trkpt>
      <trkpt lat="43.258568" lon="-5.1550155">
        <ele>406.0</ele>
        <time>2020-11-01T11:56:54Z</time>
      </trkpt>
      <trkpt lat="43.258556" lon="-5.1550074">
        <ele>406.0</ele>
        <time>2020-11-01T11:56:55Z</time>
      </trkpt>
      <trkpt lat="43.258553" lon="-5.1549983">
        <ele>406.0</ele>
        <time>2020-11-01T11:56:57Z</time>
      </trkpt>
      <trkpt lat="43.25854" lon="-5.154988">
        <ele>406.0</ele>
        <time>2020-11-01T11:56:57Z</time>
      </trkpt>
      <trkpt lat="43.258537" lon="-5.1549754">
        <ele>406.0</ele>
        <time>2020-11-01T11:56:58Z</time>
      </trkpt>
      <trkpt lat="43.258522" lon="-5.154965">
        <ele>406.0</ele>
        <time>2020-11-01T11:56:59Z</time>
      </trkpt>
      <trkpt lat="43.25851" lon="-5.1549573">
        <ele>406.0</ele>
        <time>2020-11-01T11:57:00Z</time>
      </trkpt>
      <trkpt lat="43.258495" lon="-5.154948">
        <ele>406.0</ele>
        <time>2020-11-01T11:57:01Z</time>
      </trkpt>
      <trkpt lat="43.258484" lon="-5.1549406">
        <ele>406.0</ele>
        <time>2020-11-01T11:57:02Z</time>
      </trkpt>
      <trkpt lat="43.258476" lon="-5.1549335">
        <ele>406.0</ele>
        <time>2020-11-01T11:57:03Z</time>
      </trkpt>
      <trkpt lat="43.25846" lon="-5.154928">
        <ele>406.0</ele>
        <time>2020-11-01T11:57:05Z</time>
      </trkpt>
      <trkpt lat="43.25845" lon="-5.154923">
        <ele>406.0</ele>
        <time>2020-11-01T11:57:05Z</time>
      </trkpt>
      <trkpt lat="43.25844" lon="-5.154916">
        <ele>406.0</ele>
        <time>2020-11-01T11:57:06Z</time>
      </trkpt>
      <trkpt lat="43.258434" lon="-5.1549087">
        <ele>406.0</ele>
        <time>2020-11-01T11:57:07Z</time>
      </trkpt>
      <trkpt lat="43.258423" lon="-5.154901">
        <ele>406.0</ele>
        <time>2020-11-01T11:57:08Z</time>
      </trkpt>
      <trkpt lat="43.258423" lon="-5.154893">
        <ele>406.0</ele>
        <time>2020-11-01T11:57:09Z</time>
      </trkpt>
      <trkpt lat="43.25842" lon="-5.1548867">
        <ele>406.0</ele>
        <time>2020-11-01T11:57:10Z</time>
      </trkpt>
      <trkpt lat="43.25842" lon="-5.1548815">
        <ele>407.0</ele>
        <time>2020-11-01T11:57:11Z</time>
      </trkpt>
      <trkpt lat="43.25842" lon="-5.154875">
        <ele>407.0</ele>
        <time>2020-11-01T11:57:13Z</time>
      </trkpt>
      <trkpt lat="43.25843" lon="-5.154858">
        <ele>407.0</ele>
        <time>2020-11-01T11:57:14Z</time>
      </trkpt>
      <trkpt lat="43.258423" lon="-5.154856">
        <ele>407.0</ele>
        <time>2020-11-01T11:57:15Z</time>
      </trkpt>
      <trkpt lat="43.258423" lon="-5.1548533">
        <ele>407.0</ele>
        <time>2020-11-01T11:57:16Z</time>
      </trkpt>
      <trkpt lat="43.25842" lon="-5.1548505">
        <ele>407.0</ele>
        <time>2020-11-01T11:57:17Z</time>
      </trkpt>
      <trkpt lat="43.258408" lon="-5.1548476">
        <ele>407.0</ele>
        <time>2020-11-01T11:57:18Z</time>
      </trkpt>
      <trkpt lat="43.258404" lon="-5.154845">
        <ele>407.0</ele>
        <time>2020-11-01T11:57:19Z</time>
      </trkpt>
      <trkpt lat="43.2584" lon="-5.1548424">
        <ele>407.0</ele>
        <time>2020-11-01T11:57:20Z</time>
      </trkpt>
      <trkpt lat="43.258392" lon="-5.1548386">
        <ele>407.0</ele>
        <time>2020-11-01T11:57:22Z</time>
      </trkpt>
      <trkpt lat="43.258385" lon="-5.154834">
        <ele>407.0</ele>
        <time>2020-11-01T11:57:22Z</time>
      </trkpt>
      <trkpt lat="43.258377" lon="-5.154829">
        <ele>407.0</ele>
        <time>2020-11-01T11:57:23Z</time>
      </trkpt>
      <trkpt lat="43.25837" lon="-5.154824">
        <ele>407.0</ele>
        <time>2020-11-01T11:57:24Z</time>
      </trkpt>
      <trkpt lat="43.258358" lon="-5.154819">
        <ele>407.0</ele>
        <time>2020-11-01T11:57:25Z</time>
      </trkpt>
      <trkpt lat="43.258347" lon="-5.154815">
        <ele>407.0</ele>
        <time>2020-11-01T11:57:26Z</time>
      </trkpt>
      <trkpt lat="43.25834" lon="-5.1548123">
        <ele>407.0</ele>
        <time>2020-11-01T11:57:27Z</time>
      </trkpt>
      <trkpt lat="43.258327" lon="-5.154807">
        <ele>407.0</ele>
        <time>2020-11-01T11:57:28Z</time>
      </trkpt>
      <trkpt lat="43.258324" lon="-5.1548014">
        <ele>407.0</ele>
        <time>2020-11-01T11:57:29Z</time>
      </trkpt>
      <trkpt lat="43.258312" lon="-5.1547956">
        <ele>407.0</ele>
        <time>2020-11-01T11:57:30Z</time>
      </trkpt>
      <trkpt lat="43.25831" lon="-5.154791">
        <ele>407.0</ele>
        <time>2020-11-01T11:57:31Z</time>
      </trkpt>
      <trkpt lat="43.258297" lon="-5.154786">
        <ele>407.0</ele>
        <time>2020-11-01T11:57:32Z</time>
      </trkpt>
      <trkpt lat="43.258286" lon="-5.154781">
        <ele>407.0</ele>
        <time>2020-11-01T11:57:33Z</time>
      </trkpt>
      <trkpt lat="43.25828" lon="-5.154776">
        <ele>407.0</ele>
        <time>2020-11-01T11:57:34Z</time>
      </trkpt>
      <trkpt lat="43.25827" lon="-5.154773">
        <ele>407.0</ele>
        <time>2020-11-01T11:57:35Z</time>
      </trkpt>
      <trkpt lat="43.25826" lon="-5.1547704">
        <ele>407.0</ele>
        <time>2020-11-01T11:57:37Z</time>
      </trkpt>
      <trkpt lat="43.258255" lon="-5.1547685">
        <ele>407.0</ele>
        <time>2020-11-01T11:57:37Z</time>
      </trkpt>
      <trkpt lat="43.258244" lon="-5.154767">
        <ele>407.0</ele>
        <time>2020-11-01T11:57:38Z</time>
      </trkpt>
      <trkpt lat="43.258236" lon="-5.154769">
        <ele>407.0</ele>
        <time>2020-11-01T11:57:39Z</time>
      </trkpt>
      <trkpt lat="43.258224" lon="-5.1547713">
        <ele>407.0</ele>
        <time>2020-11-01T11:57:40Z</time>
      </trkpt>
      <trkpt lat="43.258213" lon="-5.1547713">
        <ele>407.0</ele>
        <time>2020-11-01T11:57:41Z</time>
      </trkpt>
      <trkpt lat="43.25821" lon="-5.154772">
        <ele>407.0</ele>
        <time>2020-11-01T11:57:42Z</time>
      </trkpt>
      <trkpt lat="43.258198" lon="-5.154771">
        <ele>407.0</ele>
        <time>2020-11-01T11:57:43Z</time>
      </trkpt>
      <trkpt lat="43.25819" lon="-5.1547685">
        <ele>407.0</ele>
        <time>2020-11-01T11:57:44Z</time>
      </trkpt>
      <trkpt lat="43.25818" lon="-5.1547656">
        <ele>407.0</ele>
        <time>2020-11-01T11:57:45Z</time>
      </trkpt>
      <trkpt lat="43.258167" lon="-5.154762">
        <ele>407.0</ele>
        <time>2020-11-01T11:57:46Z</time>
      </trkpt>
      <trkpt lat="43.258152" lon="-5.154759">
        <ele>407.0</ele>
        <time>2020-11-01T11:57:47Z</time>
      </trkpt>
      <trkpt lat="43.258144" lon="-5.154761">
        <ele>407.0</ele>
        <time>2020-11-01T11:57:48Z</time>
      </trkpt>
      <trkpt lat="43.25813" lon="-5.1547637">
        <ele>407.0</ele>
        <time>2020-11-01T11:57:49Z</time>
      </trkpt>
      <trkpt lat="43.258114" lon="-5.1547637">
        <ele>407.0</ele>
        <time>2020-11-01T11:57:51Z</time>
      </trkpt>
      <trkpt lat="43.25809" lon="-5.15476">
        <ele>407.0</ele>
        <time>2020-11-01T11:57:51Z</time>
      </trkpt>
      <trkpt lat="43.258076" lon="-5.154753">
        <ele>407.0</ele>
        <time>2020-11-01T11:57:52Z</time>
      </trkpt>
      <trkpt lat="43.25806" lon="-5.154744">
        <ele>407.0</ele>
        <time>2020-11-01T11:57:53Z</time>
      </trkpt>
      <trkpt lat="43.258045" lon="-5.1547303">
        <ele>407.0</ele>
        <time>2020-11-01T11:57:54Z</time>
      </trkpt>
      <trkpt lat="43.25803" lon="-5.1547165">
        <ele>407.0</ele>
        <time>2020-11-01T11:57:55Z</time>
      </trkpt>
      <trkpt lat="43.25802" lon="-5.154703">
        <ele>407.0</ele>
        <time>2020-11-01T11:57:56Z</time>
      </trkpt>
      <trkpt lat="43.25801" lon="-5.15469">
        <ele>407.0</ele>
        <time>2020-11-01T11:57:57Z</time>
      </trkpt>
      <trkpt lat="43.258003" lon="-5.1546783">
        <ele>407.0</ele>
        <time>2020-11-01T11:57:58Z</time>
      </trkpt>
      <trkpt lat="43.257996" lon="-5.154666">
        <ele>407.0</ele>
        <time>2020-11-01T11:57:59Z</time>
      </trkpt>
      <trkpt lat="43.257988" lon="-5.1546545">
        <ele>407.0</ele>
        <time>2020-11-01T11:58:00Z</time>
      </trkpt>
      <trkpt lat="43.25798" lon="-5.154643">
        <ele>407.0</ele>
        <time>2020-11-01T11:58:01Z</time>
      </trkpt>
      <trkpt lat="43.257973" lon="-5.154631">
        <ele>407.0</ele>
        <time>2020-11-01T11:58:02Z</time>
      </trkpt>
      <trkpt lat="43.25797" lon="-5.15462">
        <ele>407.0</ele>
        <time>2020-11-01T11:58:03Z</time>
      </trkpt>
      <trkpt lat="43.25797" lon="-5.15461">
        <ele>407.0</ele>
        <time>2020-11-01T11:58:04Z</time>
      </trkpt>
      <trkpt lat="43.25797" lon="-5.1545973">
        <ele>407.0</ele>
        <time>2020-11-01T11:58:06Z</time>
      </trkpt>
      <trkpt lat="43.25797" lon="-5.154584">
        <ele>407.0</ele>
        <time>2020-11-01T11:58:06Z</time>
      </trkpt>
      <trkpt lat="43.25797" lon="-5.154569">
        <ele>407.0</ele>
        <time>2020-11-01T11:58:07Z</time>
      </trkpt>
      <trkpt lat="43.25797" lon="-5.154555">
        <ele>408.0</ele>
        <time>2020-11-01T11:58:08Z</time>
      </trkpt>
      <trkpt lat="43.25797" lon="-5.154541">
        <ele>408.0</ele>
        <time>2020-11-01T11:58:09Z</time>
      </trkpt>
      <trkpt lat="43.257965" lon="-5.1545305">
        <ele>408.0</ele>
        <time>2020-11-01T11:58:10Z</time>
      </trkpt>
      <trkpt lat="43.257965" lon="-5.1545215">
        <ele>408.0</ele>
        <time>2020-11-01T11:58:11Z</time>
      </trkpt>
      <trkpt lat="43.257957" lon="-5.154512">
        <ele>408.0</ele>
        <time>2020-11-01T11:58:12Z</time>
      </trkpt>
      <trkpt lat="43.257954" lon="-5.154501">
        <ele>408.0</ele>
        <time>2020-11-01T11:58:13Z</time>
      </trkpt>
      <trkpt lat="43.257954" lon="-5.154486">
        <ele>408.0</ele>
        <time>2020-11-01T11:58:14Z</time>
      </trkpt>
      <trkpt lat="43.257954" lon="-5.1544695">
        <ele>408.0</ele>
        <time>2020-11-01T11:58:15Z</time>
      </trkpt>
      <trkpt lat="43.257954" lon="-5.1544533">
        <ele>408.0</ele>
        <time>2020-11-01T11:58:16Z</time>
      </trkpt>
      <trkpt lat="43.257954" lon="-5.154439">
        <ele>408.0</ele>
        <time>2020-11-01T11:58:17Z</time>
      </trkpt>
      <trkpt lat="43.25795" lon="-5.154426">
        <ele>408.0</ele>
        <time>2020-11-01T11:58:18Z</time>
      </trkpt>
      <trkpt lat="43.25795" lon="-5.1544166">
        <ele>408.0</ele>
        <time>2020-11-01T11:58:19Z</time>
      </trkpt>
      <trkpt lat="43.257942" lon="-5.154409">
        <ele>408.0</ele>
        <time>2020-11-01T11:58:21Z</time>
      </trkpt>
      <trkpt lat="43.257935" lon="-5.1544013">
        <ele>408.0</ele>
        <time>2020-11-01T11:58:21Z</time>
      </trkpt>
      <trkpt lat="43.257927" lon="-5.154393">
        <ele>408.0</ele>
        <time>2020-11-01T11:58:22Z</time>
      </trkpt>
      <trkpt lat="43.257923" lon="-5.154383">
        <ele>408.0</ele>
        <time>2020-11-01T11:58:23Z</time>
      </trkpt>
      <trkpt lat="43.257923" lon="-5.1543717">
        <ele>408.0</ele>
        <time>2020-11-01T11:58:24Z</time>
      </trkpt>
      <trkpt lat="43.25792" lon="-5.154358">
        <ele>408.0</ele>
        <time>2020-11-01T11:58:25Z</time>
      </trkpt>
      <trkpt lat="43.25792" lon="-5.1543484">
        <ele>408.0</ele>
        <time>2020-11-01T11:58:26Z</time>
      </trkpt>
      <trkpt lat="43.25791" lon="-5.1543393">
        <ele>408.0</ele>
        <time>2020-11-01T11:58:27Z</time>
      </trkpt>
      <trkpt lat="43.25791" lon="-5.1543307">
        <ele>408.0</ele>
        <time>2020-11-01T11:58:28Z</time>
      </trkpt>
      <trkpt lat="43.257908" lon="-5.154321">
        <ele>408.0</ele>
        <time>2020-11-01T11:58:29Z</time>
      </trkpt>
      <trkpt lat="43.2579" lon="-5.154313">
        <ele>408.0</ele>
        <time>2020-11-01T11:58:30Z</time>
      </trkpt>
      <trkpt lat="43.2579" lon="-5.154305">
        <ele>408.0</ele>
        <time>2020-11-01T11:58:31Z</time>
      </trkpt>
      <trkpt lat="43.257896" lon="-5.154297">
        <ele>408.0</ele>
        <time>2020-11-01T11:58:32Z</time>
      </trkpt>
      <trkpt lat="43.257893" lon="-5.1542892">
        <ele>408.0</ele>
        <time>2020-11-01T11:58:33Z</time>
      </trkpt>
      <trkpt lat="43.257885" lon="-5.154283">
        <ele>408.0</ele>
        <time>2020-11-01T11:58:34Z</time>
      </trkpt>
      <trkpt lat="43.25788" lon="-5.1542764">
        <ele>408.0</ele>
        <time>2020-11-01T11:58:35Z</time>
      </trkpt>
      <trkpt lat="43.257877" lon="-5.1542687">
        <ele>408.0</ele>
        <time>2020-11-01T11:58:37Z</time>
      </trkpt>
      <trkpt lat="43.257866" lon="-5.1542625">
        <ele>408.0</ele>
        <time>2020-11-01T11:58:37Z</time>
      </trkpt>
      <trkpt lat="43.257854" lon="-5.154258">
        <ele>408.0</ele>
        <time>2020-11-01T11:58:38Z</time>
      </trkpt>
      <trkpt lat="43.25785" lon="-5.154251">
        <ele>408.0</ele>
        <time>2020-11-01T11:58:39Z</time>
      </trkpt>
      <trkpt lat="43.257847" lon="-5.154244">
        <ele>408.0</ele>
        <time>2020-11-01T11:58:40Z</time>
      </trkpt>
      <trkpt lat="43.257835" lon="-5.154237">
        <ele>408.0</ele>
        <time>2020-11-01T11:58:41Z</time>
      </trkpt>
      <trkpt lat="43.25783" lon="-5.1542306">
        <ele>408.0</ele>
        <time>2020-11-01T11:58:42Z</time>
      </trkpt>
      <trkpt lat="43.257816" lon="-5.1542234">
        <ele>408.0</ele>
        <time>2020-11-01T11:58:43Z</time>
      </trkpt>
      <trkpt lat="43.257805" lon="-5.1542163">
        <ele>408.0</ele>
        <time>2020-11-01T11:58:44Z</time>
      </trkpt>
      <trkpt lat="43.257793" lon="-5.154208">
        <ele>408.0</ele>
        <time>2020-11-01T11:58:45Z</time>
      </trkpt>
      <trkpt lat="43.257786" lon="-5.154198">
        <ele>408.0</ele>
        <time>2020-11-01T11:58:46Z</time>
      </trkpt>
      <trkpt lat="43.257774" lon="-5.1541886">
        <ele>408.0</ele>
        <time>2020-11-01T11:58:47Z</time>
      </trkpt>
      <trkpt lat="43.257763" lon="-5.1541805">
        <ele>408.0</ele>
        <time>2020-11-01T11:58:48Z</time>
      </trkpt>
      <trkpt lat="43.257755" lon="-5.1541743">
        <ele>408.0</ele>
        <time>2020-11-01T11:58:50Z</time>
      </trkpt>
      <trkpt lat="43.25774" lon="-5.15417">
        <ele>408.0</ele>
        <time>2020-11-01T11:58:50Z</time>
      </trkpt>
      <trkpt lat="43.25773" lon="-5.1541634">
        <ele>408.0</ele>
        <time>2020-11-01T11:58:51Z</time>
      </trkpt>
      <trkpt lat="43.257717" lon="-5.1541533">
        <ele>408.0</ele>
        <time>2020-11-01T11:58:52Z</time>
      </trkpt>
      <trkpt lat="43.257706" lon="-5.154142">
        <ele>408.0</ele>
        <time>2020-11-01T11:58:53Z</time>
      </trkpt>
      <trkpt lat="43.257698" lon="-5.154132">
        <ele>408.0</ele>
        <time>2020-11-01T11:58:54Z</time>
      </trkpt>
      <trkpt lat="43.257687" lon="-5.1541233">
        <ele>408.0</ele>
        <time>2020-11-01T11:58:55Z</time>
      </trkpt>
      <trkpt lat="43.257675" lon="-5.1541147">
        <ele>408.0</ele>
        <time>2020-11-01T11:58:56Z</time>
      </trkpt>
      <trkpt lat="43.25766" lon="-5.154107">
        <ele>408.0</ele>
        <time>2020-11-01T11:58:57Z</time>
      </trkpt>
      <trkpt lat="43.257652" lon="-5.154098">
        <ele>408.0</ele>
        <time>2020-11-01T11:58:58Z</time>
      </trkpt>
      <trkpt lat="43.25764" lon="-5.154089">
        <ele>408.0</ele>
        <time>2020-11-01T11:58:59Z</time>
      </trkpt>
      <trkpt lat="43.25763" lon="-5.1540766">
        <ele>408.0</ele>
        <time>2020-11-01T11:59:00Z</time>
      </trkpt>
      <trkpt lat="43.25762" lon="-5.1540675">
        <ele>408.0</ele>
        <time>2020-11-01T11:59:01Z</time>
      </trkpt>
      <trkpt lat="43.257614" lon="-5.1540594">
        <ele>408.0</ele>
        <time>2020-11-01T11:59:02Z</time>
      </trkpt>
      <trkpt lat="43.25761" lon="-5.1540504">
        <ele>408.0</ele>
        <time>2020-11-01T11:59:03Z</time>
      </trkpt>
      <trkpt lat="43.257607" lon="-5.1540427">
        <ele>408.0</ele>
        <time>2020-11-01T11:59:05Z</time>
      </trkpt>
      <trkpt lat="43.2576" lon="-5.154036">
        <ele>408.0</ele>
        <time>2020-11-01T11:59:05Z</time>
      </trkpt>
      <trkpt lat="43.257595" lon="-5.154027">
        <ele>408.0</ele>
        <time>2020-11-01T11:59:06Z</time>
      </trkpt>
      <trkpt lat="43.257584" lon="-5.154018">
        <ele>408.0</ele>
        <time>2020-11-01T11:59:07Z</time>
      </trkpt>
      <trkpt lat="43.257576" lon="-5.154009">
        <ele>408.0</ele>
        <time>2020-11-01T11:59:08Z</time>
      </trkpt>
      <trkpt lat="43.25757" lon="-5.1540017">
        <ele>408.0</ele>
        <time>2020-11-01T11:59:09Z</time>
      </trkpt>
      <trkpt lat="43.25756" lon="-5.153995">
        <ele>408.0</ele>
        <time>2020-11-01T11:59:10Z</time>
      </trkpt>
      <trkpt lat="43.257553" lon="-5.1539893">
        <ele>409.0</ele>
        <time>2020-11-01T11:59:11Z</time>
      </trkpt>
      <trkpt lat="43.257545" lon="-5.1539865">
        <ele>409.0</ele>
        <time>2020-11-01T11:59:12Z</time>
      </trkpt>
      <trkpt lat="43.257534" lon="-5.1539826">
        <ele>409.0</ele>
        <time>2020-11-01T11:59:13Z</time>
      </trkpt>
      <trkpt lat="43.25753" lon="-5.1539764">
        <ele>409.0</ele>
        <time>2020-11-01T11:59:14Z</time>
      </trkpt>
      <trkpt lat="43.257523" lon="-5.153965">
        <ele>409.0</ele>
        <time>2020-11-01T11:59:15Z</time>
      </trkpt>
      <trkpt lat="43.25751" lon="-5.1539545">
        <ele>409.0</ele>
        <time>2020-11-01T11:59:16Z</time>
      </trkpt>
      <trkpt lat="43.257504" lon="-5.1539445">
        <ele>409.0</ele>
        <time>2020-11-01T11:59:17Z</time>
      </trkpt>
      <trkpt lat="43.257496" lon="-5.153935">
        <ele>409.0</ele>
        <time>2020-11-01T11:59:18Z</time>
      </trkpt>
      <trkpt lat="43.257492" lon="-5.153914">
        <ele>409.0</ele>
        <time>2020-11-01T11:59:21Z</time>
      </trkpt>
      <trkpt lat="43.257492" lon="-5.1539145">
        <ele>409.0</ele>
        <time>2020-11-01T11:59:21Z</time>
      </trkpt>
      <trkpt lat="43.257492" lon="-5.1539173">
        <ele>409.0</ele>
        <time>2020-11-01T11:59:22Z</time>
      </trkpt>
      <trkpt lat="43.257492" lon="-5.15392">
        <ele>409.0</ele>
        <time>2020-11-01T11:59:23Z</time>
      </trkpt>
      <trkpt lat="43.257492" lon="-5.1539235">
        <ele>409.0</ele>
        <time>2020-11-01T11:59:24Z</time>
      </trkpt>
      <trkpt lat="43.257492" lon="-5.153926">
        <ele>409.0</ele>
        <time>2020-11-01T11:59:25Z</time>
      </trkpt>
      <trkpt lat="43.257492" lon="-5.1539354">
        <ele>409.0</ele>
        <time>2020-11-01T11:59:28Z</time>
      </trkpt>
      <trkpt lat="43.25749" lon="-5.1539288">
        <ele>409.0</ele>
        <time>2020-11-01T11:59:39Z</time>
      </trkpt>
      <trkpt lat="43.25749" lon="-5.153924">
        <ele>409.0</ele>
        <time>2020-11-01T11:59:40Z</time>
      </trkpt>
      <trkpt lat="43.25748" lon="-5.1539154">
        <ele>409.0</ele>
        <time>2020-11-01T11:59:41Z</time>
      </trkpt>
      <trkpt lat="43.257473" lon="-5.1539054">
        <ele>409.0</ele>
        <time>2020-11-01T11:59:42Z</time>
      </trkpt>
      <trkpt lat="43.257465" lon="-5.153896">
        <ele>409.0</ele>
        <time>2020-11-01T11:59:43Z</time>
      </trkpt>
      <trkpt lat="43.257458" lon="-5.153883">
        <ele>409.0</ele>
        <time>2020-11-01T11:59:44Z</time>
      </trkpt>
      <trkpt lat="43.257446" lon="-5.1538696">
        <ele>409.0</ele>
        <time>2020-11-01T11:59:45Z</time>
      </trkpt>
      <trkpt lat="43.257435" lon="-5.153854">
        <ele>409.0</ele>
        <time>2020-11-01T11:59:46Z</time>
      </trkpt>
      <trkpt lat="43.25742" lon="-5.1538367">
        <ele>409.0</ele>
        <time>2020-11-01T11:59:48Z</time>
      </trkpt>
      <trkpt lat="43.257404" lon="-5.153819">
        <ele>409.0</ele>
        <time>2020-11-01T11:59:48Z</time>
      </trkpt>
      <trkpt lat="43.25739" lon="-5.1538043">
        <ele>409.0</ele>
        <time>2020-11-01T11:59:49Z</time>
      </trkpt>
      <trkpt lat="43.25738" lon="-5.1537924">
        <ele>409.0</ele>
        <time>2020-11-01T11:59:50Z</time>
      </trkpt>
      <trkpt lat="43.25737" lon="-5.153781">
        <ele>409.0</ele>
        <time>2020-11-01T11:59:51Z</time>
      </trkpt>
      <trkpt lat="43.25736" lon="-5.1537695">
        <ele>409.0</ele>
        <time>2020-11-01T11:59:52Z</time>
      </trkpt>
      <trkpt lat="43.25735" lon="-5.1537576">
        <ele>409.0</ele>
        <time>2020-11-01T11:59:53Z</time>
      </trkpt>
      <trkpt lat="43.25734" lon="-5.153747">
        <ele>409.0</ele>
        <time>2020-11-01T11:59:54Z</time>
      </trkpt>
      <trkpt lat="43.257336" lon="-5.153736">
        <ele>409.0</ele>
        <time>2020-11-01T11:59:56Z</time>
      </trkpt>
      <trkpt lat="43.257328" lon="-5.153728">
        <ele>409.0</ele>
        <time>2020-11-01T11:59:56Z</time>
      </trkpt>
      <trkpt lat="43.257317" lon="-5.153721">
        <ele>409.0</ele>
        <time>2020-11-01T11:59:57Z</time>
      </trkpt>
      <trkpt lat="43.257313" lon="-5.1537147">
        <ele>409.0</ele>
        <time>2020-11-01T11:59:58Z</time>
      </trkpt>
      <trkpt lat="43.2573" lon="-5.153707">
        <ele>409.0</ele>
        <time>2020-11-01T11:59:59Z</time>
      </trkpt>
      <trkpt lat="43.257298" lon="-5.1536975">
        <ele>409.0</ele>
        <time>2020-11-01T12:00:00Z</time>
      </trkpt>
      <trkpt lat="43.257286" lon="-5.153687">
        <ele>409.0</ele>
        <time>2020-11-01T12:00:01Z</time>
      </trkpt>
      <trkpt lat="43.257282" lon="-5.153676">
        <ele>409.0</ele>
        <time>2020-11-01T12:00:02Z</time>
      </trkpt>
      <trkpt lat="43.25727" lon="-5.1536646">
        <ele>409.0</ele>
        <time>2020-11-01T12:00:03Z</time>
      </trkpt>
      <trkpt lat="43.257267" lon="-5.1536546">
        <ele>409.0</ele>
        <time>2020-11-01T12:00:04Z</time>
      </trkpt>
      <trkpt lat="43.257263" lon="-5.153646">
        <ele>409.0</ele>
        <time>2020-11-01T12:00:05Z</time>
      </trkpt>
      <trkpt lat="43.25725" lon="-5.1536407">
        <ele>409.0</ele>
        <time>2020-11-01T12:00:06Z</time>
      </trkpt>
      <trkpt lat="43.257248" lon="-5.153636">
        <ele>409.0</ele>
        <time>2020-11-01T12:00:07Z</time>
      </trkpt>
      <trkpt lat="43.25724" lon="-5.1536303">
        <ele>409.0</ele>
        <time>2020-11-01T12:00:08Z</time>
      </trkpt>
      <trkpt lat="43.257233" lon="-5.153627">
        <ele>409.0</ele>
        <time>2020-11-01T12:00:09Z</time>
      </trkpt>
      <trkpt lat="43.25722" lon="-5.1536202">
        <ele>409.0</ele>
        <time>2020-11-01T12:00:11Z</time>
      </trkpt>
      <trkpt lat="43.257206" lon="-5.1536107">
        <ele>409.0</ele>
        <time>2020-11-01T12:00:11Z</time>
      </trkpt>
      <trkpt lat="43.257195" lon="-5.1535993">
        <ele>409.0</ele>
        <time>2020-11-01T12:00:12Z</time>
      </trkpt>
      <trkpt lat="43.257187" lon="-5.1535854">
        <ele>409.0</ele>
        <time>2020-11-01T12:00:13Z</time>
      </trkpt>
      <trkpt lat="43.257175" lon="-5.1535697">
        <ele>409.0</ele>
        <time>2020-11-01T12:00:14Z</time>
      </trkpt>
      <trkpt lat="43.257164" lon="-5.153555">
        <ele>409.0</ele>
        <time>2020-11-01T12:00:15Z</time>
      </trkpt>
      <trkpt lat="43.257156" lon="-5.1535416">
        <ele>409.0</ele>
        <time>2020-11-01T12:00:16Z</time>
      </trkpt>
      <trkpt lat="43.257137" lon="-5.1535296">
        <ele>409.0</ele>
        <time>2020-11-01T12:00:17Z</time>
      </trkpt>
      <trkpt lat="43.25713" lon="-5.1535206">
        <ele>409.0</ele>
        <time>2020-11-01T12:00:18Z</time>
      </trkpt>
      <trkpt lat="43.25712" lon="-5.1535125">
        <ele>409.0</ele>
        <time>2020-11-01T12:00:19Z</time>
      </trkpt>
      <trkpt lat="43.257103" lon="-5.153504">
        <ele>409.0</ele>
        <time>2020-11-01T12:00:20Z</time>
      </trkpt>
      <trkpt lat="43.25709" lon="-5.1534934">
        <ele>409.0</ele>
        <time>2020-11-01T12:00:21Z</time>
      </trkpt>
      <trkpt lat="43.257088" lon="-5.153483">
        <ele>409.0</ele>
        <time>2020-11-01T12:00:21Z</time>
      </trkpt>
      <trkpt lat="43.257076" lon="-5.1534715">
        <ele>409.0</ele>
        <time>2020-11-01T12:00:22Z</time>
      </trkpt>
      <trkpt lat="43.257076" lon="-5.153458">
        <ele>409.0</ele>
        <time>2020-11-01T12:00:23Z</time>
      </trkpt>
      <trkpt lat="43.257076" lon="-5.1534452">
        <ele>409.0</ele>
        <time>2020-11-01T12:00:24Z</time>
      </trkpt>
      <trkpt lat="43.257072" lon="-5.1534333">
        <ele>409.0</ele>
        <time>2020-11-01T12:00:25Z</time>
      </trkpt>
      <trkpt lat="43.25707" lon="-5.153424">
        <ele>409.0</ele>
        <time>2020-11-01T12:00:26Z</time>
      </trkpt>
      <trkpt lat="43.257057" lon="-5.1534104">
        <ele>409.0</ele>
        <time>2020-11-01T12:00:27Z</time>
      </trkpt>
      <trkpt lat="43.257046" lon="-5.1533947">
        <ele>409.0</ele>
        <time>2020-11-01T12:00:28Z</time>
      </trkpt>
      <trkpt lat="43.257042" lon="-5.153376">
        <ele>409.0</ele>
        <time>2020-11-01T12:00:29Z</time>
      </trkpt>
      <trkpt lat="43.25704" lon="-5.153359">
        <ele>409.0</ele>
        <time>2020-11-01T12:00:30Z</time>
      </trkpt>
      <trkpt lat="43.257027" lon="-5.153343">
        <ele>409.0</ele>
        <time>2020-11-01T12:00:31Z</time>
      </trkpt>
      <trkpt lat="43.257023" lon="-5.1533256">
        <ele>409.0</ele>
        <time>2020-11-01T12:00:33Z</time>
      </trkpt>
      <trkpt lat="43.257023" lon="-5.1533093">
        <ele>409.0</ele>
        <time>2020-11-01T12:00:33Z</time>
      </trkpt>
      <trkpt lat="43.257015" lon="-5.153293">
        <ele>409.0</ele>
        <time>2020-11-01T12:00:34Z</time>
      </trkpt>
      <trkpt lat="43.25701" lon="-5.153279">
        <ele>409.0</ele>
        <time>2020-11-01T12:00:35Z</time>
      </trkpt>
      <trkpt lat="43.25701" lon="-5.1532645">
        <ele>409.0</ele>
        <time>2020-11-01T12:00:36Z</time>
      </trkpt>
      <trkpt lat="43.257008" lon="-5.1532526">
        <ele>409.0</ele>
        <time>2020-11-01T12:00:37Z</time>
      </trkpt>
      <trkpt lat="43.257" lon="-5.153241">
        <ele>409.0</ele>
        <time>2020-11-01T12:00:38Z</time>
      </trkpt>
      <trkpt lat="43.256996" lon="-5.153229">
        <ele>409.0</ele>
        <time>2020-11-01T12:00:39Z</time>
      </trkpt>
      <trkpt lat="43.256992" lon="-5.153217">
        <ele>409.0</ele>
        <time>2020-11-01T12:00:40Z</time>
      </trkpt>
      <trkpt lat="43.256985" lon="-5.1532025">
        <ele>409.0</ele>
        <time>2020-11-01T12:00:41Z</time>
      </trkpt>
      <trkpt lat="43.25698" lon="-5.1531873">
        <ele>409.0</ele>
        <time>2020-11-01T12:00:42Z</time>
      </trkpt>
      <trkpt lat="43.256977" lon="-5.1531725">
        <ele>409.0</ele>
        <time>2020-11-01T12:00:43Z</time>
      </trkpt>
      <trkpt lat="43.256966" lon="-5.1531587">
        <ele>409.0</ele>
        <time>2020-11-01T12:00:44Z</time>
      </trkpt>
      <trkpt lat="43.25696" lon="-5.1531453">
        <ele>409.0</ele>
        <time>2020-11-01T12:00:45Z</time>
      </trkpt>
      <trkpt lat="43.25695" lon="-5.1531343">
        <ele>409.0</ele>
        <time>2020-11-01T12:00:46Z</time>
      </trkpt>
      <trkpt lat="43.25694" lon="-5.1531262">
        <ele>409.0</ele>
        <time>2020-11-01T12:00:47Z</time>
      </trkpt>
      <trkpt lat="43.256924" lon="-5.15312">
        <ele>409.0</ele>
        <time>2020-11-01T12:00:48Z</time>
      </trkpt>
      <trkpt lat="43.256912" lon="-5.153115">
        <ele>409.0</ele>
        <time>2020-11-01T12:00:49Z</time>
      </trkpt>
      <trkpt lat="43.256897" lon="-5.1531076">
        <ele>409.0</ele>
        <time>2020-11-01T12:00:50Z</time>
      </trkpt>
      <trkpt lat="43.256893" lon="-5.153098">
        <ele>409.0</ele>
        <time>2020-11-01T12:00:51Z</time>
      </trkpt>
      <trkpt lat="43.25688" lon="-5.153089">
        <ele>409.0</ele>
        <time>2020-11-01T12:00:53Z</time>
      </trkpt>
      <trkpt lat="43.256874" lon="-5.1530795">
        <ele>409.0</ele>
        <time>2020-11-01T12:00:53Z</time>
      </trkpt>
      <trkpt lat="43.256866" lon="-5.153072">
        <ele>409.0</ele>
        <time>2020-11-01T12:00:54Z</time>
      </trkpt>
      <trkpt lat="43.25686" lon="-5.153063">
        <ele>409.0</ele>
        <time>2020-11-01T12:00:55Z</time>
      </trkpt>
      <trkpt lat="43.25685" lon="-5.1530533">
        <ele>409.0</ele>
        <time>2020-11-01T12:00:56Z</time>
      </trkpt>
      <trkpt lat="43.256844" lon="-5.153041">
        <ele>409.0</ele>
        <time>2020-11-01T12:00:57Z</time>
      </trkpt>
      <trkpt lat="43.256836" lon="-5.1530304">
        <ele>409.0</ele>
        <time>2020-11-01T12:00:58Z</time>
      </trkpt>
      <trkpt lat="43.25683" lon="-5.153019">
        <ele>409.0</ele>
        <time>2020-11-01T12:00:59Z</time>
      </trkpt>
      <trkpt lat="43.25682" lon="-5.1530066">
        <ele>409.0</ele>
        <time>2020-11-01T12:01:00Z</time>
      </trkpt>
      <trkpt lat="43.256813" lon="-5.152992">
        <ele>409.0</ele>
        <time>2020-11-01T12:01:01Z</time>
      </trkpt>
      <trkpt lat="43.2568" lon="-5.152979">
        <ele>409.0</ele>
        <time>2020-11-01T12:01:02Z</time>
      </trkpt>
      <trkpt lat="43.25679" lon="-5.152964">
        <ele>409.0</ele>
        <time>2020-11-01T12:01:03Z</time>
      </trkpt>
      <trkpt lat="43.256783" lon="-5.1529484">
        <ele>409.0</ele>
        <time>2020-11-01T12:01:04Z</time>
      </trkpt>
      <trkpt lat="43.25677" lon="-5.1529355">
        <ele>409.0</ele>
        <time>2020-11-01T12:01:05Z</time>
      </trkpt>
      <trkpt lat="43.256767" lon="-5.152925">
        <ele>409.0</ele>
        <time>2020-11-01T12:01:06Z</time>
      </trkpt>
      <trkpt lat="43.256756" lon="-5.1529155">
        <ele>409.0</ele>
        <time>2020-11-01T12:01:07Z</time>
      </trkpt>
      <trkpt lat="43.256744" lon="-5.152907">
        <ele>409.0</ele>
        <time>2020-11-01T12:01:08Z</time>
      </trkpt>
      <trkpt lat="43.25674" lon="-5.1528974">
        <ele>409.0</ele>
        <time>2020-11-01T12:01:09Z</time>
      </trkpt>
      <trkpt lat="43.256733" lon="-5.152884">
        <ele>409.0</ele>
        <time>2020-11-01T12:01:10Z</time>
      </trkpt>
      <trkpt lat="43.256733" lon="-5.1528707">
        <ele>409.0</ele>
        <time>2020-11-01T12:01:11Z</time>
      </trkpt>
      <trkpt lat="43.25673" lon="-5.152856">
        <ele>409.0</ele>
        <time>2020-11-01T12:01:12Z</time>
      </trkpt>
      <trkpt lat="43.25673" lon="-5.152839">
        <ele>409.0</ele>
        <time>2020-11-01T12:01:13Z</time>
      </trkpt>
      <trkpt lat="43.256725" lon="-5.152823">
        <ele>409.0</ele>
        <time>2020-11-01T12:01:14Z</time>
      </trkpt>
      <trkpt lat="43.256718" lon="-5.1528063">
        <ele>409.0</ele>
        <time>2020-11-01T12:01:16Z</time>
      </trkpt>
      <trkpt lat="43.256714" lon="-5.1527915">
        <ele>410.0</ele>
        <time>2020-11-01T12:01:16Z</time>
      </trkpt>
      <trkpt lat="43.25671" lon="-5.152777">
        <ele>410.0</ele>
        <time>2020-11-01T12:01:17Z</time>
      </trkpt>
      <trkpt lat="43.256702" lon="-5.152763">
        <ele>410.0</ele>
        <time>2020-11-01T12:01:18Z</time>
      </trkpt>
      <trkpt lat="43.2567" lon="-5.1527495">
        <ele>410.0</ele>
        <time>2020-11-01T12:01:19Z</time>
      </trkpt>
      <trkpt lat="43.256695" lon="-5.152736">
        <ele>410.0</ele>
        <time>2020-11-01T12:01:20Z</time>
      </trkpt>
      <trkpt lat="43.256687" lon="-5.1527233">
        <ele>410.0</ele>
        <time>2020-11-01T12:01:21Z</time>
      </trkpt>
      <trkpt lat="43.256683" lon="-5.152711">
        <ele>410.0</ele>
        <time>2020-11-01T12:01:22Z</time>
      </trkpt>
      <trkpt lat="43.25668" lon="-5.152697">
        <ele>410.0</ele>
        <time>2020-11-01T12:01:24Z</time>
      </trkpt>
      <trkpt lat="43.25668" lon="-5.152683">
        <ele>410.0</ele>
        <time>2020-11-01T12:01:24Z</time>
      </trkpt>
      <trkpt lat="43.25667" lon="-5.152669">
        <ele>410.0</ele>
        <time>2020-11-01T12:01:25Z</time>
      </trkpt>
      <trkpt lat="43.256668" lon="-5.152655">
        <ele>410.0</ele>
        <time>2020-11-01T12:01:26Z</time>
      </trkpt>
      <trkpt lat="43.256664" lon="-5.1526427">
        <ele>410.0</ele>
        <time>2020-11-01T12:01:27Z</time>
      </trkpt>
      <trkpt lat="43.256657" lon="-5.1526318">
        <ele>410.0</ele>
        <time>2020-11-01T12:01:28Z</time>
      </trkpt>
      <trkpt lat="43.256653" lon="-5.152621">
        <ele>410.0</ele>
        <time>2020-11-01T12:01:29Z</time>
      </trkpt>
      <trkpt lat="43.25664" lon="-5.152607">
        <ele>410.0</ele>
        <time>2020-11-01T12:01:30Z</time>
      </trkpt>
      <trkpt lat="43.256638" lon="-5.1525946">
        <ele>410.0</ele>
        <time>2020-11-01T12:01:31Z</time>
      </trkpt>
      <trkpt lat="43.256634" lon="-5.152583">
        <ele>410.0</ele>
        <time>2020-11-01T12:01:32Z</time>
      </trkpt>
      <trkpt lat="43.256626" lon="-5.1525736">
        <ele>410.0</ele>
        <time>2020-11-01T12:01:33Z</time>
      </trkpt>
      <trkpt lat="43.25662" lon="-5.152566">
        <ele>410.0</ele>
        <time>2020-11-01T12:01:34Z</time>
      </trkpt>
      <trkpt lat="43.25661" lon="-5.1525593">
        <ele>410.0</ele>
        <time>2020-11-01T12:01:35Z</time>
      </trkpt>
      <trkpt lat="43.25661" lon="-5.1525526">
        <ele>410.0</ele>
        <time>2020-11-01T12:01:36Z</time>
      </trkpt>
      <trkpt lat="43.256607" lon="-5.152544">
        <ele>410.0</ele>
        <time>2020-11-01T12:01:37Z</time>
      </trkpt>
      <trkpt lat="43.256603" lon="-5.1525316">
        <ele>410.0</ele>
        <time>2020-11-01T12:01:39Z</time>
      </trkpt>
      <trkpt lat="43.25659" lon="-5.152518">
        <ele>410.0</ele>
        <time>2020-11-01T12:01:39Z</time>
      </trkpt>
      <trkpt lat="43.256588" lon="-5.152504">
        <ele>410.0</ele>
        <time>2020-11-01T12:01:40Z</time>
      </trkpt>
      <trkpt lat="43.256577" lon="-5.152491">
        <ele>410.0</ele>
        <time>2020-11-01T12:01:41Z</time>
      </trkpt>
      <trkpt lat="43.256565" lon="-5.152479">
        <ele>410.0</ele>
        <time>2020-11-01T12:01:42Z</time>
      </trkpt>
      <trkpt lat="43.256554" lon="-5.1524677">
        <ele>410.0</ele>
        <time>2020-11-01T12:01:43Z</time>
      </trkpt>
      <trkpt lat="43.25655" lon="-5.152457">
        <ele>410.0</ele>
        <time>2020-11-01T12:01:44Z</time>
      </trkpt>
      <trkpt lat="43.256546" lon="-5.1524463">
        <ele>410.0</ele>
        <time>2020-11-01T12:01:45Z</time>
      </trkpt>
      <trkpt lat="43.256535" lon="-5.1524343">
        <ele>410.0</ele>
        <time>2020-11-01T12:01:46Z</time>
      </trkpt>
      <trkpt lat="43.25653" lon="-5.1524243">
        <ele>410.0</ele>
        <time>2020-11-01T12:01:47Z</time>
      </trkpt>
      <trkpt lat="43.25652" lon="-5.1524158">
        <ele>410.0</ele>
        <time>2020-11-01T12:01:48Z</time>
      </trkpt>
      <trkpt lat="43.256508" lon="-5.152409">
        <ele>410.0</ele>
        <time>2020-11-01T12:01:49Z</time>
      </trkpt>
      <trkpt lat="43.2565" lon="-5.1524024">
        <ele>410.0</ele>
        <time>2020-11-01T12:01:50Z</time>
      </trkpt>
      <trkpt lat="43.256493" lon="-5.152393">
        <ele>410.0</ele>
        <time>2020-11-01T12:01:52Z</time>
      </trkpt>
      <trkpt lat="43.256493" lon="-5.152383">
        <ele>410.0</ele>
        <time>2020-11-01T12:01:52Z</time>
      </trkpt>
      <trkpt lat="43.25649" lon="-5.1523724">
        <ele>410.0</ele>
        <time>2020-11-01T12:01:53Z</time>
      </trkpt>
      <trkpt lat="43.25649" lon="-5.15236">
        <ele>410.0</ele>
        <time>2020-11-01T12:01:54Z</time>
      </trkpt>
      <trkpt lat="43.256485" lon="-5.152347">
        <ele>410.0</ele>
        <time>2020-11-01T12:01:55Z</time>
      </trkpt>
      <trkpt lat="43.256485" lon="-5.152334">
        <ele>410.0</ele>
        <time>2020-11-01T12:01:56Z</time>
      </trkpt>
      <trkpt lat="43.256474" lon="-5.1523247">
        <ele>410.0</ele>
        <time>2020-11-01T12:01:57Z</time>
      </trkpt>
      <trkpt lat="43.25647" lon="-5.152315">
        <ele>410.0</ele>
        <time>2020-11-01T12:01:58Z</time>
      </trkpt>
      <trkpt lat="43.256462" lon="-5.152305">
        <ele>410.0</ele>
        <time>2020-11-01T12:01:59Z</time>
      </trkpt>
      <trkpt lat="43.25646" lon="-5.152298">
        <ele>410.0</ele>
        <time>2020-11-01T12:02:00Z</time>
      </trkpt>
      <trkpt lat="43.256447" lon="-5.152292">
        <ele>410.0</ele>
        <time>2020-11-01T12:02:01Z</time>
      </trkpt>
      <trkpt lat="43.256443" lon="-5.1522875">
        <ele>410.0</ele>
        <time>2020-11-01T12:02:02Z</time>
      </trkpt>
      <trkpt lat="43.25644" lon="-5.152283">
        <ele>410.0</ele>
        <time>2020-11-01T12:02:03Z</time>
      </trkpt>
      <trkpt lat="43.25644" lon="-5.1522765">
        <ele>412.0</ele>
        <time>2020-11-01T12:02:04Z</time>
      </trkpt>
      <trkpt lat="43.25643" lon="-5.1522675">
        <ele>412.0</ele>
        <time>2020-11-01T12:02:05Z</time>
      </trkpt>
      <trkpt lat="43.25643" lon="-5.152258">
        <ele>412.0</ele>
        <time>2020-11-01T12:02:07Z</time>
      </trkpt>
      <trkpt lat="43.256428" lon="-5.152246">
        <ele>412.0</ele>
        <time>2020-11-01T12:02:07Z</time>
      </trkpt>
      <trkpt lat="43.256428" lon="-5.152234">
        <ele>412.0</ele>
        <time>2020-11-01T12:02:08Z</time>
      </trkpt>
      <trkpt lat="43.256424" lon="-5.152222">
        <ele>412.0</ele>
        <time>2020-11-01T12:02:09Z</time>
      </trkpt>
      <trkpt lat="43.256416" lon="-5.1522093">
        <ele>412.0</ele>
        <time>2020-11-01T12:02:10Z</time>
      </trkpt>
      <trkpt lat="43.256413" lon="-5.1521955">
        <ele>412.0</ele>
        <time>2020-11-01T12:02:11Z</time>
      </trkpt>
      <trkpt lat="43.25641" lon="-5.1521807">
        <ele>412.0</ele>
        <time>2020-11-01T12:02:12Z</time>
      </trkpt>
      <trkpt lat="43.25641" lon="-5.152166">
        <ele>412.0</ele>
        <time>2020-11-01T12:02:13Z</time>
      </trkpt>
      <trkpt lat="43.2564" lon="-5.1521487">
        <ele>412.0</ele>
        <time>2020-11-01T12:02:14Z</time>
      </trkpt>
      <trkpt lat="43.2564" lon="-5.1521297">
        <ele>412.0</ele>
        <time>2020-11-01T12:02:15Z</time>
      </trkpt>
      <trkpt lat="43.256397" lon="-5.152111">
        <ele>412.0</ele>
        <time>2020-11-01T12:02:16Z</time>
      </trkpt>
      <trkpt lat="43.256397" lon="-5.152096">
        <ele>412.0</ele>
        <time>2020-11-01T12:02:17Z</time>
      </trkpt>
      <trkpt lat="43.256393" lon="-5.1520824">
        <ele>413.0</ele>
        <time>2020-11-01T12:02:18Z</time>
      </trkpt>
      <trkpt lat="43.256386" lon="-5.152072">
        <ele>413.0</ele>
        <time>2020-11-01T12:02:19Z</time>
      </trkpt>
      <trkpt lat="43.256386" lon="-5.152064">
        <ele>413.0</ele>
        <time>2020-11-01T12:02:20Z</time>
      </trkpt>
      <trkpt lat="43.256386" lon="-5.1520576">
        <ele>413.0</ele>
        <time>2020-11-01T12:02:21Z</time>
      </trkpt>
      <trkpt lat="43.256382" lon="-5.1520524">
        <ele>413.0</ele>
        <time>2020-11-01T12:02:23Z</time>
      </trkpt>
      <trkpt lat="43.25638" lon="-5.1520524">
        <ele>413.0</ele>
        <time>2020-11-01T12:02:23Z</time>
      </trkpt>
      <trkpt lat="43.25637" lon="-5.1520524">
        <ele>413.0</ele>
        <time>2020-11-01T12:02:24Z</time>
      </trkpt>
      <trkpt lat="43.256367" lon="-5.1520514">
        <ele>413.0</ele>
        <time>2020-11-01T12:02:25Z</time>
      </trkpt>
      <trkpt lat="43.25636" lon="-5.15205">
        <ele>413.0</ele>
        <time>2020-11-01T12:02:26Z</time>
      </trkpt>
      <trkpt lat="43.256355" lon="-5.152046">
        <ele>413.0</ele>
        <time>2020-11-01T12:02:27Z</time>
      </trkpt>
      <trkpt lat="43.256355" lon="-5.152042">
        <ele>413.0</ele>
        <time>2020-11-01T12:02:28Z</time>
      </trkpt>
      <trkpt lat="43.25636" lon="-5.1520367">
        <ele>413.0</ele>
        <time>2020-11-01T12:02:29Z</time>
      </trkpt>
      <trkpt lat="43.25636" lon="-5.152032">
        <ele>413.0</ele>
        <time>2020-11-01T12:02:31Z</time>
      </trkpt>
      <trkpt lat="43.25636" lon="-5.152028">
        <ele>413.0</ele>
        <time>2020-11-01T12:02:31Z</time>
      </trkpt>
      <trkpt lat="43.25637" lon="-5.1520214">
        <ele>413.0</ele>
        <time>2020-11-01T12:02:44Z</time>
      </trkpt>
      <trkpt lat="43.25637" lon="-5.1520195">
        <ele>413.0</ele>
        <time>2020-11-01T12:02:44Z</time>
      </trkpt>
      <trkpt lat="43.256382" lon="-5.1520147">
        <ele>413.0</ele>
        <time>2020-11-01T12:02:45Z</time>
      </trkpt>
      <trkpt lat="43.256386" lon="-5.152008">
        <ele>413.0</ele>
        <time>2020-11-01T12:02:46Z</time>
      </trkpt>
      <trkpt lat="43.256397" lon="-5.151999">
        <ele>413.0</ele>
        <time>2020-11-01T12:02:47Z</time>
      </trkpt>
      <trkpt lat="43.25641" lon="-5.1519904">
        <ele>413.0</ele>
        <time>2020-11-01T12:02:48Z</time>
      </trkpt>
      <trkpt lat="43.256416" lon="-5.151984">
        <ele>413.0</ele>
        <time>2020-11-01T12:02:50Z</time>
      </trkpt>
      <trkpt lat="43.25643" lon="-5.15198">
        <ele>413.0</ele>
        <time>2020-11-01T12:02:50Z</time>
      </trkpt>
      <trkpt lat="43.256443" lon="-5.151977">
        <ele>413.0</ele>
        <time>2020-11-01T12:02:51Z</time>
      </trkpt>
      <trkpt lat="43.25646" lon="-5.1519732">
        <ele>413.0</ele>
        <time>2020-11-01T12:02:52Z</time>
      </trkpt>
      <trkpt lat="43.25647" lon="-5.15197">
        <ele>413.0</ele>
        <time>2020-11-01T12:02:53Z</time>
      </trkpt>
      <trkpt lat="43.256474" lon="-5.151965">
        <ele>413.0</ele>
        <time>2020-11-01T12:02:54Z</time>
      </trkpt>
      <trkpt lat="43.256485" lon="-5.1519585">
        <ele>413.0</ele>
        <time>2020-11-01T12:02:55Z</time>
      </trkpt>
      <trkpt lat="43.25649" lon="-5.15195">
        <ele>413.0</ele>
        <time>2020-11-01T12:02:57Z</time>
      </trkpt>
      <trkpt lat="43.2565" lon="-5.1519423">
        <ele>413.0</ele>
        <time>2020-11-01T12:02:57Z</time>
      </trkpt>
      <trkpt lat="43.256508" lon="-5.151937">
        <ele>413.0</ele>
        <time>2020-11-01T12:02:58Z</time>
      </trkpt>
      <trkpt lat="43.25652" lon="-5.1519313">
        <ele>413.0</ele>
        <time>2020-11-01T12:02:59Z</time>
      </trkpt>
      <trkpt lat="43.25653" lon="-5.1519246">
        <ele>413.0</ele>
        <time>2020-11-01T12:03:00Z</time>
      </trkpt>
      <trkpt lat="43.256546" lon="-5.15192">
        <ele>413.0</ele>
        <time>2020-11-01T12:03:01Z</time>
      </trkpt>
      <trkpt lat="43.256554" lon="-5.1519136">
        <ele>413.0</ele>
        <time>2020-11-01T12:03:02Z</time>
      </trkpt>
      <trkpt lat="43.256565" lon="-5.151907">
        <ele>413.0</ele>
        <time>2020-11-01T12:03:03Z</time>
      </trkpt>
      <trkpt lat="43.256577" lon="-5.1518993">
        <ele>413.0</ele>
        <time>2020-11-01T12:03:04Z</time>
      </trkpt>
      <trkpt lat="43.256588" lon="-5.1518917">
        <ele>413.0</ele>
        <time>2020-11-01T12:03:05Z</time>
      </trkpt>
      <trkpt lat="43.256596" lon="-5.151882">
        <ele>413.0</ele>
        <time>2020-11-01T12:03:06Z</time>
      </trkpt>
      <trkpt lat="43.256603" lon="-5.151874">
        <ele>413.0</ele>
        <time>2020-11-01T12:03:07Z</time>
      </trkpt>
      <trkpt lat="43.25661" lon="-5.151868">
        <ele>413.0</ele>
        <time>2020-11-01T12:03:08Z</time>
      </trkpt>
      <trkpt lat="43.25662" lon="-5.151861">
        <ele>413.0</ele>
        <time>2020-11-01T12:03:09Z</time>
      </trkpt>
      <trkpt lat="43.256622" lon="-5.1518536">
        <ele>413.0</ele>
        <time>2020-11-01T12:03:10Z</time>
      </trkpt>
      <trkpt lat="43.256634" lon="-5.1518483">
        <ele>413.0</ele>
        <time>2020-11-01T12:03:11Z</time>
      </trkpt>
      <trkpt lat="43.256638" lon="-5.151845">
        <ele>413.0</ele>
        <time>2020-11-01T12:03:12Z</time>
      </trkpt>
      <trkpt lat="43.25664" lon="-5.151843">
        <ele>413.0</ele>
        <time>2020-11-01T12:03:13Z</time>
      </trkpt>
      <trkpt lat="43.25665" lon="-5.1518416">
        <ele>413.0</ele>
        <time>2020-11-01T12:03:14Z</time>
      </trkpt>
      <trkpt lat="43.256653" lon="-5.1518364">
        <ele>413.0</ele>
        <time>2020-11-01T12:03:15Z</time>
      </trkpt>
      <trkpt lat="43.256657" lon="-5.1518297">
        <ele>413.0</ele>
        <time>2020-11-01T12:03:16Z</time>
      </trkpt>
      <trkpt lat="43.256664" lon="-5.151823">
        <ele>413.0</ele>
        <time>2020-11-01T12:03:17Z</time>
      </trkpt>
      <trkpt lat="43.256668" lon="-5.1518188">
        <ele>413.0</ele>
        <time>2020-11-01T12:03:19Z</time>
      </trkpt>
      <trkpt lat="43.25668" lon="-5.1518116">
        <ele>413.0</ele>
        <time>2020-11-01T12:03:19Z</time>
      </trkpt>
      <trkpt lat="43.256683" lon="-5.151803">
        <ele>413.0</ele>
        <time>2020-11-01T12:03:20Z</time>
      </trkpt>
      <trkpt lat="43.256695" lon="-5.151793">
        <ele>413.0</ele>
        <time>2020-11-01T12:03:21Z</time>
      </trkpt>
      <trkpt lat="43.256702" lon="-5.1517816">
        <ele>413.0</ele>
        <time>2020-11-01T12:03:22Z</time>
      </trkpt>
      <trkpt lat="43.256714" lon="-5.1517715">
        <ele>413.0</ele>
        <time>2020-11-01T12:03:23Z</time>
      </trkpt>
      <trkpt lat="43.256725" lon="-5.151764">
        <ele>413.0</ele>
        <time>2020-11-01T12:03:24Z</time>
      </trkpt>
      <trkpt lat="43.256733" lon="-5.1517563">
        <ele>413.0</ele>
        <time>2020-11-01T12:03:25Z</time>
      </trkpt>
      <trkpt lat="43.25674" lon="-5.151748">
        <ele>413.0</ele>
        <time>2020-11-01T12:03:27Z</time>
      </trkpt>
      <trkpt lat="43.256744" lon="-5.1517386">
        <ele>413.0</ele>
        <time>2020-11-01T12:03:27Z</time>
      </trkpt>
      <trkpt lat="43.256756" lon="-5.151729">
        <ele>414.0</ele>
        <time>2020-11-01T12:03:28Z</time>
      </trkpt>
      <trkpt lat="43.25676" lon="-5.151719">
        <ele>414.0</ele>
        <time>2020-11-01T12:03:29Z</time>
      </trkpt>
      <trkpt lat="43.256767" lon="-5.1517096">
        <ele>414.0</ele>
        <time>2020-11-01T12:03:30Z</time>
      </trkpt>
      <trkpt lat="43.25677" lon="-5.151698">
        <ele>414.0</ele>
        <time>2020-11-01T12:03:31Z</time>
      </trkpt>
      <trkpt lat="43.256775" lon="-5.151684">
        <ele>414.0</ele>
        <time>2020-11-01T12:03:32Z</time>
      </trkpt>
      <trkpt lat="43.256775" lon="-5.151669">
        <ele>414.0</ele>
        <time>2020-11-01T12:03:33Z</time>
      </trkpt>
      <trkpt lat="43.256783" lon="-5.1516542">
        <ele>414.0</ele>
        <time>2020-11-01T12:03:34Z</time>
      </trkpt>
      <trkpt lat="43.256786" lon="-5.1516404">
        <ele>414.0</ele>
        <time>2020-11-01T12:03:35Z</time>
      </trkpt>
      <trkpt lat="43.25679" lon="-5.151626">
        <ele>414.0</ele>
        <time>2020-11-01T12:03:36Z</time>
      </trkpt>
      <trkpt lat="43.256798" lon="-5.1516128">
        <ele>414.0</ele>
        <time>2020-11-01T12:03:37Z</time>
      </trkpt>
      <trkpt lat="43.2568" lon="-5.1516023">
        <ele>414.0</ele>
        <time>2020-11-01T12:03:38Z</time>
      </trkpt>
      <trkpt lat="43.256813" lon="-5.151593">
        <ele>414.0</ele>
        <time>2020-11-01T12:03:39Z</time>
      </trkpt>
      <trkpt lat="43.256817" lon="-5.151584">
        <ele>414.0</ele>
        <time>2020-11-01T12:03:40Z</time>
      </trkpt>
      <trkpt lat="43.25682" lon="-5.1515746">
        <ele>415.0</ele>
        <time>2020-11-01T12:03:42Z</time>
      </trkpt>
      <trkpt lat="43.256832" lon="-5.1515656">
        <ele>415.0</ele>
        <time>2020-11-01T12:03:42Z</time>
      </trkpt>
      <trkpt lat="43.256836" lon="-5.151559">
        <ele>415.0</ele>
        <time>2020-11-01T12:03:43Z</time>
      </trkpt>
      <trkpt lat="43.256847" lon="-5.151551">
        <ele>415.0</ele>
        <time>2020-11-01T12:03:44Z</time>
      </trkpt>
      <trkpt lat="43.25685" lon="-5.151543">
        <ele>415.0</ele>
        <time>2020-11-01T12:03:45Z</time>
      </trkpt>
      <trkpt lat="43.256863" lon="-5.151534">
        <ele>415.0</ele>
        <time>2020-11-01T12:03:46Z</time>
      </trkpt>
      <trkpt lat="43.256874" lon="-5.1515226">
        <ele>415.0</ele>
        <time>2020-11-01T12:03:47Z</time>
      </trkpt>
      <trkpt lat="43.25688" lon="-5.1515126">
        <ele>415.0</ele>
        <time>2020-11-01T12:03:48Z</time>
      </trkpt>
      <trkpt lat="43.256897" lon="-5.151503">
        <ele>415.0</ele>
        <time>2020-11-01T12:03:49Z</time>
      </trkpt>
      <trkpt lat="43.256912" lon="-5.1514945">
        <ele>415.0</ele>
        <time>2020-11-01T12:03:50Z</time>
      </trkpt>
      <trkpt lat="43.256927" lon="-5.151488">
        <ele>416.0</ele>
        <time>2020-11-01T12:03:51Z</time>
      </trkpt>
      <trkpt lat="43.25694" lon="-5.151481">
        <ele>416.0</ele>
        <time>2020-11-01T12:03:52Z</time>
      </trkpt>
      <trkpt lat="43.256943" lon="-5.151476">
        <ele>416.0</ele>
        <time>2020-11-01T12:03:53Z</time>
      </trkpt>
      <trkpt lat="43.256954" lon="-5.1514707">
        <ele>416.0</ele>
        <time>2020-11-01T12:03:55Z</time>
      </trkpt>
      <trkpt lat="43.25696" lon="-5.1514635">
        <ele>416.0</ele>
        <time>2020-11-01T12:03:55Z</time>
      </trkpt>
      <trkpt lat="43.256966" lon="-5.151456">
        <ele>416.0</ele>
        <time>2020-11-01T12:03:56Z</time>
      </trkpt>
      <trkpt lat="43.25697" lon="-5.1514487">
        <ele>416.0</ele>
        <time>2020-11-01T12:03:57Z</time>
      </trkpt>
      <trkpt lat="43.256977" lon="-5.1514425">
        <ele>416.0</ele>
        <time>2020-11-01T12:03:58Z</time>
      </trkpt>
      <trkpt lat="43.25698" lon="-5.1514373">
        <ele>416.0</ele>
        <time>2020-11-01T12:03:59Z</time>
      </trkpt>
      <trkpt lat="43.25698" lon="-5.1514316">
        <ele>416.0</ele>
        <time>2020-11-01T12:04:00Z</time>
      </trkpt>
      <trkpt lat="43.256985" lon="-5.151427">
        <ele>416.0</ele>
        <time>2020-11-01T12:04:01Z</time>
      </trkpt>
      <trkpt lat="43.256992" lon="-5.1514244">
        <ele>416.0</ele>
        <time>2020-11-01T12:04:03Z</time>
      </trkpt>
      <trkpt lat="43.256992" lon="-5.151423">
        <ele>416.0</ele>
        <time>2020-11-01T12:04:03Z</time>
      </trkpt>
      <trkpt lat="43.256996" lon="-5.151417">
        <ele>416.0</ele>
        <time>2020-11-01T12:04:05Z</time>
      </trkpt>
      <trkpt lat="43.256996" lon="-5.1514153">
        <ele>416.0</ele>
        <time>2020-11-01T12:04:06Z</time>
      </trkpt>
      <trkpt lat="43.257" lon="-5.1514106">
        <ele>416.0</ele>
        <time>2020-11-01T12:04:07Z</time>
      </trkpt>
      <trkpt lat="43.257" lon="-5.1514025">
        <ele>416.0</ele>
        <time>2020-11-01T12:04:08Z</time>
      </trkpt>
      <trkpt lat="43.257008" lon="-5.1513953">
        <ele>416.0</ele>
        <time>2020-11-01T12:04:09Z</time>
      </trkpt>
      <trkpt lat="43.257008" lon="-5.1513896">
        <ele>416.0</ele>
        <time>2020-11-01T12:04:11Z</time>
      </trkpt>
      <trkpt lat="43.25701" lon="-5.151382">
        <ele>416.0</ele>
        <time>2020-11-01T12:04:11Z</time>
      </trkpt>
      <trkpt lat="43.25701" lon="-5.151374">
        <ele>416.0</ele>
        <time>2020-11-01T12:04:12Z</time>
      </trkpt>
      <trkpt lat="43.257015" lon="-5.151367">
        <ele>416.0</ele>
        <time>2020-11-01T12:04:13Z</time>
      </trkpt>
      <trkpt lat="43.257023" lon="-5.1513605">
        <ele>416.0</ele>
        <time>2020-11-01T12:04:14Z</time>
      </trkpt>
      <trkpt lat="43.257027" lon="-5.151354">
        <ele>416.0</ele>
        <time>2020-11-01T12:04:15Z</time>
      </trkpt>
      <trkpt lat="43.25703" lon="-5.151347">
        <ele>416.0</ele>
        <time>2020-11-01T12:04:16Z</time>
      </trkpt>
      <trkpt lat="43.25704" lon="-5.15134">
        <ele>416.0</ele>
        <time>2020-11-01T12:04:17Z</time>
      </trkpt>
      <trkpt lat="43.257042" lon="-5.1513314">
        <ele>416.0</ele>
        <time>2020-11-01T12:04:18Z</time>
      </trkpt>
      <trkpt lat="43.257046" lon="-5.1513247">
        <ele>416.0</ele>
        <time>2020-11-01T12:04:19Z</time>
      </trkpt>
      <trkpt lat="43.257053" lon="-5.151317">
        <ele>416.0</ele>
        <time>2020-11-01T12:04:20Z</time>
      </trkpt>
      <trkpt lat="43.25706" lon="-5.1513114">
        <ele>416.0</ele>
        <time>2020-11-01T12:04:21Z</time>
      </trkpt>
      <trkpt lat="43.25707" lon="-5.151307">
        <ele>416.0</ele>
        <time>2020-11-01T12:04:22Z</time>
      </trkpt>
      <trkpt lat="43.257076" lon="-5.151303">
        <ele>416.0</ele>
        <time>2020-11-01T12:04:23Z</time>
      </trkpt>
      <trkpt lat="43.25709" lon="-5.1513014">
        <ele>416.0</ele>
        <time>2020-11-01T12:04:24Z</time>
      </trkpt>
      <trkpt lat="43.257107" lon="-5.1513">
        <ele>416.0</ele>
        <time>2020-11-01T12:04:25Z</time>
      </trkpt>
      <trkpt lat="43.257122" lon="-5.151297">
        <ele>417.0</ele>
        <time>2020-11-01T12:04:26Z</time>
      </trkpt>
      <trkpt lat="43.257137" lon="-5.1512923">
        <ele>417.0</ele>
        <time>2020-11-01T12:04:27Z</time>
      </trkpt>
      <trkpt lat="43.25715" lon="-5.1512856">
        <ele>417.0</ele>
        <time>2020-11-01T12:04:28Z</time>
      </trkpt>
      <trkpt lat="43.257164" lon="-5.151278">
        <ele>417.0</ele>
        <time>2020-11-01T12:04:29Z</time>
      </trkpt>
      <trkpt lat="43.257175" lon="-5.1512694">
        <ele>417.0</ele>
        <time>2020-11-01T12:04:30Z</time>
      </trkpt>
      <trkpt lat="43.25719" lon="-5.1512613">
        <ele>417.0</ele>
        <time>2020-11-01T12:04:31Z</time>
      </trkpt>
      <trkpt lat="43.257195" lon="-5.151253">
        <ele>417.0</ele>
        <time>2020-11-01T12:04:32Z</time>
      </trkpt>
      <trkpt lat="43.25721" lon="-5.151245">
        <ele>417.0</ele>
        <time>2020-11-01T12:04:34Z</time>
      </trkpt>
      <trkpt lat="43.25722" lon="-5.1512384">
        <ele>417.0</ele>
        <time>2020-11-01T12:04:34Z</time>
      </trkpt>
      <trkpt lat="43.257233" lon="-5.1512337">
        <ele>417.0</ele>
        <time>2020-11-01T12:04:35Z</time>
      </trkpt>
      <trkpt lat="43.257236" lon="-5.1512284">
        <ele>417.0</ele>
        <time>2020-11-01T12:04:36Z</time>
      </trkpt>
      <trkpt lat="43.257248" lon="-5.1512246">
        <ele>417.0</ele>
        <time>2020-11-01T12:04:36Z</time>
      </trkpt>
      <trkpt lat="43.25725" lon="-5.151221">
        <ele>418.0</ele>
        <time>2020-11-01T12:04:37Z</time>
      </trkpt>
      <trkpt lat="43.257263" lon="-5.151218">
        <ele>418.0</ele>
        <time>2020-11-01T12:04:38Z</time>
      </trkpt>
      <trkpt lat="43.25727" lon="-5.151215">
        <ele>418.0</ele>
        <time>2020-11-01T12:04:39Z</time>
      </trkpt>
      <trkpt lat="43.257282" lon="-5.1512117">
        <ele>418.0</ele>
        <time>2020-11-01T12:04:40Z</time>
      </trkpt>
      <trkpt lat="43.257294" lon="-5.1512074">
        <ele>418.0</ele>
        <time>2020-11-01T12:04:41Z</time>
      </trkpt>
      <trkpt lat="43.2573" lon="-5.151201">
        <ele>418.0</ele>
        <time>2020-11-01T12:04:42Z</time>
      </trkpt>
      <trkpt lat="43.25731" lon="-5.151194">
        <ele>418.0</ele>
        <time>2020-11-01T12:04:43Z</time>
      </trkpt>
      <trkpt lat="43.257317" lon="-5.1511855">
        <ele>418.0</ele>
        <time>2020-11-01T12:04:44Z</time>
      </trkpt>
      <trkpt lat="43.257328" lon="-5.1511765">
        <ele>418.0</ele>
        <time>2020-11-01T12:04:46Z</time>
      </trkpt>
      <trkpt lat="43.257343" lon="-5.151169">
        <ele>418.0</ele>
        <time>2020-11-01T12:04:46Z</time>
      </trkpt>
      <trkpt lat="43.25735" lon="-5.151164">
        <ele>418.0</ele>
        <time>2020-11-01T12:04:47Z</time>
      </trkpt>
      <trkpt lat="43.257366" lon="-5.1511583">
        <ele>418.0</ele>
        <time>2020-11-01T12:04:48Z</time>
      </trkpt>
      <trkpt lat="43.257374" lon="-5.151154">
        <ele>418.0</ele>
        <time>2020-11-01T12:04:49Z</time>
      </trkpt>
      <trkpt lat="43.25739" lon="-5.1511474">
        <ele>419.0</ele>
        <time>2020-11-01T12:04:50Z</time>
      </trkpt>
      <trkpt lat="43.257404" lon="-5.1511397">
        <ele>419.0</ele>
        <time>2020-11-01T12:04:51Z</time>
      </trkpt>
      <trkpt lat="43.257416" lon="-5.1511316">
        <ele>419.0</ele>
        <time>2020-11-01T12:04:52Z</time>
      </trkpt>
      <trkpt lat="43.25743" lon="-5.151128">
        <ele>419.0</ele>
        <time>2020-11-01T12:04:53Z</time>
      </trkpt>
      <trkpt lat="43.257442" lon="-5.151129">
        <ele>419.0</ele>
        <time>2020-11-01T12:04:54Z</time>
      </trkpt>
      <trkpt lat="43.25745" lon="-5.1511316">
        <ele>419.0</ele>
        <time>2020-11-01T12:04:55Z</time>
      </trkpt>
      <trkpt lat="43.25746" lon="-5.151138">
        <ele>419.0</ele>
        <time>2020-11-01T12:04:56Z</time>
      </trkpt>
      <trkpt lat="43.257465" lon="-5.1511474">
        <ele>419.0</ele>
        <time>2020-11-01T12:04:57Z</time>
      </trkpt>
      <trkpt lat="43.257473" lon="-5.151151">
        <ele>419.0</ele>
        <time>2020-11-01T12:04:58Z</time>
      </trkpt>
      <trkpt lat="43.25748" lon="-5.151154">
        <ele>419.0</ele>
        <time>2020-11-01T12:04:59Z</time>
      </trkpt>
      <trkpt lat="43.25749" lon="-5.1511555">
        <ele>419.0</ele>
        <time>2020-11-01T12:05:00Z</time>
      </trkpt>
      <trkpt lat="43.257496" lon="-5.1511526">
        <ele>419.0</ele>
        <time>2020-11-01T12:05:01Z</time>
      </trkpt>
      <trkpt lat="43.257504" lon="-5.151146">
        <ele>419.0</ele>
        <time>2020-11-01T12:05:02Z</time>
      </trkpt>
      <trkpt lat="43.25751" lon="-5.1511364">
        <ele>419.0</ele>
        <time>2020-11-01T12:05:03Z</time>
      </trkpt>
      <trkpt lat="43.257523" lon="-5.151128">
        <ele>419.0</ele>
        <time>2020-11-01T12:05:04Z</time>
      </trkpt>
      <trkpt lat="43.257534" lon="-5.151121">
        <ele>419.0</ele>
        <time>2020-11-01T12:05:05Z</time>
      </trkpt>
      <trkpt lat="43.257538" lon="-5.1511173">
        <ele>419.0</ele>
        <time>2020-11-01T12:05:06Z</time>
      </trkpt>
      <trkpt lat="43.257545" lon="-5.1511145">
        <ele>419.0</ele>
        <time>2020-11-01T12:05:07Z</time>
      </trkpt>
      <trkpt lat="43.257553" lon="-5.151113">
        <ele>420.0</ele>
        <time>2020-11-01T12:05:09Z</time>
      </trkpt>
      <trkpt lat="43.25756" lon="-5.1511145">
        <ele>420.0</ele>
        <time>2020-11-01T12:05:09Z</time>
      </trkpt>
      <trkpt lat="43.25757" lon="-5.1511145">
        <ele>420.0</ele>
        <time>2020-11-01T12:05:10Z</time>
      </trkpt>
      <trkpt lat="43.257576" lon="-5.1511135">
        <ele>420.0</ele>
        <time>2020-11-01T12:05:11Z</time>
      </trkpt>
      <trkpt lat="43.257584" lon="-5.151111">
        <ele>420.0</ele>
        <time>2020-11-01T12:05:12Z</time>
      </trkpt>
      <trkpt lat="43.257595" lon="-5.1511097">
        <ele>420.0</ele>
        <time>2020-11-01T12:05:13Z</time>
      </trkpt>
      <trkpt lat="43.257607" lon="-5.151111">
        <ele>420.0</ele>
        <time>2020-11-01T12:05:14Z</time>
      </trkpt>
      <trkpt lat="43.257614" lon="-5.151115">
        <ele>420.0</ele>
        <time>2020-11-01T12:05:15Z</time>
      </trkpt>
      <trkpt lat="43.25762" lon="-5.151119">
        <ele>420.0</ele>
        <time>2020-11-01T12:05:16Z</time>
      </trkpt>
      <trkpt lat="43.257637" lon="-5.151121">
        <ele>420.0</ele>
        <time>2020-11-01T12:05:17Z</time>
      </trkpt>
      <trkpt lat="43.257645" lon="-5.151123">
        <ele>420.0</ele>
        <time>2020-11-01T12:05:18Z</time>
      </trkpt>
      <trkpt lat="43.257656" lon="-5.151124">
        <ele>420.0</ele>
        <time>2020-11-01T12:05:19Z</time>
      </trkpt>
      <trkpt lat="43.257668" lon="-5.1511226">
        <ele>420.0</ele>
        <time>2020-11-01T12:05:20Z</time>
      </trkpt>
      <trkpt lat="43.257683" lon="-5.151123">
        <ele>420.0</ele>
        <time>2020-11-01T12:05:21Z</time>
      </trkpt>
      <trkpt lat="43.25769" lon="-5.151125">
        <ele>421.0</ele>
        <time>2020-11-01T12:05:22Z</time>
      </trkpt>
      <trkpt lat="43.257706" lon="-5.15113">
        <ele>421.0</ele>
        <time>2020-11-01T12:05:23Z</time>
      </trkpt>
      <trkpt lat="43.257717" lon="-5.1511345">
        <ele>421.0</ele>
        <time>2020-11-01T12:05:24Z</time>
      </trkpt>
      <trkpt lat="43.25773" lon="-5.1511374">
        <ele>421.0</ele>
        <time>2020-11-01T12:05:25Z</time>
      </trkpt>
      <trkpt lat="43.25774" lon="-5.151138">
        <ele>421.0</ele>
        <time>2020-11-01T12:05:26Z</time>
      </trkpt>
      <trkpt lat="43.257748" lon="-5.151139">
        <ele>421.0</ele>
        <time>2020-11-01T12:05:27Z</time>
      </trkpt>
      <trkpt lat="43.25776" lon="-5.1511407">
        <ele>421.0</ele>
        <time>2020-11-01T12:05:28Z</time>
      </trkpt>
      <trkpt lat="43.25777" lon="-5.1511445">
        <ele>421.0</ele>
        <time>2020-11-01T12:05:29Z</time>
      </trkpt>
      <trkpt lat="43.25778" lon="-5.1511483">
        <ele>421.0</ele>
        <time>2020-11-01T12:05:30Z</time>
      </trkpt>
      <trkpt lat="43.25779" lon="-5.151153">
        <ele>421.0</ele>
        <time>2020-11-01T12:05:32Z</time>
      </trkpt>
      <trkpt lat="43.2578" lon="-5.151156">
        <ele>421.0</ele>
        <time>2020-11-01T12:05:32Z</time>
      </trkpt>
      <trkpt lat="43.257805" lon="-5.1511574">
        <ele>421.0</ele>
        <time>2020-11-01T12:05:33Z</time>
      </trkpt>
      <trkpt lat="43.257816" lon="-5.1511602">
        <ele>421.0</ele>
        <time>2020-11-01T12:05:34Z</time>
      </trkpt>
      <trkpt lat="43.257824" lon="-5.151163">
        <ele>421.0</ele>
        <time>2020-11-01T12:05:35Z</time>
      </trkpt>
      <trkpt lat="43.257835" lon="-5.151166">
        <ele>421.0</ele>
        <time>2020-11-01T12:05:36Z</time>
      </trkpt>
      <trkpt lat="43.257847" lon="-5.151169">
        <ele>421.0</ele>
        <time>2020-11-01T12:05:37Z</time>
      </trkpt>
      <trkpt lat="43.257862" lon="-5.1511717">
        <ele>421.0</ele>
        <time>2020-11-01T12:05:38Z</time>
      </trkpt>
      <trkpt lat="43.25787" lon="-5.1511745">
        <ele>421.0</ele>
        <time>2020-11-01T12:05:39Z</time>
      </trkpt>
      <trkpt lat="43.25788" lon="-5.1511784">
        <ele>421.0</ele>
        <time>2020-11-01T12:05:40Z</time>
      </trkpt>
      <trkpt lat="43.257908" lon="-5.1511855">
        <ele>421.0</ele>
        <time>2020-11-01T12:05:42Z</time>
      </trkpt>
      <trkpt lat="43.257908" lon="-5.151184">
        <ele>421.0</ele>
        <time>2020-11-01T12:05:43Z</time>
      </trkpt>
      <trkpt lat="43.257908" lon="-5.1511936">
        <ele>421.0</ele>
        <time>2020-11-01T12:05:46Z</time>
      </trkpt>
      <trkpt lat="43.257908" lon="-5.151196">
        <ele>421.0</ele>
        <time>2020-11-01T12:05:46Z</time>
      </trkpt>
      <trkpt lat="43.25791" lon="-5.151198">
        <ele>421.0</ele>
        <time>2020-11-01T12:05:47Z</time>
      </trkpt>
      <trkpt lat="43.25792" lon="-5.1511993">
        <ele>421.0</ele>
        <time>2020-11-01T12:05:48Z</time>
      </trkpt>
      <trkpt lat="43.257927" lon="-5.1512027">
        <ele>421.0</ele>
        <time>2020-11-01T12:05:49Z</time>
      </trkpt>
      <trkpt lat="43.257942" lon="-5.1512046">
        <ele>421.0</ele>
        <time>2020-11-01T12:05:50Z</time>
      </trkpt>
      <trkpt lat="43.257954" lon="-5.151206">
        <ele>421.0</ele>
        <time>2020-11-01T12:05:51Z</time>
      </trkpt>
      <trkpt lat="43.257965" lon="-5.1512065">
        <ele>421.0</ele>
        <time>2020-11-01T12:05:52Z</time>
      </trkpt>
      <trkpt lat="43.257973" lon="-5.1512084">
        <ele>421.0</ele>
        <time>2020-11-01T12:05:54Z</time>
      </trkpt>
      <trkpt lat="43.257984" lon="-5.1512094">
        <ele>422.0</ele>
        <time>2020-11-01T12:05:54Z</time>
      </trkpt>
      <trkpt lat="43.257996" lon="-5.151214">
        <ele>422.0</ele>
        <time>2020-11-01T12:05:55Z</time>
      </trkpt>
      <trkpt lat="43.258" lon="-5.1512184">
        <ele>422.0</ele>
        <time>2020-11-01T12:05:56Z</time>
      </trkpt>
      <trkpt lat="43.258003" lon="-5.151224">
        <ele>422.0</ele>
        <time>2020-11-01T12:05:57Z</time>
      </trkpt>
      <trkpt lat="43.25801" lon="-5.1512294">
        <ele>422.0</ele>
        <time>2020-11-01T12:05:58Z</time>
      </trkpt>
      <trkpt lat="43.25802" lon="-5.1512337">
        <ele>422.0</ele>
        <time>2020-11-01T12:05:59Z</time>
      </trkpt>
      <trkpt lat="43.25803" lon="-5.151237">
        <ele>422.0</ele>
        <time>2020-11-01T12:06:00Z</time>
      </trkpt>
      <trkpt lat="43.25804" lon="-5.15124">
        <ele>422.0</ele>
        <time>2020-11-01T12:06:01Z</time>
      </trkpt>
      <trkpt lat="43.258045" lon="-5.1512427">
        <ele>422.0</ele>
        <time>2020-11-01T12:06:03Z</time>
      </trkpt>
      <trkpt lat="43.258057" lon="-5.151245">
        <ele>422.0</ele>
        <time>2020-11-01T12:06:03Z</time>
      </trkpt>
      <trkpt lat="43.25806" lon="-5.1512475">
        <ele>422.0</ele>
        <time>2020-11-01T12:06:04Z</time>
      </trkpt>
      <trkpt lat="43.25807" lon="-5.15125">
        <ele>422.0</ele>
        <time>2020-11-01T12:06:05Z</time>
      </trkpt>
      <trkpt lat="43.25808" lon="-5.1512523">
        <ele>422.0</ele>
        <time>2020-11-01T12:06:06Z</time>
      </trkpt>
      <trkpt lat="43.258087" lon="-5.151254">
        <ele>422.0</ele>
        <time>2020-11-01T12:06:07Z</time>
      </trkpt>
      <trkpt lat="43.258095" lon="-5.151256">
        <ele>422.0</ele>
        <time>2020-11-01T12:06:09Z</time>
      </trkpt>
      <trkpt lat="43.258106" lon="-5.1512566">
        <ele>422.0</ele>
        <time>2020-11-01T12:06:09Z</time>
      </trkpt>
      <trkpt lat="43.258118" lon="-5.151256">
        <ele>422.0</ele>
        <time>2020-11-01T12:06:10Z</time>
      </trkpt>
      <trkpt lat="43.25813" lon="-5.1512547">
        <ele>422.0</ele>
        <time>2020-11-01T12:06:11Z</time>
      </trkpt>
      <trkpt lat="43.258137" lon="-5.1512523">
        <ele>423.0</ele>
        <time>2020-11-01T12:06:12Z</time>
      </trkpt>
      <trkpt lat="43.25815" lon="-5.15125">
        <ele>423.0</ele>
        <time>2020-11-01T12:06:13Z</time>
      </trkpt>
      <trkpt lat="43.25816" lon="-5.1512465">
        <ele>423.0</ele>
        <time>2020-11-01T12:06:14Z</time>
      </trkpt>
      <trkpt lat="43.258163" lon="-5.1512437">
        <ele>423.0</ele>
        <time>2020-11-01T12:06:15Z</time>
      </trkpt>
      <trkpt lat="43.258175" lon="-5.1512394">
        <ele>423.0</ele>
        <time>2020-11-01T12:06:17Z</time>
      </trkpt>
      <trkpt lat="43.25818" lon="-5.151235">
        <ele>423.0</ele>
        <time>2020-11-01T12:06:17Z</time>
      </trkpt>
      <trkpt lat="43.258183" lon="-5.151229">
        <ele>423.0</ele>
        <time>2020-11-01T12:06:18Z</time>
      </trkpt>
      <trkpt lat="43.258194" lon="-5.1512246">
        <ele>423.0</ele>
        <time>2020-11-01T12:06:19Z</time>
      </trkpt>
      <trkpt lat="43.258205" lon="-5.1512213">
        <ele>423.0</ele>
        <time>2020-11-01T12:06:20Z</time>
      </trkpt>
      <trkpt lat="43.25822" lon="-5.151215">
        <ele>423.0</ele>
        <time>2020-11-01T12:06:22Z</time>
      </trkpt>
      <trkpt lat="43.258213" lon="-5.151216">
        <ele>423.0</ele>
        <time>2020-11-01T12:06:23Z</time>
      </trkpt>
      <trkpt lat="43.258213" lon="-5.1512165">
        <ele>423.0</ele>
        <time>2020-11-01T12:06:24Z</time>
      </trkpt>
      <trkpt lat="43.258213" lon="-5.1512146">
        <ele>424.0</ele>
        <time>2020-11-01T12:06:25Z</time>
      </trkpt>
      <trkpt lat="43.258213" lon="-5.1512127">
        <ele>424.0</ele>
        <time>2020-11-01T12:06:26Z</time>
      </trkpt>
      <trkpt lat="43.258213" lon="-5.1512117">
        <ele>424.0</ele>
        <time>2020-11-01T12:06:27Z</time>
      </trkpt>
      <trkpt lat="43.25822" lon="-5.151211">
        <ele>424.0</ele>
        <time>2020-11-01T12:06:28Z</time>
      </trkpt>
      <trkpt lat="43.25822" lon="-5.15121">
        <ele>424.0</ele>
        <time>2020-11-01T12:06:29Z</time>
      </trkpt>
      <trkpt lat="43.258224" lon="-5.151206">
        <ele>424.0</ele>
        <time>2020-11-01T12:06:30Z</time>
      </trkpt>
      <trkpt lat="43.25823" lon="-5.1512">
        <ele>424.0</ele>
        <time>2020-11-01T12:06:31Z</time>
      </trkpt>
      <trkpt lat="43.258236" lon="-5.1511917">
        <ele>424.0</ele>
        <time>2020-11-01T12:06:33Z</time>
      </trkpt>
      <trkpt lat="43.258244" lon="-5.151182">
        <ele>424.0</ele>
        <time>2020-11-01T12:06:33Z</time>
      </trkpt>
      <trkpt lat="43.258255" lon="-5.151172">
        <ele>424.0</ele>
        <time>2020-11-01T12:06:34Z</time>
      </trkpt>
      <trkpt lat="43.25826" lon="-5.151162">
        <ele>424.0</ele>
        <time>2020-11-01T12:06:35Z</time>
      </trkpt>
      <trkpt lat="43.25827" lon="-5.1511507">
        <ele>424.0</ele>
        <time>2020-11-01T12:06:36Z</time>
      </trkpt>
      <trkpt lat="43.258274" lon="-5.1511397">
        <ele>424.0</ele>
        <time>2020-11-01T12:06:37Z</time>
      </trkpt>
      <trkpt lat="43.258286" lon="-5.151128">
        <ele>424.0</ele>
        <time>2020-11-01T12:06:38Z</time>
      </trkpt>
      <trkpt lat="43.25829" lon="-5.1511154">
        <ele>424.0</ele>
        <time>2020-11-01T12:06:39Z</time>
      </trkpt>
      <trkpt lat="43.2583" lon="-5.151104">
        <ele>424.0</ele>
        <time>2020-11-01T12:06:40Z</time>
      </trkpt>
      <trkpt lat="43.25831" lon="-5.151094">
        <ele>424.0</ele>
        <time>2020-11-01T12:06:41Z</time>
      </trkpt>
      <trkpt lat="43.258312" lon="-5.151086">
        <ele>424.0</ele>
        <time>2020-11-01T12:06:42Z</time>
      </trkpt>
      <trkpt lat="43.258324" lon="-5.1510773">
        <ele>424.0</ele>
        <time>2020-11-01T12:06:43Z</time>
      </trkpt>
      <trkpt lat="43.258327" lon="-5.1510696">
        <ele>424.0</ele>
        <time>2020-11-01T12:06:44Z</time>
      </trkpt>
      <trkpt lat="43.25834" lon="-5.1510615">
        <ele>424.0</ele>
        <time>2020-11-01T12:06:46Z</time>
      </trkpt>
      <trkpt lat="43.258347" lon="-5.151053">
        <ele>424.0</ele>
        <time>2020-11-01T12:06:46Z</time>
      </trkpt>
      <trkpt lat="43.258354" lon="-5.1510444">
        <ele>424.0</ele>
        <time>2020-11-01T12:06:47Z</time>
      </trkpt>
      <trkpt lat="43.258358" lon="-5.1510353">
        <ele>424.0</ele>
        <time>2020-11-01T12:06:48Z</time>
      </trkpt>
      <trkpt lat="43.25837" lon="-5.151025">
        <ele>425.0</ele>
        <time>2020-11-01T12:06:49Z</time>
      </trkpt>
      <trkpt lat="43.258373" lon="-5.1510158">
        <ele>425.0</ele>
        <time>2020-11-01T12:06:50Z</time>
      </trkpt>
      <trkpt lat="43.258377" lon="-5.151007">
        <ele>425.0</ele>
        <time>2020-11-01T12:06:51Z</time>
      </trkpt>
      <trkpt lat="43.258385" lon="-5.1509995">
        <ele>425.0</ele>
        <time>2020-11-01T12:06:52Z</time>
      </trkpt>
      <trkpt lat="43.258392" lon="-5.150994">
        <ele>425.0</ele>
        <time>2020-11-01T12:06:53Z</time>
      </trkpt>
      <trkpt lat="43.2584" lon="-5.1509886">
        <ele>425.0</ele>
        <time>2020-11-01T12:06:54Z</time>
      </trkpt>
      <trkpt lat="43.258404" lon="-5.150985">
        <ele>425.0</ele>
        <time>2020-11-01T12:06:55Z</time>
      </trkpt>
      <trkpt lat="43.258404" lon="-5.150981">
        <ele>425.0</ele>
        <time>2020-11-01T12:06:56Z</time>
      </trkpt>
      <trkpt lat="43.258408" lon="-5.1509776">
        <ele>425.0</ele>
        <time>2020-11-01T12:06:57Z</time>
      </trkpt>
      <trkpt lat="43.258415" lon="-5.150937">
        <ele>425.0</ele>
        <time>2020-11-01T12:07:36Z</time>
      </trkpt>
      <trkpt lat="43.25842" lon="-5.150934">
        <ele>425.0</ele>
        <time>2020-11-01T12:07:37Z</time>
      </trkpt>
      <trkpt lat="43.258423" lon="-5.1509266">
        <ele>425.0</ele>
        <time>2020-11-01T12:07:38Z</time>
      </trkpt>
      <trkpt lat="43.25843" lon="-5.150919">
        <ele>425.0</ele>
        <time>2020-11-01T12:07:39Z</time>
      </trkpt>
      <trkpt lat="43.258434" lon="-5.1509113">
        <ele>425.0</ele>
        <time>2020-11-01T12:07:40Z</time>
      </trkpt>
      <trkpt lat="43.258446" lon="-5.150903">
        <ele>425.0</ele>
        <time>2020-11-01T12:07:41Z</time>
      </trkpt>
      <trkpt lat="43.258453" lon="-5.1508923">
        <ele>425.0</ele>
        <time>2020-11-01T12:07:42Z</time>
      </trkpt>
      <trkpt lat="43.258465" lon="-5.150881">
        <ele>425.0</ele>
        <time>2020-11-01T12:07:44Z</time>
      </trkpt>
      <trkpt lat="43.258476" lon="-5.1508703">
        <ele>425.0</ele>
        <time>2020-11-01T12:07:44Z</time>
      </trkpt>
      <trkpt lat="43.258484" lon="-5.15086">
        <ele>425.0</ele>
        <time>2020-11-01T12:07:45Z</time>
      </trkpt>
      <trkpt lat="43.258495" lon="-5.15085">
        <ele>425.0</ele>
        <time>2020-11-01T12:07:46Z</time>
      </trkpt>
      <trkpt lat="43.258503" lon="-5.1508403">
        <ele>425.0</ele>
        <time>2020-11-01T12:07:47Z</time>
      </trkpt>
      <trkpt lat="43.258507" lon="-5.150831">
        <ele>425.0</ele>
        <time>2020-11-01T12:07:48Z</time>
      </trkpt>
      <trkpt lat="43.25852" lon="-5.1508226">
        <ele>425.0</ele>
        <time>2020-11-01T12:07:49Z</time>
      </trkpt>
      <trkpt lat="43.258522" lon="-5.1508136">
        <ele>425.0</ele>
        <time>2020-11-01T12:07:50Z</time>
      </trkpt>
      <trkpt lat="43.258533" lon="-5.150805">
        <ele>425.0</ele>
        <time>2020-11-01T12:07:51Z</time>
      </trkpt>
      <trkpt lat="43.258537" lon="-5.1507964">
        <ele>425.0</ele>
        <time>2020-11-01T12:07:52Z</time>
      </trkpt>
      <trkpt lat="43.25855" lon="-5.150788">
        <ele>425.0</ele>
        <time>2020-11-01T12:07:53Z</time>
      </trkpt>
      <trkpt lat="43.258553" lon="-5.1507792">
        <ele>425.0</ele>
        <time>2020-11-01T12:07:54Z</time>
      </trkpt>
      <trkpt lat="43.258556" lon="-5.15077">
        <ele>425.0</ele>
        <time>2020-11-01T12:07:55Z</time>
      </trkpt>
      <trkpt lat="43.258564" lon="-5.150761">
        <ele>425.0</ele>
        <time>2020-11-01T12:07:56Z</time>
      </trkpt>
      <trkpt lat="43.25857" lon="-5.1507525">
        <ele>425.0</ele>
        <time>2020-11-01T12:07:57Z</time>
      </trkpt>
      <trkpt lat="43.258583" lon="-5.1507444">
        <ele>425.0</ele>
        <time>2020-11-01T12:07:58Z</time>
      </trkpt>
      <trkpt lat="43.258587" lon="-5.150738">
        <ele>425.0</ele>
        <time>2020-11-01T12:08:00Z</time>
      </trkpt>
      <trkpt lat="43.2586" lon="-5.1507325">
        <ele>425.0</ele>
        <time>2020-11-01T12:08:00Z</time>
      </trkpt>
      <trkpt lat="43.258602" lon="-5.1507273">
        <ele>425.0</ele>
        <time>2020-11-01T12:08:01Z</time>
      </trkpt>
      <trkpt lat="43.258614" lon="-5.1507235">
        <ele>425.0</ele>
        <time>2020-11-01T12:08:02Z</time>
      </trkpt>
      <trkpt lat="43.258617" lon="-5.150718">
        <ele>425.0</ele>
        <time>2020-11-01T12:08:03Z</time>
      </trkpt>
      <trkpt lat="43.25863" lon="-5.1507125">
        <ele>425.0</ele>
        <time>2020-11-01T12:08:04Z</time>
      </trkpt>
      <trkpt lat="43.258633" lon="-5.150708">
        <ele>425.0</ele>
        <time>2020-11-01T12:08:05Z</time>
      </trkpt>
      <trkpt lat="43.258656" lon="-5.150694">
        <ele>425.0</ele>
        <time>2020-11-01T12:08:08Z</time>
      </trkpt>
      <trkpt lat="43.258656" lon="-5.150692">
        <ele>425.0</ele>
        <time>2020-11-01T12:08:08Z</time>
      </trkpt>
      <trkpt lat="43.258656" lon="-5.1506877">
        <ele>425.0</ele>
        <time>2020-11-01T12:08:09Z</time>
      </trkpt>
      <trkpt lat="43.25866" lon="-5.150682">
        <ele>425.0</ele>
        <time>2020-11-01T12:08:10Z</time>
      </trkpt>
      <trkpt lat="43.25867" lon="-5.150675">
        <ele>425.0</ele>
        <time>2020-11-01T12:08:11Z</time>
      </trkpt>
      <trkpt lat="43.258675" lon="-5.1506667">
        <ele>425.0</ele>
        <time>2020-11-01T12:08:12Z</time>
      </trkpt>
      <trkpt lat="43.25868" lon="-5.150659">
        <ele>425.0</ele>
        <time>2020-11-01T12:08:13Z</time>
      </trkpt>
      <trkpt lat="43.25869" lon="-5.1506486">
        <ele>425.0</ele>
        <time>2020-11-01T12:08:14Z</time>
      </trkpt>
      <trkpt lat="43.2587" lon="-5.150639">
        <ele>425.0</ele>
        <time>2020-11-01T12:08:15Z</time>
      </trkpt>
      <trkpt lat="43.258705" lon="-5.1506286">
        <ele>428.0</ele>
        <time>2020-11-01T12:08:16Z</time>
      </trkpt>
      <trkpt lat="43.258717" lon="-5.150619">
        <ele>428.0</ele>
        <time>2020-11-01T12:08:17Z</time>
      </trkpt>
      <trkpt lat="43.25872" lon="-5.150611">
        <ele>428.0</ele>
        <time>2020-11-01T12:08:18Z</time>
      </trkpt>
      <trkpt lat="43.25873" lon="-5.1506042">
        <ele>428.0</ele>
        <time>2020-11-01T12:08:19Z</time>
      </trkpt>
      <trkpt lat="43.258743" lon="-5.1505985">
        <ele>428.0</ele>
        <time>2020-11-01T12:08:20Z</time>
      </trkpt>
      <trkpt lat="43.258747" lon="-5.1505923">
        <ele>428.0</ele>
        <time>2020-11-01T12:08:21Z</time>
      </trkpt>
      <trkpt lat="43.25876" lon="-5.150585">
        <ele>428.0</ele>
        <time>2020-11-01T12:08:22Z</time>
      </trkpt>
      <trkpt lat="43.258766" lon="-5.15058">
        <ele>428.0</ele>
        <time>2020-11-01T12:08:23Z</time>
      </trkpt>
      <trkpt lat="43.258774" lon="-5.150572">
        <ele>428.0</ele>
        <time>2020-11-01T12:08:24Z</time>
      </trkpt>
      <trkpt lat="43.25878" lon="-5.1505623">
        <ele>428.0</ele>
        <time>2020-11-01T12:08:25Z</time>
      </trkpt>
      <trkpt lat="43.25879" lon="-5.1505504">
        <ele>428.0</ele>
        <time>2020-11-01T12:08:26Z</time>
      </trkpt>
      <trkpt lat="43.258793" lon="-5.1505384">
        <ele>428.0</ele>
        <time>2020-11-01T12:08:27Z</time>
      </trkpt>
      <trkpt lat="43.258797" lon="-5.1505284">
        <ele>428.0</ele>
        <time>2020-11-01T12:08:28Z</time>
      </trkpt>
      <trkpt lat="43.258804" lon="-5.1505184">
        <ele>428.0</ele>
        <time>2020-11-01T12:08:29Z</time>
      </trkpt>
      <trkpt lat="43.258812" lon="-5.150509">
        <ele>428.0</ele>
        <time>2020-11-01T12:08:31Z</time>
      </trkpt>
      <trkpt lat="43.25882" lon="-5.1505013">
        <ele>428.0</ele>
        <time>2020-11-01T12:08:31Z</time>
      </trkpt>
      <trkpt lat="43.258827" lon="-5.1504946">
        <ele>428.0</ele>
        <time>2020-11-01T12:08:32Z</time>
      </trkpt>
      <trkpt lat="43.25884" lon="-5.150489">
        <ele>428.0</ele>
        <time>2020-11-01T12:08:33Z</time>
      </trkpt>
      <trkpt lat="43.25885" lon="-5.1504817">
        <ele>428.0</ele>
        <time>2020-11-01T12:08:34Z</time>
      </trkpt>
      <trkpt lat="43.258858" lon="-5.1504765">
        <ele>428.0</ele>
        <time>2020-11-01T12:08:35Z</time>
      </trkpt>
      <trkpt lat="43.25887" lon="-5.1504703">
        <ele>428.0</ele>
        <time>2020-11-01T12:08:36Z</time>
      </trkpt>
      <trkpt lat="43.25888" lon="-5.1504645">
        <ele>428.0</ele>
        <time>2020-11-01T12:08:37Z</time>
      </trkpt>
      <trkpt lat="43.258884" lon="-5.1504583">
        <ele>429.0</ele>
        <time>2020-11-01T12:08:38Z</time>
      </trkpt>
      <trkpt lat="43.258896" lon="-5.1504526">
        <ele>429.0</ele>
        <time>2020-11-01T12:08:39Z</time>
      </trkpt>
      <trkpt lat="43.2589" lon="-5.150445">
        <ele>429.0</ele>
        <time>2020-11-01T12:08:40Z</time>
      </trkpt>
      <trkpt lat="43.258907" lon="-5.150438">
        <ele>429.0</ele>
        <time>2020-11-01T12:08:41Z</time>
      </trkpt>
      <trkpt lat="43.25891" lon="-5.1504316">
        <ele>429.0</ele>
        <time>2020-11-01T12:08:42Z</time>
      </trkpt>
      <trkpt lat="43.258915" lon="-5.1504264">
        <ele>429.0</ele>
        <time>2020-11-01T12:08:44Z</time>
      </trkpt>
      <trkpt lat="43.258926" lon="-5.150421">
        <ele>429.0</ele>
        <time>2020-11-01T12:08:44Z</time>
      </trkpt>
      <trkpt lat="43.25893" lon="-5.150414">
        <ele>429.0</ele>
        <time>2020-11-01T12:08:45Z</time>
      </trkpt>
      <trkpt lat="43.25894" lon="-5.150405">
        <ele>429.0</ele>
        <time>2020-11-01T12:08:46Z</time>
      </trkpt>
      <trkpt lat="43.258953" lon="-5.1503973">
        <ele>429.0</ele>
        <time>2020-11-01T12:08:47Z</time>
      </trkpt>
      <trkpt lat="43.258957" lon="-5.15039">
        <ele>429.0</ele>
        <time>2020-11-01T12:08:48Z</time>
      </trkpt>
      <trkpt lat="43.25897" lon="-5.1503825">
        <ele>429.0</ele>
        <time>2020-11-01T12:08:49Z</time>
      </trkpt>
      <trkpt lat="43.258972" lon="-5.1503754">
        <ele>429.0</ele>
        <time>2020-11-01T12:08:50Z</time>
      </trkpt>
      <trkpt lat="43.258984" lon="-5.150368">
        <ele>429.0</ele>
        <time>2020-11-01T12:08:51Z</time>
      </trkpt>
      <trkpt lat="43.258987" lon="-5.150362">
        <ele>429.0</ele>
        <time>2020-11-01T12:08:51Z</time>
      </trkpt>
      <trkpt lat="43.25899" lon="-5.150358">
        <ele>429.0</ele>
        <time>2020-11-01T12:08:52Z</time>
      </trkpt>
      <trkpt lat="43.259" lon="-5.1503525">
        <ele>429.0</ele>
        <time>2020-11-01T12:08:53Z</time>
      </trkpt>
      <trkpt lat="43.259007" lon="-5.150346">
        <ele>429.0</ele>
        <time>2020-11-01T12:08:54Z</time>
      </trkpt>
      <trkpt lat="43.259014" lon="-5.1503386">
        <ele>429.0</ele>
        <time>2020-11-01T12:08:55Z</time>
      </trkpt>
      <trkpt lat="43.25902" lon="-5.150331">
        <ele>429.0</ele>
        <time>2020-11-01T12:08:56Z</time>
      </trkpt>
      <trkpt lat="43.25903" lon="-5.1503205">
        <ele>429.0</ele>
        <time>2020-11-01T12:08:57Z</time>
      </trkpt>
      <trkpt lat="43.259037" lon="-5.150309">
        <ele>429.0</ele>
        <time>2020-11-01T12:08:58Z</time>
      </trkpt>
      <trkpt lat="43.259045" lon="-5.150298">
        <ele>429.0</ele>
        <time>2020-11-01T12:08:59Z</time>
      </trkpt>
      <trkpt lat="43.25905" lon="-5.150286">
        <ele>429.0</ele>
        <time>2020-11-01T12:09:00Z</time>
      </trkpt>
      <trkpt lat="43.259052" lon="-5.150275">
        <ele>429.0</ele>
        <time>2020-11-01T12:09:01Z</time>
      </trkpt>
      <trkpt lat="43.25906" lon="-5.150264">
        <ele>429.0</ele>
        <time>2020-11-01T12:09:02Z</time>
      </trkpt>
      <trkpt lat="43.259064" lon="-5.1502523">
        <ele>429.0</ele>
        <time>2020-11-01T12:09:03Z</time>
      </trkpt>
      <trkpt lat="43.259068" lon="-5.150242">
        <ele>430.0</ele>
        <time>2020-11-01T12:09:04Z</time>
      </trkpt>
      <trkpt lat="43.259075" lon="-5.150232">
        <ele>430.0</ele>
        <time>2020-11-01T12:09:06Z</time>
      </trkpt>
      <trkpt lat="43.259087" lon="-5.150222">
        <ele>430.0</ele>
        <time>2020-11-01T12:09:06Z</time>
      </trkpt>
      <trkpt lat="43.25909" lon="-5.150212">
        <ele>430.0</ele>
        <time>2020-11-01T12:09:07Z</time>
      </trkpt>
      <trkpt lat="43.259094" lon="-5.150201">
        <ele>430.0</ele>
        <time>2020-11-01T12:09:08Z</time>
      </trkpt>
      <trkpt lat="43.259106" lon="-5.1501894">
        <ele>430.0</ele>
        <time>2020-11-01T12:09:09Z</time>
      </trkpt>
      <trkpt lat="43.25911" lon="-5.150179">
        <ele>430.0</ele>
        <time>2020-11-01T12:09:10Z</time>
      </trkpt>
      <trkpt lat="43.259117" lon="-5.150169">
        <ele>430.0</ele>
        <time>2020-11-01T12:09:11Z</time>
      </trkpt>
      <trkpt lat="43.259125" lon="-5.1501575">
        <ele>430.0</ele>
        <time>2020-11-01T12:09:12Z</time>
      </trkpt>
      <trkpt lat="43.259136" lon="-5.150149">
        <ele>430.0</ele>
        <time>2020-11-01T12:09:14Z</time>
      </trkpt>
      <trkpt lat="43.25914" lon="-5.1501403">
        <ele>430.0</ele>
        <time>2020-11-01T12:09:14Z</time>
      </trkpt>
      <trkpt lat="43.25915" lon="-5.1501336">
        <ele>430.0</ele>
        <time>2020-11-01T12:09:15Z</time>
      </trkpt>
      <trkpt lat="43.259155" lon="-5.150128">
        <ele>430.0</ele>
        <time>2020-11-01T12:09:16Z</time>
      </trkpt>
      <trkpt lat="43.259167" lon="-5.1501207">
        <ele>430.0</ele>
        <time>2020-11-01T12:09:17Z</time>
      </trkpt>
      <trkpt lat="43.25917" lon="-5.150115">
        <ele>431.0</ele>
        <time>2020-11-01T12:09:18Z</time>
      </trkpt>
      <trkpt lat="43.259182" lon="-5.1501093">
        <ele>431.0</ele>
        <time>2020-11-01T12:09:19Z</time>
      </trkpt>
      <trkpt lat="43.259186" lon="-5.1501045">
        <ele>431.0</ele>
        <time>2020-11-01T12:09:20Z</time>
      </trkpt>
      <trkpt lat="43.259193" lon="-5.1501">
        <ele>431.0</ele>
        <time>2020-11-01T12:09:21Z</time>
      </trkpt>
      <trkpt lat="43.259197" lon="-5.1500926">
        <ele>431.0</ele>
        <time>2020-11-01T12:09:22Z</time>
      </trkpt>
      <trkpt lat="43.259212" lon="-5.150084">
        <ele>431.0</ele>
        <time>2020-11-01T12:09:23Z</time>
      </trkpt>
      <trkpt lat="43.259224" lon="-5.150073">
        <ele>431.0</ele>
        <time>2020-11-01T12:09:24Z</time>
      </trkpt>
      <trkpt lat="43.25923" lon="-5.1500607">
        <ele>431.0</ele>
        <time>2020-11-01T12:09:25Z</time>
      </trkpt>
      <trkpt lat="43.259243" lon="-5.1500463">
        <ele>431.0</ele>
        <time>2020-11-01T12:09:26Z</time>
      </trkpt>
      <trkpt lat="43.259254" lon="-5.1500335">
        <ele>431.0</ele>
        <time>2020-11-01T12:09:27Z</time>
      </trkpt>
      <trkpt lat="43.259266" lon="-5.1500244">
        <ele>431.0</ele>
        <time>2020-11-01T12:09:29Z</time>
      </trkpt>
      <trkpt lat="43.25927" lon="-5.1500154">
        <ele>431.0</ele>
        <time>2020-11-01T12:09:29Z</time>
      </trkpt>
      <trkpt lat="43.25928" lon="-5.150006">
        <ele>431.0</ele>
        <time>2020-11-01T12:09:30Z</time>
      </trkpt>
      <trkpt lat="43.25929" lon="-5.149998">
        <ele>431.0</ele>
        <time>2020-11-01T12:09:31Z</time>
      </trkpt>
      <trkpt lat="43.2593" lon="-5.1499906">
        <ele>432.0</ele>
        <time>2020-11-01T12:09:32Z</time>
      </trkpt>
      <trkpt lat="43.25931" lon="-5.149982">
        <ele>432.0</ele>
        <time>2020-11-01T12:09:33Z</time>
      </trkpt>
      <trkpt lat="43.259315" lon="-5.149972">
        <ele>432.0</ele>
        <time>2020-11-01T12:09:34Z</time>
      </trkpt>
      <trkpt lat="43.259327" lon="-5.1499615">
        <ele>432.0</ele>
        <time>2020-11-01T12:09:35Z</time>
      </trkpt>
      <trkpt lat="43.25933" lon="-5.1499515">
        <ele>432.0</ele>
        <time>2020-11-01T12:09:36Z</time>
      </trkpt>
      <trkpt lat="43.259342" lon="-5.149942">
        <ele>432.0</ele>
        <time>2020-11-01T12:09:37Z</time>
      </trkpt>
      <trkpt lat="43.259346" lon="-5.149934">
        <ele>432.0</ele>
        <time>2020-11-01T12:09:38Z</time>
      </trkpt>
      <trkpt lat="43.259357" lon="-5.1499243">
        <ele>432.0</ele>
        <time>2020-11-01T12:09:39Z</time>
      </trkpt>
      <trkpt lat="43.25936" lon="-5.1499147">
        <ele>432.0</ele>
        <time>2020-11-01T12:09:40Z</time>
      </trkpt>
      <trkpt lat="43.259373" lon="-5.149904">
        <ele>432.0</ele>
        <time>2020-11-01T12:09:41Z</time>
      </trkpt>
      <trkpt lat="43.259377" lon="-5.1498923">
        <ele>432.0</ele>
        <time>2020-11-01T12:09:42Z</time>
      </trkpt>
      <trkpt lat="43.259388" lon="-5.1498823">
        <ele>432.0</ele>
        <time>2020-11-01T12:09:43Z</time>
      </trkpt>
      <trkpt lat="43.259396" lon="-5.1498737">
        <ele>432.0</ele>
        <time>2020-11-01T12:09:44Z</time>
      </trkpt>
      <trkpt lat="43.259403" lon="-5.1498666">
        <ele>433.0</ele>
        <time>2020-11-01T12:09:45Z</time>
      </trkpt>
      <trkpt lat="43.25941" lon="-5.1498613">
        <ele>433.0</ele>
        <time>2020-11-01T12:09:46Z</time>
      </trkpt>
      <trkpt lat="43.259422" lon="-5.1498594">
        <ele>433.0</ele>
        <time>2020-11-01T12:09:47Z</time>
      </trkpt>
      <trkpt lat="43.259426" lon="-5.149861">
        <ele>433.0</ele>
        <time>2020-11-01T12:09:48Z</time>
      </trkpt>
      <trkpt lat="43.259438" lon="-5.149863">
        <ele>433.0</ele>
        <time>2020-11-01T12:09:50Z</time>
      </trkpt>
      <trkpt lat="43.25944" lon="-5.149862">
        <ele>433.0</ele>
        <time>2020-11-01T12:09:50Z</time>
      </trkpt>
      <trkpt lat="43.259453" lon="-5.1498594">
        <ele>433.0</ele>
        <time>2020-11-01T12:09:51Z</time>
      </trkpt>
      <trkpt lat="43.25946" lon="-5.149853">
        <ele>433.0</ele>
        <time>2020-11-01T12:09:52Z</time>
      </trkpt>
      <trkpt lat="43.259464" lon="-5.149846">
        <ele>433.0</ele>
        <time>2020-11-01T12:09:53Z</time>
      </trkpt>
      <trkpt lat="43.259468" lon="-5.149835">
        <ele>433.0</ele>
        <time>2020-11-01T12:09:54Z</time>
      </trkpt>
      <trkpt lat="43.25948" lon="-5.1498237">
        <ele>433.0</ele>
        <time>2020-11-01T12:09:55Z</time>
      </trkpt>
      <trkpt lat="43.25949" lon="-5.1498146">
        <ele>433.0</ele>
        <time>2020-11-01T12:09:56Z</time>
      </trkpt>
      <trkpt lat="43.259495" lon="-5.149809">
        <ele>433.0</ele>
        <time>2020-11-01T12:09:57Z</time>
      </trkpt>
      <trkpt lat="43.259506" lon="-5.149807">
        <ele>433.0</ele>
        <time>2020-11-01T12:09:58Z</time>
      </trkpt>
      <trkpt lat="43.259514" lon="-5.1498046">
        <ele>433.0</ele>
        <time>2020-11-01T12:09:59Z</time>
      </trkpt>
      <trkpt lat="43.259525" lon="-5.1498017">
        <ele>433.0</ele>
        <time>2020-11-01T12:10:00Z</time>
      </trkpt>
      <trkpt lat="43.25954" lon="-5.1497984">
        <ele>434.0</ele>
        <time>2020-11-01T12:10:01Z</time>
      </trkpt>
      <trkpt lat="43.259544" lon="-5.149793">
        <ele>434.0</ele>
        <time>2020-11-01T12:10:02Z</time>
      </trkpt>
      <trkpt lat="43.259556" lon="-5.14979">
        <ele>434.0</ele>
        <time>2020-11-01T12:10:03Z</time>
      </trkpt>
      <trkpt lat="43.259575" lon="-5.1497774">
        <ele>434.0</ele>
        <time>2020-11-01T12:10:05Z</time>
      </trkpt>
      <trkpt lat="43.259575" lon="-5.1497765">
        <ele>434.0</ele>
        <time>2020-11-01T12:10:06Z</time>
      </trkpt>
      <trkpt lat="43.259575" lon="-5.1497726">
        <ele>434.0</ele>
        <time>2020-11-01T12:10:07Z</time>
      </trkpt>
      <trkpt lat="43.259583" lon="-5.149768">
        <ele>434.0</ele>
        <time>2020-11-01T12:10:08Z</time>
      </trkpt>
      <trkpt lat="43.25959" lon="-5.149762">
        <ele>434.0</ele>
        <time>2020-11-01T12:10:09Z</time>
      </trkpt>
      <trkpt lat="43.2596" lon="-5.1497555">
        <ele>434.0</ele>
        <time>2020-11-01T12:10:10Z</time>
      </trkpt>
      <trkpt lat="43.259613" lon="-5.1497483">
        <ele>434.0</ele>
        <time>2020-11-01T12:10:11Z</time>
      </trkpt>
      <trkpt lat="43.259617" lon="-5.1497436">
        <ele>434.0</ele>
        <time>2020-11-01T12:10:12Z</time>
      </trkpt>
      <trkpt lat="43.25962" lon="-5.149736">
        <ele>434.0</ele>
        <time>2020-11-01T12:10:13Z</time>
      </trkpt>
      <trkpt lat="43.25963" lon="-5.14973">
        <ele>434.0</ele>
        <time>2020-11-01T12:10:14Z</time>
      </trkpt>
      <trkpt lat="43.259632" lon="-5.1497235">
        <ele>434.0</ele>
        <time>2020-11-01T12:10:15Z</time>
      </trkpt>
      <trkpt lat="43.259644" lon="-5.1497173">
        <ele>434.0</ele>
        <time>2020-11-01T12:10:16Z</time>
      </trkpt>
      <trkpt lat="43.259647" lon="-5.149711">
        <ele>434.0</ele>
        <time>2020-11-01T12:10:17Z</time>
      </trkpt>
      <trkpt lat="43.259663" lon="-5.1497073">
        <ele>434.0</ele>
        <time>2020-11-01T12:10:18Z</time>
      </trkpt>
      <trkpt lat="43.259674" lon="-5.149704">
        <ele>434.0</ele>
        <time>2020-11-01T12:10:19Z</time>
      </trkpt>
      <trkpt lat="43.25969" lon="-5.1497006">
        <ele>434.0</ele>
        <time>2020-11-01T12:10:21Z</time>
      </trkpt>
      <trkpt lat="43.2597" lon="-5.1496944">
        <ele>434.0</ele>
        <time>2020-11-01T12:10:21Z</time>
      </trkpt>
      <trkpt lat="43.25971" lon="-5.1496873">
        <ele>434.0</ele>
        <time>2020-11-01T12:10:22Z</time>
      </trkpt>
      <trkpt lat="43.25972" lon="-5.149678">
        <ele>434.0</ele>
        <time>2020-11-01T12:10:23Z</time>
      </trkpt>
      <trkpt lat="43.259724" lon="-5.1496654">
        <ele>434.0</ele>
        <time>2020-11-01T12:10:24Z</time>
      </trkpt>
      <trkpt lat="43.25973" lon="-5.1496525">
        <ele>435.0</ele>
        <time>2020-11-01T12:10:25Z</time>
      </trkpt>
      <trkpt lat="43.25973" lon="-5.1496387">
        <ele>435.0</ele>
        <time>2020-11-01T12:10:26Z</time>
      </trkpt>
      <trkpt lat="43.259735" lon="-5.149624">
        <ele>435.0</ele>
        <time>2020-11-01T12:10:27Z</time>
      </trkpt>
      <trkpt lat="43.25974" lon="-5.14961">
        <ele>435.0</ele>
        <time>2020-11-01T12:10:28Z</time>
      </trkpt>
      <trkpt lat="43.25974" lon="-5.149597">
        <ele>435.0</ele>
        <time>2020-11-01T12:10:29Z</time>
      </trkpt>
      <trkpt lat="43.259747" lon="-5.1495857">
        <ele>435.0</ele>
        <time>2020-11-01T12:10:30Z</time>
      </trkpt>
      <trkpt lat="43.25975" lon="-5.1495733">
        <ele>435.0</ele>
        <time>2020-11-01T12:10:31Z</time>
      </trkpt>
      <trkpt lat="43.25976" lon="-5.1495595">
        <ele>435.0</ele>
        <time>2020-11-01T12:10:32Z</time>
      </trkpt>
      <trkpt lat="43.259766" lon="-5.149547">
        <ele>435.0</ele>
        <time>2020-11-01T12:10:33Z</time>
      </trkpt>
      <trkpt lat="43.25977" lon="-5.149535">
        <ele>435.0</ele>
        <time>2020-11-01T12:10:34Z</time>
      </trkpt>
      <trkpt lat="43.259777" lon="-5.149523">
        <ele>435.0</ele>
        <time>2020-11-01T12:10:36Z</time>
      </trkpt>
      <trkpt lat="43.25978" lon="-5.14951">
        <ele>435.0</ele>
        <time>2020-11-01T12:10:36Z</time>
      </trkpt>
      <trkpt lat="43.259785" lon="-5.1494975">
        <ele>435.0</ele>
        <time>2020-11-01T12:10:37Z</time>
      </trkpt>
      <trkpt lat="43.259785" lon="-5.149485">
        <ele>435.0</ele>
        <time>2020-11-01T12:10:38Z</time>
      </trkpt>
      <trkpt lat="43.259792" lon="-5.1494746">
        <ele>435.0</ele>
        <time>2020-11-01T12:10:39Z</time>
      </trkpt>
      <trkpt lat="43.259792" lon="-5.149463">
        <ele>436.0</ele>
        <time>2020-11-01T12:10:40Z</time>
      </trkpt>
      <trkpt lat="43.259796" lon="-5.1494503">
        <ele>436.0</ele>
        <time>2020-11-01T12:10:41Z</time>
      </trkpt>
      <trkpt lat="43.259796" lon="-5.149438">
        <ele>436.0</ele>
        <time>2020-11-01T12:10:42Z</time>
      </trkpt>
      <trkpt lat="43.259796" lon="-5.1494284">
        <ele>436.0</ele>
        <time>2020-11-01T12:10:43Z</time>
      </trkpt>
      <trkpt lat="43.259792" lon="-5.1494203">
        <ele>436.0</ele>
        <time>2020-11-01T12:10:44Z</time>
      </trkpt>
      <trkpt lat="43.259792" lon="-5.1494107">
        <ele>436.0</ele>
        <time>2020-11-01T12:10:45Z</time>
      </trkpt>
      <trkpt lat="43.259785" lon="-5.1494">
        <ele>436.0</ele>
        <time>2020-11-01T12:10:46Z</time>
      </trkpt>
      <trkpt lat="43.25978" lon="-5.149391">
        <ele>436.0</ele>
        <time>2020-11-01T12:10:47Z</time>
      </trkpt>
      <trkpt lat="43.25977" lon="-5.1493845">
        <ele>436.0</ele>
        <time>2020-11-01T12:10:48Z</time>
      </trkpt>
      <trkpt lat="43.25976" lon="-5.149376">
        <ele>436.0</ele>
        <time>2020-11-01T12:10:49Z</time>
      </trkpt>
      <trkpt lat="43.25975" lon="-5.149367">
        <ele>436.0</ele>
        <time>2020-11-01T12:10:50Z</time>
      </trkpt>
      <trkpt lat="43.259747" lon="-5.149359">
        <ele>436.0</ele>
        <time>2020-11-01T12:10:51Z</time>
      </trkpt>
      <trkpt lat="43.259735" lon="-5.149351">
        <ele>436.0</ele>
        <time>2020-11-01T12:10:52Z</time>
      </trkpt>
      <trkpt lat="43.259724" lon="-5.1493416">
        <ele>436.0</ele>
        <time>2020-11-01T12:10:53Z</time>
      </trkpt>
      <trkpt lat="43.25972" lon="-5.149333">
        <ele>436.0</ele>
        <time>2020-11-01T12:10:54Z</time>
      </trkpt>
      <trkpt lat="43.259716" lon="-5.1493235">
        <ele>436.0</ele>
        <time>2020-11-01T12:10:55Z</time>
      </trkpt>
      <trkpt lat="43.25971" lon="-5.1493144">
        <ele>437.0</ele>
        <time>2020-11-01T12:10:57Z</time>
      </trkpt>
      <trkpt lat="43.25971" lon="-5.1493053">
        <ele>437.0</ele>
        <time>2020-11-01T12:10:57Z</time>
      </trkpt>
      <trkpt lat="43.25971" lon="-5.149291">
        <ele>437.0</ele>
        <time>2020-11-01T12:10:58Z</time>
      </trkpt>
      <trkpt lat="43.259716" lon="-5.149275">
        <ele>437.0</ele>
        <time>2020-11-01T12:10:59Z</time>
      </trkpt>
      <trkpt lat="43.259716" lon="-5.1492615">
        <ele>437.0</ele>
        <time>2020-11-01T12:11:00Z</time>
      </trkpt>
      <trkpt lat="43.259716" lon="-5.149251">
        <ele>437.0</ele>
        <time>2020-11-01T12:11:01Z</time>
      </trkpt>
      <trkpt lat="43.25971" lon="-5.149242">
        <ele>437.0</ele>
        <time>2020-11-01T12:11:02Z</time>
      </trkpt>
      <trkpt lat="43.259705" lon="-5.149234">
        <ele>437.0</ele>
        <time>2020-11-01T12:11:03Z</time>
      </trkpt>
      <trkpt lat="43.2597" lon="-5.1492257">
        <ele>437.0</ele>
        <time>2020-11-01T12:11:04Z</time>
      </trkpt>
      <trkpt lat="43.259693" lon="-5.1492167">
        <ele>437.0</ele>
        <time>2020-11-01T12:11:05Z</time>
      </trkpt>
      <trkpt lat="43.25969" lon="-5.1492066">
        <ele>437.0</ele>
        <time>2020-11-01T12:11:06Z</time>
      </trkpt>
      <trkpt lat="43.25969" lon="-5.1491933">
        <ele>437.0</ele>
        <time>2020-11-01T12:11:07Z</time>
      </trkpt>
      <trkpt lat="43.259686" lon="-5.149179">
        <ele>437.0</ele>
        <time>2020-11-01T12:11:08Z</time>
      </trkpt>
      <trkpt lat="43.259686" lon="-5.149166">
        <ele>438.0</ele>
        <time>2020-11-01T12:11:09Z</time>
      </trkpt>
      <trkpt lat="43.259678" lon="-5.149152">
        <ele>438.0</ele>
        <time>2020-11-01T12:11:10Z</time>
      </trkpt>
      <trkpt lat="43.259678" lon="-5.1491346">
        <ele>438.0</ele>
        <time>2020-11-01T12:11:12Z</time>
      </trkpt>
      <trkpt lat="43.259674" lon="-5.1491165">
        <ele>438.0</ele>
        <time>2020-11-01T12:11:12Z</time>
      </trkpt>
      <trkpt lat="43.259674" lon="-5.149098">
        <ele>438.0</ele>
        <time>2020-11-01T12:11:13Z</time>
      </trkpt>
      <trkpt lat="43.25967" lon="-5.1490827">
        <ele>438.0</ele>
        <time>2020-11-01T12:11:14Z</time>
      </trkpt>
      <trkpt lat="43.259663" lon="-5.149072">
        <ele>438.0</ele>
        <time>2020-11-01T12:11:15Z</time>
      </trkpt>
      <trkpt lat="43.259663" lon="-5.149063">
        <ele>438.0</ele>
        <time>2020-11-01T12:11:16Z</time>
      </trkpt>
      <trkpt lat="43.25966" lon="-5.1490555">
        <ele>438.0</ele>
        <time>2020-11-01T12:11:17Z</time>
      </trkpt>
      <trkpt lat="43.25966" lon="-5.1490464">
        <ele>438.0</ele>
        <time>2020-11-01T12:11:18Z</time>
      </trkpt>
      <trkpt lat="43.25966" lon="-5.149035">
        <ele>438.0</ele>
        <time>2020-11-01T12:11:19Z</time>
      </trkpt>
      <trkpt lat="43.25966" lon="-5.149023">
        <ele>438.0</ele>
        <time>2020-11-01T12:11:20Z</time>
      </trkpt>
      <trkpt lat="43.25966" lon="-5.14901">
        <ele>438.0</ele>
        <time>2020-11-01T12:11:21Z</time>
      </trkpt>
      <trkpt lat="43.25966" lon="-5.148998">
        <ele>438.0</ele>
        <time>2020-11-01T12:11:22Z</time>
      </trkpt>
      <trkpt lat="43.259655" lon="-5.1489844">
        <ele>438.0</ele>
        <time>2020-11-01T12:11:23Z</time>
      </trkpt>
      <trkpt lat="43.259647" lon="-5.148973">
        <ele>438.0</ele>
        <time>2020-11-01T12:11:24Z</time>
      </trkpt>
      <trkpt lat="43.259647" lon="-5.148962">
        <ele>438.0</ele>
        <time>2020-11-01T12:11:25Z</time>
      </trkpt>
      <trkpt lat="43.259644" lon="-5.1489525">
        <ele>438.0</ele>
        <time>2020-11-01T12:11:26Z</time>
      </trkpt>
      <trkpt lat="43.259644" lon="-5.1489434">
        <ele>438.0</ele>
        <time>2020-11-01T12:11:27Z</time>
      </trkpt>
      <trkpt lat="43.259636" lon="-5.148935">
        <ele>438.0</ele>
        <time>2020-11-01T12:11:28Z</time>
      </trkpt>
      <trkpt lat="43.25963" lon="-5.148927">
        <ele>438.0</ele>
        <time>2020-11-01T12:11:29Z</time>
      </trkpt>
      <trkpt lat="43.25962" lon="-5.1489196">
        <ele>438.0</ele>
        <time>2020-11-01T12:11:30Z</time>
      </trkpt>
      <trkpt lat="43.259617" lon="-5.148913">
        <ele>438.0</ele>
        <time>2020-11-01T12:11:31Z</time>
      </trkpt>
      <trkpt lat="43.259613" lon="-5.1489053">
        <ele>438.0</ele>
        <time>2020-11-01T12:11:32Z</time>
      </trkpt>
      <trkpt lat="43.259605" lon="-5.148898">
        <ele>438.0</ele>
        <time>2020-11-01T12:11:33Z</time>
      </trkpt>
      <trkpt lat="43.259598" lon="-5.148892">
        <ele>438.0</ele>
        <time>2020-11-01T12:11:35Z</time>
      </trkpt>
      <trkpt lat="43.259586" lon="-5.1488867">
        <ele>439.0</ele>
        <time>2020-11-01T12:11:35Z</time>
      </trkpt>
      <trkpt lat="43.259583" lon="-5.1488824">
        <ele>439.0</ele>
        <time>2020-11-01T12:11:36Z</time>
      </trkpt>
      <trkpt lat="43.259575" lon="-5.148878">
        <ele>439.0</ele>
        <time>2020-11-01T12:11:37Z</time>
      </trkpt>
      <trkpt lat="43.25957" lon="-5.148874">
        <ele>439.0</ele>
        <time>2020-11-01T12:11:38Z</time>
      </trkpt>
      <trkpt lat="43.259567" lon="-5.14887">
        <ele>439.0</ele>
        <time>2020-11-01T12:11:39Z</time>
      </trkpt>
      <trkpt lat="43.25956" lon="-5.148867">
        <ele>439.0</ele>
        <time>2020-11-01T12:11:40Z</time>
      </trkpt>
      <trkpt lat="43.259556" lon="-5.1488657">
        <ele>439.0</ele>
        <time>2020-11-01T12:11:41Z</time>
      </trkpt>
      <trkpt lat="43.259552" lon="-5.1488643">
        <ele>439.0</ele>
        <time>2020-11-01T12:11:43Z</time>
      </trkpt>
      <trkpt lat="43.259544" lon="-5.148862">
        <ele>439.0</ele>
        <time>2020-11-01T12:11:43Z</time>
      </trkpt>
      <trkpt lat="43.25953" lon="-5.148848">
        <ele>439.0</ele>
        <time>2020-11-01T12:11:45Z</time>
      </trkpt>
      <trkpt lat="43.25953" lon="-5.148847">
        <ele>439.0</ele>
        <time>2020-11-01T12:11:46Z</time>
      </trkpt>
      <trkpt lat="43.259525" lon="-5.1488423">
        <ele>439.0</ele>
        <time>2020-11-01T12:11:47Z</time>
      </trkpt>
      <trkpt lat="43.259525" lon="-5.1488333">
        <ele>439.0</ele>
        <time>2020-11-01T12:11:48Z</time>
      </trkpt>
      <trkpt lat="43.25952" lon="-5.1488214">
        <ele>439.0</ele>
        <time>2020-11-01T12:11:49Z</time>
      </trkpt>
      <trkpt lat="43.25951" lon="-5.1488094">
        <ele>440.0</ele>
        <time>2020-11-01T12:11:50Z</time>
      </trkpt>
      <trkpt lat="43.259506" lon="-5.1487985">
        <ele>440.0</ele>
        <time>2020-11-01T12:11:51Z</time>
      </trkpt>
      <trkpt lat="43.2595" lon="-5.1487875">
        <ele>440.0</ele>
        <time>2020-11-01T12:11:52Z</time>
      </trkpt>
      <trkpt lat="43.259483" lon="-5.14876">
        <ele>440.0</ele>
        <time>2020-11-01T12:11:54Z</time>
      </trkpt>
      <trkpt lat="43.259483" lon="-5.1487565">
        <ele>440.0</ele>
        <time>2020-11-01T12:11:55Z</time>
      </trkpt>
      <trkpt lat="43.25948" lon="-5.1487412">
        <ele>440.0</ele>
        <time>2020-11-01T12:11:57Z</time>
      </trkpt>
      <trkpt lat="43.25948" lon="-5.1487374">
        <ele>440.0</ele>
        <time>2020-11-01T12:11:58Z</time>
      </trkpt>
      <trkpt lat="43.25948" lon="-5.1487336">
        <ele>440.0</ele>
        <time>2020-11-01T12:11:59Z</time>
      </trkpt>
      <trkpt lat="43.25948" lon="-5.1487246">
        <ele>440.0</ele>
        <time>2020-11-01T12:12:00Z</time>
      </trkpt>
      <trkpt lat="43.259476" lon="-5.148712">
        <ele>440.0</ele>
        <time>2020-11-01T12:12:01Z</time>
      </trkpt>
      <trkpt lat="43.259468" lon="-5.1486993">
        <ele>440.0</ele>
        <time>2020-11-01T12:12:02Z</time>
      </trkpt>
      <trkpt lat="43.259464" lon="-5.1486864">
        <ele>440.0</ele>
        <time>2020-11-01T12:12:03Z</time>
      </trkpt>
      <trkpt lat="43.25945" lon="-5.148675">
        <ele>441.0</ele>
        <time>2020-11-01T12:12:04Z</time>
      </trkpt>
      <trkpt lat="43.259438" lon="-5.1486635">
        <ele>441.0</ele>
        <time>2020-11-01T12:12:05Z</time>
      </trkpt>
      <trkpt lat="43.259422" lon="-5.148652">
        <ele>441.0</ele>
        <time>2020-11-01T12:12:06Z</time>
      </trkpt>
      <trkpt lat="43.259407" lon="-5.1486363">
        <ele>441.0</ele>
        <time>2020-11-01T12:12:07Z</time>
      </trkpt>
      <trkpt lat="43.259388" lon="-5.1486206">
        <ele>441.0</ele>
        <time>2020-11-01T12:12:08Z</time>
      </trkpt>
      <trkpt lat="43.259377" lon="-5.148609">
        <ele>441.0</ele>
        <time>2020-11-01T12:12:09Z</time>
      </trkpt>
      <trkpt lat="43.259365" lon="-5.148602">
        <ele>441.0</ele>
        <time>2020-11-01T12:12:10Z</time>
      </trkpt>
      <trkpt lat="43.259357" lon="-5.1485944">
        <ele>441.0</ele>
        <time>2020-11-01T12:12:11Z</time>
      </trkpt>
      <trkpt lat="43.25935" lon="-5.1485853">
        <ele>441.0</ele>
        <time>2020-11-01T12:12:13Z</time>
      </trkpt>
      <trkpt lat="43.259342" lon="-5.1485763">
        <ele>441.0</ele>
        <time>2020-11-01T12:12:13Z</time>
      </trkpt>
      <trkpt lat="43.25933" lon="-5.148566">
        <ele>441.0</ele>
        <time>2020-11-01T12:12:14Z</time>
      </trkpt>
      <trkpt lat="43.259327" lon="-5.148556">
        <ele>441.0</ele>
        <time>2020-11-01T12:12:15Z</time>
      </trkpt>
      <trkpt lat="43.25932" lon="-5.1485453">
        <ele>442.0</ele>
        <time>2020-11-01T12:12:16Z</time>
      </trkpt>
      <trkpt lat="43.25931" lon="-5.14853">
        <ele>442.0</ele>
        <time>2020-11-01T12:12:17Z</time>
      </trkpt>
      <trkpt lat="43.2593" lon="-5.148514">
        <ele>442.0</ele>
        <time>2020-11-01T12:12:18Z</time>
      </trkpt>
      <trkpt lat="43.25929" lon="-5.148499">
        <ele>442.0</ele>
        <time>2020-11-01T12:12:19Z</time>
      </trkpt>
      <trkpt lat="43.25928" lon="-5.1484857">
        <ele>442.0</ele>
        <time>2020-11-01T12:12:20Z</time>
      </trkpt>
      <trkpt lat="43.25927" lon="-5.148474">
        <ele>442.0</ele>
        <time>2020-11-01T12:12:21Z</time>
      </trkpt>
      <trkpt lat="43.259266" lon="-5.1484632">
        <ele>442.0</ele>
        <time>2020-11-01T12:12:22Z</time>
      </trkpt>
      <trkpt lat="43.259254" lon="-5.148451">
        <ele>442.0</ele>
        <time>2020-11-01T12:12:23Z</time>
      </trkpt>
      <trkpt lat="43.259247" lon="-5.14844">
        <ele>442.0</ele>
        <time>2020-11-01T12:12:24Z</time>
      </trkpt>
      <trkpt lat="43.25924" lon="-5.148431">
        <ele>442.0</ele>
        <time>2020-11-01T12:12:25Z</time>
      </trkpt>
      <trkpt lat="43.25923" lon="-5.1484203">
        <ele>442.0</ele>
        <time>2020-11-01T12:12:26Z</time>
      </trkpt>
      <trkpt lat="43.259228" lon="-5.14841">
        <ele>442.0</ele>
        <time>2020-11-01T12:12:28Z</time>
      </trkpt>
      <trkpt lat="43.259224" lon="-5.148398">
        <ele>442.0</ele>
        <time>2020-11-01T12:12:28Z</time>
      </trkpt>
      <trkpt lat="43.259216" lon="-5.1483865">
        <ele>442.0</ele>
        <time>2020-11-01T12:12:29Z</time>
      </trkpt>
      <trkpt lat="43.259216" lon="-5.1483774">
        <ele>442.0</ele>
        <time>2020-11-01T12:12:30Z</time>
      </trkpt>
      <trkpt lat="43.259212" lon="-5.148369">
        <ele>443.0</ele>
        <time>2020-11-01T12:12:31Z</time>
      </trkpt>
      <trkpt lat="43.25921" lon="-5.148359">
        <ele>443.0</ele>
        <time>2020-11-01T12:12:32Z</time>
      </trkpt>
      <trkpt lat="43.2592" lon="-5.1483483">
        <ele>443.0</ele>
        <time>2020-11-01T12:12:33Z</time>
      </trkpt>
      <trkpt lat="43.259197" lon="-5.148335">
        <ele>443.0</ele>
        <time>2020-11-01T12:12:34Z</time>
      </trkpt>
      <trkpt lat="43.259193" lon="-5.1483207">
        <ele>443.0</ele>
        <time>2020-11-01T12:12:36Z</time>
      </trkpt>
      <trkpt lat="43.259193" lon="-5.1483064">
        <ele>443.0</ele>
        <time>2020-11-01T12:12:36Z</time>
      </trkpt>
      <trkpt lat="43.259186" lon="-5.1482925">
        <ele>443.0</ele>
        <time>2020-11-01T12:12:37Z</time>
      </trkpt>
      <trkpt lat="43.259186" lon="-5.148279">
        <ele>443.0</ele>
        <time>2020-11-01T12:12:38Z</time>
      </trkpt>
      <trkpt lat="43.259182" lon="-5.1482673">
        <ele>443.0</ele>
        <time>2020-11-01T12:12:39Z</time>
      </trkpt>
      <trkpt lat="43.25918" lon="-5.148255">
        <ele>443.0</ele>
        <time>2020-11-01T12:12:40Z</time>
      </trkpt>
      <trkpt lat="43.25918" lon="-5.14824">
        <ele>443.0</ele>
        <time>2020-11-01T12:12:41Z</time>
      </trkpt>
      <trkpt lat="43.259182" lon="-5.148223">
        <ele>443.0</ele>
        <time>2020-11-01T12:12:42Z</time>
      </trkpt>
      <trkpt lat="43.259182" lon="-5.1482043">
        <ele>443.0</ele>
        <time>2020-11-01T12:12:43Z</time>
      </trkpt>
      <trkpt lat="43.259182" lon="-5.1481857">
        <ele>443.0</ele>
        <time>2020-11-01T12:12:44Z</time>
      </trkpt>
      <trkpt lat="43.259182" lon="-5.148168">
        <ele>443.0</ele>
        <time>2020-11-01T12:12:45Z</time>
      </trkpt>
      <trkpt lat="43.259182" lon="-5.148152">
        <ele>443.0</ele>
        <time>2020-11-01T12:12:46Z</time>
      </trkpt>
      <trkpt lat="43.259182" lon="-5.148136">
        <ele>443.0</ele>
        <time>2020-11-01T12:12:47Z</time>
      </trkpt>
      <trkpt lat="43.259182" lon="-5.1481194">
        <ele>443.0</ele>
        <time>2020-11-01T12:12:48Z</time>
      </trkpt>
      <trkpt lat="43.25918" lon="-5.1481023">
        <ele>443.0</ele>
        <time>2020-11-01T12:12:49Z</time>
      </trkpt>
      <trkpt lat="43.25918" lon="-5.148085">
        <ele>443.0</ele>
        <time>2020-11-01T12:12:50Z</time>
      </trkpt>
      <trkpt lat="43.25918" lon="-5.148068">
        <ele>443.0</ele>
        <time>2020-11-01T12:12:51Z</time>
      </trkpt>
      <trkpt lat="43.25918" lon="-5.1480513">
        <ele>443.0</ele>
        <time>2020-11-01T12:12:52Z</time>
      </trkpt>
      <trkpt lat="43.25918" lon="-5.148035">
        <ele>443.0</ele>
        <time>2020-11-01T12:12:53Z</time>
      </trkpt>
      <trkpt lat="43.25918" lon="-5.148021">
        <ele>443.0</ele>
        <time>2020-11-01T12:12:54Z</time>
      </trkpt>
      <trkpt lat="43.25918" lon="-5.148009">
        <ele>443.0</ele>
        <time>2020-11-01T12:12:56Z</time>
      </trkpt>
      <trkpt lat="43.25918" lon="-5.147999">
        <ele>443.0</ele>
        <time>2020-11-01T12:12:56Z</time>
      </trkpt>
      <trkpt lat="43.25918" lon="-5.1479897">
        <ele>444.0</ele>
        <time>2020-11-01T12:12:57Z</time>
      </trkpt>
      <trkpt lat="43.25917" lon="-5.1479807">
        <ele>444.0</ele>
        <time>2020-11-01T12:12:58Z</time>
      </trkpt>
      <trkpt lat="43.25917" lon="-5.147972">
        <ele>444.0</ele>
        <time>2020-11-01T12:12:59Z</time>
      </trkpt>
      <trkpt lat="43.25917" lon="-5.147963">
        <ele>444.0</ele>
        <time>2020-11-01T12:13:00Z</time>
      </trkpt>
      <trkpt lat="43.25917" lon="-5.147951">
        <ele>444.0</ele>
        <time>2020-11-01T12:13:01Z</time>
      </trkpt>
      <trkpt lat="43.25917" lon="-5.1479373">
        <ele>444.0</ele>
        <time>2020-11-01T12:13:02Z</time>
      </trkpt>
      <trkpt lat="43.25918" lon="-5.14792">
        <ele>444.0</ele>
        <time>2020-11-01T12:13:03Z</time>
      </trkpt>
      <trkpt lat="43.25918" lon="-5.147902">
        <ele>444.0</ele>
        <time>2020-11-01T12:13:04Z</time>
      </trkpt>
      <trkpt lat="43.25918" lon="-5.1478815">
        <ele>444.0</ele>
        <time>2020-11-01T12:13:05Z</time>
      </trkpt>
      <trkpt lat="43.25917" lon="-5.1478615">
        <ele>444.0</ele>
        <time>2020-11-01T12:13:06Z</time>
      </trkpt>
      <trkpt lat="43.259163" lon="-5.1478415">
        <ele>444.0</ele>
        <time>2020-11-01T12:13:06Z</time>
      </trkpt>
      <trkpt lat="43.25915" lon="-5.147823">
        <ele>444.0</ele>
        <time>2020-11-01T12:13:07Z</time>
      </trkpt>
      <trkpt lat="43.259148" lon="-5.147807">
        <ele>444.0</ele>
        <time>2020-11-01T12:13:08Z</time>
      </trkpt>
      <trkpt lat="43.25914" lon="-5.1477923">
        <ele>444.0</ele>
        <time>2020-11-01T12:13:10Z</time>
      </trkpt>
      <trkpt lat="43.25914" lon="-5.147776">
        <ele>445.0</ele>
        <time>2020-11-01T12:13:10Z</time>
      </trkpt>
      <trkpt lat="43.25914" lon="-5.1477594">
        <ele>445.0</ele>
        <time>2020-11-01T12:13:11Z</time>
      </trkpt>
      <trkpt lat="43.25914" lon="-5.147744">
        <ele>445.0</ele>
        <time>2020-11-01T12:13:12Z</time>
      </trkpt>
      <trkpt lat="43.25914" lon="-5.147728">
        <ele>445.0</ele>
        <time>2020-11-01T12:13:13Z</time>
      </trkpt>
      <trkpt lat="43.25914" lon="-5.147714">
        <ele>445.0</ele>
        <time>2020-11-01T12:13:14Z</time>
      </trkpt>
      <trkpt lat="43.25914" lon="-5.147699">
        <ele>445.0</ele>
        <time>2020-11-01T12:13:15Z</time>
      </trkpt>
      <trkpt lat="43.25914" lon="-5.147686">
        <ele>445.0</ele>
        <time>2020-11-01T12:13:16Z</time>
      </trkpt>
      <trkpt lat="43.25914" lon="-5.147675">
        <ele>445.0</ele>
        <time>2020-11-01T12:13:17Z</time>
      </trkpt>
      <trkpt lat="43.25914" lon="-5.1476655">
        <ele>445.0</ele>
        <time>2020-11-01T12:13:18Z</time>
      </trkpt>
      <trkpt lat="43.25914" lon="-5.1476555">
        <ele>445.0</ele>
        <time>2020-11-01T12:13:19Z</time>
      </trkpt>
      <trkpt lat="43.25914" lon="-5.1476436">
        <ele>445.0</ele>
        <time>2020-11-01T12:13:20Z</time>
      </trkpt>
      <trkpt lat="43.259148" lon="-5.1476297">
        <ele>445.0</ele>
        <time>2020-11-01T12:13:21Z</time>
      </trkpt>
      <trkpt lat="43.259148" lon="-5.1476164">
        <ele>445.0</ele>
        <time>2020-11-01T12:13:22Z</time>
      </trkpt>
      <trkpt lat="43.259155" lon="-5.1476007">
        <ele>446.0</ele>
        <time>2020-11-01T12:13:23Z</time>
      </trkpt>
      <trkpt lat="43.259163" lon="-5.1475854">
        <ele>446.0</ele>
        <time>2020-11-01T12:13:24Z</time>
      </trkpt>
      <trkpt lat="43.25917" lon="-5.147571">
        <ele>446.0</ele>
        <time>2020-11-01T12:13:26Z</time>
      </trkpt>
      <trkpt lat="43.259182" lon="-5.147559">
        <ele>446.0</ele>
        <time>2020-11-01T12:13:26Z</time>
      </trkpt>
      <trkpt lat="43.259186" lon="-5.1475477">
        <ele>446.0</ele>
        <time>2020-11-01T12:13:27Z</time>
      </trkpt>
      <trkpt lat="43.2592" lon="-5.147535">
        <ele>446.0</ele>
        <time>2020-11-01T12:13:28Z</time>
      </trkpt>
      <trkpt lat="43.259212" lon="-5.147522">
        <ele>446.0</ele>
        <time>2020-11-01T12:13:29Z</time>
      </trkpt>
      <trkpt lat="43.259224" lon="-5.147509">
        <ele>446.0</ele>
        <time>2020-11-01T12:13:30Z</time>
      </trkpt>
      <trkpt lat="43.259228" lon="-5.147494">
        <ele>446.0</ele>
        <time>2020-11-01T12:13:31Z</time>
      </trkpt>
      <trkpt lat="43.25924" lon="-5.1474757">
        <ele>446.0</ele>
        <time>2020-11-01T12:13:32Z</time>
      </trkpt>
      <trkpt lat="43.259243" lon="-5.1474595">
        <ele>446.0</ele>
        <time>2020-11-01T12:13:33Z</time>
      </trkpt>
      <trkpt lat="43.259254" lon="-5.147445">
        <ele>446.0</ele>
        <time>2020-11-01T12:13:34Z</time>
      </trkpt>
      <trkpt lat="43.25926" lon="-5.1474314">
        <ele>447.0</ele>
        <time>2020-11-01T12:13:35Z</time>
      </trkpt>
      <trkpt lat="43.259266" lon="-5.147417">
        <ele>447.0</ele>
        <time>2020-11-01T12:13:36Z</time>
      </trkpt>
      <trkpt lat="43.259266" lon="-5.1474004">
        <ele>447.0</ele>
        <time>2020-11-01T12:13:37Z</time>
      </trkpt>
      <trkpt lat="43.259266" lon="-5.147382">
        <ele>447.0</ele>
        <time>2020-11-01T12:13:38Z</time>
      </trkpt>
      <trkpt lat="43.25927" lon="-5.1473637">
        <ele>447.0</ele>
        <time>2020-11-01T12:13:39Z</time>
      </trkpt>
      <trkpt lat="43.25927" lon="-5.1473475">
        <ele>447.0</ele>
        <time>2020-11-01T12:13:41Z</time>
      </trkpt>
      <trkpt lat="43.25927" lon="-5.1473355">
        <ele>447.0</ele>
        <time>2020-11-01T12:13:41Z</time>
      </trkpt>
      <trkpt lat="43.259274" lon="-5.147326">
        <ele>447.0</ele>
        <time>2020-11-01T12:13:42Z</time>
      </trkpt>
      <trkpt lat="43.259274" lon="-5.147313">
        <ele>447.0</ele>
        <time>2020-11-01T12:13:43Z</time>
      </trkpt>
      <trkpt lat="43.259274" lon="-5.1473">
        <ele>447.0</ele>
        <time>2020-11-01T12:13:44Z</time>
      </trkpt>
      <trkpt lat="43.259274" lon="-5.147285">
        <ele>447.0</ele>
        <time>2020-11-01T12:13:45Z</time>
      </trkpt>
      <trkpt lat="43.259274" lon="-5.147271">
        <ele>447.0</ele>
        <time>2020-11-01T12:13:46Z</time>
      </trkpt>
      <trkpt lat="43.259274" lon="-5.1472588">
        <ele>447.0</ele>
        <time>2020-11-01T12:13:47Z</time>
      </trkpt>
      <trkpt lat="43.25927" lon="-5.1472473">
        <ele>447.0</ele>
        <time>2020-11-01T12:13:48Z</time>
      </trkpt>
      <trkpt lat="43.25927" lon="-5.147236">
        <ele>447.0</ele>
        <time>2020-11-01T12:13:49Z</time>
      </trkpt>
      <trkpt lat="43.25927" lon="-5.147223">
        <ele>447.0</ele>
        <time>2020-11-01T12:13:50Z</time>
      </trkpt>
      <trkpt lat="43.25927" lon="-5.147209">
        <ele>447.0</ele>
        <time>2020-11-01T12:13:51Z</time>
      </trkpt>
      <trkpt lat="43.259266" lon="-5.1471963">
        <ele>447.0</ele>
        <time>2020-11-01T12:13:52Z</time>
      </trkpt>
      <trkpt lat="43.259266" lon="-5.147184">
        <ele>447.0</ele>
        <time>2020-11-01T12:13:54Z</time>
      </trkpt>
      <trkpt lat="43.25926" lon="-5.147172">
        <ele>447.0</ele>
        <time>2020-11-01T12:13:54Z</time>
      </trkpt>
      <trkpt lat="43.259254" lon="-5.147162">
        <ele>447.0</ele>
        <time>2020-11-01T12:13:55Z</time>
      </trkpt>
      <trkpt lat="43.259254" lon="-5.1471534">
        <ele>447.0</ele>
        <time>2020-11-01T12:13:56Z</time>
      </trkpt>
      <trkpt lat="43.259254" lon="-5.1471453">
        <ele>447.0</ele>
        <time>2020-11-01T12:13:57Z</time>
      </trkpt>
      <trkpt lat="43.259247" lon="-5.1471353">
        <ele>447.0</ele>
        <time>2020-11-01T12:13:58Z</time>
      </trkpt>
      <trkpt lat="43.259247" lon="-5.1471267">
        <ele>447.0</ele>
        <time>2020-11-01T12:13:59Z</time>
      </trkpt>
      <trkpt lat="43.259247" lon="-5.1471167">
        <ele>448.0</ele>
        <time>2020-11-01T12:14:00Z</time>
      </trkpt>
      <trkpt lat="43.259247" lon="-5.1471057">
        <ele>448.0</ele>
        <time>2020-11-01T12:14:01Z</time>
      </trkpt>
      <trkpt lat="43.259247" lon="-5.1470947">
        <ele>448.0</ele>
        <time>2020-11-01T12:14:02Z</time>
      </trkpt>
      <trkpt lat="43.259247" lon="-5.1470857">
        <ele>448.0</ele>
        <time>2020-11-01T12:14:03Z</time>
      </trkpt>
      <trkpt lat="43.259247" lon="-5.1470766">
        <ele>448.0</ele>
        <time>2020-11-01T12:14:04Z</time>
      </trkpt>
      <trkpt lat="43.259243" lon="-5.1470685">
        <ele>448.0</ele>
        <time>2020-11-01T12:14:05Z</time>
      </trkpt>
      <trkpt lat="43.259243" lon="-5.1470623">
        <ele>448.0</ele>
        <time>2020-11-01T12:14:06Z</time>
      </trkpt>
      <trkpt lat="43.259243" lon="-5.147055">
        <ele>448.0</ele>
        <time>2020-11-01T12:14:07Z</time>
      </trkpt>
      <trkpt lat="43.259247" lon="-5.1470485">
        <ele>448.0</ele>
        <time>2020-11-01T12:14:08Z</time>
      </trkpt>
      <trkpt lat="43.259247" lon="-5.14704">
        <ele>448.0</ele>
        <time>2020-11-01T12:14:09Z</time>
      </trkpt>
      <trkpt lat="43.259254" lon="-5.1470284">
        <ele>448.0</ele>
        <time>2020-11-01T12:14:10Z</time>
      </trkpt>
      <trkpt lat="43.259254" lon="-5.147014">
        <ele>449.0</ele>
        <time>2020-11-01T12:14:11Z</time>
      </trkpt>
      <trkpt lat="43.259247" lon="-5.1469994">
        <ele>449.0</ele>
        <time>2020-11-01T12:14:12Z</time>
      </trkpt>
      <trkpt lat="43.259243" lon="-5.146986">
        <ele>449.0</ele>
        <time>2020-11-01T12:14:13Z</time>
      </trkpt>
      <trkpt lat="43.259243" lon="-5.146973">
        <ele>449.0</ele>
        <time>2020-11-01T12:14:14Z</time>
      </trkpt>
      <trkpt lat="43.259243" lon="-5.14696">
        <ele>449.0</ele>
        <time>2020-11-01T12:14:15Z</time>
      </trkpt>
      <trkpt lat="43.25924" lon="-5.1469464">
        <ele>449.0</ele>
        <time>2020-11-01T12:14:17Z</time>
      </trkpt>
      <trkpt lat="43.25924" lon="-5.1469307">
        <ele>449.0</ele>
        <time>2020-11-01T12:14:17Z</time>
      </trkpt>
      <trkpt lat="43.25923" lon="-5.146915">
        <ele>449.0</ele>
        <time>2020-11-01T12:14:18Z</time>
      </trkpt>
      <trkpt lat="43.25923" lon="-5.1468983">
        <ele>449.0</ele>
        <time>2020-11-01T12:14:19Z</time>
      </trkpt>
      <trkpt lat="43.259228" lon="-5.146879">
        <ele>449.0</ele>
        <time>2020-11-01T12:14:20Z</time>
      </trkpt>
      <trkpt lat="43.259228" lon="-5.1468577">
        <ele>449.0</ele>
        <time>2020-11-01T12:14:21Z</time>
      </trkpt>
      <trkpt lat="43.259228" lon="-5.1468353">
        <ele>449.0</ele>
        <time>2020-11-01T12:14:22Z</time>
      </trkpt>
      <trkpt lat="43.259224" lon="-5.1468163">
        <ele>449.0</ele>
        <time>2020-11-01T12:14:23Z</time>
      </trkpt>
      <trkpt lat="43.259228" lon="-5.1467996">
        <ele>449.0</ele>
        <time>2020-11-01T12:14:24Z</time>
      </trkpt>
      <trkpt lat="43.259228" lon="-5.146784">
        <ele>449.0</ele>
        <time>2020-11-01T12:14:25Z</time>
      </trkpt>
      <trkpt lat="43.259228" lon="-5.146772">
        <ele>450.0</ele>
        <time>2020-11-01T12:14:26Z</time>
      </trkpt>
      <trkpt lat="43.25923" lon="-5.1467576">
        <ele>450.0</ele>
        <time>2020-11-01T12:14:27Z</time>
      </trkpt>
      <trkpt lat="43.25924" lon="-5.1467414">
        <ele>450.0</ele>
        <time>2020-11-01T12:14:28Z</time>
      </trkpt>
      <trkpt lat="43.259243" lon="-5.1467257">
        <ele>450.0</ele>
        <time>2020-11-01T12:14:29Z</time>
      </trkpt>
      <trkpt lat="43.259247" lon="-5.14671">
        <ele>450.0</ele>
        <time>2020-11-01T12:14:30Z</time>
      </trkpt>
      <trkpt lat="43.259254" lon="-5.146693">
        <ele>450.0</ele>
        <time>2020-11-01T12:14:31Z</time>
      </trkpt>
      <trkpt lat="43.259266" lon="-5.146675">
        <ele>450.0</ele>
        <time>2020-11-01T12:14:32Z</time>
      </trkpt>
      <trkpt lat="43.25927" lon="-5.1466613">
        <ele>450.0</ele>
        <time>2020-11-01T12:14:33Z</time>
      </trkpt>
      <trkpt lat="43.259274" lon="-5.1466465">
        <ele>450.0</ele>
        <time>2020-11-01T12:14:34Z</time>
      </trkpt>
      <trkpt lat="43.259285" lon="-5.146635">
        <ele>450.0</ele>
        <time>2020-11-01T12:14:35Z</time>
      </trkpt>
      <trkpt lat="43.25929" lon="-5.146623">
        <ele>451.0</ele>
        <time>2020-11-01T12:14:36Z</time>
      </trkpt>
      <trkpt lat="43.259296" lon="-5.1466117">
        <ele>451.0</ele>
        <time>2020-11-01T12:14:37Z</time>
      </trkpt>
      <trkpt lat="43.259296" lon="-5.1465993">
        <ele>451.0</ele>
        <time>2020-11-01T12:14:39Z</time>
      </trkpt>
      <trkpt lat="43.2593" lon="-5.146585">
        <ele>451.0</ele>
        <time>2020-11-01T12:14:39Z</time>
      </trkpt>
      <trkpt lat="43.259304" lon="-5.14657">
        <ele>451.0</ele>
        <time>2020-11-01T12:14:40Z</time>
      </trkpt>
      <trkpt lat="43.259304" lon="-5.146554">
        <ele>451.0</ele>
        <time>2020-11-01T12:14:41Z</time>
      </trkpt>
      <trkpt lat="43.25931" lon="-5.1465354">
        <ele>451.0</ele>
        <time>2020-11-01T12:14:42Z</time>
      </trkpt>
      <trkpt lat="43.25931" lon="-5.146519">
        <ele>451.0</ele>
        <time>2020-11-01T12:14:43Z</time>
      </trkpt>
      <trkpt lat="43.259315" lon="-5.1465044">
        <ele>451.0</ele>
        <time>2020-11-01T12:14:45Z</time>
      </trkpt>
      <trkpt lat="43.259315" lon="-5.1464906">
        <ele>451.0</ele>
        <time>2020-11-01T12:14:45Z</time>
      </trkpt>
      <trkpt lat="43.25932" lon="-5.146477">
        <ele>451.0</ele>
        <time>2020-11-01T12:14:46Z</time>
      </trkpt>
      <trkpt lat="43.259327" lon="-5.146466">
        <ele>451.0</ele>
        <time>2020-11-01T12:14:47Z</time>
      </trkpt>
      <trkpt lat="43.259327" lon="-5.1464577">
        <ele>452.0</ele>
        <time>2020-11-01T12:14:48Z</time>
      </trkpt>
      <trkpt lat="43.259327" lon="-5.14645">
        <ele>452.0</ele>
        <time>2020-11-01T12:14:49Z</time>
      </trkpt>
      <trkpt lat="43.259327" lon="-5.1464443">
        <ele>452.0</ele>
        <time>2020-11-01T12:14:50Z</time>
      </trkpt>
      <trkpt lat="43.25933" lon="-5.1464386">
        <ele>452.0</ele>
        <time>2020-11-01T12:14:51Z</time>
      </trkpt>
      <trkpt lat="43.25933" lon="-5.1464305">
        <ele>452.0</ele>
        <time>2020-11-01T12:14:52Z</time>
      </trkpt>
      <trkpt lat="43.25933" lon="-5.14642">
        <ele>452.0</ele>
        <time>2020-11-01T12:14:53Z</time>
      </trkpt>
      <trkpt lat="43.259335" lon="-5.146405">
        <ele>452.0</ele>
        <time>2020-11-01T12:14:54Z</time>
      </trkpt>
      <trkpt lat="43.259342" lon="-5.146382">
        <ele>452.0</ele>
        <time>2020-11-01T12:14:55Z</time>
      </trkpt>
      <trkpt lat="43.259346" lon="-5.1463594">
        <ele>452.0</ele>
        <time>2020-11-01T12:14:56Z</time>
      </trkpt>
      <trkpt lat="43.259346" lon="-5.1463404">
        <ele>452.0</ele>
        <time>2020-11-01T12:14:57Z</time>
      </trkpt>
      <trkpt lat="43.25935" lon="-5.146324">
        <ele>452.0</ele>
        <time>2020-11-01T12:14:58Z</time>
      </trkpt>
      <trkpt lat="43.259357" lon="-5.14631">
        <ele>452.0</ele>
        <time>2020-11-01T12:14:59Z</time>
      </trkpt>
      <trkpt lat="43.25936" lon="-5.1462984">
        <ele>452.0</ele>
        <time>2020-11-01T12:15:00Z</time>
      </trkpt>
      <trkpt lat="43.259373" lon="-5.1462884">
        <ele>452.0</ele>
        <time>2020-11-01T12:15:01Z</time>
      </trkpt>
      <trkpt lat="43.259377" lon="-5.1462774">
        <ele>452.0</ele>
        <time>2020-11-01T12:15:02Z</time>
      </trkpt>
      <trkpt lat="43.25938" lon="-5.1462665">
        <ele>452.0</ele>
        <time>2020-11-01T12:15:03Z</time>
      </trkpt>
      <trkpt lat="43.259388" lon="-5.1462536">
        <ele>452.0</ele>
        <time>2020-11-01T12:15:04Z</time>
      </trkpt>
      <trkpt lat="43.25939" lon="-5.1462436">
        <ele>452.0</ele>
        <time>2020-11-01T12:15:05Z</time>
      </trkpt>
      <trkpt lat="43.259403" lon="-5.1462355">
        <ele>452.0</ele>
        <time>2020-11-01T12:15:06Z</time>
      </trkpt>
      <trkpt lat="43.259407" lon="-5.1462283">
        <ele>452.0</ele>
        <time>2020-11-01T12:15:08Z</time>
      </trkpt>
      <trkpt lat="43.25941" lon="-5.1462207">
        <ele>452.0</ele>
        <time>2020-11-01T12:15:08Z</time>
      </trkpt>
      <trkpt lat="43.259422" lon="-5.1462116">
        <ele>452.0</ele>
        <time>2020-11-01T12:15:09Z</time>
      </trkpt>
      <trkpt lat="43.259426" lon="-5.1461997">
        <ele>452.0</ele>
        <time>2020-11-01T12:15:10Z</time>
      </trkpt>
      <trkpt lat="43.259434" lon="-5.1461864">
        <ele>452.0</ele>
        <time>2020-11-01T12:15:11Z</time>
      </trkpt>
      <trkpt lat="43.259438" lon="-5.146171">
        <ele>452.0</ele>
        <time>2020-11-01T12:15:12Z</time>
      </trkpt>
      <trkpt lat="43.25945" lon="-5.146154">
        <ele>452.0</ele>
        <time>2020-11-01T12:15:13Z</time>
      </trkpt>
      <trkpt lat="43.25946" lon="-5.146136">
        <ele>452.0</ele>
        <time>2020-11-01T12:15:14Z</time>
      </trkpt>
      <trkpt lat="43.259464" lon="-5.1461177">
        <ele>452.0</ele>
        <time>2020-11-01T12:15:15Z</time>
      </trkpt>
      <trkpt lat="43.259476" lon="-5.146101">
        <ele>452.0</ele>
        <time>2020-11-01T12:15:16Z</time>
      </trkpt>
      <trkpt lat="43.259476" lon="-5.1460843">
        <ele>452.0</ele>
        <time>2020-11-01T12:15:17Z</time>
      </trkpt>
      <trkpt lat="43.259476" lon="-5.1460695">
        <ele>452.0</ele>
        <time>2020-11-01T12:15:18Z</time>
      </trkpt>
      <trkpt lat="43.25948" lon="-5.146057">
        <ele>452.0</ele>
        <time>2020-11-01T12:15:19Z</time>
      </trkpt>
      <trkpt lat="43.259483" lon="-5.146044">
        <ele>452.0</ele>
        <time>2020-11-01T12:15:20Z</time>
      </trkpt>
      <trkpt lat="43.259483" lon="-5.146033">
        <ele>452.0</ele>
        <time>2020-11-01T12:15:21Z</time>
      </trkpt>
      <trkpt lat="43.25949" lon="-5.1460233">
        <ele>452.0</ele>
        <time>2020-11-01T12:15:23Z</time>
      </trkpt>
      <trkpt lat="43.259495" lon="-5.1460123">
        <ele>453.0</ele>
        <time>2020-11-01T12:15:23Z</time>
      </trkpt>
      <trkpt lat="43.2595" lon="-5.146003">
        <ele>453.0</ele>
        <time>2020-11-01T12:15:24Z</time>
      </trkpt>
      <trkpt lat="43.259506" lon="-5.1459928">
        <ele>453.0</ele>
        <time>2020-11-01T12:15:25Z</time>
      </trkpt>
      <trkpt lat="43.25951" lon="-5.145984">
        <ele>453.0</ele>
        <time>2020-11-01T12:15:26Z</time>
      </trkpt>
      <trkpt lat="43.25951" lon="-5.1459775">
        <ele>453.0</ele>
        <time>2020-11-01T12:15:27Z</time>
      </trkpt>
      <trkpt lat="43.25951" lon="-5.1459694">
        <ele>453.0</ele>
        <time>2020-11-01T12:15:28Z</time>
      </trkpt>
      <trkpt lat="43.25951" lon="-5.145961">
        <ele>453.0</ele>
        <time>2020-11-01T12:15:29Z</time>
      </trkpt>
      <trkpt lat="43.25951" lon="-5.1459503">
        <ele>453.0</ele>
        <time>2020-11-01T12:15:30Z</time>
      </trkpt>
      <trkpt lat="43.25951" lon="-5.1459384">
        <ele>453.0</ele>
        <time>2020-11-01T12:15:31Z</time>
      </trkpt>
      <trkpt lat="43.259514" lon="-5.1459274">
        <ele>453.0</ele>
        <time>2020-11-01T12:15:32Z</time>
      </trkpt>
      <trkpt lat="43.259514" lon="-5.145916">
        <ele>453.0</ele>
        <time>2020-11-01T12:15:33Z</time>
      </trkpt>
      <trkpt lat="43.259514" lon="-5.1459055">
        <ele>453.0</ele>
        <time>2020-11-01T12:15:34Z</time>
      </trkpt>
      <trkpt lat="43.25952" lon="-5.145894">
        <ele>453.0</ele>
        <time>2020-11-01T12:15:35Z</time>
      </trkpt>
      <trkpt lat="43.25952" lon="-5.1458836">
        <ele>453.0</ele>
        <time>2020-11-01T12:15:36Z</time>
      </trkpt>
      <trkpt lat="43.25952" lon="-5.145873">
        <ele>453.0</ele>
        <time>2020-11-01T12:15:37Z</time>
      </trkpt>
      <trkpt lat="43.259525" lon="-5.1458616">
        <ele>453.0</ele>
        <time>2020-11-01T12:15:38Z</time>
      </trkpt>
      <trkpt lat="43.25953" lon="-5.1458473">
        <ele>453.0</ele>
        <time>2020-11-01T12:15:39Z</time>
      </trkpt>
      <trkpt lat="43.259537" lon="-5.1458325">
        <ele>453.0</ele>
        <time>2020-11-01T12:15:40Z</time>
      </trkpt>
      <trkpt lat="43.25954" lon="-5.1458173">
        <ele>453.0</ele>
        <time>2020-11-01T12:15:41Z</time>
      </trkpt>
      <trkpt lat="43.25954" lon="-5.145803">
        <ele>453.0</ele>
        <time>2020-11-01T12:15:42Z</time>
      </trkpt>
      <trkpt lat="43.259544" lon="-5.1457906">
        <ele>453.0</ele>
        <time>2020-11-01T12:15:44Z</time>
      </trkpt>
      <trkpt lat="43.259544" lon="-5.1457787">
        <ele>453.0</ele>
        <time>2020-11-01T12:15:44Z</time>
      </trkpt>
      <trkpt lat="43.25954" lon="-5.1457696">
        <ele>453.0</ele>
        <time>2020-11-01T12:15:45Z</time>
      </trkpt>
      <trkpt lat="43.25954" lon="-5.1457605">
        <ele>453.0</ele>
        <time>2020-11-01T12:15:46Z</time>
      </trkpt>
      <trkpt lat="43.25954" lon="-5.1457496">
        <ele>453.0</ele>
        <time>2020-11-01T12:15:47Z</time>
      </trkpt>
      <trkpt lat="43.25954" lon="-5.145737">
        <ele>453.0</ele>
        <time>2020-11-01T12:15:48Z</time>
      </trkpt>
      <trkpt lat="43.25954" lon="-5.1457253">
        <ele>453.0</ele>
        <time>2020-11-01T12:15:49Z</time>
      </trkpt>
      <trkpt lat="43.259537" lon="-5.145713">
        <ele>453.0</ele>
        <time>2020-11-01T12:15:50Z</time>
      </trkpt>
      <trkpt lat="43.259537" lon="-5.145699">
        <ele>453.0</ele>
        <time>2020-11-01T12:15:51Z</time>
      </trkpt>
      <trkpt lat="43.25953" lon="-5.1456842">
        <ele>453.0</ele>
        <time>2020-11-01T12:15:52Z</time>
      </trkpt>
      <trkpt lat="43.25953" lon="-5.145669">
        <ele>453.0</ele>
        <time>2020-11-01T12:15:53Z</time>
      </trkpt>
      <trkpt lat="43.259525" lon="-5.145654">
        <ele>453.0</ele>
        <time>2020-11-01T12:15:54Z</time>
      </trkpt>
      <trkpt lat="43.259525" lon="-5.14564">
        <ele>453.0</ele>
        <time>2020-11-01T12:15:55Z</time>
      </trkpt>
      <trkpt lat="43.259525" lon="-5.145627">
        <ele>453.0</ele>
        <time>2020-11-01T12:15:56Z</time>
      </trkpt>
      <trkpt lat="43.259525" lon="-5.1456156">
        <ele>453.0</ele>
        <time>2020-11-01T12:15:57Z</time>
      </trkpt>
      <trkpt lat="43.25952" lon="-5.1456046">
        <ele>453.0</ele>
        <time>2020-11-01T12:15:59Z</time>
      </trkpt>
      <trkpt lat="43.25952" lon="-5.1455946">
        <ele>453.0</ele>
        <time>2020-11-01T12:15:59Z</time>
      </trkpt>
      <trkpt lat="43.25952" lon="-5.145583">
        <ele>453.0</ele>
        <time>2020-11-01T12:16:00Z</time>
      </trkpt>
      <trkpt lat="43.25952" lon="-5.1455717">
        <ele>455.0</ele>
        <time>2020-11-01T12:16:01Z</time>
      </trkpt>
      <trkpt lat="43.25952" lon="-5.1455603">
        <ele>455.0</ele>
        <time>2020-11-01T12:16:02Z</time>
      </trkpt>
      <trkpt lat="43.259514" lon="-5.1455493">
        <ele>455.0</ele>
        <time>2020-11-01T12:16:03Z</time>
      </trkpt>
      <trkpt lat="43.259514" lon="-5.145539">
        <ele>455.0</ele>
        <time>2020-11-01T12:16:04Z</time>
      </trkpt>
      <trkpt lat="43.25951" lon="-5.145528">
        <ele>455.0</ele>
        <time>2020-11-01T12:16:05Z</time>
      </trkpt>
      <trkpt lat="43.25951" lon="-5.1455164">
        <ele>455.0</ele>
        <time>2020-11-01T12:16:06Z</time>
      </trkpt>
      <trkpt lat="43.259506" lon="-5.1455054">
        <ele>455.0</ele>
        <time>2020-11-01T12:16:07Z</time>
      </trkpt>
      <trkpt lat="43.259506" lon="-5.145494">
        <ele>455.0</ele>
        <time>2020-11-01T12:16:08Z</time>
      </trkpt>
      <trkpt lat="43.259506" lon="-5.1454797">
        <ele>455.0</ele>
        <time>2020-11-01T12:16:09Z</time>
      </trkpt>
      <trkpt lat="43.259506" lon="-5.1454644">
        <ele>455.0</ele>
        <time>2020-11-01T12:16:10Z</time>
      </trkpt>
      <trkpt lat="43.2595" lon="-5.1454487">
        <ele>455.0</ele>
        <time>2020-11-01T12:16:11Z</time>
      </trkpt>
      <trkpt lat="43.259495" lon="-5.1454334">
        <ele>455.0</ele>
        <time>2020-11-01T12:16:12Z</time>
      </trkpt>
      <trkpt lat="43.259495" lon="-5.14542">
        <ele>455.0</ele>
        <time>2020-11-01T12:16:14Z</time>
      </trkpt>
      <trkpt lat="43.25949" lon="-5.145407">
        <ele>455.0</ele>
        <time>2020-11-01T12:16:14Z</time>
      </trkpt>
      <trkpt lat="43.259483" lon="-5.1453958">
        <ele>455.0</ele>
        <time>2020-11-01T12:16:15Z</time>
      </trkpt>
      <trkpt lat="43.259483" lon="-5.145384">
        <ele>456.0</ele>
        <time>2020-11-01T12:16:16Z</time>
      </trkpt>
      <trkpt lat="43.25948" lon="-5.1453714">
        <ele>456.0</ele>
        <time>2020-11-01T12:16:17Z</time>
      </trkpt>
      <trkpt lat="43.259476" lon="-5.1453595">
        <ele>456.0</ele>
        <time>2020-11-01T12:16:18Z</time>
      </trkpt>
      <trkpt lat="43.259468" lon="-5.1453466">
        <ele>456.0</ele>
        <time>2020-11-01T12:16:19Z</time>
      </trkpt>
      <trkpt lat="43.259468" lon="-5.145334">
        <ele>456.0</ele>
        <time>2020-11-01T12:16:20Z</time>
      </trkpt>
      <trkpt lat="43.259464" lon="-5.1453214">
        <ele>456.0</ele>
        <time>2020-11-01T12:16:22Z</time>
      </trkpt>
      <trkpt lat="43.25946" lon="-5.1453075">
        <ele>456.0</ele>
        <time>2020-11-01T12:16:22Z</time>
      </trkpt>
      <trkpt lat="43.25946" lon="-5.145294">
        <ele>456.0</ele>
        <time>2020-11-01T12:16:23Z</time>
      </trkpt>
      <trkpt lat="43.25946" lon="-5.145282">
        <ele>456.0</ele>
        <time>2020-11-01T12:16:24Z</time>
      </trkpt>
      <trkpt lat="43.25946" lon="-5.1452694">
        <ele>456.0</ele>
        <time>2020-11-01T12:16:25Z</time>
      </trkpt>
      <trkpt lat="43.259453" lon="-5.1452575">
        <ele>456.0</ele>
        <time>2020-11-01T12:16:26Z</time>
      </trkpt>
      <trkpt lat="43.25945" lon="-5.1452427">
        <ele>456.0</ele>
        <time>2020-11-01T12:16:27Z</time>
      </trkpt>
      <trkpt lat="43.25944" lon="-5.1452284">
        <ele>456.0</ele>
        <time>2020-11-01T12:16:28Z</time>
      </trkpt>
      <trkpt lat="43.259438" lon="-5.145217">
        <ele>456.0</ele>
        <time>2020-11-01T12:16:30Z</time>
      </trkpt>
      <trkpt lat="43.259426" lon="-5.145207">
        <ele>456.0</ele>
        <time>2020-11-01T12:16:30Z</time>
      </trkpt>
      <trkpt lat="43.259422" lon="-5.145197">
        <ele>456.0</ele>
        <time>2020-11-01T12:16:31Z</time>
      </trkpt>
      <trkpt lat="43.25942" lon="-5.1451864">
        <ele>456.0</ele>
        <time>2020-11-01T12:16:32Z</time>
      </trkpt>
      <trkpt lat="43.25942" lon="-5.1451745">
        <ele>456.0</ele>
        <time>2020-11-01T12:16:33Z</time>
      </trkpt>
      <trkpt lat="43.25941" lon="-5.1451626">
        <ele>456.0</ele>
        <time>2020-11-01T12:16:34Z</time>
      </trkpt>
      <trkpt lat="43.25941" lon="-5.1451507">
        <ele>456.0</ele>
        <time>2020-11-01T12:16:35Z</time>
      </trkpt>
      <trkpt lat="43.259407" lon="-5.145138">
        <ele>456.0</ele>
        <time>2020-11-01T12:16:36Z</time>
      </trkpt>
      <trkpt lat="43.259407" lon="-5.145124">
        <ele>456.0</ele>
        <time>2020-11-01T12:16:37Z</time>
      </trkpt>
      <trkpt lat="43.259403" lon="-5.1451135">
        <ele>456.0</ele>
        <time>2020-11-01T12:16:38Z</time>
      </trkpt>
      <trkpt lat="43.259403" lon="-5.1451035">
        <ele>456.0</ele>
        <time>2020-11-01T12:16:39Z</time>
      </trkpt>
      <trkpt lat="43.259396" lon="-5.145094">
        <ele>456.0</ele>
        <time>2020-11-01T12:16:40Z</time>
      </trkpt>
      <trkpt lat="43.25939" lon="-5.1450844">
        <ele>456.0</ele>
        <time>2020-11-01T12:16:41Z</time>
      </trkpt>
      <trkpt lat="43.259388" lon="-5.1450744">
        <ele>456.0</ele>
        <time>2020-11-01T12:16:43Z</time>
      </trkpt>
      <trkpt lat="43.259388" lon="-5.145063">
        <ele>456.0</ele>
        <time>2020-11-01T12:16:43Z</time>
      </trkpt>
      <trkpt lat="43.25938" lon="-5.14505">
        <ele>456.0</ele>
        <time>2020-11-01T12:16:44Z</time>
      </trkpt>
      <trkpt lat="43.25938" lon="-5.1450353">
        <ele>456.0</ele>
        <time>2020-11-01T12:16:45Z</time>
      </trkpt>
      <trkpt lat="43.25938" lon="-5.1450195">
        <ele>456.0</ele>
        <time>2020-11-01T12:16:46Z</time>
      </trkpt>
      <trkpt lat="43.25938" lon="-5.145006">
        <ele>456.0</ele>
        <time>2020-11-01T12:16:47Z</time>
      </trkpt>
      <trkpt lat="43.25938" lon="-5.144993">
        <ele>456.0</ele>
        <time>2020-11-01T12:16:48Z</time>
      </trkpt>
      <trkpt lat="43.25938" lon="-5.1449795">
        <ele>456.0</ele>
        <time>2020-11-01T12:16:49Z</time>
      </trkpt>
      <trkpt lat="43.25938" lon="-5.144966">
        <ele>456.0</ele>
        <time>2020-11-01T12:16:50Z</time>
      </trkpt>
      <trkpt lat="43.259388" lon="-5.144952">
        <ele>456.0</ele>
        <time>2020-11-01T12:16:51Z</time>
      </trkpt>
      <trkpt lat="43.25939" lon="-5.1449394">
        <ele>456.0</ele>
        <time>2020-11-01T12:16:52Z</time>
      </trkpt>
      <trkpt lat="43.25939" lon="-5.1449294">
        <ele>456.0</ele>
        <time>2020-11-01T12:16:53Z</time>
      </trkpt>
      <trkpt lat="43.25939" lon="-5.144921">
        <ele>456.0</ele>
        <time>2020-11-01T12:16:54Z</time>
      </trkpt>
      <trkpt lat="43.259396" lon="-5.144915">
        <ele>456.0</ele>
        <time>2020-11-01T12:16:55Z</time>
      </trkpt>
      <trkpt lat="43.259396" lon="-5.144911">
        <ele>456.0</ele>
        <time>2020-11-01T12:16:56Z</time>
      </trkpt>
      <trkpt lat="43.259403" lon="-5.144898">
        <ele>456.0</ele>
        <time>2020-11-01T12:16:59Z</time>
      </trkpt>
      <trkpt lat="43.259403" lon="-5.1448965">
        <ele>456.0</ele>
        <time>2020-11-01T12:16:59Z</time>
      </trkpt>
      <trkpt lat="43.259403" lon="-5.144893">
        <ele>456.0</ele>
        <time>2020-11-01T12:17:00Z</time>
      </trkpt>
      <trkpt lat="43.259407" lon="-5.1448865">
        <ele>456.0</ele>
        <time>2020-11-01T12:17:01Z</time>
      </trkpt>
      <trkpt lat="43.25941" lon="-5.14488">
        <ele>456.0</ele>
        <time>2020-11-01T12:17:02Z</time>
      </trkpt>
      <trkpt lat="43.25941" lon="-5.144871">
        <ele>456.0</ele>
        <time>2020-11-01T12:17:03Z</time>
      </trkpt>
      <trkpt lat="43.25942" lon="-5.1448607">
        <ele>456.0</ele>
        <time>2020-11-01T12:17:04Z</time>
      </trkpt>
      <trkpt lat="43.259422" lon="-5.144849">
        <ele>456.0</ele>
        <time>2020-11-01T12:17:05Z</time>
      </trkpt>
      <trkpt lat="43.259426" lon="-5.144837">
        <ele>456.0</ele>
        <time>2020-11-01T12:17:07Z</time>
      </trkpt>
      <trkpt lat="43.259438" lon="-5.144826">
        <ele>456.0</ele>
        <time>2020-11-01T12:17:07Z</time>
      </trkpt>
      <trkpt lat="43.25944" lon="-5.144816">
        <ele>456.0</ele>
        <time>2020-11-01T12:17:08Z</time>
      </trkpt>
      <trkpt lat="43.25945" lon="-5.1448064">
        <ele>456.0</ele>
        <time>2020-11-01T12:17:09Z</time>
      </trkpt>
      <trkpt lat="43.259453" lon="-5.144798">
        <ele>456.0</ele>
        <time>2020-11-01T12:17:10Z</time>
      </trkpt>
      <trkpt lat="43.25946" lon="-5.144789">
        <ele>456.0</ele>
        <time>2020-11-01T12:17:11Z</time>
      </trkpt>
      <trkpt lat="43.259468" lon="-5.1447797">
        <ele>456.0</ele>
        <time>2020-11-01T12:17:12Z</time>
      </trkpt>
      <trkpt lat="43.259476" lon="-5.144772">
        <ele>456.0</ele>
        <time>2020-11-01T12:17:13Z</time>
      </trkpt>
      <trkpt lat="43.25948" lon="-5.1447654">
        <ele>456.0</ele>
        <time>2020-11-01T12:17:14Z</time>
      </trkpt>
      <trkpt lat="43.259483" lon="-5.144758">
        <ele>458.0</ele>
        <time>2020-11-01T12:17:15Z</time>
      </trkpt>
      <trkpt lat="43.259495" lon="-5.1447487">
        <ele>458.0</ele>
        <time>2020-11-01T12:17:16Z</time>
      </trkpt>
      <trkpt lat="43.2595" lon="-5.1447372">
        <ele>458.0</ele>
        <time>2020-11-01T12:17:17Z</time>
      </trkpt>
      <trkpt lat="43.25951" lon="-5.144727">
        <ele>458.0</ele>
        <time>2020-11-01T12:17:18Z</time>
      </trkpt>
      <trkpt lat="43.25952" lon="-5.144718">
        <ele>458.0</ele>
        <time>2020-11-01T12:17:19Z</time>
      </trkpt>
      <trkpt lat="43.259525" lon="-5.1447096">
        <ele>458.0</ele>
        <time>2020-11-01T12:17:20Z</time>
      </trkpt>
      <trkpt lat="43.259537" lon="-5.144702">
        <ele>458.0</ele>
        <time>2020-11-01T12:17:21Z</time>
      </trkpt>
      <trkpt lat="43.259544" lon="-5.144695">
        <ele>458.0</ele>
        <time>2020-11-01T12:17:21Z</time>
      </trkpt>
      <trkpt lat="43.259556" lon="-5.14469">
        <ele>458.0</ele>
        <time>2020-11-01T12:17:22Z</time>
      </trkpt>
      <trkpt lat="43.259567" lon="-5.144686">
        <ele>458.0</ele>
        <time>2020-11-01T12:17:23Z</time>
      </trkpt>
      <trkpt lat="43.25957" lon="-5.1446815">
        <ele>458.0</ele>
        <time>2020-11-01T12:17:24Z</time>
      </trkpt>
      <trkpt lat="43.259583" lon="-5.144674">
        <ele>458.0</ele>
        <time>2020-11-01T12:17:25Z</time>
      </trkpt>
      <trkpt lat="43.25959" lon="-5.1446657">
        <ele>458.0</ele>
        <time>2020-11-01T12:17:26Z</time>
      </trkpt>
      <trkpt lat="43.2596" lon="-5.1446557">
        <ele>458.0</ele>
        <time>2020-11-01T12:17:27Z</time>
      </trkpt>
      <trkpt lat="43.259605" lon="-5.144645">
        <ele>458.0</ele>
        <time>2020-11-01T12:17:29Z</time>
      </trkpt>
      <trkpt lat="43.259617" lon="-5.1446323">
        <ele>458.0</ele>
        <time>2020-11-01T12:17:29Z</time>
      </trkpt>
      <trkpt lat="43.25962" lon="-5.144619">
        <ele>458.0</ele>
        <time>2020-11-01T12:17:30Z</time>
      </trkpt>
      <trkpt lat="43.25963" lon="-5.1446066">
        <ele>458.0</ele>
        <time>2020-11-01T12:17:31Z</time>
      </trkpt>
      <trkpt lat="43.259632" lon="-5.1445956">
        <ele>458.0</ele>
        <time>2020-11-01T12:17:32Z</time>
      </trkpt>
      <trkpt lat="43.259636" lon="-5.144583">
        <ele>458.0</ele>
        <time>2020-11-01T12:17:33Z</time>
      </trkpt>
      <trkpt lat="43.259644" lon="-5.144572">
        <ele>458.0</ele>
        <time>2020-11-01T12:17:34Z</time>
      </trkpt>
      <trkpt lat="43.259644" lon="-5.1445613">
        <ele>458.0</ele>
        <time>2020-11-01T12:17:35Z</time>
      </trkpt>
      <trkpt lat="43.259647" lon="-5.144552">
        <ele>458.0</ele>
        <time>2020-11-01T12:17:37Z</time>
      </trkpt>
      <trkpt lat="43.259647" lon="-5.144543">
        <ele>458.0</ele>
        <time>2020-11-01T12:17:37Z</time>
      </trkpt>
      <trkpt lat="43.259647" lon="-5.1445317">
        <ele>458.0</ele>
        <time>2020-11-01T12:17:38Z</time>
      </trkpt>
      <trkpt lat="43.259647" lon="-5.144517">
        <ele>458.0</ele>
        <time>2020-11-01T12:17:39Z</time>
      </trkpt>
      <trkpt lat="43.259647" lon="-5.1445055">
        <ele>458.0</ele>
        <time>2020-11-01T12:17:40Z</time>
      </trkpt>
      <trkpt lat="43.259644" lon="-5.1444974">
        <ele>458.0</ele>
        <time>2020-11-01T12:17:41Z</time>
      </trkpt>
      <trkpt lat="43.259644" lon="-5.1444902">
        <ele>458.0</ele>
        <time>2020-11-01T12:17:42Z</time>
      </trkpt>
      <trkpt lat="43.259644" lon="-5.1444845">
        <ele>458.0</ele>
        <time>2020-11-01T12:17:43Z</time>
      </trkpt>
      <trkpt lat="43.259636" lon="-5.1444697">
        <ele>458.0</ele>
        <time>2020-11-01T12:17:45Z</time>
      </trkpt>
      <trkpt lat="43.259636" lon="-5.144469">
        <ele>458.0</ele>
        <time>2020-11-01T12:17:46Z</time>
      </trkpt>
      <trkpt lat="43.259636" lon="-5.1444683">
        <ele>458.0</ele>
        <time>2020-11-01T12:17:47Z</time>
      </trkpt>
      <trkpt lat="43.259636" lon="-5.1444693">
        <ele>458.0</ele>
        <time>2020-11-01T12:17:48Z</time>
      </trkpt>
      <trkpt lat="43.259632" lon="-5.1444693">
        <ele>458.0</ele>
        <time>2020-11-01T12:17:49Z</time>
      </trkpt>
      <trkpt lat="43.259632" lon="-5.144468">
        <ele>458.0</ele>
        <time>2020-11-01T12:17:50Z</time>
      </trkpt>
      <trkpt lat="43.259632" lon="-5.144467">
        <ele>458.0</ele>
        <time>2020-11-01T12:17:51Z</time>
      </trkpt>
      <trkpt lat="43.259632" lon="-5.144453">
        <ele>458.0</ele>
        <time>2020-11-01T12:17:53Z</time>
      </trkpt>
      <trkpt lat="43.259632" lon="-5.144449">
        <ele>458.0</ele>
        <time>2020-11-01T12:17:54Z</time>
      </trkpt>
      <trkpt lat="43.259632" lon="-5.144443">
        <ele>458.0</ele>
        <time>2020-11-01T12:17:55Z</time>
      </trkpt>
      <trkpt lat="43.259632" lon="-5.144433">
        <ele>458.0</ele>
        <time>2020-11-01T12:17:56Z</time>
      </trkpt>
      <trkpt lat="43.259632" lon="-5.144423">
        <ele>458.0</ele>
        <time>2020-11-01T12:17:57Z</time>
      </trkpt>
      <trkpt lat="43.25963" lon="-5.144414">
        <ele>458.0</ele>
        <time>2020-11-01T12:17:58Z</time>
      </trkpt>
      <trkpt lat="43.25963" lon="-5.144404">
        <ele>458.0</ele>
        <time>2020-11-01T12:18:00Z</time>
      </trkpt>
      <trkpt lat="43.25963" lon="-5.1443925">
        <ele>458.0</ele>
        <time>2020-11-01T12:18:00Z</time>
      </trkpt>
      <trkpt lat="43.25963" lon="-5.1443787">
        <ele>458.0</ele>
        <time>2020-11-01T12:18:01Z</time>
      </trkpt>
      <trkpt lat="43.25962" lon="-5.1443624">
        <ele>458.0</ele>
        <time>2020-11-01T12:18:02Z</time>
      </trkpt>
      <trkpt lat="43.25962" lon="-5.1443467">
        <ele>458.0</ele>
        <time>2020-11-01T12:18:03Z</time>
      </trkpt>
      <trkpt lat="43.259617" lon="-5.1443343">
        <ele>458.0</ele>
        <time>2020-11-01T12:18:04Z</time>
      </trkpt>
      <trkpt lat="43.259617" lon="-5.1443205">
        <ele>458.0</ele>
        <time>2020-11-01T12:18:05Z</time>
      </trkpt>
      <trkpt lat="43.259613" lon="-5.1443048">
        <ele>458.0</ele>
        <time>2020-11-01T12:18:06Z</time>
      </trkpt>
      <trkpt lat="43.259613" lon="-5.14429">
        <ele>458.0</ele>
        <time>2020-11-01T12:18:07Z</time>
      </trkpt>
      <trkpt lat="43.259613" lon="-5.1442747">
        <ele>458.0</ele>
        <time>2020-11-01T12:18:08Z</time>
      </trkpt>
      <trkpt lat="43.259613" lon="-5.144259">
        <ele>458.0</ele>
        <time>2020-11-01T12:18:09Z</time>
      </trkpt>
      <trkpt lat="43.259613" lon="-5.1442437">
        <ele>458.0</ele>
        <time>2020-11-01T12:18:10Z</time>
      </trkpt>
      <trkpt lat="43.259613" lon="-5.1442275">
        <ele>458.0</ele>
        <time>2020-11-01T12:18:11Z</time>
      </trkpt>
      <trkpt lat="43.259613" lon="-5.1442113">
        <ele>458.0</ele>
        <time>2020-11-01T12:18:12Z</time>
      </trkpt>
      <trkpt lat="43.259605" lon="-5.1441946">
        <ele>458.0</ele>
        <time>2020-11-01T12:18:13Z</time>
      </trkpt>
      <trkpt lat="43.259605" lon="-5.1441774">
        <ele>458.0</ele>
        <time>2020-11-01T12:18:14Z</time>
      </trkpt>
      <trkpt lat="43.259605" lon="-5.144161">
        <ele>458.0</ele>
        <time>2020-11-01T12:18:16Z</time>
      </trkpt>
      <trkpt lat="43.2596" lon="-5.1441455">
        <ele>458.0</ele>
        <time>2020-11-01T12:18:16Z</time>
      </trkpt>
      <trkpt lat="43.2596" lon="-5.144129">
        <ele>458.0</ele>
        <time>2020-11-01T12:18:17Z</time>
      </trkpt>
      <trkpt lat="43.2596" lon="-5.1441116">
        <ele>458.0</ele>
        <time>2020-11-01T12:18:18Z</time>
      </trkpt>
      <trkpt lat="43.259598" lon="-5.144095">
        <ele>458.0</ele>
        <time>2020-11-01T12:18:19Z</time>
      </trkpt>
      <trkpt lat="43.259598" lon="-5.1440783">
        <ele>458.0</ele>
        <time>2020-11-01T12:18:20Z</time>
      </trkpt>
      <trkpt lat="43.25959" lon="-5.1440635">
        <ele>458.0</ele>
        <time>2020-11-01T12:18:21Z</time>
      </trkpt>
      <trkpt lat="43.25959" lon="-5.144048">
        <ele>458.0</ele>
        <time>2020-11-01T12:18:22Z</time>
      </trkpt>
      <trkpt lat="43.25959" lon="-5.1440344">
        <ele>458.0</ele>
        <time>2020-11-01T12:18:24Z</time>
      </trkpt>
      <trkpt lat="43.25959" lon="-5.144022">
        <ele>458.0</ele>
        <time>2020-11-01T12:18:24Z</time>
      </trkpt>
      <trkpt lat="43.25959" lon="-5.144009">
        <ele>458.0</ele>
        <time>2020-11-01T12:18:25Z</time>
      </trkpt>
      <trkpt lat="43.25959" lon="-5.143997">
        <ele>458.0</ele>
        <time>2020-11-01T12:18:26Z</time>
      </trkpt>
      <trkpt lat="43.25959" lon="-5.143984">
        <ele>458.0</ele>
        <time>2020-11-01T12:18:27Z</time>
      </trkpt>
      <trkpt lat="43.25959" lon="-5.1439695">
        <ele>458.0</ele>
        <time>2020-11-01T12:18:28Z</time>
      </trkpt>
      <trkpt lat="43.25959" lon="-5.143956">
        <ele>458.0</ele>
        <time>2020-11-01T12:18:29Z</time>
      </trkpt>
      <trkpt lat="43.259598" lon="-5.143943">
        <ele>458.0</ele>
        <time>2020-11-01T12:18:30Z</time>
      </trkpt>
      <trkpt lat="43.259598" lon="-5.1439285">
        <ele>458.0</ele>
        <time>2020-11-01T12:18:32Z</time>
      </trkpt>
      <trkpt lat="43.259598" lon="-5.1439157">
        <ele>458.0</ele>
        <time>2020-11-01T12:18:32Z</time>
      </trkpt>
      <trkpt lat="43.259598" lon="-5.1439037">
        <ele>459.0</ele>
        <time>2020-11-01T12:18:33Z</time>
      </trkpt>
      <trkpt lat="43.259598" lon="-5.1438932">
        <ele>459.0</ele>
        <time>2020-11-01T12:18:34Z</time>
      </trkpt>
      <trkpt lat="43.259598" lon="-5.1438837">
        <ele>459.0</ele>
        <time>2020-11-01T12:18:35Z</time>
      </trkpt>
      <trkpt lat="43.259598" lon="-5.143872">
        <ele>459.0</ele>
        <time>2020-11-01T12:18:36Z</time>
      </trkpt>
      <trkpt lat="43.259598" lon="-5.143861">
        <ele>459.0</ele>
        <time>2020-11-01T12:18:37Z</time>
      </trkpt>
      <trkpt lat="43.259598" lon="-5.1438494">
        <ele>459.0</ele>
        <time>2020-11-01T12:18:38Z</time>
      </trkpt>
      <trkpt lat="43.259598" lon="-5.143837">
        <ele>459.0</ele>
        <time>2020-11-01T12:18:39Z</time>
      </trkpt>
      <trkpt lat="43.259598" lon="-5.143824">
        <ele>459.0</ele>
        <time>2020-11-01T12:18:40Z</time>
      </trkpt>
      <trkpt lat="43.259598" lon="-5.1438117">
        <ele>459.0</ele>
        <time>2020-11-01T12:18:41Z</time>
      </trkpt>
      <trkpt lat="43.2596" lon="-5.1438007">
        <ele>459.0</ele>
        <time>2020-11-01T12:18:42Z</time>
      </trkpt>
      <trkpt lat="43.2596" lon="-5.1437902">
        <ele>459.0</ele>
        <time>2020-11-01T12:18:43Z</time>
      </trkpt>
      <trkpt lat="43.2596" lon="-5.1437774">
        <ele>459.0</ele>
        <time>2020-11-01T12:18:45Z</time>
      </trkpt>
      <trkpt lat="43.2596" lon="-5.1437616">
        <ele>459.0</ele>
        <time>2020-11-01T12:18:45Z</time>
      </trkpt>
      <trkpt lat="43.2596" lon="-5.143746">
        <ele>459.0</ele>
        <time>2020-11-01T12:18:46Z</time>
      </trkpt>
      <trkpt lat="43.2596" lon="-5.1437325">
        <ele>459.0</ele>
        <time>2020-11-01T12:18:47Z</time>
      </trkpt>
      <trkpt lat="43.2596" lon="-5.14372">
        <ele>459.0</ele>
        <time>2020-11-01T12:18:48Z</time>
      </trkpt>
      <trkpt lat="43.2596" lon="-5.143708">
        <ele>459.0</ele>
        <time>2020-11-01T12:18:49Z</time>
      </trkpt>
      <trkpt lat="43.2596" lon="-5.1436944">
        <ele>459.0</ele>
        <time>2020-11-01T12:18:50Z</time>
      </trkpt>
      <trkpt lat="43.2596" lon="-5.143681">
        <ele>460.0</ele>
        <time>2020-11-01T12:18:51Z</time>
      </trkpt>
      <trkpt lat="43.2596" lon="-5.143667">
        <ele>460.0</ele>
        <time>2020-11-01T12:18:52Z</time>
      </trkpt>
      <trkpt lat="43.2596" lon="-5.143653">
        <ele>460.0</ele>
        <time>2020-11-01T12:18:53Z</time>
      </trkpt>
      <trkpt lat="43.2596" lon="-5.1436367">
        <ele>460.0</ele>
        <time>2020-11-01T12:18:54Z</time>
      </trkpt>
      <trkpt lat="43.2596" lon="-5.143621">
        <ele>460.0</ele>
        <time>2020-11-01T12:18:55Z</time>
      </trkpt>
      <trkpt lat="43.2596" lon="-5.143606">
        <ele>460.0</ele>
        <time>2020-11-01T12:18:56Z</time>
      </trkpt>
      <trkpt lat="43.2596" lon="-5.1435933">
        <ele>460.0</ele>
        <time>2020-11-01T12:18:57Z</time>
      </trkpt>
      <trkpt lat="43.2596" lon="-5.14358">
        <ele>460.0</ele>
        <time>2020-11-01T12:18:58Z</time>
      </trkpt>
      <trkpt lat="43.259598" lon="-5.1435676">
        <ele>460.0</ele>
        <time>2020-11-01T12:18:59Z</time>
      </trkpt>
      <trkpt lat="43.25959" lon="-5.1435547">
        <ele>460.0</ele>
        <time>2020-11-01T12:19:00Z</time>
      </trkpt>
      <trkpt lat="43.25959" lon="-5.1435413">
        <ele>460.0</ele>
        <time>2020-11-01T12:19:01Z</time>
      </trkpt>
      <trkpt lat="43.259586" lon="-5.1435275">
        <ele>460.0</ele>
        <time>2020-11-01T12:19:02Z</time>
      </trkpt>
      <trkpt lat="43.259586" lon="-5.143514">
        <ele>460.0</ele>
        <time>2020-11-01T12:19:03Z</time>
      </trkpt>
      <trkpt lat="43.259583" lon="-5.143501">
        <ele>460.0</ele>
        <time>2020-11-01T12:19:04Z</time>
      </trkpt>
      <trkpt lat="43.259583" lon="-5.143488">
        <ele>460.0</ele>
        <time>2020-11-01T12:19:05Z</time>
      </trkpt>
      <trkpt lat="43.259583" lon="-5.1434765">
        <ele>461.0</ele>
        <time>2020-11-01T12:19:06Z</time>
      </trkpt>
      <trkpt lat="43.259583" lon="-5.1434636">
        <ele>461.0</ele>
        <time>2020-11-01T12:19:08Z</time>
      </trkpt>
      <trkpt lat="43.259583" lon="-5.14345">
        <ele>461.0</ele>
        <time>2020-11-01T12:19:08Z</time>
      </trkpt>
      <trkpt lat="43.259586" lon="-5.143436">
        <ele>461.0</ele>
        <time>2020-11-01T12:19:09Z</time>
      </trkpt>
      <trkpt lat="43.259586" lon="-5.1434226">
        <ele>461.0</ele>
        <time>2020-11-01T12:19:10Z</time>
      </trkpt>
      <trkpt lat="43.25959" lon="-5.143407">
        <ele>461.0</ele>
        <time>2020-11-01T12:19:11Z</time>
      </trkpt>
      <trkpt lat="43.25959" lon="-5.14339">
        <ele>461.0</ele>
        <time>2020-11-01T12:19:12Z</time>
      </trkpt>
      <trkpt lat="43.259598" lon="-5.1433735">
        <ele>461.0</ele>
        <time>2020-11-01T12:19:13Z</time>
      </trkpt>
      <trkpt lat="43.259598" lon="-5.143361">
        <ele>461.0</ele>
        <time>2020-11-01T12:19:14Z</time>
      </trkpt>
      <trkpt lat="43.259598" lon="-5.1433477">
        <ele>461.0</ele>
        <time>2020-11-01T12:19:16Z</time>
      </trkpt>
      <trkpt lat="43.259598" lon="-5.143335">
        <ele>461.0</ele>
        <time>2020-11-01T12:19:16Z</time>
      </trkpt>
      <trkpt lat="43.25959" lon="-5.1433225">
        <ele>461.0</ele>
        <time>2020-11-01T12:19:17Z</time>
      </trkpt>
      <trkpt lat="43.259586" lon="-5.14331">
        <ele>461.0</ele>
        <time>2020-11-01T12:19:18Z</time>
      </trkpt>
      <trkpt lat="43.259586" lon="-5.1432977">
        <ele>461.0</ele>
        <time>2020-11-01T12:19:19Z</time>
      </trkpt>
      <trkpt lat="43.259583" lon="-5.1432843">
        <ele>461.0</ele>
        <time>2020-11-01T12:19:20Z</time>
      </trkpt>
      <trkpt lat="43.259575" lon="-5.143272">
        <ele>461.0</ele>
        <time>2020-11-01T12:19:21Z</time>
      </trkpt>
      <trkpt lat="43.259567" lon="-5.14326">
        <ele>462.0</ele>
        <time>2020-11-01T12:19:22Z</time>
      </trkpt>
      <trkpt lat="43.25956" lon="-5.143248">
        <ele>462.0</ele>
        <time>2020-11-01T12:19:23Z</time>
      </trkpt>
      <trkpt lat="43.259556" lon="-5.1432366">
        <ele>462.0</ele>
        <time>2020-11-01T12:19:24Z</time>
      </trkpt>
      <trkpt lat="43.259552" lon="-5.143224">
        <ele>462.0</ele>
        <time>2020-11-01T12:19:25Z</time>
      </trkpt>
      <trkpt lat="43.259552" lon="-5.1432123">
        <ele>462.0</ele>
        <time>2020-11-01T12:19:26Z</time>
      </trkpt>
      <trkpt lat="43.259544" lon="-5.1431994">
        <ele>462.0</ele>
        <time>2020-11-01T12:19:27Z</time>
      </trkpt>
      <trkpt lat="43.25954" lon="-5.143185">
        <ele>462.0</ele>
        <time>2020-11-01T12:19:28Z</time>
      </trkpt>
      <trkpt lat="43.25954" lon="-5.143171">
        <ele>462.0</ele>
        <time>2020-11-01T12:19:29Z</time>
      </trkpt>
      <trkpt lat="43.259537" lon="-5.1431575">
        <ele>462.0</ele>
        <time>2020-11-01T12:19:31Z</time>
      </trkpt>
      <trkpt lat="43.259537" lon="-5.143145">
        <ele>462.0</ele>
        <time>2020-11-01T12:19:31Z</time>
      </trkpt>
      <trkpt lat="43.259525" lon="-5.1431336">
        <ele>462.0</ele>
        <time>2020-11-01T12:19:32Z</time>
      </trkpt>
      <trkpt lat="43.25952" lon="-5.1431227">
        <ele>462.0</ele>
        <time>2020-11-01T12:19:33Z</time>
      </trkpt>
      <trkpt lat="43.25951" lon="-5.143115">
        <ele>462.0</ele>
        <time>2020-11-01T12:19:34Z</time>
      </trkpt>
      <trkpt lat="43.259506" lon="-5.143107">
        <ele>462.0</ele>
        <time>2020-11-01T12:19:35Z</time>
      </trkpt>
      <trkpt lat="43.2595" lon="-5.1430964">
        <ele>462.0</ele>
        <time>2020-11-01T12:19:36Z</time>
      </trkpt>
      <trkpt lat="43.259495" lon="-5.1430826">
        <ele>462.0</ele>
        <time>2020-11-01T12:19:38Z</time>
      </trkpt>
      <trkpt lat="43.259495" lon="-5.1430683">
        <ele>462.0</ele>
        <time>2020-11-01T12:19:38Z</time>
      </trkpt>
      <trkpt lat="43.25949" lon="-5.1430545">
        <ele>462.0</ele>
        <time>2020-11-01T12:19:39Z</time>
      </trkpt>
      <trkpt lat="43.25949" lon="-5.143041">
        <ele>462.0</ele>
        <time>2020-11-01T12:19:40Z</time>
      </trkpt>
      <trkpt lat="43.259483" lon="-5.143027">
        <ele>462.0</ele>
        <time>2020-11-01T12:19:41Z</time>
      </trkpt>
      <trkpt lat="43.259483" lon="-5.143011">
        <ele>463.0</ele>
        <time>2020-11-01T12:19:42Z</time>
      </trkpt>
      <trkpt lat="43.25948" lon="-5.142995">
        <ele>463.0</ele>
        <time>2020-11-01T12:19:43Z</time>
      </trkpt>
      <trkpt lat="43.259476" lon="-5.14298">
        <ele>463.0</ele>
        <time>2020-11-01T12:19:44Z</time>
      </trkpt>
      <trkpt lat="43.259468" lon="-5.1429663">
        <ele>463.0</ele>
        <time>2020-11-01T12:19:45Z</time>
      </trkpt>
      <trkpt lat="43.259468" lon="-5.1429524">
        <ele>463.0</ele>
        <time>2020-11-01T12:19:46Z</time>
      </trkpt>
      <trkpt lat="43.259468" lon="-5.1429386">
        <ele>463.0</ele>
        <time>2020-11-01T12:19:47Z</time>
      </trkpt>
      <trkpt lat="43.259468" lon="-5.142924">
        <ele>463.0</ele>
        <time>2020-11-01T12:19:48Z</time>
      </trkpt>
      <trkpt lat="43.259468" lon="-5.1429086">
        <ele>464.0</ele>
        <time>2020-11-01T12:19:49Z</time>
      </trkpt>
      <trkpt lat="43.259468" lon="-5.142895">
        <ele>464.0</ele>
        <time>2020-11-01T12:19:50Z</time>
      </trkpt>
      <trkpt lat="43.259468" lon="-5.1428823">
        <ele>464.0</ele>
        <time>2020-11-01T12:19:51Z</time>
      </trkpt>
      <trkpt lat="43.259468" lon="-5.142869">
        <ele>464.0</ele>
        <time>2020-11-01T12:19:52Z</time>
      </trkpt>
      <trkpt lat="43.259468" lon="-5.142856">
        <ele>464.0</ele>
        <time>2020-11-01T12:19:53Z</time>
      </trkpt>
      <trkpt lat="43.259468" lon="-5.142842">
        <ele>464.0</ele>
        <time>2020-11-01T12:19:54Z</time>
      </trkpt>
      <trkpt lat="43.259476" lon="-5.142829">
        <ele>465.0</ele>
        <time>2020-11-01T12:19:55Z</time>
      </trkpt>
      <trkpt lat="43.259476" lon="-5.142816">
        <ele>465.0</ele>
        <time>2020-11-01T12:19:56Z</time>
      </trkpt>
      <trkpt lat="43.25948" lon="-5.142801">
        <ele>465.0</ele>
        <time>2020-11-01T12:19:57Z</time>
      </trkpt>
      <trkpt lat="43.25949" lon="-5.142787">
        <ele>465.0</ele>
        <time>2020-11-01T12:19:59Z</time>
      </trkpt>
      <trkpt lat="43.259495" lon="-5.1427736">
        <ele>465.0</ele>
        <time>2020-11-01T12:19:59Z</time>
      </trkpt>
      <trkpt lat="43.2595" lon="-5.1427603">
        <ele>465.0</ele>
        <time>2020-11-01T12:20:00Z</time>
      </trkpt>
      <trkpt lat="43.2595" lon="-5.1427455">
        <ele>465.0</ele>
        <time>2020-11-01T12:20:01Z</time>
      </trkpt>
      <trkpt lat="43.259506" lon="-5.142731">
        <ele>465.0</ele>
        <time>2020-11-01T12:20:02Z</time>
      </trkpt>
      <trkpt lat="43.259506" lon="-5.142718">
        <ele>466.0</ele>
        <time>2020-11-01T12:20:03Z</time>
      </trkpt>
      <trkpt lat="43.25951" lon="-5.1427045">
        <ele>466.0</ele>
        <time>2020-11-01T12:20:04Z</time>
      </trkpt>
      <trkpt lat="43.25951" lon="-5.1426916">
        <ele>466.0</ele>
        <time>2020-11-01T12:20:05Z</time>
      </trkpt>
      <trkpt lat="43.25951" lon="-5.142679">
        <ele>466.0</ele>
        <time>2020-11-01T12:20:06Z</time>
      </trkpt>
      <trkpt lat="43.259514" lon="-5.142665">
        <ele>466.0</ele>
        <time>2020-11-01T12:20:07Z</time>
      </trkpt>
      <trkpt lat="43.259514" lon="-5.142653">
        <ele>466.0</ele>
        <time>2020-11-01T12:20:08Z</time>
      </trkpt>
      <trkpt lat="43.25951" lon="-5.142642">
        <ele>466.0</ele>
        <time>2020-11-01T12:20:09Z</time>
      </trkpt>
      <trkpt lat="43.25951" lon="-5.14263">
        <ele>466.0</ele>
        <time>2020-11-01T12:20:10Z</time>
      </trkpt>
      <trkpt lat="43.259506" lon="-5.1426167">
        <ele>466.0</ele>
        <time>2020-11-01T12:20:11Z</time>
      </trkpt>
      <trkpt lat="43.259506" lon="-5.1426044">
        <ele>466.0</ele>
        <time>2020-11-01T12:20:12Z</time>
      </trkpt>
      <trkpt lat="43.25951" lon="-5.1425915">
        <ele>466.0</ele>
        <time>2020-11-01T12:20:14Z</time>
      </trkpt>
      <trkpt lat="43.25951" lon="-5.142582">
        <ele>466.0</ele>
        <time>2020-11-01T12:20:14Z</time>
      </trkpt>
      <trkpt lat="43.259514" lon="-5.142573">
        <ele>466.0</ele>
        <time>2020-11-01T12:20:15Z</time>
      </trkpt>
      <trkpt lat="43.259514" lon="-5.1425633">
        <ele>466.0</ele>
        <time>2020-11-01T12:20:16Z</time>
      </trkpt>
      <trkpt lat="43.25952" lon="-5.1425505">
        <ele>467.0</ele>
        <time>2020-11-01T12:20:17Z</time>
      </trkpt>
      <trkpt lat="43.259525" lon="-5.1425366">
        <ele>467.0</ele>
        <time>2020-11-01T12:20:18Z</time>
      </trkpt>
      <trkpt lat="43.259525" lon="-5.1425233">
        <ele>467.0</ele>
        <time>2020-11-01T12:20:19Z</time>
      </trkpt>
      <trkpt lat="43.259525" lon="-5.142512">
        <ele>467.0</ele>
        <time>2020-11-01T12:20:20Z</time>
      </trkpt>
      <trkpt lat="43.259525" lon="-5.1424975">
        <ele>467.0</ele>
        <time>2020-11-01T12:20:21Z</time>
      </trkpt>
      <trkpt lat="43.259525" lon="-5.1424828">
        <ele>467.0</ele>
        <time>2020-11-01T12:20:22Z</time>
      </trkpt>
      <trkpt lat="43.259525" lon="-5.1424665">
        <ele>467.0</ele>
        <time>2020-11-01T12:20:23Z</time>
      </trkpt>
      <trkpt lat="43.259525" lon="-5.142452">
        <ele>467.0</ele>
        <time>2020-11-01T12:20:24Z</time>
      </trkpt>
      <trkpt lat="43.259525" lon="-5.1424365">
        <ele>467.0</ele>
        <time>2020-11-01T12:20:25Z</time>
      </trkpt>
      <trkpt lat="43.25952" lon="-5.1424212">
        <ele>467.0</ele>
        <time>2020-11-01T12:20:26Z</time>
      </trkpt>
      <trkpt lat="43.25952" lon="-5.142407">
        <ele>467.0</ele>
        <time>2020-11-01T12:20:27Z</time>
      </trkpt>
      <trkpt lat="43.25952" lon="-5.142393">
        <ele>467.0</ele>
        <time>2020-11-01T12:20:29Z</time>
      </trkpt>
      <trkpt lat="43.25952" lon="-5.142378">
        <ele>467.0</ele>
        <time>2020-11-01T12:20:29Z</time>
      </trkpt>
      <trkpt lat="43.25952" lon="-5.142365">
        <ele>467.0</ele>
        <time>2020-11-01T12:20:30Z</time>
      </trkpt>
      <trkpt lat="43.259514" lon="-5.1423497">
        <ele>467.0</ele>
        <time>2020-11-01T12:20:31Z</time>
      </trkpt>
      <trkpt lat="43.259514" lon="-5.142335">
        <ele>467.0</ele>
        <time>2020-11-01T12:20:32Z</time>
      </trkpt>
      <trkpt lat="43.25951" lon="-5.1423206">
        <ele>467.0</ele>
        <time>2020-11-01T12:20:33Z</time>
      </trkpt>
      <trkpt lat="43.259514" lon="-5.1423087">
        <ele>467.0</ele>
        <time>2020-11-01T12:20:34Z</time>
      </trkpt>
      <trkpt lat="43.259514" lon="-5.142296">
        <ele>467.0</ele>
        <time>2020-11-01T12:20:35Z</time>
      </trkpt>
      <trkpt lat="43.259514" lon="-5.1422806">
        <ele>467.0</ele>
        <time>2020-11-01T12:20:37Z</time>
      </trkpt>
      <trkpt lat="43.259514" lon="-5.1422653">
        <ele>467.0</ele>
        <time>2020-11-01T12:20:37Z</time>
      </trkpt>
      <trkpt lat="43.25952" lon="-5.142252">
        <ele>467.0</ele>
        <time>2020-11-01T12:20:38Z</time>
      </trkpt>
      <trkpt lat="43.25952" lon="-5.1422396">
        <ele>468.0</ele>
        <time>2020-11-01T12:20:39Z</time>
      </trkpt>
      <trkpt lat="43.25952" lon="-5.1422286">
        <ele>468.0</ele>
        <time>2020-11-01T12:20:40Z</time>
      </trkpt>
      <trkpt lat="43.25952" lon="-5.142216">
        <ele>468.0</ele>
        <time>2020-11-01T12:20:42Z</time>
      </trkpt>
      <trkpt lat="43.25952" lon="-5.1422033">
        <ele>468.0</ele>
        <time>2020-11-01T12:20:42Z</time>
      </trkpt>
      <trkpt lat="43.259514" lon="-5.14219">
        <ele>468.0</ele>
        <time>2020-11-01T12:20:43Z</time>
      </trkpt>
      <trkpt lat="43.259514" lon="-5.1421757">
        <ele>468.0</ele>
        <time>2020-11-01T12:20:44Z</time>
      </trkpt>
      <trkpt lat="43.259506" lon="-5.1421614">
        <ele>468.0</ele>
        <time>2020-11-01T12:20:45Z</time>
      </trkpt>
      <trkpt lat="43.2595" lon="-5.14215">
        <ele>468.0</ele>
        <time>2020-11-01T12:20:46Z</time>
      </trkpt>
      <trkpt lat="43.2595" lon="-5.1421394">
        <ele>468.0</ele>
        <time>2020-11-01T12:20:47Z</time>
      </trkpt>
      <trkpt lat="43.259495" lon="-5.1421294">
        <ele>468.0</ele>
        <time>2020-11-01T12:20:48Z</time>
      </trkpt>
      <trkpt lat="43.259495" lon="-5.1421165">
        <ele>468.0</ele>
        <time>2020-11-01T12:20:49Z</time>
      </trkpt>
      <trkpt lat="43.259495" lon="-5.142101">
        <ele>468.0</ele>
        <time>2020-11-01T12:20:50Z</time>
      </trkpt>
      <trkpt lat="43.25949" lon="-5.1420846">
        <ele>469.0</ele>
        <time>2020-11-01T12:20:51Z</time>
      </trkpt>
      <trkpt lat="43.25949" lon="-5.142069">
        <ele>469.0</ele>
        <time>2020-11-01T12:20:52Z</time>
      </trkpt>
      <trkpt lat="43.25949" lon="-5.1420536">
        <ele>469.0</ele>
        <time>2020-11-01T12:20:53Z</time>
      </trkpt>
      <trkpt lat="43.25949" lon="-5.14204">
        <ele>469.0</ele>
        <time>2020-11-01T12:20:54Z</time>
      </trkpt>
      <trkpt lat="43.25948" lon="-5.142029">
        <ele>469.0</ele>
        <time>2020-11-01T12:20:55Z</time>
      </trkpt>
      <trkpt lat="43.259476" lon="-5.142017">
        <ele>469.0</ele>
        <time>2020-11-01T12:20:57Z</time>
      </trkpt>
      <trkpt lat="43.259464" lon="-5.142004">
        <ele>469.0</ele>
        <time>2020-11-01T12:20:57Z</time>
      </trkpt>
      <trkpt lat="43.25946" lon="-5.1419916">
        <ele>469.0</ele>
        <time>2020-11-01T12:20:58Z</time>
      </trkpt>
      <trkpt lat="43.25946" lon="-5.141982">
        <ele>469.0</ele>
        <time>2020-11-01T12:20:59Z</time>
      </trkpt>
      <trkpt lat="43.259453" lon="-5.1419725">
        <ele>469.0</ele>
        <time>2020-11-01T12:21:00Z</time>
      </trkpt>
      <trkpt lat="43.25946" lon="-5.141963">
        <ele>469.0</ele>
        <time>2020-11-01T12:21:01Z</time>
      </trkpt>
      <trkpt lat="43.25946" lon="-5.1419535">
        <ele>469.0</ele>
        <time>2020-11-01T12:21:02Z</time>
      </trkpt>
      <trkpt lat="43.25946" lon="-5.141941">
        <ele>469.0</ele>
        <time>2020-11-01T12:21:03Z</time>
      </trkpt>
      <trkpt lat="43.25946" lon="-5.141928">
        <ele>470.0</ele>
        <time>2020-11-01T12:21:04Z</time>
      </trkpt>
      <trkpt lat="43.25946" lon="-5.141917">
        <ele>470.0</ele>
        <time>2020-11-01T12:21:05Z</time>
      </trkpt>
      <trkpt lat="43.25946" lon="-5.141909">
        <ele>470.0</ele>
        <time>2020-11-01T12:21:06Z</time>
      </trkpt>
      <trkpt lat="43.25946" lon="-5.141889">
        <ele>470.0</ele>
        <time>2020-11-01T12:21:08Z</time>
      </trkpt>
      <trkpt lat="43.259453" lon="-5.1418853">
        <ele>470.0</ele>
        <time>2020-11-01T12:21:09Z</time>
      </trkpt>
      <trkpt lat="43.259453" lon="-5.141879">
        <ele>470.0</ele>
        <time>2020-11-01T12:21:10Z</time>
      </trkpt>
      <trkpt lat="43.259453" lon="-5.1418705">
        <ele>470.0</ele>
        <time>2020-11-01T12:21:11Z</time>
      </trkpt>
      <trkpt lat="43.259453" lon="-5.1418624">
        <ele>470.0</ele>
        <time>2020-11-01T12:21:12Z</time>
      </trkpt>
      <trkpt lat="43.25945" lon="-5.1418533">
        <ele>470.0</ele>
        <time>2020-11-01T12:21:13Z</time>
      </trkpt>
      <trkpt lat="43.25945" lon="-5.1418433">
        <ele>471.0</ele>
        <time>2020-11-01T12:21:14Z</time>
      </trkpt>
      <trkpt lat="43.25945" lon="-5.141833">
        <ele>471.0</ele>
        <time>2020-11-01T12:21:15Z</time>
      </trkpt>
      <trkpt lat="43.25944" lon="-5.1418204">
        <ele>471.0</ele>
        <time>2020-11-01T12:21:16Z</time>
      </trkpt>
      <trkpt lat="43.259438" lon="-5.141807">
        <ele>471.0</ele>
        <time>2020-11-01T12:21:17Z</time>
      </trkpt>
      <trkpt lat="43.259434" lon="-5.1417937">
        <ele>471.0</ele>
        <time>2020-11-01T12:21:18Z</time>
      </trkpt>
      <trkpt lat="43.259434" lon="-5.1417785">
        <ele>471.0</ele>
        <time>2020-11-01T12:21:20Z</time>
      </trkpt>
      <trkpt lat="43.259434" lon="-5.1417627">
        <ele>471.0</ele>
        <time>2020-11-01T12:21:20Z</time>
      </trkpt>
      <trkpt lat="43.259434" lon="-5.141747">
        <ele>471.0</ele>
        <time>2020-11-01T12:21:21Z</time>
      </trkpt>
      <trkpt lat="43.259434" lon="-5.1417313">
        <ele>471.0</ele>
        <time>2020-11-01T12:21:22Z</time>
      </trkpt>
      <trkpt lat="43.259434" lon="-5.141716">
        <ele>471.0</ele>
        <time>2020-11-01T12:21:23Z</time>
      </trkpt>
      <trkpt lat="43.259434" lon="-5.141701">
        <ele>471.0</ele>
        <time>2020-11-01T12:21:24Z</time>
      </trkpt>
      <trkpt lat="43.259434" lon="-5.141686">
        <ele>471.0</ele>
        <time>2020-11-01T12:21:25Z</time>
      </trkpt>
      <trkpt lat="43.259426" lon="-5.14167">
        <ele>471.0</ele>
        <time>2020-11-01T12:21:26Z</time>
      </trkpt>
      <trkpt lat="43.259426" lon="-5.1416554">
        <ele>471.0</ele>
        <time>2020-11-01T12:21:27Z</time>
      </trkpt>
      <trkpt lat="43.259422" lon="-5.141641">
        <ele>471.0</ele>
        <time>2020-11-01T12:21:28Z</time>
      </trkpt>
      <trkpt lat="43.259422" lon="-5.141627">
        <ele>471.0</ele>
        <time>2020-11-01T12:21:29Z</time>
      </trkpt>
      <trkpt lat="43.259422" lon="-5.1416116">
        <ele>471.0</ele>
        <time>2020-11-01T12:21:30Z</time>
      </trkpt>
      <trkpt lat="43.259422" lon="-5.141595">
        <ele>471.0</ele>
        <time>2020-11-01T12:21:31Z</time>
      </trkpt>
      <trkpt lat="43.25942" lon="-5.1415787">
        <ele>471.0</ele>
        <time>2020-11-01T12:21:32Z</time>
      </trkpt>
      <trkpt lat="43.25942" lon="-5.1415644">
        <ele>471.0</ele>
        <time>2020-11-01T12:21:33Z</time>
      </trkpt>
      <trkpt lat="43.25941" lon="-5.14155">
        <ele>471.0</ele>
        <time>2020-11-01T12:21:34Z</time>
      </trkpt>
      <trkpt lat="43.259407" lon="-5.141536">
        <ele>471.0</ele>
        <time>2020-11-01T12:21:36Z</time>
      </trkpt>
      <trkpt lat="43.259403" lon="-5.1415205">
        <ele>471.0</ele>
        <time>2020-11-01T12:21:36Z</time>
      </trkpt>
      <trkpt lat="43.259403" lon="-5.1415052">
        <ele>471.0</ele>
        <time>2020-11-01T12:21:36Z</time>
      </trkpt>
      <trkpt lat="43.259403" lon="-5.1414886">
        <ele>471.0</ele>
        <time>2020-11-01T12:21:37Z</time>
      </trkpt>
      <trkpt lat="43.259403" lon="-5.141472">
        <ele>471.0</ele>
        <time>2020-11-01T12:21:38Z</time>
      </trkpt>
      <trkpt lat="43.259403" lon="-5.141458">
        <ele>471.0</ele>
        <time>2020-11-01T12:21:40Z</time>
      </trkpt>
      <trkpt lat="43.259403" lon="-5.141443">
        <ele>472.0</ele>
        <time>2020-11-01T12:21:40Z</time>
      </trkpt>
      <trkpt lat="43.259403" lon="-5.141428">
        <ele>472.0</ele>
        <time>2020-11-01T12:21:41Z</time>
      </trkpt>
      <trkpt lat="43.259403" lon="-5.1414127">
        <ele>472.0</ele>
        <time>2020-11-01T12:21:42Z</time>
      </trkpt>
      <trkpt lat="43.259403" lon="-5.1413994">
        <ele>472.0</ele>
        <time>2020-11-01T12:21:44Z</time>
      </trkpt>
      <trkpt lat="43.259403" lon="-5.141389">
        <ele>472.0</ele>
        <time>2020-11-01T12:21:44Z</time>
      </trkpt>
      <trkpt lat="43.259403" lon="-5.1413803">
        <ele>472.0</ele>
        <time>2020-11-01T12:21:45Z</time>
      </trkpt>
      <trkpt lat="43.259403" lon="-5.1413717">
        <ele>472.0</ele>
        <time>2020-11-01T12:21:46Z</time>
      </trkpt>
      <trkpt lat="43.259403" lon="-5.1413608">
        <ele>472.0</ele>
        <time>2020-11-01T12:21:48Z</time>
      </trkpt>
      <trkpt lat="43.259396" lon="-5.1413493">
        <ele>472.0</ele>
        <time>2020-11-01T12:21:48Z</time>
      </trkpt>
      <trkpt lat="43.259396" lon="-5.1413355">
        <ele>472.0</ele>
        <time>2020-11-01T12:21:49Z</time>
      </trkpt>
      <trkpt lat="43.25939" lon="-5.1413198">
        <ele>472.0</ele>
        <time>2020-11-01T12:21:50Z</time>
      </trkpt>
      <trkpt lat="43.25939" lon="-5.1413045">
        <ele>472.0</ele>
        <time>2020-11-01T12:21:51Z</time>
      </trkpt>
      <trkpt lat="43.259396" lon="-5.141291">
        <ele>472.0</ele>
        <time>2020-11-01T12:21:52Z</time>
      </trkpt>
      <trkpt lat="43.25939" lon="-5.141278">
        <ele>472.0</ele>
        <time>2020-11-01T12:21:53Z</time>
      </trkpt>
      <trkpt lat="43.25939" lon="-5.141265">
        <ele>472.0</ele>
        <time>2020-11-01T12:21:54Z</time>
      </trkpt>
      <trkpt lat="43.259388" lon="-5.141252">
        <ele>472.0</ele>
        <time>2020-11-01T12:21:56Z</time>
      </trkpt>
      <trkpt lat="43.259388" lon="-5.1412363">
        <ele>472.0</ele>
        <time>2020-11-01T12:21:56Z</time>
      </trkpt>
      <trkpt lat="43.25938" lon="-5.1412225">
        <ele>473.0</ele>
        <time>2020-11-01T12:21:57Z</time>
      </trkpt>
      <trkpt lat="43.259377" lon="-5.1412077">
        <ele>473.0</ele>
        <time>2020-11-01T12:21:58Z</time>
      </trkpt>
      <trkpt lat="43.259377" lon="-5.141196">
        <ele>473.0</ele>
        <time>2020-11-01T12:21:59Z</time>
      </trkpt>
      <trkpt lat="43.259377" lon="-5.141184">
        <ele>473.0</ele>
        <time>2020-11-01T12:22:00Z</time>
      </trkpt>
      <trkpt lat="43.259373" lon="-5.141169">
        <ele>473.0</ele>
        <time>2020-11-01T12:22:01Z</time>
      </trkpt>
      <trkpt lat="43.259377" lon="-5.1411533">
        <ele>473.0</ele>
        <time>2020-11-01T12:22:02Z</time>
      </trkpt>
      <trkpt lat="43.259373" lon="-5.1411366">
        <ele>473.0</ele>
        <time>2020-11-01T12:22:03Z</time>
      </trkpt>
      <trkpt lat="43.259373" lon="-5.14112">
        <ele>473.0</ele>
        <time>2020-11-01T12:22:04Z</time>
      </trkpt>
      <trkpt lat="43.259373" lon="-5.141103">
        <ele>474.0</ele>
        <time>2020-11-01T12:22:05Z</time>
      </trkpt>
      <trkpt lat="43.259373" lon="-5.1410856">
        <ele>474.0</ele>
        <time>2020-11-01T12:22:06Z</time>
      </trkpt>
      <trkpt lat="43.259365" lon="-5.1410713">
        <ele>474.0</ele>
        <time>2020-11-01T12:22:07Z</time>
      </trkpt>
      <trkpt lat="43.25936" lon="-5.1410584">
        <ele>474.0</ele>
        <time>2020-11-01T12:22:08Z</time>
      </trkpt>
      <trkpt lat="43.259357" lon="-5.1410475">
        <ele>474.0</ele>
        <time>2020-11-01T12:22:10Z</time>
      </trkpt>
      <trkpt lat="43.25935" lon="-5.141037">
        <ele>474.0</ele>
        <time>2020-11-01T12:22:10Z</time>
      </trkpt>
      <trkpt lat="43.259346" lon="-5.141027">
        <ele>474.0</ele>
        <time>2020-11-01T12:22:11Z</time>
      </trkpt>
      <trkpt lat="43.259346" lon="-5.1410155">
        <ele>474.0</ele>
        <time>2020-11-01T12:22:12Z</time>
      </trkpt>
      <trkpt lat="43.259342" lon="-5.141004">
        <ele>474.0</ele>
        <time>2020-11-01T12:22:13Z</time>
      </trkpt>
      <trkpt lat="43.259342" lon="-5.1409903">
        <ele>474.0</ele>
        <time>2020-11-01T12:22:14Z</time>
      </trkpt>
      <trkpt lat="43.259335" lon="-5.1409745">
        <ele>474.0</ele>
        <time>2020-11-01T12:22:15Z</time>
      </trkpt>
      <trkpt lat="43.259335" lon="-5.1409616">
        <ele>474.0</ele>
        <time>2020-11-01T12:22:16Z</time>
      </trkpt>
      <trkpt lat="43.25933" lon="-5.14095">
        <ele>474.0</ele>
        <time>2020-11-01T12:22:17Z</time>
      </trkpt>
      <trkpt lat="43.25933" lon="-5.1409388">
        <ele>474.0</ele>
        <time>2020-11-01T12:22:18Z</time>
      </trkpt>
      <trkpt lat="43.25933" lon="-5.1409273">
        <ele>474.0</ele>
        <time>2020-11-01T12:22:19Z</time>
      </trkpt>
      <trkpt lat="43.25933" lon="-5.140916">
        <ele>474.0</ele>
        <time>2020-11-01T12:22:20Z</time>
      </trkpt>
      <trkpt lat="43.259327" lon="-5.1409025">
        <ele>475.0</ele>
        <time>2020-11-01T12:22:21Z</time>
      </trkpt>
      <trkpt lat="43.259327" lon="-5.1408873">
        <ele>475.0</ele>
        <time>2020-11-01T12:22:22Z</time>
      </trkpt>
      <trkpt lat="43.259327" lon="-5.1408725">
        <ele>475.0</ele>
        <time>2020-11-01T12:22:23Z</time>
      </trkpt>
      <trkpt lat="43.25932" lon="-5.1408606">
        <ele>475.0</ele>
        <time>2020-11-01T12:22:24Z</time>
      </trkpt>
      <trkpt lat="43.25932" lon="-5.14085">
        <ele>475.0</ele>
        <time>2020-11-01T12:22:25Z</time>
      </trkpt>
      <trkpt lat="43.259315" lon="-5.140838">
        <ele>475.0</ele>
        <time>2020-11-01T12:22:26Z</time>
      </trkpt>
      <trkpt lat="43.25931" lon="-5.1408253">
        <ele>475.0</ele>
        <time>2020-11-01T12:22:27Z</time>
      </trkpt>
      <trkpt lat="43.259304" lon="-5.1408143">
        <ele>475.0</ele>
        <time>2020-11-01T12:22:28Z</time>
      </trkpt>
      <trkpt lat="43.259296" lon="-5.1407847">
        <ele>475.0</ele>
        <time>2020-11-01T12:22:30Z</time>
      </trkpt>
      <trkpt lat="43.259296" lon="-5.1407833">
        <ele>475.0</ele>
        <time>2020-11-01T12:22:31Z</time>
      </trkpt>
      <trkpt lat="43.25929" lon="-5.1407795">
        <ele>475.0</ele>
        <time>2020-11-01T12:22:32Z</time>
      </trkpt>
      <trkpt lat="43.25929" lon="-5.140775">
        <ele>476.0</ele>
        <time>2020-11-01T12:22:34Z</time>
      </trkpt>
      <trkpt lat="43.25929" lon="-5.14077">
        <ele>476.0</ele>
        <time>2020-11-01T12:22:34Z</time>
      </trkpt>
      <trkpt lat="43.25929" lon="-5.140766">
        <ele>476.0</ele>
        <time>2020-11-01T12:22:35Z</time>
      </trkpt>
      <trkpt lat="43.25928" lon="-5.1407547">
        <ele>476.0</ele>
        <time>2020-11-01T12:22:37Z</time>
      </trkpt>
      <trkpt lat="43.259243" lon="-5.1406364">
        <ele>478.0</ele>
        <time>2020-11-01T12:23:03Z</time>
      </trkpt>
      <trkpt lat="43.259243" lon="-5.140633">
        <ele>478.0</ele>
        <time>2020-11-01T12:23:04Z</time>
      </trkpt>
      <trkpt lat="43.25924" lon="-5.140626">
        <ele>478.0</ele>
        <time>2020-11-01T12:23:05Z</time>
      </trkpt>
      <trkpt lat="43.25924" lon="-5.140619">
        <ele>478.0</ele>
        <time>2020-11-01T12:23:06Z</time>
      </trkpt>
      <trkpt lat="43.25923" lon="-5.1406097">
        <ele>478.0</ele>
        <time>2020-11-01T12:23:07Z</time>
      </trkpt>
      <trkpt lat="43.25923" lon="-5.1406">
        <ele>478.0</ele>
        <time>2020-11-01T12:23:08Z</time>
      </trkpt>
      <trkpt lat="43.259228" lon="-5.1405888">
        <ele>478.0</ele>
        <time>2020-11-01T12:23:09Z</time>
      </trkpt>
      <trkpt lat="43.259224" lon="-5.1405773">
        <ele>478.0</ele>
        <time>2020-11-01T12:23:10Z</time>
      </trkpt>
      <trkpt lat="43.259216" lon="-5.140567">
        <ele>478.0</ele>
        <time>2020-11-01T12:23:11Z</time>
      </trkpt>
      <trkpt lat="43.25921" lon="-5.1405563">
        <ele>478.0</ele>
        <time>2020-11-01T12:23:12Z</time>
      </trkpt>
      <trkpt lat="43.2592" lon="-5.140542">
        <ele>478.0</ele>
        <time>2020-11-01T12:23:13Z</time>
      </trkpt>
      <trkpt lat="43.259197" lon="-5.1405263">
        <ele>478.0</ele>
        <time>2020-11-01T12:23:14Z</time>
      </trkpt>
      <trkpt lat="43.259193" lon="-5.1405087">
        <ele>478.0</ele>
        <time>2020-11-01T12:23:16Z</time>
      </trkpt>
      <trkpt lat="43.259186" lon="-5.14049">
        <ele>478.0</ele>
        <time>2020-11-01T12:23:16Z</time>
      </trkpt>
      <trkpt lat="43.259186" lon="-5.1404734">
        <ele>479.0</ele>
        <time>2020-11-01T12:23:17Z</time>
      </trkpt>
      <trkpt lat="43.259182" lon="-5.140456">
        <ele>479.0</ele>
        <time>2020-11-01T12:23:18Z</time>
      </trkpt>
      <trkpt lat="43.259182" lon="-5.1404386">
        <ele>479.0</ele>
        <time>2020-11-01T12:23:19Z</time>
      </trkpt>
      <trkpt lat="43.25918" lon="-5.14042">
        <ele>479.0</ele>
        <time>2020-11-01T12:23:20Z</time>
      </trkpt>
      <trkpt lat="43.25918" lon="-5.140405">
        <ele>479.0</ele>
        <time>2020-11-01T12:23:21Z</time>
      </trkpt>
      <trkpt lat="43.25917" lon="-5.1403937">
        <ele>480.0</ele>
        <time>2020-11-01T12:23:22Z</time>
      </trkpt>
      <trkpt lat="43.25918" lon="-5.140362">
        <ele>480.0</ele>
        <time>2020-11-01T12:23:25Z</time>
      </trkpt>
      <trkpt lat="43.25918" lon="-5.14036">
        <ele>480.0</ele>
        <time>2020-11-01T12:23:26Z</time>
      </trkpt>
      <trkpt lat="43.25918" lon="-5.140357">
        <ele>480.0</ele>
        <time>2020-11-01T12:23:27Z</time>
      </trkpt>
      <trkpt lat="43.25918" lon="-5.1403503">
        <ele>480.0</ele>
        <time>2020-11-01T12:23:28Z</time>
      </trkpt>
      <trkpt lat="43.25918" lon="-5.1403418">
        <ele>480.0</ele>
        <time>2020-11-01T12:23:29Z</time>
      </trkpt>
      <trkpt lat="43.25918" lon="-5.1403284">
        <ele>480.0</ele>
        <time>2020-11-01T12:23:30Z</time>
      </trkpt>
      <trkpt lat="43.25917" lon="-5.1403155">
        <ele>480.0</ele>
        <time>2020-11-01T12:23:31Z</time>
      </trkpt>
      <trkpt lat="43.25917" lon="-5.140302">
        <ele>480.0</ele>
        <time>2020-11-01T12:23:32Z</time>
      </trkpt>
      <trkpt lat="43.25917" lon="-5.140287">
        <ele>481.0</ele>
        <time>2020-11-01T12:23:33Z</time>
      </trkpt>
      <trkpt lat="43.25917" lon="-5.140271">
        <ele>481.0</ele>
        <time>2020-11-01T12:23:34Z</time>
      </trkpt>
      <trkpt lat="43.259167" lon="-5.1402555">
        <ele>481.0</ele>
        <time>2020-11-01T12:23:35Z</time>
      </trkpt>
      <trkpt lat="43.259167" lon="-5.140241">
        <ele>481.0</ele>
        <time>2020-11-01T12:23:36Z</time>
      </trkpt>
      <trkpt lat="43.259163" lon="-5.140227">
        <ele>481.0</ele>
        <time>2020-11-01T12:23:37Z</time>
      </trkpt>
      <trkpt lat="43.259163" lon="-5.140212">
        <ele>481.0</ele>
        <time>2020-11-01T12:23:38Z</time>
      </trkpt>
      <trkpt lat="43.259155" lon="-5.140197">
        <ele>481.0</ele>
        <time>2020-11-01T12:23:39Z</time>
      </trkpt>
      <trkpt lat="43.25915" lon="-5.140183">
        <ele>481.0</ele>
        <time>2020-11-01T12:23:40Z</time>
      </trkpt>
      <trkpt lat="43.25915" lon="-5.1401677">
        <ele>481.0</ele>
        <time>2020-11-01T12:23:41Z</time>
      </trkpt>
      <trkpt lat="43.259148" lon="-5.1401553">
        <ele>482.0</ele>
        <time>2020-11-01T12:23:42Z</time>
      </trkpt>
      <trkpt lat="43.259148" lon="-5.1401434">
        <ele>482.0</ele>
        <time>2020-11-01T12:23:43Z</time>
      </trkpt>
      <trkpt lat="43.25914" lon="-5.140132">
        <ele>482.0</ele>
        <time>2020-11-01T12:23:44Z</time>
      </trkpt>
      <trkpt lat="43.25914" lon="-5.1401186">
        <ele>482.0</ele>
        <time>2020-11-01T12:23:45Z</time>
      </trkpt>
      <trkpt lat="43.259136" lon="-5.1401057">
        <ele>482.0</ele>
        <time>2020-11-01T12:23:47Z</time>
      </trkpt>
      <trkpt lat="43.259136" lon="-5.140092">
        <ele>483.0</ele>
        <time>2020-11-01T12:23:47Z</time>
      </trkpt>
      <trkpt lat="43.259132" lon="-5.1400795">
        <ele>483.0</ele>
        <time>2020-11-01T12:23:48Z</time>
      </trkpt>
      <trkpt lat="43.259125" lon="-5.140068">
        <ele>483.0</ele>
        <time>2020-11-01T12:23:49Z</time>
      </trkpt>
      <trkpt lat="43.25912" lon="-5.140058">
        <ele>483.0</ele>
        <time>2020-11-01T12:23:50Z</time>
      </trkpt>
      <trkpt lat="43.259117" lon="-5.1400476">
        <ele>483.0</ele>
        <time>2020-11-01T12:23:51Z</time>
      </trkpt>
      <trkpt lat="43.25911" lon="-5.1400366">
        <ele>483.0</ele>
        <time>2020-11-01T12:23:52Z</time>
      </trkpt>
      <trkpt lat="43.2591" lon="-5.140031">
        <ele>483.0</ele>
        <time>2020-11-01T12:23:53Z</time>
      </trkpt>
      <trkpt lat="43.259087" lon="-5.140025">
        <ele>483.0</ele>
        <time>2020-11-01T12:23:54Z</time>
      </trkpt>
      <trkpt lat="43.25908" lon="-5.140021">
        <ele>483.0</ele>
        <time>2020-11-01T12:23:55Z</time>
      </trkpt>
      <trkpt lat="43.259068" lon="-5.140017">
        <ele>483.0</ele>
        <time>2020-11-01T12:23:56Z</time>
      </trkpt>
      <trkpt lat="43.25906" lon="-5.1400123">
        <ele>483.0</ele>
        <time>2020-11-01T12:23:57Z</time>
      </trkpt>
      <trkpt lat="43.25905" lon="-5.1400056">
        <ele>483.0</ele>
        <time>2020-11-01T12:23:58Z</time>
      </trkpt>
      <trkpt lat="43.259045" lon="-5.1399965">
        <ele>484.0</ele>
        <time>2020-11-01T12:23:59Z</time>
      </trkpt>
      <trkpt lat="43.259033" lon="-5.1399856">
        <ele>484.0</ele>
        <time>2020-11-01T12:24:00Z</time>
      </trkpt>
      <trkpt lat="43.25903" lon="-5.139973">
        <ele>484.0</ele>
        <time>2020-11-01T12:24:02Z</time>
      </trkpt>
      <trkpt lat="43.25902" lon="-5.139961">
        <ele>484.0</ele>
        <time>2020-11-01T12:24:02Z</time>
      </trkpt>
      <trkpt lat="43.259018" lon="-5.139951">
        <ele>484.0</ele>
        <time>2020-11-01T12:24:03Z</time>
      </trkpt>
      <trkpt lat="43.259007" lon="-5.139943">
        <ele>484.0</ele>
        <time>2020-11-01T12:24:04Z</time>
      </trkpt>
      <trkpt lat="43.259003" lon="-5.139935">
        <ele>484.0</ele>
        <time>2020-11-01T12:24:05Z</time>
      </trkpt>
      <trkpt lat="43.25899" lon="-5.139929">
        <ele>484.0</ele>
        <time>2020-11-01T12:24:06Z</time>
      </trkpt>
      <trkpt lat="43.258984" lon="-5.139922">
        <ele>484.0</ele>
        <time>2020-11-01T12:24:07Z</time>
      </trkpt>
      <trkpt lat="43.258976" lon="-5.1399136">
        <ele>485.0</ele>
        <time>2020-11-01T12:24:08Z</time>
      </trkpt>
      <trkpt lat="43.25897" lon="-5.1399045">
        <ele>485.0</ele>
        <time>2020-11-01T12:24:09Z</time>
      </trkpt>
      <trkpt lat="43.25896" lon="-5.139894">
        <ele>485.0</ele>
        <time>2020-11-01T12:24:10Z</time>
      </trkpt>
      <trkpt lat="43.25896" lon="-5.139879">
        <ele>485.0</ele>
        <time>2020-11-01T12:24:11Z</time>
      </trkpt>
      <trkpt lat="43.25897" lon="-5.139863">
        <ele>485.0</ele>
        <time>2020-11-01T12:24:12Z</time>
      </trkpt>
      <trkpt lat="43.258972" lon="-5.139851">
        <ele>485.0</ele>
        <time>2020-11-01T12:24:13Z</time>
      </trkpt>
      <trkpt lat="43.258976" lon="-5.1398215">
        <ele>485.0</ele>
        <time>2020-11-01T12:24:15Z</time>
      </trkpt>
      <trkpt lat="43.258976" lon="-5.139827">
        <ele>485.0</ele>
        <time>2020-11-01T12:24:20Z</time>
      </trkpt>
      <trkpt lat="43.258976" lon="-5.139827">
        <ele>485.0</ele>
        <time>2020-11-01T12:24:21Z</time>
      </trkpt>
      <trkpt lat="43.258976" lon="-5.139828">
        <ele>485.0</ele>
        <time>2020-11-01T12:24:22Z</time>
      </trkpt>
      <trkpt lat="43.258984" lon="-5.1398296">
        <ele>486.0</ele>
        <time>2020-11-01T12:24:23Z</time>
      </trkpt>
      <trkpt lat="43.258987" lon="-5.139835">
        <ele>486.0</ele>
        <time>2020-11-01T12:24:25Z</time>
      </trkpt>
      <trkpt lat="43.258987" lon="-5.139838">
        <ele>486.0</ele>
        <time>2020-11-01T12:24:27Z</time>
      </trkpt>
      <trkpt lat="43.25899" lon="-5.139838">
        <ele>486.0</ele>
        <time>2020-11-01T12:25:11Z</time>
      </trkpt>
      <trkpt lat="43.25899" lon="-5.1398377">
        <ele>486.0</ele>
        <time>2020-11-01T12:25:12Z</time>
      </trkpt>
      <trkpt lat="43.258987" lon="-5.139825">
        <ele>486.0</ele>
        <time>2020-11-01T12:25:25Z</time>
      </trkpt>
      <trkpt lat="43.258987" lon="-5.139824">
        <ele>486.0</ele>
        <time>2020-11-01T12:25:26Z</time>
      </trkpt>
      <trkpt lat="43.258984" lon="-5.13981">
        <ele>486.0</ele>
        <time>2020-11-01T12:25:28Z</time>
      </trkpt>
      <trkpt lat="43.258984" lon="-5.139809">
        <ele>486.0</ele>
        <time>2020-11-01T12:25:29Z</time>
      </trkpt>
      <trkpt lat="43.258984" lon="-5.139807">
        <ele>486.0</ele>
        <time>2020-11-01T12:25:31Z</time>
      </trkpt>
      <trkpt lat="43.258976" lon="-5.1397934">
        <ele>486.0</ele>
        <time>2020-11-01T12:25:32Z</time>
      </trkpt>
      <trkpt lat="43.258976" lon="-5.1397924">
        <ele>486.0</ele>
        <time>2020-11-01T12:25:33Z</time>
      </trkpt>
      <trkpt lat="43.258976" lon="-5.1397905">
        <ele>486.0</ele>
        <time>2020-11-01T12:25:34Z</time>
      </trkpt>
      <trkpt lat="43.258976" lon="-5.139785">
        <ele>486.0</ele>
        <time>2020-11-01T12:25:36Z</time>
      </trkpt>
      <trkpt lat="43.258972" lon="-5.139768">
        <ele>486.0</ele>
        <time>2020-11-01T12:25:55Z</time>
      </trkpt>
      <trkpt lat="43.258972" lon="-5.1397614">
        <ele>486.0</ele>
        <time>2020-11-01T12:25:56Z</time>
      </trkpt>
      <trkpt lat="43.25897" lon="-5.1397486">
        <ele>486.0</ele>
        <time>2020-11-01T12:25:57Z</time>
      </trkpt>
      <trkpt lat="43.25897" lon="-5.13973">
        <ele>486.0</ele>
        <time>2020-11-01T12:25:58Z</time>
      </trkpt>
      <trkpt lat="43.25897" lon="-5.139709">
        <ele>486.0</ele>
        <time>2020-11-01T12:25:59Z</time>
      </trkpt>
      <trkpt lat="43.25897" lon="-5.1396866">
        <ele>486.0</ele>
        <time>2020-11-01T12:26:01Z</time>
      </trkpt>
      <trkpt lat="43.258972" lon="-5.139664">
        <ele>486.0</ele>
        <time>2020-11-01T12:26:01Z</time>
      </trkpt>
      <trkpt lat="43.258972" lon="-5.139642">
        <ele>486.0</ele>
        <time>2020-11-01T12:26:02Z</time>
      </trkpt>
      <trkpt lat="43.258976" lon="-5.1396194">
        <ele>486.0</ele>
        <time>2020-11-01T12:26:03Z</time>
      </trkpt>
      <trkpt lat="43.258976" lon="-5.139594">
        <ele>486.0</ele>
        <time>2020-11-01T12:26:04Z</time>
      </trkpt>
      <trkpt lat="43.258984" lon="-5.1395707">
        <ele>486.0</ele>
        <time>2020-11-01T12:26:05Z</time>
      </trkpt>
      <trkpt lat="43.258984" lon="-5.1395483">
        <ele>486.0</ele>
        <time>2020-11-01T12:26:06Z</time>
      </trkpt>
      <trkpt lat="43.258984" lon="-5.139527">
        <ele>486.0</ele>
        <time>2020-11-01T12:26:07Z</time>
      </trkpt>
      <trkpt lat="43.258984" lon="-5.139508">
        <ele>486.0</ele>
        <time>2020-11-01T12:26:08Z</time>
      </trkpt>
      <trkpt lat="43.258984" lon="-5.139488">
        <ele>486.0</ele>
        <time>2020-11-01T12:26:09Z</time>
      </trkpt>
      <trkpt lat="43.258984" lon="-5.1394696">
        <ele>486.0</ele>
        <time>2020-11-01T12:26:10Z</time>
      </trkpt>
      <trkpt lat="43.258984" lon="-5.139451">
        <ele>486.0</ele>
        <time>2020-11-01T12:26:11Z</time>
      </trkpt>
      <trkpt lat="43.258984" lon="-5.1394334">
        <ele>486.0</ele>
        <time>2020-11-01T12:26:12Z</time>
      </trkpt>
      <trkpt lat="43.258987" lon="-5.1394157">
        <ele>486.0</ele>
        <time>2020-11-01T12:26:13Z</time>
      </trkpt>
      <trkpt lat="43.258987" lon="-5.1393986">
        <ele>486.0</ele>
        <time>2020-11-01T12:26:14Z</time>
      </trkpt>
      <trkpt lat="43.25899" lon="-5.139381">
        <ele>486.0</ele>
        <time>2020-11-01T12:26:15Z</time>
      </trkpt>
      <trkpt lat="43.25899" lon="-5.1393657">
        <ele>486.0</ele>
        <time>2020-11-01T12:26:16Z</time>
      </trkpt>
      <trkpt lat="43.259" lon="-5.1393495">
        <ele>486.0</ele>
        <time>2020-11-01T12:26:17Z</time>
      </trkpt>
      <trkpt lat="43.259" lon="-5.1393347">
        <ele>486.0</ele>
        <time>2020-11-01T12:26:18Z</time>
      </trkpt>
      <trkpt lat="43.259" lon="-5.139322">
        <ele>486.0</ele>
        <time>2020-11-01T12:26:19Z</time>
      </trkpt>
      <trkpt lat="43.259" lon="-5.13931">
        <ele>486.0</ele>
        <time>2020-11-01T12:26:20Z</time>
      </trkpt>
      <trkpt lat="43.259" lon="-5.1392994">
        <ele>486.0</ele>
        <time>2020-11-01T12:26:21Z</time>
      </trkpt>
      <trkpt lat="43.259" lon="-5.1392884">
        <ele>486.0</ele>
        <time>2020-11-01T12:26:22Z</time>
      </trkpt>
      <trkpt lat="43.259" lon="-5.139276">
        <ele>486.0</ele>
        <time>2020-11-01T12:26:24Z</time>
      </trkpt>
      <trkpt lat="43.259003" lon="-5.139262">
        <ele>486.0</ele>
        <time>2020-11-01T12:26:24Z</time>
      </trkpt>
      <trkpt lat="43.259007" lon="-5.139248">
        <ele>486.0</ele>
        <time>2020-11-01T12:26:25Z</time>
      </trkpt>
      <trkpt lat="43.259014" lon="-5.1392345">
        <ele>483.0</ele>
        <time>2020-11-01T12:26:26Z</time>
      </trkpt>
      <trkpt lat="43.259014" lon="-5.139222">
        <ele>483.0</ele>
        <time>2020-11-01T12:26:27Z</time>
      </trkpt>
      <trkpt lat="43.259018" lon="-5.139211">
        <ele>483.0</ele>
        <time>2020-11-01T12:26:28Z</time>
      </trkpt>
      <trkpt lat="43.259018" lon="-5.1392">
        <ele>483.0</ele>
        <time>2020-11-01T12:26:29Z</time>
      </trkpt>
      <trkpt lat="43.25902" lon="-5.1391892">
        <ele>483.0</ele>
        <time>2020-11-01T12:26:30Z</time>
      </trkpt>
      <trkpt lat="43.25902" lon="-5.1391788">
        <ele>483.0</ele>
        <time>2020-11-01T12:26:31Z</time>
      </trkpt>
      <trkpt lat="43.25902" lon="-5.1391664">
        <ele>483.0</ele>
        <time>2020-11-01T12:26:32Z</time>
      </trkpt>
      <trkpt lat="43.25903" lon="-5.1391535">
        <ele>483.0</ele>
        <time>2020-11-01T12:26:33Z</time>
      </trkpt>
      <trkpt lat="43.25903" lon="-5.139139">
        <ele>483.0</ele>
        <time>2020-11-01T12:26:34Z</time>
      </trkpt>
      <trkpt lat="43.259033" lon="-5.1391234">
        <ele>483.0</ele>
        <time>2020-11-01T12:26:35Z</time>
      </trkpt>
      <trkpt lat="43.259037" lon="-5.1391087">
        <ele>483.0</ele>
        <time>2020-11-01T12:26:36Z</time>
      </trkpt>
      <trkpt lat="43.259045" lon="-5.139093">
        <ele>483.0</ele>
        <time>2020-11-01T12:26:37Z</time>
      </trkpt>
      <trkpt lat="43.25905" lon="-5.139074">
        <ele>483.0</ele>
        <time>2020-11-01T12:26:38Z</time>
      </trkpt>
      <trkpt lat="43.259052" lon="-5.1390557">
        <ele>483.0</ele>
        <time>2020-11-01T12:26:39Z</time>
      </trkpt>
      <trkpt lat="43.25906" lon="-5.139039">
        <ele>483.0</ele>
        <time>2020-11-01T12:26:40Z</time>
      </trkpt>
      <trkpt lat="43.259068" lon="-5.139024">
        <ele>483.0</ele>
        <time>2020-11-01T12:26:41Z</time>
      </trkpt>
      <trkpt lat="43.259075" lon="-5.13901">
        <ele>483.0</ele>
        <time>2020-11-01T12:26:42Z</time>
      </trkpt>
      <trkpt lat="43.25908" lon="-5.138997">
        <ele>483.0</ele>
        <time>2020-11-01T12:26:43Z</time>
      </trkpt>
      <trkpt lat="43.259087" lon="-5.1389856">
        <ele>483.0</ele>
        <time>2020-11-01T12:26:45Z</time>
      </trkpt>
      <trkpt lat="43.25909" lon="-5.1389747">
        <ele>483.0</ele>
        <time>2020-11-01T12:26:45Z</time>
      </trkpt>
      <trkpt lat="43.259094" lon="-5.1389637">
        <ele>483.0</ele>
        <time>2020-11-01T12:26:46Z</time>
      </trkpt>
      <trkpt lat="43.2591" lon="-5.1389527">
        <ele>483.0</ele>
        <time>2020-11-01T12:26:47Z</time>
      </trkpt>
      <trkpt lat="43.259106" lon="-5.1389403">
        <ele>483.0</ele>
        <time>2020-11-01T12:26:48Z</time>
      </trkpt>
      <trkpt lat="43.259117" lon="-5.1389275">
        <ele>483.0</ele>
        <time>2020-11-01T12:26:49Z</time>
      </trkpt>
      <trkpt lat="43.25912" lon="-5.138916">
        <ele>483.0</ele>
        <time>2020-11-01T12:26:50Z</time>
      </trkpt>
      <trkpt lat="43.25912" lon="-5.1389046">
        <ele>483.0</ele>
        <time>2020-11-01T12:26:51Z</time>
      </trkpt>
      <trkpt lat="43.259125" lon="-5.138893">
        <ele>483.0</ele>
        <time>2020-11-01T12:26:53Z</time>
      </trkpt>
      <trkpt lat="43.259132" lon="-5.1388817">
        <ele>483.0</ele>
        <time>2020-11-01T12:26:53Z</time>
      </trkpt>
      <trkpt lat="43.259136" lon="-5.138872">
        <ele>483.0</ele>
        <time>2020-11-01T12:26:54Z</time>
      </trkpt>
      <trkpt lat="43.25914" lon="-5.1388626">
        <ele>482.0</ele>
        <time>2020-11-01T12:26:55Z</time>
      </trkpt>
      <trkpt lat="43.259148" lon="-5.1388535">
        <ele>482.0</ele>
        <time>2020-11-01T12:26:56Z</time>
      </trkpt>
      <trkpt lat="43.25915" lon="-5.1388435">
        <ele>482.0</ele>
        <time>2020-11-01T12:26:57Z</time>
      </trkpt>
      <trkpt lat="43.259155" lon="-5.138833">
        <ele>482.0</ele>
        <time>2020-11-01T12:26:58Z</time>
      </trkpt>
      <trkpt lat="43.259163" lon="-5.138822">
        <ele>482.0</ele>
        <time>2020-11-01T12:26:59Z</time>
      </trkpt>
      <trkpt lat="43.259167" lon="-5.1388087">
        <ele>482.0</ele>
        <time>2020-11-01T12:27:00Z</time>
      </trkpt>
      <trkpt lat="43.25917" lon="-5.1387954">
        <ele>482.0</ele>
        <time>2020-11-01T12:27:01Z</time>
      </trkpt>
      <trkpt lat="43.259182" lon="-5.1387825">
        <ele>482.0</ele>
        <time>2020-11-01T12:27:02Z</time>
      </trkpt>
      <trkpt lat="43.259186" lon="-5.138764">
        <ele>482.0</ele>
        <time>2020-11-01T12:27:03Z</time>
      </trkpt>
      <trkpt lat="43.259186" lon="-5.1387453">
        <ele>482.0</ele>
        <time>2020-11-01T12:27:04Z</time>
      </trkpt>
      <trkpt lat="43.259193" lon="-5.138733">
        <ele>482.0</ele>
        <time>2020-11-01T12:27:05Z</time>
      </trkpt>
      <trkpt lat="43.259197" lon="-5.138726">
        <ele>482.0</ele>
        <time>2020-11-01T12:27:06Z</time>
      </trkpt>
      <trkpt lat="43.2592" lon="-5.1387224">
        <ele>482.0</ele>
        <time>2020-11-01T12:27:07Z</time>
      </trkpt>
      <trkpt lat="43.25921" lon="-5.1387205">
        <ele>482.0</ele>
        <time>2020-11-01T12:27:08Z</time>
      </trkpt>
      <trkpt lat="43.259212" lon="-5.1387196">
        <ele>481.0</ele>
        <time>2020-11-01T12:27:09Z</time>
      </trkpt>
      <trkpt lat="43.259216" lon="-5.1387186">
        <ele>481.0</ele>
        <time>2020-11-01T12:27:10Z</time>
      </trkpt>
      <trkpt lat="43.259224" lon="-5.138715">
        <ele>481.0</ele>
        <time>2020-11-01T12:27:11Z</time>
      </trkpt>
      <trkpt lat="43.259224" lon="-5.138708">
        <ele>481.0</ele>
        <time>2020-11-01T12:27:12Z</time>
      </trkpt>
      <trkpt lat="43.259228" lon="-5.138702">
        <ele>481.0</ele>
        <time>2020-11-01T12:27:13Z</time>
      </trkpt>
      <trkpt lat="43.25923" lon="-5.1386933">
        <ele>481.0</ele>
        <time>2020-11-01T12:27:14Z</time>
      </trkpt>
      <trkpt lat="43.25923" lon="-5.138682">
        <ele>481.0</ele>
        <time>2020-11-01T12:27:15Z</time>
      </trkpt>
      <trkpt lat="43.25924" lon="-5.138669">
        <ele>481.0</ele>
        <time>2020-11-01T12:27:17Z</time>
      </trkpt>
      <trkpt lat="43.25924" lon="-5.138654">
        <ele>481.0</ele>
        <time>2020-11-01T12:27:17Z</time>
      </trkpt>
      <trkpt lat="43.25924" lon="-5.138643">
        <ele>481.0</ele>
        <time>2020-11-01T12:27:18Z</time>
      </trkpt>
      <trkpt lat="43.25924" lon="-5.1386313">
        <ele>481.0</ele>
        <time>2020-11-01T12:27:19Z</time>
      </trkpt>
      <trkpt lat="43.25924" lon="-5.138618">
        <ele>481.0</ele>
        <time>2020-11-01T12:27:20Z</time>
      </trkpt>
      <trkpt lat="43.25924" lon="-5.1386056">
        <ele>481.0</ele>
        <time>2020-11-01T12:27:21Z</time>
      </trkpt>
      <trkpt lat="43.259243" lon="-5.138596">
        <ele>481.0</ele>
        <time>2020-11-01T12:27:22Z</time>
      </trkpt>
      <trkpt lat="43.259254" lon="-5.138586">
        <ele>480.0</ele>
        <time>2020-11-01T12:27:23Z</time>
      </trkpt>
      <trkpt lat="43.25926" lon="-5.1385765">
        <ele>480.0</ele>
        <time>2020-11-01T12:27:25Z</time>
      </trkpt>
      <trkpt lat="43.259266" lon="-5.138565">
        <ele>480.0</ele>
        <time>2020-11-01T12:27:25Z</time>
      </trkpt>
      <trkpt lat="43.259266" lon="-5.1385536">
        <ele>480.0</ele>
        <time>2020-11-01T12:27:26Z</time>
      </trkpt>
      <trkpt lat="43.259266" lon="-5.1385403">
        <ele>480.0</ele>
        <time>2020-11-01T12:27:27Z</time>
      </trkpt>
      <trkpt lat="43.259266" lon="-5.1385255">
        <ele>480.0</ele>
        <time>2020-11-01T12:27:28Z</time>
      </trkpt>
      <trkpt lat="43.25927" lon="-5.1385093">
        <ele>480.0</ele>
        <time>2020-11-01T12:27:29Z</time>
      </trkpt>
      <trkpt lat="43.25927" lon="-5.1384935">
        <ele>480.0</ele>
        <time>2020-11-01T12:27:30Z</time>
      </trkpt>
      <trkpt lat="43.25927" lon="-5.138479">
        <ele>480.0</ele>
        <time>2020-11-01T12:27:31Z</time>
      </trkpt>
      <trkpt lat="43.259274" lon="-5.138464">
        <ele>480.0</ele>
        <time>2020-11-01T12:27:33Z</time>
      </trkpt>
      <trkpt lat="43.259274" lon="-5.1384516">
        <ele>480.0</ele>
        <time>2020-11-01T12:27:33Z</time>
      </trkpt>
      <trkpt lat="43.25928" lon="-5.1384377">
        <ele>480.0</ele>
        <time>2020-11-01T12:27:34Z</time>
      </trkpt>
      <trkpt lat="43.259285" lon="-5.1384254">
        <ele>480.0</ele>
        <time>2020-11-01T12:27:35Z</time>
      </trkpt>
      <trkpt lat="43.25929" lon="-5.138414">
        <ele>480.0</ele>
        <time>2020-11-01T12:27:36Z</time>
      </trkpt>
      <trkpt lat="43.259296" lon="-5.1384015">
        <ele>479.0</ele>
        <time>2020-11-01T12:27:37Z</time>
      </trkpt>
      <trkpt lat="43.2593" lon="-5.138388">
        <ele>479.0</ele>
        <time>2020-11-01T12:27:38Z</time>
      </trkpt>
      <trkpt lat="43.259304" lon="-5.138373">
        <ele>479.0</ele>
        <time>2020-11-01T12:27:39Z</time>
      </trkpt>
      <trkpt lat="43.259304" lon="-5.1383576">
        <ele>479.0</ele>
        <time>2020-11-01T12:27:40Z</time>
      </trkpt>
      <trkpt lat="43.25931" lon="-5.138342">
        <ele>479.0</ele>
        <time>2020-11-01T12:27:41Z</time>
      </trkpt>
      <trkpt lat="43.25931" lon="-5.138326">
        <ele>479.0</ele>
        <time>2020-11-01T12:27:42Z</time>
      </trkpt>
      <trkpt lat="43.25931" lon="-5.1383104">
        <ele>479.0</ele>
        <time>2020-11-01T12:27:43Z</time>
      </trkpt>
      <trkpt lat="43.25931" lon="-5.138294">
        <ele>479.0</ele>
        <time>2020-11-01T12:27:44Z</time>
      </trkpt>
      <trkpt lat="43.259304" lon="-5.138279">
        <ele>478.0</ele>
        <time>2020-11-01T12:27:45Z</time>
      </trkpt>
      <trkpt lat="43.2593" lon="-5.1382656">
        <ele>478.0</ele>
        <time>2020-11-01T12:27:46Z</time>
      </trkpt>
      <trkpt lat="43.259296" lon="-5.138249">
        <ele>478.0</ele>
        <time>2020-11-01T12:27:47Z</time>
      </trkpt>
      <trkpt lat="43.25929" lon="-5.138231">
        <ele>478.0</ele>
        <time>2020-11-01T12:27:48Z</time>
      </trkpt>
      <trkpt lat="43.259285" lon="-5.1382117">
        <ele>478.0</ele>
        <time>2020-11-01T12:27:49Z</time>
      </trkpt>
      <trkpt lat="43.259285" lon="-5.138194">
        <ele>478.0</ele>
        <time>2020-11-01T12:27:50Z</time>
      </trkpt>
      <trkpt lat="43.259285" lon="-5.1381774">
        <ele>478.0</ele>
        <time>2020-11-01T12:27:51Z</time>
      </trkpt>
      <trkpt lat="43.25929" lon="-5.138163">
        <ele>478.0</ele>
        <time>2020-11-01T12:27:52Z</time>
      </trkpt>
      <trkpt lat="43.259296" lon="-5.138147">
        <ele>477.0</ele>
        <time>2020-11-01T12:27:54Z</time>
      </trkpt>
      <trkpt lat="43.259296" lon="-5.1381307">
        <ele>477.0</ele>
        <time>2020-11-01T12:27:54Z</time>
      </trkpt>
      <trkpt lat="43.259296" lon="-5.1381173">
        <ele>477.0</ele>
        <time>2020-11-01T12:27:55Z</time>
      </trkpt>
      <trkpt lat="43.259296" lon="-5.138105">
        <ele>477.0</ele>
        <time>2020-11-01T12:27:56Z</time>
      </trkpt>
      <trkpt lat="43.25929" lon="-5.1380935">
        <ele>477.0</ele>
        <time>2020-11-01T12:27:57Z</time>
      </trkpt>
      <trkpt lat="43.25929" lon="-5.1380816">
        <ele>477.0</ele>
        <time>2020-11-01T12:27:58Z</time>
      </trkpt>
      <trkpt lat="43.25929" lon="-5.138069">
        <ele>477.0</ele>
        <time>2020-11-01T12:27:59Z</time>
      </trkpt>
      <trkpt lat="43.259285" lon="-5.1380568">
        <ele>477.0</ele>
        <time>2020-11-01T12:28:00Z</time>
      </trkpt>
      <trkpt lat="43.259285" lon="-5.138044">
        <ele>477.0</ele>
        <time>2020-11-01T12:28:01Z</time>
      </trkpt>
      <trkpt lat="43.259285" lon="-5.1380296">
        <ele>477.0</ele>
        <time>2020-11-01T12:28:02Z</time>
      </trkpt>
      <trkpt lat="43.259285" lon="-5.1380143">
        <ele>477.0</ele>
        <time>2020-11-01T12:28:03Z</time>
      </trkpt>
      <trkpt lat="43.259285" lon="-5.1379995">
        <ele>477.0</ele>
        <time>2020-11-01T12:28:04Z</time>
      </trkpt>
      <trkpt lat="43.259285" lon="-5.137984">
        <ele>477.0</ele>
        <time>2020-11-01T12:28:05Z</time>
      </trkpt>
      <trkpt lat="43.259285" lon="-5.1379685">
        <ele>477.0</ele>
        <time>2020-11-01T12:28:06Z</time>
      </trkpt>
      <trkpt lat="43.259285" lon="-5.137953">
        <ele>477.0</ele>
        <time>2020-11-01T12:28:07Z</time>
      </trkpt>
      <trkpt lat="43.25928" lon="-5.1379366">
        <ele>477.0</ele>
        <time>2020-11-01T12:28:08Z</time>
      </trkpt>
      <trkpt lat="43.259274" lon="-5.13792">
        <ele>477.0</ele>
        <time>2020-11-01T12:28:09Z</time>
      </trkpt>
      <trkpt lat="43.259274" lon="-5.1379046">
        <ele>477.0</ele>
        <time>2020-11-01T12:28:10Z</time>
      </trkpt>
      <trkpt lat="43.25927" lon="-5.137893">
        <ele>477.0</ele>
        <time>2020-11-01T12:28:11Z</time>
      </trkpt>
      <trkpt lat="43.25927" lon="-5.1378827">
        <ele>477.0</ele>
        <time>2020-11-01T12:28:12Z</time>
      </trkpt>
      <trkpt lat="43.259266" lon="-5.137873">
        <ele>477.0</ele>
        <time>2020-11-01T12:28:13Z</time>
      </trkpt>
      <trkpt lat="43.259266" lon="-5.1378627">
        <ele>477.0</ele>
        <time>2020-11-01T12:28:14Z</time>
      </trkpt>
      <trkpt lat="43.259266" lon="-5.13785">
        <ele>477.0</ele>
        <time>2020-11-01T12:28:15Z</time>
      </trkpt>
      <trkpt lat="43.259266" lon="-5.137837">
        <ele>477.0</ele>
        <time>2020-11-01T12:28:16Z</time>
      </trkpt>
      <trkpt lat="43.259266" lon="-5.1378226">
        <ele>477.0</ele>
        <time>2020-11-01T12:28:17Z</time>
      </trkpt>
      <trkpt lat="43.259266" lon="-5.137809">
        <ele>477.0</ele>
        <time>2020-11-01T12:28:18Z</time>
      </trkpt>
      <trkpt lat="43.259266" lon="-5.137795">
        <ele>477.0</ele>
        <time>2020-11-01T12:28:19Z</time>
      </trkpt>
      <trkpt lat="43.259266" lon="-5.1377826">
        <ele>477.0</ele>
        <time>2020-11-01T12:28:20Z</time>
      </trkpt>
      <trkpt lat="43.259266" lon="-5.13777">
        <ele>477.0</ele>
        <time>2020-11-01T12:28:21Z</time>
      </trkpt>
      <trkpt lat="43.259266" lon="-5.137758">
        <ele>477.0</ele>
        <time>2020-11-01T12:28:22Z</time>
      </trkpt>
      <trkpt lat="43.259266" lon="-5.1377444">
        <ele>477.0</ele>
        <time>2020-11-01T12:28:23Z</time>
      </trkpt>
      <trkpt lat="43.25926" lon="-5.137729">
        <ele>477.0</ele>
        <time>2020-11-01T12:28:24Z</time>
      </trkpt>
      <trkpt lat="43.25926" lon="-5.137712">
        <ele>477.0</ele>
        <time>2020-11-01T12:28:25Z</time>
      </trkpt>
      <trkpt lat="43.25926" lon="-5.137695">
        <ele>477.0</ele>
        <time>2020-11-01T12:28:26Z</time>
      </trkpt>
      <trkpt lat="43.25926" lon="-5.1376767">
        <ele>477.0</ele>
        <time>2020-11-01T12:28:27Z</time>
      </trkpt>
      <trkpt lat="43.25926" lon="-5.137657">
        <ele>477.0</ele>
        <time>2020-11-01T12:28:28Z</time>
      </trkpt>
      <trkpt lat="43.25926" lon="-5.1376367">
        <ele>477.0</ele>
        <time>2020-11-01T12:28:29Z</time>
      </trkpt>
      <trkpt lat="43.25926" lon="-5.137616">
        <ele>477.0</ele>
        <time>2020-11-01T12:28:30Z</time>
      </trkpt>
      <trkpt lat="43.259266" lon="-5.1375976">
        <ele>477.0</ele>
        <time>2020-11-01T12:28:32Z</time>
      </trkpt>
      <trkpt lat="43.259266" lon="-5.1375804">
        <ele>477.0</ele>
        <time>2020-11-01T12:28:32Z</time>
      </trkpt>
      <trkpt lat="43.259266" lon="-5.1375666">
        <ele>477.0</ele>
        <time>2020-11-01T12:28:33Z</time>
      </trkpt>
      <trkpt lat="43.25927" lon="-5.1375527">
        <ele>477.0</ele>
        <time>2020-11-01T12:28:34Z</time>
      </trkpt>
      <trkpt lat="43.259274" lon="-5.1375403">
        <ele>477.0</ele>
        <time>2020-11-01T12:28:35Z</time>
      </trkpt>
      <trkpt lat="43.25928" lon="-5.1375265">
        <ele>477.0</ele>
        <time>2020-11-01T12:28:36Z</time>
      </trkpt>
      <trkpt lat="43.25929" lon="-5.1375136">
        <ele>477.0</ele>
        <time>2020-11-01T12:28:37Z</time>
      </trkpt>
      <trkpt lat="43.259296" lon="-5.1375027">
        <ele>477.0</ele>
        <time>2020-11-01T12:28:38Z</time>
      </trkpt>
      <trkpt lat="43.2593" lon="-5.1374927">
        <ele>477.0</ele>
        <time>2020-11-01T12:28:39Z</time>
      </trkpt>
      <trkpt lat="43.25931" lon="-5.1374817">
        <ele>477.0</ele>
        <time>2020-11-01T12:28:40Z</time>
      </trkpt>
      <trkpt lat="43.259315" lon="-5.137471">
        <ele>475.0</ele>
        <time>2020-11-01T12:28:41Z</time>
      </trkpt>
      <trkpt lat="43.25932" lon="-5.137459">
        <ele>475.0</ele>
        <time>2020-11-01T12:28:42Z</time>
      </trkpt>
      <trkpt lat="43.259327" lon="-5.1374464">
        <ele>475.0</ele>
        <time>2020-11-01T12:28:43Z</time>
      </trkpt>
      <trkpt lat="43.25933" lon="-5.137433">
        <ele>475.0</ele>
        <time>2020-11-01T12:28:45Z</time>
      </trkpt>
      <trkpt lat="43.259335" lon="-5.1374216">
        <ele>475.0</ele>
        <time>2020-11-01T12:28:45Z</time>
      </trkpt>
      <trkpt lat="43.259342" lon="-5.137409">
        <ele>475.0</ele>
        <time>2020-11-01T12:28:46Z</time>
      </trkpt>
      <trkpt lat="43.259346" lon="-5.1373954">
        <ele>475.0</ele>
        <time>2020-11-01T12:28:47Z</time>
      </trkpt>
      <trkpt lat="43.25935" lon="-5.1373806">
        <ele>475.0</ele>
        <time>2020-11-01T12:28:48Z</time>
      </trkpt>
      <trkpt lat="43.259357" lon="-5.137366">
        <ele>475.0</ele>
        <time>2020-11-01T12:28:49Z</time>
      </trkpt>
      <trkpt lat="43.25936" lon="-5.1373525">
        <ele>475.0</ele>
        <time>2020-11-01T12:28:50Z</time>
      </trkpt>
      <trkpt lat="43.259365" lon="-5.137339">
        <ele>475.0</ele>
        <time>2020-11-01T12:28:51Z</time>
      </trkpt>
      <trkpt lat="43.259377" lon="-5.1373262">
        <ele>475.0</ele>
        <time>2020-11-01T12:28:53Z</time>
      </trkpt>
      <trkpt lat="43.25938" lon="-5.137315">
        <ele>475.0</ele>
        <time>2020-11-01T12:28:53Z</time>
      </trkpt>
      <trkpt lat="43.25939" lon="-5.137303">
        <ele>475.0</ele>
        <time>2020-11-01T12:28:54Z</time>
      </trkpt>
      <trkpt lat="43.259403" lon="-5.137292">
        <ele>475.0</ele>
        <time>2020-11-01T12:28:55Z</time>
      </trkpt>
      <trkpt lat="43.25941" lon="-5.1372814">
        <ele>475.0</ele>
        <time>2020-11-01T12:28:56Z</time>
      </trkpt>
      <trkpt lat="43.259422" lon="-5.1372705">
        <ele>475.0</ele>
        <time>2020-11-01T12:28:57Z</time>
      </trkpt>
      <trkpt lat="43.259426" lon="-5.137259">
        <ele>475.0</ele>
        <time>2020-11-01T12:28:58Z</time>
      </trkpt>
      <trkpt lat="43.259438" lon="-5.1372485">
        <ele>475.0</ele>
        <time>2020-11-01T12:28:59Z</time>
      </trkpt>
      <trkpt lat="43.25944" lon="-5.1372395">
        <ele>475.0</ele>
        <time>2020-11-01T12:29:00Z</time>
      </trkpt>
      <trkpt lat="43.259453" lon="-5.13723">
        <ele>475.0</ele>
        <time>2020-11-01T12:29:01Z</time>
      </trkpt>
      <trkpt lat="43.25946" lon="-5.1372194">
        <ele>475.0</ele>
        <time>2020-11-01T12:29:02Z</time>
      </trkpt>
      <trkpt lat="43.259464" lon="-5.1372085">
        <ele>475.0</ele>
        <time>2020-11-01T12:29:03Z</time>
      </trkpt>
      <trkpt lat="43.259476" lon="-5.137198">
        <ele>475.0</ele>
        <time>2020-11-01T12:29:04Z</time>
      </trkpt>
      <trkpt lat="43.25948" lon="-5.137185">
        <ele>475.0</ele>
        <time>2020-11-01T12:29:05Z</time>
      </trkpt>
      <trkpt lat="43.25949" lon="-5.1371737">
        <ele>475.0</ele>
        <time>2020-11-01T12:29:06Z</time>
      </trkpt>
      <trkpt lat="43.259495" lon="-5.1371627">
        <ele>475.0</ele>
        <time>2020-11-01T12:29:08Z</time>
      </trkpt>
      <trkpt lat="43.2595" lon="-5.137152">
        <ele>475.0</ele>
        <time>2020-11-01T12:29:08Z</time>
      </trkpt>
      <trkpt lat="43.259506" lon="-5.1371436">
        <ele>475.0</ele>
        <time>2020-11-01T12:29:09Z</time>
      </trkpt>
      <trkpt lat="43.25951" lon="-5.1371365">
        <ele>475.0</ele>
        <time>2020-11-01T12:29:10Z</time>
      </trkpt>
      <trkpt lat="43.25952" lon="-5.1371293">
        <ele>475.0</ele>
        <time>2020-11-01T12:29:11Z</time>
      </trkpt>
      <trkpt lat="43.259525" lon="-5.1371207">
        <ele>475.0</ele>
        <time>2020-11-01T12:29:12Z</time>
      </trkpt>
      <trkpt lat="43.259537" lon="-5.1371117">
        <ele>475.0</ele>
        <time>2020-11-01T12:29:13Z</time>
      </trkpt>
      <trkpt lat="43.25954" lon="-5.1371026">
        <ele>475.0</ele>
        <time>2020-11-01T12:29:14Z</time>
      </trkpt>
      <trkpt lat="43.25954" lon="-5.1370945">
        <ele>475.0</ele>
        <time>2020-11-01T12:29:16Z</time>
      </trkpt>
      <trkpt lat="43.259544" lon="-5.1370854">
        <ele>475.0</ele>
        <time>2020-11-01T12:29:16Z</time>
      </trkpt>
      <trkpt lat="43.259544" lon="-5.1370754">
        <ele>475.0</ele>
        <time>2020-11-01T12:29:17Z</time>
      </trkpt>
      <trkpt lat="43.259552" lon="-5.1370645">
        <ele>475.0</ele>
        <time>2020-11-01T12:29:18Z</time>
      </trkpt>
      <trkpt lat="43.259556" lon="-5.1370535">
        <ele>475.0</ele>
        <time>2020-11-01T12:29:19Z</time>
      </trkpt>
      <trkpt lat="43.259556" lon="-5.1370406">
        <ele>475.0</ele>
        <time>2020-11-01T12:29:20Z</time>
      </trkpt>
      <trkpt lat="43.25956" lon="-5.1370263">
        <ele>475.0</ele>
        <time>2020-11-01T12:29:21Z</time>
      </trkpt>
      <trkpt lat="43.25956" lon="-5.137011">
        <ele>475.0</ele>
        <time>2020-11-01T12:29:22Z</time>
      </trkpt>
      <trkpt lat="43.259567" lon="-5.1369987">
        <ele>475.0</ele>
        <time>2020-11-01T12:29:23Z</time>
      </trkpt>
      <trkpt lat="43.25957" lon="-5.1369863">
        <ele>475.0</ele>
        <time>2020-11-01T12:29:24Z</time>
      </trkpt>
      <trkpt lat="43.25957" lon="-5.136974">
        <ele>475.0</ele>
        <time>2020-11-01T12:29:25Z</time>
      </trkpt>
      <trkpt lat="43.259575" lon="-5.1369634">
        <ele>475.0</ele>
        <time>2020-11-01T12:29:26Z</time>
      </trkpt>
      <trkpt lat="43.259575" lon="-5.136954">
        <ele>473.0</ele>
        <time>2020-11-01T12:29:27Z</time>
      </trkpt>
      <trkpt lat="43.259583" lon="-5.136945">
        <ele>473.0</ele>
        <time>2020-11-01T12:29:28Z</time>
      </trkpt>
      <trkpt lat="43.259583" lon="-5.1369348">
        <ele>473.0</ele>
        <time>2020-11-01T12:29:29Z</time>
      </trkpt>
      <trkpt lat="43.259586" lon="-5.1369233">
        <ele>473.0</ele>
        <time>2020-11-01T12:29:30Z</time>
      </trkpt>
      <trkpt lat="43.259586" lon="-5.136913">
        <ele>473.0</ele>
        <time>2020-11-01T12:29:31Z</time>
      </trkpt>
      <trkpt lat="43.259586" lon="-5.1369023">
        <ele>473.0</ele>
        <time>2020-11-01T12:29:32Z</time>
      </trkpt>
      <trkpt lat="43.259586" lon="-5.1368923">
        <ele>473.0</ele>
        <time>2020-11-01T12:29:33Z</time>
      </trkpt>
      <trkpt lat="43.259586" lon="-5.136879">
        <ele>473.0</ele>
        <time>2020-11-01T12:29:34Z</time>
      </trkpt>
      <trkpt lat="43.259583" lon="-5.136864">
        <ele>473.0</ele>
        <time>2020-11-01T12:29:35Z</time>
      </trkpt>
      <trkpt lat="43.259583" lon="-5.1368494">
        <ele>473.0</ele>
        <time>2020-11-01T12:29:36Z</time>
      </trkpt>
      <trkpt lat="43.259583" lon="-5.1368346">
        <ele>473.0</ele>
        <time>2020-11-01T12:29:37Z</time>
      </trkpt>
      <trkpt lat="43.259575" lon="-5.136821">
        <ele>473.0</ele>
        <time>2020-11-01T12:29:38Z</time>
      </trkpt>
      <trkpt lat="43.259575" lon="-5.1368084">
        <ele>473.0</ele>
        <time>2020-11-01T12:29:39Z</time>
      </trkpt>
      <trkpt lat="43.25957" lon="-5.136795">
        <ele>473.0</ele>
        <time>2020-11-01T12:29:40Z</time>
      </trkpt>
      <trkpt lat="43.25957" lon="-5.136782">
        <ele>473.0</ele>
        <time>2020-11-01T12:29:41Z</time>
      </trkpt>
      <trkpt lat="43.259567" lon="-5.13677">
        <ele>472.0</ele>
        <time>2020-11-01T12:29:42Z</time>
      </trkpt>
      <trkpt lat="43.259567" lon="-5.136759">
        <ele>472.0</ele>
        <time>2020-11-01T12:29:43Z</time>
      </trkpt>
      <trkpt lat="43.25956" lon="-5.136747">
        <ele>472.0</ele>
        <time>2020-11-01T12:29:44Z</time>
      </trkpt>
      <trkpt lat="43.25956" lon="-5.136736">
        <ele>472.0</ele>
        <time>2020-11-01T12:29:45Z</time>
      </trkpt>
      <trkpt lat="43.25956" lon="-5.136725">
        <ele>472.0</ele>
        <time>2020-11-01T12:29:46Z</time>
      </trkpt>
      <trkpt lat="43.25956" lon="-5.1367135">
        <ele>471.0</ele>
        <time>2020-11-01T12:29:47Z</time>
      </trkpt>
      <trkpt lat="43.25956" lon="-5.1367035">
        <ele>471.0</ele>
        <time>2020-11-01T12:29:48Z</time>
      </trkpt>
      <trkpt lat="43.259556" lon="-5.1366944">
        <ele>471.0</ele>
        <time>2020-11-01T12:29:49Z</time>
      </trkpt>
      <trkpt lat="43.259556" lon="-5.136682">
        <ele>471.0</ele>
        <time>2020-11-01T12:29:50Z</time>
      </trkpt>
      <trkpt lat="43.259556" lon="-5.136669">
        <ele>471.0</ele>
        <time>2020-11-01T12:29:52Z</time>
      </trkpt>
      <trkpt lat="43.259556" lon="-5.136657">
        <ele>471.0</ele>
        <time>2020-11-01T12:29:52Z</time>
      </trkpt>
      <trkpt lat="43.259556" lon="-5.1366453">
        <ele>470.0</ele>
        <time>2020-11-01T12:29:53Z</time>
      </trkpt>
      <trkpt lat="43.259556" lon="-5.1366324">
        <ele>470.0</ele>
        <time>2020-11-01T12:29:54Z</time>
      </trkpt>
      <trkpt lat="43.259556" lon="-5.1366196">
        <ele>470.0</ele>
        <time>2020-11-01T12:29:55Z</time>
      </trkpt>
      <trkpt lat="43.259556" lon="-5.136606">
        <ele>470.0</ele>
        <time>2020-11-01T12:29:56Z</time>
      </trkpt>
      <trkpt lat="43.259552" lon="-5.136594">
        <ele>469.0</ele>
        <time>2020-11-01T12:29:57Z</time>
      </trkpt>
      <trkpt lat="43.259552" lon="-5.136579">
        <ele>469.0</ele>
        <time>2020-11-01T12:29:58Z</time>
      </trkpt>
      <trkpt lat="43.259544" lon="-5.1365633">
        <ele>469.0</ele>
        <time>2020-11-01T12:29:59Z</time>
      </trkpt>
      <trkpt lat="43.259544" lon="-5.136547">
        <ele>469.0</ele>
        <time>2020-11-01T12:30:00Z</time>
      </trkpt>
      <trkpt lat="43.25954" lon="-5.1365294">
        <ele>469.0</ele>
        <time>2020-11-01T12:30:01Z</time>
      </trkpt>
      <trkpt lat="43.25954" lon="-5.1365147">
        <ele>468.0</ele>
        <time>2020-11-01T12:30:02Z</time>
      </trkpt>
      <trkpt lat="43.259537" lon="-5.136501">
        <ele>468.0</ele>
        <time>2020-11-01T12:30:03Z</time>
      </trkpt>
      <trkpt lat="43.259537" lon="-5.136488">
        <ele>468.0</ele>
        <time>2020-11-01T12:30:04Z</time>
      </trkpt>
      <trkpt lat="43.25953" lon="-5.136477">
        <ele>468.0</ele>
        <time>2020-11-01T12:30:05Z</time>
      </trkpt>
      <trkpt lat="43.259525" lon="-5.136468">
        <ele>468.0</ele>
        <time>2020-11-01T12:30:06Z</time>
      </trkpt>
      <trkpt lat="43.25952" lon="-5.1364594">
        <ele>468.0</ele>
        <time>2020-11-01T12:30:06Z</time>
      </trkpt>
      <trkpt lat="43.25952" lon="-5.1364512">
        <ele>468.0</ele>
        <time>2020-11-01T12:30:07Z</time>
      </trkpt>
      <trkpt lat="43.25951" lon="-5.1364446">
        <ele>468.0</ele>
        <time>2020-11-01T12:30:08Z</time>
      </trkpt>
      <trkpt lat="43.259506" lon="-5.1364384">
        <ele>468.0</ele>
        <time>2020-11-01T12:30:09Z</time>
      </trkpt>
      <trkpt lat="43.2595" lon="-5.136433">
        <ele>468.0</ele>
        <time>2020-11-01T12:30:10Z</time>
      </trkpt>
      <trkpt lat="43.259495" lon="-5.1364284">
        <ele>467.0</ele>
        <time>2020-11-01T12:30:11Z</time>
      </trkpt>
      <trkpt lat="43.259483" lon="-5.1364255">
        <ele>467.0</ele>
        <time>2020-11-01T12:30:12Z</time>
      </trkpt>
      <trkpt lat="43.25948" lon="-5.136423">
        <ele>467.0</ele>
        <time>2020-11-01T12:30:14Z</time>
      </trkpt>
      <trkpt lat="43.259468" lon="-5.136417">
        <ele>466.0</ele>
        <time>2020-11-01T12:30:14Z</time>
      </trkpt>
      <trkpt lat="43.259464" lon="-5.136407">
        <ele>466.0</ele>
        <time>2020-11-01T12:30:15Z</time>
      </trkpt>
      <trkpt lat="43.25946" lon="-5.136396">
        <ele>466.0</ele>
        <time>2020-11-01T12:30:16Z</time>
      </trkpt>
      <trkpt lat="43.259453" lon="-5.136386">
        <ele>465.0</ele>
        <time>2020-11-01T12:30:17Z</time>
      </trkpt>
      <trkpt lat="43.25944" lon="-5.136376">
        <ele>465.0</ele>
        <time>2020-11-01T12:30:18Z</time>
      </trkpt>
      <trkpt lat="43.259438" lon="-5.136365">
        <ele>465.0</ele>
        <time>2020-11-01T12:30:19Z</time>
      </trkpt>
      <trkpt lat="43.259426" lon="-5.1363544">
        <ele>465.0</ele>
        <time>2020-11-01T12:30:20Z</time>
      </trkpt>
      <trkpt lat="43.259422" lon="-5.136343">
        <ele>465.0</ele>
        <time>2020-11-01T12:30:21Z</time>
      </trkpt>
      <trkpt lat="43.25941" lon="-5.136331">
        <ele>465.0</ele>
        <time>2020-11-01T12:30:22Z</time>
      </trkpt>
      <trkpt lat="43.259407" lon="-5.1363196">
        <ele>464.0</ele>
        <time>2020-11-01T12:30:23Z</time>
      </trkpt>
      <trkpt lat="43.259403" lon="-5.1363063">
        <ele>464.0</ele>
        <time>2020-11-01T12:30:24Z</time>
      </trkpt>
      <trkpt lat="43.25939" lon="-5.1362953">
        <ele>464.0</ele>
        <time>2020-11-01T12:30:25Z</time>
      </trkpt>
      <trkpt lat="43.259388" lon="-5.136286">
        <ele>464.0</ele>
        <time>2020-11-01T12:30:26Z</time>
      </trkpt>
      <trkpt lat="43.25938" lon="-5.136276">
        <ele>464.0</ele>
        <time>2020-11-01T12:30:27Z</time>
      </trkpt>
      <trkpt lat="43.259377" lon="-5.136267">
        <ele>463.0</ele>
        <time>2020-11-01T12:30:29Z</time>
      </trkpt>
      <trkpt lat="43.259373" lon="-5.136258">
        <ele>463.0</ele>
        <time>2020-11-01T12:30:29Z</time>
      </trkpt>
      <trkpt lat="43.259365" lon="-5.136249">
        <ele>463.0</ele>
        <time>2020-11-01T12:30:30Z</time>
      </trkpt>
      <trkpt lat="43.25936" lon="-5.1362414">
        <ele>463.0</ele>
        <time>2020-11-01T12:30:31Z</time>
      </trkpt>
      <trkpt lat="43.25935" lon="-5.1362324">
        <ele>462.0</ele>
        <time>2020-11-01T12:30:32Z</time>
      </trkpt>
      <trkpt lat="43.259346" lon="-5.1362247">
        <ele>462.0</ele>
        <time>2020-11-01T12:30:33Z</time>
      </trkpt>
      <trkpt lat="43.259342" lon="-5.136217">
        <ele>462.0</ele>
        <time>2020-11-01T12:30:34Z</time>
      </trkpt>
      <trkpt lat="43.259335" lon="-5.1362095">
        <ele>462.0</ele>
        <time>2020-11-01T12:30:35Z</time>
      </trkpt>
      <trkpt lat="43.25933" lon="-5.1362014">
        <ele>462.0</ele>
        <time>2020-11-01T12:30:36Z</time>
      </trkpt>
      <trkpt lat="43.259327" lon="-5.136192">
        <ele>462.0</ele>
        <time>2020-11-01T12:30:37Z</time>
      </trkpt>
      <trkpt lat="43.25932" lon="-5.1361823">
        <ele>462.0</ele>
        <time>2020-11-01T12:30:38Z</time>
      </trkpt>
      <trkpt lat="43.259315" lon="-5.1361732">
        <ele>462.0</ele>
        <time>2020-11-01T12:30:39Z</time>
      </trkpt>
      <trkpt lat="43.25931" lon="-5.1361656">
        <ele>462.0</ele>
        <time>2020-11-01T12:30:40Z</time>
      </trkpt>
      <trkpt lat="43.259304" lon="-5.136158">
        <ele>462.0</ele>
        <time>2020-11-01T12:30:41Z</time>
      </trkpt>
      <trkpt lat="43.2593" lon="-5.136151">
        <ele>461.0</ele>
        <time>2020-11-01T12:30:42Z</time>
      </trkpt>
      <trkpt lat="43.259296" lon="-5.1361423">
        <ele>461.0</ele>
        <time>2020-11-01T12:30:43Z</time>
      </trkpt>
      <trkpt lat="43.259285" lon="-5.1361337">
        <ele>461.0</ele>
        <time>2020-11-01T12:30:44Z</time>
      </trkpt>
      <trkpt lat="43.25928" lon="-5.136123">
        <ele>461.0</ele>
        <time>2020-11-01T12:30:45Z</time>
      </trkpt>
      <trkpt lat="43.25927" lon="-5.136116">
        <ele>460.0</ele>
        <time>2020-11-01T12:30:46Z</time>
      </trkpt>
      <trkpt lat="43.259266" lon="-5.1361094">
        <ele>460.0</ele>
        <time>2020-11-01T12:30:47Z</time>
      </trkpt>
      <trkpt lat="43.259254" lon="-5.1361">
        <ele>460.0</ele>
        <time>2020-11-01T12:30:48Z</time>
      </trkpt>
      <trkpt lat="43.259247" lon="-5.1360893">
        <ele>460.0</ele>
        <time>2020-11-01T12:30:50Z</time>
      </trkpt>
      <trkpt lat="43.25924" lon="-5.1360784">
        <ele>459.0</ele>
        <time>2020-11-01T12:30:50Z</time>
      </trkpt>
      <trkpt lat="43.25923" lon="-5.1360693">
        <ele>459.0</ele>
        <time>2020-11-01T12:30:51Z</time>
      </trkpt>
      <trkpt lat="43.259228" lon="-5.136062">
        <ele>459.0</ele>
        <time>2020-11-01T12:30:52Z</time>
      </trkpt>
      <trkpt lat="43.259224" lon="-5.1360555">
        <ele>459.0</ele>
        <time>2020-11-01T12:30:53Z</time>
      </trkpt>
      <trkpt lat="43.259216" lon="-5.1360497">
        <ele>458.0</ele>
        <time>2020-11-01T12:30:54Z</time>
      </trkpt>
      <trkpt lat="43.259212" lon="-5.136043">
        <ele>458.0</ele>
        <time>2020-11-01T12:30:55Z</time>
      </trkpt>
      <trkpt lat="43.2592" lon="-5.1360345">
        <ele>458.0</ele>
        <time>2020-11-01T12:30:56Z</time>
      </trkpt>
      <trkpt lat="43.259197" lon="-5.1360235">
        <ele>458.0</ele>
        <time>2020-11-01T12:30:57Z</time>
      </trkpt>
      <trkpt lat="43.259193" lon="-5.136012">
        <ele>458.0</ele>
        <time>2020-11-01T12:30:58Z</time>
      </trkpt>
      <trkpt lat="43.259193" lon="-5.136">
        <ele>458.0</ele>
        <time>2020-11-01T12:30:59Z</time>
      </trkpt>
      <trkpt lat="43.259193" lon="-5.1359887">
        <ele>458.0</ele>
        <time>2020-11-01T12:31:00Z</time>
      </trkpt>
      <trkpt lat="43.259197" lon="-5.135977">
        <ele>458.0</ele>
        <time>2020-11-01T12:31:01Z</time>
      </trkpt>
      <trkpt lat="43.259197" lon="-5.1359673">
        <ele>458.0</ele>
        <time>2020-11-01T12:31:02Z</time>
      </trkpt>
      <trkpt lat="43.25921" lon="-5.135959">
        <ele>457.0</ele>
        <time>2020-11-01T12:31:03Z</time>
      </trkpt>
      <trkpt lat="43.259212" lon="-5.1359534">
        <ele>457.0</ele>
        <time>2020-11-01T12:31:04Z</time>
      </trkpt>
      <trkpt lat="43.259224" lon="-5.1359496">
        <ele>457.0</ele>
        <time>2020-11-01T12:31:05Z</time>
      </trkpt>
      <trkpt lat="43.25923" lon="-5.13593">
        <ele>457.0</ele>
        <time>2020-11-01T12:31:11Z</time>
      </trkpt>
      <trkpt lat="43.25923" lon="-5.135929">
        <ele>457.0</ele>
        <time>2020-11-01T12:31:12Z</time>
      </trkpt>
      <trkpt lat="43.25923" lon="-5.135928">
        <ele>457.0</ele>
        <time>2020-11-01T12:31:17Z</time>
      </trkpt>
      <trkpt lat="43.25924" lon="-5.135925">
        <ele>457.0</ele>
        <time>2020-11-01T12:31:34Z</time>
      </trkpt>
      <trkpt lat="43.259243" lon="-5.1359234">
        <ele>457.0</ele>
        <time>2020-11-01T12:31:40Z</time>
      </trkpt>
      <trkpt lat="43.259243" lon="-5.13592">
        <ele>457.0</ele>
        <time>2020-11-01T12:31:46Z</time>
      </trkpt>
      <trkpt lat="43.259254" lon="-5.1358767">
        <ele>457.0</ele>
        <time>2020-11-01T12:32:31Z</time>
      </trkpt>
      <trkpt lat="43.259254" lon="-5.135877">
        <ele>457.0</ele>
        <time>2020-11-01T12:32:32Z</time>
      </trkpt>
      <trkpt lat="43.259266" lon="-5.1358824">
        <ele>457.0</ele>
        <time>2020-11-01T12:32:33Z</time>
      </trkpt>
      <trkpt lat="43.259274" lon="-5.135889">
        <ele>457.0</ele>
        <time>2020-11-01T12:32:34Z</time>
      </trkpt>
      <trkpt lat="43.259285" lon="-5.1358986">
        <ele>457.0</ele>
        <time>2020-11-01T12:32:35Z</time>
      </trkpt>
      <trkpt lat="43.2593" lon="-5.135909">
        <ele>457.0</ele>
        <time>2020-11-01T12:32:36Z</time>
      </trkpt>
      <trkpt lat="43.25931" lon="-5.135919">
        <ele>457.0</ele>
        <time>2020-11-01T12:32:37Z</time>
      </trkpt>
      <trkpt lat="43.25932" lon="-5.135927">
        <ele>457.0</ele>
        <time>2020-11-01T12:32:38Z</time>
      </trkpt>
      <trkpt lat="43.259335" lon="-5.135934">
        <ele>457.0</ele>
        <time>2020-11-01T12:32:39Z</time>
      </trkpt>
      <trkpt lat="43.259346" lon="-5.1359386">
        <ele>457.0</ele>
        <time>2020-11-01T12:32:40Z</time>
      </trkpt>
      <trkpt lat="43.259357" lon="-5.135941">
        <ele>457.0</ele>
        <time>2020-11-01T12:32:41Z</time>
      </trkpt>
      <trkpt lat="43.259365" lon="-5.135943">
        <ele>457.0</ele>
        <time>2020-11-01T12:32:42Z</time>
      </trkpt>
      <trkpt lat="43.259377" lon="-5.135944">
        <ele>457.0</ele>
        <time>2020-11-01T12:32:43Z</time>
      </trkpt>
      <trkpt lat="43.259388" lon="-5.135944">
        <ele>457.0</ele>
        <time>2020-11-01T12:32:44Z</time>
      </trkpt>
      <trkpt lat="43.25939" lon="-5.1359415">
        <ele>457.0</ele>
        <time>2020-11-01T12:32:45Z</time>
      </trkpt>
      <trkpt lat="43.259396" lon="-5.135937">
        <ele>457.0</ele>
        <time>2020-11-01T12:32:46Z</time>
      </trkpt>
      <trkpt lat="43.259407" lon="-5.1359324">
        <ele>457.0</ele>
        <time>2020-11-01T12:32:47Z</time>
      </trkpt>
      <trkpt lat="43.25941" lon="-5.1359296">
        <ele>457.0</ele>
        <time>2020-11-01T12:32:48Z</time>
      </trkpt>
      <trkpt lat="43.259422" lon="-5.135927">
        <ele>457.0</ele>
        <time>2020-11-01T12:32:49Z</time>
      </trkpt>
      <trkpt lat="43.259434" lon="-5.135925">
        <ele>453.0</ele>
        <time>2020-11-01T12:32:50Z</time>
      </trkpt>
      <trkpt lat="43.25944" lon="-5.1359224">
        <ele>453.0</ele>
        <time>2020-11-01T12:32:52Z</time>
      </trkpt>
      <trkpt lat="43.25945" lon="-5.13592">
        <ele>453.0</ele>
        <time>2020-11-01T12:32:52Z</time>
      </trkpt>
      <trkpt lat="43.259453" lon="-5.135917">
        <ele>453.0</ele>
        <time>2020-11-01T12:32:53Z</time>
      </trkpt>
      <trkpt lat="43.259464" lon="-5.1359143">
        <ele>453.0</ele>
        <time>2020-11-01T12:32:54Z</time>
      </trkpt>
      <trkpt lat="43.259468" lon="-5.1359124">
        <ele>453.0</ele>
        <time>2020-11-01T12:32:55Z</time>
      </trkpt>
      <trkpt lat="43.259476" lon="-5.13591">
        <ele>453.0</ele>
        <time>2020-11-01T12:32:56Z</time>
      </trkpt>
      <trkpt lat="43.25948" lon="-5.1359067">
        <ele>453.0</ele>
        <time>2020-11-01T12:32:57Z</time>
      </trkpt>
      <trkpt lat="43.25949" lon="-5.135904">
        <ele>453.0</ele>
        <time>2020-11-01T12:32:58Z</time>
      </trkpt>
      <trkpt lat="43.259495" lon="-5.135898">
        <ele>453.0</ele>
        <time>2020-11-01T12:32:59Z</time>
      </trkpt>
      <trkpt lat="43.259506" lon="-5.1358914">
        <ele>453.0</ele>
        <time>2020-11-01T12:33:00Z</time>
      </trkpt>
      <trkpt lat="43.25951" lon="-5.1358843">
        <ele>453.0</ele>
        <time>2020-11-01T12:33:01Z</time>
      </trkpt>
      <trkpt lat="43.259514" lon="-5.1358776">
        <ele>453.0</ele>
        <time>2020-11-01T12:33:02Z</time>
      </trkpt>
      <trkpt lat="43.259525" lon="-5.13587">
        <ele>453.0</ele>
        <time>2020-11-01T12:33:03Z</time>
      </trkpt>
      <trkpt lat="43.25953" lon="-5.135862">
        <ele>453.0</ele>
        <time>2020-11-01T12:33:04Z</time>
      </trkpt>
      <trkpt lat="43.259537" lon="-5.1358533">
        <ele>453.0</ele>
        <time>2020-11-01T12:33:05Z</time>
      </trkpt>
      <trkpt lat="43.25954" lon="-5.1358447">
        <ele>453.0</ele>
        <time>2020-11-01T12:33:07Z</time>
      </trkpt>
      <trkpt lat="43.25954" lon="-5.1358337">
        <ele>453.0</ele>
        <time>2020-11-01T12:33:07Z</time>
      </trkpt>
      <trkpt lat="43.25954" lon="-5.1358204">
        <ele>453.0</ele>
        <time>2020-11-01T12:33:08Z</time>
      </trkpt>
      <trkpt lat="43.25954" lon="-5.1358047">
        <ele>453.0</ele>
        <time>2020-11-01T12:33:09Z</time>
      </trkpt>
      <trkpt lat="43.259537" lon="-5.1357913">
        <ele>452.0</ele>
        <time>2020-11-01T12:33:10Z</time>
      </trkpt>
      <trkpt lat="43.259537" lon="-5.1357775">
        <ele>452.0</ele>
        <time>2020-11-01T12:33:11Z</time>
      </trkpt>
      <trkpt lat="43.25953" lon="-5.1357627">
        <ele>452.0</ele>
        <time>2020-11-01T12:33:12Z</time>
      </trkpt>
      <trkpt lat="43.25953" lon="-5.1357503">
        <ele>452.0</ele>
        <time>2020-11-01T12:33:13Z</time>
      </trkpt>
      <trkpt lat="43.25953" lon="-5.1357374">
        <ele>452.0</ele>
        <time>2020-11-01T12:33:14Z</time>
      </trkpt>
      <trkpt lat="43.25953" lon="-5.135725">
        <ele>452.0</ele>
        <time>2020-11-01T12:33:15Z</time>
      </trkpt>
      <trkpt lat="43.25953" lon="-5.135712">
        <ele>452.0</ele>
        <time>2020-11-01T12:33:16Z</time>
      </trkpt>
      <trkpt lat="43.25953" lon="-5.135698">
        <ele>452.0</ele>
        <time>2020-11-01T12:33:17Z</time>
      </trkpt>
      <trkpt lat="43.259525" lon="-5.135683">
        <ele>451.0</ele>
        <time>2020-11-01T12:33:18Z</time>
      </trkpt>
      <trkpt lat="43.259525" lon="-5.1356673">
        <ele>451.0</ele>
        <time>2020-11-01T12:33:19Z</time>
      </trkpt>
      <trkpt lat="43.259525" lon="-5.135655">
        <ele>451.0</ele>
        <time>2020-11-01T12:33:20Z</time>
      </trkpt>
      <trkpt lat="43.25953" lon="-5.135641">
        <ele>451.0</ele>
        <time>2020-11-01T12:33:22Z</time>
      </trkpt>
      <trkpt lat="43.25953" lon="-5.135625">
        <ele>451.0</ele>
        <time>2020-11-01T12:33:22Z</time>
      </trkpt>
      <trkpt lat="43.259537" lon="-5.1356087">
        <ele>451.0</ele>
        <time>2020-11-01T12:33:23Z</time>
      </trkpt>
      <trkpt lat="43.259537" lon="-5.1355925">
        <ele>451.0</ele>
        <time>2020-11-01T12:33:24Z</time>
      </trkpt>
      <trkpt lat="43.259537" lon="-5.1355786">
        <ele>451.0</ele>
        <time>2020-11-01T12:33:25Z</time>
      </trkpt>
      <trkpt lat="43.259537" lon="-5.135565">
        <ele>451.0</ele>
        <time>2020-11-01T12:33:26Z</time>
      </trkpt>
      <trkpt lat="43.25953" lon="-5.13555">
        <ele>451.0</ele>
        <time>2020-11-01T12:33:27Z</time>
      </trkpt>
      <trkpt lat="43.259525" lon="-5.1355357">
        <ele>451.0</ele>
        <time>2020-11-01T12:33:28Z</time>
      </trkpt>
      <trkpt lat="43.25952" lon="-5.1355224">
        <ele>451.0</ele>
        <time>2020-11-01T12:33:29Z</time>
      </trkpt>
      <trkpt lat="43.259514" lon="-5.135511">
        <ele>451.0</ele>
        <time>2020-11-01T12:33:30Z</time>
      </trkpt>
      <trkpt lat="43.259514" lon="-5.135499">
        <ele>451.0</ele>
        <time>2020-11-01T12:33:31Z</time>
      </trkpt>
      <trkpt lat="43.25951" lon="-5.135489">
        <ele>451.0</ele>
        <time>2020-11-01T12:33:32Z</time>
      </trkpt>
      <trkpt lat="43.25951" lon="-5.1354775">
        <ele>450.0</ele>
        <time>2020-11-01T12:33:33Z</time>
      </trkpt>
      <trkpt lat="43.25951" lon="-5.135466">
        <ele>450.0</ele>
        <time>2020-11-01T12:33:34Z</time>
      </trkpt>
      <trkpt lat="43.25951" lon="-5.135453">
        <ele>450.0</ele>
        <time>2020-11-01T12:33:35Z</time>
      </trkpt>
      <trkpt lat="43.259506" lon="-5.1354403">
        <ele>450.0</ele>
        <time>2020-11-01T12:33:36Z</time>
      </trkpt>
      <trkpt lat="43.259506" lon="-5.1354265">
        <ele>449.0</ele>
        <time>2020-11-01T12:33:37Z</time>
      </trkpt>
      <trkpt lat="43.259506" lon="-5.1354136">
        <ele>449.0</ele>
        <time>2020-11-01T12:33:38Z</time>
      </trkpt>
      <trkpt lat="43.259506" lon="-5.1354003">
        <ele>449.0</ele>
        <time>2020-11-01T12:33:39Z</time>
      </trkpt>
      <trkpt lat="43.259506" lon="-5.135388">
        <ele>449.0</ele>
        <time>2020-11-01T12:33:40Z</time>
      </trkpt>
      <trkpt lat="43.259506" lon="-5.1353745">
        <ele>449.0</ele>
        <time>2020-11-01T12:33:41Z</time>
      </trkpt>
      <trkpt lat="43.259506" lon="-5.135362">
        <ele>448.0</ele>
        <time>2020-11-01T12:33:42Z</time>
      </trkpt>
      <trkpt lat="43.259506" lon="-5.1353493">
        <ele>448.0</ele>
        <time>2020-11-01T12:33:43Z</time>
      </trkpt>
      <trkpt lat="43.2595" lon="-5.1353354">
        <ele>448.0</ele>
        <time>2020-11-01T12:33:44Z</time>
      </trkpt>
      <trkpt lat="43.2595" lon="-5.135321">
        <ele>448.0</ele>
        <time>2020-11-01T12:33:45Z</time>
      </trkpt>
      <trkpt lat="43.2595" lon="-5.1353064">
        <ele>448.0</ele>
        <time>2020-11-01T12:33:46Z</time>
      </trkpt>
      <trkpt lat="43.259495" lon="-5.1352944">
        <ele>448.0</ele>
        <time>2020-11-01T12:33:47Z</time>
      </trkpt>
      <trkpt lat="43.25949" lon="-5.135283">
        <ele>448.0</ele>
        <time>2020-11-01T12:33:48Z</time>
      </trkpt>
      <trkpt lat="43.25949" lon="-5.135272">
        <ele>448.0</ele>
        <time>2020-11-01T12:33:50Z</time>
      </trkpt>
      <trkpt lat="43.259483" lon="-5.135262">
        <ele>447.0</ele>
        <time>2020-11-01T12:33:50Z</time>
      </trkpt>
      <trkpt lat="43.259483" lon="-5.135253">
        <ele>447.0</ele>
        <time>2020-11-01T12:33:51Z</time>
      </trkpt>
      <trkpt lat="43.259483" lon="-5.1352434">
        <ele>447.0</ele>
        <time>2020-11-01T12:33:52Z</time>
      </trkpt>
      <trkpt lat="43.25948" lon="-5.1352324">
        <ele>447.0</ele>
        <time>2020-11-01T12:33:53Z</time>
      </trkpt>
      <trkpt lat="43.25948" lon="-5.135221">
        <ele>447.0</ele>
        <time>2020-11-01T12:33:54Z</time>
      </trkpt>
      <trkpt lat="43.25948" lon="-5.135209">
        <ele>446.0</ele>
        <time>2020-11-01T12:33:55Z</time>
      </trkpt>
      <trkpt lat="43.259476" lon="-5.1351976">
        <ele>446.0</ele>
        <time>2020-11-01T12:33:56Z</time>
      </trkpt>
      <trkpt lat="43.259468" lon="-5.1351895">
        <ele>446.0</ele>
        <time>2020-11-01T12:33:57Z</time>
      </trkpt>
      <trkpt lat="43.259468" lon="-5.13518">
        <ele>446.0</ele>
        <time>2020-11-01T12:33:58Z</time>
      </trkpt>
      <trkpt lat="43.259464" lon="-5.135171">
        <ele>446.0</ele>
        <time>2020-11-01T12:33:59Z</time>
      </trkpt>
      <trkpt lat="43.25946" lon="-5.1351624">
        <ele>446.0</ele>
        <time>2020-11-01T12:34:00Z</time>
      </trkpt>
      <trkpt lat="43.259453" lon="-5.135151">
        <ele>446.0</ele>
        <time>2020-11-01T12:34:01Z</time>
      </trkpt>
      <trkpt lat="43.25945" lon="-5.135137">
        <ele>446.0</ele>
        <time>2020-11-01T12:34:02Z</time>
      </trkpt>
      <trkpt lat="43.25944" lon="-5.1351185">
        <ele>446.0</ele>
        <time>2020-11-01T12:34:03Z</time>
      </trkpt>
      <trkpt lat="43.259438" lon="-5.1351004">
        <ele>446.0</ele>
        <time>2020-11-01T12:34:05Z</time>
      </trkpt>
      <trkpt lat="43.259438" lon="-5.1350827">
        <ele>446.0</ele>
        <time>2020-11-01T12:34:05Z</time>
      </trkpt>
      <trkpt lat="43.259434" lon="-5.1350675">
        <ele>445.0</ele>
        <time>2020-11-01T12:34:06Z</time>
      </trkpt>
      <trkpt lat="43.259426" lon="-5.135055">
        <ele>445.0</ele>
        <time>2020-11-01T12:34:07Z</time>
      </trkpt>
      <trkpt lat="43.259422" lon="-5.1350436">
        <ele>445.0</ele>
        <time>2020-11-01T12:34:08Z</time>
      </trkpt>
      <trkpt lat="43.25942" lon="-5.1350355">
        <ele>445.0</ele>
        <time>2020-11-01T12:34:09Z</time>
      </trkpt>
      <trkpt lat="43.25941" lon="-5.1350255">
        <ele>445.0</ele>
        <time>2020-11-01T12:34:10Z</time>
      </trkpt>
      <trkpt lat="43.259407" lon="-5.1350126">
        <ele>445.0</ele>
        <time>2020-11-01T12:34:11Z</time>
      </trkpt>
      <trkpt lat="43.259403" lon="-5.1350007">
        <ele>445.0</ele>
        <time>2020-11-01T12:34:12Z</time>
      </trkpt>
      <trkpt lat="43.259403" lon="-5.1349874">
        <ele>445.0</ele>
        <time>2020-11-01T12:34:13Z</time>
      </trkpt>
      <trkpt lat="43.259396" lon="-5.1349754">
        <ele>444.0</ele>
        <time>2020-11-01T12:34:14Z</time>
      </trkpt>
      <trkpt lat="43.259396" lon="-5.134963">
        <ele>444.0</ele>
        <time>2020-11-01T12:34:15Z</time>
      </trkpt>
      <trkpt lat="43.259396" lon="-5.134951">
        <ele>444.0</ele>
        <time>2020-11-01T12:34:16Z</time>
      </trkpt>
      <trkpt lat="43.259396" lon="-5.1349373">
        <ele>444.0</ele>
        <time>2020-11-01T12:34:17Z</time>
      </trkpt>
      <trkpt lat="43.259396" lon="-5.134922">
        <ele>444.0</ele>
        <time>2020-11-01T12:34:18Z</time>
      </trkpt>
      <trkpt lat="43.259396" lon="-5.134907">
        <ele>444.0</ele>
        <time>2020-11-01T12:34:20Z</time>
      </trkpt>
      <trkpt lat="43.259396" lon="-5.134891">
        <ele>444.0</ele>
        <time>2020-11-01T12:34:20Z</time>
      </trkpt>
      <trkpt lat="43.25939" lon="-5.1348743">
        <ele>443.0</ele>
        <time>2020-11-01T12:34:21Z</time>
      </trkpt>
      <trkpt lat="43.25939" lon="-5.134856">
        <ele>443.0</ele>
        <time>2020-11-01T12:34:21Z</time>
      </trkpt>
      <trkpt lat="43.25939" lon="-5.134838">
        <ele>443.0</ele>
        <time>2020-11-01T12:34:22Z</time>
      </trkpt>
      <trkpt lat="43.25939" lon="-5.134822">
        <ele>443.0</ele>
        <time>2020-11-01T12:34:23Z</time>
      </trkpt>
      <trkpt lat="43.25939" lon="-5.1348057">
        <ele>443.0</ele>
        <time>2020-11-01T12:34:24Z</time>
      </trkpt>
      <trkpt lat="43.25939" lon="-5.1347914">
        <ele>443.0</ele>
        <time>2020-11-01T12:34:25Z</time>
      </trkpt>
      <trkpt lat="43.259388" lon="-5.1347756">
        <ele>443.0</ele>
        <time>2020-11-01T12:34:27Z</time>
      </trkpt>
      <trkpt lat="43.259388" lon="-5.1347604">
        <ele>442.0</ele>
        <time>2020-11-01T12:34:27Z</time>
      </trkpt>
      <trkpt lat="43.25938" lon="-5.134745">
        <ele>442.0</ele>
        <time>2020-11-01T12:34:28Z</time>
      </trkpt>
      <trkpt lat="43.25938" lon="-5.1347294">
        <ele>442.0</ele>
        <time>2020-11-01T12:34:29Z</time>
      </trkpt>
      <trkpt lat="43.25938" lon="-5.134713">
        <ele>442.0</ele>
        <time>2020-11-01T12:34:30Z</time>
      </trkpt>
      <trkpt lat="43.25938" lon="-5.134697">
        <ele>442.0</ele>
        <time>2020-11-01T12:34:31Z</time>
      </trkpt>
      <trkpt lat="43.25938" lon="-5.1346807">
        <ele>442.0</ele>
        <time>2020-11-01T12:34:32Z</time>
      </trkpt>
      <trkpt lat="43.25938" lon="-5.134666">
        <ele>442.0</ele>
        <time>2020-11-01T12:34:33Z</time>
      </trkpt>
      <trkpt lat="43.25938" lon="-5.13465">
        <ele>442.0</ele>
        <time>2020-11-01T12:34:34Z</time>
      </trkpt>
      <trkpt lat="43.25938" lon="-5.134635">
        <ele>442.0</ele>
        <time>2020-11-01T12:34:35Z</time>
      </trkpt>
      <trkpt lat="43.259377" lon="-5.1346207">
        <ele>441.0</ele>
        <time>2020-11-01T12:34:36Z</time>
      </trkpt>
      <trkpt lat="43.259373" lon="-5.134608">
        <ele>441.0</ele>
        <time>2020-11-01T12:34:37Z</time>
      </trkpt>
      <trkpt lat="43.259373" lon="-5.134595">
        <ele>441.0</ele>
        <time>2020-11-01T12:34:38Z</time>
      </trkpt>
      <trkpt lat="43.259365" lon="-5.134582">
        <ele>441.0</ele>
        <time>2020-11-01T12:34:39Z</time>
      </trkpt>
      <trkpt lat="43.25936" lon="-5.134568">
        <ele>441.0</ele>
        <time>2020-11-01T12:34:40Z</time>
      </trkpt>
      <trkpt lat="43.259357" lon="-5.1345553">
        <ele>441.0</ele>
        <time>2020-11-01T12:34:41Z</time>
      </trkpt>
      <trkpt lat="43.25935" lon="-5.134542">
        <ele>441.0</ele>
        <time>2020-11-01T12:34:42Z</time>
      </trkpt>
      <trkpt lat="43.259346" lon="-5.134527">
        <ele>440.0</ele>
        <time>2020-11-01T12:34:43Z</time>
      </trkpt>
      <trkpt lat="43.259342" lon="-5.1345124">
        <ele>440.0</ele>
        <time>2020-11-01T12:34:44Z</time>
      </trkpt>
      <trkpt lat="43.259335" lon="-5.134498">
        <ele>440.0</ele>
        <time>2020-11-01T12:34:45Z</time>
      </trkpt>
      <trkpt lat="43.259335" lon="-5.134484">
        <ele>440.0</ele>
        <time>2020-11-01T12:34:46Z</time>
      </trkpt>
      <trkpt lat="43.25933" lon="-5.1344705">
        <ele>440.0</ele>
        <time>2020-11-01T12:34:48Z</time>
      </trkpt>
      <trkpt lat="43.25933" lon="-5.134456">
        <ele>440.0</ele>
        <time>2020-11-01T12:34:48Z</time>
      </trkpt>
      <trkpt lat="43.25933" lon="-5.1344414">
        <ele>439.0</ele>
        <time>2020-11-01T12:34:49Z</time>
      </trkpt>
      <trkpt lat="43.259327" lon="-5.134427">
        <ele>439.0</ele>
        <time>2020-11-01T12:34:50Z</time>
      </trkpt>
      <trkpt lat="43.259327" lon="-5.134413">
        <ele>439.0</ele>
        <time>2020-11-01T12:34:51Z</time>
      </trkpt>
      <trkpt lat="43.25932" lon="-5.1344004">
        <ele>439.0</ele>
        <time>2020-11-01T12:34:52Z</time>
      </trkpt>
      <trkpt lat="43.25932" lon="-5.13439">
        <ele>439.0</ele>
        <time>2020-11-01T12:34:53Z</time>
      </trkpt>
      <trkpt lat="43.25932" lon="-5.134379">
        <ele>439.0</ele>
        <time>2020-11-01T12:34:54Z</time>
      </trkpt>
      <trkpt lat="43.259327" lon="-5.134368">
        <ele>438.0</ele>
        <time>2020-11-01T12:34:55Z</time>
      </trkpt>
      <trkpt lat="43.259327" lon="-5.134356">
        <ele>438.0</ele>
        <time>2020-11-01T12:34:56Z</time>
      </trkpt>
      <trkpt lat="43.25933" lon="-5.1343436">
        <ele>438.0</ele>
        <time>2020-11-01T12:34:57Z</time>
      </trkpt>
      <trkpt lat="43.25933" lon="-5.1343317">
        <ele>438.0</ele>
        <time>2020-11-01T12:34:58Z</time>
      </trkpt>
      <trkpt lat="43.25933" lon="-5.134319">
        <ele>438.0</ele>
        <time>2020-11-01T12:34:59Z</time>
      </trkpt>
      <trkpt lat="43.259327" lon="-5.1343074">
        <ele>437.0</ele>
        <time>2020-11-01T12:35:00Z</time>
      </trkpt>
      <trkpt lat="43.259315" lon="-5.134295">
        <ele>437.0</ele>
        <time>2020-11-01T12:35:01Z</time>
      </trkpt>
      <trkpt lat="43.25931" lon="-5.134281">
        <ele>437.0</ele>
        <time>2020-11-01T12:35:03Z</time>
      </trkpt>
      <trkpt lat="43.25931" lon="-5.134268">
        <ele>437.0</ele>
        <time>2020-11-01T12:35:03Z</time>
      </trkpt>
      <trkpt lat="43.259304" lon="-5.1342535">
        <ele>437.0</ele>
        <time>2020-11-01T12:35:04Z</time>
      </trkpt>
      <trkpt lat="43.2593" lon="-5.1342382">
        <ele>437.0</ele>
        <time>2020-11-01T12:35:05Z</time>
      </trkpt>
      <trkpt lat="43.2593" lon="-5.1342216">
        <ele>436.0</ele>
        <time>2020-11-01T12:35:06Z</time>
      </trkpt>
      <trkpt lat="43.259296" lon="-5.1342044">
        <ele>436.0</ele>
        <time>2020-11-01T12:35:07Z</time>
      </trkpt>
      <trkpt lat="43.259296" lon="-5.134188">
        <ele>436.0</ele>
        <time>2020-11-01T12:35:08Z</time>
      </trkpt>
      <trkpt lat="43.259296" lon="-5.1341734">
        <ele>436.0</ele>
        <time>2020-11-01T12:35:09Z</time>
      </trkpt>
      <trkpt lat="43.259296" lon="-5.1341605">
        <ele>436.0</ele>
        <time>2020-11-01T12:35:10Z</time>
      </trkpt>
      <trkpt lat="43.259296" lon="-5.1341496">
        <ele>436.0</ele>
        <time>2020-11-01T12:35:11Z</time>
      </trkpt>
      <trkpt lat="43.25929" lon="-5.1341395">
        <ele>436.0</ele>
        <time>2020-11-01T12:35:12Z</time>
      </trkpt>
      <trkpt lat="43.25929" lon="-5.1341276">
        <ele>435.0</ele>
        <time>2020-11-01T12:35:13Z</time>
      </trkpt>
      <trkpt lat="43.259285" lon="-5.1341195">
        <ele>435.0</ele>
        <time>2020-11-01T12:35:14Z</time>
      </trkpt>
      <trkpt lat="43.25928" lon="-5.134114">
        <ele>435.0</ele>
        <time>2020-11-01T12:35:15Z</time>
      </trkpt>
      <trkpt lat="43.259274" lon="-5.1341095">
        <ele>435.0</ele>
        <time>2020-11-01T12:35:16Z</time>
      </trkpt>
      <trkpt lat="43.259266" lon="-5.1341057">
        <ele>435.0</ele>
        <time>2020-11-01T12:35:17Z</time>
      </trkpt>
      <trkpt lat="43.25926" lon="-5.1341047">
        <ele>435.0</ele>
        <time>2020-11-01T12:35:18Z</time>
      </trkpt>
      <trkpt lat="43.259247" lon="-5.1341">
        <ele>435.0</ele>
        <time>2020-11-01T12:35:19Z</time>
      </trkpt>
      <trkpt lat="43.259243" lon="-5.134093">
        <ele>435.0</ele>
        <time>2020-11-01T12:35:20Z</time>
      </trkpt>
      <trkpt lat="43.25924" lon="-5.134087">
        <ele>435.0</ele>
        <time>2020-11-01T12:35:21Z</time>
      </trkpt>
      <trkpt lat="43.25924" lon="-5.1340785">
        <ele>435.0</ele>
        <time>2020-11-01T12:35:22Z</time>
      </trkpt>
      <trkpt lat="43.25923" lon="-5.134067">
        <ele>435.0</ele>
        <time>2020-11-01T12:35:23Z</time>
      </trkpt>
      <trkpt lat="43.259228" lon="-5.1340537">
        <ele>435.0</ele>
        <time>2020-11-01T12:35:24Z</time>
      </trkpt>
      <trkpt lat="43.259228" lon="-5.134041">
        <ele>435.0</ele>
        <time>2020-11-01T12:35:26Z</time>
      </trkpt>
      <trkpt lat="43.259216" lon="-5.134029">
        <ele>435.0</ele>
        <time>2020-11-01T12:35:26Z</time>
      </trkpt>
      <trkpt lat="43.259212" lon="-5.134016">
        <ele>435.0</ele>
        <time>2020-11-01T12:35:27Z</time>
      </trkpt>
      <trkpt lat="43.25921" lon="-5.1340027">
        <ele>435.0</ele>
        <time>2020-11-01T12:35:28Z</time>
      </trkpt>
      <trkpt lat="43.2592" lon="-5.13399">
        <ele>435.0</ele>
        <time>2020-11-01T12:35:29Z</time>
      </trkpt>
      <trkpt lat="43.259197" lon="-5.133977">
        <ele>434.0</ele>
        <time>2020-11-01T12:35:30Z</time>
      </trkpt>
      <trkpt lat="43.259193" lon="-5.133965">
        <ele>434.0</ele>
        <time>2020-11-01T12:35:31Z</time>
      </trkpt>
      <trkpt lat="43.259186" lon="-5.133953">
        <ele>434.0</ele>
        <time>2020-11-01T12:35:32Z</time>
      </trkpt>
      <trkpt lat="43.259186" lon="-5.1339397">
        <ele>434.0</ele>
        <time>2020-11-01T12:35:33Z</time>
      </trkpt>
      <trkpt lat="43.259182" lon="-5.1339254">
        <ele>433.0</ele>
        <time>2020-11-01T12:35:34Z</time>
      </trkpt>
      <trkpt lat="43.25918" lon="-5.133912">
        <ele>433.0</ele>
        <time>2020-11-01T12:35:35Z</time>
      </trkpt>
      <trkpt lat="43.25918" lon="-5.1338973">
        <ele>433.0</ele>
        <time>2020-11-01T12:35:36Z</time>
      </trkpt>
      <trkpt lat="43.25917" lon="-5.1338835">
        <ele>433.0</ele>
        <time>2020-11-01T12:35:37Z</time>
      </trkpt>
      <trkpt lat="43.25917" lon="-5.1338696">
        <ele>432.0</ele>
        <time>2020-11-01T12:35:39Z</time>
      </trkpt>
      <trkpt lat="43.259167" lon="-5.133857">
        <ele>432.0</ele>
        <time>2020-11-01T12:35:39Z</time>
      </trkpt>
      <trkpt lat="43.259163" lon="-5.133844">
        <ele>432.0</ele>
        <time>2020-11-01T12:35:40Z</time>
      </trkpt>
      <trkpt lat="43.259163" lon="-5.1338325">
        <ele>432.0</ele>
        <time>2020-11-01T12:35:41Z</time>
      </trkpt>
      <trkpt lat="43.259155" lon="-5.133821">
        <ele>432.0</ele>
        <time>2020-11-01T12:35:42Z</time>
      </trkpt>
      <trkpt lat="43.25915" lon="-5.1338096">
        <ele>431.0</ele>
        <time>2020-11-01T12:35:43Z</time>
      </trkpt>
      <trkpt lat="43.25915" lon="-5.1337976">
        <ele>431.0</ele>
        <time>2020-11-01T12:35:44Z</time>
      </trkpt>
      <trkpt lat="43.25915" lon="-5.1337867">
        <ele>431.0</ele>
        <time>2020-11-01T12:35:45Z</time>
      </trkpt>
      <trkpt lat="43.25915" lon="-5.1337743">
        <ele>430.0</ele>
        <time>2020-11-01T12:35:46Z</time>
      </trkpt>
      <trkpt lat="43.259148" lon="-5.133762">
        <ele>430.0</ele>
        <time>2020-11-01T12:35:47Z</time>
      </trkpt>
      <trkpt lat="43.259148" lon="-5.13375">
        <ele>430.0</ele>
        <time>2020-11-01T12:35:48Z</time>
      </trkpt>
      <trkpt lat="43.25914" lon="-5.133739">
        <ele>430.0</ele>
        <time>2020-11-01T12:35:49Z</time>
      </trkpt>
      <trkpt lat="43.259136" lon="-5.1337285">
        <ele>429.0</ele>
        <time>2020-11-01T12:35:50Z</time>
      </trkpt>
      <trkpt lat="43.259132" lon="-5.133716">
        <ele>429.0</ele>
        <time>2020-11-01T12:35:51Z</time>
      </trkpt>
      <trkpt lat="43.259132" lon="-5.1337056">
        <ele>429.0</ele>
        <time>2020-11-01T12:35:52Z</time>
      </trkpt>
      <trkpt lat="43.259125" lon="-5.133695">
        <ele>429.0</ele>
        <time>2020-11-01T12:35:54Z</time>
      </trkpt>
      <trkpt lat="43.259125" lon="-5.1336837">
        <ele>428.0</ele>
        <time>2020-11-01T12:35:54Z</time>
      </trkpt>
      <trkpt lat="43.25912" lon="-5.133672">
        <ele>428.0</ele>
        <time>2020-11-01T12:35:55Z</time>
      </trkpt>
      <trkpt lat="43.259117" lon="-5.133661">
        <ele>428.0</ele>
        <time>2020-11-01T12:35:56Z</time>
      </trkpt>
      <trkpt lat="43.25911" lon="-5.1336493">
        <ele>428.0</ele>
        <time>2020-11-01T12:35:57Z</time>
      </trkpt>
      <trkpt lat="43.25911" lon="-5.133635">
        <ele>427.0</ele>
        <time>2020-11-01T12:35:58Z</time>
      </trkpt>
      <trkpt lat="43.259106" lon="-5.133621">
        <ele>427.0</ele>
        <time>2020-11-01T12:35:59Z</time>
      </trkpt>
      <trkpt lat="43.2591" lon="-5.133608">
        <ele>427.0</ele>
        <time>2020-11-01T12:36:00Z</time>
      </trkpt>
      <trkpt lat="43.259094" lon="-5.133594">
        <ele>427.0</ele>
        <time>2020-11-01T12:36:02Z</time>
      </trkpt>
      <trkpt lat="43.25909" lon="-5.1335793">
        <ele>427.0</ele>
        <time>2020-11-01T12:36:02Z</time>
      </trkpt>
      <trkpt lat="43.25909" lon="-5.1335645">
        <ele>427.0</ele>
        <time>2020-11-01T12:36:03Z</time>
      </trkpt>
      <trkpt lat="43.259087" lon="-5.13355">
        <ele>427.0</ele>
        <time>2020-11-01T12:36:04Z</time>
      </trkpt>
      <trkpt lat="43.25908" lon="-5.1335363">
        <ele>427.0</ele>
        <time>2020-11-01T12:36:05Z</time>
      </trkpt>
      <trkpt lat="43.25908" lon="-5.133522">
        <ele>427.0</ele>
        <time>2020-11-01T12:36:06Z</time>
      </trkpt>
      <trkpt lat="43.259075" lon="-5.133511">
        <ele>427.0</ele>
        <time>2020-11-01T12:36:07Z</time>
      </trkpt>
      <trkpt lat="43.259068" lon="-5.1335006">
        <ele>426.0</ele>
        <time>2020-11-01T12:36:08Z</time>
      </trkpt>
      <trkpt lat="43.259068" lon="-5.13349">
        <ele>426.0</ele>
        <time>2020-11-01T12:36:10Z</time>
      </trkpt>
      <trkpt lat="43.259068" lon="-5.1334805">
        <ele>426.0</ele>
        <time>2020-11-01T12:36:10Z</time>
      </trkpt>
      <trkpt lat="43.259068" lon="-5.1334705">
        <ele>426.0</ele>
        <time>2020-11-01T12:36:11Z</time>
      </trkpt>
      <trkpt lat="43.259064" lon="-5.133462">
        <ele>425.0</ele>
        <time>2020-11-01T12:36:12Z</time>
      </trkpt>
      <trkpt lat="43.259064" lon="-5.133451">
        <ele>425.0</ele>
        <time>2020-11-01T12:36:13Z</time>
      </trkpt>
      <trkpt lat="43.25906" lon="-5.1334395">
        <ele>425.0</ele>
        <time>2020-11-01T12:36:14Z</time>
      </trkpt>
      <trkpt lat="43.25906" lon="-5.133427">
        <ele>425.0</ele>
        <time>2020-11-01T12:36:15Z</time>
      </trkpt>
      <trkpt lat="43.25906" lon="-5.133416">
        <ele>425.0</ele>
        <time>2020-11-01T12:36:16Z</time>
      </trkpt>
      <trkpt lat="43.25906" lon="-5.1334076">
        <ele>424.0</ele>
        <time>2020-11-01T12:36:17Z</time>
      </trkpt>
      <trkpt lat="43.259052" lon="-5.1334014">
        <ele>424.0</ele>
        <time>2020-11-01T12:36:18Z</time>
      </trkpt>
      <trkpt lat="43.25905" lon="-5.1333966">
        <ele>424.0</ele>
        <time>2020-11-01T12:36:19Z</time>
      </trkpt>
      <trkpt lat="43.259045" lon="-5.1333923">
        <ele>424.0</ele>
        <time>2020-11-01T12:36:20Z</time>
      </trkpt>
      <trkpt lat="43.259037" lon="-5.133389">
        <ele>423.0</ele>
        <time>2020-11-01T12:36:21Z</time>
      </trkpt>
      <trkpt lat="43.25903" lon="-5.133386">
        <ele>423.0</ele>
        <time>2020-11-01T12:36:22Z</time>
      </trkpt>
      <trkpt lat="43.25902" lon="-5.1333857">
        <ele>423.0</ele>
        <time>2020-11-01T12:36:23Z</time>
      </trkpt>
      <trkpt lat="43.25902" lon="-5.133386">
        <ele>423.0</ele>
        <time>2020-11-01T12:36:25Z</time>
      </trkpt>
      <trkpt lat="43.259018" lon="-5.133388">
        <ele>423.0</ele>
        <time>2020-11-01T12:36:25Z</time>
      </trkpt>
      <trkpt lat="43.259014" lon="-5.133389">
        <ele>422.0</ele>
        <time>2020-11-01T12:36:26Z</time>
      </trkpt>
      <trkpt lat="43.259014" lon="-5.133391">
        <ele>422.0</ele>
        <time>2020-11-01T12:36:27Z</time>
      </trkpt>
      <trkpt lat="43.259014" lon="-5.1333957">
        <ele>422.0</ele>
        <time>2020-11-01T12:36:28Z</time>
      </trkpt>
      <trkpt lat="43.259007" lon="-5.1334023">
        <ele>422.0</ele>
        <time>2020-11-01T12:36:29Z</time>
      </trkpt>
      <trkpt lat="43.259007" lon="-5.1334105">
        <ele>421.0</ele>
        <time>2020-11-01T12:36:30Z</time>
      </trkpt>
      <trkpt lat="43.259003" lon="-5.133419">
        <ele>421.0</ele>
        <time>2020-11-01T12:36:31Z</time>
      </trkpt>
      <trkpt lat="43.259" lon="-5.1334295">
        <ele>421.0</ele>
        <time>2020-11-01T12:36:33Z</time>
      </trkpt>
      <trkpt lat="43.259" lon="-5.1334386">
        <ele>421.0</ele>
        <time>2020-11-01T12:36:33Z</time>
      </trkpt>
      <trkpt lat="43.259" lon="-5.1334467">
        <ele>421.0</ele>
        <time>2020-11-01T12:36:34Z</time>
      </trkpt>
      <trkpt lat="43.259" lon="-5.133455">
        <ele>420.0</ele>
        <time>2020-11-01T12:36:35Z</time>
      </trkpt>
      <trkpt lat="43.259" lon="-5.1334615">
        <ele>420.0</ele>
        <time>2020-11-01T12:36:36Z</time>
      </trkpt>
      <trkpt lat="43.259" lon="-5.1334677">
        <ele>420.0</ele>
        <time>2020-11-01T12:36:37Z</time>
      </trkpt>
      <trkpt lat="43.259" lon="-5.133474">
        <ele>420.0</ele>
        <time>2020-11-01T12:36:38Z</time>
      </trkpt>
      <trkpt lat="43.259" lon="-5.1334815">
        <ele>420.0</ele>
        <time>2020-11-01T12:36:39Z</time>
      </trkpt>
      <trkpt lat="43.259" lon="-5.133491">
        <ele>420.0</ele>
        <time>2020-11-01T12:36:40Z</time>
      </trkpt>
      <trkpt lat="43.25899" lon="-5.1335034">
        <ele>420.0</ele>
        <time>2020-11-01T12:36:41Z</time>
      </trkpt>
      <trkpt lat="43.258984" lon="-5.1335163">
        <ele>420.0</ele>
        <time>2020-11-01T12:36:42Z</time>
      </trkpt>
      <trkpt lat="43.258976" lon="-5.1335273">
        <ele>420.0</ele>
        <time>2020-11-01T12:36:43Z</time>
      </trkpt>
      <trkpt lat="43.258972" lon="-5.1335373">
        <ele>419.0</ele>
        <time>2020-11-01T12:36:44Z</time>
      </trkpt>
      <trkpt lat="43.25897" lon="-5.133546">
        <ele>419.0</ele>
        <time>2020-11-01T12:36:46Z</time>
      </trkpt>
      <trkpt lat="43.25897" lon="-5.133556">
        <ele>419.0</ele>
        <time>2020-11-01T12:36:46Z</time>
      </trkpt>
      <trkpt lat="43.25897" lon="-5.1335654">
        <ele>419.0</ele>
        <time>2020-11-01T12:36:47Z</time>
      </trkpt>
      <trkpt lat="43.25896" lon="-5.1335745">
        <ele>419.0</ele>
        <time>2020-11-01T12:36:48Z</time>
      </trkpt>
      <trkpt lat="43.25896" lon="-5.1335826">
        <ele>419.0</ele>
        <time>2020-11-01T12:36:49Z</time>
      </trkpt>
      <trkpt lat="43.258957" lon="-5.1335897">
        <ele>419.0</ele>
        <time>2020-11-01T12:36:50Z</time>
      </trkpt>
      <trkpt lat="43.258945" lon="-5.133604">
        <ele>418.0</ele>
        <time>2020-11-01T12:36:52Z</time>
      </trkpt>
      <trkpt lat="43.258945" lon="-5.133606">
        <ele>418.0</ele>
        <time>2020-11-01T12:36:54Z</time>
      </trkpt>
      <trkpt lat="43.258945" lon="-5.1336064">
        <ele>418.0</ele>
        <time>2020-11-01T12:36:55Z</time>
      </trkpt>
      <trkpt lat="43.25894" lon="-5.13361">
        <ele>418.0</ele>
        <time>2020-11-01T12:36:56Z</time>
      </trkpt>
      <trkpt lat="43.25894" lon="-5.1336155">
        <ele>418.0</ele>
        <time>2020-11-01T12:36:57Z</time>
      </trkpt>
      <trkpt lat="43.258938" lon="-5.133623">
        <ele>418.0</ele>
        <time>2020-11-01T12:36:58Z</time>
      </trkpt>
      <trkpt lat="43.258938" lon="-5.133631">
        <ele>418.0</ele>
        <time>2020-11-01T12:36:59Z</time>
      </trkpt>
      <trkpt lat="43.258938" lon="-5.133641">
        <ele>418.0</ele>
        <time>2020-11-01T12:37:00Z</time>
      </trkpt>
      <trkpt lat="43.25893" lon="-5.1336517">
        <ele>417.0</ele>
        <time>2020-11-01T12:37:01Z</time>
      </trkpt>
      <trkpt lat="43.25893" lon="-5.1336627">
        <ele>417.0</ele>
        <time>2020-11-01T12:37:02Z</time>
      </trkpt>
      <trkpt lat="43.25893" lon="-5.133674">
        <ele>417.0</ele>
        <time>2020-11-01T12:37:04Z</time>
      </trkpt>
      <trkpt lat="43.25893" lon="-5.133686">
        <ele>417.0</ele>
        <time>2020-11-01T12:37:04Z</time>
      </trkpt>
      <trkpt lat="43.25893" lon="-5.133699">
        <ele>417.0</ele>
        <time>2020-11-01T12:37:05Z</time>
      </trkpt>
      <trkpt lat="43.258926" lon="-5.1337113">
        <ele>416.0</ele>
        <time>2020-11-01T12:37:06Z</time>
      </trkpt>
      <trkpt lat="43.258926" lon="-5.1337237">
        <ele>416.0</ele>
        <time>2020-11-01T12:37:07Z</time>
      </trkpt>
      <trkpt lat="43.258923" lon="-5.1337347">
        <ele>416.0</ele>
        <time>2020-11-01T12:37:08Z</time>
      </trkpt>
      <trkpt lat="43.258915" lon="-5.133745">
        <ele>416.0</ele>
        <time>2020-11-01T12:37:09Z</time>
      </trkpt>
      <trkpt lat="43.25891" lon="-5.1337557">
        <ele>416.0</ele>
        <time>2020-11-01T12:37:10Z</time>
      </trkpt>
      <trkpt lat="43.258907" lon="-5.1337667">
        <ele>416.0</ele>
        <time>2020-11-01T12:37:11Z</time>
      </trkpt>
      <trkpt lat="43.258896" lon="-5.133777">
        <ele>415.0</ele>
        <time>2020-11-01T12:37:12Z</time>
      </trkpt>
      <trkpt lat="43.258892" lon="-5.133789">
        <ele>415.0</ele>
        <time>2020-11-01T12:37:13Z</time>
      </trkpt>
      <trkpt lat="43.258884" lon="-5.1338015">
        <ele>415.0</ele>
        <time>2020-11-01T12:37:14Z</time>
      </trkpt>
      <trkpt lat="43.25888" lon="-5.1338153">
        <ele>415.0</ele>
        <time>2020-11-01T12:37:15Z</time>
      </trkpt>
      <trkpt lat="43.258873" lon="-5.1338267">
        <ele>415.0</ele>
        <time>2020-11-01T12:37:16Z</time>
      </trkpt>
      <trkpt lat="43.25887" lon="-5.1338363">
        <ele>414.0</ele>
        <time>2020-11-01T12:37:17Z</time>
      </trkpt>
      <trkpt lat="43.25887" lon="-5.1338434">
        <ele>414.0</ele>
        <time>2020-11-01T12:37:19Z</time>
      </trkpt>
      <trkpt lat="43.258865" lon="-5.133851">
        <ele>414.0</ele>
        <time>2020-11-01T12:37:19Z</time>
      </trkpt>
      <trkpt lat="43.258858" lon="-5.133859">
        <ele>414.0</ele>
        <time>2020-11-01T12:37:20Z</time>
      </trkpt>
      <trkpt lat="43.258858" lon="-5.133867">
        <ele>414.0</ele>
        <time>2020-11-01T12:37:21Z</time>
      </trkpt>
      <trkpt lat="43.258854" lon="-5.133875">
        <ele>414.0</ele>
        <time>2020-11-01T12:37:22Z</time>
      </trkpt>
      <trkpt lat="43.25885" lon="-5.133883">
        <ele>414.0</ele>
        <time>2020-11-01T12:37:23Z</time>
      </trkpt>
      <trkpt lat="43.25885" lon="-5.133891">
        <ele>414.0</ele>
        <time>2020-11-01T12:37:24Z</time>
      </trkpt>
      <trkpt lat="43.25885" lon="-5.1339006">
        <ele>414.0</ele>
        <time>2020-11-01T12:37:25Z</time>
      </trkpt>
      <trkpt lat="43.258842" lon="-5.1339107">
        <ele>414.0</ele>
        <time>2020-11-01T12:37:26Z</time>
      </trkpt>
      <trkpt lat="43.25884" lon="-5.133923">
        <ele>413.0</ele>
        <time>2020-11-01T12:37:27Z</time>
      </trkpt>
      <trkpt lat="43.25884" lon="-5.1339326">
        <ele>413.0</ele>
        <time>2020-11-01T12:37:28Z</time>
      </trkpt>
      <trkpt lat="43.258835" lon="-5.1339426">
        <ele>413.0</ele>
        <time>2020-11-01T12:37:29Z</time>
      </trkpt>
      <trkpt lat="43.258823" lon="-5.1339517">
        <ele>413.0</ele>
        <time>2020-11-01T12:37:30Z</time>
      </trkpt>
      <trkpt lat="43.25882" lon="-5.1339626">
        <ele>413.0</ele>
        <time>2020-11-01T12:37:31Z</time>
      </trkpt>
      <trkpt lat="43.258812" lon="-5.1339717">
        <ele>413.0</ele>
        <time>2020-11-01T12:37:32Z</time>
      </trkpt>
      <trkpt lat="43.258804" lon="-5.1339793">
        <ele>412.0</ele>
        <time>2020-11-01T12:37:34Z</time>
      </trkpt>
      <trkpt lat="43.258793" lon="-5.1339874">
        <ele>412.0</ele>
        <time>2020-11-01T12:37:34Z</time>
      </trkpt>
      <trkpt lat="43.25879" lon="-5.133994">
        <ele>412.0</ele>
        <time>2020-11-01T12:37:35Z</time>
      </trkpt>
      <trkpt lat="43.25878" lon="-5.1339984">
        <ele>412.0</ele>
        <time>2020-11-01T12:37:36Z</time>
      </trkpt>
      <trkpt lat="43.258778" lon="-5.1340017">
        <ele>412.0</ele>
        <time>2020-11-01T12:37:37Z</time>
      </trkpt>
      <trkpt lat="43.258774" lon="-5.134005">
        <ele>411.0</ele>
        <time>2020-11-01T12:37:38Z</time>
      </trkpt>
      <trkpt lat="43.258762" lon="-5.1340103">
        <ele>411.0</ele>
        <time>2020-11-01T12:37:40Z</time>
      </trkpt>
      <trkpt lat="43.25876" lon="-5.1340127">
        <ele>411.0</ele>
        <time>2020-11-01T12:37:40Z</time>
      </trkpt>
      <trkpt lat="43.258747" lon="-5.1340175">
        <ele>411.0</ele>
        <time>2020-11-01T12:37:41Z</time>
      </trkpt>
      <trkpt lat="43.258736" lon="-5.1340227">
        <ele>411.0</ele>
        <time>2020-11-01T12:37:42Z</time>
      </trkpt>
      <trkpt lat="43.25872" lon="-5.1340284">
        <ele>411.0</ele>
        <time>2020-11-01T12:37:43Z</time>
      </trkpt>
      <trkpt lat="43.258713" lon="-5.1340322">
        <ele>410.0</ele>
        <time>2020-11-01T12:37:44Z</time>
      </trkpt>
      <trkpt lat="43.2587" lon="-5.1340346">
        <ele>410.0</ele>
        <time>2020-11-01T12:37:45Z</time>
      </trkpt>
      <trkpt lat="43.258686" lon="-5.134035">
        <ele>410.0</ele>
        <time>2020-11-01T12:37:46Z</time>
      </trkpt>
      <trkpt lat="43.258675" lon="-5.1340327">
        <ele>410.0</ele>
        <time>2020-11-01T12:37:47Z</time>
      </trkpt>
      <trkpt lat="43.258663" lon="-5.13403">
        <ele>410.0</ele>
        <time>2020-11-01T12:37:48Z</time>
      </trkpt>
      <trkpt lat="43.25866" lon="-5.134025">
        <ele>409.0</ele>
        <time>2020-11-01T12:37:49Z</time>
      </trkpt>
      <trkpt lat="43.258648" lon="-5.1340194">
        <ele>409.0</ele>
        <time>2020-11-01T12:37:50Z</time>
      </trkpt>
      <trkpt lat="43.258644" lon="-5.1340137">
        <ele>409.0</ele>
        <time>2020-11-01T12:37:51Z</time>
      </trkpt>
      <trkpt lat="43.258633" lon="-5.134007">
        <ele>409.0</ele>
        <time>2020-11-01T12:37:52Z</time>
      </trkpt>
      <trkpt lat="43.258625" lon="-5.134">
        <ele>409.0</ele>
        <time>2020-11-01T12:37:53Z</time>
      </trkpt>
      <trkpt lat="43.258614" lon="-5.133993">
        <ele>408.0</ele>
        <time>2020-11-01T12:37:55Z</time>
      </trkpt>
      <trkpt lat="43.2586" lon="-5.1339865">
        <ele>408.0</ele>
        <time>2020-11-01T12:37:55Z</time>
      </trkpt>
      <trkpt lat="43.258587" lon="-5.1339774">
        <ele>408.0</ele>
        <time>2020-11-01T12:37:56Z</time>
      </trkpt>
      <trkpt lat="43.25858" lon="-5.1339693">
        <ele>408.0</ele>
        <time>2020-11-01T12:37:57Z</time>
      </trkpt>
      <trkpt lat="43.25857" lon="-5.1339617">
        <ele>408.0</ele>
        <time>2020-11-01T12:37:58Z</time>
      </trkpt>
      <trkpt lat="43.258564" lon="-5.133954">
        <ele>408.0</ele>
        <time>2020-11-01T12:37:59Z</time>
      </trkpt>
      <trkpt lat="43.258556" lon="-5.133947">
        <ele>408.0</ele>
        <time>2020-11-01T12:38:00Z</time>
      </trkpt>
      <trkpt lat="43.258553" lon="-5.13394">
        <ele>408.0</ele>
        <time>2020-11-01T12:38:01Z</time>
      </trkpt>
      <trkpt lat="43.25855" lon="-5.1339335">
        <ele>407.0</ele>
        <time>2020-11-01T12:38:03Z</time>
      </trkpt>
      <trkpt lat="43.25855" lon="-5.133927">
        <ele>407.0</ele>
        <time>2020-11-01T12:38:03Z</time>
      </trkpt>
      <trkpt lat="43.25854" lon="-5.1339207">
        <ele>407.0</ele>
        <time>2020-11-01T12:38:04Z</time>
      </trkpt>
      <trkpt lat="43.258533" lon="-5.133913">
        <ele>407.0</ele>
        <time>2020-11-01T12:38:05Z</time>
      </trkpt>
      <trkpt lat="43.258526" lon="-5.1338987">
        <ele>406.0</ele>
        <time>2020-11-01T12:38:06Z</time>
      </trkpt>
      <trkpt lat="43.258522" lon="-5.133882">
        <ele>406.0</ele>
        <time>2020-11-01T12:38:07Z</time>
      </trkpt>
      <trkpt lat="43.25852" lon="-5.1338673">
        <ele>406.0</ele>
        <time>2020-11-01T12:38:08Z</time>
      </trkpt>
      <trkpt lat="43.258507" lon="-5.1338534">
        <ele>406.0</ele>
        <time>2020-11-01T12:38:09Z</time>
      </trkpt>
      <trkpt lat="43.258507" lon="-5.1338415">
        <ele>406.0</ele>
        <time>2020-11-01T12:38:10Z</time>
      </trkpt>
      <trkpt lat="43.258503" lon="-5.1338296">
        <ele>405.0</ele>
        <time>2020-11-01T12:38:11Z</time>
      </trkpt>
      <trkpt lat="43.258495" lon="-5.1338196">
        <ele>405.0</ele>
        <time>2020-11-01T12:38:12Z</time>
      </trkpt>
      <trkpt lat="43.258495" lon="-5.133809">
        <ele>405.0</ele>
        <time>2020-11-01T12:38:13Z</time>
      </trkpt>
      <trkpt lat="43.25849" lon="-5.1338005">
        <ele>405.0</ele>
        <time>2020-11-01T12:38:14Z</time>
      </trkpt>
      <trkpt lat="43.25849" lon="-5.133792">
        <ele>405.0</ele>
        <time>2020-11-01T12:38:15Z</time>
      </trkpt>
      <trkpt lat="43.258484" lon="-5.133784">
        <ele>404.0</ele>
        <time>2020-11-01T12:38:16Z</time>
      </trkpt>
      <trkpt lat="43.25848" lon="-5.133775">
        <ele>404.0</ele>
        <time>2020-11-01T12:38:18Z</time>
      </trkpt>
      <trkpt lat="43.258476" lon="-5.1337633">
        <ele>404.0</ele>
        <time>2020-11-01T12:38:18Z</time>
      </trkpt>
      <trkpt lat="43.258476" lon="-5.1337514">
        <ele>404.0</ele>
        <time>2020-11-01T12:38:19Z</time>
      </trkpt>
      <trkpt lat="43.25847" lon="-5.133739">
        <ele>404.0</ele>
        <time>2020-11-01T12:38:20Z</time>
      </trkpt>
      <trkpt lat="43.25847" lon="-5.133727">
        <ele>404.0</ele>
        <time>2020-11-01T12:38:21Z</time>
      </trkpt>
      <trkpt lat="43.25847" lon="-5.1337137">
        <ele>404.0</ele>
        <time>2020-11-01T12:38:22Z</time>
      </trkpt>
      <trkpt lat="43.25847" lon="-5.1337004">
        <ele>403.0</ele>
        <time>2020-11-01T12:38:23Z</time>
      </trkpt>
      <trkpt lat="43.258465" lon="-5.1336875">
        <ele>403.0</ele>
        <time>2020-11-01T12:38:24Z</time>
      </trkpt>
      <trkpt lat="43.258465" lon="-5.133675">
        <ele>403.0</ele>
        <time>2020-11-01T12:38:25Z</time>
      </trkpt>
      <trkpt lat="43.25846" lon="-5.133662">
        <ele>403.0</ele>
        <time>2020-11-01T12:38:26Z</time>
      </trkpt>
      <trkpt lat="43.258453" lon="-5.1336474">
        <ele>403.0</ele>
        <time>2020-11-01T12:38:27Z</time>
      </trkpt>
      <trkpt lat="43.258453" lon="-5.133633">
        <ele>402.0</ele>
        <time>2020-11-01T12:38:28Z</time>
      </trkpt>
      <trkpt lat="43.258453" lon="-5.1336193">
        <ele>402.0</ele>
        <time>2020-11-01T12:38:29Z</time>
      </trkpt>
      <trkpt lat="43.25845" lon="-5.133609">
        <ele>402.0</ele>
        <time>2020-11-01T12:38:30Z</time>
      </trkpt>
      <trkpt lat="43.258446" lon="-5.133599">
        <ele>402.0</ele>
        <time>2020-11-01T12:38:31Z</time>
      </trkpt>
      <trkpt lat="43.25844" lon="-5.133588">
        <ele>402.0</ele>
        <time>2020-11-01T12:38:33Z</time>
      </trkpt>
      <trkpt lat="43.258434" lon="-5.1335783">
        <ele>401.0</ele>
        <time>2020-11-01T12:38:33Z</time>
      </trkpt>
      <trkpt lat="43.25843" lon="-5.1335697">
        <ele>401.0</ele>
        <time>2020-11-01T12:38:34Z</time>
      </trkpt>
      <trkpt lat="43.258423" lon="-5.1335607">
        <ele>401.0</ele>
        <time>2020-11-01T12:38:35Z</time>
      </trkpt>
      <trkpt lat="43.258423" lon="-5.1335516">
        <ele>401.0</ele>
        <time>2020-11-01T12:38:36Z</time>
      </trkpt>
      <trkpt lat="43.25842" lon="-5.1335425">
        <ele>401.0</ele>
        <time>2020-11-01T12:38:36Z</time>
      </trkpt>
      <trkpt lat="43.258415" lon="-5.1335325">
        <ele>401.0</ele>
        <time>2020-11-01T12:38:37Z</time>
      </trkpt>
      <trkpt lat="43.258408" lon="-5.1335225">
        <ele>401.0</ele>
        <time>2020-11-01T12:38:38Z</time>
      </trkpt>
      <trkpt lat="43.258404" lon="-5.133512">
        <ele>401.0</ele>
        <time>2020-11-01T12:38:39Z</time>
      </trkpt>
      <trkpt lat="43.2584" lon="-5.1335">
        <ele>401.0</ele>
        <time>2020-11-01T12:38:40Z</time>
      </trkpt>
      <trkpt lat="43.2584" lon="-5.1334877">
        <ele>401.0</ele>
        <time>2020-11-01T12:38:41Z</time>
      </trkpt>
      <trkpt lat="43.2584" lon="-5.1334753">
        <ele>401.0</ele>
        <time>2020-11-01T12:38:42Z</time>
      </trkpt>
      <trkpt lat="43.258392" lon="-5.133465">
        <ele>401.0</ele>
        <time>2020-11-01T12:38:43Z</time>
      </trkpt>
      <trkpt lat="43.25839" lon="-5.1334553">
        <ele>401.0</ele>
        <time>2020-11-01T12:38:45Z</time>
      </trkpt>
      <trkpt lat="43.25839" lon="-5.1334457">
        <ele>401.0</ele>
        <time>2020-11-01T12:38:45Z</time>
      </trkpt>
      <trkpt lat="43.258385" lon="-5.1334367">
        <ele>400.0</ele>
        <time>2020-11-01T12:38:46Z</time>
      </trkpt>
      <trkpt lat="43.258377" lon="-5.1334276">
        <ele>400.0</ele>
        <time>2020-11-01T12:38:47Z</time>
      </trkpt>
      <trkpt lat="43.258373" lon="-5.13342">
        <ele>400.0</ele>
        <time>2020-11-01T12:38:48Z</time>
      </trkpt>
      <trkpt lat="43.258373" lon="-5.1334124">
        <ele>399.0</ele>
        <time>2020-11-01T12:38:49Z</time>
      </trkpt>
      <trkpt lat="43.25837" lon="-5.1334043">
        <ele>399.0</ele>
        <time>2020-11-01T12:38:50Z</time>
      </trkpt>
      <trkpt lat="43.25837" lon="-5.1333933">
        <ele>399.0</ele>
        <time>2020-11-01T12:38:51Z</time>
      </trkpt>
      <trkpt lat="43.25837" lon="-5.133378">
        <ele>398.0</ele>
        <time>2020-11-01T12:38:52Z</time>
      </trkpt>
      <trkpt lat="43.25836" lon="-5.133362">
        <ele>398.0</ele>
        <time>2020-11-01T12:38:53Z</time>
      </trkpt>
      <trkpt lat="43.25836" lon="-5.1333466">
        <ele>398.0</ele>
        <time>2020-11-01T12:38:54Z</time>
      </trkpt>
      <trkpt lat="43.258358" lon="-5.1333346">
        <ele>398.0</ele>
        <time>2020-11-01T12:38:55Z</time>
      </trkpt>
      <trkpt lat="43.258354" lon="-5.1333246">
        <ele>398.0</ele>
        <time>2020-11-01T12:38:56Z</time>
      </trkpt>
      <trkpt lat="43.258347" lon="-5.133316">
        <ele>398.0</ele>
        <time>2020-11-01T12:38:57Z</time>
      </trkpt>
      <trkpt lat="43.258343" lon="-5.1333084">
        <ele>397.0</ele>
        <time>2020-11-01T12:38:58Z</time>
      </trkpt>
      <trkpt lat="43.25834" lon="-5.1333">
        <ele>397.0</ele>
        <time>2020-11-01T12:38:59Z</time>
      </trkpt>
      <trkpt lat="43.25833" lon="-5.13329">
        <ele>397.0</ele>
        <time>2020-11-01T12:39:01Z</time>
      </trkpt>
      <trkpt lat="43.258327" lon="-5.1332784">
        <ele>396.0</ele>
        <time>2020-11-01T12:39:01Z</time>
      </trkpt>
      <trkpt lat="43.258327" lon="-5.1332664">
        <ele>396.0</ele>
        <time>2020-11-01T12:39:02Z</time>
      </trkpt>
      <trkpt lat="43.258324" lon="-5.133255">
        <ele>396.0</ele>
        <time>2020-11-01T12:39:03Z</time>
      </trkpt>
      <trkpt lat="43.258316" lon="-5.133244">
        <ele>395.0</ele>
        <time>2020-11-01T12:39:04Z</time>
      </trkpt>
      <trkpt lat="43.258312" lon="-5.133231">
        <ele>395.0</ele>
        <time>2020-11-01T12:39:05Z</time>
      </trkpt>
      <trkpt lat="43.25831" lon="-5.133219">
        <ele>395.0</ele>
        <time>2020-11-01T12:39:06Z</time>
      </trkpt>
      <trkpt lat="43.2583" lon="-5.1332064">
        <ele>395.0</ele>
        <time>2020-11-01T12:39:07Z</time>
      </trkpt>
      <trkpt lat="43.258297" lon="-5.133196">
        <ele>394.0</ele>
        <time>2020-11-01T12:39:08Z</time>
      </trkpt>
      <trkpt lat="43.258297" lon="-5.133185">
        <ele>394.0</ele>
        <time>2020-11-01T12:39:09Z</time>
      </trkpt>
      <trkpt lat="43.25829" lon="-5.133172">
        <ele>394.0</ele>
        <time>2020-11-01T12:39:10Z</time>
      </trkpt>
      <trkpt lat="43.258286" lon="-5.133158">
        <ele>394.0</ele>
        <time>2020-11-01T12:39:11Z</time>
      </trkpt>
      <trkpt lat="43.25828" lon="-5.133144">
        <ele>394.0</ele>
        <time>2020-11-01T12:39:12Z</time>
      </trkpt>
      <trkpt lat="43.258274" lon="-5.133128">
        <ele>393.0</ele>
        <time>2020-11-01T12:39:13Z</time>
      </trkpt>
      <trkpt lat="43.25827" lon="-5.1331143">
        <ele>393.0</ele>
        <time>2020-11-01T12:39:14Z</time>
      </trkpt>
      <trkpt lat="43.258266" lon="-5.133101">
        <ele>393.0</ele>
        <time>2020-11-01T12:39:16Z</time>
      </trkpt>
      <trkpt lat="43.25826" lon="-5.1330886">
        <ele>393.0</ele>
        <time>2020-11-01T12:39:16Z</time>
      </trkpt>
      <trkpt lat="43.25825" lon="-5.133076">
        <ele>393.0</ele>
        <time>2020-11-01T12:39:17Z</time>
      </trkpt>
      <trkpt lat="43.258244" lon="-5.1330647">
        <ele>392.0</ele>
        <time>2020-11-01T12:39:18Z</time>
      </trkpt>
      <trkpt lat="43.25824" lon="-5.1330533">
        <ele>392.0</ele>
        <time>2020-11-01T12:39:19Z</time>
      </trkpt>
      <trkpt lat="43.25824" lon="-5.1330423">
        <ele>392.0</ele>
        <time>2020-11-01T12:39:20Z</time>
      </trkpt>
      <trkpt lat="43.25823" lon="-5.1330304">
        <ele>392.0</ele>
        <time>2020-11-01T12:39:21Z</time>
      </trkpt>
      <trkpt lat="43.25823" lon="-5.133018">
        <ele>391.0</ele>
        <time>2020-11-01T12:39:22Z</time>
      </trkpt>
      <trkpt lat="43.258224" lon="-5.1330075">
        <ele>391.0</ele>
        <time>2020-11-01T12:39:23Z</time>
      </trkpt>
      <trkpt lat="43.25822" lon="-5.132995">
        <ele>391.0</ele>
        <time>2020-11-01T12:39:24Z</time>
      </trkpt>
      <trkpt lat="43.258213" lon="-5.1329813">
        <ele>391.0</ele>
        <time>2020-11-01T12:39:25Z</time>
      </trkpt>
      <trkpt lat="43.25821" lon="-5.132968">
        <ele>391.0</ele>
        <time>2020-11-01T12:39:26Z</time>
      </trkpt>
      <trkpt lat="43.258198" lon="-5.1329556">
        <ele>391.0</ele>
        <time>2020-11-01T12:39:27Z</time>
      </trkpt>
      <trkpt lat="43.258194" lon="-5.1329427">
        <ele>391.0</ele>
        <time>2020-11-01T12:39:28Z</time>
      </trkpt>
      <trkpt lat="43.258183" lon="-5.13293">
        <ele>391.0</ele>
        <time>2020-11-01T12:39:29Z</time>
      </trkpt>
      <trkpt lat="43.25818" lon="-5.132918">
        <ele>391.0</ele>
        <time>2020-11-01T12:39:31Z</time>
      </trkpt>
      <trkpt lat="43.258167" lon="-5.1329055">
        <ele>390.0</ele>
        <time>2020-11-01T12:39:31Z</time>
      </trkpt>
      <trkpt lat="43.258163" lon="-5.1328936">
        <ele>390.0</ele>
        <time>2020-11-01T12:39:32Z</time>
      </trkpt>
      <trkpt lat="43.25816" lon="-5.1328807">
        <ele>390.0</ele>
        <time>2020-11-01T12:39:33Z</time>
      </trkpt>
      <trkpt lat="43.258152" lon="-5.1328664">
        <ele>390.0</ele>
        <time>2020-11-01T12:39:34Z</time>
      </trkpt>
      <trkpt lat="43.258152" lon="-5.132852">
        <ele>389.0</ele>
        <time>2020-11-01T12:39:35Z</time>
      </trkpt>
      <trkpt lat="43.25815" lon="-5.1328373">
        <ele>389.0</ele>
        <time>2020-11-01T12:39:36Z</time>
      </trkpt>
      <trkpt lat="43.258144" lon="-5.132825">
        <ele>389.0</ele>
        <time>2020-11-01T12:39:37Z</time>
      </trkpt>
      <trkpt lat="43.258144" lon="-5.132813">
        <ele>389.0</ele>
        <time>2020-11-01T12:39:38Z</time>
      </trkpt>
      <trkpt lat="43.258137" lon="-5.1328006">
        <ele>389.0</ele>
        <time>2020-11-01T12:39:39Z</time>
      </trkpt>
      <trkpt lat="43.258133" lon="-5.1327887">
        <ele>388.0</ele>
        <time>2020-11-01T12:39:40Z</time>
      </trkpt>
      <trkpt lat="43.258133" lon="-5.132778">
        <ele>388.0</ele>
        <time>2020-11-01T12:39:41Z</time>
      </trkpt>
      <trkpt lat="43.25813" lon="-5.132769">
        <ele>388.0</ele>
        <time>2020-11-01T12:39:42Z</time>
      </trkpt>
      <trkpt lat="43.25812" lon="-5.132758">
        <ele>388.0</ele>
        <time>2020-11-01T12:39:44Z</time>
      </trkpt>
      <trkpt lat="43.258114" lon="-5.1327443">
        <ele>388.0</ele>
        <time>2020-11-01T12:39:44Z</time>
      </trkpt>
      <trkpt lat="43.258106" lon="-5.132729">
        <ele>387.0</ele>
        <time>2020-11-01T12:39:45Z</time>
      </trkpt>
      <trkpt lat="43.258095" lon="-5.1327147">
        <ele>387.0</ele>
        <time>2020-11-01T12:39:46Z</time>
      </trkpt>
      <trkpt lat="43.25809" lon="-5.1327043">
        <ele>387.0</ele>
        <time>2020-11-01T12:39:47Z</time>
      </trkpt>
      <trkpt lat="43.25808" lon="-5.1326933">
        <ele>387.0</ele>
        <time>2020-11-01T12:39:48Z</time>
      </trkpt>
      <trkpt lat="43.258076" lon="-5.1326804">
        <ele>387.0</ele>
        <time>2020-11-01T12:39:49Z</time>
      </trkpt>
      <trkpt lat="43.25807" lon="-5.1326656">
        <ele>386.0</ele>
        <time>2020-11-01T12:39:50Z</time>
      </trkpt>
      <trkpt lat="43.258064" lon="-5.1326528">
        <ele>386.0</ele>
        <time>2020-11-01T12:39:52Z</time>
      </trkpt>
      <trkpt lat="43.25806" lon="-5.132639">
        <ele>386.0</ele>
        <time>2020-11-01T12:39:52Z</time>
      </trkpt>
      <trkpt lat="43.25806" lon="-5.132625">
        <ele>386.0</ele>
        <time>2020-11-01T12:39:53Z</time>
      </trkpt>
      <trkpt lat="43.258057" lon="-5.1326137">
        <ele>386.0</ele>
        <time>2020-11-01T12:39:54Z</time>
      </trkpt>
      <trkpt lat="43.25805" lon="-5.1326027">
        <ele>386.0</ele>
        <time>2020-11-01T12:39:55Z</time>
      </trkpt>
      <trkpt lat="43.258045" lon="-5.1325912">
        <ele>385.0</ele>
        <time>2020-11-01T12:39:56Z</time>
      </trkpt>
      <trkpt lat="43.258045" lon="-5.1325784">
        <ele>385.0</ele>
        <time>2020-11-01T12:39:57Z</time>
      </trkpt>
      <trkpt lat="43.258045" lon="-5.132564">
        <ele>385.0</ele>
        <time>2020-11-01T12:39:58Z</time>
      </trkpt>
      <trkpt lat="43.25804" lon="-5.1325502">
        <ele>385.0</ele>
        <time>2020-11-01T12:39:59Z</time>
      </trkpt>
      <trkpt lat="43.258034" lon="-5.132539">
        <ele>385.0</ele>
        <time>2020-11-01T12:40:00Z</time>
      </trkpt>
      <trkpt lat="43.25803" lon="-5.132529">
        <ele>385.0</ele>
        <time>2020-11-01T12:40:01Z</time>
      </trkpt>
      <trkpt lat="43.258026" lon="-5.1325183">
        <ele>385.0</ele>
        <time>2020-11-01T12:40:02Z</time>
      </trkpt>
      <trkpt lat="43.258015" lon="-5.132511">
        <ele>385.0</ele>
        <time>2020-11-01T12:40:03Z</time>
      </trkpt>
      <trkpt lat="43.258003" lon="-5.132502">
        <ele>385.0</ele>
        <time>2020-11-01T12:40:04Z</time>
      </trkpt>
      <trkpt lat="43.258" lon="-5.132493">
        <ele>384.0</ele>
        <time>2020-11-01T12:40:05Z</time>
      </trkpt>
      <trkpt lat="43.257996" lon="-5.1324825">
        <ele>384.0</ele>
        <time>2020-11-01T12:40:07Z</time>
      </trkpt>
      <trkpt lat="43.257988" lon="-5.13247">
        <ele>384.0</ele>
        <time>2020-11-01T12:40:07Z</time>
      </trkpt>
      <trkpt lat="43.257988" lon="-5.1324563">
        <ele>384.0</ele>
        <time>2020-11-01T12:40:08Z</time>
      </trkpt>
      <trkpt lat="43.257984" lon="-5.1324415">
        <ele>384.0</ele>
        <time>2020-11-01T12:40:09Z</time>
      </trkpt>
      <trkpt lat="43.25798" lon="-5.13243">
        <ele>383.0</ele>
        <time>2020-11-01T12:40:10Z</time>
      </trkpt>
      <trkpt lat="43.257973" lon="-5.1324196">
        <ele>383.0</ele>
        <time>2020-11-01T12:40:11Z</time>
      </trkpt>
      <trkpt lat="43.25797" lon="-5.132411">
        <ele>383.0</ele>
        <time>2020-11-01T12:40:12Z</time>
      </trkpt>
      <trkpt lat="43.257965" lon="-5.1324015">
        <ele>383.0</ele>
        <time>2020-11-01T12:40:13Z</time>
      </trkpt>
      <trkpt lat="43.257957" lon="-5.1323924">
        <ele>383.0</ele>
        <time>2020-11-01T12:40:14Z</time>
      </trkpt>
      <trkpt lat="43.257954" lon="-5.132383">
        <ele>383.0</ele>
        <time>2020-11-01T12:40:15Z</time>
      </trkpt>
      <trkpt lat="43.25795" lon="-5.132372">
        <ele>383.0</ele>
        <time>2020-11-01T12:40:16Z</time>
      </trkpt>
      <trkpt lat="43.257942" lon="-5.132362">
        <ele>382.0</ele>
        <time>2020-11-01T12:40:17Z</time>
      </trkpt>
      <trkpt lat="43.25794" lon="-5.1323504">
        <ele>382.0</ele>
        <time>2020-11-01T12:40:18Z</time>
      </trkpt>
      <trkpt lat="43.257935" lon="-5.13234">
        <ele>382.0</ele>
        <time>2020-11-01T12:40:19Z</time>
      </trkpt>
      <trkpt lat="43.257923" lon="-5.1323333">
        <ele>382.0</ele>
        <time>2020-11-01T12:40:20Z</time>
      </trkpt>
      <trkpt lat="43.25792" lon="-5.1323285">
        <ele>381.0</ele>
        <time>2020-11-01T12:40:21Z</time>
      </trkpt>
      <trkpt lat="43.25791" lon="-5.132323">
        <ele>381.0</ele>
        <time>2020-11-01T12:40:22Z</time>
      </trkpt>
      <trkpt lat="43.257908" lon="-5.1323166">
        <ele>381.0</ele>
        <time>2020-11-01T12:40:23Z</time>
      </trkpt>
      <trkpt lat="43.2579" lon="-5.132309">
        <ele>381.0</ele>
        <time>2020-11-01T12:40:24Z</time>
      </trkpt>
      <trkpt lat="43.257896" lon="-5.1323">
        <ele>381.0</ele>
        <time>2020-11-01T12:40:25Z</time>
      </trkpt>
      <trkpt lat="43.257893" lon="-5.1322904">
        <ele>380.0</ele>
        <time>2020-11-01T12:40:26Z</time>
      </trkpt>
      <trkpt lat="43.257885" lon="-5.13228">
        <ele>380.0</ele>
        <time>2020-11-01T12:40:27Z</time>
      </trkpt>
      <trkpt lat="43.25788" lon="-5.1322694">
        <ele>380.0</ele>
        <time>2020-11-01T12:40:28Z</time>
      </trkpt>
      <trkpt lat="43.257877" lon="-5.132259">
        <ele>380.0</ele>
        <time>2020-11-01T12:40:30Z</time>
      </trkpt>
      <trkpt lat="43.25787" lon="-5.1322494">
        <ele>380.0</ele>
        <time>2020-11-01T12:40:30Z</time>
      </trkpt>
      <trkpt lat="43.257866" lon="-5.1322412">
        <ele>379.0</ele>
        <time>2020-11-01T12:40:31Z</time>
      </trkpt>
      <trkpt lat="43.257862" lon="-5.132232">
        <ele>379.0</ele>
        <time>2020-11-01T12:40:32Z</time>
      </trkpt>
      <trkpt lat="43.257854" lon="-5.132223">
        <ele>379.0</ele>
        <time>2020-11-01T12:40:33Z</time>
      </trkpt>
      <trkpt lat="43.257847" lon="-5.1322145">
        <ele>379.0</ele>
        <time>2020-11-01T12:40:34Z</time>
      </trkpt>
      <trkpt lat="43.25784" lon="-5.132205">
        <ele>379.0</ele>
        <time>2020-11-01T12:40:35Z</time>
      </trkpt>
      <trkpt lat="43.25783" lon="-5.1321964">
        <ele>379.0</ele>
        <time>2020-11-01T12:40:36Z</time>
      </trkpt>
      <trkpt lat="43.257824" lon="-5.1321864">
        <ele>378.0</ele>
        <time>2020-11-01T12:40:37Z</time>
      </trkpt>
      <trkpt lat="43.257816" lon="-5.1321764">
        <ele>378.0</ele>
        <time>2020-11-01T12:40:38Z</time>
      </trkpt>
      <trkpt lat="43.25781" lon="-5.132166">
        <ele>378.0</ele>
        <time>2020-11-01T12:40:39Z</time>
      </trkpt>
      <trkpt lat="43.257805" lon="-5.132155">
        <ele>378.0</ele>
        <time>2020-11-01T12:40:40Z</time>
      </trkpt>
      <trkpt lat="43.2578" lon="-5.1321445">
        <ele>378.0</ele>
        <time>2020-11-01T12:40:41Z</time>
      </trkpt>
      <trkpt lat="43.257793" lon="-5.132134">
        <ele>378.0</ele>
        <time>2020-11-01T12:40:43Z</time>
      </trkpt>
      <trkpt lat="43.25779" lon="-5.132125">
        <ele>378.0</ele>
        <time>2020-11-01T12:40:43Z</time>
      </trkpt>
      <trkpt lat="43.257786" lon="-5.132118">
        <ele>378.0</ele>
        <time>2020-11-01T12:40:44Z</time>
      </trkpt>
      <trkpt lat="43.257774" lon="-5.1321125">
        <ele>378.0</ele>
        <time>2020-11-01T12:40:45Z</time>
      </trkpt>
      <trkpt lat="43.25777" lon="-5.1321077">
        <ele>378.0</ele>
        <time>2020-11-01T12:40:46Z</time>
      </trkpt>
      <trkpt lat="43.25776" lon="-5.132101">
        <ele>377.0</ele>
        <time>2020-11-01T12:40:47Z</time>
      </trkpt>
      <trkpt lat="43.257755" lon="-5.1320944">
        <ele>377.0</ele>
        <time>2020-11-01T12:40:48Z</time>
      </trkpt>
      <trkpt lat="43.257744" lon="-5.132087">
        <ele>377.0</ele>
        <time>2020-11-01T12:40:49Z</time>
      </trkpt>
      <trkpt lat="43.25774" lon="-5.1320786">
        <ele>377.0</ele>
        <time>2020-11-01T12:40:51Z</time>
      </trkpt>
      <trkpt lat="43.257732" lon="-5.1320677">
        <ele>376.0</ele>
        <time>2020-11-01T12:40:51Z</time>
      </trkpt>
      <trkpt lat="43.257725" lon="-5.132055">
        <ele>376.0</ele>
        <time>2020-11-01T12:40:52Z</time>
      </trkpt>
      <trkpt lat="43.257717" lon="-5.1320434">
        <ele>376.0</ele>
        <time>2020-11-01T12:40:53Z</time>
      </trkpt>
      <trkpt lat="43.257706" lon="-5.1320295">
        <ele>376.0</ele>
        <time>2020-11-01T12:40:54Z</time>
      </trkpt>
      <trkpt lat="43.257698" lon="-5.132015">
        <ele>376.0</ele>
        <time>2020-11-01T12:40:55Z</time>
      </trkpt>
      <trkpt lat="43.257687" lon="-5.1319995">
        <ele>375.0</ele>
        <time>2020-11-01T12:40:56Z</time>
      </trkpt>
      <trkpt lat="43.257675" lon="-5.131981">
        <ele>375.0</ele>
        <time>2020-11-01T12:40:57Z</time>
      </trkpt>
      <trkpt lat="43.25767" lon="-5.1319647">
        <ele>375.0</ele>
        <time>2020-11-01T12:40:58Z</time>
      </trkpt>
      <trkpt lat="43.257668" lon="-5.1319513">
        <ele>375.0</ele>
        <time>2020-11-01T12:40:59Z</time>
      </trkpt>
      <trkpt lat="43.257656" lon="-5.1319404">
        <ele>374.0</ele>
        <time>2020-11-01T12:41:00Z</time>
      </trkpt>
      <trkpt lat="43.257652" lon="-5.131931">
        <ele>374.0</ele>
        <time>2020-11-01T12:41:01Z</time>
      </trkpt>
      <trkpt lat="43.25764" lon="-5.1319222">
        <ele>374.0</ele>
        <time>2020-11-01T12:41:02Z</time>
      </trkpt>
      <trkpt lat="43.257637" lon="-5.131914">
        <ele>374.0</ele>
        <time>2020-11-01T12:41:03Z</time>
      </trkpt>
      <trkpt lat="43.257626" lon="-5.1319075">
        <ele>374.0</ele>
        <time>2020-11-01T12:41:05Z</time>
      </trkpt>
      <trkpt lat="43.25762" lon="-5.131902">
        <ele>373.0</ele>
        <time>2020-11-01T12:41:05Z</time>
      </trkpt>
      <trkpt lat="43.25761" lon="-5.1318955">
        <ele>373.0</ele>
        <time>2020-11-01T12:41:06Z</time>
      </trkpt>
      <trkpt lat="43.257607" lon="-5.13189">
        <ele>373.0</ele>
        <time>2020-11-01T12:41:07Z</time>
      </trkpt>
      <trkpt lat="43.2576" lon="-5.1318836">
        <ele>373.0</ele>
        <time>2020-11-01T12:41:08Z</time>
      </trkpt>
      <trkpt lat="43.257595" lon="-5.131879">
        <ele>373.0</ele>
        <time>2020-11-01T12:41:09Z</time>
      </trkpt>
      <trkpt lat="43.25759" lon="-5.1318755">
        <ele>372.0</ele>
        <time>2020-11-01T12:41:10Z</time>
      </trkpt>
      <trkpt lat="43.257584" lon="-5.131871">
        <ele>372.0</ele>
        <time>2020-11-01T12:41:11Z</time>
      </trkpt>
      <trkpt lat="43.257576" lon="-5.1318684">
        <ele>372.0</ele>
        <time>2020-11-01T12:41:12Z</time>
      </trkpt>
      <trkpt lat="43.25757" lon="-5.1318655">
        <ele>372.0</ele>
        <time>2020-11-01T12:41:13Z</time>
      </trkpt>
      <trkpt lat="43.25756" lon="-5.1318626">
        <ele>372.0</ele>
        <time>2020-11-01T12:41:14Z</time>
      </trkpt>
      <trkpt lat="43.257553" lon="-5.1318583">
        <ele>372.0</ele>
        <time>2020-11-01T12:41:15Z</time>
      </trkpt>
      <trkpt lat="43.257545" lon="-5.1318517">
        <ele>372.0</ele>
        <time>2020-11-01T12:41:16Z</time>
      </trkpt>
      <trkpt lat="43.257538" lon="-5.131842">
        <ele>372.0</ele>
        <time>2020-11-01T12:41:17Z</time>
      </trkpt>
      <trkpt lat="43.25753" lon="-5.13183">
        <ele>372.0</ele>
        <time>2020-11-01T12:41:18Z</time>
      </trkpt>
      <trkpt lat="43.257523" lon="-5.1318183">
        <ele>372.0</ele>
        <time>2020-11-01T12:41:20Z</time>
      </trkpt>
      <trkpt lat="43.25752" lon="-5.131806">
        <ele>372.0</ele>
        <time>2020-11-01T12:41:20Z</time>
      </trkpt>
      <trkpt lat="43.25752" lon="-5.131792">
        <ele>371.0</ele>
        <time>2020-11-01T12:41:21Z</time>
      </trkpt>
      <trkpt lat="43.25752" lon="-5.131778">
        <ele>371.0</ele>
        <time>2020-11-01T12:41:22Z</time>
      </trkpt>
      <trkpt lat="43.25752" lon="-5.1317635">
        <ele>371.0</ele>
        <time>2020-11-01T12:41:23Z</time>
      </trkpt>
      <trkpt lat="43.25752" lon="-5.13175">
        <ele>371.0</ele>
        <time>2020-11-01T12:41:24Z</time>
      </trkpt>
      <trkpt lat="43.25752" lon="-5.1317387">
        <ele>371.0</ele>
        <time>2020-11-01T12:41:25Z</time>
      </trkpt>
      <trkpt lat="43.25751" lon="-5.131729">
        <ele>371.0</ele>
        <time>2020-11-01T12:41:26Z</time>
      </trkpt>
      <trkpt lat="43.25751" lon="-5.1317215">
        <ele>370.0</ele>
        <time>2020-11-01T12:41:28Z</time>
      </trkpt>
      <trkpt lat="43.25751" lon="-5.1317134">
        <ele>370.0</ele>
        <time>2020-11-01T12:41:28Z</time>
      </trkpt>
      <trkpt lat="43.257507" lon="-5.131703">
        <ele>370.0</ele>
        <time>2020-11-01T12:41:29Z</time>
      </trkpt>
      <trkpt lat="43.257504" lon="-5.131691">
        <ele>370.0</ele>
        <time>2020-11-01T12:41:30Z</time>
      </trkpt>
      <trkpt lat="43.257504" lon="-5.1316795">
        <ele>370.0</ele>
        <time>2020-11-01T12:41:31Z</time>
      </trkpt>
      <trkpt lat="43.257496" lon="-5.1316686">
        <ele>370.0</ele>
        <time>2020-11-01T12:41:32Z</time>
      </trkpt>
      <trkpt lat="43.25749" lon="-5.1316586">
        <ele>369.0</ele>
        <time>2020-11-01T12:41:33Z</time>
      </trkpt>
      <trkpt lat="43.25748" lon="-5.1316485">
        <ele>369.0</ele>
        <time>2020-11-01T12:41:34Z</time>
      </trkpt>
      <trkpt lat="43.257473" lon="-5.1316357">
        <ele>369.0</ele>
        <time>2020-11-01T12:41:35Z</time>
      </trkpt>
      <trkpt lat="43.25746" lon="-5.1316223">
        <ele>369.0</ele>
        <time>2020-11-01T12:41:36Z</time>
      </trkpt>
      <trkpt lat="43.257458" lon="-5.131611">
        <ele>369.0</ele>
        <time>2020-11-01T12:41:37Z</time>
      </trkpt>
      <trkpt lat="43.257446" lon="-5.1316013">
        <ele>368.0</ele>
        <time>2020-11-01T12:41:38Z</time>
      </trkpt>
      <trkpt lat="43.257442" lon="-5.131592">
        <ele>368.0</ele>
        <time>2020-11-01T12:41:39Z</time>
      </trkpt>
      <trkpt lat="43.257442" lon="-5.1315827">
        <ele>368.0</ele>
        <time>2020-11-01T12:41:41Z</time>
      </trkpt>
      <trkpt lat="43.257435" lon="-5.131574">
        <ele>368.0</ele>
        <time>2020-11-01T12:41:41Z</time>
      </trkpt>
      <trkpt lat="43.25743" lon="-5.1315656">
        <ele>368.0</ele>
        <time>2020-11-01T12:41:42Z</time>
      </trkpt>
      <trkpt lat="43.257427" lon="-5.1315575">
        <ele>367.0</ele>
        <time>2020-11-01T12:41:43Z</time>
      </trkpt>
      <trkpt lat="43.257427" lon="-5.1315475">
        <ele>367.0</ele>
        <time>2020-11-01T12:41:44Z</time>
      </trkpt>
      <trkpt lat="43.25742" lon="-5.131537">
        <ele>367.0</ele>
        <time>2020-11-01T12:41:45Z</time>
      </trkpt>
      <trkpt lat="43.25742" lon="-5.1315227">
        <ele>367.0</ele>
        <time>2020-11-01T12:41:46Z</time>
      </trkpt>
      <trkpt lat="43.25742" lon="-5.1315064">
        <ele>367.0</ele>
        <time>2020-11-01T12:41:47Z</time>
      </trkpt>
      <trkpt lat="43.25742" lon="-5.1314893">
        <ele>367.0</ele>
        <time>2020-11-01T12:41:48Z</time>
      </trkpt>
      <trkpt lat="43.25742" lon="-5.1314745">
        <ele>367.0</ele>
        <time>2020-11-01T12:41:49Z</time>
      </trkpt>
      <trkpt lat="43.257416" lon="-5.1314626">
        <ele>367.0</ele>
        <time>2020-11-01T12:41:50Z</time>
      </trkpt>
      <trkpt lat="43.257412" lon="-5.131427">
        <ele>367.0</ele>
        <time>2020-11-01T12:41:53Z</time>
      </trkpt>
      <trkpt lat="43.257412" lon="-5.131425">
        <ele>366.0</ele>
        <time>2020-11-01T12:41:54Z</time>
      </trkpt>
      <trkpt lat="43.257404" lon="-5.1314216">
        <ele>366.0</ele>
        <time>2020-11-01T12:41:55Z</time>
      </trkpt>
      <trkpt lat="43.2574" lon="-5.131415">
        <ele>366.0</ele>
        <time>2020-11-01T12:41:56Z</time>
      </trkpt>
      <trkpt lat="43.257397" lon="-5.1314054">
        <ele>366.0</ele>
        <time>2020-11-01T12:41:57Z</time>
      </trkpt>
      <trkpt lat="43.25739" lon="-5.1313934">
        <ele>366.0</ele>
        <time>2020-11-01T12:41:58Z</time>
      </trkpt>
      <trkpt lat="43.257385" lon="-5.1313796">
        <ele>366.0</ele>
        <time>2020-11-01T12:41:59Z</time>
      </trkpt>
      <trkpt lat="43.257385" lon="-5.131368">
        <ele>366.0</ele>
        <time>2020-11-01T12:42:00Z</time>
      </trkpt>
      <trkpt lat="43.25738" lon="-5.1313596">
        <ele>366.0</ele>
        <time>2020-11-01T12:42:01Z</time>
      </trkpt>
      <trkpt lat="43.257374" lon="-5.131353">
        <ele>365.0</ele>
        <time>2020-11-01T12:42:02Z</time>
      </trkpt>
      <trkpt lat="43.257374" lon="-5.1313453">
        <ele>365.0</ele>
        <time>2020-11-01T12:42:03Z</time>
      </trkpt>
      <trkpt lat="43.257374" lon="-5.1313353">
        <ele>365.0</ele>
        <time>2020-11-01T12:42:05Z</time>
      </trkpt>
      <trkpt lat="43.25737" lon="-5.131326">
        <ele>365.0</ele>
        <time>2020-11-01T12:42:05Z</time>
      </trkpt>
      <trkpt lat="43.25737" lon="-5.1313176">
        <ele>365.0</ele>
        <time>2020-11-01T12:42:06Z</time>
      </trkpt>
      <trkpt lat="43.257366" lon="-5.131309">
        <ele>365.0</ele>
        <time>2020-11-01T12:42:07Z</time>
      </trkpt>
      <trkpt lat="43.25736" lon="-5.131297">
        <ele>365.0</ele>
        <time>2020-11-01T12:42:08Z</time>
      </trkpt>
      <trkpt lat="43.25735" lon="-5.1312833">
        <ele>364.0</ele>
        <time>2020-11-01T12:42:09Z</time>
      </trkpt>
      <trkpt lat="43.25735" lon="-5.131273">
        <ele>364.0</ele>
        <time>2020-11-01T12:42:10Z</time>
      </trkpt>
      <trkpt lat="43.257343" lon="-5.1312623">
        <ele>364.0</ele>
        <time>2020-11-01T12:42:11Z</time>
      </trkpt>
      <trkpt lat="43.257336" lon="-5.1312513">
        <ele>364.0</ele>
        <time>2020-11-01T12:42:12Z</time>
      </trkpt>
      <trkpt lat="43.257336" lon="-5.131239">
        <ele>364.0</ele>
        <time>2020-11-01T12:42:13Z</time>
      </trkpt>
      <trkpt lat="43.257328" lon="-5.1312246">
        <ele>363.0</ele>
        <time>2020-11-01T12:42:14Z</time>
      </trkpt>
      <trkpt lat="43.257317" lon="-5.131165">
        <ele>363.0</ele>
        <time>2020-11-01T12:42:16Z</time>
      </trkpt>
      <trkpt lat="43.257317" lon="-5.1311617">
        <ele>363.0</ele>
        <time>2020-11-01T12:42:17Z</time>
      </trkpt>
      <trkpt lat="43.257313" lon="-5.1311555">
        <ele>363.0</ele>
        <time>2020-11-01T12:42:18Z</time>
      </trkpt>
      <trkpt lat="43.2573" lon="-5.1311474">
        <ele>362.0</ele>
        <time>2020-11-01T12:42:19Z</time>
      </trkpt>
      <trkpt lat="43.257298" lon="-5.1311393">
        <ele>362.0</ele>
        <time>2020-11-01T12:42:20Z</time>
      </trkpt>
      <trkpt lat="43.257294" lon="-5.1311307">
        <ele>362.0</ele>
        <time>2020-11-01T12:42:21Z</time>
      </trkpt>
      <trkpt lat="43.257286" lon="-5.131123">
        <ele>362.0</ele>
        <time>2020-11-01T12:42:22Z</time>
      </trkpt>
      <trkpt lat="43.257282" lon="-5.131115">
        <ele>361.0</ele>
        <time>2020-11-01T12:42:23Z</time>
      </trkpt>
      <trkpt lat="43.25728" lon="-5.1311054">
        <ele>361.0</ele>
        <time>2020-11-01T12:42:24Z</time>
      </trkpt>
      <trkpt lat="43.25727" lon="-5.1310954">
        <ele>361.0</ele>
        <time>2020-11-01T12:42:25Z</time>
      </trkpt>
      <trkpt lat="43.257263" lon="-5.131085">
        <ele>361.0</ele>
        <time>2020-11-01T12:42:26Z</time>
      </trkpt>
      <trkpt lat="43.257256" lon="-5.131074">
        <ele>360.0</ele>
        <time>2020-11-01T12:42:27Z</time>
      </trkpt>
      <trkpt lat="43.257248" lon="-5.131063">
        <ele>360.0</ele>
        <time>2020-11-01T12:42:28Z</time>
      </trkpt>
      <trkpt lat="43.25724" lon="-5.131053">
        <ele>360.0</ele>
        <time>2020-11-01T12:42:29Z</time>
      </trkpt>
      <trkpt lat="43.257233" lon="-5.1310453">
        <ele>360.0</ele>
        <time>2020-11-01T12:42:30Z</time>
      </trkpt>
      <trkpt lat="43.257225" lon="-5.131038">
        <ele>360.0</ele>
        <time>2020-11-01T12:42:31Z</time>
      </trkpt>
      <trkpt lat="43.257217" lon="-5.1310306">
        <ele>360.0</ele>
        <time>2020-11-01T12:42:32Z</time>
      </trkpt>
      <trkpt lat="43.25721" lon="-5.13102">
        <ele>360.0</ele>
        <time>2020-11-01T12:42:33Z</time>
      </trkpt>
      <trkpt lat="43.257202" lon="-5.13101">
        <ele>360.0</ele>
        <time>2020-11-01T12:42:34Z</time>
      </trkpt>
      <trkpt lat="43.257195" lon="-5.1309967">
        <ele>360.0</ele>
        <time>2020-11-01T12:42:35Z</time>
      </trkpt>
      <trkpt lat="43.25719" lon="-5.130982">
        <ele>360.0</ele>
        <time>2020-11-01T12:42:36Z</time>
      </trkpt>
      <trkpt lat="43.257187" lon="-5.130967">
        <ele>359.0</ele>
        <time>2020-11-01T12:42:37Z</time>
      </trkpt>
      <trkpt lat="43.25718" lon="-5.130954">
        <ele>359.0</ele>
        <time>2020-11-01T12:42:38Z</time>
      </trkpt>
      <trkpt lat="43.25718" lon="-5.130942">
        <ele>359.0</ele>
        <time>2020-11-01T12:42:39Z</time>
      </trkpt>
      <trkpt lat="43.257175" lon="-5.130932">
        <ele>359.0</ele>
        <time>2020-11-01T12:42:40Z</time>
      </trkpt>
      <trkpt lat="43.257175" lon="-5.1309214">
        <ele>359.0</ele>
        <time>2020-11-01T12:42:41Z</time>
      </trkpt>
      <trkpt lat="43.25717" lon="-5.1309123">
        <ele>359.0</ele>
        <time>2020-11-01T12:42:42Z</time>
      </trkpt>
      <trkpt lat="43.257164" lon="-5.1309032">
        <ele>358.0</ele>
        <time>2020-11-01T12:42:43Z</time>
      </trkpt>
      <trkpt lat="43.25716" lon="-5.1308947">
        <ele>358.0</ele>
        <time>2020-11-01T12:42:44Z</time>
      </trkpt>
      <trkpt lat="43.25716" lon="-5.130886">
        <ele>358.0</ele>
        <time>2020-11-01T12:42:45Z</time>
      </trkpt>
      <trkpt lat="43.257156" lon="-5.130875">
        <ele>358.0</ele>
        <time>2020-11-01T12:42:46Z</time>
      </trkpt>
      <trkpt lat="43.25715" lon="-5.1308594">
        <ele>358.0</ele>
        <time>2020-11-01T12:42:47Z</time>
      </trkpt>
      <trkpt lat="43.257145" lon="-5.130845">
        <ele>358.0</ele>
        <time>2020-11-01T12:42:48Z</time>
      </trkpt>
      <trkpt lat="43.257137" lon="-5.1308312">
        <ele>357.0</ele>
        <time>2020-11-01T12:42:49Z</time>
      </trkpt>
      <trkpt lat="43.257133" lon="-5.130817">
        <ele>357.0</ele>
        <time>2020-11-01T12:42:51Z</time>
      </trkpt>
      <trkpt lat="43.25713" lon="-5.130806">
        <ele>357.0</ele>
        <time>2020-11-01T12:42:51Z</time>
      </trkpt>
      <trkpt lat="43.25712" lon="-5.130798">
        <ele>357.0</ele>
        <time>2020-11-01T12:42:51Z</time>
      </trkpt>
      <trkpt lat="43.257114" lon="-5.1307917">
        <ele>357.0</ele>
        <time>2020-11-01T12:42:52Z</time>
      </trkpt>
      <trkpt lat="43.257107" lon="-5.1307864">
        <ele>357.0</ele>
        <time>2020-11-01T12:42:53Z</time>
      </trkpt>
      <trkpt lat="43.257103" lon="-5.1307817">
        <ele>357.0</ele>
        <time>2020-11-01T12:42:54Z</time>
      </trkpt>
      <trkpt lat="43.25709" lon="-5.130767">
        <ele>356.0</ele>
        <time>2020-11-01T12:42:56Z</time>
      </trkpt>
      <trkpt lat="43.25709" lon="-5.1307654">
        <ele>356.0</ele>
        <time>2020-11-01T12:42:59Z</time>
      </trkpt>
      <trkpt lat="43.25709" lon="-5.130766">
        <ele>356.0</ele>
        <time>2020-11-01T12:42:59Z</time>
      </trkpt>
      <trkpt lat="43.25709" lon="-5.130767">
        <ele>356.0</ele>
        <time>2020-11-01T12:43:00Z</time>
      </trkpt>
      <trkpt lat="43.25709" lon="-5.1307673">
        <ele>356.0</ele>
        <time>2020-11-01T12:43:01Z</time>
      </trkpt>
      <trkpt lat="43.25709" lon="-5.130767">
        <ele>356.0</ele>
        <time>2020-11-01T12:43:02Z</time>
      </trkpt>
      <trkpt lat="43.25709" lon="-5.130763">
        <ele>356.0</ele>
        <time>2020-11-01T12:43:03Z</time>
      </trkpt>
      <trkpt lat="43.257088" lon="-5.1307564">
        <ele>356.0</ele>
        <time>2020-11-01T12:43:04Z</time>
      </trkpt>
      <trkpt lat="43.257084" lon="-5.130747">
        <ele>356.0</ele>
        <time>2020-11-01T12:43:05Z</time>
      </trkpt>
      <trkpt lat="43.257076" lon="-5.130738">
        <ele>356.0</ele>
        <time>2020-11-01T12:43:06Z</time>
      </trkpt>
      <trkpt lat="43.257072" lon="-5.1307287">
        <ele>356.0</ele>
        <time>2020-11-01T12:43:07Z</time>
      </trkpt>
      <trkpt lat="43.25706" lon="-5.13072">
        <ele>356.0</ele>
        <time>2020-11-01T12:43:08Z</time>
      </trkpt>
      <trkpt lat="43.257057" lon="-5.1307116">
        <ele>356.0</ele>
        <time>2020-11-01T12:43:09Z</time>
      </trkpt>
      <trkpt lat="43.257053" lon="-5.1307034">
        <ele>356.0</ele>
        <time>2020-11-01T12:43:10Z</time>
      </trkpt>
      <trkpt lat="43.257046" lon="-5.130695">
        <ele>355.0</ele>
        <time>2020-11-01T12:43:11Z</time>
      </trkpt>
      <trkpt lat="43.257042" lon="-5.1306834">
        <ele>355.0</ele>
        <time>2020-11-01T12:43:12Z</time>
      </trkpt>
      <trkpt lat="43.25703" lon="-5.130672">
        <ele>355.0</ele>
        <time>2020-11-01T12:43:13Z</time>
      </trkpt>
      <trkpt lat="43.257027" lon="-5.130662">
        <ele>355.0</ele>
        <time>2020-11-01T12:43:14Z</time>
      </trkpt>
      <trkpt lat="43.257015" lon="-5.1306524">
        <ele>355.0</ele>
        <time>2020-11-01T12:43:15Z</time>
      </trkpt>
      <trkpt lat="43.25701" lon="-5.1306415">
        <ele>354.0</ele>
        <time>2020-11-01T12:43:16Z</time>
      </trkpt>
      <trkpt lat="43.257008" lon="-5.1306305">
        <ele>354.0</ele>
        <time>2020-11-01T12:43:17Z</time>
      </trkpt>
      <trkpt lat="43.256996" lon="-5.1306205">
        <ele>354.0</ele>
        <time>2020-11-01T12:43:18Z</time>
      </trkpt>
      <trkpt lat="43.256992" lon="-5.1306105">
        <ele>354.0</ele>
        <time>2020-11-01T12:43:19Z</time>
      </trkpt>
      <trkpt lat="43.25698" lon="-5.1306033">
        <ele>354.0</ele>
        <time>2020-11-01T12:43:20Z</time>
      </trkpt>
      <trkpt lat="43.25697" lon="-5.1305976">
        <ele>354.0</ele>
        <time>2020-11-01T12:43:21Z</time>
      </trkpt>
      <trkpt lat="43.25696" lon="-5.130591">
        <ele>354.0</ele>
        <time>2020-11-01T12:43:23Z</time>
      </trkpt>
      <trkpt lat="43.256954" lon="-5.1305833">
        <ele>354.0</ele>
        <time>2020-11-01T12:43:23Z</time>
      </trkpt>
      <trkpt lat="43.256943" lon="-5.130576">
        <ele>354.0</ele>
        <time>2020-11-01T12:43:24Z</time>
      </trkpt>
      <trkpt lat="43.25694" lon="-5.1305685">
        <ele>354.0</ele>
        <time>2020-11-01T12:43:25Z</time>
      </trkpt>
      <trkpt lat="43.256927" lon="-5.130558">
        <ele>354.0</ele>
        <time>2020-11-01T12:43:26Z</time>
      </trkpt>
      <trkpt lat="43.25692" lon="-5.130544">
        <ele>353.0</ele>
        <time>2020-11-01T12:43:27Z</time>
      </trkpt>
      <trkpt lat="43.25691" lon="-5.1305304">
        <ele>353.0</ele>
        <time>2020-11-01T12:43:28Z</time>
      </trkpt>
      <trkpt lat="43.256905" lon="-5.1305165">
        <ele>353.0</ele>
        <time>2020-11-01T12:43:29Z</time>
      </trkpt>
      <trkpt lat="43.256893" lon="-5.1305017">
        <ele>353.0</ele>
        <time>2020-11-01T12:43:30Z</time>
      </trkpt>
      <trkpt lat="43.25689" lon="-5.1304884">
        <ele>352.0</ele>
        <time>2020-11-01T12:43:31Z</time>
      </trkpt>
      <trkpt lat="43.25688" lon="-5.130475">
        <ele>352.0</ele>
        <time>2020-11-01T12:43:32Z</time>
      </trkpt>
      <trkpt lat="43.256878" lon="-5.130463">
        <ele>352.0</ele>
        <time>2020-11-01T12:43:33Z</time>
      </trkpt>
      <trkpt lat="43.256874" lon="-5.1304517">
        <ele>352.0</ele>
        <time>2020-11-01T12:43:35Z</time>
      </trkpt>
      <trkpt lat="43.256874" lon="-5.130439">
        <ele>352.0</ele>
        <time>2020-11-01T12:43:35Z</time>
      </trkpt>
      <trkpt lat="43.256866" lon="-5.1304255">
        <ele>351.0</ele>
        <time>2020-11-01T12:43:36Z</time>
      </trkpt>
      <trkpt lat="43.256863" lon="-5.130414">
        <ele>351.0</ele>
        <time>2020-11-01T12:43:37Z</time>
      </trkpt>
      <trkpt lat="43.25686" lon="-5.130405">
        <ele>351.0</ele>
        <time>2020-11-01T12:43:38Z</time>
      </trkpt>
      <trkpt lat="43.256847" lon="-5.1303973">
        <ele>351.0</ele>
        <time>2020-11-01T12:43:39Z</time>
      </trkpt>
      <trkpt lat="43.256836" lon="-5.1303883">
        <ele>351.0</ele>
        <time>2020-11-01T12:43:40Z</time>
      </trkpt>
      <trkpt lat="43.256832" lon="-5.130376">
        <ele>351.0</ele>
        <time>2020-11-01T12:43:41Z</time>
      </trkpt>
      <trkpt lat="43.25682" lon="-5.130362">
        <ele>350.0</ele>
        <time>2020-11-01T12:43:42Z</time>
      </trkpt>
      <trkpt lat="43.256817" lon="-5.1303487">
        <ele>350.0</ele>
        <time>2020-11-01T12:43:43Z</time>
      </trkpt>
      <trkpt lat="43.256805" lon="-5.130337">
        <ele>350.0</ele>
        <time>2020-11-01T12:43:44Z</time>
      </trkpt>
      <trkpt lat="43.2568" lon="-5.130328">
        <ele>350.0</ele>
        <time>2020-11-01T12:43:45Z</time>
      </trkpt>
      <trkpt lat="43.25679" lon="-5.1303186">
        <ele>350.0</ele>
        <time>2020-11-01T12:43:46Z</time>
      </trkpt>
      <trkpt lat="43.256786" lon="-5.1303105">
        <ele>349.0</ele>
        <time>2020-11-01T12:43:47Z</time>
      </trkpt>
      <trkpt lat="43.256783" lon="-5.130302">
        <ele>349.0</ele>
        <time>2020-11-01T12:43:48Z</time>
      </trkpt>
      <trkpt lat="43.25677" lon="-5.1302943">
        <ele>349.0</ele>
        <time>2020-11-01T12:43:49Z</time>
      </trkpt>
      <trkpt lat="43.256767" lon="-5.130287">
        <ele>349.0</ele>
        <time>2020-11-01T12:43:50Z</time>
      </trkpt>
      <trkpt lat="43.256756" lon="-5.13028">
        <ele>349.0</ele>
        <time>2020-11-01T12:43:51Z</time>
      </trkpt>
      <trkpt lat="43.25675" lon="-5.130272">
        <ele>348.0</ele>
        <time>2020-11-01T12:43:52Z</time>
      </trkpt>
      <trkpt lat="43.256744" lon="-5.1302633">
        <ele>348.0</ele>
        <time>2020-11-01T12:43:53Z</time>
      </trkpt>
      <trkpt lat="43.256733" lon="-5.1302533">
        <ele>348.0</ele>
        <time>2020-11-01T12:43:54Z</time>
      </trkpt>
      <trkpt lat="43.25673" lon="-5.130244">
        <ele>348.0</ele>
        <time>2020-11-01T12:43:55Z</time>
      </trkpt>
      <trkpt lat="43.256725" lon="-5.130234">
        <ele>348.0</ele>
        <time>2020-11-01T12:43:56Z</time>
      </trkpt>
      <trkpt lat="43.256718" lon="-5.1302238">
        <ele>348.0</ele>
        <time>2020-11-01T12:43:57Z</time>
      </trkpt>
      <trkpt lat="43.256714" lon="-5.1302123">
        <ele>348.0</ele>
        <time>2020-11-01T12:43:58Z</time>
      </trkpt>
      <trkpt lat="43.25671" lon="-5.130203">
        <ele>348.0</ele>
        <time>2020-11-01T12:43:59Z</time>
      </trkpt>
      <trkpt lat="43.2567" lon="-5.130193">
        <ele>348.0</ele>
        <time>2020-11-01T12:44:00Z</time>
      </trkpt>
      <trkpt lat="43.256687" lon="-5.1301847">
        <ele>348.0</ele>
        <time>2020-11-01T12:44:01Z</time>
      </trkpt>
      <trkpt lat="43.25668" lon="-5.130178">
        <ele>348.0</ele>
        <time>2020-11-01T12:44:02Z</time>
      </trkpt>
      <trkpt lat="43.25667" lon="-5.1301713">
        <ele>347.0</ele>
        <time>2020-11-01T12:44:03Z</time>
      </trkpt>
      <trkpt lat="43.256668" lon="-5.1301665">
        <ele>347.0</ele>
        <time>2020-11-01T12:44:04Z</time>
      </trkpt>
      <trkpt lat="43.256657" lon="-5.1301622">
        <ele>347.0</ele>
        <time>2020-11-01T12:44:06Z</time>
      </trkpt>
      <trkpt lat="43.256653" lon="-5.130158">
        <ele>347.0</ele>
        <time>2020-11-01T12:44:06Z</time>
      </trkpt>
      <trkpt lat="43.25665" lon="-5.130151">
        <ele>347.0</ele>
        <time>2020-11-01T12:44:07Z</time>
      </trkpt>
      <trkpt lat="43.25664" lon="-5.1301384">
        <ele>347.0</ele>
        <time>2020-11-01T12:44:08Z</time>
      </trkpt>
      <trkpt lat="43.256638" lon="-5.130125">
        <ele>346.0</ele>
        <time>2020-11-01T12:44:09Z</time>
      </trkpt>
      <trkpt lat="43.256634" lon="-5.130112">
        <ele>346.0</ele>
        <time>2020-11-01T12:44:10Z</time>
      </trkpt>
      <trkpt lat="43.256622" lon="-5.1301007">
        <ele>346.0</ele>
        <time>2020-11-01T12:44:11Z</time>
      </trkpt>
      <trkpt lat="43.25662" lon="-5.1300898">
        <ele>346.0</ele>
        <time>2020-11-01T12:44:12Z</time>
      </trkpt>
      <trkpt lat="43.25661" lon="-5.1300793">
        <ele>346.0</ele>
        <time>2020-11-01T12:44:13Z</time>
      </trkpt>
      <trkpt lat="43.256607" lon="-5.130069">
        <ele>346.0</ele>
        <time>2020-11-01T12:44:14Z</time>
      </trkpt>
      <trkpt lat="43.256603" lon="-5.1300607">
        <ele>346.0</ele>
        <time>2020-11-01T12:44:15Z</time>
      </trkpt>
      <trkpt lat="43.25659" lon="-5.1300406">
        <ele>345.0</ele>
        <time>2020-11-01T12:44:17Z</time>
      </trkpt>
      <trkpt lat="43.25659" lon="-5.1300373">
        <ele>345.0</ele>
        <time>2020-11-01T12:44:18Z</time>
      </trkpt>
      <trkpt lat="43.25659" lon="-5.130032">
        <ele>345.0</ele>
        <time>2020-11-01T12:44:19Z</time>
      </trkpt>
      <trkpt lat="43.256588" lon="-5.1300244">
        <ele>345.0</ele>
        <time>2020-11-01T12:44:20Z</time>
      </trkpt>
      <trkpt lat="43.256588" lon="-5.130017">
        <ele>345.0</ele>
        <time>2020-11-01T12:44:21Z</time>
      </trkpt>
      <trkpt lat="43.25658" lon="-5.130009">
        <ele>345.0</ele>
        <time>2020-11-01T12:44:22Z</time>
      </trkpt>
      <trkpt lat="43.256577" lon="-5.130002">
        <ele>345.0</ele>
        <time>2020-11-01T12:44:23Z</time>
      </trkpt>
      <trkpt lat="43.256577" lon="-5.1299934">
        <ele>345.0</ele>
        <time>2020-11-01T12:44:24Z</time>
      </trkpt>
      <trkpt lat="43.256573" lon="-5.129984">
        <ele>345.0</ele>
        <time>2020-11-01T12:44:25Z</time>
      </trkpt>
      <trkpt lat="43.256565" lon="-5.129975">
        <ele>345.0</ele>
        <time>2020-11-01T12:44:26Z</time>
      </trkpt>
      <trkpt lat="43.25656" lon="-5.129968">
        <ele>344.0</ele>
        <time>2020-11-01T12:44:27Z</time>
      </trkpt>
      <trkpt lat="43.256554" lon="-5.129959">
        <ele>344.0</ele>
        <time>2020-11-01T12:44:28Z</time>
      </trkpt>
      <trkpt lat="43.25655" lon="-5.129948">
        <ele>344.0</ele>
        <time>2020-11-01T12:44:30Z</time>
      </trkpt>
      <trkpt lat="43.25655" lon="-5.129936">
        <ele>344.0</ele>
        <time>2020-11-01T12:44:30Z</time>
      </trkpt>
      <trkpt lat="43.25654" lon="-5.129925">
        <ele>344.0</ele>
        <time>2020-11-01T12:44:31Z</time>
      </trkpt>
      <trkpt lat="43.256535" lon="-5.129913">
        <ele>343.0</ele>
        <time>2020-11-01T12:44:32Z</time>
      </trkpt>
      <trkpt lat="43.25653" lon="-5.1299">
        <ele>343.0</ele>
        <time>2020-11-01T12:44:33Z</time>
      </trkpt>
      <trkpt lat="43.256523" lon="-5.1298866">
        <ele>343.0</ele>
        <time>2020-11-01T12:44:34Z</time>
      </trkpt>
      <trkpt lat="43.25652" lon="-5.129873">
        <ele>343.0</ele>
        <time>2020-11-01T12:44:35Z</time>
      </trkpt>
      <trkpt lat="43.256508" lon="-5.1298614">
        <ele>343.0</ele>
        <time>2020-11-01T12:44:36Z</time>
      </trkpt>
      <trkpt lat="43.2565" lon="-5.129853">
        <ele>343.0</ele>
        <time>2020-11-01T12:44:37Z</time>
      </trkpt>
      <trkpt lat="43.25649" lon="-5.1298485">
        <ele>342.0</ele>
        <time>2020-11-01T12:44:38Z</time>
      </trkpt>
      <trkpt lat="43.256485" lon="-5.1298466">
        <ele>342.0</ele>
        <time>2020-11-01T12:44:39Z</time>
      </trkpt>
      <trkpt lat="43.256474" lon="-5.1298447">
        <ele>342.0</ele>
        <time>2020-11-01T12:44:40Z</time>
      </trkpt>
      <trkpt lat="43.25647" lon="-5.129842">
        <ele>342.0</ele>
        <time>2020-11-01T12:44:41Z</time>
      </trkpt>
      <trkpt lat="43.25647" lon="-5.1298337">
        <ele>342.0</ele>
        <time>2020-11-01T12:44:42Z</time>
      </trkpt>
      <trkpt lat="43.256462" lon="-5.129825">
        <ele>342.0</ele>
        <time>2020-11-01T12:44:43Z</time>
      </trkpt>
      <trkpt lat="43.256454" lon="-5.12982">
        <ele>342.0</ele>
        <time>2020-11-01T12:44:44Z</time>
      </trkpt>
      <trkpt lat="43.256443" lon="-5.129822">
        <ele>342.0</ele>
        <time>2020-11-01T12:44:45Z</time>
      </trkpt>
      <trkpt lat="43.25643" lon="-5.1298213">
        <ele>342.0</ele>
        <time>2020-11-01T12:44:46Z</time>
      </trkpt>
      <trkpt lat="43.256424" lon="-5.129823">
        <ele>342.0</ele>
        <time>2020-11-01T12:44:47Z</time>
      </trkpt>
      <trkpt lat="43.256416" lon="-5.129826">
        <ele>342.0</ele>
        <time>2020-11-01T12:44:48Z</time>
      </trkpt>
      <trkpt lat="43.256416" lon="-5.1298327">
        <ele>342.0</ele>
        <time>2020-11-01T12:44:49Z</time>
      </trkpt>
      <trkpt lat="43.256416" lon="-5.129842">
        <ele>342.0</ele>
        <time>2020-11-01T12:44:51Z</time>
      </trkpt>
      <trkpt lat="43.256424" lon="-5.12985">
        <ele>342.0</ele>
        <time>2020-11-01T12:44:51Z</time>
      </trkpt>
      <trkpt lat="43.256424" lon="-5.129859">
        <ele>341.0</ele>
        <time>2020-11-01T12:44:52Z</time>
      </trkpt>
      <trkpt lat="43.256428" lon="-5.129871">
        <ele>341.0</ele>
        <time>2020-11-01T12:44:53Z</time>
      </trkpt>
      <trkpt lat="43.25643" lon="-5.129882">
        <ele>341.0</ele>
        <time>2020-11-01T12:44:54Z</time>
      </trkpt>
      <trkpt lat="43.25643" lon="-5.1298914">
        <ele>341.0</ele>
        <time>2020-11-01T12:44:55Z</time>
      </trkpt>
      <trkpt lat="43.25644" lon="-5.1299005">
        <ele>341.0</ele>
        <time>2020-11-01T12:44:56Z</time>
      </trkpt>
      <trkpt lat="43.25644" lon="-5.1299057">
        <ele>340.0</ele>
        <time>2020-11-01T12:44:57Z</time>
      </trkpt>
      <trkpt lat="43.256443" lon="-5.129913">
        <ele>340.0</ele>
        <time>2020-11-01T12:44:59Z</time>
      </trkpt>
      <trkpt lat="43.256443" lon="-5.1299214">
        <ele>340.0</ele>
        <time>2020-11-01T12:44:59Z</time>
      </trkpt>
      <trkpt lat="43.256447" lon="-5.129927">
        <ele>340.0</ele>
        <time>2020-11-01T12:45:00Z</time>
      </trkpt>
      <trkpt lat="43.256454" lon="-5.1299334">
        <ele>340.0</ele>
        <time>2020-11-01T12:45:01Z</time>
      </trkpt>
      <trkpt lat="43.25646" lon="-5.12994">
        <ele>340.0</ele>
        <time>2020-11-01T12:45:02Z</time>
      </trkpt>
      <trkpt lat="43.25646" lon="-5.1299486">
        <ele>339.0</ele>
        <time>2020-11-01T12:45:03Z</time>
      </trkpt>
      <trkpt lat="43.25646" lon="-5.1299562">
        <ele>339.0</ele>
        <time>2020-11-01T12:45:04Z</time>
      </trkpt>
      <trkpt lat="43.25646" lon="-5.1299624">
        <ele>339.0</ele>
        <time>2020-11-01T12:45:05Z</time>
      </trkpt>
      <trkpt lat="43.256462" lon="-5.129967">
        <ele>339.0</ele>
        <time>2020-11-01T12:45:06Z</time>
      </trkpt>
      <trkpt lat="43.25647" lon="-5.1299825">
        <ele>339.0</ele>
        <time>2020-11-01T12:45:08Z</time>
      </trkpt>
      <trkpt lat="43.25647" lon="-5.129984">
        <ele>339.0</ele>
        <time>2020-11-01T12:45:09Z</time>
      </trkpt>
      <trkpt lat="43.256462" lon="-5.1299872">
        <ele>339.0</ele>
        <time>2020-11-01T12:45:10Z</time>
      </trkpt>
      <trkpt lat="43.25646" lon="-5.1299915">
        <ele>339.0</ele>
        <time>2020-11-01T12:45:11Z</time>
      </trkpt>
      <trkpt lat="43.256454" lon="-5.129998">
        <ele>339.0</ele>
        <time>2020-11-01T12:45:12Z</time>
      </trkpt>
      <trkpt lat="43.256447" lon="-5.1300073">
        <ele>338.0</ele>
        <time>2020-11-01T12:45:13Z</time>
      </trkpt>
      <trkpt lat="43.256447" lon="-5.130017">
        <ele>338.0</ele>
        <time>2020-11-01T12:45:15Z</time>
      </trkpt>
      <trkpt lat="43.256447" lon="-5.130028">
        <ele>338.0</ele>
        <time>2020-11-01T12:45:15Z</time>
      </trkpt>
      <trkpt lat="43.256443" lon="-5.130039">
        <ele>338.0</ele>
        <time>2020-11-01T12:45:16Z</time>
      </trkpt>
      <trkpt lat="43.256443" lon="-5.130054">
        <ele>338.0</ele>
        <time>2020-11-01T12:45:17Z</time>
      </trkpt>
      <trkpt lat="43.25644" lon="-5.1300683">
        <ele>338.0</ele>
        <time>2020-11-01T12:45:18Z</time>
      </trkpt>
      <trkpt lat="43.25644" lon="-5.1300807">
        <ele>338.0</ele>
        <time>2020-11-01T12:45:19Z</time>
      </trkpt>
      <trkpt lat="43.25644" lon="-5.1300907">
        <ele>338.0</ele>
        <time>2020-11-01T12:45:20Z</time>
      </trkpt>
      <trkpt lat="43.25643" lon="-5.1301003">
        <ele>338.0</ele>
        <time>2020-11-01T12:45:21Z</time>
      </trkpt>
      <trkpt lat="43.25643" lon="-5.1301093">
        <ele>338.0</ele>
        <time>2020-11-01T12:45:22Z</time>
      </trkpt>
      <trkpt lat="43.25643" lon="-5.130118">
        <ele>337.0</ele>
        <time>2020-11-01T12:45:23Z</time>
      </trkpt>
      <trkpt lat="43.25643" lon="-5.130127">
        <ele>337.0</ele>
        <time>2020-11-01T12:45:24Z</time>
      </trkpt>
      <trkpt lat="43.25643" lon="-5.1301384">
        <ele>337.0</ele>
        <time>2020-11-01T12:45:25Z</time>
      </trkpt>
      <trkpt lat="43.25643" lon="-5.1301517">
        <ele>337.0</ele>
        <time>2020-11-01T12:45:26Z</time>
      </trkpt>
      <trkpt lat="43.25644" lon="-5.1301646">
        <ele>337.0</ele>
        <time>2020-11-01T12:45:27Z</time>
      </trkpt>
      <trkpt lat="43.25644" lon="-5.1301756">
        <ele>337.0</ele>
        <time>2020-11-01T12:45:28Z</time>
      </trkpt>
      <trkpt lat="43.25644" lon="-5.130186">
        <ele>337.0</ele>
        <time>2020-11-01T12:45:30Z</time>
      </trkpt>
      <trkpt lat="43.256443" lon="-5.1301956">
        <ele>337.0</ele>
        <time>2020-11-01T12:45:30Z</time>
      </trkpt>
      <trkpt lat="43.256443" lon="-5.130206">
        <ele>337.0</ele>
        <time>2020-11-01T12:45:31Z</time>
      </trkpt>
      <trkpt lat="43.256443" lon="-5.130217">
        <ele>337.0</ele>
        <time>2020-11-01T12:45:32Z</time>
      </trkpt>
      <trkpt lat="43.256447" lon="-5.130228">
        <ele>337.0</ele>
        <time>2020-11-01T12:45:33Z</time>
      </trkpt>
      <trkpt lat="43.256454" lon="-5.1302395">
        <ele>337.0</ele>
        <time>2020-11-01T12:45:34Z</time>
      </trkpt>
      <trkpt lat="43.256454" lon="-5.130252">
        <ele>337.0</ele>
        <time>2020-11-01T12:45:36Z</time>
      </trkpt>
      <trkpt lat="43.25646" lon="-5.1302648">
        <ele>336.0</ele>
        <time>2020-11-01T12:45:36Z</time>
      </trkpt>
      <trkpt lat="43.256462" lon="-5.130277">
        <ele>336.0</ele>
        <time>2020-11-01T12:45:37Z</time>
      </trkpt>
      <trkpt lat="43.256462" lon="-5.13029">
        <ele>336.0</ele>
        <time>2020-11-01T12:45:38Z</time>
      </trkpt>
      <trkpt lat="43.25647" lon="-5.1303034">
        <ele>336.0</ele>
        <time>2020-11-01T12:45:39Z</time>
      </trkpt>
      <trkpt lat="43.256474" lon="-5.130317">
        <ele>336.0</ele>
        <time>2020-11-01T12:45:40Z</time>
      </trkpt>
      <trkpt lat="43.256474" lon="-5.1303315">
        <ele>336.0</ele>
        <time>2020-11-01T12:45:41Z</time>
      </trkpt>
      <trkpt lat="43.256474" lon="-5.130346">
        <ele>336.0</ele>
        <time>2020-11-01T12:45:42Z</time>
      </trkpt>
      <trkpt lat="43.256477" lon="-5.1303596">
        <ele>336.0</ele>
        <time>2020-11-01T12:45:43Z</time>
      </trkpt>
      <trkpt lat="43.256477" lon="-5.130374">
        <ele>336.0</ele>
        <time>2020-11-01T12:45:44Z</time>
      </trkpt>
      <trkpt lat="43.256485" lon="-5.1303873">
        <ele>336.0</ele>
        <time>2020-11-01T12:45:45Z</time>
      </trkpt>
      <trkpt lat="43.25649" lon="-5.1304016">
        <ele>336.0</ele>
        <time>2020-11-01T12:45:46Z</time>
      </trkpt>
      <trkpt lat="43.256493" lon="-5.130418">
        <ele>335.0</ele>
        <time>2020-11-01T12:45:47Z</time>
      </trkpt>
      <trkpt lat="43.2565" lon="-5.1304326">
        <ele>335.0</ele>
        <time>2020-11-01T12:45:48Z</time>
      </trkpt>
      <trkpt lat="43.256508" lon="-5.1304455">
        <ele>335.0</ele>
        <time>2020-11-01T12:45:49Z</time>
      </trkpt>
      <trkpt lat="43.256508" lon="-5.1304584">
        <ele>335.0</ele>
        <time>2020-11-01T12:45:51Z</time>
      </trkpt>
      <trkpt lat="43.256508" lon="-5.130471">
        <ele>335.0</ele>
        <time>2020-11-01T12:45:51Z</time>
      </trkpt>
      <trkpt lat="43.256516" lon="-5.1304836">
        <ele>335.0</ele>
        <time>2020-11-01T12:45:52Z</time>
      </trkpt>
      <trkpt lat="43.25652" lon="-5.1304965">
        <ele>334.0</ele>
        <time>2020-11-01T12:45:53Z</time>
      </trkpt>
      <trkpt lat="43.25652" lon="-5.130511">
        <ele>334.0</ele>
        <time>2020-11-01T12:45:54Z</time>
      </trkpt>
      <trkpt lat="43.25652" lon="-5.1305256">
        <ele>334.0</ele>
        <time>2020-11-01T12:45:55Z</time>
      </trkpt>
      <trkpt lat="43.256523" lon="-5.1305404">
        <ele>334.0</ele>
        <time>2020-11-01T12:45:56Z</time>
      </trkpt>
      <trkpt lat="43.256523" lon="-5.1305532">
        <ele>334.0</ele>
        <time>2020-11-01T12:45:57Z</time>
      </trkpt>
      <trkpt lat="43.256523" lon="-5.130566">
        <ele>334.0</ele>
        <time>2020-11-01T12:45:58Z</time>
      </trkpt>
      <trkpt lat="43.25653" lon="-5.1305795">
        <ele>333.0</ele>
        <time>2020-11-01T12:45:59Z</time>
      </trkpt>
      <trkpt lat="43.25653" lon="-5.130595">
        <ele>333.0</ele>
        <time>2020-11-01T12:46:00Z</time>
      </trkpt>
      <trkpt lat="43.256535" lon="-5.1306095">
        <ele>333.0</ele>
        <time>2020-11-01T12:46:01Z</time>
      </trkpt>
      <trkpt lat="43.256535" lon="-5.1306214">
        <ele>333.0</ele>
        <time>2020-11-01T12:46:02Z</time>
      </trkpt>
      <trkpt lat="43.25654" lon="-5.130632">
        <ele>333.0</ele>
        <time>2020-11-01T12:46:03Z</time>
      </trkpt>
      <trkpt lat="43.25654" lon="-5.1306415">
        <ele>333.0</ele>
        <time>2020-11-01T12:46:04Z</time>
      </trkpt>
      <trkpt lat="43.25654" lon="-5.130649">
        <ele>333.0</ele>
        <time>2020-11-01T12:46:06Z</time>
      </trkpt>
      <trkpt lat="43.25654" lon="-5.130657">
        <ele>333.0</ele>
        <time>2020-11-01T12:46:06Z</time>
      </trkpt>
      <trkpt lat="43.256546" lon="-5.1306787">
        <ele>333.0</ele>
        <time>2020-11-01T12:46:08Z</time>
      </trkpt>
      <trkpt lat="43.256546" lon="-5.1306787">
        <ele>333.0</ele>
        <time>2020-11-01T12:46:09Z</time>
      </trkpt>
      <trkpt lat="43.25654" lon="-5.130679">
        <ele>333.0</ele>
        <time>2020-11-01T12:46:10Z</time>
      </trkpt>
      <trkpt lat="43.256535" lon="-5.1306815">
        <ele>332.0</ele>
        <time>2020-11-01T12:46:11Z</time>
      </trkpt>
      <trkpt lat="43.25653" lon="-5.130683">
        <ele>332.0</ele>
        <time>2020-11-01T12:46:12Z</time>
      </trkpt>
      <trkpt lat="43.25652" lon="-5.130684">
        <ele>332.0</ele>
        <time>2020-11-01T12:46:13Z</time>
      </trkpt>
      <trkpt lat="43.256516" lon="-5.1306825">
        <ele>332.0</ele>
        <time>2020-11-01T12:46:14Z</time>
      </trkpt>
      <trkpt lat="43.256508" lon="-5.1306815">
        <ele>332.0</ele>
        <time>2020-11-01T12:46:15Z</time>
      </trkpt>
      <trkpt lat="43.256504" lon="-5.130681">
        <ele>332.0</ele>
        <time>2020-11-01T12:46:16Z</time>
      </trkpt>
      <trkpt lat="43.2565" lon="-5.130678">
        <ele>331.0</ele>
        <time>2020-11-01T12:46:17Z</time>
      </trkpt>
      <trkpt lat="43.25649" lon="-5.130677">
        <ele>331.0</ele>
        <time>2020-11-01T12:46:18Z</time>
      </trkpt>
      <trkpt lat="43.256485" lon="-5.1306763">
        <ele>331.0</ele>
        <time>2020-11-01T12:46:19Z</time>
      </trkpt>
      <trkpt lat="43.256474" lon="-5.1306734">
        <ele>331.0</ele>
        <time>2020-11-01T12:46:20Z</time>
      </trkpt>
      <trkpt lat="43.256462" lon="-5.1306696">
        <ele>331.0</ele>
        <time>2020-11-01T12:46:22Z</time>
      </trkpt>
      <trkpt lat="43.25646" lon="-5.130667">
        <ele>331.0</ele>
        <time>2020-11-01T12:46:22Z</time>
      </trkpt>
      <trkpt lat="43.256454" lon="-5.1306667">
        <ele>331.0</ele>
        <time>2020-11-01T12:46:23Z</time>
      </trkpt>
      <trkpt lat="43.256443" lon="-5.1306667">
        <ele>331.0</ele>
        <time>2020-11-01T12:46:24Z</time>
      </trkpt>
      <trkpt lat="43.25644" lon="-5.130665">
        <ele>330.0</ele>
        <time>2020-11-01T12:46:25Z</time>
      </trkpt>
      <trkpt lat="43.25643" lon="-5.13066">
        <ele>330.0</ele>
        <time>2020-11-01T12:46:26Z</time>
      </trkpt>
      <trkpt lat="43.256428" lon="-5.1306553">
        <ele>330.0</ele>
        <time>2020-11-01T12:46:27Z</time>
      </trkpt>
      <trkpt lat="43.256424" lon="-5.1306505">
        <ele>330.0</ele>
        <time>2020-11-01T12:46:28Z</time>
      </trkpt>
      <trkpt lat="43.256416" lon="-5.1306434">
        <ele>329.0</ele>
        <time>2020-11-01T12:46:30Z</time>
      </trkpt>
      <trkpt lat="43.25641" lon="-5.1306367">
        <ele>329.0</ele>
        <time>2020-11-01T12:46:30Z</time>
      </trkpt>
      <trkpt lat="43.2564" lon="-5.1306305">
        <ele>329.0</ele>
        <time>2020-11-01T12:46:31Z</time>
      </trkpt>
      <trkpt lat="43.256393" lon="-5.130625">
        <ele>329.0</ele>
        <time>2020-11-01T12:46:32Z</time>
      </trkpt>
      <trkpt lat="43.256393" lon="-5.1306205">
        <ele>329.0</ele>
        <time>2020-11-01T12:46:33Z</time>
      </trkpt>
      <trkpt lat="43.256386" lon="-5.130618">
        <ele>329.0</ele>
        <time>2020-11-01T12:46:34Z</time>
      </trkpt>
      <trkpt lat="43.25625" lon="-5.1304135">
        <ele>324.0</ele>
        <time>2020-11-01T12:48:09Z</time>
      </trkpt>
      <trkpt lat="43.25625" lon="-5.130411">
        <ele>324.0</ele>
        <time>2020-11-01T12:48:10Z</time>
      </trkpt>
      <trkpt lat="43.25625" lon="-5.130409">
        <ele>324.0</ele>
        <time>2020-11-01T12:48:11Z</time>
      </trkpt>
      <trkpt lat="43.256237" lon="-5.1304054">
        <ele>324.0</ele>
        <time>2020-11-01T12:48:12Z</time>
      </trkpt>
      <trkpt lat="43.256233" lon="-5.130402">
        <ele>324.0</ele>
        <time>2020-11-01T12:48:13Z</time>
      </trkpt>
      <trkpt lat="43.256214" lon="-5.1303854">
        <ele>324.0</ele>
        <time>2020-11-01T12:48:15Z</time>
      </trkpt>
      <trkpt lat="43.256218" lon="-5.1303926">
        <ele>324.0</ele>
        <time>2020-11-01T12:48:21Z</time>
      </trkpt>
      <trkpt lat="43.256218" lon="-5.1303926">
        <ele>324.0</ele>
        <time>2020-11-01T12:48:23Z</time>
      </trkpt>
      <trkpt lat="43.256214" lon="-5.1303873">
        <ele>324.0</ele>
        <time>2020-11-01T12:48:25Z</time>
      </trkpt>
      <trkpt lat="43.256214" lon="-5.1303864">
        <ele>324.0</ele>
        <time>2020-11-01T12:48:26Z</time>
      </trkpt>
      <trkpt lat="43.256207" lon="-5.1303835">
        <ele>324.0</ele>
        <time>2020-11-01T12:48:27Z</time>
      </trkpt>
      <trkpt lat="43.256203" lon="-5.1303806">
        <ele>324.0</ele>
        <time>2020-11-01T12:48:28Z</time>
      </trkpt>
      <trkpt lat="43.2562" lon="-5.1303773">
        <ele>323.0</ele>
        <time>2020-11-01T12:48:29Z</time>
      </trkpt>
      <trkpt lat="43.25619" lon="-5.130372">
        <ele>323.0</ele>
        <time>2020-11-01T12:48:30Z</time>
      </trkpt>
      <trkpt lat="43.25619" lon="-5.130365">
        <ele>323.0</ele>
        <time>2020-11-01T12:48:31Z</time>
      </trkpt>
      <trkpt lat="43.256187" lon="-5.1303577">
        <ele>323.0</ele>
        <time>2020-11-01T12:48:32Z</time>
      </trkpt>
      <trkpt lat="43.256184" lon="-5.1303496">
        <ele>323.0</ele>
        <time>2020-11-01T12:48:33Z</time>
      </trkpt>
      <trkpt lat="43.256176" lon="-5.130343">
        <ele>322.0</ele>
        <time>2020-11-01T12:48:34Z</time>
      </trkpt>
      <trkpt lat="43.256165" lon="-5.1303368">
        <ele>322.0</ele>
        <time>2020-11-01T12:48:35Z</time>
      </trkpt>
      <trkpt lat="43.25616" lon="-5.130329">
        <ele>322.0</ele>
        <time>2020-11-01T12:48:36Z</time>
      </trkpt>
      <trkpt lat="43.256157" lon="-5.130321">
        <ele>322.0</ele>
        <time>2020-11-01T12:48:37Z</time>
      </trkpt>
      <trkpt lat="43.256145" lon="-5.1303144">
        <ele>322.0</ele>
        <time>2020-11-01T12:48:38Z</time>
      </trkpt>
      <trkpt lat="43.25614" lon="-5.1303077">
        <ele>321.0</ele>
        <time>2020-11-01T12:48:39Z</time>
      </trkpt>
      <trkpt lat="43.256134" lon="-5.1303015">
        <ele>321.0</ele>
        <time>2020-11-01T12:48:40Z</time>
      </trkpt>
      <trkpt lat="43.25613" lon="-5.130296">
        <ele>321.0</ele>
        <time>2020-11-01T12:48:41Z</time>
      </trkpt>
      <trkpt lat="43.256126" lon="-5.1302915">
        <ele>321.0</ele>
        <time>2020-11-01T12:48:42Z</time>
      </trkpt>
      <trkpt lat="43.256126" lon="-5.130286">
        <ele>321.0</ele>
        <time>2020-11-01T12:48:43Z</time>
      </trkpt>
      <trkpt lat="43.25612" lon="-5.1302805">
        <ele>320.0</ele>
        <time>2020-11-01T12:48:45Z</time>
      </trkpt>
      <trkpt lat="43.256115" lon="-5.1302757">
        <ele>320.0</ele>
        <time>2020-11-01T12:48:45Z</time>
      </trkpt>
      <trkpt lat="43.25611" lon="-5.1302695">
        <ele>320.0</ele>
        <time>2020-11-01T12:48:46Z</time>
      </trkpt>
      <trkpt lat="43.2561" lon="-5.130264">
        <ele>320.0</ele>
        <time>2020-11-01T12:48:47Z</time>
      </trkpt>
      <trkpt lat="43.256096" lon="-5.130256">
        <ele>320.0</ele>
        <time>2020-11-01T12:48:48Z</time>
      </trkpt>
      <trkpt lat="43.256084" lon="-5.1302457">
        <ele>320.0</ele>
        <time>2020-11-01T12:48:49Z</time>
      </trkpt>
      <trkpt lat="43.25608" lon="-5.130236">
        <ele>319.0</ele>
        <time>2020-11-01T12:48:50Z</time>
      </trkpt>
      <trkpt lat="43.256073" lon="-5.130229">
        <ele>319.0</ele>
        <time>2020-11-01T12:48:51Z</time>
      </trkpt>
      <trkpt lat="43.256073" lon="-5.1302233">
        <ele>319.0</ele>
        <time>2020-11-01T12:48:52Z</time>
      </trkpt>
      <trkpt lat="43.25607" lon="-5.130219">
        <ele>319.0</ele>
        <time>2020-11-01T12:48:53Z</time>
      </trkpt>
      <trkpt lat="43.256065" lon="-5.1302147">
        <ele>319.0</ele>
        <time>2020-11-01T12:48:54Z</time>
      </trkpt>
      <trkpt lat="43.256065" lon="-5.1302104">
        <ele>319.0</ele>
        <time>2020-11-01T12:48:55Z</time>
      </trkpt>
      <trkpt lat="43.256058" lon="-5.1302047">
        <ele>319.0</ele>
        <time>2020-11-01T12:48:56Z</time>
      </trkpt>
      <trkpt lat="43.256058" lon="-5.1301994">
        <ele>319.0</ele>
        <time>2020-11-01T12:48:57Z</time>
      </trkpt>
      <trkpt lat="43.256058" lon="-5.130191">
        <ele>319.0</ele>
        <time>2020-11-01T12:48:58Z</time>
      </trkpt>
      <trkpt lat="43.256058" lon="-5.1301813">
        <ele>319.0</ele>
        <time>2020-11-01T12:48:59Z</time>
      </trkpt>
      <trkpt lat="43.256054" lon="-5.130171">
        <ele>319.0</ele>
        <time>2020-11-01T12:49:00Z</time>
      </trkpt>
      <trkpt lat="43.25605" lon="-5.130162">
        <ele>319.0</ele>
        <time>2020-11-01T12:49:01Z</time>
      </trkpt>
      <trkpt lat="43.256042" lon="-5.130154">
        <ele>319.0</ele>
        <time>2020-11-01T12:49:02Z</time>
      </trkpt>
      <trkpt lat="43.25604" lon="-5.130147">
        <ele>319.0</ele>
        <time>2020-11-01T12:49:03Z</time>
      </trkpt>
      <trkpt lat="43.256035" lon="-5.1301365">
        <ele>318.0</ele>
        <time>2020-11-01T12:49:04Z</time>
      </trkpt>
      <trkpt lat="43.256023" lon="-5.1301217">
        <ele>318.0</ele>
        <time>2020-11-01T12:49:05Z</time>
      </trkpt>
      <trkpt lat="43.25602" lon="-5.1301084">
        <ele>318.0</ele>
        <time>2020-11-01T12:49:06Z</time>
      </trkpt>
      <trkpt lat="43.25601" lon="-5.1300974">
        <ele>318.0</ele>
        <time>2020-11-01T12:49:08Z</time>
      </trkpt>
      <trkpt lat="43.256004" lon="-5.1300855">
        <ele>318.0</ele>
        <time>2020-11-01T12:49:08Z</time>
      </trkpt>
      <trkpt lat="43.255993" lon="-5.1300716">
        <ele>318.0</ele>
        <time>2020-11-01T12:49:09Z</time>
      </trkpt>
      <trkpt lat="43.25599" lon="-5.130059">
        <ele>317.0</ele>
        <time>2020-11-01T12:49:10Z</time>
      </trkpt>
      <trkpt lat="43.25598" lon="-5.130047">
        <ele>317.0</ele>
        <time>2020-11-01T12:49:11Z</time>
      </trkpt>
      <trkpt lat="43.255978" lon="-5.1300325">
        <ele>317.0</ele>
        <time>2020-11-01T12:49:12Z</time>
      </trkpt>
      <trkpt lat="43.255966" lon="-5.130015">
        <ele>317.0</ele>
        <time>2020-11-01T12:49:13Z</time>
      </trkpt>
      <trkpt lat="43.255962" lon="-5.1299953">
        <ele>317.0</ele>
        <time>2020-11-01T12:49:14Z</time>
      </trkpt>
      <trkpt lat="43.25595" lon="-5.1299744">
        <ele>316.0</ele>
        <time>2020-11-01T12:49:16Z</time>
      </trkpt>
      <trkpt lat="43.255947" lon="-5.1299553">
        <ele>316.0</ele>
        <time>2020-11-01T12:49:16Z</time>
      </trkpt>
      <trkpt lat="43.25594" lon="-5.12994">
        <ele>316.0</ele>
        <time>2020-11-01T12:49:17Z</time>
      </trkpt>
      <trkpt lat="43.255936" lon="-5.1299286">
        <ele>316.0</ele>
        <time>2020-11-01T12:49:18Z</time>
      </trkpt>
      <trkpt lat="43.25593" lon="-5.1299205">
        <ele>316.0</ele>
        <time>2020-11-01T12:49:19Z</time>
      </trkpt>
      <trkpt lat="43.255924" lon="-5.1299124">
        <ele>315.0</ele>
        <time>2020-11-01T12:49:20Z</time>
      </trkpt>
      <trkpt lat="43.25592" lon="-5.1299014">
        <ele>315.0</ele>
        <time>2020-11-01T12:49:21Z</time>
      </trkpt>
      <trkpt lat="43.255917" lon="-5.1298923">
        <ele>315.0</ele>
        <time>2020-11-01T12:49:22Z</time>
      </trkpt>
      <trkpt lat="43.25591" lon="-5.1298833">
        <ele>315.0</ele>
        <time>2020-11-01T12:49:23Z</time>
      </trkpt>
      <trkpt lat="43.2559" lon="-5.129872">
        <ele>315.0</ele>
        <time>2020-11-01T12:49:24Z</time>
      </trkpt>
      <trkpt lat="43.255894" lon="-5.1298623">
        <ele>315.0</ele>
        <time>2020-11-01T12:49:25Z</time>
      </trkpt>
      <trkpt lat="43.25589" lon="-5.129854">
        <ele>315.0</ele>
        <time>2020-11-01T12:49:26Z</time>
      </trkpt>
      <trkpt lat="43.255886" lon="-5.1298456">
        <ele>314.0</ele>
        <time>2020-11-01T12:49:27Z</time>
      </trkpt>
      <trkpt lat="43.25588" lon="-5.1298366">
        <ele>314.0</ele>
        <time>2020-11-01T12:49:28Z</time>
      </trkpt>
      <trkpt lat="43.255875" lon="-5.129828">
        <ele>314.0</ele>
        <time>2020-11-01T12:49:29Z</time>
      </trkpt>
      <trkpt lat="43.25587" lon="-5.1298175">
        <ele>314.0</ele>
        <time>2020-11-01T12:49:31Z</time>
      </trkpt>
      <trkpt lat="43.255863" lon="-5.129804">
        <ele>314.0</ele>
        <time>2020-11-01T12:49:31Z</time>
      </trkpt>
      <trkpt lat="43.255856" lon="-5.129793">
        <ele>313.0</ele>
        <time>2020-11-01T12:49:32Z</time>
      </trkpt>
      <trkpt lat="43.255848" lon="-5.129784">
        <ele>313.0</ele>
        <time>2020-11-01T12:49:33Z</time>
      </trkpt>
      <trkpt lat="43.255844" lon="-5.1297793">
        <ele>313.0</ele>
        <time>2020-11-01T12:49:34Z</time>
      </trkpt>
      <trkpt lat="43.255833" lon="-5.1297765">
        <ele>313.0</ele>
        <time>2020-11-01T12:49:35Z</time>
      </trkpt>
      <trkpt lat="43.25583" lon="-5.1297746">
        <ele>313.0</ele>
        <time>2020-11-01T12:49:36Z</time>
      </trkpt>
      <trkpt lat="43.255825" lon="-5.1297717">
        <ele>313.0</ele>
        <time>2020-11-01T12:49:37Z</time>
      </trkpt>
      <trkpt lat="43.255814" lon="-5.12977">
        <ele>313.0</ele>
        <time>2020-11-01T12:49:38Z</time>
      </trkpt>
      <trkpt lat="43.255802" lon="-5.129768">
        <ele>313.0</ele>
        <time>2020-11-01T12:49:39Z</time>
      </trkpt>
      <trkpt lat="43.255795" lon="-5.1297665">
        <ele>313.0</ele>
        <time>2020-11-01T12:49:40Z</time>
      </trkpt>
      <trkpt lat="43.255787" lon="-5.129764">
        <ele>313.0</ele>
        <time>2020-11-01T12:49:41Z</time>
      </trkpt>
      <trkpt lat="43.255783" lon="-5.1297607">
        <ele>313.0</ele>
        <time>2020-11-01T12:49:42Z</time>
      </trkpt>
      <trkpt lat="43.255775" lon="-5.1297574">
        <ele>312.0</ele>
        <time>2020-11-01T12:49:44Z</time>
      </trkpt>
      <trkpt lat="43.25577" lon="-5.129752">
        <ele>312.0</ele>
        <time>2020-11-01T12:49:44Z</time>
      </trkpt>
      <trkpt lat="43.25577" lon="-5.1297445">
        <ele>312.0</ele>
        <time>2020-11-01T12:49:45Z</time>
      </trkpt>
      <trkpt lat="43.255768" lon="-5.129739">
        <ele>312.0</ele>
        <time>2020-11-01T12:49:46Z</time>
      </trkpt>
      <trkpt lat="43.25576" lon="-5.1297317">
        <ele>312.0</ele>
        <time>2020-11-01T12:49:47Z</time>
      </trkpt>
      <trkpt lat="43.255756" lon="-5.129724">
        <ele>311.0</ele>
        <time>2020-11-01T12:49:48Z</time>
      </trkpt>
      <trkpt lat="43.255756" lon="-5.1297164">
        <ele>311.0</ele>
        <time>2020-11-01T12:49:49Z</time>
      </trkpt>
      <trkpt lat="43.255753" lon="-5.1297092">
        <ele>311.0</ele>
        <time>2020-11-01T12:49:50Z</time>
      </trkpt>
      <trkpt lat="43.255753" lon="-5.1297035">
        <ele>311.0</ele>
        <time>2020-11-01T12:49:52Z</time>
      </trkpt>
      <trkpt lat="43.25574" lon="-5.1296983">
        <ele>311.0</ele>
        <time>2020-11-01T12:49:52Z</time>
      </trkpt>
      <trkpt lat="43.255737" lon="-5.129692">
        <ele>310.0</ele>
        <time>2020-11-01T12:49:53Z</time>
      </trkpt>
      <trkpt lat="43.25573" lon="-5.129685">
        <ele>310.0</ele>
        <time>2020-11-01T12:49:54Z</time>
      </trkpt>
      <trkpt lat="43.255726" lon="-5.1296763">
        <ele>310.0</ele>
        <time>2020-11-01T12:49:55Z</time>
      </trkpt>
      <trkpt lat="43.255722" lon="-5.1296673">
        <ele>310.0</ele>
        <time>2020-11-01T12:49:56Z</time>
      </trkpt>
      <trkpt lat="43.255714" lon="-5.1296577">
        <ele>310.0</ele>
        <time>2020-11-01T12:49:57Z</time>
      </trkpt>
      <trkpt lat="43.25571" lon="-5.129647">
        <ele>309.0</ele>
        <time>2020-11-01T12:49:58Z</time>
      </trkpt>
      <trkpt lat="43.255707" lon="-5.1296344">
        <ele>309.0</ele>
        <time>2020-11-01T12:49:59Z</time>
      </trkpt>
      <trkpt lat="43.255707" lon="-5.1296167">
        <ele>309.0</ele>
        <time>2020-11-01T12:50:00Z</time>
      </trkpt>
      <trkpt lat="43.2557" lon="-5.1295977">
        <ele>309.0</ele>
        <time>2020-11-01T12:50:01Z</time>
      </trkpt>
      <trkpt lat="43.255695" lon="-5.129578">
        <ele>309.0</ele>
        <time>2020-11-01T12:50:02Z</time>
      </trkpt>
      <trkpt lat="43.25569" lon="-5.1295624">
        <ele>309.0</ele>
        <time>2020-11-01T12:50:03Z</time>
      </trkpt>
      <trkpt lat="43.255684" lon="-5.1295447">
        <ele>309.0</ele>
        <time>2020-11-01T12:50:04Z</time>
      </trkpt>
      <trkpt lat="43.255676" lon="-5.1295285">
        <ele>308.0</ele>
        <time>2020-11-01T12:50:05Z</time>
      </trkpt>
      <trkpt lat="43.25567" lon="-5.129512">
        <ele>308.0</ele>
        <time>2020-11-01T12:50:07Z</time>
      </trkpt>
      <trkpt lat="43.25567" lon="-5.1294966">
        <ele>308.0</ele>
        <time>2020-11-01T12:50:07Z</time>
      </trkpt>
      <trkpt lat="43.25567" lon="-5.129483">
        <ele>308.0</ele>
        <time>2020-11-01T12:50:08Z</time>
      </trkpt>
      <trkpt lat="43.255665" lon="-5.12947">
        <ele>308.0</ele>
        <time>2020-11-01T12:50:09Z</time>
      </trkpt>
      <trkpt lat="43.25566" lon="-5.1294565">
        <ele>308.0</ele>
        <time>2020-11-01T12:50:10Z</time>
      </trkpt>
      <trkpt lat="43.255653" lon="-5.1294427">
        <ele>308.0</ele>
        <time>2020-11-01T12:50:11Z</time>
      </trkpt>
      <trkpt lat="43.255646" lon="-5.1294293">
        <ele>308.0</ele>
        <time>2020-11-01T12:50:12Z</time>
      </trkpt>
      <trkpt lat="43.25564" lon="-5.1294174">
        <ele>308.0</ele>
        <time>2020-11-01T12:50:13Z</time>
      </trkpt>
      <trkpt lat="43.255623" lon="-5.1294103">
        <ele>308.0</ele>
        <time>2020-11-01T12:50:15Z</time>
      </trkpt>
      <trkpt lat="43.255615" lon="-5.1294007">
        <ele>308.0</ele>
        <time>2020-11-01T12:50:15Z</time>
      </trkpt>
      <trkpt lat="43.2556" lon="-5.129388">
        <ele>308.0</ele>
        <time>2020-11-01T12:50:16Z</time>
      </trkpt>
      <trkpt lat="43.25559" lon="-5.1293736">
        <ele>308.0</ele>
        <time>2020-11-01T12:50:17Z</time>
      </trkpt>
      <trkpt lat="43.255577" lon="-5.129361">
        <ele>308.0</ele>
        <time>2020-11-01T12:50:18Z</time>
      </trkpt>
      <trkpt lat="43.255566" lon="-5.1293526">
        <ele>308.0</ele>
        <time>2020-11-01T12:50:19Z</time>
      </trkpt>
      <trkpt lat="43.25556" lon="-5.129346">
        <ele>308.0</ele>
        <time>2020-11-01T12:50:20Z</time>
      </trkpt>
      <trkpt lat="43.25555" lon="-5.1293426">
        <ele>308.0</ele>
        <time>2020-11-01T12:50:21Z</time>
      </trkpt>
      <trkpt lat="43.255547" lon="-5.1293397">
        <ele>308.0</ele>
        <time>2020-11-01T12:50:22Z</time>
      </trkpt>
      <trkpt lat="43.255543" lon="-5.129337">
        <ele>308.0</ele>
        <time>2020-11-01T12:50:23Z</time>
      </trkpt>
      <trkpt lat="43.255535" lon="-5.129335">
        <ele>308.0</ele>
        <time>2020-11-01T12:50:24Z</time>
      </trkpt>
      <trkpt lat="43.25553" lon="-5.12933">
        <ele>308.0</ele>
        <time>2020-11-01T12:50:25Z</time>
      </trkpt>
      <trkpt lat="43.25553" lon="-5.1293206">
        <ele>307.0</ele>
        <time>2020-11-01T12:50:26Z</time>
      </trkpt>
      <trkpt lat="43.255527" lon="-5.1293106">
        <ele>307.0</ele>
        <time>2020-11-01T12:50:27Z</time>
      </trkpt>
      <trkpt lat="43.255516" lon="-5.1292973">
        <ele>307.0</ele>
        <time>2020-11-01T12:50:28Z</time>
      </trkpt>
      <trkpt lat="43.255512" lon="-5.129285">
        <ele>307.0</ele>
        <time>2020-11-01T12:50:29Z</time>
      </trkpt>
      <trkpt lat="43.2555" lon="-5.129274">
        <ele>307.0</ele>
        <time>2020-11-01T12:50:31Z</time>
      </trkpt>
      <trkpt lat="43.255497" lon="-5.1292624">
        <ele>307.0</ele>
        <time>2020-11-01T12:50:31Z</time>
      </trkpt>
      <trkpt lat="43.255474" lon="-5.1292377">
        <ele>307.0</ele>
        <time>2020-11-01T12:50:34Z</time>
      </trkpt>
      <trkpt lat="43.255474" lon="-5.129251">
        <ele>307.0</ele>
        <time>2020-11-01T12:51:09Z</time>
      </trkpt>
      <trkpt lat="43.255466" lon="-5.129246">
        <ele>307.0</ele>
        <time>2020-11-01T12:51:22Z</time>
      </trkpt>
      <trkpt lat="43.255466" lon="-5.129244">
        <ele>307.0</ele>
        <time>2020-11-01T12:51:23Z</time>
      </trkpt>
      <trkpt lat="43.25546" lon="-5.129239">
        <ele>307.0</ele>
        <time>2020-11-01T12:51:24Z</time>
      </trkpt>
      <trkpt lat="43.25545" lon="-5.1292315">
        <ele>307.0</ele>
        <time>2020-11-01T12:51:25Z</time>
      </trkpt>
      <trkpt lat="43.25544" lon="-5.129221">
        <ele>307.0</ele>
        <time>2020-11-01T12:51:26Z</time>
      </trkpt>
      <trkpt lat="43.255436" lon="-5.12921">
        <ele>307.0</ele>
        <time>2020-11-01T12:51:28Z</time>
      </trkpt>
      <trkpt lat="43.255424" lon="-5.129197">
        <ele>307.0</ele>
        <time>2020-11-01T12:51:28Z</time>
      </trkpt>
      <trkpt lat="43.255413" lon="-5.1291847">
        <ele>307.0</ele>
        <time>2020-11-01T12:51:29Z</time>
      </trkpt>
      <trkpt lat="43.255405" lon="-5.12917">
        <ele>307.0</ele>
        <time>2020-11-01T12:51:30Z</time>
      </trkpt>
      <trkpt lat="43.255394" lon="-5.1291547">
        <ele>307.0</ele>
        <time>2020-11-01T12:51:31Z</time>
      </trkpt>
      <trkpt lat="43.255386" lon="-5.1291423">
        <ele>307.0</ele>
        <time>2020-11-01T12:51:32Z</time>
      </trkpt>
      <trkpt lat="43.255333" lon="-5.129016">
        <ele>307.0</ele>
        <time>2020-11-01T12:52:29Z</time>
      </trkpt>
      <trkpt lat="43.255325" lon="-5.1290145">
        <ele>307.0</ele>
        <time>2020-11-01T12:52:30Z</time>
      </trkpt>
      <trkpt lat="43.255325" lon="-5.1290126">
        <ele>307.0</ele>
        <time>2020-11-01T12:52:31Z</time>
      </trkpt>
      <trkpt lat="43.25532" lon="-5.128999">
        <ele>307.0</ele>
        <time>2020-11-01T12:52:36Z</time>
      </trkpt>
      <trkpt lat="43.25532" lon="-5.1289964">
        <ele>307.0</ele>
        <time>2020-11-01T12:52:37Z</time>
      </trkpt>
      <trkpt lat="43.255318" lon="-5.1289887">
        <ele>307.0</ele>
        <time>2020-11-01T12:52:39Z</time>
      </trkpt>
      <trkpt lat="43.25531" lon="-5.1289787">
        <ele>307.0</ele>
        <time>2020-11-01T12:52:39Z</time>
      </trkpt>
      <trkpt lat="43.255302" lon="-5.128968">
        <ele>307.0</ele>
        <time>2020-11-01T12:52:40Z</time>
      </trkpt>
      <trkpt lat="43.25529" lon="-5.1289573">
        <ele>307.0</ele>
        <time>2020-11-01T12:52:41Z</time>
      </trkpt>
      <trkpt lat="43.25528" lon="-5.1289463">
        <ele>307.0</ele>
        <time>2020-11-01T12:52:42Z</time>
      </trkpt>
      <trkpt lat="43.255272" lon="-5.128933">
        <ele>307.0</ele>
        <time>2020-11-01T12:52:43Z</time>
      </trkpt>
      <trkpt lat="43.25526" lon="-5.128919">
        <ele>307.0</ele>
        <time>2020-11-01T12:52:44Z</time>
      </trkpt>
      <trkpt lat="43.25525" lon="-5.128904">
        <ele>307.0</ele>
        <time>2020-11-01T12:52:45Z</time>
      </trkpt>
      <trkpt lat="43.25524" lon="-5.1288915">
        <ele>307.0</ele>
        <time>2020-11-01T12:52:46Z</time>
      </trkpt>
      <trkpt lat="43.255234" lon="-5.128881">
        <ele>307.0</ele>
        <time>2020-11-01T12:52:47Z</time>
      </trkpt>
      <trkpt lat="43.255226" lon="-5.128873">
        <ele>300.0</ele>
        <time>2020-11-01T12:52:48Z</time>
      </trkpt>
      <trkpt lat="43.25522" lon="-5.1288657">
        <ele>300.0</ele>
        <time>2020-11-01T12:52:49Z</time>
      </trkpt>
      <trkpt lat="43.255203" lon="-5.128846">
        <ele>300.0</ele>
        <time>2020-11-01T12:52:51Z</time>
      </trkpt>
      <trkpt lat="43.2552" lon="-5.128845">
        <ele>300.0</ele>
        <time>2020-11-01T12:52:52Z</time>
      </trkpt>
      <trkpt lat="43.2552" lon="-5.1288424">
        <ele>300.0</ele>
        <time>2020-11-01T12:52:53Z</time>
      </trkpt>
      <trkpt lat="43.25519" lon="-5.1288395">
        <ele>300.0</ele>
        <time>2020-11-01T12:52:54Z</time>
      </trkpt>
      <trkpt lat="43.255188" lon="-5.1288333">
        <ele>300.0</ele>
        <time>2020-11-01T12:52:55Z</time>
      </trkpt>
      <trkpt lat="43.255177" lon="-5.1288257">
        <ele>300.0</ele>
        <time>2020-11-01T12:52:56Z</time>
      </trkpt>
      <trkpt lat="43.255173" lon="-5.128816">
        <ele>300.0</ele>
        <time>2020-11-01T12:52:57Z</time>
      </trkpt>
      <trkpt lat="43.25516" lon="-5.1288085">
        <ele>299.0</ele>
        <time>2020-11-01T12:52:58Z</time>
      </trkpt>
      <trkpt lat="43.255154" lon="-5.1288">
        <ele>299.0</ele>
        <time>2020-11-01T12:52:59Z</time>
      </trkpt>
      <trkpt lat="43.255142" lon="-5.128792">
        <ele>299.0</ele>
        <time>2020-11-01T12:53:00Z</time>
      </trkpt>
      <trkpt lat="43.25514" lon="-5.128783">
        <ele>299.0</ele>
        <time>2020-11-01T12:53:01Z</time>
      </trkpt>
      <trkpt lat="43.255127" lon="-5.1287713">
        <ele>299.0</ele>
        <time>2020-11-01T12:53:03Z</time>
      </trkpt>
      <trkpt lat="43.255123" lon="-5.128762">
        <ele>299.0</ele>
        <time>2020-11-01T12:53:03Z</time>
      </trkpt>
      <trkpt lat="43.255116" lon="-5.1287537">
        <ele>299.0</ele>
        <time>2020-11-01T12:53:04Z</time>
      </trkpt>
      <trkpt lat="43.255108" lon="-5.128747">
        <ele>299.0</ele>
        <time>2020-11-01T12:53:05Z</time>
      </trkpt>
      <trkpt lat="43.255096" lon="-5.1287384">
        <ele>299.0</ele>
        <time>2020-11-01T12:53:06Z</time>
      </trkpt>
      <trkpt lat="43.255093" lon="-5.1287265">
        <ele>299.0</ele>
        <time>2020-11-01T12:53:07Z</time>
      </trkpt>
      <trkpt lat="43.25508" lon="-5.128712">
        <ele>298.0</ele>
        <time>2020-11-01T12:53:08Z</time>
      </trkpt>
      <trkpt lat="43.255077" lon="-5.128698">
        <ele>298.0</ele>
        <time>2020-11-01T12:53:09Z</time>
      </trkpt>
      <trkpt lat="43.25507" lon="-5.1286855">
        <ele>298.0</ele>
        <time>2020-11-01T12:53:10Z</time>
      </trkpt>
      <trkpt lat="43.255066" lon="-5.128674">
        <ele>298.0</ele>
        <time>2020-11-01T12:53:11Z</time>
      </trkpt>
      <trkpt lat="43.255062" lon="-5.1286626">
        <ele>297.0</ele>
        <time>2020-11-01T12:53:12Z</time>
      </trkpt>
      <trkpt lat="43.255054" lon="-5.1286497">
        <ele>297.0</ele>
        <time>2020-11-01T12:53:13Z</time>
      </trkpt>
      <trkpt lat="43.255054" lon="-5.128638">
        <ele>297.0</ele>
        <time>2020-11-01T12:53:14Z</time>
      </trkpt>
      <trkpt lat="43.25505" lon="-5.1286254">
        <ele>297.0</ele>
        <time>2020-11-01T12:53:15Z</time>
      </trkpt>
      <trkpt lat="43.255047" lon="-5.1286135">
        <ele>297.0</ele>
        <time>2020-11-01T12:53:16Z</time>
      </trkpt>
      <trkpt lat="43.255047" lon="-5.1286035">
        <ele>296.0</ele>
        <time>2020-11-01T12:53:17Z</time>
      </trkpt>
      <trkpt lat="43.255035" lon="-5.1285925">
        <ele>296.0</ele>
        <time>2020-11-01T12:53:18Z</time>
      </trkpt>
      <trkpt lat="43.255024" lon="-5.1285825">
        <ele>296.0</ele>
        <time>2020-11-01T12:53:19Z</time>
      </trkpt>
      <trkpt lat="43.25502" lon="-5.128571">
        <ele>296.0</ele>
        <time>2020-11-01T12:53:20Z</time>
      </trkpt>
      <trkpt lat="43.25501" lon="-5.1285596">
        <ele>296.0</ele>
        <time>2020-11-01T12:53:21Z</time>
      </trkpt>
      <trkpt lat="43.25501" lon="-5.1285496">
        <ele>296.0</ele>
        <time>2020-11-01T12:53:22Z</time>
      </trkpt>
      <trkpt lat="43.254997" lon="-5.12854">
        <ele>295.0</ele>
        <time>2020-11-01T12:53:24Z</time>
      </trkpt>
      <trkpt lat="43.254997" lon="-5.128529">
        <ele>295.0</ele>
        <time>2020-11-01T12:53:24Z</time>
      </trkpt>
      <trkpt lat="43.254993" lon="-5.12852">
        <ele>295.0</ele>
        <time>2020-11-01T12:53:25Z</time>
      </trkpt>
      <trkpt lat="43.25499" lon="-5.128511">
        <ele>295.0</ele>
        <time>2020-11-01T12:53:26Z</time>
      </trkpt>
      <trkpt lat="43.254982" lon="-5.128501">
        <ele>295.0</ele>
        <time>2020-11-01T12:53:27Z</time>
      </trkpt>
      <trkpt lat="43.25498" lon="-5.128493">
        <ele>294.0</ele>
        <time>2020-11-01T12:53:28Z</time>
      </trkpt>
      <trkpt lat="43.254974" lon="-5.1284857">
        <ele>294.0</ele>
        <time>2020-11-01T12:53:29Z</time>
      </trkpt>
      <trkpt lat="43.254963" lon="-5.1284795">
        <ele>294.0</ele>
        <time>2020-11-01T12:53:30Z</time>
      </trkpt>
      <trkpt lat="43.25496" lon="-5.128473">
        <ele>294.0</ele>
        <time>2020-11-01T12:53:31Z</time>
      </trkpt>
      <trkpt lat="43.254948" lon="-5.128465">
        <ele>294.0</ele>
        <time>2020-11-01T12:53:32Z</time>
      </trkpt>
      <trkpt lat="43.254944" lon="-5.1284575">
        <ele>294.0</ele>
        <time>2020-11-01T12:53:33Z</time>
      </trkpt>
      <trkpt lat="43.254936" lon="-5.12845">
        <ele>294.0</ele>
        <time>2020-11-01T12:53:34Z</time>
      </trkpt>
      <trkpt lat="43.25493" lon="-5.128443">
        <ele>294.0</ele>
        <time>2020-11-01T12:53:35Z</time>
      </trkpt>
      <trkpt lat="43.25492" lon="-5.128434">
        <ele>294.0</ele>
        <time>2020-11-01T12:53:36Z</time>
      </trkpt>
      <trkpt lat="43.254917" lon="-5.128424">
        <ele>294.0</ele>
        <time>2020-11-01T12:53:37Z</time>
      </trkpt>
      <trkpt lat="43.254913" lon="-5.1284137">
        <ele>294.0</ele>
        <time>2020-11-01T12:53:38Z</time>
      </trkpt>
      <trkpt lat="43.254906" lon="-5.1284027">
        <ele>294.0</ele>
        <time>2020-11-01T12:53:39Z</time>
      </trkpt>
      <trkpt lat="43.2549" lon="-5.1283903">
        <ele>294.0</ele>
        <time>2020-11-01T12:53:40Z</time>
      </trkpt>
      <trkpt lat="43.25489" lon="-5.128378">
        <ele>294.0</ele>
        <time>2020-11-01T12:53:41Z</time>
      </trkpt>
      <trkpt lat="43.254875" lon="-5.12837">
        <ele>294.0</ele>
        <time>2020-11-01T12:53:42Z</time>
      </trkpt>
      <trkpt lat="43.254868" lon="-5.1283627">
        <ele>294.0</ele>
        <time>2020-11-01T12:53:43Z</time>
      </trkpt>
      <trkpt lat="43.254852" lon="-5.128356">
        <ele>293.0</ele>
        <time>2020-11-01T12:53:44Z</time>
      </trkpt>
      <trkpt lat="43.254837" lon="-5.1283507">
        <ele>293.0</ele>
        <time>2020-11-01T12:53:45Z</time>
      </trkpt>
      <trkpt lat="43.254826" lon="-5.1283464">
        <ele>293.0</ele>
        <time>2020-11-01T12:53:47Z</time>
      </trkpt>
      <trkpt lat="43.254814" lon="-5.1283402">
        <ele>293.0</ele>
        <time>2020-11-01T12:53:47Z</time>
      </trkpt>
      <trkpt lat="43.254803" lon="-5.128336">
        <ele>293.0</ele>
        <time>2020-11-01T12:53:48Z</time>
      </trkpt>
      <trkpt lat="43.2548" lon="-5.128332">
        <ele>293.0</ele>
        <time>2020-11-01T12:53:49Z</time>
      </trkpt>
      <trkpt lat="43.254787" lon="-5.128327">
        <ele>292.0</ele>
        <time>2020-11-01T12:53:50Z</time>
      </trkpt>
      <trkpt lat="43.254784" lon="-5.128317">
        <ele>292.0</ele>
        <time>2020-11-01T12:53:51Z</time>
      </trkpt>
      <trkpt lat="43.25478" lon="-5.1283035">
        <ele>292.0</ele>
        <time>2020-11-01T12:53:52Z</time>
      </trkpt>
      <trkpt lat="43.254772" lon="-5.128287">
        <ele>292.0</ele>
        <time>2020-11-01T12:53:53Z</time>
      </trkpt>
      <trkpt lat="43.254772" lon="-5.1282697">
        <ele>292.0</ele>
        <time>2020-11-01T12:53:54Z</time>
      </trkpt>
      <trkpt lat="43.25477" lon="-5.128253">
        <ele>292.0</ele>
        <time>2020-11-01T12:53:55Z</time>
      </trkpt>
      <trkpt lat="43.254765" lon="-5.128239">
        <ele>292.0</ele>
        <time>2020-11-01T12:53:56Z</time>
      </trkpt>
      <trkpt lat="43.254757" lon="-5.128226">
        <ele>292.0</ele>
        <time>2020-11-01T12:53:57Z</time>
      </trkpt>
      <trkpt lat="43.25475" lon="-5.1282115">
        <ele>292.0</ele>
        <time>2020-11-01T12:53:58Z</time>
      </trkpt>
      <trkpt lat="43.25475" lon="-5.1281977">
        <ele>292.0</ele>
        <time>2020-11-01T12:53:59Z</time>
      </trkpt>
      <trkpt lat="43.25474" lon="-5.1281853">
        <ele>292.0</ele>
        <time>2020-11-01T12:54:00Z</time>
      </trkpt>
      <trkpt lat="43.25474" lon="-5.1281734">
        <ele>291.0</ele>
        <time>2020-11-01T12:54:02Z</time>
      </trkpt>
      <trkpt lat="43.25474" lon="-5.1281633">
        <ele>291.0</ele>
        <time>2020-11-01T12:54:02Z</time>
      </trkpt>
      <trkpt lat="43.25474" lon="-5.1281533">
        <ele>291.0</ele>
        <time>2020-11-01T12:54:03Z</time>
      </trkpt>
      <trkpt lat="43.254738" lon="-5.1281433">
        <ele>291.0</ele>
        <time>2020-11-01T12:54:04Z</time>
      </trkpt>
      <trkpt lat="43.254734" lon="-5.128132">
        <ele>291.0</ele>
        <time>2020-11-01T12:54:05Z</time>
      </trkpt>
      <trkpt lat="43.254726" lon="-5.1281185">
        <ele>291.0</ele>
        <time>2020-11-01T12:54:06Z</time>
      </trkpt>
      <trkpt lat="43.25472" lon="-5.128104">
        <ele>291.0</ele>
        <time>2020-11-01T12:54:07Z</time>
      </trkpt>
      <trkpt lat="43.254707" lon="-5.1280894">
        <ele>291.0</ele>
        <time>2020-11-01T12:54:08Z</time>
      </trkpt>
      <trkpt lat="43.254696" lon="-5.1280775">
        <ele>291.0</ele>
        <time>2020-11-01T12:54:10Z</time>
      </trkpt>
      <trkpt lat="43.254692" lon="-5.128066">
        <ele>291.0</ele>
        <time>2020-11-01T12:54:10Z</time>
      </trkpt>
      <trkpt lat="43.25469" lon="-5.1280546">
        <ele>291.0</ele>
        <time>2020-11-01T12:54:11Z</time>
      </trkpt>
      <trkpt lat="43.254677" lon="-5.1280427">
        <ele>290.0</ele>
        <time>2020-11-01T12:54:12Z</time>
      </trkpt>
      <trkpt lat="43.254673" lon="-5.12803">
        <ele>290.0</ele>
        <time>2020-11-01T12:54:13Z</time>
      </trkpt>
      <trkpt lat="43.254665" lon="-5.1280155">
        <ele>290.0</ele>
        <time>2020-11-01T12:54:14Z</time>
      </trkpt>
      <trkpt lat="43.25466" lon="-5.1279993">
        <ele>290.0</ele>
        <time>2020-11-01T12:54:15Z</time>
      </trkpt>
      <trkpt lat="43.254658" lon="-5.127981">
        <ele>290.0</ele>
        <time>2020-11-01T12:54:16Z</time>
      </trkpt>
      <trkpt lat="43.254646" lon="-5.1279626">
        <ele>289.0</ele>
        <time>2020-11-01T12:54:17Z</time>
      </trkpt>
      <trkpt lat="43.254635" lon="-5.127948">
        <ele>289.0</ele>
        <time>2020-11-01T12:54:18Z</time>
      </trkpt>
      <trkpt lat="43.25463" lon="-5.127937">
        <ele>289.0</ele>
        <time>2020-11-01T12:54:19Z</time>
      </trkpt>
      <trkpt lat="43.254623" lon="-5.127922">
        <ele>289.0</ele>
        <time>2020-11-01T12:54:20Z</time>
      </trkpt>
      <trkpt lat="43.254616" lon="-5.1279063">
        <ele>288.0</ele>
        <time>2020-11-01T12:54:21Z</time>
      </trkpt>
      <trkpt lat="43.25461" lon="-5.1278925">
        <ele>288.0</ele>
        <time>2020-11-01T12:54:23Z</time>
      </trkpt>
      <trkpt lat="43.254604" lon="-5.12788">
        <ele>288.0</ele>
        <time>2020-11-01T12:54:23Z</time>
      </trkpt>
      <trkpt lat="43.2546" lon="-5.1278677">
        <ele>288.0</ele>
        <time>2020-11-01T12:54:24Z</time>
      </trkpt>
      <trkpt lat="43.254593" lon="-5.1278563">
        <ele>287.0</ele>
        <time>2020-11-01T12:54:25Z</time>
      </trkpt>
      <trkpt lat="43.25459" lon="-5.127845">
        <ele>287.0</ele>
        <time>2020-11-01T12:54:26Z</time>
      </trkpt>
      <trkpt lat="43.254585" lon="-5.1278324">
        <ele>287.0</ele>
        <time>2020-11-01T12:54:27Z</time>
      </trkpt>
      <trkpt lat="43.254574" lon="-5.127819">
        <ele>287.0</ele>
        <time>2020-11-01T12:54:28Z</time>
      </trkpt>
      <trkpt lat="43.254562" lon="-5.127808">
        <ele>287.0</ele>
        <time>2020-11-01T12:54:29Z</time>
      </trkpt>
      <trkpt lat="43.25456" lon="-5.1278">
        <ele>287.0</ele>
        <time>2020-11-01T12:54:30Z</time>
      </trkpt>
      <trkpt lat="43.254547" lon="-5.127795">
        <ele>287.0</ele>
        <time>2020-11-01T12:54:31Z</time>
      </trkpt>
      <trkpt lat="43.254543" lon="-5.127792">
        <ele>287.0</ele>
        <time>2020-11-01T12:54:32Z</time>
      </trkpt>
      <trkpt lat="43.25453" lon="-5.1277895">
        <ele>287.0</ele>
        <time>2020-11-01T12:54:33Z</time>
      </trkpt>
      <trkpt lat="43.254528" lon="-5.127789">
        <ele>287.0</ele>
        <time>2020-11-01T12:54:34Z</time>
      </trkpt>
      <trkpt lat="43.254524" lon="-5.127787">
        <ele>286.0</ele>
        <time>2020-11-01T12:54:36Z</time>
      </trkpt>
      <trkpt lat="43.254524" lon="-5.1277895">
        <ele>286.0</ele>
        <time>2020-11-01T12:54:37Z</time>
      </trkpt>
      <trkpt lat="43.254524" lon="-5.1277957">
        <ele>286.0</ele>
        <time>2020-11-01T12:54:39Z</time>
      </trkpt>
      <trkpt lat="43.254524" lon="-5.127805">
        <ele>286.0</ele>
        <time>2020-11-01T12:54:39Z</time>
      </trkpt>
      <trkpt lat="43.254517" lon="-5.1278167">
        <ele>286.0</ele>
        <time>2020-11-01T12:54:40Z</time>
      </trkpt>
      <trkpt lat="43.254517" lon="-5.1278296">
        <ele>286.0</ele>
        <time>2020-11-01T12:54:41Z</time>
      </trkpt>
      <trkpt lat="43.254513" lon="-5.1278396">
        <ele>286.0</ele>
        <time>2020-11-01T12:54:42Z</time>
      </trkpt>
      <trkpt lat="43.25451" lon="-5.1278634">
        <ele>286.0</ele>
        <time>2020-11-01T12:54:44Z</time>
      </trkpt>
      <trkpt lat="43.25451" lon="-5.1278667">
        <ele>286.0</ele>
        <time>2020-11-01T12:54:46Z</time>
      </trkpt>
      <trkpt lat="43.25451" lon="-5.12787">
        <ele>286.0</ele>
        <time>2020-11-01T12:54:48Z</time>
      </trkpt>
      <trkpt lat="43.2545" lon="-5.1278706">
        <ele>286.0</ele>
        <time>2020-11-01T12:54:49Z</time>
      </trkpt>
      <trkpt lat="43.2545" lon="-5.1278696">
        <ele>285.0</ele>
        <time>2020-11-01T12:54:50Z</time>
      </trkpt>
      <trkpt lat="43.2545" lon="-5.1278687">
        <ele>285.0</ele>
        <time>2020-11-01T12:54:51Z</time>
      </trkpt>
      <trkpt lat="43.2545" lon="-5.1278696">
        <ele>285.0</ele>
        <time>2020-11-01T12:54:52Z</time>
      </trkpt>
      <trkpt lat="43.2545" lon="-5.1278734">
        <ele>285.0</ele>
        <time>2020-11-01T12:54:53Z</time>
      </trkpt>
      <trkpt lat="43.2545" lon="-5.1278815">
        <ele>285.0</ele>
        <time>2020-11-01T12:54:54Z</time>
      </trkpt>
      <trkpt lat="43.254498" lon="-5.127892">
        <ele>285.0</ele>
        <time>2020-11-01T12:54:55Z</time>
      </trkpt>
      <trkpt lat="43.2545" lon="-5.127902">
        <ele>285.0</ele>
        <time>2020-11-01T12:54:57Z</time>
      </trkpt>
      <trkpt lat="43.25451" lon="-5.127914">
        <ele>285.0</ele>
        <time>2020-11-01T12:54:57Z</time>
      </trkpt>
      <trkpt lat="43.254513" lon="-5.1279263">
        <ele>285.0</ele>
        <time>2020-11-01T12:54:58Z</time>
      </trkpt>
      <trkpt lat="43.254513" lon="-5.1279383">
        <ele>285.0</ele>
        <time>2020-11-01T12:54:59Z</time>
      </trkpt>
      <trkpt lat="43.254513" lon="-5.12795">
        <ele>285.0</ele>
        <time>2020-11-01T12:55:00Z</time>
      </trkpt>
      <trkpt lat="43.254513" lon="-5.1279635">
        <ele>285.0</ele>
        <time>2020-11-01T12:55:01Z</time>
      </trkpt>
      <trkpt lat="43.254513" lon="-5.1279783">
        <ele>284.0</ele>
        <time>2020-11-01T12:55:02Z</time>
      </trkpt>
      <trkpt lat="43.25451" lon="-5.1279945">
        <ele>284.0</ele>
        <time>2020-11-01T12:55:03Z</time>
      </trkpt>
      <trkpt lat="43.25451" lon="-5.128012">
        <ele>284.0</ele>
        <time>2020-11-01T12:55:04Z</time>
      </trkpt>
      <trkpt lat="43.25451" lon="-5.1280293">
        <ele>284.0</ele>
        <time>2020-11-01T12:55:05Z</time>
      </trkpt>
      <trkpt lat="43.25451" lon="-5.1280427">
        <ele>284.0</ele>
        <time>2020-11-01T12:55:06Z</time>
      </trkpt>
      <trkpt lat="43.254513" lon="-5.1280584">
        <ele>284.0</ele>
        <time>2020-11-01T12:55:07Z</time>
      </trkpt>
      <trkpt lat="43.2545" lon="-5.12821">
        <ele>284.0</ele>
        <time>2020-11-01T12:56:18Z</time>
      </trkpt>
      <trkpt lat="43.2545" lon="-5.128215">
        <ele>284.0</ele>
        <time>2020-11-01T12:56:19Z</time>
      </trkpt>
      <trkpt lat="43.25451" lon="-5.128225">
        <ele>284.0</ele>
        <time>2020-11-01T12:56:20Z</time>
      </trkpt>
      <trkpt lat="43.254513" lon="-5.128239">
        <ele>284.0</ele>
        <time>2020-11-01T12:56:21Z</time>
      </trkpt>
      <trkpt lat="43.254517" lon="-5.128257">
        <ele>281.0</ele>
        <time>2020-11-01T12:56:22Z</time>
      </trkpt>
      <trkpt lat="43.254524" lon="-5.1282773">
        <ele>281.0</ele>
        <time>2020-11-01T12:56:23Z</time>
      </trkpt>
      <trkpt lat="43.254528" lon="-5.1282983">
        <ele>281.0</ele>
        <time>2020-11-01T12:56:24Z</time>
      </trkpt>
      <trkpt lat="43.25454" lon="-5.1283164">
        <ele>281.0</ele>
        <time>2020-11-01T12:56:25Z</time>
      </trkpt>
      <trkpt lat="43.254543" lon="-5.1283345">
        <ele>281.0</ele>
        <time>2020-11-01T12:56:26Z</time>
      </trkpt>
      <trkpt lat="43.254555" lon="-5.1283493">
        <ele>281.0</ele>
        <time>2020-11-01T12:56:27Z</time>
      </trkpt>
      <trkpt lat="43.25456" lon="-5.1283617">
        <ele>281.0</ele>
        <time>2020-11-01T12:56:28Z</time>
      </trkpt>
      <trkpt lat="43.254562" lon="-5.1283727">
        <ele>281.0</ele>
        <time>2020-11-01T12:56:29Z</time>
      </trkpt>
      <trkpt lat="43.254574" lon="-5.1283846">
        <ele>281.0</ele>
        <time>2020-11-01T12:56:30Z</time>
      </trkpt>
      <trkpt lat="43.254578" lon="-5.128395">
        <ele>281.0</ele>
        <time>2020-11-01T12:56:31Z</time>
      </trkpt>
      <trkpt lat="43.254585" lon="-5.128404">
        <ele>281.0</ele>
        <time>2020-11-01T12:56:32Z</time>
      </trkpt>
      <trkpt lat="43.254585" lon="-5.128415">
        <ele>281.0</ele>
        <time>2020-11-01T12:56:33Z</time>
      </trkpt>
      <trkpt lat="43.25459" lon="-5.1284256">
        <ele>281.0</ele>
        <time>2020-11-01T12:56:34Z</time>
      </trkpt>
      <trkpt lat="43.254593" lon="-5.128438">
        <ele>281.0</ele>
        <time>2020-11-01T12:56:35Z</time>
      </trkpt>
      <trkpt lat="43.254593" lon="-5.1284494">
        <ele>281.0</ele>
        <time>2020-11-01T12:56:36Z</time>
      </trkpt>
      <trkpt lat="43.2546" lon="-5.1284614">
        <ele>281.0</ele>
        <time>2020-11-01T12:56:38Z</time>
      </trkpt>
      <trkpt lat="43.2546" lon="-5.1284714">
        <ele>281.0</ele>
        <time>2020-11-01T12:56:38Z</time>
      </trkpt>
      <trkpt lat="43.254604" lon="-5.1284814">
        <ele>281.0</ele>
        <time>2020-11-01T12:56:39Z</time>
      </trkpt>
      <trkpt lat="43.254604" lon="-5.128494">
        <ele>280.0</ele>
        <time>2020-11-01T12:56:40Z</time>
      </trkpt>
      <trkpt lat="43.254604" lon="-5.128512">
        <ele>280.0</ele>
        <time>2020-11-01T12:56:41Z</time>
      </trkpt>
      <trkpt lat="43.2546" lon="-5.128532">
        <ele>280.0</ele>
        <time>2020-11-01T12:56:42Z</time>
      </trkpt>
      <trkpt lat="43.254593" lon="-5.1285496">
        <ele>280.0</ele>
        <time>2020-11-01T12:56:43Z</time>
      </trkpt>
      <trkpt lat="43.254593" lon="-5.128565">
        <ele>280.0</ele>
        <time>2020-11-01T12:56:44Z</time>
      </trkpt>
      <trkpt lat="43.25459" lon="-5.1285777">
        <ele>280.0</ele>
        <time>2020-11-01T12:56:45Z</time>
      </trkpt>
      <trkpt lat="43.254585" lon="-5.128586">
        <ele>280.0</ele>
        <time>2020-11-01T12:56:46Z</time>
      </trkpt>
      <trkpt lat="43.254574" lon="-5.1285906">
        <ele>280.0</ele>
        <time>2020-11-01T12:56:47Z</time>
      </trkpt>
      <trkpt lat="43.25457" lon="-5.1285944">
        <ele>280.0</ele>
        <time>2020-11-01T12:56:48Z</time>
      </trkpt>
      <trkpt lat="43.25456" lon="-5.128598">
        <ele>279.0</ele>
        <time>2020-11-01T12:56:49Z</time>
      </trkpt>
      <trkpt lat="43.254543" lon="-5.1286035">
        <ele>279.0</ele>
        <time>2020-11-01T12:56:50Z</time>
      </trkpt>
      <trkpt lat="43.25453" lon="-5.128611">
        <ele>279.0</ele>
        <time>2020-11-01T12:56:51Z</time>
      </trkpt>
      <trkpt lat="43.254528" lon="-5.1286197">
        <ele>279.0</ele>
        <time>2020-11-01T12:56:53Z</time>
      </trkpt>
      <trkpt lat="43.254517" lon="-5.1286287">
        <ele>279.0</ele>
        <time>2020-11-01T12:56:53Z</time>
      </trkpt>
      <trkpt lat="43.25451" lon="-5.1286373">
        <ele>279.0</ele>
        <time>2020-11-01T12:56:54Z</time>
      </trkpt>
      <trkpt lat="43.2545" lon="-5.128645">
        <ele>279.0</ele>
        <time>2020-11-01T12:56:55Z</time>
      </trkpt>
      <trkpt lat="43.254494" lon="-5.1286526">
        <ele>279.0</ele>
        <time>2020-11-01T12:56:56Z</time>
      </trkpt>
      <trkpt lat="43.254482" lon="-5.1286597">
        <ele>279.0</ele>
        <time>2020-11-01T12:56:57Z</time>
      </trkpt>
      <trkpt lat="43.25448" lon="-5.128666">
        <ele>279.0</ele>
        <time>2020-11-01T12:56:58Z</time>
      </trkpt>
      <trkpt lat="43.254467" lon="-5.1286697">
        <ele>279.0</ele>
        <time>2020-11-01T12:56:59Z</time>
      </trkpt>
      <trkpt lat="43.254463" lon="-5.128671">
        <ele>279.0</ele>
        <time>2020-11-01T12:57:00Z</time>
      </trkpt>
      <trkpt lat="43.25445" lon="-5.1286716">
        <ele>278.0</ele>
        <time>2020-11-01T12:57:01Z</time>
      </trkpt>
      <trkpt lat="43.25444" lon="-5.128671">
        <ele>278.0</ele>
        <time>2020-11-01T12:57:02Z</time>
      </trkpt>
      <trkpt lat="43.254436" lon="-5.1286707">
        <ele>278.0</ele>
        <time>2020-11-01T12:57:03Z</time>
      </trkpt>
      <trkpt lat="43.254425" lon="-5.1286716">
        <ele>278.0</ele>
        <time>2020-11-01T12:57:04Z</time>
      </trkpt>
      <trkpt lat="43.254414" lon="-5.1286755">
        <ele>278.0</ele>
        <time>2020-11-01T12:57:05Z</time>
      </trkpt>
      <trkpt lat="43.254406" lon="-5.1286793">
        <ele>278.0</ele>
        <time>2020-11-01T12:57:06Z</time>
      </trkpt>
      <trkpt lat="43.2544" lon="-5.1286793">
        <ele>278.0</ele>
        <time>2020-11-01T12:57:08Z</time>
      </trkpt>
      <trkpt lat="43.25439" lon="-5.1286755">
        <ele>278.0</ele>
        <time>2020-11-01T12:57:08Z</time>
      </trkpt>
      <trkpt lat="43.254383" lon="-5.1286697">
        <ele>278.0</ele>
        <time>2020-11-01T12:57:09Z</time>
      </trkpt>
      <trkpt lat="43.254375" lon="-5.1286626">
        <ele>277.0</ele>
        <time>2020-11-01T12:57:10Z</time>
      </trkpt>
      <trkpt lat="43.254364" lon="-5.128657">
        <ele>277.0</ele>
        <time>2020-11-01T12:57:11Z</time>
      </trkpt>
      <trkpt lat="43.25436" lon="-5.1286535">
        <ele>277.0</ele>
        <time>2020-11-01T12:57:12Z</time>
      </trkpt>
      <trkpt lat="43.25435" lon="-5.128651">
        <ele>277.0</ele>
        <time>2020-11-01T12:57:13Z</time>
      </trkpt>
      <trkpt lat="43.254337" lon="-5.128647">
        <ele>277.0</ele>
        <time>2020-11-01T12:57:14Z</time>
      </trkpt>
      <trkpt lat="43.25433" lon="-5.128639">
        <ele>277.0</ele>
        <time>2020-11-01T12:57:15Z</time>
      </trkpt>
      <trkpt lat="43.25432" lon="-5.1286297">
        <ele>276.0</ele>
        <time>2020-11-01T12:57:16Z</time>
      </trkpt>
      <trkpt lat="43.254314" lon="-5.1286206">
        <ele>276.0</ele>
        <time>2020-11-01T12:57:17Z</time>
      </trkpt>
      <trkpt lat="43.254303" lon="-5.1286125">
        <ele>276.0</ele>
        <time>2020-11-01T12:57:18Z</time>
      </trkpt>
      <trkpt lat="43.2543" lon="-5.128607">
        <ele>276.0</ele>
        <time>2020-11-01T12:57:19Z</time>
      </trkpt>
      <trkpt lat="43.25429" lon="-5.128603">
        <ele>276.0</ele>
        <time>2020-11-01T12:57:20Z</time>
      </trkpt>
      <trkpt lat="43.254284" lon="-5.1285987">
        <ele>276.0</ele>
        <time>2020-11-01T12:57:22Z</time>
      </trkpt>
      <trkpt lat="43.254272" lon="-5.1285934">
        <ele>276.0</ele>
        <time>2020-11-01T12:57:22Z</time>
      </trkpt>
      <trkpt lat="43.25427" lon="-5.128589">
        <ele>276.0</ele>
        <time>2020-11-01T12:57:23Z</time>
      </trkpt>
      <trkpt lat="43.25426" lon="-5.128585">
        <ele>276.0</ele>
        <time>2020-11-01T12:57:24Z</time>
      </trkpt>
      <trkpt lat="43.254257" lon="-5.1285806">
        <ele>276.0</ele>
        <time>2020-11-01T12:57:25Z</time>
      </trkpt>
      <trkpt lat="43.254246" lon="-5.1285768">
        <ele>276.0</ele>
        <time>2020-11-01T12:57:26Z</time>
      </trkpt>
      <trkpt lat="43.254242" lon="-5.1285706">
        <ele>275.0</ele>
        <time>2020-11-01T12:57:27Z</time>
      </trkpt>
      <trkpt lat="43.254234" lon="-5.1285644">
        <ele>275.0</ele>
        <time>2020-11-01T12:57:28Z</time>
      </trkpt>
      <trkpt lat="43.254227" lon="-5.1285577">
        <ele>275.0</ele>
        <time>2020-11-01T12:57:29Z</time>
      </trkpt>
      <trkpt lat="43.25422" lon="-5.1285496">
        <ele>275.0</ele>
        <time>2020-11-01T12:57:30Z</time>
      </trkpt>
      <trkpt lat="43.254215" lon="-5.128539">
        <ele>275.0</ele>
        <time>2020-11-01T12:57:31Z</time>
      </trkpt>
      <trkpt lat="43.254204" lon="-5.1285276">
        <ele>275.0</ele>
        <time>2020-11-01T12:57:32Z</time>
      </trkpt>
      <trkpt lat="43.2542" lon="-5.128517">
        <ele>274.0</ele>
        <time>2020-11-01T12:57:33Z</time>
      </trkpt>
      <trkpt lat="43.254196" lon="-5.12851">
        <ele>274.0</ele>
        <time>2020-11-01T12:57:34Z</time>
      </trkpt>
      <trkpt lat="43.254185" lon="-5.1285033">
        <ele>274.0</ele>
        <time>2020-11-01T12:57:35Z</time>
      </trkpt>
      <trkpt lat="43.254173" lon="-5.1284966">
        <ele>274.0</ele>
        <time>2020-11-01T12:57:37Z</time>
      </trkpt>
      <trkpt lat="43.254166" lon="-5.128489">
        <ele>274.0</ele>
        <time>2020-11-01T12:57:37Z</time>
      </trkpt>
      <trkpt lat="43.254158" lon="-5.12848">
        <ele>274.0</ele>
        <time>2020-11-01T12:57:38Z</time>
      </trkpt>
      <trkpt lat="43.25415" lon="-5.128467">
        <ele>274.0</ele>
        <time>2020-11-01T12:57:39Z</time>
      </trkpt>
      <trkpt lat="43.25414" lon="-5.128455">
        <ele>273.0</ele>
        <time>2020-11-01T12:57:40Z</time>
      </trkpt>
      <trkpt lat="43.254135" lon="-5.1284437">
        <ele>273.0</ele>
        <time>2020-11-01T12:57:41Z</time>
      </trkpt>
      <trkpt lat="43.254124" lon="-5.128434">
        <ele>273.0</ele>
        <time>2020-11-01T12:57:42Z</time>
      </trkpt>
      <trkpt lat="43.254112" lon="-5.128426">
        <ele>273.0</ele>
        <time>2020-11-01T12:57:43Z</time>
      </trkpt>
      <trkpt lat="43.25411" lon="-5.128418">
        <ele>273.0</ele>
        <time>2020-11-01T12:57:45Z</time>
      </trkpt>
      <trkpt lat="43.254097" lon="-5.1284103">
        <ele>273.0</ele>
        <time>2020-11-01T12:57:45Z</time>
      </trkpt>
      <trkpt lat="43.25409" lon="-5.1284084">
        <ele>273.0</ele>
        <time>2020-11-01T12:57:46Z</time>
      </trkpt>
      <trkpt lat="43.254074" lon="-5.128409">
        <ele>273.0</ele>
        <time>2020-11-01T12:57:47Z</time>
      </trkpt>
      <trkpt lat="43.254063" lon="-5.1284075">
        <ele>273.0</ele>
        <time>2020-11-01T12:57:48Z</time>
      </trkpt>
      <trkpt lat="43.25405" lon="-5.128406">
        <ele>272.0</ele>
        <time>2020-11-01T12:57:49Z</time>
      </trkpt>
      <trkpt lat="43.25404" lon="-5.1284056">
        <ele>272.0</ele>
        <time>2020-11-01T12:57:50Z</time>
      </trkpt>
      <trkpt lat="43.254032" lon="-5.128403">
        <ele>272.0</ele>
        <time>2020-11-01T12:57:51Z</time>
      </trkpt>
      <trkpt lat="43.254025" lon="-5.128399">
        <ele>272.0</ele>
        <time>2020-11-01T12:57:52Z</time>
      </trkpt>
      <trkpt lat="43.254017" lon="-5.128392">
        <ele>272.0</ele>
        <time>2020-11-01T12:57:53Z</time>
      </trkpt>
      <trkpt lat="43.25401" lon="-5.128384">
        <ele>272.0</ele>
        <time>2020-11-01T12:57:54Z</time>
      </trkpt>
      <trkpt lat="43.254005" lon="-5.1283746">
        <ele>272.0</ele>
        <time>2020-11-01T12:57:55Z</time>
      </trkpt>
      <trkpt lat="43.253994" lon="-5.1283627">
        <ele>272.0</ele>
        <time>2020-11-01T12:57:56Z</time>
      </trkpt>
      <trkpt lat="43.253975" lon="-5.1283336">
        <ele>272.0</ele>
        <time>2020-11-01T12:57:59Z</time>
      </trkpt>
      <trkpt lat="43.25397" lon="-5.1283326">
        <ele>272.0</ele>
        <time>2020-11-01T12:58:01Z</time>
      </trkpt>
      <trkpt lat="43.253963" lon="-5.1283307">
        <ele>272.0</ele>
        <time>2020-11-01T12:58:01Z</time>
      </trkpt>
      <trkpt lat="43.25396" lon="-5.128329">
        <ele>272.0</ele>
        <time>2020-11-01T12:58:02Z</time>
      </trkpt>
      <trkpt lat="43.25395" lon="-5.128325">
        <ele>271.0</ele>
        <time>2020-11-01T12:58:03Z</time>
      </trkpt>
      <trkpt lat="43.25394" lon="-5.1283183">
        <ele>271.0</ele>
        <time>2020-11-01T12:58:04Z</time>
      </trkpt>
      <trkpt lat="43.25393" lon="-5.12831">
        <ele>271.0</ele>
        <time>2020-11-01T12:58:05Z</time>
      </trkpt>
      <trkpt lat="43.253918" lon="-5.1283026">
        <ele>271.0</ele>
        <time>2020-11-01T12:58:06Z</time>
      </trkpt>
      <trkpt lat="43.253914" lon="-5.128293">
        <ele>271.0</ele>
        <time>2020-11-01T12:58:07Z</time>
      </trkpt>
      <trkpt lat="43.25391" lon="-5.128281">
        <ele>271.0</ele>
        <time>2020-11-01T12:58:08Z</time>
      </trkpt>
      <trkpt lat="43.25391" lon="-5.1282682">
        <ele>270.0</ele>
        <time>2020-11-01T12:58:09Z</time>
      </trkpt>
      <trkpt lat="43.253902" lon="-5.128254">
        <ele>270.0</ele>
        <time>2020-11-01T12:58:10Z</time>
      </trkpt>
      <trkpt lat="43.2539" lon="-5.1282396">
        <ele>270.0</ele>
        <time>2020-11-01T12:58:11Z</time>
      </trkpt>
      <trkpt lat="43.253895" lon="-5.128226">
        <ele>270.0</ele>
        <time>2020-11-01T12:58:12Z</time>
      </trkpt>
      <trkpt lat="43.253883" lon="-5.128214">
        <ele>270.0</ele>
        <time>2020-11-01T12:58:13Z</time>
      </trkpt>
      <trkpt lat="43.25388" lon="-5.1282005">
        <ele>270.0</ele>
        <time>2020-11-01T12:58:14Z</time>
      </trkpt>
      <trkpt lat="43.253872" lon="-5.128188">
        <ele>269.0</ele>
        <time>2020-11-01T12:58:16Z</time>
      </trkpt>
      <trkpt lat="43.253864" lon="-5.1281753">
        <ele>269.0</ele>
        <time>2020-11-01T12:58:16Z</time>
      </trkpt>
      <trkpt lat="43.253857" lon="-5.1281624">
        <ele>269.0</ele>
        <time>2020-11-01T12:58:17Z</time>
      </trkpt>
      <trkpt lat="43.253853" lon="-5.1281476">
        <ele>269.0</ele>
        <time>2020-11-01T12:58:18Z</time>
      </trkpt>
      <trkpt lat="43.253853" lon="-5.1281343">
        <ele>269.0</ele>
        <time>2020-11-01T12:58:19Z</time>
      </trkpt>
      <trkpt lat="43.253845" lon="-5.1281223">
        <ele>268.0</ele>
        <time>2020-11-01T12:58:20Z</time>
      </trkpt>
      <trkpt lat="43.253838" lon="-5.128111">
        <ele>268.0</ele>
        <time>2020-11-01T12:58:21Z</time>
      </trkpt>
      <trkpt lat="43.25383" lon="-5.128099">
        <ele>268.0</ele>
        <time>2020-11-01T12:58:22Z</time>
      </trkpt>
      <trkpt lat="43.253822" lon="-5.1280866">
        <ele>268.0</ele>
        <time>2020-11-01T12:58:23Z</time>
      </trkpt>
      <trkpt lat="43.25381" lon="-5.128076">
        <ele>268.0</ele>
        <time>2020-11-01T12:58:24Z</time>
      </trkpt>
      <trkpt lat="43.253807" lon="-5.128064">
        <ele>267.0</ele>
        <time>2020-11-01T12:58:25Z</time>
      </trkpt>
      <trkpt lat="43.253796" lon="-5.128051">
        <ele>267.0</ele>
        <time>2020-11-01T12:58:26Z</time>
      </trkpt>
      <trkpt lat="43.253796" lon="-5.128036">
        <ele>267.0</ele>
        <time>2020-11-01T12:58:27Z</time>
      </trkpt>
      <trkpt lat="43.25379" lon="-5.1280212">
        <ele>267.0</ele>
        <time>2020-11-01T12:58:28Z</time>
      </trkpt>
      <trkpt lat="43.25379" lon="-5.1280065">
        <ele>267.0</ele>
        <time>2020-11-01T12:58:30Z</time>
      </trkpt>
      <trkpt lat="43.253784" lon="-5.127991">
        <ele>267.0</ele>
        <time>2020-11-01T12:58:30Z</time>
      </trkpt>
      <trkpt lat="43.25378" lon="-5.1279774">
        <ele>267.0</ele>
        <time>2020-11-01T12:58:31Z</time>
      </trkpt>
      <trkpt lat="43.25378" lon="-5.1279645">
        <ele>266.0</ele>
        <time>2020-11-01T12:58:32Z</time>
      </trkpt>
      <trkpt lat="43.253777" lon="-5.1279526">
        <ele>266.0</ele>
        <time>2020-11-01T12:58:33Z</time>
      </trkpt>
      <trkpt lat="43.25377" lon="-5.1279416">
        <ele>266.0</ele>
        <time>2020-11-01T12:58:34Z</time>
      </trkpt>
      <trkpt lat="43.253765" lon="-5.1279316">
        <ele>266.0</ele>
        <time>2020-11-01T12:58:35Z</time>
      </trkpt>
      <trkpt lat="43.253765" lon="-5.1279244">
        <ele>266.0</ele>
        <time>2020-11-01T12:58:36Z</time>
      </trkpt>
      <trkpt lat="43.25376" lon="-5.1279173">
        <ele>266.0</ele>
        <time>2020-11-01T12:58:37Z</time>
      </trkpt>
      <trkpt lat="43.253754" lon="-5.12791">
        <ele>265.0</ele>
        <time>2020-11-01T12:58:38Z</time>
      </trkpt>
      <trkpt lat="43.25375" lon="-5.1278996">
        <ele>265.0</ele>
        <time>2020-11-01T12:58:39Z</time>
      </trkpt>
      <trkpt lat="43.253746" lon="-5.1278887">
        <ele>265.0</ele>
        <time>2020-11-01T12:58:40Z</time>
      </trkpt>
      <trkpt lat="43.25374" lon="-5.1278777">
        <ele>265.0</ele>
        <time>2020-11-01T12:58:41Z</time>
      </trkpt>
      <trkpt lat="43.25373" lon="-5.1278687">
        <ele>265.0</ele>
        <time>2020-11-01T12:58:42Z</time>
      </trkpt>
      <trkpt lat="43.253723" lon="-5.127861">
        <ele>264.0</ele>
        <time>2020-11-01T12:58:43Z</time>
      </trkpt>
      <trkpt lat="43.25372" lon="-5.127853">
        <ele>264.0</ele>
        <time>2020-11-01T12:58:45Z</time>
      </trkpt>
      <trkpt lat="43.253716" lon="-5.1278434">
        <ele>264.0</ele>
        <time>2020-11-01T12:58:45Z</time>
      </trkpt>
      <trkpt lat="43.253708" lon="-5.1278324">
        <ele>264.0</ele>
        <time>2020-11-01T12:58:46Z</time>
      </trkpt>
      <trkpt lat="43.253704" lon="-5.127822">
        <ele>264.0</ele>
        <time>2020-11-01T12:58:47Z</time>
      </trkpt>
      <trkpt lat="43.2537" lon="-5.127812">
        <ele>264.0</ele>
        <time>2020-11-01T12:58:48Z</time>
      </trkpt>
      <trkpt lat="43.2537" lon="-5.1277995">
        <ele>264.0</ele>
        <time>2020-11-01T12:58:49Z</time>
      </trkpt>
      <trkpt lat="43.2537" lon="-5.127785">
        <ele>264.0</ele>
        <time>2020-11-01T12:58:50Z</time>
      </trkpt>
      <trkpt lat="43.2537" lon="-5.1277714">
        <ele>264.0</ele>
        <time>2020-11-01T12:58:51Z</time>
      </trkpt>
      <trkpt lat="43.253693" lon="-5.127759">
        <ele>264.0</ele>
        <time>2020-11-01T12:58:52Z</time>
      </trkpt>
      <trkpt lat="43.253693" lon="-5.127746">
        <ele>263.0</ele>
        <time>2020-11-01T12:58:53Z</time>
      </trkpt>
      <trkpt lat="43.253693" lon="-5.127733">
        <ele>263.0</ele>
        <time>2020-11-01T12:58:54Z</time>
      </trkpt>
      <trkpt lat="43.25369" lon="-5.1277204">
        <ele>263.0</ele>
        <time>2020-11-01T12:58:55Z</time>
      </trkpt>
      <trkpt lat="43.25369" lon="-5.127706">
        <ele>263.0</ele>
        <time>2020-11-01T12:58:56Z</time>
      </trkpt>
      <trkpt lat="43.253685" lon="-5.1276927">
        <ele>263.0</ele>
        <time>2020-11-01T12:58:57Z</time>
      </trkpt>
      <trkpt lat="43.253677" lon="-5.1276784">
        <ele>263.0</ele>
        <time>2020-11-01T12:58:58Z</time>
      </trkpt>
      <trkpt lat="43.253674" lon="-5.127663">
        <ele>262.0</ele>
        <time>2020-11-01T12:59:00Z</time>
      </trkpt>
      <trkpt lat="43.25367" lon="-5.127648">
        <ele>262.0</ele>
        <time>2020-11-01T12:59:00Z</time>
      </trkpt>
      <trkpt lat="43.253662" lon="-5.1276326">
        <ele>262.0</ele>
        <time>2020-11-01T12:59:01Z</time>
      </trkpt>
      <trkpt lat="43.25366" lon="-5.127619">
        <ele>262.0</ele>
        <time>2020-11-01T12:59:02Z</time>
      </trkpt>
      <trkpt lat="43.25366" lon="-5.1276073">
        <ele>262.0</ele>
        <time>2020-11-01T12:59:03Z</time>
      </trkpt>
      <trkpt lat="43.25365" lon="-5.127598">
        <ele>262.0</ele>
        <time>2020-11-01T12:59:04Z</time>
      </trkpt>
      <trkpt lat="43.25365" lon="-5.1275883">
        <ele>261.0</ele>
        <time>2020-11-01T12:59:05Z</time>
      </trkpt>
      <trkpt lat="43.253647" lon="-5.1275806">
        <ele>261.0</ele>
        <time>2020-11-01T12:59:06Z</time>
      </trkpt>
      <trkpt lat="43.253643" lon="-5.127573">
        <ele>261.0</ele>
        <time>2020-11-01T12:59:07Z</time>
      </trkpt>
      <trkpt lat="43.253635" lon="-5.1275654">
        <ele>261.0</ele>
        <time>2020-11-01T12:59:08Z</time>
      </trkpt>
      <trkpt lat="43.253628" lon="-5.127558">
        <ele>261.0</ele>
        <time>2020-11-01T12:59:09Z</time>
      </trkpt>
      <trkpt lat="43.25362" lon="-5.12755">
        <ele>261.0</ele>
        <time>2020-11-01T12:59:10Z</time>
      </trkpt>
      <trkpt lat="43.253613" lon="-5.1275425">
        <ele>261.0</ele>
        <time>2020-11-01T12:59:11Z</time>
      </trkpt>
      <trkpt lat="43.253605" lon="-5.127533">
        <ele>260.0</ele>
        <time>2020-11-01T12:59:12Z</time>
      </trkpt>
      <trkpt lat="43.2536" lon="-5.1275206">
        <ele>260.0</ele>
        <time>2020-11-01T12:59:13Z</time>
      </trkpt>
      <trkpt lat="43.253597" lon="-5.127506">
        <ele>260.0</ele>
        <time>2020-11-01T12:59:14Z</time>
      </trkpt>
      <trkpt lat="43.25359" lon="-5.127491">
        <ele>260.0</ele>
        <time>2020-11-01T12:59:15Z</time>
      </trkpt>
      <trkpt lat="43.253586" lon="-5.1274767">
        <ele>260.0</ele>
        <time>2020-11-01T12:59:16Z</time>
      </trkpt>
      <trkpt lat="43.253574" lon="-5.12746">
        <ele>260.0</ele>
        <time>2020-11-01T12:59:17Z</time>
      </trkpt>
      <trkpt lat="43.253574" lon="-5.1274433">
        <ele>259.0</ele>
        <time>2020-11-01T12:59:18Z</time>
      </trkpt>
      <trkpt lat="43.25357" lon="-5.1274247">
        <ele>259.0</ele>
        <time>2020-11-01T12:59:19Z</time>
      </trkpt>
      <trkpt lat="43.253567" lon="-5.1274066">
        <ele>259.0</ele>
        <time>2020-11-01T12:59:21Z</time>
      </trkpt>
      <trkpt lat="43.253567" lon="-5.1273894">
        <ele>259.0</ele>
        <time>2020-11-01T12:59:21Z</time>
      </trkpt>
      <trkpt lat="43.253567" lon="-5.127375">
        <ele>259.0</ele>
        <time>2020-11-01T12:59:22Z</time>
      </trkpt>
      <trkpt lat="43.253567" lon="-5.127362">
        <ele>259.0</ele>
        <time>2020-11-01T12:59:23Z</time>
      </trkpt>
      <trkpt lat="43.253567" lon="-5.127348">
        <ele>258.0</ele>
        <time>2020-11-01T12:59:24Z</time>
      </trkpt>
      <trkpt lat="43.25357" lon="-5.1273336">
        <ele>258.0</ele>
        <time>2020-11-01T12:59:25Z</time>
      </trkpt>
      <trkpt lat="43.25357" lon="-5.127321">
        <ele>258.0</ele>
        <time>2020-11-01T12:59:26Z</time>
      </trkpt>
      <trkpt lat="43.25357" lon="-5.12731">
        <ele>258.0</ele>
        <time>2020-11-01T12:59:27Z</time>
      </trkpt>
      <trkpt lat="43.25357" lon="-5.1272993">
        <ele>258.0</ele>
        <time>2020-11-01T12:59:28Z</time>
      </trkpt>
      <trkpt lat="43.25357" lon="-5.1272874">
        <ele>258.0</ele>
        <time>2020-11-01T12:59:29Z</time>
      </trkpt>
      <trkpt lat="43.25357" lon="-5.1272764">
        <ele>258.0</ele>
        <time>2020-11-01T12:59:30Z</time>
      </trkpt>
      <trkpt lat="43.25357" lon="-5.1272674">
        <ele>258.0</ele>
        <time>2020-11-01T12:59:31Z</time>
      </trkpt>
      <trkpt lat="43.25357" lon="-5.127258">
        <ele>258.0</ele>
        <time>2020-11-01T12:59:32Z</time>
      </trkpt>
      <trkpt lat="43.253567" lon="-5.1272473">
        <ele>258.0</ele>
        <time>2020-11-01T12:59:33Z</time>
      </trkpt>
      <trkpt lat="43.253567" lon="-5.1272364">
        <ele>258.0</ele>
        <time>2020-11-01T12:59:34Z</time>
      </trkpt>
      <trkpt lat="43.253567" lon="-5.1272254">
        <ele>258.0</ele>
        <time>2020-11-01T12:59:35Z</time>
      </trkpt>
      <trkpt lat="43.25356" lon="-5.1272125">
        <ele>257.0</ele>
        <time>2020-11-01T12:59:36Z</time>
      </trkpt>
      <trkpt lat="43.253555" lon="-5.127199">
        <ele>257.0</ele>
        <time>2020-11-01T12:59:37Z</time>
      </trkpt>
      <trkpt lat="43.253555" lon="-5.127187">
        <ele>257.0</ele>
        <time>2020-11-01T12:59:38Z</time>
      </trkpt>
      <trkpt lat="43.253555" lon="-5.1271744">
        <ele>257.0</ele>
        <time>2020-11-01T12:59:39Z</time>
      </trkpt>
      <trkpt lat="43.25355" lon="-5.127162">
        <ele>257.0</ele>
        <time>2020-11-01T12:59:40Z</time>
      </trkpt>
      <trkpt lat="43.25355" lon="-5.127148">
        <ele>257.0</ele>
        <time>2020-11-01T12:59:41Z</time>
      </trkpt>
      <trkpt lat="43.25355" lon="-5.127135">
        <ele>257.0</ele>
        <time>2020-11-01T12:59:42Z</time>
      </trkpt>
      <trkpt lat="43.25355" lon="-5.127122">
        <ele>256.0</ele>
        <time>2020-11-01T12:59:44Z</time>
      </trkpt>
      <trkpt lat="43.253544" lon="-5.127109">
        <ele>256.0</ele>
        <time>2020-11-01T12:59:44Z</time>
      </trkpt>
      <trkpt lat="43.253544" lon="-5.1270976">
        <ele>256.0</ele>
        <time>2020-11-01T12:59:45Z</time>
      </trkpt>
      <trkpt lat="43.25354" lon="-5.127086">
        <ele>256.0</ele>
        <time>2020-11-01T12:59:46Z</time>
      </trkpt>
      <trkpt lat="43.25354" lon="-5.127075">
        <ele>256.0</ele>
        <time>2020-11-01T12:59:47Z</time>
      </trkpt>
      <trkpt lat="43.25354" lon="-5.1270633">
        <ele>256.0</ele>
        <time>2020-11-01T12:59:48Z</time>
      </trkpt>
      <trkpt lat="43.253536" lon="-5.127052">
        <ele>255.0</ele>
        <time>2020-11-01T12:59:49Z</time>
      </trkpt>
      <trkpt lat="43.25353" lon="-5.1270423">
        <ele>255.0</ele>
        <time>2020-11-01T12:59:50Z</time>
      </trkpt>
      <trkpt lat="43.25353" lon="-5.1270313">
        <ele>255.0</ele>
        <time>2020-11-01T12:59:51Z</time>
      </trkpt>
      <trkpt lat="43.253525" lon="-5.1270185">
        <ele>255.0</ele>
        <time>2020-11-01T12:59:51Z</time>
      </trkpt>
      <trkpt lat="43.25352" lon="-5.1270037">
        <ele>255.0</ele>
        <time>2020-11-01T12:59:52Z</time>
      </trkpt>
      <trkpt lat="43.25352" lon="-5.126988">
        <ele>254.0</ele>
        <time>2020-11-01T12:59:53Z</time>
      </trkpt>
      <trkpt lat="43.253513" lon="-5.1269736">
        <ele>254.0</ele>
        <time>2020-11-01T12:59:54Z</time>
      </trkpt>
      <trkpt lat="43.25351" lon="-5.12696">
        <ele>254.0</ele>
        <time>2020-11-01T12:59:55Z</time>
      </trkpt>
      <trkpt lat="43.253506" lon="-5.126946">
        <ele>254.0</ele>
        <time>2020-11-01T12:59:56Z</time>
      </trkpt>
      <trkpt lat="43.253506" lon="-5.1269298">
        <ele>254.0</ele>
        <time>2020-11-01T12:59:58Z</time>
      </trkpt>
      <trkpt lat="43.253498" lon="-5.126913">
        <ele>254.0</ele>
        <time>2020-11-01T12:59:58Z</time>
      </trkpt>
      <trkpt lat="43.253498" lon="-5.126898">
        <ele>254.0</ele>
        <time>2020-11-01T12:59:59Z</time>
      </trkpt>
      <trkpt lat="43.253494" lon="-5.1268835">
        <ele>253.0</ele>
        <time>2020-11-01T13:00:00Z</time>
      </trkpt>
      <trkpt lat="43.253494" lon="-5.126869">
        <ele>253.0</ele>
        <time>2020-11-01T13:00:01Z</time>
      </trkpt>
      <trkpt lat="43.253494" lon="-5.126855">
        <ele>253.0</ele>
        <time>2020-11-01T13:00:02Z</time>
      </trkpt>
      <trkpt lat="43.253494" lon="-5.1268387">
        <ele>253.0</ele>
        <time>2020-11-01T13:00:03Z</time>
      </trkpt>
      <trkpt lat="43.253494" lon="-5.126825">
        <ele>253.0</ele>
        <time>2020-11-01T13:00:04Z</time>
      </trkpt>
      <trkpt lat="43.25349" lon="-5.126813">
        <ele>253.0</ele>
        <time>2020-11-01T13:00:06Z</time>
      </trkpt>
      <trkpt lat="43.253483" lon="-5.1268">
        <ele>253.0</ele>
        <time>2020-11-01T13:00:06Z</time>
      </trkpt>
      <trkpt lat="43.25348" lon="-5.1267867">
        <ele>253.0</ele>
        <time>2020-11-01T13:00:07Z</time>
      </trkpt>
      <trkpt lat="43.25347" lon="-5.126772">
        <ele>253.0</ele>
        <time>2020-11-01T13:00:08Z</time>
      </trkpt>
      <trkpt lat="43.253464" lon="-5.1267543">
        <ele>253.0</ele>
        <time>2020-11-01T13:00:09Z</time>
      </trkpt>
      <trkpt lat="43.253456" lon="-5.1267357">
        <ele>252.0</ele>
        <time>2020-11-01T13:00:10Z</time>
      </trkpt>
      <trkpt lat="43.253452" lon="-5.1267166">
        <ele>252.0</ele>
        <time>2020-11-01T13:00:11Z</time>
      </trkpt>
      <trkpt lat="43.253452" lon="-5.1266994">
        <ele>252.0</ele>
        <time>2020-11-01T13:00:12Z</time>
      </trkpt>
      <trkpt lat="43.25345" lon="-5.1266828">
        <ele>252.0</ele>
        <time>2020-11-01T13:00:13Z</time>
      </trkpt>
      <trkpt lat="43.25345" lon="-5.126667">
        <ele>252.0</ele>
        <time>2020-11-01T13:00:14Z</time>
      </trkpt>
      <trkpt lat="43.25344" lon="-5.1266527">
        <ele>251.0</ele>
        <time>2020-11-01T13:00:15Z</time>
      </trkpt>
      <trkpt lat="43.25344" lon="-5.12664">
        <ele>251.0</ele>
        <time>2020-11-01T13:00:16Z</time>
      </trkpt>
      <trkpt lat="43.25344" lon="-5.126628">
        <ele>251.0</ele>
        <time>2020-11-01T13:00:17Z</time>
      </trkpt>
      <trkpt lat="43.253437" lon="-5.126616">
        <ele>251.0</ele>
        <time>2020-11-01T13:00:19Z</time>
      </trkpt>
      <trkpt lat="43.253437" lon="-5.1266036">
        <ele>251.0</ele>
        <time>2020-11-01T13:00:19Z</time>
      </trkpt>
      <trkpt lat="43.253433" lon="-5.126591">
        <ele>250.0</ele>
        <time>2020-11-01T13:00:20Z</time>
      </trkpt>
      <trkpt lat="43.253433" lon="-5.1265807">
        <ele>250.0</ele>
        <time>2020-11-01T13:00:21Z</time>
      </trkpt>
      <trkpt lat="43.253433" lon="-5.1265683">
        <ele>250.0</ele>
        <time>2020-11-01T13:00:22Z</time>
      </trkpt>
      <trkpt lat="43.253433" lon="-5.1265564">
        <ele>250.0</ele>
        <time>2020-11-01T13:00:23Z</time>
      </trkpt>
      <trkpt lat="43.253426" lon="-5.126542">
        <ele>250.0</ele>
        <time>2020-11-01T13:00:24Z</time>
      </trkpt>
      <trkpt lat="43.253426" lon="-5.1265297">
        <ele>249.0</ele>
        <time>2020-11-01T13:00:25Z</time>
      </trkpt>
      <trkpt lat="43.253426" lon="-5.126519">
        <ele>249.0</ele>
        <time>2020-11-01T13:00:26Z</time>
      </trkpt>
      <trkpt lat="43.253426" lon="-5.1265087">
        <ele>249.0</ele>
        <time>2020-11-01T13:00:27Z</time>
      </trkpt>
      <trkpt lat="43.253433" lon="-5.126498">
        <ele>249.0</ele>
        <time>2020-11-01T13:00:28Z</time>
      </trkpt>
      <trkpt lat="43.253433" lon="-5.1264863">
        <ele>249.0</ele>
        <time>2020-11-01T13:00:29Z</time>
      </trkpt>
      <trkpt lat="43.253437" lon="-5.1264744">
        <ele>249.0</ele>
        <time>2020-11-01T13:00:30Z</time>
      </trkpt>
      <trkpt lat="43.253437" lon="-5.1264625">
        <ele>248.0</ele>
        <time>2020-11-01T13:00:31Z</time>
      </trkpt>
      <trkpt lat="43.25344" lon="-5.126451">
        <ele>248.0</ele>
        <time>2020-11-01T13:00:32Z</time>
      </trkpt>
      <trkpt lat="43.25345" lon="-5.1264377">
        <ele>248.0</ele>
        <time>2020-11-01T13:00:34Z</time>
      </trkpt>
      <trkpt lat="43.25345" lon="-5.1264243">
        <ele>248.0</ele>
        <time>2020-11-01T13:00:34Z</time>
      </trkpt>
      <trkpt lat="43.253452" lon="-5.126412">
        <ele>248.0</ele>
        <time>2020-11-01T13:00:35Z</time>
      </trkpt>
      <trkpt lat="43.253452" lon="-5.1263995">
        <ele>248.0</ele>
        <time>2020-11-01T13:00:36Z</time>
      </trkpt>
      <trkpt lat="43.253456" lon="-5.126386">
        <ele>248.0</ele>
        <time>2020-11-01T13:00:37Z</time>
      </trkpt>
      <trkpt lat="43.253456" lon="-5.1263742">
        <ele>248.0</ele>
        <time>2020-11-01T13:00:38Z</time>
      </trkpt>
      <trkpt lat="43.253456" lon="-5.1263638">
        <ele>248.0</ele>
        <time>2020-11-01T13:00:39Z</time>
      </trkpt>
      <trkpt lat="43.253456" lon="-5.1263547">
        <ele>248.0</ele>
        <time>2020-11-01T13:00:40Z</time>
      </trkpt>
      <trkpt lat="43.253456" lon="-5.1263447">
        <ele>247.0</ele>
        <time>2020-11-01T13:00:41Z</time>
      </trkpt>
      <trkpt lat="43.253456" lon="-5.126334">
        <ele>247.0</ele>
        <time>2020-11-01T13:00:42Z</time>
      </trkpt>
      <trkpt lat="43.253464" lon="-5.126322">
        <ele>247.0</ele>
        <time>2020-11-01T13:00:43Z</time>
      </trkpt>
      <trkpt lat="43.253468" lon="-5.126308">
        <ele>247.0</ele>
        <time>2020-11-01T13:00:44Z</time>
      </trkpt>
      <trkpt lat="43.253468" lon="-5.1262937">
        <ele>247.0</ele>
        <time>2020-11-01T13:00:45Z</time>
      </trkpt>
      <trkpt lat="43.253468" lon="-5.1262803">
        <ele>247.0</ele>
        <time>2020-11-01T13:00:46Z</time>
      </trkpt>
      <trkpt lat="43.253468" lon="-5.1262665">
        <ele>246.0</ele>
        <time>2020-11-01T13:00:47Z</time>
      </trkpt>
      <trkpt lat="43.253464" lon="-5.1262555">
        <ele>246.0</ele>
        <time>2020-11-01T13:00:49Z</time>
      </trkpt>
      <trkpt lat="43.253464" lon="-5.1262436">
        <ele>246.0</ele>
        <time>2020-11-01T13:00:49Z</time>
      </trkpt>
      <trkpt lat="43.253456" lon="-5.1262302">
        <ele>246.0</ele>
        <time>2020-11-01T13:00:50Z</time>
      </trkpt>
      <trkpt lat="43.253456" lon="-5.126218">
        <ele>246.0</ele>
        <time>2020-11-01T13:00:51Z</time>
      </trkpt>
      <trkpt lat="43.253456" lon="-5.126204">
        <ele>246.0</ele>
        <time>2020-11-01T13:00:52Z</time>
      </trkpt>
      <trkpt lat="43.253456" lon="-5.1261907">
        <ele>246.0</ele>
        <time>2020-11-01T13:00:53Z</time>
      </trkpt>
      <trkpt lat="43.253452" lon="-5.126175">
        <ele>245.0</ele>
        <time>2020-11-01T13:00:54Z</time>
      </trkpt>
      <trkpt lat="43.253452" lon="-5.12616">
        <ele>245.0</ele>
        <time>2020-11-01T13:00:55Z</time>
      </trkpt>
      <trkpt lat="43.25345" lon="-5.126146">
        <ele>245.0</ele>
        <time>2020-11-01T13:00:56Z</time>
      </trkpt>
      <trkpt lat="43.25344" lon="-5.1261325">
        <ele>245.0</ele>
        <time>2020-11-01T13:00:57Z</time>
      </trkpt>
      <trkpt lat="43.253437" lon="-5.126121">
        <ele>245.0</ele>
        <time>2020-11-01T13:00:58Z</time>
      </trkpt>
      <trkpt lat="43.253433" lon="-5.12611">
        <ele>245.0</ele>
        <time>2020-11-01T13:00:59Z</time>
      </trkpt>
      <trkpt lat="43.253426" lon="-5.126098">
        <ele>245.0</ele>
        <time>2020-11-01T13:01:00Z</time>
      </trkpt>
      <trkpt lat="43.25342" lon="-5.1260867">
        <ele>245.0</ele>
        <time>2020-11-01T13:01:01Z</time>
      </trkpt>
      <trkpt lat="43.25341" lon="-5.1260767">
        <ele>245.0</ele>
        <time>2020-11-01T13:01:02Z</time>
      </trkpt>
      <trkpt lat="43.253407" lon="-5.1260676">
        <ele>245.0</ele>
        <time>2020-11-01T13:01:03Z</time>
      </trkpt>
      <trkpt lat="43.253395" lon="-5.12606">
        <ele>245.0</ele>
        <time>2020-11-01T13:01:04Z</time>
      </trkpt>
      <trkpt lat="43.25339" lon="-5.126054">
        <ele>245.0</ele>
        <time>2020-11-01T13:01:05Z</time>
      </trkpt>
      <trkpt lat="43.25338" lon="-5.1260476">
        <ele>245.0</ele>
        <time>2020-11-01T13:01:06Z</time>
      </trkpt>
      <trkpt lat="43.25338" lon="-5.125888">
        <ele>245.0</ele>
        <time>2020-11-01T13:03:14Z</time>
      </trkpt>
      <trkpt lat="43.253387" lon="-5.125874">
        <ele>245.0</ele>
        <time>2020-11-01T13:03:21Z</time>
      </trkpt>
      <trkpt lat="43.253387" lon="-5.12587">
        <ele>245.0</ele>
        <time>2020-11-01T13:03:22Z</time>
      </trkpt>
      <trkpt lat="43.25339" lon="-5.1258626">
        <ele>245.0</ele>
        <time>2020-11-01T13:03:23Z</time>
      </trkpt>
      <trkpt lat="43.253395" lon="-5.1258526">
        <ele>245.0</ele>
        <time>2020-11-01T13:03:24Z</time>
      </trkpt>
      <trkpt lat="43.253407" lon="-5.125841">
        <ele>245.0</ele>
        <time>2020-11-01T13:03:25Z</time>
      </trkpt>
      <trkpt lat="43.25341" lon="-5.125829">
        <ele>245.0</ele>
        <time>2020-11-01T13:03:26Z</time>
      </trkpt>
      <trkpt lat="43.25342" lon="-5.125816">
        <ele>245.0</ele>
        <time>2020-11-01T13:03:27Z</time>
      </trkpt>
      <trkpt lat="43.253426" lon="-5.1258025">
        <ele>245.0</ele>
        <time>2020-11-01T13:03:28Z</time>
      </trkpt>
      <trkpt lat="43.253437" lon="-5.12579">
        <ele>245.0</ele>
        <time>2020-11-01T13:03:29Z</time>
      </trkpt>
      <trkpt lat="43.25344" lon="-5.1257777">
        <ele>245.0</ele>
        <time>2020-11-01T13:03:30Z</time>
      </trkpt>
      <trkpt lat="43.25345" lon="-5.1257677">
        <ele>245.0</ele>
        <time>2020-11-01T13:03:31Z</time>
      </trkpt>
      <trkpt lat="43.253452" lon="-5.125759">
        <ele>245.0</ele>
        <time>2020-11-01T13:03:32Z</time>
      </trkpt>
      <trkpt lat="43.253456" lon="-5.1257496">
        <ele>245.0</ele>
        <time>2020-11-01T13:03:33Z</time>
      </trkpt>
      <trkpt lat="43.253468" lon="-5.125742">
        <ele>245.0</ele>
        <time>2020-11-01T13:03:34Z</time>
      </trkpt>
      <trkpt lat="43.25347" lon="-5.125735">
        <ele>245.0</ele>
        <time>2020-11-01T13:03:35Z</time>
      </trkpt>
      <trkpt lat="43.25348" lon="-5.125731">
        <ele>245.0</ele>
        <time>2020-11-01T13:03:36Z</time>
      </trkpt>
      <trkpt lat="43.253483" lon="-5.125728">
        <ele>245.0</ele>
        <time>2020-11-01T13:03:38Z</time>
      </trkpt>
      <trkpt lat="43.25349" lon="-5.1257257">
        <ele>245.0</ele>
        <time>2020-11-01T13:03:38Z</time>
      </trkpt>
      <trkpt lat="43.253494" lon="-5.125724">
        <ele>245.0</ele>
        <time>2020-11-01T13:03:39Z</time>
      </trkpt>
      <trkpt lat="43.253506" lon="-5.12572">
        <ele>245.0</ele>
        <time>2020-11-01T13:03:40Z</time>
      </trkpt>
      <trkpt lat="43.25351" lon="-5.125715">
        <ele>245.0</ele>
        <time>2020-11-01T13:03:41Z</time>
      </trkpt>
      <trkpt lat="43.253513" lon="-5.1257105">
        <ele>245.0</ele>
        <time>2020-11-01T13:03:42Z</time>
      </trkpt>
      <trkpt lat="43.25352" lon="-5.1257057">
        <ele>245.0</ele>
        <time>2020-11-01T13:03:43Z</time>
      </trkpt>
      <trkpt lat="43.253525" lon="-5.125702">
        <ele>245.0</ele>
        <time>2020-11-01T13:03:44Z</time>
      </trkpt>
      <trkpt lat="43.25353" lon="-5.125698">
        <ele>245.0</ele>
        <time>2020-11-01T13:03:45Z</time>
      </trkpt>
      <trkpt lat="43.253536" lon="-5.1256933">
        <ele>245.0</ele>
        <time>2020-11-01T13:03:46Z</time>
      </trkpt>
      <trkpt lat="43.25354" lon="-5.1256886">
        <ele>245.0</ele>
        <time>2020-11-01T13:03:47Z</time>
      </trkpt>
      <trkpt lat="43.25355" lon="-5.1256833">
        <ele>245.0</ele>
        <time>2020-11-01T13:03:48Z</time>
      </trkpt>
      <trkpt lat="43.253555" lon="-5.1256766">
        <ele>245.0</ele>
        <time>2020-11-01T13:03:49Z</time>
      </trkpt>
      <trkpt lat="43.25356" lon="-5.1256685">
        <ele>245.0</ele>
        <time>2020-11-01T13:03:50Z</time>
      </trkpt>
      <trkpt lat="43.253567" lon="-5.125661">
        <ele>245.0</ele>
        <time>2020-11-01T13:03:51Z</time>
      </trkpt>
      <trkpt lat="43.25357" lon="-5.1256533">
        <ele>245.0</ele>
        <time>2020-11-01T13:03:53Z</time>
      </trkpt>
      <trkpt lat="43.253574" lon="-5.125647">
        <ele>245.0</ele>
        <time>2020-11-01T13:03:53Z</time>
      </trkpt>
      <trkpt lat="43.253582" lon="-5.125643">
        <ele>245.0</ele>
        <time>2020-11-01T13:03:54Z</time>
      </trkpt>
      <trkpt lat="43.253586" lon="-5.125637">
        <ele>245.0</ele>
        <time>2020-11-01T13:03:55Z</time>
      </trkpt>
      <trkpt lat="43.25359" lon="-5.12563">
        <ele>245.0</ele>
        <time>2020-11-01T13:03:56Z</time>
      </trkpt>
      <trkpt lat="43.253597" lon="-5.1256223">
        <ele>245.0</ele>
        <time>2020-11-01T13:03:57Z</time>
      </trkpt>
      <trkpt lat="43.253597" lon="-5.1256146">
        <ele>245.0</ele>
        <time>2020-11-01T13:03:58Z</time>
      </trkpt>
      <trkpt lat="43.253597" lon="-5.1256084">
        <ele>245.0</ele>
        <time>2020-11-01T13:03:59Z</time>
      </trkpt>
      <trkpt lat="43.2536" lon="-5.125602">
        <ele>245.0</ele>
        <time>2020-11-01T13:04:00Z</time>
      </trkpt>
      <trkpt lat="43.2536" lon="-5.1255946">
        <ele>245.0</ele>
        <time>2020-11-01T13:04:01Z</time>
      </trkpt>
      <trkpt lat="43.2536" lon="-5.125588">
        <ele>245.0</ele>
        <time>2020-11-01T13:04:02Z</time>
      </trkpt>
      <trkpt lat="43.253605" lon="-5.1255803">
        <ele>244.0</ele>
        <time>2020-11-01T13:04:03Z</time>
      </trkpt>
      <trkpt lat="43.253613" lon="-5.1255746">
        <ele>244.0</ele>
        <time>2020-11-01T13:04:04Z</time>
      </trkpt>
      <trkpt lat="43.253616" lon="-5.1255703">
        <ele>244.0</ele>
        <time>2020-11-01T13:04:05Z</time>
      </trkpt>
      <trkpt lat="43.25362" lon="-5.125566">
        <ele>244.0</ele>
        <time>2020-11-01T13:04:06Z</time>
      </trkpt>
      <trkpt lat="43.25362" lon="-5.125556">
        <ele>244.0</ele>
        <time>2020-11-01T13:04:06Z</time>
      </trkpt>
      <trkpt lat="43.25362" lon="-5.125542">
        <ele>244.0</ele>
        <time>2020-11-01T13:04:07Z</time>
      </trkpt>
      <trkpt lat="43.253628" lon="-5.125531">
        <ele>244.0</ele>
        <time>2020-11-01T13:04:08Z</time>
      </trkpt>
      <trkpt lat="43.253628" lon="-5.125522">
        <ele>244.0</ele>
        <time>2020-11-01T13:04:09Z</time>
      </trkpt>
      <trkpt lat="43.25363" lon="-5.125514">
        <ele>244.0</ele>
        <time>2020-11-01T13:04:10Z</time>
      </trkpt>
      <trkpt lat="43.253635" lon="-5.125507">
        <ele>244.0</ele>
        <time>2020-11-01T13:04:11Z</time>
      </trkpt>
      <trkpt lat="43.253635" lon="-5.125499">
        <ele>244.0</ele>
        <time>2020-11-01T13:04:12Z</time>
      </trkpt>
      <trkpt lat="43.253643" lon="-5.1254916">
        <ele>244.0</ele>
        <time>2020-11-01T13:04:13Z</time>
      </trkpt>
      <trkpt lat="43.25365" lon="-5.125484">
        <ele>244.0</ele>
        <time>2020-11-01T13:04:14Z</time>
      </trkpt>
      <trkpt lat="43.25366" lon="-5.1254764">
        <ele>244.0</ele>
        <time>2020-11-01T13:04:15Z</time>
      </trkpt>
      <trkpt lat="43.253662" lon="-5.1254687">
        <ele>244.0</ele>
        <time>2020-11-01T13:04:16Z</time>
      </trkpt>
      <trkpt lat="43.25367" lon="-5.12546">
        <ele>244.0</ele>
        <time>2020-11-01T13:04:17Z</time>
      </trkpt>
      <trkpt lat="43.253674" lon="-5.125452">
        <ele>244.0</ele>
        <time>2020-11-01T13:04:18Z</time>
      </trkpt>
      <trkpt lat="43.253677" lon="-5.125445">
        <ele>244.0</ele>
        <time>2020-11-01T13:04:19Z</time>
      </trkpt>
      <trkpt lat="43.253685" lon="-5.12544">
        <ele>245.0</ele>
        <time>2020-11-01T13:04:21Z</time>
      </trkpt>
      <trkpt lat="43.25369" lon="-5.125438">
        <ele>245.0</ele>
        <time>2020-11-01T13:04:21Z</time>
      </trkpt>
      <trkpt lat="43.253693" lon="-5.1254363">
        <ele>245.0</ele>
        <time>2020-11-01T13:04:22Z</time>
      </trkpt>
      <trkpt lat="43.2537" lon="-5.1254344">
        <ele>245.0</ele>
        <time>2020-11-01T13:04:23Z</time>
      </trkpt>
      <trkpt lat="43.2537" lon="-5.1254306">
        <ele>245.0</ele>
        <time>2020-11-01T13:04:24Z</time>
      </trkpt>
      <trkpt lat="43.253704" lon="-5.1254234">
        <ele>245.0</ele>
        <time>2020-11-01T13:04:25Z</time>
      </trkpt>
      <trkpt lat="43.253704" lon="-5.125413">
        <ele>245.0</ele>
        <time>2020-11-01T13:04:26Z</time>
      </trkpt>
      <trkpt lat="43.253704" lon="-5.1254034">
        <ele>245.0</ele>
        <time>2020-11-01T13:04:27Z</time>
      </trkpt>
      <trkpt lat="43.253704" lon="-5.1253924">
        <ele>245.0</ele>
        <time>2020-11-01T13:04:28Z</time>
      </trkpt>
      <trkpt lat="43.253704" lon="-5.125384">
        <ele>245.0</ele>
        <time>2020-11-01T13:04:29Z</time>
      </trkpt>
      <trkpt lat="43.253708" lon="-5.125376">
        <ele>245.0</ele>
        <time>2020-11-01T13:04:30Z</time>
      </trkpt>
      <trkpt lat="43.253708" lon="-5.125368">
        <ele>245.0</ele>
        <time>2020-11-01T13:04:31Z</time>
      </trkpt>
      <trkpt lat="43.253716" lon="-5.1253614">
        <ele>245.0</ele>
        <time>2020-11-01T13:04:32Z</time>
      </trkpt>
      <trkpt lat="43.25372" lon="-5.125356">
        <ele>245.0</ele>
        <time>2020-11-01T13:04:33Z</time>
      </trkpt>
      <trkpt lat="43.253723" lon="-5.1253505">
        <ele>245.0</ele>
        <time>2020-11-01T13:04:34Z</time>
      </trkpt>
      <trkpt lat="43.25373" lon="-5.1253448">
        <ele>245.0</ele>
        <time>2020-11-01T13:04:35Z</time>
      </trkpt>
      <trkpt lat="43.25374" lon="-5.1253333">
        <ele>245.0</ele>
        <time>2020-11-01T13:04:37Z</time>
      </trkpt>
      <trkpt lat="43.253746" lon="-5.1253314">
        <ele>245.0</ele>
        <time>2020-11-01T13:04:38Z</time>
      </trkpt>
      <trkpt lat="43.253746" lon="-5.1253276">
        <ele>245.0</ele>
        <time>2020-11-01T13:04:39Z</time>
      </trkpt>
      <trkpt lat="43.253746" lon="-5.125323">
        <ele>245.0</ele>
        <time>2020-11-01T13:04:40Z</time>
      </trkpt>
      <trkpt lat="43.25375" lon="-5.1253147">
        <ele>245.0</ele>
        <time>2020-11-01T13:04:43Z</time>
      </trkpt>
      <trkpt lat="43.25375" lon="-5.1253157">
        <ele>245.0</ele>
        <time>2020-11-01T13:04:44Z</time>
      </trkpt>
      <trkpt lat="43.253754" lon="-5.1253185">
        <ele>245.0</ele>
        <time>2020-11-01T13:04:46Z</time>
      </trkpt>
      <trkpt lat="43.25376" lon="-5.1253166">
        <ele>245.0</ele>
        <time>2020-11-01T13:04:46Z</time>
      </trkpt>
      <trkpt lat="43.253765" lon="-5.125314">
        <ele>245.0</ele>
        <time>2020-11-01T13:04:47Z</time>
      </trkpt>
      <trkpt lat="43.253765" lon="-5.1253133">
        <ele>245.0</ele>
        <time>2020-11-01T13:04:48Z</time>
      </trkpt>
      <trkpt lat="43.25377" lon="-5.125312">
        <ele>245.0</ele>
        <time>2020-11-01T13:04:49Z</time>
      </trkpt>
      <trkpt lat="43.25377" lon="-5.125298">
        <ele>245.0</ele>
        <time>2020-11-01T13:05:21Z</time>
      </trkpt>
      <trkpt lat="43.25377" lon="-5.125295">
        <ele>245.0</ele>
        <time>2020-11-01T13:05:22Z</time>
      </trkpt>
      <trkpt lat="43.253765" lon="-5.1252813">
        <ele>245.0</ele>
        <time>2020-11-01T13:05:26Z</time>
      </trkpt>
      <trkpt lat="43.25376" lon="-5.12527">
        <ele>245.0</ele>
        <time>2020-11-01T13:05:39Z</time>
      </trkpt>
      <trkpt lat="43.25376" lon="-5.1252646">
        <ele>245.0</ele>
        <time>2020-11-01T13:05:41Z</time>
      </trkpt>
      <trkpt lat="43.253765" lon="-5.125253">
        <ele>245.0</ele>
        <time>2020-11-01T13:06:13Z</time>
      </trkpt>
      <trkpt lat="43.25376" lon="-5.1252494">
        <ele>245.0</ele>
        <time>2020-11-01T13:06:15Z</time>
      </trkpt>
      <trkpt lat="43.25376" lon="-5.12524">
        <ele>245.0</ele>
        <time>2020-11-01T13:06:29Z</time>
      </trkpt>
      <trkpt lat="43.25376" lon="-5.125239">
        <ele>245.0</ele>
        <time>2020-11-01T13:06:30Z</time>
      </trkpt>
      <trkpt lat="43.253765" lon="-5.125233">
        <ele>245.0</ele>
        <time>2020-11-01T13:06:32Z</time>
      </trkpt>
      <trkpt lat="43.253765" lon="-5.125232">
        <ele>245.0</ele>
        <time>2020-11-01T13:06:34Z</time>
      </trkpt>
      <trkpt lat="43.253765" lon="-5.1252303">
        <ele>245.0</ele>
        <time>2020-11-01T13:06:34Z</time>
      </trkpt>
      <trkpt lat="43.253765" lon="-5.1252275">
        <ele>245.0</ele>
        <time>2020-11-01T13:06:35Z</time>
      </trkpt>
      <trkpt lat="43.253765" lon="-5.125224">
        <ele>245.0</ele>
        <time>2020-11-01T13:06:36Z</time>
      </trkpt>
      <trkpt lat="43.25377" lon="-5.125213">
        <ele>245.0</ele>
        <time>2020-11-01T13:06:38Z</time>
      </trkpt>
      <trkpt lat="43.25377" lon="-5.125212">
        <ele>245.0</ele>
        <time>2020-11-01T13:06:39Z</time>
      </trkpt>
      <trkpt lat="43.25377" lon="-5.125201">
        <ele>245.0</ele>
        <time>2020-11-01T13:06:44Z</time>
      </trkpt>
      <trkpt lat="43.253777" lon="-5.125191">
        <ele>245.0</ele>
        <time>2020-11-01T13:06:46Z</time>
      </trkpt>
      <trkpt lat="43.253777" lon="-5.1251874">
        <ele>245.0</ele>
        <time>2020-11-01T13:06:47Z</time>
      </trkpt>
      <trkpt lat="43.25378" lon="-5.1251817">
        <ele>245.0</ele>
        <time>2020-11-01T13:06:48Z</time>
      </trkpt>
      <trkpt lat="43.253784" lon="-5.1251736">
        <ele>245.0</ele>
        <time>2020-11-01T13:06:49Z</time>
      </trkpt>
      <trkpt lat="43.25379" lon="-5.125165">
        <ele>245.0</ele>
        <time>2020-11-01T13:06:50Z</time>
      </trkpt>
      <trkpt lat="43.25379" lon="-5.1251545">
        <ele>245.0</ele>
        <time>2020-11-01T13:06:51Z</time>
      </trkpt>
      <trkpt lat="43.25379" lon="-5.1251416">
        <ele>245.0</ele>
        <time>2020-11-01T13:06:52Z</time>
      </trkpt>
      <trkpt lat="43.25379" lon="-5.1251287">
        <ele>245.0</ele>
        <time>2020-11-01T13:06:53Z</time>
      </trkpt>
      <trkpt lat="43.253796" lon="-5.1251154">
        <ele>245.0</ele>
        <time>2020-11-01T13:06:54Z</time>
      </trkpt>
      <trkpt lat="43.2538" lon="-5.1251025">
        <ele>245.0</ele>
        <time>2020-11-01T13:06:55Z</time>
      </trkpt>
      <trkpt lat="43.253807" lon="-5.1250944">
        <ele>245.0</ele>
        <time>2020-11-01T13:06:56Z</time>
      </trkpt>
      <trkpt lat="43.25381" lon="-5.1250887">
        <ele>245.0</ele>
        <time>2020-11-01T13:06:57Z</time>
      </trkpt>
      <trkpt lat="43.25381" lon="-5.125082">
        <ele>245.0</ele>
        <time>2020-11-01T13:06:58Z</time>
      </trkpt>
      <trkpt lat="43.253815" lon="-5.1250744">
        <ele>245.0</ele>
        <time>2020-11-01T13:06:59Z</time>
      </trkpt>
      <trkpt lat="43.253822" lon="-5.125064">
        <ele>245.0</ele>
        <time>2020-11-01T13:07:00Z</time>
      </trkpt>
      <trkpt lat="43.253826" lon="-5.125054">
        <ele>245.0</ele>
        <time>2020-11-01T13:07:01Z</time>
      </trkpt>
      <trkpt lat="43.253838" lon="-5.125041">
        <ele>245.0</ele>
        <time>2020-11-01T13:07:02Z</time>
      </trkpt>
      <trkpt lat="43.25384" lon="-5.12503">
        <ele>245.0</ele>
        <time>2020-11-01T13:07:03Z</time>
      </trkpt>
      <trkpt lat="43.253853" lon="-5.125023">
        <ele>245.0</ele>
        <time>2020-11-01T13:07:04Z</time>
      </trkpt>
      <trkpt lat="43.253857" lon="-5.1250176">
        <ele>245.0</ele>
        <time>2020-11-01T13:07:05Z</time>
      </trkpt>
      <trkpt lat="43.253864" lon="-5.125013">
        <ele>245.0</ele>
        <time>2020-11-01T13:07:07Z</time>
      </trkpt>
      <trkpt lat="43.25387" lon="-5.1250024">
        <ele>245.0</ele>
        <time>2020-11-01T13:07:07Z</time>
      </trkpt>
      <trkpt lat="43.253872" lon="-5.1249876">
        <ele>245.0</ele>
        <time>2020-11-01T13:07:08Z</time>
      </trkpt>
      <trkpt lat="43.25388" lon="-5.1249747">
        <ele>245.0</ele>
        <time>2020-11-01T13:07:09Z</time>
      </trkpt>
      <trkpt lat="43.253883" lon="-5.1249623">
        <ele>245.0</ele>
        <time>2020-11-01T13:07:10Z</time>
      </trkpt>
      <trkpt lat="43.253887" lon="-5.1249537">
        <ele>245.0</ele>
        <time>2020-11-01T13:07:11Z</time>
      </trkpt>
      <trkpt lat="43.253895" lon="-5.124946">
        <ele>245.0</ele>
        <time>2020-11-01T13:07:12Z</time>
      </trkpt>
      <trkpt lat="43.253902" lon="-5.1249247">
        <ele>245.0</ele>
        <time>2020-11-01T13:07:19Z</time>
      </trkpt>
      <trkpt lat="43.253902" lon="-5.1249237">
        <ele>245.0</ele>
        <time>2020-11-01T13:07:20Z</time>
      </trkpt>
      <trkpt lat="43.253902" lon="-5.124922">
        <ele>245.0</ele>
        <time>2020-11-01T13:07:21Z</time>
      </trkpt>
      <trkpt lat="43.253902" lon="-5.1249175">
        <ele>245.0</ele>
        <time>2020-11-01T13:07:22Z</time>
      </trkpt>
      <trkpt lat="43.253902" lon="-5.1249094">
        <ele>245.0</ele>
        <time>2020-11-01T13:07:24Z</time>
      </trkpt>
      <trkpt lat="43.253902" lon="-5.1249022">
        <ele>245.0</ele>
        <time>2020-11-01T13:07:24Z</time>
      </trkpt>
      <trkpt lat="43.25391" lon="-5.1248965">
        <ele>241.0</ele>
        <time>2020-11-01T13:07:25Z</time>
      </trkpt>
      <trkpt lat="43.25391" lon="-5.124891">
        <ele>241.0</ele>
        <time>2020-11-01T13:07:26Z</time>
      </trkpt>
      <trkpt lat="43.253914" lon="-5.1248856">
        <ele>241.0</ele>
        <time>2020-11-01T13:07:27Z</time>
      </trkpt>
      <trkpt lat="43.253914" lon="-5.1248794">
        <ele>241.0</ele>
        <time>2020-11-01T13:07:28Z</time>
      </trkpt>
      <trkpt lat="43.253914" lon="-5.1248736">
        <ele>241.0</ele>
        <time>2020-11-01T13:07:29Z</time>
      </trkpt>
      <trkpt lat="43.253918" lon="-5.124869">
        <ele>241.0</ele>
        <time>2020-11-01T13:07:30Z</time>
      </trkpt>
      <trkpt lat="43.253918" lon="-5.124864">
        <ele>241.0</ele>
        <time>2020-11-01T13:07:31Z</time>
      </trkpt>
      <trkpt lat="43.253925" lon="-5.12486">
        <ele>241.0</ele>
        <time>2020-11-01T13:07:32Z</time>
      </trkpt>
      <trkpt lat="43.253925" lon="-5.124855">
        <ele>241.0</ele>
        <time>2020-11-01T13:07:33Z</time>
      </trkpt>
      <trkpt lat="43.25393" lon="-5.12485">
        <ele>241.0</ele>
        <time>2020-11-01T13:07:34Z</time>
      </trkpt>
      <trkpt lat="43.253933" lon="-5.124833">
        <ele>241.0</ele>
        <time>2020-11-01T13:07:36Z</time>
      </trkpt>
      <trkpt lat="43.253933" lon="-5.124832">
        <ele>241.0</ele>
        <time>2020-11-01T13:07:37Z</time>
      </trkpt>
      <trkpt lat="43.25394" lon="-5.1248283">
        <ele>241.0</ele>
        <time>2020-11-01T13:07:38Z</time>
      </trkpt>
      <trkpt lat="43.253944" lon="-5.124825">
        <ele>241.0</ele>
        <time>2020-11-01T13:07:39Z</time>
      </trkpt>
      <trkpt lat="43.253944" lon="-5.1248198">
        <ele>241.0</ele>
        <time>2020-11-01T13:07:41Z</time>
      </trkpt>
      <trkpt lat="43.25395" lon="-5.1248155">
        <ele>241.0</ele>
        <time>2020-11-01T13:07:41Z</time>
      </trkpt>
      <trkpt lat="43.253956" lon="-5.124811">
        <ele>241.0</ele>
        <time>2020-11-01T13:07:42Z</time>
      </trkpt>
      <trkpt lat="43.253956" lon="-5.1248116">
        <ele>241.0</ele>
        <time>2020-11-01T13:07:44Z</time>
      </trkpt>
      <trkpt lat="43.253956" lon="-5.1248116">
        <ele>241.0</ele>
        <time>2020-11-01T13:07:45Z</time>
      </trkpt>
      <trkpt lat="43.253944" lon="-5.1248136">
        <ele>241.0</ele>
        <time>2020-11-01T13:07:47Z</time>
      </trkpt>
      <trkpt lat="43.25394" lon="-5.1248136">
        <ele>241.0</ele>
        <time>2020-11-01T13:07:48Z</time>
      </trkpt>
      <trkpt lat="43.25394" lon="-5.1248126">
        <ele>241.0</ele>
        <time>2020-11-01T13:07:50Z</time>
      </trkpt>
      <trkpt lat="43.25394" lon="-5.124814">
        <ele>241.0</ele>
        <time>2020-11-01T13:07:50Z</time>
      </trkpt>
      <trkpt lat="43.253944" lon="-5.1248155">
        <ele>241.0</ele>
        <time>2020-11-01T13:07:51Z</time>
      </trkpt>
      <trkpt lat="43.25395" lon="-5.1248155">
        <ele>240.0</ele>
        <time>2020-11-01T13:07:52Z</time>
      </trkpt>
      <trkpt lat="43.25395" lon="-5.124815">
        <ele>240.0</ele>
        <time>2020-11-01T13:07:53Z</time>
      </trkpt>
      <trkpt lat="43.25395" lon="-5.1248136">
        <ele>240.0</ele>
        <time>2020-11-01T13:07:54Z</time>
      </trkpt>
      <trkpt lat="43.25395" lon="-5.124807">
        <ele>240.0</ele>
        <time>2020-11-01T13:07:56Z</time>
      </trkpt>
      <trkpt lat="43.25395" lon="-5.124805">
        <ele>240.0</ele>
        <time>2020-11-01T13:07:58Z</time>
      </trkpt>
      <trkpt lat="43.25395" lon="-5.1248064">
        <ele>240.0</ele>
        <time>2020-11-01T13:07:59Z</time>
      </trkpt>
      <trkpt lat="43.25395" lon="-5.1248097">
        <ele>240.0</ele>
        <time>2020-11-01T13:08:00Z</time>
      </trkpt>
      <trkpt lat="43.25395" lon="-5.124812">
        <ele>240.0</ele>
        <time>2020-11-01T13:08:01Z</time>
      </trkpt>
      <trkpt lat="43.25395" lon="-5.1248136">
        <ele>240.0</ele>
        <time>2020-11-01T13:08:02Z</time>
      </trkpt>
      <trkpt lat="43.253956" lon="-5.124811">
        <ele>240.0</ele>
        <time>2020-11-01T13:08:03Z</time>
      </trkpt>
      <trkpt lat="43.253963" lon="-5.124805">
        <ele>240.0</ele>
        <time>2020-11-01T13:08:05Z</time>
      </trkpt>
      <trkpt lat="43.253963" lon="-5.1248016">
        <ele>240.0</ele>
        <time>2020-11-01T13:08:08Z</time>
      </trkpt>
      <trkpt lat="43.25396" lon="-5.124801">
        <ele>240.0</ele>
        <time>2020-11-01T13:08:09Z</time>
      </trkpt>
      <trkpt lat="43.25396" lon="-5.1248007">
        <ele>240.0</ele>
        <time>2020-11-01T13:08:10Z</time>
      </trkpt>
      <trkpt lat="43.253963" lon="-5.1248">
        <ele>240.0</ele>
        <time>2020-11-01T13:08:11Z</time>
      </trkpt>
      <trkpt lat="43.253963" lon="-5.1248">
        <ele>240.0</ele>
        <time>2020-11-01T13:08:13Z</time>
      </trkpt>
      <trkpt lat="43.253963" lon="-5.124799">
        <ele>240.0</ele>
        <time>2020-11-01T13:08:14Z</time>
      </trkpt>
      <trkpt lat="43.25397" lon="-5.124797">
        <ele>240.0</ele>
        <time>2020-11-01T13:08:15Z</time>
      </trkpt>
      <trkpt lat="43.253975" lon="-5.124791">
        <ele>240.0</ele>
        <time>2020-11-01T13:08:16Z</time>
      </trkpt>
      <trkpt lat="43.253975" lon="-5.124786">
        <ele>240.0</ele>
        <time>2020-11-01T13:08:17Z</time>
      </trkpt>
      <trkpt lat="43.25398" lon="-5.1247787">
        <ele>240.0</ele>
        <time>2020-11-01T13:08:18Z</time>
      </trkpt>
      <trkpt lat="43.253986" lon="-5.124771">
        <ele>240.0</ele>
        <time>2020-11-01T13:08:19Z</time>
      </trkpt>
      <trkpt lat="43.25399" lon="-5.124767">
        <ele>240.0</ele>
        <time>2020-11-01T13:08:20Z</time>
      </trkpt>
      <trkpt lat="43.253994" lon="-5.1247616">
        <ele>240.0</ele>
        <time>2020-11-01T13:08:21Z</time>
      </trkpt>
      <trkpt lat="43.254" lon="-5.124757">
        <ele>240.0</ele>
        <time>2020-11-01T13:08:21Z</time>
      </trkpt>
      <trkpt lat="43.25402" lon="-5.124735">
        <ele>240.0</ele>
        <time>2020-11-01T13:08:23Z</time>
      </trkpt>
      <trkpt lat="43.25402" lon="-5.1247325">
        <ele>240.0</ele>
        <time>2020-11-01T13:08:24Z</time>
      </trkpt>
      <trkpt lat="43.25402" lon="-5.1247272">
        <ele>240.0</ele>
        <time>2020-11-01T13:08:25Z</time>
      </trkpt>
      <trkpt lat="43.25402" lon="-5.12471">
        <ele>240.0</ele>
        <time>2020-11-01T13:08:27Z</time>
      </trkpt>
      <trkpt lat="43.25402" lon="-5.1247106">
        <ele>240.0</ele>
        <time>2020-11-01T13:08:28Z</time>
      </trkpt>
      <trkpt lat="43.25402" lon="-5.1247115">
        <ele>240.0</ele>
        <time>2020-11-01T13:08:29Z</time>
      </trkpt>
      <trkpt lat="43.25402" lon="-5.1247134">
        <ele>240.0</ele>
        <time>2020-11-01T13:08:30Z</time>
      </trkpt>
      <trkpt lat="43.25402" lon="-5.1247163">
        <ele>240.0</ele>
        <time>2020-11-01T13:08:32Z</time>
      </trkpt>
      <trkpt lat="43.25402" lon="-5.1247163">
        <ele>240.0</ele>
        <time>2020-11-01T13:08:32Z</time>
      </trkpt>
      <trkpt lat="43.25402" lon="-5.1247144">
        <ele>240.0</ele>
        <time>2020-11-01T13:08:33Z</time>
      </trkpt>
      <trkpt lat="43.25402" lon="-5.124711">
        <ele>240.0</ele>
        <time>2020-11-01T13:08:34Z</time>
      </trkpt>
      <trkpt lat="43.254025" lon="-5.124705">
        <ele>240.0</ele>
        <time>2020-11-01T13:08:35Z</time>
      </trkpt>
      <trkpt lat="43.254032" lon="-5.1246977">
        <ele>240.0</ele>
        <time>2020-11-01T13:08:36Z</time>
      </trkpt>
      <trkpt lat="43.254036" lon="-5.124692">
        <ele>240.0</ele>
        <time>2020-11-01T13:08:37Z</time>
      </trkpt>
      <trkpt lat="43.254036" lon="-5.1246862">
        <ele>240.0</ele>
        <time>2020-11-01T13:08:38Z</time>
      </trkpt>
      <trkpt lat="43.254025" lon="-5.1245418">
        <ele>240.0</ele>
        <time>2020-11-01T13:12:38Z</time>
      </trkpt>
      <trkpt lat="43.254025" lon="-5.124544">
        <ele>240.0</ele>
        <time>2020-11-01T13:12:39Z</time>
      </trkpt>
      <trkpt lat="43.254025" lon="-5.124547">
        <ele>240.0</ele>
        <time>2020-11-01T13:12:40Z</time>
      </trkpt>
      <trkpt lat="43.254032" lon="-5.124553">
        <ele>240.0</ele>
        <time>2020-11-01T13:12:42Z</time>
      </trkpt>
      <trkpt lat="43.254032" lon="-5.124551">
        <ele>240.0</ele>
        <time>2020-11-01T13:12:43Z</time>
      </trkpt>
      <trkpt lat="43.254036" lon="-5.124546">
        <ele>240.0</ele>
        <time>2020-11-01T13:12:45Z</time>
      </trkpt>
      <trkpt lat="43.254047" lon="-5.124542">
        <ele>240.0</ele>
        <time>2020-11-01T13:12:45Z</time>
      </trkpt>
      <trkpt lat="43.25405" lon="-5.1245394">
        <ele>240.0</ele>
        <time>2020-11-01T13:12:46Z</time>
      </trkpt>
      <trkpt lat="43.25406" lon="-5.1245356">
        <ele>240.0</ele>
        <time>2020-11-01T13:12:47Z</time>
      </trkpt>
      <trkpt lat="43.25406" lon="-5.124529">
        <ele>240.0</ele>
        <time>2020-11-01T13:12:48Z</time>
      </trkpt>
      <trkpt lat="43.25406" lon="-5.1245227">
        <ele>240.0</ele>
        <time>2020-11-01T13:12:49Z</time>
      </trkpt>
      <trkpt lat="43.254063" lon="-5.1245155">
        <ele>240.0</ele>
        <time>2020-11-01T13:12:50Z</time>
      </trkpt>
      <trkpt lat="43.254063" lon="-5.1245084">
        <ele>240.0</ele>
        <time>2020-11-01T13:12:51Z</time>
      </trkpt>
      <trkpt lat="43.254066" lon="-5.124502">
        <ele>240.0</ele>
        <time>2020-11-01T13:12:52Z</time>
      </trkpt>
      <trkpt lat="43.254066" lon="-5.124497">
        <ele>240.0</ele>
        <time>2020-11-01T13:12:53Z</time>
      </trkpt>
      <trkpt lat="43.254066" lon="-5.124493">
        <ele>240.0</ele>
        <time>2020-11-01T13:12:54Z</time>
      </trkpt>
      <trkpt lat="43.254066" lon="-5.124488">
        <ele>240.0</ele>
        <time>2020-11-01T13:12:55Z</time>
      </trkpt>
      <trkpt lat="43.254063" lon="-5.1244836">
        <ele>240.0</ele>
        <time>2020-11-01T13:12:56Z</time>
      </trkpt>
      <trkpt lat="43.254063" lon="-5.1244793">
        <ele>240.0</ele>
        <time>2020-11-01T13:12:57Z</time>
      </trkpt>
      <trkpt lat="43.254066" lon="-5.124475">
        <ele>240.0</ele>
        <time>2020-11-01T13:12:58Z</time>
      </trkpt>
      <trkpt lat="43.254066" lon="-5.124469">
        <ele>240.0</ele>
        <time>2020-11-01T13:12:59Z</time>
      </trkpt>
      <trkpt lat="43.254074" lon="-5.124461">
        <ele>240.0</ele>
        <time>2020-11-01T13:13:00Z</time>
      </trkpt>
      <trkpt lat="43.254078" lon="-5.1244526">
        <ele>240.0</ele>
        <time>2020-11-01T13:13:01Z</time>
      </trkpt>
      <trkpt lat="43.25408" lon="-5.1244445">
        <ele>240.0</ele>
        <time>2020-11-01T13:13:02Z</time>
      </trkpt>
      <trkpt lat="43.25409" lon="-5.124436">
        <ele>240.0</ele>
        <time>2020-11-01T13:13:03Z</time>
      </trkpt>
      <trkpt lat="43.25409" lon="-5.124427">
        <ele>240.0</ele>
        <time>2020-11-01T13:13:04Z</time>
      </trkpt>
      <trkpt lat="43.254093" lon="-5.1244183">
        <ele>240.0</ele>
        <time>2020-11-01T13:13:05Z</time>
      </trkpt>
      <trkpt lat="43.254097" lon="-5.124411">
        <ele>240.0</ele>
        <time>2020-11-01T13:13:06Z</time>
      </trkpt>
      <trkpt lat="43.254097" lon="-5.124405">
        <ele>240.0</ele>
        <time>2020-11-01T13:13:08Z</time>
      </trkpt>
      <trkpt lat="43.254097" lon="-5.1243997">
        <ele>240.0</ele>
        <time>2020-11-01T13:13:08Z</time>
      </trkpt>
      <trkpt lat="43.254105" lon="-5.1243925">
        <ele>240.0</ele>
        <time>2020-11-01T13:13:09Z</time>
      </trkpt>
      <trkpt lat="43.254105" lon="-5.1243844">
        <ele>240.0</ele>
        <time>2020-11-01T13:13:10Z</time>
      </trkpt>
      <trkpt lat="43.254105" lon="-5.1243777">
        <ele>240.0</ele>
        <time>2020-11-01T13:13:11Z</time>
      </trkpt>
      <trkpt lat="43.25411" lon="-5.124372">
        <ele>240.0</ele>
        <time>2020-11-01T13:13:12Z</time>
      </trkpt>
      <trkpt lat="43.25411" lon="-5.1243653">
        <ele>240.0</ele>
        <time>2020-11-01T13:13:13Z</time>
      </trkpt>
      <trkpt lat="43.25411" lon="-5.12436">
        <ele>240.0</ele>
        <time>2020-11-01T13:13:14Z</time>
      </trkpt>
      <trkpt lat="43.25411" lon="-5.1243544">
        <ele>240.0</ele>
        <time>2020-11-01T13:13:16Z</time>
      </trkpt>
      <trkpt lat="43.25411" lon="-5.1243486">
        <ele>240.0</ele>
        <time>2020-11-01T13:13:16Z</time>
      </trkpt>
      <trkpt lat="43.254112" lon="-5.124341">
        <ele>240.0</ele>
        <time>2020-11-01T13:13:17Z</time>
      </trkpt>
      <trkpt lat="43.25412" lon="-5.1243324">
        <ele>240.0</ele>
        <time>2020-11-01T13:13:18Z</time>
      </trkpt>
      <trkpt lat="43.254124" lon="-5.1243253">
        <ele>240.0</ele>
        <time>2020-11-01T13:13:19Z</time>
      </trkpt>
      <trkpt lat="43.254128" lon="-5.124316">
        <ele>240.0</ele>
        <time>2020-11-01T13:13:20Z</time>
      </trkpt>
      <trkpt lat="43.254135" lon="-5.124308">
        <ele>240.0</ele>
        <time>2020-11-01T13:13:21Z</time>
      </trkpt>
      <trkpt lat="43.254135" lon="-5.124299">
        <ele>240.0</ele>
        <time>2020-11-01T13:13:22Z</time>
      </trkpt>
      <trkpt lat="43.25414" lon="-5.12429">
        <ele>240.0</ele>
        <time>2020-11-01T13:13:23Z</time>
      </trkpt>
      <trkpt lat="43.25414" lon="-5.124281">
        <ele>240.0</ele>
        <time>2020-11-01T13:13:24Z</time>
      </trkpt>
      <trkpt lat="43.25414" lon="-5.1242723">
        <ele>248.0</ele>
        <time>2020-11-01T13:13:25Z</time>
      </trkpt>
      <trkpt lat="43.25414" lon="-5.1242633">
        <ele>248.0</ele>
        <time>2020-11-01T13:13:26Z</time>
      </trkpt>
      <trkpt lat="43.254143" lon="-5.124256">
        <ele>248.0</ele>
        <time>2020-11-01T13:13:27Z</time>
      </trkpt>
      <trkpt lat="43.254143" lon="-5.124251">
        <ele>248.0</ele>
        <time>2020-11-01T13:13:29Z</time>
      </trkpt>
      <trkpt lat="43.25415" lon="-5.124248">
        <ele>248.0</ele>
        <time>2020-11-01T13:13:29Z</time>
      </trkpt>
      <trkpt lat="43.254166" lon="-5.1242385">
        <ele>248.0</ele>
        <time>2020-11-01T13:13:32Z</time>
      </trkpt>
      <trkpt lat="43.254166" lon="-5.1242356">
        <ele>248.0</ele>
        <time>2020-11-01T13:13:33Z</time>
      </trkpt>
      <trkpt lat="43.25417" lon="-5.1242285">
        <ele>248.0</ele>
        <time>2020-11-01T13:13:34Z</time>
      </trkpt>
      <trkpt lat="43.25417" lon="-5.1242185">
        <ele>248.0</ele>
        <time>2020-11-01T13:13:35Z</time>
      </trkpt>
      <trkpt lat="43.254173" lon="-5.12421">
        <ele>248.0</ele>
        <time>2020-11-01T13:13:36Z</time>
      </trkpt>
      <trkpt lat="43.254173" lon="-5.124202">
        <ele>248.0</ele>
        <time>2020-11-01T13:13:37Z</time>
      </trkpt>
      <trkpt lat="43.254173" lon="-5.124195">
        <ele>248.0</ele>
        <time>2020-11-01T13:13:38Z</time>
      </trkpt>
      <trkpt lat="43.254173" lon="-5.124188">
        <ele>248.0</ele>
        <time>2020-11-01T13:13:39Z</time>
      </trkpt>
      <trkpt lat="43.25418" lon="-5.1241636">
        <ele>248.0</ele>
        <time>2020-11-01T13:13:42Z</time>
      </trkpt>
      <trkpt lat="43.25418" lon="-5.1241627">
        <ele>249.0</ele>
        <time>2020-11-01T13:13:43Z</time>
      </trkpt>
      <trkpt lat="43.25418" lon="-5.124162">
        <ele>249.0</ele>
        <time>2020-11-01T13:13:44Z</time>
      </trkpt>
      <trkpt lat="43.25418" lon="-5.124159">
        <ele>249.0</ele>
        <time>2020-11-01T13:13:45Z</time>
      </trkpt>
      <trkpt lat="43.254173" lon="-5.1241555">
        <ele>249.0</ele>
        <time>2020-11-01T13:13:46Z</time>
      </trkpt>
      <trkpt lat="43.25418" lon="-5.1241517">
        <ele>249.0</ele>
        <time>2020-11-01T13:13:47Z</time>
      </trkpt>
      <trkpt lat="43.25418" lon="-5.1241474">
        <ele>249.0</ele>
        <time>2020-11-01T13:13:48Z</time>
      </trkpt>
      <trkpt lat="43.25418" lon="-5.124143">
        <ele>250.0</ele>
        <time>2020-11-01T13:13:49Z</time>
      </trkpt>
      <trkpt lat="43.25418" lon="-5.124138">
        <ele>250.0</ele>
        <time>2020-11-01T13:13:50Z</time>
      </trkpt>
      <trkpt lat="43.25418" lon="-5.1241345">
        <ele>250.0</ele>
        <time>2020-11-01T13:13:51Z</time>
      </trkpt>
      <trkpt lat="43.254185" lon="-5.124128">
        <ele>250.0</ele>
        <time>2020-11-01T13:13:52Z</time>
      </trkpt>
      <trkpt lat="43.254185" lon="-5.1241217">
        <ele>250.0</ele>
        <time>2020-11-01T13:13:53Z</time>
      </trkpt>
      <trkpt lat="43.25419" lon="-5.124114">
        <ele>250.0</ele>
        <time>2020-11-01T13:13:54Z</time>
      </trkpt>
      <trkpt lat="43.25419" lon="-5.124097">
        <ele>250.0</ele>
        <time>2020-11-01T13:13:56Z</time>
      </trkpt>
      <trkpt lat="43.25419" lon="-5.1240964">
        <ele>250.0</ele>
        <time>2020-11-01T13:13:57Z</time>
      </trkpt>
      <trkpt lat="43.254196" lon="-5.1240945">
        <ele>250.0</ele>
        <time>2020-11-01T13:13:58Z</time>
      </trkpt>
      <trkpt lat="43.254196" lon="-5.1240926">
        <ele>250.0</ele>
        <time>2020-11-01T13:13:59Z</time>
      </trkpt>
      <trkpt lat="43.2542" lon="-5.124084">
        <ele>250.0</ele>
        <time>2020-11-01T13:14:01Z</time>
      </trkpt>
      <trkpt lat="43.2542" lon="-5.1240826">
        <ele>250.0</ele>
        <time>2020-11-01T13:14:02Z</time>
      </trkpt>
      <trkpt lat="43.2542" lon="-5.1240807">
        <ele>250.0</ele>
        <time>2020-11-01T13:14:03Z</time>
      </trkpt>
      <trkpt lat="43.2542" lon="-5.1240754">
        <ele>250.0</ele>
        <time>2020-11-01T13:14:04Z</time>
      </trkpt>
      <trkpt lat="43.254204" lon="-5.1240664">
        <ele>250.0</ele>
        <time>2020-11-01T13:14:05Z</time>
      </trkpt>
      <trkpt lat="43.254204" lon="-5.1240563">
        <ele>250.0</ele>
        <time>2020-11-01T13:14:06Z</time>
      </trkpt>
      <trkpt lat="43.25421" lon="-5.124045">
        <ele>251.0</ele>
        <time>2020-11-01T13:14:07Z</time>
      </trkpt>
      <trkpt lat="43.254215" lon="-5.1240325">
        <ele>251.0</ele>
        <time>2020-11-01T13:14:08Z</time>
      </trkpt>
      <trkpt lat="43.25422" lon="-5.1240234">
        <ele>251.0</ele>
        <time>2020-11-01T13:14:09Z</time>
      </trkpt>
      <trkpt lat="43.25422" lon="-5.124015">
        <ele>251.0</ele>
        <time>2020-11-01T13:14:10Z</time>
      </trkpt>
      <trkpt lat="43.254227" lon="-5.124008">
        <ele>251.0</ele>
        <time>2020-11-01T13:14:11Z</time>
      </trkpt>
      <trkpt lat="43.254227" lon="-5.124006">
        <ele>251.0</ele>
        <time>2020-11-01T13:14:12Z</time>
      </trkpt>
      <trkpt lat="43.25423" lon="-5.124003">
        <ele>251.0</ele>
        <time>2020-11-01T13:14:13Z</time>
      </trkpt>
      <trkpt lat="43.25423" lon="-5.1240005">
        <ele>251.0</ele>
        <time>2020-11-01T13:14:14Z</time>
      </trkpt>
      <trkpt lat="43.254242" lon="-5.1239886">
        <ele>251.0</ele>
        <time>2020-11-01T13:14:16Z</time>
      </trkpt>
      <trkpt lat="43.254246" lon="-5.1239867">
        <ele>251.0</ele>
        <time>2020-11-01T13:14:17Z</time>
      </trkpt>
      <trkpt lat="43.254253" lon="-5.123985">
        <ele>252.0</ele>
        <time>2020-11-01T13:14:18Z</time>
      </trkpt>
      <trkpt lat="43.254257" lon="-5.123979">
        <ele>252.0</ele>
        <time>2020-11-01T13:14:21Z</time>
      </trkpt>
      <trkpt lat="43.254257" lon="-5.123977">
        <ele>252.0</ele>
        <time>2020-11-01T13:14:22Z</time>
      </trkpt>
      <trkpt lat="43.254257" lon="-5.1239734">
        <ele>252.0</ele>
        <time>2020-11-01T13:14:23Z</time>
      </trkpt>
      <trkpt lat="43.254257" lon="-5.1239715">
        <ele>252.0</ele>
        <time>2020-11-01T13:14:24Z</time>
      </trkpt>
      <trkpt lat="43.254257" lon="-5.123968">
        <ele>252.0</ele>
        <time>2020-11-01T13:14:25Z</time>
      </trkpt>
      <trkpt lat="43.254257" lon="-5.123965">
        <ele>252.0</ele>
        <time>2020-11-01T13:14:26Z</time>
      </trkpt>
      <trkpt lat="43.254257" lon="-5.123962">
        <ele>252.0</ele>
        <time>2020-11-01T13:14:27Z</time>
      </trkpt>
      <trkpt lat="43.25426" lon="-5.1239586">
        <ele>252.0</ele>
        <time>2020-11-01T13:14:28Z</time>
      </trkpt>
      <trkpt lat="43.25426" lon="-5.1239557">
        <ele>252.0</ele>
        <time>2020-11-01T13:14:29Z</time>
      </trkpt>
      <trkpt lat="43.25426" lon="-5.1239457">
        <ele>252.0</ele>
        <time>2020-11-01T13:14:31Z</time>
      </trkpt>
      <trkpt lat="43.25426" lon="-5.1239448">
        <ele>252.0</ele>
        <time>2020-11-01T13:14:32Z</time>
      </trkpt>
      <trkpt lat="43.25427" lon="-5.1239305">
        <ele>252.0</ele>
        <time>2020-11-01T13:14:34Z</time>
      </trkpt>
      <trkpt lat="43.254272" lon="-5.123927">
        <ele>253.0</ele>
        <time>2020-11-01T13:14:35Z</time>
      </trkpt>
      <trkpt lat="43.254276" lon="-5.1239204">
        <ele>253.0</ele>
        <time>2020-11-01T13:14:37Z</time>
      </trkpt>
      <trkpt lat="43.254284" lon="-5.12391">
        <ele>253.0</ele>
        <time>2020-11-01T13:14:37Z</time>
      </trkpt>
      <trkpt lat="43.25429" lon="-5.1239014">
        <ele>253.0</ele>
        <time>2020-11-01T13:14:38Z</time>
      </trkpt>
      <trkpt lat="43.2543" lon="-5.1238956">
        <ele>253.0</ele>
        <time>2020-11-01T13:14:39Z</time>
      </trkpt>
      <trkpt lat="43.254303" lon="-5.1238914">
        <ele>253.0</ele>
        <time>2020-11-01T13:14:40Z</time>
      </trkpt>
      <trkpt lat="43.254307" lon="-5.1238866">
        <ele>253.0</ele>
        <time>2020-11-01T13:14:41Z</time>
      </trkpt>
      <trkpt lat="43.254314" lon="-5.123883">
        <ele>253.0</ele>
        <time>2020-11-01T13:14:42Z</time>
      </trkpt>
      <trkpt lat="43.25432" lon="-5.123881">
        <ele>253.0</ele>
        <time>2020-11-01T13:14:43Z</time>
      </trkpt>
      <trkpt lat="43.25433" lon="-5.123879">
        <ele>253.0</ele>
        <time>2020-11-01T13:14:44Z</time>
      </trkpt>
      <trkpt lat="43.254333" lon="-5.1238756">
        <ele>253.0</ele>
        <time>2020-11-01T13:14:45Z</time>
      </trkpt>
      <trkpt lat="43.254345" lon="-5.123875">
        <ele>253.0</ele>
        <time>2020-11-01T13:14:46Z</time>
      </trkpt>
      <trkpt lat="43.25435" lon="-5.1238737">
        <ele>254.0</ele>
        <time>2020-11-01T13:14:47Z</time>
      </trkpt>
      <trkpt lat="43.254353" lon="-5.1238728">
        <ele>254.0</ele>
        <time>2020-11-01T13:14:48Z</time>
      </trkpt>
      <trkpt lat="43.25436" lon="-5.12387">
        <ele>254.0</ele>
        <time>2020-11-01T13:14:49Z</time>
      </trkpt>
      <trkpt lat="43.254364" lon="-5.123865">
        <ele>254.0</ele>
        <time>2020-11-01T13:14:50Z</time>
      </trkpt>
      <trkpt lat="43.254375" lon="-5.1238585">
        <ele>254.0</ele>
        <time>2020-11-01T13:14:52Z</time>
      </trkpt>
      <trkpt lat="43.25438" lon="-5.1238537">
        <ele>254.0</ele>
        <time>2020-11-01T13:14:52Z</time>
      </trkpt>
      <trkpt lat="43.254395" lon="-5.1238437">
        <ele>254.0</ele>
        <time>2020-11-01T13:14:55Z</time>
      </trkpt>
      <trkpt lat="43.254395" lon="-5.1238427">
        <ele>254.0</ele>
        <time>2020-11-01T13:14:56Z</time>
      </trkpt>
      <trkpt lat="43.2544" lon="-5.123841">
        <ele>254.0</ele>
        <time>2020-11-01T13:14:57Z</time>
      </trkpt>
      <trkpt lat="43.25441" lon="-5.123839">
        <ele>254.0</ele>
        <time>2020-11-01T13:14:59Z</time>
      </trkpt>
      <trkpt lat="43.25441" lon="-5.123839">
        <ele>254.0</ele>
        <time>2020-11-01T13:15:01Z</time>
      </trkpt>
      <trkpt lat="43.254414" lon="-5.1238384">
        <ele>254.0</ele>
        <time>2020-11-01T13:15:01Z</time>
      </trkpt>
      <trkpt lat="43.254425" lon="-5.12384">
        <ele>255.0</ele>
        <time>2020-11-01T13:15:02Z</time>
      </trkpt>
      <trkpt lat="43.25443" lon="-5.123841">
        <ele>255.0</ele>
        <time>2020-11-01T13:15:03Z</time>
      </trkpt>
      <trkpt lat="43.25444" lon="-5.1238427">
        <ele>255.0</ele>
        <time>2020-11-01T13:15:04Z</time>
      </trkpt>
      <trkpt lat="43.25445" lon="-5.123844">
        <ele>255.0</ele>
        <time>2020-11-01T13:15:05Z</time>
      </trkpt>
      <trkpt lat="43.25445" lon="-5.123846">
        <ele>255.0</ele>
        <time>2020-11-01T13:15:06Z</time>
      </trkpt>
      <trkpt lat="43.254456" lon="-5.1238484">
        <ele>255.0</ele>
        <time>2020-11-01T13:15:07Z</time>
      </trkpt>
      <trkpt lat="43.254467" lon="-5.1238503">
        <ele>255.0</ele>
        <time>2020-11-01T13:15:09Z</time>
      </trkpt>
      <trkpt lat="43.25447" lon="-5.123851">
        <ele>255.0</ele>
        <time>2020-11-01T13:15:09Z</time>
      </trkpt>
      <trkpt lat="43.25448" lon="-5.1238503">
        <ele>255.0</ele>
        <time>2020-11-01T13:15:10Z</time>
      </trkpt>
      <trkpt lat="43.254482" lon="-5.1238527">
        <ele>255.0</ele>
        <time>2020-11-01T13:15:11Z</time>
      </trkpt>
      <trkpt lat="43.254486" lon="-5.123856">
        <ele>255.0</ele>
        <time>2020-11-01T13:15:12Z</time>
      </trkpt>
      <trkpt lat="43.254498" lon="-5.123859">
        <ele>255.0</ele>
        <time>2020-11-01T13:15:13Z</time>
      </trkpt>
      <trkpt lat="43.2545" lon="-5.1238623">
        <ele>255.0</ele>
        <time>2020-11-01T13:15:14Z</time>
      </trkpt>
      <trkpt lat="43.25451" lon="-5.123864">
        <ele>255.0</ele>
        <time>2020-11-01T13:15:15Z</time>
      </trkpt>
      <trkpt lat="43.254513" lon="-5.123867">
        <ele>255.0</ele>
        <time>2020-11-01T13:15:17Z</time>
      </trkpt>
      <trkpt lat="43.254517" lon="-5.12387">
        <ele>255.0</ele>
        <time>2020-11-01T13:15:17Z</time>
      </trkpt>
      <trkpt lat="43.254524" lon="-5.1238728">
        <ele>255.0</ele>
        <time>2020-11-01T13:15:18Z</time>
      </trkpt>
      <trkpt lat="43.254528" lon="-5.123872">
        <ele>255.0</ele>
        <time>2020-11-01T13:15:19Z</time>
      </trkpt>
      <trkpt lat="43.25454" lon="-5.123872">
        <ele>255.0</ele>
        <time>2020-11-01T13:15:20Z</time>
      </trkpt>
      <trkpt lat="43.254543" lon="-5.1238728">
        <ele>255.0</ele>
        <time>2020-11-01T13:15:21Z</time>
      </trkpt>
      <trkpt lat="43.254555" lon="-5.1238737">
        <ele>255.0</ele>
        <time>2020-11-01T13:15:22Z</time>
      </trkpt>
      <trkpt lat="43.25456" lon="-5.123872">
        <ele>255.0</ele>
        <time>2020-11-01T13:15:23Z</time>
      </trkpt>
      <trkpt lat="43.25457" lon="-5.12387">
        <ele>255.0</ele>
        <time>2020-11-01T13:15:24Z</time>
      </trkpt>
      <trkpt lat="43.254578" lon="-5.123868">
        <ele>255.0</ele>
        <time>2020-11-01T13:15:25Z</time>
      </trkpt>
      <trkpt lat="43.25459" lon="-5.123867">
        <ele>255.0</ele>
        <time>2020-11-01T13:15:26Z</time>
      </trkpt>
      <trkpt lat="43.2546" lon="-5.123865">
        <ele>255.0</ele>
        <time>2020-11-01T13:15:27Z</time>
      </trkpt>
      <trkpt lat="43.25461" lon="-5.1238623">
        <ele>255.0</ele>
        <time>2020-11-01T13:15:28Z</time>
      </trkpt>
      <trkpt lat="43.25462" lon="-5.1238594">
        <ele>255.0</ele>
        <time>2020-11-01T13:15:29Z</time>
      </trkpt>
      <trkpt lat="43.25463" lon="-5.1238565">
        <ele>255.0</ele>
        <time>2020-11-01T13:15:30Z</time>
      </trkpt>
      <trkpt lat="43.254635" lon="-5.123853">
        <ele>255.0</ele>
        <time>2020-11-01T13:15:31Z</time>
      </trkpt>
      <trkpt lat="43.254646" lon="-5.123849">
        <ele>255.0</ele>
        <time>2020-11-01T13:15:32Z</time>
      </trkpt>
      <trkpt lat="43.25465" lon="-5.1238427">
        <ele>255.0</ele>
        <time>2020-11-01T13:15:33Z</time>
      </trkpt>
      <trkpt lat="43.25466" lon="-5.123838">
        <ele>255.0</ele>
        <time>2020-11-01T13:15:34Z</time>
      </trkpt>
      <trkpt lat="43.254665" lon="-5.1238327">
        <ele>255.0</ele>
        <time>2020-11-01T13:15:35Z</time>
      </trkpt>
      <trkpt lat="43.254677" lon="-5.123825">
        <ele>255.0</ele>
        <time>2020-11-01T13:15:36Z</time>
      </trkpt>
      <trkpt lat="43.25469" lon="-5.1238165">
        <ele>255.0</ele>
        <time>2020-11-01T13:15:38Z</time>
      </trkpt>
      <trkpt lat="43.254696" lon="-5.123806">
        <ele>255.0</ele>
        <time>2020-11-01T13:15:38Z</time>
      </trkpt>
      <trkpt lat="43.254704" lon="-5.123796">
        <ele>255.0</ele>
        <time>2020-11-01T13:15:39Z</time>
      </trkpt>
      <trkpt lat="43.254707" lon="-5.1237864">
        <ele>255.0</ele>
        <time>2020-11-01T13:15:40Z</time>
      </trkpt>
      <trkpt lat="43.25471" lon="-5.123777">
        <ele>255.0</ele>
        <time>2020-11-01T13:15:41Z</time>
      </trkpt>
      <trkpt lat="43.254723" lon="-5.123768">
        <ele>255.0</ele>
        <time>2020-11-01T13:15:42Z</time>
      </trkpt>
      <trkpt lat="43.254726" lon="-5.123761">
        <ele>255.0</ele>
        <time>2020-11-01T13:15:43Z</time>
      </trkpt>
      <trkpt lat="43.254734" lon="-5.123756">
        <ele>255.0</ele>
        <time>2020-11-01T13:15:44Z</time>
      </trkpt>
      <trkpt lat="43.25474" lon="-5.123753">
        <ele>255.0</ele>
        <time>2020-11-01T13:15:45Z</time>
      </trkpt>
      <trkpt lat="43.254772" lon="-5.123736">
        <ele>255.0</ele>
        <time>2020-11-01T13:15:47Z</time>
      </trkpt>
      <trkpt lat="43.254772" lon="-5.123735">
        <ele>255.0</ele>
        <time>2020-11-01T13:15:48Z</time>
      </trkpt>
      <trkpt lat="43.25478" lon="-5.12373">
        <ele>255.0</ele>
        <time>2020-11-01T13:15:49Z</time>
      </trkpt>
      <trkpt lat="43.254787" lon="-5.123726">
        <ele>255.0</ele>
        <time>2020-11-01T13:15:50Z</time>
      </trkpt>
      <trkpt lat="43.254803" lon="-5.123721">
        <ele>255.0</ele>
        <time>2020-11-01T13:15:51Z</time>
      </trkpt>
      <trkpt lat="43.254814" lon="-5.123717">
        <ele>255.0</ele>
        <time>2020-11-01T13:15:52Z</time>
      </trkpt>
      <trkpt lat="43.254826" lon="-5.1237135">
        <ele>255.0</ele>
        <time>2020-11-01T13:15:53Z</time>
      </trkpt>
      <trkpt lat="43.254837" lon="-5.1237082">
        <ele>255.0</ele>
        <time>2020-11-01T13:15:54Z</time>
      </trkpt>
      <trkpt lat="43.25484" lon="-5.1237035">
        <ele>255.0</ele>
        <time>2020-11-01T13:15:55Z</time>
      </trkpt>
      <trkpt lat="43.254852" lon="-5.1236963">
        <ele>255.0</ele>
        <time>2020-11-01T13:15:56Z</time>
      </trkpt>
      <trkpt lat="43.25486" lon="-5.123688">
        <ele>255.0</ele>
        <time>2020-11-01T13:15:57Z</time>
      </trkpt>
      <trkpt lat="43.254868" lon="-5.123681">
        <ele>255.0</ele>
        <time>2020-11-01T13:15:58Z</time>
      </trkpt>
      <trkpt lat="43.254875" lon="-5.1236763">
        <ele>255.0</ele>
        <time>2020-11-01T13:15:59Z</time>
      </trkpt>
      <trkpt lat="43.254887" lon="-5.123671">
        <ele>255.0</ele>
        <time>2020-11-01T13:16:01Z</time>
      </trkpt>
      <trkpt lat="43.254898" lon="-5.1236653">
        <ele>255.0</ele>
        <time>2020-11-01T13:16:01Z</time>
      </trkpt>
      <trkpt lat="43.2549" lon="-5.123657">
        <ele>255.0</ele>
        <time>2020-11-01T13:16:02Z</time>
      </trkpt>
      <trkpt lat="43.254913" lon="-5.12365">
        <ele>255.0</ele>
        <time>2020-11-01T13:16:03Z</time>
      </trkpt>
      <trkpt lat="43.25492" lon="-5.1236434">
        <ele>254.0</ele>
        <time>2020-11-01T13:16:04Z</time>
      </trkpt>
      <trkpt lat="43.254932" lon="-5.1236386">
        <ele>254.0</ele>
        <time>2020-11-01T13:16:05Z</time>
      </trkpt>
      <trkpt lat="43.254944" lon="-5.123634">
        <ele>254.0</ele>
        <time>2020-11-01T13:16:06Z</time>
      </trkpt>
      <trkpt lat="43.25495" lon="-5.1236286">
        <ele>254.0</ele>
        <time>2020-11-01T13:16:07Z</time>
      </trkpt>
      <trkpt lat="43.254963" lon="-5.1236243">
        <ele>254.0</ele>
        <time>2020-11-01T13:16:08Z</time>
      </trkpt>
      <trkpt lat="43.254967" lon="-5.123622">
        <ele>254.0</ele>
        <time>2020-11-01T13:16:09Z</time>
      </trkpt>
      <trkpt lat="43.25498" lon="-5.1236186">
        <ele>253.0</ele>
        <time>2020-11-01T13:16:10Z</time>
      </trkpt>
      <trkpt lat="43.25498" lon="-5.123616">
        <ele>253.0</ele>
        <time>2020-11-01T13:16:11Z</time>
      </trkpt>
      <trkpt lat="43.254982" lon="-5.1236115">
        <ele>253.0</ele>
        <time>2020-11-01T13:16:12Z</time>
      </trkpt>
      <trkpt lat="43.254982" lon="-5.1236067">
        <ele>253.0</ele>
        <time>2020-11-01T13:16:13Z</time>
      </trkpt>
      <trkpt lat="43.25499" lon="-5.1236014">
        <ele>253.0</ele>
        <time>2020-11-01T13:16:14Z</time>
      </trkpt>
      <trkpt lat="43.25499" lon="-5.1235967">
        <ele>253.0</ele>
        <time>2020-11-01T13:16:16Z</time>
      </trkpt>
      <trkpt lat="43.25499" lon="-5.123593">
        <ele>253.0</ele>
        <time>2020-11-01T13:16:16Z</time>
      </trkpt>
      <trkpt lat="43.25501" lon="-5.1235824">
        <ele>253.0</ele>
        <time>2020-11-01T13:16:18Z</time>
      </trkpt>
      <trkpt lat="43.25501" lon="-5.123583">
        <ele>252.0</ele>
        <time>2020-11-01T13:16:19Z</time>
      </trkpt>
      <trkpt lat="43.255013" lon="-5.1235833">
        <ele>252.0</ele>
        <time>2020-11-01T13:16:20Z</time>
      </trkpt>
      <trkpt lat="43.255013" lon="-5.123584">
        <ele>252.0</ele>
        <time>2020-11-01T13:16:21Z</time>
      </trkpt>
      <trkpt lat="43.25502" lon="-5.123584">
        <ele>252.0</ele>
        <time>2020-11-01T13:16:22Z</time>
      </trkpt>
      <trkpt lat="43.25502" lon="-5.1235833">
        <ele>252.0</ele>
        <time>2020-11-01T13:16:23Z</time>
      </trkpt>
      <trkpt lat="43.255024" lon="-5.1235824">
        <ele>251.0</ele>
        <time>2020-11-01T13:16:24Z</time>
      </trkpt>
      <trkpt lat="43.25503" lon="-5.1235814">
        <ele>251.0</ele>
        <time>2020-11-01T13:16:25Z</time>
      </trkpt>
      <trkpt lat="43.255035" lon="-5.12358">
        <ele>251.0</ele>
        <time>2020-11-01T13:16:26Z</time>
      </trkpt>
      <trkpt lat="43.255035" lon="-5.123579">
        <ele>251.0</ele>
        <time>2020-11-01T13:16:27Z</time>
      </trkpt>
      <trkpt lat="43.25505" lon="-5.1235723">
        <ele>251.0</ele>
        <time>2020-11-01T13:16:32Z</time>
      </trkpt>
      <trkpt lat="43.25505" lon="-5.123572">
        <ele>251.0</ele>
        <time>2020-11-01T13:16:32Z</time>
      </trkpt>
      <trkpt lat="43.255054" lon="-5.1235714">
        <ele>251.0</ele>
        <time>2020-11-01T13:16:33Z</time>
      </trkpt>
      <trkpt lat="43.255066" lon="-5.1235695">
        <ele>250.0</ele>
        <time>2020-11-01T13:16:34Z</time>
      </trkpt>
      <trkpt lat="43.25507" lon="-5.1235676">
        <ele>250.0</ele>
        <time>2020-11-01T13:16:35Z</time>
      </trkpt>
      <trkpt lat="43.25508" lon="-5.1235642">
        <ele>250.0</ele>
        <time>2020-11-01T13:16:36Z</time>
      </trkpt>
      <trkpt lat="43.255093" lon="-5.1235604">
        <ele>250.0</ele>
        <time>2020-11-01T13:16:37Z</time>
      </trkpt>
      <trkpt lat="43.255096" lon="-5.1235557">
        <ele>250.0</ele>
        <time>2020-11-01T13:16:38Z</time>
      </trkpt>
      <trkpt lat="43.2551" lon="-5.12355">
        <ele>250.0</ele>
        <time>2020-11-01T13:16:40Z</time>
      </trkpt>
      <trkpt lat="43.25511" lon="-5.1235447">
        <ele>250.0</ele>
        <time>2020-11-01T13:16:40Z</time>
      </trkpt>
      <trkpt lat="43.255116" lon="-5.1235385">
        <ele>250.0</ele>
        <time>2020-11-01T13:16:41Z</time>
      </trkpt>
      <trkpt lat="43.255123" lon="-5.1235313">
        <ele>250.0</ele>
        <time>2020-11-01T13:16:42Z</time>
      </trkpt>
      <trkpt lat="43.25513" lon="-5.123525">
        <ele>250.0</ele>
        <time>2020-11-01T13:16:43Z</time>
      </trkpt>
      <trkpt lat="43.255142" lon="-5.1235204">
        <ele>249.0</ele>
        <time>2020-11-01T13:16:44Z</time>
      </trkpt>
      <trkpt lat="43.255154" lon="-5.123517">
        <ele>249.0</ele>
        <time>2020-11-01T13:16:45Z</time>
      </trkpt>
      <trkpt lat="43.25516" lon="-5.1235137">
        <ele>249.0</ele>
        <time>2020-11-01T13:16:46Z</time>
      </trkpt>
      <trkpt lat="43.25517" lon="-5.12351">
        <ele>249.0</ele>
        <time>2020-11-01T13:16:47Z</time>
      </trkpt>
      <trkpt lat="43.255177" lon="-5.123507">
        <ele>249.0</ele>
        <time>2020-11-01T13:16:48Z</time>
      </trkpt>
      <trkpt lat="43.255184" lon="-5.123503">
        <ele>249.0</ele>
        <time>2020-11-01T13:16:49Z</time>
      </trkpt>
      <trkpt lat="43.255188" lon="-5.1234984">
        <ele>249.0</ele>
        <time>2020-11-01T13:16:50Z</time>
      </trkpt>
      <trkpt lat="43.25519" lon="-5.1234927">
        <ele>249.0</ele>
        <time>2020-11-01T13:16:51Z</time>
      </trkpt>
      <trkpt lat="43.2552" lon="-5.1234846">
        <ele>249.0</ele>
        <time>2020-11-01T13:16:51Z</time>
      </trkpt>
      <trkpt lat="43.255203" lon="-5.123475">
        <ele>249.0</ele>
        <time>2020-11-01T13:16:52Z</time>
      </trkpt>
      <trkpt lat="43.255203" lon="-5.123463">
        <ele>249.0</ele>
        <time>2020-11-01T13:16:54Z</time>
      </trkpt>
      <trkpt lat="43.255207" lon="-5.1234527">
        <ele>249.0</ele>
        <time>2020-11-01T13:16:54Z</time>
      </trkpt>
      <trkpt lat="43.255207" lon="-5.123445">
        <ele>249.0</ele>
        <time>2020-11-01T13:16:55Z</time>
      </trkpt>
      <trkpt lat="43.255215" lon="-5.123439">
        <ele>249.0</ele>
        <time>2020-11-01T13:16:56Z</time>
      </trkpt>
      <trkpt lat="43.255215" lon="-5.123432">
        <ele>249.0</ele>
        <time>2020-11-01T13:16:57Z</time>
      </trkpt>
      <trkpt lat="43.255215" lon="-5.1234226">
        <ele>249.0</ele>
        <time>2020-11-01T13:16:58Z</time>
      </trkpt>
      <trkpt lat="43.255215" lon="-5.1234136">
        <ele>248.0</ele>
        <time>2020-11-01T13:16:59Z</time>
      </trkpt>
      <trkpt lat="43.255215" lon="-5.123403">
        <ele>248.0</ele>
        <time>2020-11-01T13:17:00Z</time>
      </trkpt>
      <trkpt lat="43.255215" lon="-5.123393">
        <ele>248.0</ele>
        <time>2020-11-01T13:17:01Z</time>
      </trkpt>
      <trkpt lat="43.255215" lon="-5.1233826">
        <ele>248.0</ele>
        <time>2020-11-01T13:17:02Z</time>
      </trkpt>
      <trkpt lat="43.255215" lon="-5.1233716">
        <ele>248.0</ele>
        <time>2020-11-01T13:17:03Z</time>
      </trkpt>
      <trkpt lat="43.25522" lon="-5.1233616">
        <ele>248.0</ele>
        <time>2020-11-01T13:17:04Z</time>
      </trkpt>
      <trkpt lat="43.25522" lon="-5.123353">
        <ele>248.0</ele>
        <time>2020-11-01T13:17:05Z</time>
      </trkpt>
      <trkpt lat="43.25522" lon="-5.1233444">
        <ele>248.0</ele>
        <time>2020-11-01T13:17:06Z</time>
      </trkpt>
      <trkpt lat="43.255226" lon="-5.1233377">
        <ele>248.0</ele>
        <time>2020-11-01T13:17:07Z</time>
      </trkpt>
      <trkpt lat="43.255226" lon="-5.123332">
        <ele>247.0</ele>
        <time>2020-11-01T13:17:09Z</time>
      </trkpt>
      <trkpt lat="43.25523" lon="-5.1233263">
        <ele>247.0</ele>
        <time>2020-11-01T13:17:09Z</time>
      </trkpt>
      <trkpt lat="43.255234" lon="-5.123309">
        <ele>247.0</ele>
        <time>2020-11-01T13:17:11Z</time>
      </trkpt>
      <trkpt lat="43.25523" lon="-5.123301">
        <ele>247.0</ele>
        <time>2020-11-01T13:17:13Z</time>
      </trkpt>
      <trkpt lat="43.25523" lon="-5.1233">
        <ele>247.0</ele>
        <time>2020-11-01T13:17:14Z</time>
      </trkpt>
      <trkpt lat="43.255226" lon="-5.1232944">
        <ele>247.0</ele>
        <time>2020-11-01T13:17:16Z</time>
      </trkpt>
      <trkpt lat="43.255226" lon="-5.123292">
        <ele>247.0</ele>
        <time>2020-11-01T13:17:17Z</time>
      </trkpt>
      <trkpt lat="43.25523" lon="-5.123288">
        <ele>247.0</ele>
        <time>2020-11-01T13:17:18Z</time>
      </trkpt>
      <trkpt lat="43.25523" lon="-5.1232834">
        <ele>247.0</ele>
        <time>2020-11-01T13:17:19Z</time>
      </trkpt>
      <trkpt lat="43.255234" lon="-5.1232743">
        <ele>247.0</ele>
        <time>2020-11-01T13:17:21Z</time>
      </trkpt>
      <trkpt lat="43.255234" lon="-5.1232743">
        <ele>247.0</ele>
        <time>2020-11-01T13:17:22Z</time>
      </trkpt>
      <trkpt lat="43.25524" lon="-5.1232734">
        <ele>247.0</ele>
        <time>2020-11-01T13:17:23Z</time>
      </trkpt>
      <trkpt lat="43.25524" lon="-5.1232715">
        <ele>246.0</ele>
        <time>2020-11-01T13:17:25Z</time>
      </trkpt>
      <trkpt lat="43.25524" lon="-5.1232653">
        <ele>246.0</ele>
        <time>2020-11-01T13:17:25Z</time>
      </trkpt>
      <trkpt lat="43.25524" lon="-5.1232595">
        <ele>246.0</ele>
        <time>2020-11-01T13:17:26Z</time>
      </trkpt>
      <trkpt lat="43.255234" lon="-5.1232533">
        <ele>246.0</ele>
        <time>2020-11-01T13:17:27Z</time>
      </trkpt>
      <trkpt lat="43.255234" lon="-5.123247">
        <ele>246.0</ele>
        <time>2020-11-01T13:17:28Z</time>
      </trkpt>
      <trkpt lat="43.25523" lon="-5.12324">
        <ele>246.0</ele>
        <time>2020-11-01T13:17:29Z</time>
      </trkpt>
      <trkpt lat="43.25523" lon="-5.1232343">
        <ele>246.0</ele>
        <time>2020-11-01T13:17:30Z</time>
      </trkpt>
      <trkpt lat="43.255226" lon="-5.123228">
        <ele>246.0</ele>
        <time>2020-11-01T13:17:31Z</time>
      </trkpt>
      <trkpt lat="43.255226" lon="-5.123224">
        <ele>246.0</ele>
        <time>2020-11-01T13:17:33Z</time>
      </trkpt>
      <trkpt lat="43.255226" lon="-5.1232176">
        <ele>246.0</ele>
        <time>2020-11-01T13:17:33Z</time>
      </trkpt>
      <trkpt lat="43.255226" lon="-5.1232123">
        <ele>246.0</ele>
        <time>2020-11-01T13:17:34Z</time>
      </trkpt>
      <trkpt lat="43.25523" lon="-5.123207">
        <ele>245.0</ele>
        <time>2020-11-01T13:17:35Z</time>
      </trkpt>
      <trkpt lat="43.25523" lon="-5.1232014">
        <ele>245.0</ele>
        <time>2020-11-01T13:17:36Z</time>
      </trkpt>
      <trkpt lat="43.25523" lon="-5.123196">
        <ele>245.0</ele>
        <time>2020-11-01T13:17:37Z</time>
      </trkpt>
      <trkpt lat="43.25523" lon="-5.123189">
        <ele>245.0</ele>
        <time>2020-11-01T13:17:38Z</time>
      </trkpt>
      <trkpt lat="43.255226" lon="-5.1231823">
        <ele>245.0</ele>
        <time>2020-11-01T13:17:39Z</time>
      </trkpt>
      <trkpt lat="43.255226" lon="-5.123177">
        <ele>245.0</ele>
        <time>2020-11-01T13:17:40Z</time>
      </trkpt>
      <trkpt lat="43.255226" lon="-5.123173">
        <ele>245.0</ele>
        <time>2020-11-01T13:17:41Z</time>
      </trkpt>
      <trkpt lat="43.25522" lon="-5.1231685">
        <ele>245.0</ele>
        <time>2020-11-01T13:17:42Z</time>
      </trkpt>
      <trkpt lat="43.25522" lon="-5.1231647">
        <ele>245.0</ele>
        <time>2020-11-01T13:17:43Z</time>
      </trkpt>
      <trkpt lat="43.255215" lon="-5.12316">
        <ele>245.0</ele>
        <time>2020-11-01T13:17:44Z</time>
      </trkpt>
      <trkpt lat="43.25522" lon="-5.123159">
        <ele>245.0</ele>
        <time>2020-11-01T13:17:45Z</time>
      </trkpt>
      <trkpt lat="43.25523" lon="-5.123159">
        <ele>245.0</ele>
        <time>2020-11-01T13:17:46Z</time>
      </trkpt>
      <trkpt lat="43.255234" lon="-5.1231585">
        <ele>244.0</ele>
        <time>2020-11-01T13:17:47Z</time>
      </trkpt>
      <trkpt lat="43.255245" lon="-5.123159">
        <ele>244.0</ele>
        <time>2020-11-01T13:17:48Z</time>
      </trkpt>
      <trkpt lat="43.255245" lon="-5.123159">
        <ele>244.0</ele>
        <time>2020-11-01T13:17:49Z</time>
      </trkpt>
      <trkpt lat="43.255245" lon="-5.1231647">
        <ele>244.0</ele>
        <time>2020-11-01T13:17:50Z</time>
      </trkpt>
      <trkpt lat="43.255257" lon="-5.1231728">
        <ele>244.0</ele>
        <time>2020-11-01T13:17:51Z</time>
      </trkpt>
      <trkpt lat="43.25526" lon="-5.12318">
        <ele>244.0</ele>
        <time>2020-11-01T13:17:52Z</time>
      </trkpt>
      <trkpt lat="43.255272" lon="-5.1231823">
        <ele>243.0</ele>
        <time>2020-11-01T13:17:53Z</time>
      </trkpt>
      <trkpt lat="43.255276" lon="-5.1231833">
        <ele>243.0</ele>
        <time>2020-11-01T13:17:54Z</time>
      </trkpt>
      <trkpt lat="43.255287" lon="-5.123183">
        <ele>243.0</ele>
        <time>2020-11-01T13:17:56Z</time>
      </trkpt>
      <trkpt lat="43.255295" lon="-5.12318">
        <ele>243.0</ele>
        <time>2020-11-01T13:17:56Z</time>
      </trkpt>
      <trkpt lat="43.255302" lon="-5.123178">
        <ele>243.0</ele>
        <time>2020-11-01T13:17:57Z</time>
      </trkpt>
      <trkpt lat="43.25531" lon="-5.1231813">
        <ele>242.0</ele>
        <time>2020-11-01T13:17:58Z</time>
      </trkpt>
      <trkpt lat="43.255318" lon="-5.123189">
        <ele>242.0</ele>
        <time>2020-11-01T13:17:59Z</time>
      </trkpt>
      <trkpt lat="43.255325" lon="-5.1231976">
        <ele>242.0</ele>
        <time>2020-11-01T13:18:00Z</time>
      </trkpt>
      <trkpt lat="43.255325" lon="-5.123192">
        <ele>242.0</ele>
        <time>2020-11-01T13:18:01Z</time>
      </trkpt>
      <trkpt lat="43.255325" lon="-5.123183">
        <ele>242.0</ele>
        <time>2020-11-01T13:18:02Z</time>
      </trkpt>
      <trkpt lat="43.255333" lon="-5.123174">
        <ele>242.0</ele>
        <time>2020-11-01T13:18:03Z</time>
      </trkpt>
      <trkpt lat="43.255337" lon="-5.12317">
        <ele>242.0</ele>
        <time>2020-11-01T13:18:04Z</time>
      </trkpt>
      <trkpt lat="43.25534" lon="-5.123166">
        <ele>242.0</ele>
        <time>2020-11-01T13:18:05Z</time>
      </trkpt>
      <trkpt lat="43.25535" lon="-5.1231647">
        <ele>242.0</ele>
        <time>2020-11-01T13:18:06Z</time>
      </trkpt>
      <trkpt lat="43.255356" lon="-5.1231656">
        <ele>242.0</ele>
        <time>2020-11-01T13:18:07Z</time>
      </trkpt>
      <trkpt lat="43.255363" lon="-5.123168">
        <ele>242.0</ele>
        <time>2020-11-01T13:18:08Z</time>
      </trkpt>
      <trkpt lat="43.25538" lon="-5.1231728">
        <ele>242.0</ele>
        <time>2020-11-01T13:18:10Z</time>
      </trkpt>
      <trkpt lat="43.255386" lon="-5.123166">
        <ele>242.0</ele>
        <time>2020-11-01T13:18:12Z</time>
      </trkpt>
      <trkpt lat="43.255394" lon="-5.123163">
        <ele>242.0</ele>
        <time>2020-11-01T13:18:13Z</time>
      </trkpt>
      <trkpt lat="43.255398" lon="-5.123157">
        <ele>242.0</ele>
        <time>2020-11-01T13:18:14Z</time>
      </trkpt>
      <trkpt lat="43.255405" lon="-5.123151">
        <ele>242.0</ele>
        <time>2020-11-01T13:18:15Z</time>
      </trkpt>
      <trkpt lat="43.255413" lon="-5.1231446">
        <ele>242.0</ele>
        <time>2020-11-01T13:18:16Z</time>
      </trkpt>
      <trkpt lat="43.25542" lon="-5.1231403">
        <ele>242.0</ele>
        <time>2020-11-01T13:18:17Z</time>
      </trkpt>
      <trkpt lat="43.255424" lon="-5.1231337">
        <ele>242.0</ele>
        <time>2020-11-01T13:18:18Z</time>
      </trkpt>
      <trkpt lat="43.255424" lon="-5.123128">
        <ele>243.0</ele>
        <time>2020-11-01T13:18:19Z</time>
      </trkpt>
      <trkpt lat="43.255424" lon="-5.12312">
        <ele>243.0</ele>
        <time>2020-11-01T13:18:20Z</time>
      </trkpt>
      <trkpt lat="43.25542" lon="-5.1230946">
        <ele>243.0</ele>
        <time>2020-11-01T13:18:22Z</time>
      </trkpt>
      <trkpt lat="43.25542" lon="-5.1230936">
        <ele>243.0</ele>
        <time>2020-11-01T13:18:23Z</time>
      </trkpt>
      <trkpt lat="43.25542" lon="-5.1230917">
        <ele>243.0</ele>
        <time>2020-11-01T13:18:24Z</time>
      </trkpt>
      <trkpt lat="43.25542" lon="-5.1230893">
        <ele>244.0</ele>
        <time>2020-11-01T13:18:25Z</time>
      </trkpt>
      <trkpt lat="43.25542" lon="-5.123088">
        <ele>244.0</ele>
        <time>2020-11-01T13:18:26Z</time>
      </trkpt>
      <trkpt lat="43.25542" lon="-5.123087">
        <ele>244.0</ele>
        <time>2020-11-01T13:18:27Z</time>
      </trkpt>
      <trkpt lat="43.255424" lon="-5.1230845">
        <ele>244.0</ele>
        <time>2020-11-01T13:18:28Z</time>
      </trkpt>
      <trkpt lat="43.255444" lon="-5.123068">
        <ele>244.0</ele>
        <time>2020-11-01T13:18:30Z</time>
      </trkpt>
      <trkpt lat="43.25545" lon="-5.1230655">
        <ele>244.0</ele>
        <time>2020-11-01T13:18:31Z</time>
      </trkpt>
      <trkpt lat="43.255455" lon="-5.1230607">
        <ele>245.0</ele>
        <time>2020-11-01T13:18:32Z</time>
      </trkpt>
      <trkpt lat="43.25546" lon="-5.123056">
        <ele>245.0</ele>
        <time>2020-11-01T13:18:33Z</time>
      </trkpt>
      <trkpt lat="43.25547" lon="-5.1230516">
        <ele>245.0</ele>
        <time>2020-11-01T13:18:34Z</time>
      </trkpt>
      <trkpt lat="43.255474" lon="-5.123048">
        <ele>245.0</ele>
        <time>2020-11-01T13:18:35Z</time>
      </trkpt>
      <trkpt lat="43.25548" lon="-5.123042">
        <ele>246.0</ele>
        <time>2020-11-01T13:18:36Z</time>
      </trkpt>
      <trkpt lat="43.255486" lon="-5.123033">
        <ele>246.0</ele>
        <time>2020-11-01T13:18:37Z</time>
      </trkpt>
      <trkpt lat="43.25549" lon="-5.1230216">
        <ele>246.0</ele>
        <time>2020-11-01T13:18:38Z</time>
      </trkpt>
      <trkpt lat="43.255497" lon="-5.123011">
        <ele>246.0</ele>
        <time>2020-11-01T13:18:39Z</time>
      </trkpt>
      <trkpt lat="43.2555" lon="-5.123002">
        <ele>246.0</ele>
        <time>2020-11-01T13:18:40Z</time>
      </trkpt>
      <trkpt lat="43.255505" lon="-5.122995">
        <ele>246.0</ele>
        <time>2020-11-01T13:18:41Z</time>
      </trkpt>
      <trkpt lat="43.255512" lon="-5.122987">
        <ele>246.0</ele>
        <time>2020-11-01T13:18:42Z</time>
      </trkpt>
      <trkpt lat="43.255516" lon="-5.1229796">
        <ele>246.0</ele>
        <time>2020-11-01T13:18:43Z</time>
      </trkpt>
      <trkpt lat="43.25552" lon="-5.122973">
        <ele>246.0</ele>
        <time>2020-11-01T13:18:44Z</time>
      </trkpt>
      <trkpt lat="43.255527" lon="-5.1229677">
        <ele>246.0</ele>
        <time>2020-11-01T13:18:45Z</time>
      </trkpt>
      <trkpt lat="43.25553" lon="-5.1229644">
        <ele>246.0</ele>
        <time>2020-11-01T13:18:46Z</time>
      </trkpt>
      <trkpt lat="43.255535" lon="-5.1229625">
        <ele>246.0</ele>
        <time>2020-11-01T13:18:47Z</time>
      </trkpt>
      <trkpt lat="43.255543" lon="-5.1229644">
        <ele>247.0</ele>
        <time>2020-11-01T13:18:48Z</time>
      </trkpt>
      <trkpt lat="43.25555" lon="-5.122968">
        <ele>247.0</ele>
        <time>2020-11-01T13:18:49Z</time>
      </trkpt>
      <trkpt lat="43.255558" lon="-5.122972">
        <ele>247.0</ele>
        <time>2020-11-01T13:18:50Z</time>
      </trkpt>
      <trkpt lat="43.25556" lon="-5.122973">
        <ele>247.0</ele>
        <time>2020-11-01T13:18:51Z</time>
      </trkpt>
      <trkpt lat="43.255566" lon="-5.122969">
        <ele>247.0</ele>
        <time>2020-11-01T13:18:52Z</time>
      </trkpt>
      <trkpt lat="43.255573" lon="-5.1229653">
        <ele>247.0</ele>
        <time>2020-11-01T13:18:53Z</time>
      </trkpt>
      <trkpt lat="43.255577" lon="-5.122959">
        <ele>247.0</ele>
        <time>2020-11-01T13:18:54Z</time>
      </trkpt>
      <trkpt lat="43.25558" lon="-5.1229534">
        <ele>247.0</ele>
        <time>2020-11-01T13:18:55Z</time>
      </trkpt>
      <trkpt lat="43.25558" lon="-5.1229477">
        <ele>247.0</ele>
        <time>2020-11-01T13:18:56Z</time>
      </trkpt>
      <trkpt lat="43.25559" lon="-5.1229405">
        <ele>247.0</ele>
        <time>2020-11-01T13:18:57Z</time>
      </trkpt>
      <trkpt lat="43.255592" lon="-5.1229324">
        <ele>247.0</ele>
        <time>2020-11-01T13:18:58Z</time>
      </trkpt>
      <trkpt lat="43.2556" lon="-5.1229243">
        <ele>247.0</ele>
        <time>2020-11-01T13:18:59Z</time>
      </trkpt>
      <trkpt lat="43.255604" lon="-5.122917">
        <ele>248.0</ele>
        <time>2020-11-01T13:19:00Z</time>
      </trkpt>
      <trkpt lat="43.255608" lon="-5.122908">
        <ele>248.0</ele>
        <time>2020-11-01T13:19:01Z</time>
      </trkpt>
      <trkpt lat="43.255615" lon="-5.1229">
        <ele>248.0</ele>
        <time>2020-11-01T13:19:02Z</time>
      </trkpt>
      <trkpt lat="43.25562" lon="-5.122891">
        <ele>248.0</ele>
        <time>2020-11-01T13:19:03Z</time>
      </trkpt>
      <trkpt lat="43.255623" lon="-5.122884">
        <ele>248.0</ele>
        <time>2020-11-01T13:19:04Z</time>
      </trkpt>
      <trkpt lat="43.255623" lon="-5.122874">
        <ele>248.0</ele>
        <time>2020-11-01T13:19:05Z</time>
      </trkpt>
      <trkpt lat="43.25563" lon="-5.122861">
        <ele>248.0</ele>
        <time>2020-11-01T13:19:06Z</time>
      </trkpt>
      <trkpt lat="43.25563" lon="-5.1228485">
        <ele>248.0</ele>
        <time>2020-11-01T13:19:07Z</time>
      </trkpt>
      <trkpt lat="43.255634" lon="-5.1228347">
        <ele>248.0</ele>
        <time>2020-11-01T13:19:08Z</time>
      </trkpt>
      <trkpt lat="43.255634" lon="-5.1228223">
        <ele>248.0</ele>
        <time>2020-11-01T13:19:09Z</time>
      </trkpt>
      <trkpt lat="43.25564" lon="-5.122812">
        <ele>249.0</ele>
        <time>2020-11-01T13:19:10Z</time>
      </trkpt>
      <trkpt lat="43.25564" lon="-5.1228037">
        <ele>249.0</ele>
        <time>2020-11-01T13:19:11Z</time>
      </trkpt>
      <trkpt lat="43.25564" lon="-5.122794">
        <ele>249.0</ele>
        <time>2020-11-01T13:19:13Z</time>
      </trkpt>
      <trkpt lat="43.25564" lon="-5.1227865">
        <ele>249.0</ele>
        <time>2020-11-01T13:19:13Z</time>
      </trkpt>
      <trkpt lat="43.25564" lon="-5.122781">
        <ele>249.0</ele>
        <time>2020-11-01T13:19:14Z</time>
      </trkpt>
      <trkpt lat="43.25564" lon="-5.122776">
        <ele>249.0</ele>
        <time>2020-11-01T13:19:15Z</time>
      </trkpt>
      <trkpt lat="43.255646" lon="-5.1227713">
        <ele>249.0</ele>
        <time>2020-11-01T13:19:16Z</time>
      </trkpt>
      <trkpt lat="43.25565" lon="-5.122753">
        <ele>249.0</ele>
        <time>2020-11-01T13:19:18Z</time>
      </trkpt>
      <trkpt lat="43.25565" lon="-5.122752">
        <ele>249.0</ele>
        <time>2020-11-01T13:19:19Z</time>
      </trkpt>
      <trkpt lat="43.25565" lon="-5.1227503">
        <ele>249.0</ele>
        <time>2020-11-01T13:19:20Z</time>
      </trkpt>
      <trkpt lat="43.25565" lon="-5.1227484">
        <ele>249.0</ele>
        <time>2020-11-01T13:19:21Z</time>
      </trkpt>
      <trkpt lat="43.25565" lon="-5.122742">
        <ele>249.0</ele>
        <time>2020-11-01T13:19:22Z</time>
      </trkpt>
      <trkpt lat="43.255653" lon="-5.122736">
        <ele>249.0</ele>
        <time>2020-11-01T13:19:23Z</time>
      </trkpt>
      <trkpt lat="43.255653" lon="-5.1227307">
        <ele>250.0</ele>
        <time>2020-11-01T13:19:24Z</time>
      </trkpt>
      <trkpt lat="43.25566" lon="-5.1227226">
        <ele>250.0</ele>
        <time>2020-11-01T13:19:25Z</time>
      </trkpt>
      <trkpt lat="43.25566" lon="-5.122714">
        <ele>250.0</ele>
        <time>2020-11-01T13:19:27Z</time>
      </trkpt>
      <trkpt lat="43.255665" lon="-5.1227055">
        <ele>250.0</ele>
        <time>2020-11-01T13:19:27Z</time>
      </trkpt>
      <trkpt lat="43.25567" lon="-5.122699">
        <ele>250.0</ele>
        <time>2020-11-01T13:19:28Z</time>
      </trkpt>
      <trkpt lat="43.255676" lon="-5.1226935">
        <ele>250.0</ele>
        <time>2020-11-01T13:19:29Z</time>
      </trkpt>
      <trkpt lat="43.25568" lon="-5.1226873">
        <ele>250.0</ele>
        <time>2020-11-01T13:19:30Z</time>
      </trkpt>
      <trkpt lat="43.255684" lon="-5.12268">
        <ele>250.0</ele>
        <time>2020-11-01T13:19:31Z</time>
      </trkpt>
      <trkpt lat="43.25569" lon="-5.1226735">
        <ele>250.0</ele>
        <time>2020-11-01T13:19:32Z</time>
      </trkpt>
      <trkpt lat="43.255695" lon="-5.1226683">
        <ele>250.0</ele>
        <time>2020-11-01T13:19:33Z</time>
      </trkpt>
      <trkpt lat="43.2557" lon="-5.122665">
        <ele>250.0</ele>
        <time>2020-11-01T13:19:34Z</time>
      </trkpt>
      <trkpt lat="43.255707" lon="-5.1226587">
        <ele>250.0</ele>
        <time>2020-11-01T13:19:35Z</time>
      </trkpt>
      <trkpt lat="43.25571" lon="-5.1226497">
        <ele>250.0</ele>
        <time>2020-11-01T13:19:36Z</time>
      </trkpt>
      <trkpt lat="43.255714" lon="-5.1226387">
        <ele>250.0</ele>
        <time>2020-11-01T13:19:37Z</time>
      </trkpt>
      <trkpt lat="43.255722" lon="-5.1226306">
        <ele>250.0</ele>
        <time>2020-11-01T13:19:38Z</time>
      </trkpt>
      <trkpt lat="43.255726" lon="-5.122623">
        <ele>250.0</ele>
        <time>2020-11-01T13:19:39Z</time>
      </trkpt>
      <trkpt lat="43.255726" lon="-5.122617">
        <ele>251.0</ele>
        <time>2020-11-01T13:19:40Z</time>
      </trkpt>
      <trkpt lat="43.255726" lon="-5.122608">
        <ele>251.0</ele>
        <time>2020-11-01T13:19:42Z</time>
      </trkpt>
      <trkpt lat="43.255722" lon="-5.1225963">
        <ele>251.0</ele>
        <time>2020-11-01T13:19:42Z</time>
      </trkpt>
      <trkpt lat="43.255722" lon="-5.1225853">
        <ele>251.0</ele>
        <time>2020-11-01T13:19:43Z</time>
      </trkpt>
      <trkpt lat="43.255722" lon="-5.1225767">
        <ele>251.0</ele>
        <time>2020-11-01T13:19:44Z</time>
      </trkpt>
      <trkpt lat="43.255722" lon="-5.12257">
        <ele>251.0</ele>
        <time>2020-11-01T13:19:45Z</time>
      </trkpt>
      <trkpt lat="43.255714" lon="-5.1225634">
        <ele>251.0</ele>
        <time>2020-11-01T13:19:46Z</time>
      </trkpt>
      <trkpt lat="43.255714" lon="-5.122545">
        <ele>251.0</ele>
        <time>2020-11-01T13:19:48Z</time>
      </trkpt>
      <trkpt lat="43.255714" lon="-5.1225433">
        <ele>251.0</ele>
        <time>2020-11-01T13:19:49Z</time>
      </trkpt>
      <trkpt lat="43.255722" lon="-5.122539">
        <ele>251.0</ele>
        <time>2020-11-01T13:19:50Z</time>
      </trkpt>
      <trkpt lat="43.255726" lon="-5.1225333">
        <ele>251.0</ele>
        <time>2020-11-01T13:19:51Z</time>
      </trkpt>
      <trkpt lat="43.255726" lon="-5.1225286">
        <ele>251.0</ele>
        <time>2020-11-01T13:19:52Z</time>
      </trkpt>
      <trkpt lat="43.25573" lon="-5.1225243">
        <ele>251.0</ele>
        <time>2020-11-01T13:19:53Z</time>
      </trkpt>
      <trkpt lat="43.255737" lon="-5.1225195">
        <ele>251.0</ele>
        <time>2020-11-01T13:19:54Z</time>
      </trkpt>
      <trkpt lat="43.255753" lon="-5.12251">
        <ele>251.0</ele>
        <time>2020-11-01T13:19:56Z</time>
      </trkpt>
      <trkpt lat="43.255745" lon="-5.122505">
        <ele>252.0</ele>
        <time>2020-11-01T13:19:58Z</time>
      </trkpt>
      <trkpt lat="43.255745" lon="-5.1225057">
        <ele>252.0</ele>
        <time>2020-11-01T13:20:00Z</time>
      </trkpt>
      <trkpt lat="43.255753" lon="-5.122505">
        <ele>252.0</ele>
        <time>2020-11-01T13:20:00Z</time>
      </trkpt>
      <trkpt lat="43.255753" lon="-5.122502">
        <ele>252.0</ele>
        <time>2020-11-01T13:20:01Z</time>
      </trkpt>
      <trkpt lat="43.255745" lon="-5.1224957">
        <ele>252.0</ele>
        <time>2020-11-01T13:20:02Z</time>
      </trkpt>
      <trkpt lat="43.255745" lon="-5.1224895">
        <ele>252.0</ele>
        <time>2020-11-01T13:20:03Z</time>
      </trkpt>
      <trkpt lat="43.25574" lon="-5.1224713">
        <ele>252.0</ele>
        <time>2020-11-01T13:20:05Z</time>
      </trkpt>
      <trkpt lat="43.25574" lon="-5.1224704">
        <ele>252.0</ele>
        <time>2020-11-01T13:20:06Z</time>
      </trkpt>
      <trkpt lat="43.255737" lon="-5.122466">
        <ele>252.0</ele>
        <time>2020-11-01T13:20:07Z</time>
      </trkpt>
      <trkpt lat="43.25573" lon="-5.122458">
        <ele>252.0</ele>
        <time>2020-11-01T13:20:09Z</time>
      </trkpt>
      <trkpt lat="43.25573" lon="-5.1224465">
        <ele>252.0</ele>
        <time>2020-11-01T13:20:09Z</time>
      </trkpt>
      <trkpt lat="43.25573" lon="-5.122432">
        <ele>252.0</ele>
        <time>2020-11-01T13:20:10Z</time>
      </trkpt>
      <trkpt lat="43.255737" lon="-5.1224174">
        <ele>252.0</ele>
        <time>2020-11-01T13:20:11Z</time>
      </trkpt>
      <trkpt lat="43.255745" lon="-5.122404">
        <ele>252.0</ele>
        <time>2020-11-01T13:20:12Z</time>
      </trkpt>
      <trkpt lat="43.255745" lon="-5.1223936">
        <ele>253.0</ele>
        <time>2020-11-01T13:20:13Z</time>
      </trkpt>
      <trkpt lat="43.255745" lon="-5.1223826">
        <ele>253.0</ele>
        <time>2020-11-01T13:20:14Z</time>
      </trkpt>
      <trkpt lat="43.255745" lon="-5.1223745">
        <ele>253.0</ele>
        <time>2020-11-01T13:20:16Z</time>
      </trkpt>
      <trkpt lat="43.255745" lon="-5.1223464">
        <ele>253.0</ele>
        <time>2020-11-01T13:20:17Z</time>
      </trkpt>
      <trkpt lat="43.255753" lon="-5.1223497">
        <ele>253.0</ele>
        <time>2020-11-01T13:20:19Z</time>
      </trkpt>
      <trkpt lat="43.255756" lon="-5.12235">
        <ele>253.0</ele>
        <time>2020-11-01T13:20:20Z</time>
      </trkpt>
      <trkpt lat="43.25576" lon="-5.122353">
        <ele>253.0</ele>
        <time>2020-11-01T13:20:21Z</time>
      </trkpt>
      <trkpt lat="43.255768" lon="-5.122356">
        <ele>253.0</ele>
        <time>2020-11-01T13:20:22Z</time>
      </trkpt>
      <trkpt lat="43.25577" lon="-5.122358">
        <ele>253.0</ele>
        <time>2020-11-01T13:20:23Z</time>
      </trkpt>
      <trkpt lat="43.255783" lon="-5.1223593">
        <ele>253.0</ele>
        <time>2020-11-01T13:20:24Z</time>
      </trkpt>
      <trkpt lat="43.255787" lon="-5.122361">
        <ele>253.0</ele>
        <time>2020-11-01T13:20:25Z</time>
      </trkpt>
      <trkpt lat="43.255814" lon="-5.122355">
        <ele>253.0</ele>
        <time>2020-11-01T13:20:27Z</time>
      </trkpt>
      <trkpt lat="43.255814" lon="-5.122355">
        <ele>253.0</ele>
        <time>2020-11-01T13:20:28Z</time>
      </trkpt>
      <trkpt lat="43.255817" lon="-5.122353">
        <ele>253.0</ele>
        <time>2020-11-01T13:20:29Z</time>
      </trkpt>
      <trkpt lat="43.255825" lon="-5.12235">
        <ele>253.0</ele>
        <time>2020-11-01T13:20:30Z</time>
      </trkpt>
      <trkpt lat="43.25583" lon="-5.122349">
        <ele>253.0</ele>
        <time>2020-11-01T13:20:31Z</time>
      </trkpt>
      <trkpt lat="43.25584" lon="-5.1223454">
        <ele>253.0</ele>
        <time>2020-11-01T13:20:32Z</time>
      </trkpt>
      <trkpt lat="43.255844" lon="-5.1223426">
        <ele>253.0</ele>
        <time>2020-11-01T13:20:33Z</time>
      </trkpt>
      <trkpt lat="43.255856" lon="-5.122339">
        <ele>253.0</ele>
        <time>2020-11-01T13:20:34Z</time>
      </trkpt>
      <trkpt lat="43.255863" lon="-5.122338">
        <ele>253.0</ele>
        <time>2020-11-01T13:20:35Z</time>
      </trkpt>
      <trkpt lat="43.25587" lon="-5.122338">
        <ele>253.0</ele>
        <time>2020-11-01T13:20:36Z</time>
      </trkpt>
      <trkpt lat="43.255875" lon="-5.1223397">
        <ele>253.0</ele>
        <time>2020-11-01T13:20:37Z</time>
      </trkpt>
      <trkpt lat="43.255886" lon="-5.1223416">
        <ele>253.0</ele>
        <time>2020-11-01T13:20:38Z</time>
      </trkpt>
      <trkpt lat="43.255894" lon="-5.122342">
        <ele>253.0</ele>
        <time>2020-11-01T13:20:39Z</time>
      </trkpt>
      <trkpt lat="43.2559" lon="-5.1223416">
        <ele>253.0</ele>
        <time>2020-11-01T13:20:40Z</time>
      </trkpt>
      <trkpt lat="43.255924" lon="-5.1223416">
        <ele>253.0</ele>
        <time>2020-11-01T13:20:42Z</time>
      </trkpt>
      <trkpt lat="43.255924" lon="-5.1223392">
        <ele>253.0</ele>
        <time>2020-11-01T13:20:43Z</time>
      </trkpt>
      <trkpt lat="43.255936" lon="-5.122336">
        <ele>253.0</ele>
        <time>2020-11-01T13:20:44Z</time>
      </trkpt>
      <trkpt lat="43.25594" lon="-5.122332">
        <ele>253.0</ele>
        <time>2020-11-01T13:20:45Z</time>
      </trkpt>
      <trkpt lat="43.255947" lon="-5.122328">
        <ele>253.0</ele>
        <time>2020-11-01T13:20:46Z</time>
      </trkpt>
      <trkpt lat="43.25595" lon="-5.122325">
        <ele>253.0</ele>
        <time>2020-11-01T13:20:47Z</time>
      </trkpt>
      <trkpt lat="43.255962" lon="-5.122321">
        <ele>253.0</ele>
        <time>2020-11-01T13:20:48Z</time>
      </trkpt>
      <trkpt lat="43.255966" lon="-5.1223183">
        <ele>253.0</ele>
        <time>2020-11-01T13:20:49Z</time>
      </trkpt>
      <trkpt lat="43.255978" lon="-5.1223154">
        <ele>253.0</ele>
        <time>2020-11-01T13:20:50Z</time>
      </trkpt>
      <trkpt lat="43.25598" lon="-5.1223116">
        <ele>253.0</ele>
        <time>2020-11-01T13:20:51Z</time>
      </trkpt>
      <trkpt lat="43.255993" lon="-5.122307">
        <ele>253.0</ele>
        <time>2020-11-01T13:20:52Z</time>
      </trkpt>
      <trkpt lat="43.256004" lon="-5.122303">
        <ele>253.0</ele>
        <time>2020-11-01T13:20:53Z</time>
      </trkpt>
      <trkpt lat="43.25601" lon="-5.122297">
        <ele>253.0</ele>
        <time>2020-11-01T13:20:54Z</time>
      </trkpt>
      <trkpt lat="43.256012" lon="-5.122286">
        <ele>253.0</ele>
        <time>2020-11-01T13:20:55Z</time>
      </trkpt>
      <trkpt lat="43.256023" lon="-5.1222773">
        <ele>253.0</ele>
        <time>2020-11-01T13:20:56Z</time>
      </trkpt>
      <trkpt lat="43.256035" lon="-5.1222677">
        <ele>253.0</ele>
        <time>2020-11-01T13:20:57Z</time>
      </trkpt>
      <trkpt lat="43.25604" lon="-5.1222634">
        <ele>253.0</ele>
        <time>2020-11-01T13:20:58Z</time>
      </trkpt>
      <trkpt lat="43.256065" lon="-5.1222434">
        <ele>253.0</ele>
        <time>2020-11-01T13:21:00Z</time>
      </trkpt>
      <trkpt lat="43.25607" lon="-5.122242">
        <ele>253.0</ele>
        <time>2020-11-01T13:21:01Z</time>
      </trkpt>
      <trkpt lat="43.25607" lon="-5.122237">
        <ele>253.0</ele>
        <time>2020-11-01T13:21:02Z</time>
      </trkpt>
      <trkpt lat="43.256073" lon="-5.1222305">
        <ele>253.0</ele>
        <time>2020-11-01T13:21:03Z</time>
      </trkpt>
      <trkpt lat="43.256073" lon="-5.1222224">
        <ele>253.0</ele>
        <time>2020-11-01T13:21:04Z</time>
      </trkpt>
      <trkpt lat="43.256073" lon="-5.1222157">
        <ele>253.0</ele>
        <time>2020-11-01T13:21:05Z</time>
      </trkpt>
      <trkpt lat="43.25608" lon="-5.12221">
        <ele>253.0</ele>
        <time>2020-11-01T13:21:06Z</time>
      </trkpt>
      <trkpt lat="43.25608" lon="-5.122206">
        <ele>253.0</ele>
        <time>2020-11-01T13:21:06Z</time>
      </trkpt>
      <trkpt lat="43.256084" lon="-5.1222034">
        <ele>253.0</ele>
        <time>2020-11-01T13:21:07Z</time>
      </trkpt>
      <trkpt lat="43.25609" lon="-5.1222014">
        <ele>253.0</ele>
        <time>2020-11-01T13:21:09Z</time>
      </trkpt>
      <trkpt lat="43.256096" lon="-5.1221995">
        <ele>253.0</ele>
        <time>2020-11-01T13:21:09Z</time>
      </trkpt>
      <trkpt lat="43.256104" lon="-5.1221967">
        <ele>253.0</ele>
        <time>2020-11-01T13:21:10Z</time>
      </trkpt>
      <trkpt lat="43.25611" lon="-5.122192">
        <ele>253.0</ele>
        <time>2020-11-01T13:21:11Z</time>
      </trkpt>
      <trkpt lat="43.256115" lon="-5.122189">
        <ele>253.0</ele>
        <time>2020-11-01T13:21:12Z</time>
      </trkpt>
      <trkpt lat="43.25612" lon="-5.1221867">
        <ele>253.0</ele>
        <time>2020-11-01T13:21:13Z</time>
      </trkpt>
      <trkpt lat="43.256126" lon="-5.122184">
        <ele>253.0</ele>
        <time>2020-11-01T13:21:14Z</time>
      </trkpt>
      <trkpt lat="43.25613" lon="-5.1221805">
        <ele>253.0</ele>
        <time>2020-11-01T13:21:15Z</time>
      </trkpt>
      <trkpt lat="43.256134" lon="-5.122175">
        <ele>253.0</ele>
        <time>2020-11-01T13:21:16Z</time>
      </trkpt>
      <trkpt lat="43.25614" lon="-5.1221704">
        <ele>253.0</ele>
        <time>2020-11-01T13:21:17Z</time>
      </trkpt>
      <trkpt lat="43.256145" lon="-5.122164">
        <ele>253.0</ele>
        <time>2020-11-01T13:21:18Z</time>
      </trkpt>
      <trkpt lat="43.256145" lon="-5.1221557">
        <ele>253.0</ele>
        <time>2020-11-01T13:21:19Z</time>
      </trkpt>
      <trkpt lat="43.256145" lon="-5.1221466">
        <ele>253.0</ele>
        <time>2020-11-01T13:21:20Z</time>
      </trkpt>
      <trkpt lat="43.256145" lon="-5.1221366">
        <ele>253.0</ele>
        <time>2020-11-01T13:21:21Z</time>
      </trkpt>
      <trkpt lat="43.256145" lon="-5.1221275">
        <ele>253.0</ele>
        <time>2020-11-01T13:21:22Z</time>
      </trkpt>
      <trkpt lat="43.25615" lon="-5.1221213">
        <ele>253.0</ele>
        <time>2020-11-01T13:21:23Z</time>
      </trkpt>
      <trkpt lat="43.25615" lon="-5.1221166">
        <ele>253.0</ele>
        <time>2020-11-01T13:21:24Z</time>
      </trkpt>
      <trkpt lat="43.256157" lon="-5.1221128">
        <ele>255.0</ele>
        <time>2020-11-01T13:21:25Z</time>
      </trkpt>
      <trkpt lat="43.25616" lon="-5.122109">
        <ele>255.0</ele>
        <time>2020-11-01T13:21:26Z</time>
      </trkpt>
      <trkpt lat="43.25616" lon="-5.122104">
        <ele>255.0</ele>
        <time>2020-11-01T13:21:27Z</time>
      </trkpt>
      <trkpt lat="43.25616" lon="-5.1220946">
        <ele>255.0</ele>
        <time>2020-11-01T13:21:28Z</time>
      </trkpt>
      <trkpt lat="43.256165" lon="-5.12208">
        <ele>255.0</ele>
        <time>2020-11-01T13:21:29Z</time>
      </trkpt>
      <trkpt lat="43.256165" lon="-5.122064">
        <ele>255.0</ele>
        <time>2020-11-01T13:21:30Z</time>
      </trkpt>
      <trkpt lat="43.256165" lon="-5.1220517">
        <ele>255.0</ele>
        <time>2020-11-01T13:21:31Z</time>
      </trkpt>
      <trkpt lat="43.256172" lon="-5.1220417">
        <ele>255.0</ele>
        <time>2020-11-01T13:21:32Z</time>
      </trkpt>
      <trkpt lat="43.256176" lon="-5.122033">
        <ele>255.0</ele>
        <time>2020-11-01T13:21:33Z</time>
      </trkpt>
      <trkpt lat="43.256184" lon="-5.1220264">
        <ele>255.0</ele>
        <time>2020-11-01T13:21:34Z</time>
      </trkpt>
      <trkpt lat="43.256187" lon="-5.1220202">
        <ele>255.0</ele>
        <time>2020-11-01T13:21:35Z</time>
      </trkpt>
      <trkpt lat="43.256187" lon="-5.1220145">
        <ele>255.0</ele>
        <time>2020-11-01T13:21:36Z</time>
      </trkpt>
      <trkpt lat="43.25619" lon="-5.1220098">
        <ele>255.0</ele>
        <time>2020-11-01T13:21:37Z</time>
      </trkpt>
      <trkpt lat="43.25619" lon="-5.122004">
        <ele>255.0</ele>
        <time>2020-11-01T13:21:38Z</time>
      </trkpt>
      <trkpt lat="43.2562" lon="-5.122">
        <ele>255.0</ele>
        <time>2020-11-01T13:21:39Z</time>
      </trkpt>
      <trkpt lat="43.256214" lon="-5.12199">
        <ele>255.0</ele>
        <time>2020-11-01T13:21:41Z</time>
      </trkpt>
      <trkpt lat="43.256214" lon="-5.1219816">
        <ele>255.0</ele>
        <time>2020-11-01T13:21:43Z</time>
      </trkpt>
      <trkpt lat="43.256214" lon="-5.1219797">
        <ele>255.0</ele>
        <time>2020-11-01T13:21:44Z</time>
      </trkpt>
      <trkpt lat="43.256218" lon="-5.121974">
        <ele>255.0</ele>
        <time>2020-11-01T13:21:45Z</time>
      </trkpt>
      <trkpt lat="43.256218" lon="-5.121966">
        <ele>255.0</ele>
        <time>2020-11-01T13:21:46Z</time>
      </trkpt>
      <trkpt lat="43.25622" lon="-5.1219563">
        <ele>255.0</ele>
        <time>2020-11-01T13:21:47Z</time>
      </trkpt>
      <trkpt lat="43.25623" lon="-5.121948">
        <ele>255.0</ele>
        <time>2020-11-01T13:21:48Z</time>
      </trkpt>
      <trkpt lat="43.256233" lon="-5.1219406">
        <ele>255.0</ele>
        <time>2020-11-01T13:21:49Z</time>
      </trkpt>
      <trkpt lat="43.256237" lon="-5.121933">
        <ele>255.0</ele>
        <time>2020-11-01T13:21:50Z</time>
      </trkpt>
      <trkpt lat="43.256245" lon="-5.1219273">
        <ele>255.0</ele>
        <time>2020-11-01T13:21:51Z</time>
      </trkpt>
      <trkpt lat="43.256245" lon="-5.121922">
        <ele>255.0</ele>
        <time>2020-11-01T13:21:52Z</time>
      </trkpt>
      <trkpt lat="43.25625" lon="-5.121917">
        <ele>255.0</ele>
        <time>2020-11-01T13:21:54Z</time>
      </trkpt>
      <trkpt lat="43.256252" lon="-5.121912">
        <ele>255.0</ele>
        <time>2020-11-01T13:21:54Z</time>
      </trkpt>
      <trkpt lat="43.25626" lon="-5.1219068">
        <ele>255.0</ele>
        <time>2020-11-01T13:21:55Z</time>
      </trkpt>
      <trkpt lat="43.256264" lon="-5.1219044">
        <ele>255.0</ele>
        <time>2020-11-01T13:21:56Z</time>
      </trkpt>
      <trkpt lat="43.256264" lon="-5.121902">
        <ele>255.0</ele>
        <time>2020-11-01T13:21:57Z</time>
      </trkpt>
      <trkpt lat="43.256268" lon="-5.121896">
        <ele>255.0</ele>
        <time>2020-11-01T13:21:58Z</time>
      </trkpt>
      <trkpt lat="43.256275" lon="-5.121888">
        <ele>255.0</ele>
        <time>2020-11-01T13:21:59Z</time>
      </trkpt>
      <trkpt lat="43.25628" lon="-5.1218815">
        <ele>255.0</ele>
        <time>2020-11-01T13:22:00Z</time>
      </trkpt>
      <trkpt lat="43.256283" lon="-5.121876">
        <ele>255.0</ele>
        <time>2020-11-01T13:22:01Z</time>
      </trkpt>
      <trkpt lat="43.25629" lon="-5.121871">
        <ele>255.0</ele>
        <time>2020-11-01T13:22:02Z</time>
      </trkpt>
      <trkpt lat="43.256294" lon="-5.121866">
        <ele>255.0</ele>
        <time>2020-11-01T13:22:03Z</time>
      </trkpt>
      <trkpt lat="43.256298" lon="-5.1218634">
        <ele>255.0</ele>
        <time>2020-11-01T13:22:04Z</time>
      </trkpt>
      <trkpt lat="43.256306" lon="-5.1218624">
        <ele>255.0</ele>
        <time>2020-11-01T13:22:05Z</time>
      </trkpt>
      <trkpt lat="43.256306" lon="-5.121863">
        <ele>255.0</ele>
        <time>2020-11-01T13:22:06Z</time>
      </trkpt>
      <trkpt lat="43.256306" lon="-5.121865">
        <ele>255.0</ele>
        <time>2020-11-01T13:22:07Z</time>
      </trkpt>
      <trkpt lat="43.256306" lon="-5.121866">
        <ele>255.0</ele>
        <time>2020-11-01T13:22:08Z</time>
      </trkpt>
      <trkpt lat="43.256306" lon="-5.1218677">
        <ele>255.0</ele>
        <time>2020-11-01T13:22:09Z</time>
      </trkpt>
      <trkpt lat="43.25631" lon="-5.121872">
        <ele>255.0</ele>
        <time>2020-11-01T13:22:11Z</time>
      </trkpt>
      <trkpt lat="43.256313" lon="-5.1218724">
        <ele>255.0</ele>
        <time>2020-11-01T13:22:12Z</time>
      </trkpt>
      <trkpt lat="43.256313" lon="-5.1218734">
        <ele>255.0</ele>
        <time>2020-11-01T13:22:13Z</time>
      </trkpt>
      <trkpt lat="43.25632" lon="-5.1218734">
        <ele>255.0</ele>
        <time>2020-11-01T13:22:14Z</time>
      </trkpt>
      <trkpt lat="43.256325" lon="-5.121875">
        <ele>255.0</ele>
        <time>2020-11-01T13:22:15Z</time>
      </trkpt>
      <trkpt lat="43.256336" lon="-5.121874">
        <ele>255.0</ele>
        <time>2020-11-01T13:22:16Z</time>
      </trkpt>
      <trkpt lat="43.256344" lon="-5.1218705">
        <ele>255.0</ele>
        <time>2020-11-01T13:22:17Z</time>
      </trkpt>
      <trkpt lat="43.256355" lon="-5.1218677">
        <ele>255.0</ele>
        <time>2020-11-01T13:22:18Z</time>
      </trkpt>
      <trkpt lat="43.25636" lon="-5.1218653">
        <ele>255.0</ele>
        <time>2020-11-01T13:22:19Z</time>
      </trkpt>
      <trkpt lat="43.25637" lon="-5.121859">
        <ele>255.0</ele>
        <time>2020-11-01T13:22:20Z</time>
      </trkpt>
      <trkpt lat="43.256382" lon="-5.12185">
        <ele>255.0</ele>
        <time>2020-11-01T13:22:21Z</time>
      </trkpt>
      <trkpt lat="43.25641" lon="-5.121835">
        <ele>255.0</ele>
        <time>2020-11-01T13:22:23Z</time>
      </trkpt>
      <trkpt lat="43.25641" lon="-5.121836">
        <ele>255.0</ele>
        <time>2020-11-01T13:22:24Z</time>
      </trkpt>
      <trkpt lat="43.25641" lon="-5.1218386">
        <ele>255.0</ele>
        <time>2020-11-01T13:22:25Z</time>
      </trkpt>
      <trkpt lat="43.25641" lon="-5.1218414">
        <ele>255.0</ele>
        <time>2020-11-01T13:22:26Z</time>
      </trkpt>
      <trkpt lat="43.25641" lon="-5.121846">
        <ele>255.0</ele>
        <time>2020-11-01T13:22:27Z</time>
      </trkpt>
      <trkpt lat="43.256413" lon="-5.121849">
        <ele>255.0</ele>
        <time>2020-11-01T13:22:28Z</time>
      </trkpt>
      <trkpt lat="43.256413" lon="-5.121853">
        <ele>255.0</ele>
        <time>2020-11-01T13:22:29Z</time>
      </trkpt>
      <trkpt lat="43.256413" lon="-5.121856">
        <ele>255.0</ele>
        <time>2020-11-01T13:22:30Z</time>
      </trkpt>
      <trkpt lat="43.256413" lon="-5.121858">
        <ele>255.0</ele>
        <time>2020-11-01T13:22:32Z</time>
      </trkpt>
      <trkpt lat="43.25641" lon="-5.12186">
        <ele>255.0</ele>
        <time>2020-11-01T13:22:32Z</time>
      </trkpt>
      <trkpt lat="43.25641" lon="-5.121859">
        <ele>255.0</ele>
        <time>2020-11-01T13:22:33Z</time>
      </trkpt>
      <trkpt lat="43.2564" lon="-5.1218576">
        <ele>255.0</ele>
        <time>2020-11-01T13:22:34Z</time>
      </trkpt>
      <trkpt lat="43.2564" lon="-5.1218557">
        <ele>255.0</ele>
        <time>2020-11-01T13:22:35Z</time>
      </trkpt>
      <trkpt lat="43.2564" lon="-5.1218524">
        <ele>255.0</ele>
        <time>2020-11-01T13:22:36Z</time>
      </trkpt>
      <trkpt lat="43.2564" lon="-5.121851">
        <ele>255.0</ele>
        <time>2020-11-01T13:22:37Z</time>
      </trkpt>
      <trkpt lat="43.2564" lon="-5.1218524">
        <ele>255.0</ele>
        <time>2020-11-01T13:22:38Z</time>
      </trkpt>
      <trkpt lat="43.25641" lon="-5.1218543">
        <ele>255.0</ele>
        <time>2020-11-01T13:22:40Z</time>
      </trkpt>
      <trkpt lat="43.25641" lon="-5.121856">
        <ele>255.0</ele>
        <time>2020-11-01T13:22:40Z</time>
      </trkpt>
      <trkpt lat="43.256413" lon="-5.1218576">
        <ele>255.0</ele>
        <time>2020-11-01T13:22:41Z</time>
      </trkpt>
      <trkpt lat="43.256416" lon="-5.1218605">
        <ele>255.0</ele>
        <time>2020-11-01T13:22:42Z</time>
      </trkpt>
      <trkpt lat="43.256428" lon="-5.121864">
        <ele>255.0</ele>
        <time>2020-11-01T13:22:43Z</time>
      </trkpt>
      <trkpt lat="43.25643" lon="-5.1218667">
        <ele>255.0</ele>
        <time>2020-11-01T13:22:44Z</time>
      </trkpt>
      <trkpt lat="43.25644" lon="-5.1218705">
        <ele>255.0</ele>
        <time>2020-11-01T13:22:45Z</time>
      </trkpt>
      <trkpt lat="43.256447" lon="-5.1218724">
        <ele>255.0</ele>
        <time>2020-11-01T13:22:46Z</time>
      </trkpt>
      <trkpt lat="43.256454" lon="-5.1218743">
        <ele>255.0</ele>
        <time>2020-11-01T13:22:47Z</time>
      </trkpt>
      <trkpt lat="43.256462" lon="-5.1218734">
        <ele>255.0</ele>
        <time>2020-11-01T13:22:48Z</time>
      </trkpt>
      <trkpt lat="43.25647" lon="-5.121872">
        <ele>255.0</ele>
        <time>2020-11-01T13:22:49Z</time>
      </trkpt>
      <trkpt lat="43.25647" lon="-5.1218705">
        <ele>255.0</ele>
        <time>2020-11-01T13:22:50Z</time>
      </trkpt>
      <trkpt lat="43.256474" lon="-5.1218705">
        <ele>255.0</ele>
        <time>2020-11-01T13:22:51Z</time>
      </trkpt>
      <trkpt lat="43.256485" lon="-5.1218724">
        <ele>255.0</ele>
        <time>2020-11-01T13:22:52Z</time>
      </trkpt>
      <trkpt lat="43.25649" lon="-5.1218734">
        <ele>255.0</ele>
        <time>2020-11-01T13:22:53Z</time>
      </trkpt>
      <trkpt lat="43.2565" lon="-5.1218753">
        <ele>255.0</ele>
        <time>2020-11-01T13:22:54Z</time>
      </trkpt>
      <trkpt lat="43.256504" lon="-5.121877">
        <ele>255.0</ele>
        <time>2020-11-01T13:22:55Z</time>
      </trkpt>
      <trkpt lat="43.256504" lon="-5.1218805">
        <ele>255.0</ele>
        <time>2020-11-01T13:22:56Z</time>
      </trkpt>
      <trkpt lat="43.256508" lon="-5.121882">
        <ele>255.0</ele>
        <time>2020-11-01T13:22:57Z</time>
      </trkpt>
      <trkpt lat="43.256516" lon="-5.121883">
        <ele>255.0</ele>
        <time>2020-11-01T13:22:58Z</time>
      </trkpt>
      <trkpt lat="43.25652" lon="-5.1218834">
        <ele>255.0</ele>
        <time>2020-11-01T13:22:59Z</time>
      </trkpt>
      <trkpt lat="43.25653" lon="-5.1218853">
        <ele>255.0</ele>
        <time>2020-11-01T13:23:01Z</time>
      </trkpt>
      <trkpt lat="43.25653" lon="-5.1218853">
        <ele>255.0</ele>
        <time>2020-11-01T13:23:02Z</time>
      </trkpt>
      <trkpt lat="43.25653" lon="-5.121883">
        <ele>255.0</ele>
        <time>2020-11-01T13:23:03Z</time>
      </trkpt>
      <trkpt lat="43.256535" lon="-5.1218805">
        <ele>255.0</ele>
        <time>2020-11-01T13:23:04Z</time>
      </trkpt>
      <trkpt lat="43.25654" lon="-5.1218777">
        <ele>255.0</ele>
        <time>2020-11-01T13:23:05Z</time>
      </trkpt>
      <trkpt lat="43.25654" lon="-5.1218762">
        <ele>255.0</ele>
        <time>2020-11-01T13:23:06Z</time>
      </trkpt>
      <trkpt lat="43.25655" lon="-5.1218777">
        <ele>255.0</ele>
        <time>2020-11-01T13:23:07Z</time>
      </trkpt>
      <trkpt lat="43.256554" lon="-5.121879">
        <ele>255.0</ele>
        <time>2020-11-01T13:23:08Z</time>
      </trkpt>
      <trkpt lat="43.25656" lon="-5.1218777">
        <ele>255.0</ele>
        <time>2020-11-01T13:23:09Z</time>
      </trkpt>
      <trkpt lat="43.256573" lon="-5.1218753">
        <ele>254.0</ele>
        <time>2020-11-01T13:23:10Z</time>
      </trkpt>
      <trkpt lat="43.25658" lon="-5.121874">
        <ele>254.0</ele>
        <time>2020-11-01T13:23:11Z</time>
      </trkpt>
      <trkpt lat="43.256588" lon="-5.1218724">
        <ele>254.0</ele>
        <time>2020-11-01T13:23:12Z</time>
      </trkpt>
      <trkpt lat="43.25659" lon="-5.1218734">
        <ele>254.0</ele>
        <time>2020-11-01T13:23:13Z</time>
      </trkpt>
      <trkpt lat="43.25659" lon="-5.121875">
        <ele>254.0</ele>
        <time>2020-11-01T13:23:14Z</time>
      </trkpt>
      <trkpt lat="43.256607" lon="-5.1218786">
        <ele>254.0</ele>
        <time>2020-11-01T13:23:18Z</time>
      </trkpt>
      <trkpt lat="43.256607" lon="-5.1218796">
        <ele>254.0</ele>
        <time>2020-11-01T13:23:18Z</time>
      </trkpt>
      <trkpt lat="43.256603" lon="-5.121881">
        <ele>254.0</ele>
        <time>2020-11-01T13:23:19Z</time>
      </trkpt>
      <trkpt lat="43.256603" lon="-5.1218786">
        <ele>253.0</ele>
        <time>2020-11-01T13:23:21Z</time>
      </trkpt>
      <trkpt lat="43.256603" lon="-5.1218777">
        <ele>253.0</ele>
        <time>2020-11-01T13:23:22Z</time>
      </trkpt>
      <trkpt lat="43.256603" lon="-5.121877">
        <ele>253.0</ele>
        <time>2020-11-01T13:23:23Z</time>
      </trkpt>
      <trkpt lat="43.25661" lon="-5.1218767">
        <ele>253.0</ele>
        <time>2020-11-01T13:23:24Z</time>
      </trkpt>
      <trkpt lat="43.256622" lon="-5.1218762">
        <ele>253.0</ele>
        <time>2020-11-01T13:23:25Z</time>
      </trkpt>
      <trkpt lat="43.256638" lon="-5.1218743">
        <ele>252.0</ele>
        <time>2020-11-01T13:23:26Z</time>
      </trkpt>
      <trkpt lat="43.25665" lon="-5.1218743">
        <ele>252.0</ele>
        <time>2020-11-01T13:23:27Z</time>
      </trkpt>
      <trkpt lat="43.256657" lon="-5.121876">
        <ele>252.0</ele>
        <time>2020-11-01T13:23:28Z</time>
      </trkpt>
      <trkpt lat="43.256657" lon="-5.1218777">
        <ele>252.0</ele>
        <time>2020-11-01T13:23:29Z</time>
      </trkpt>
      <trkpt lat="43.256664" lon="-5.1218805">
        <ele>252.0</ele>
        <time>2020-11-01T13:23:30Z</time>
      </trkpt>
      <trkpt lat="43.256664" lon="-5.1218834">
        <ele>252.0</ele>
        <time>2020-11-01T13:23:31Z</time>
      </trkpt>
      <trkpt lat="43.256664" lon="-5.1218863">
        <ele>252.0</ele>
        <time>2020-11-01T13:23:32Z</time>
      </trkpt>
      <trkpt lat="43.256668" lon="-5.1218953">
        <ele>251.0</ele>
        <time>2020-11-01T13:23:35Z</time>
      </trkpt>
      <trkpt lat="43.256668" lon="-5.121896">
        <ele>251.0</ele>
        <time>2020-11-01T13:23:35Z</time>
      </trkpt>
      <trkpt lat="43.25667" lon="-5.1218963">
        <ele>251.0</ele>
        <time>2020-11-01T13:23:36Z</time>
      </trkpt>
      <trkpt lat="43.25667" lon="-5.1218977">
        <ele>251.0</ele>
        <time>2020-11-01T13:23:37Z</time>
      </trkpt>
      <trkpt lat="43.256683" lon="-5.121901">
        <ele>251.0</ele>
        <time>2020-11-01T13:23:38Z</time>
      </trkpt>
      <trkpt lat="43.256687" lon="-5.121906">
        <ele>251.0</ele>
        <time>2020-11-01T13:23:39Z</time>
      </trkpt>
      <trkpt lat="43.256695" lon="-5.1219106">
        <ele>251.0</ele>
        <time>2020-11-01T13:23:40Z</time>
      </trkpt>
      <trkpt lat="43.2567" lon="-5.121915">
        <ele>251.0</ele>
        <time>2020-11-01T13:23:41Z</time>
      </trkpt>
      <trkpt lat="43.256702" lon="-5.121918">
        <ele>251.0</ele>
        <time>2020-11-01T13:23:43Z</time>
      </trkpt>
      <trkpt lat="43.25671" lon="-5.1219187">
        <ele>251.0</ele>
        <time>2020-11-01T13:23:43Z</time>
      </trkpt>
      <trkpt lat="43.256714" lon="-5.1219172">
        <ele>251.0</ele>
        <time>2020-11-01T13:23:44Z</time>
      </trkpt>
      <trkpt lat="43.256718" lon="-5.121917">
        <ele>251.0</ele>
        <time>2020-11-01T13:23:45Z</time>
      </trkpt>
      <trkpt lat="43.25673" lon="-5.121917">
        <ele>251.0</ele>
        <time>2020-11-01T13:23:48Z</time>
      </trkpt>
      <trkpt lat="43.25674" lon="-5.121922">
        <ele>251.0</ele>
        <time>2020-11-01T13:23:50Z</time>
      </trkpt>
      <trkpt lat="43.25674" lon="-5.121921">
        <ele>251.0</ele>
        <time>2020-11-01T13:23:52Z</time>
      </trkpt>
      <trkpt lat="43.25674" lon="-5.1219215">
        <ele>250.0</ele>
        <time>2020-11-01T13:23:52Z</time>
      </trkpt>
      <trkpt lat="43.25674" lon="-5.1219225">
        <ele>250.0</ele>
        <time>2020-11-01T13:23:53Z</time>
      </trkpt>
      <trkpt lat="43.25674" lon="-5.1219244">
        <ele>250.0</ele>
        <time>2020-11-01T13:23:54Z</time>
      </trkpt>
      <trkpt lat="43.25674" lon="-5.1219273">
        <ele>250.0</ele>
        <time>2020-11-01T13:23:55Z</time>
      </trkpt>
      <trkpt lat="43.25674" lon="-5.1219306">
        <ele>250.0</ele>
        <time>2020-11-01T13:23:56Z</time>
      </trkpt>
      <trkpt lat="43.25674" lon="-5.1219344">
        <ele>250.0</ele>
        <time>2020-11-01T13:23:57Z</time>
      </trkpt>
      <trkpt lat="43.25674" lon="-5.12194">
        <ele>250.0</ele>
        <time>2020-11-01T13:23:58Z</time>
      </trkpt>
      <trkpt lat="43.25674" lon="-5.121947">
        <ele>250.0</ele>
        <time>2020-11-01T13:23:59Z</time>
      </trkpt>
      <trkpt lat="43.256744" lon="-5.121954">
        <ele>249.0</ele>
        <time>2020-11-01T13:24:00Z</time>
      </trkpt>
      <trkpt lat="43.25675" lon="-5.121961">
        <ele>249.0</ele>
        <time>2020-11-01T13:24:01Z</time>
      </trkpt>
      <trkpt lat="43.25675" lon="-5.1219673">
        <ele>249.0</ele>
        <time>2020-11-01T13:24:02Z</time>
      </trkpt>
      <trkpt lat="43.256756" lon="-5.121973">
        <ele>249.0</ele>
        <time>2020-11-01T13:24:03Z</time>
      </trkpt>
      <trkpt lat="43.25676" lon="-5.121978">
        <ele>249.0</ele>
        <time>2020-11-01T13:24:04Z</time>
      </trkpt>
      <trkpt lat="43.25676" lon="-5.121981">
        <ele>249.0</ele>
        <time>2020-11-01T13:24:05Z</time>
      </trkpt>
      <trkpt lat="43.256767" lon="-5.121995">
        <ele>248.0</ele>
        <time>2020-11-01T13:24:07Z</time>
      </trkpt>
      <trkpt lat="43.256767" lon="-5.1219974">
        <ele>248.0</ele>
        <time>2020-11-01T13:24:09Z</time>
      </trkpt>
      <trkpt lat="43.25677" lon="-5.122001">
        <ele>248.0</ele>
        <time>2020-11-01T13:24:09Z</time>
      </trkpt>
      <trkpt lat="43.256775" lon="-5.122005">
        <ele>248.0</ele>
        <time>2020-11-01T13:24:10Z</time>
      </trkpt>
      <trkpt lat="43.256786" lon="-5.122009">
        <ele>248.0</ele>
        <time>2020-11-01T13:24:11Z</time>
      </trkpt>
      <trkpt lat="43.25679" lon="-5.1220117">
        <ele>248.0</ele>
        <time>2020-11-01T13:24:12Z</time>
      </trkpt>
      <trkpt lat="43.256805" lon="-5.1220117">
        <ele>247.0</ele>
        <time>2020-11-01T13:24:13Z</time>
      </trkpt>
      <trkpt lat="43.256817" lon="-5.1220117">
        <ele>247.0</ele>
        <time>2020-11-01T13:24:14Z</time>
      </trkpt>
      <trkpt lat="43.256832" lon="-5.1220136">
        <ele>247.0</ele>
        <time>2020-11-01T13:24:15Z</time>
      </trkpt>
      <trkpt lat="43.256844" lon="-5.1220164">
        <ele>247.0</ele>
        <time>2020-11-01T13:24:16Z</time>
      </trkpt>
      <trkpt lat="43.256847" lon="-5.1220217">
        <ele>247.0</ele>
        <time>2020-11-01T13:24:17Z</time>
      </trkpt>
      <trkpt lat="43.25685" lon="-5.122029">
        <ele>247.0</ele>
        <time>2020-11-01T13:24:18Z</time>
      </trkpt>
      <trkpt lat="43.256863" lon="-5.122038">
        <ele>247.0</ele>
        <time>2020-11-01T13:24:19Z</time>
      </trkpt>
      <trkpt lat="43.256866" lon="-5.122045">
        <ele>247.0</ele>
        <time>2020-11-01T13:24:20Z</time>
      </trkpt>
      <trkpt lat="43.256874" lon="-5.122052">
        <ele>247.0</ele>
        <time>2020-11-01T13:24:21Z</time>
      </trkpt>
      <trkpt lat="43.256874" lon="-5.122058">
        <ele>247.0</ele>
        <time>2020-11-01T13:24:22Z</time>
      </trkpt>
      <trkpt lat="43.256878" lon="-5.122062">
        <ele>246.0</ele>
        <time>2020-11-01T13:24:23Z</time>
      </trkpt>
      <trkpt lat="43.25689" lon="-5.122068">
        <ele>246.0</ele>
        <time>2020-11-01T13:24:24Z</time>
      </trkpt>
      <trkpt lat="43.256897" lon="-5.122074">
        <ele>246.0</ele>
        <time>2020-11-01T13:24:25Z</time>
      </trkpt>
      <trkpt lat="43.25691" lon="-5.122083">
        <ele>246.0</ele>
        <time>2020-11-01T13:24:26Z</time>
      </trkpt>
      <trkpt lat="43.25692" lon="-5.1220922">
        <ele>246.0</ele>
        <time>2020-11-01T13:24:27Z</time>
      </trkpt>
      <trkpt lat="43.256927" lon="-5.1221013">
        <ele>246.0</ele>
        <time>2020-11-01T13:24:28Z</time>
      </trkpt>
      <trkpt lat="43.256943" lon="-5.1221085">
        <ele>246.0</ele>
        <time>2020-11-01T13:24:30Z</time>
      </trkpt>
      <trkpt lat="43.256954" lon="-5.122117">
        <ele>246.0</ele>
        <time>2020-11-01T13:24:30Z</time>
      </trkpt>
      <trkpt lat="43.25696" lon="-5.1221266">
        <ele>246.0</ele>
        <time>2020-11-01T13:24:31Z</time>
      </trkpt>
      <trkpt lat="43.256966" lon="-5.122136">
        <ele>246.0</ele>
        <time>2020-11-01T13:24:32Z</time>
      </trkpt>
      <trkpt lat="43.256977" lon="-5.122146">
        <ele>246.0</ele>
        <time>2020-11-01T13:24:33Z</time>
      </trkpt>
      <trkpt lat="43.25698" lon="-5.1221566">
        <ele>246.0</ele>
        <time>2020-11-01T13:24:34Z</time>
      </trkpt>
      <trkpt lat="43.256992" lon="-5.122166">
        <ele>246.0</ele>
        <time>2020-11-01T13:24:35Z</time>
      </trkpt>
      <trkpt lat="43.257" lon="-5.1221733">
        <ele>246.0</ele>
        <time>2020-11-01T13:24:36Z</time>
      </trkpt>
      <trkpt lat="43.25701" lon="-5.122183">
        <ele>246.0</ele>
        <time>2020-11-01T13:24:37Z</time>
      </trkpt>
      <trkpt lat="43.257015" lon="-5.122194">
        <ele>246.0</ele>
        <time>2020-11-01T13:24:38Z</time>
      </trkpt>
      <trkpt lat="43.257027" lon="-5.1222034">
        <ele>246.0</ele>
        <time>2020-11-01T13:24:39Z</time>
      </trkpt>
      <trkpt lat="43.25703" lon="-5.12221">
        <ele>246.0</ele>
        <time>2020-11-01T13:24:40Z</time>
      </trkpt>
      <trkpt lat="43.257046" lon="-5.12222">
        <ele>246.0</ele>
        <time>2020-11-01T13:24:42Z</time>
      </trkpt>
      <trkpt lat="43.257046" lon="-5.122218">
        <ele>246.0</ele>
        <time>2020-11-01T13:24:43Z</time>
      </trkpt>
      <trkpt lat="43.257046" lon="-5.1222143">
        <ele>246.0</ele>
        <time>2020-11-01T13:24:44Z</time>
      </trkpt>
      <trkpt lat="43.257053" lon="-5.122209">
        <ele>246.0</ele>
        <time>2020-11-01T13:24:46Z</time>
      </trkpt>
      <trkpt lat="43.257057" lon="-5.122205">
        <ele>246.0</ele>
        <time>2020-11-01T13:24:46Z</time>
      </trkpt>
      <trkpt lat="43.25707" lon="-5.1222024">
        <ele>245.0</ele>
        <time>2020-11-01T13:24:47Z</time>
      </trkpt>
      <trkpt lat="43.257084" lon="-5.1221933">
        <ele>245.0</ele>
        <time>2020-11-01T13:24:49Z</time>
      </trkpt>
      <trkpt lat="43.257084" lon="-5.122191">
        <ele>245.0</ele>
        <time>2020-11-01T13:24:50Z</time>
      </trkpt>
      <trkpt lat="43.257084" lon="-5.122186">
        <ele>245.0</ele>
        <time>2020-11-01T13:24:51Z</time>
      </trkpt>
      <trkpt lat="43.257084" lon="-5.1221805">
        <ele>245.0</ele>
        <time>2020-11-01T13:24:52Z</time>
      </trkpt>
      <trkpt lat="43.257084" lon="-5.1221757">
        <ele>245.0</ele>
        <time>2020-11-01T13:24:54Z</time>
      </trkpt>
      <trkpt lat="43.257088" lon="-5.122171">
        <ele>244.0</ele>
        <time>2020-11-01T13:24:54Z</time>
      </trkpt>
      <trkpt lat="43.257088" lon="-5.122167">
        <ele>244.0</ele>
        <time>2020-11-01T13:24:55Z</time>
      </trkpt>
      <trkpt lat="43.25709" lon="-5.122162">
        <ele>244.0</ele>
        <time>2020-11-01T13:24:56Z</time>
      </trkpt>
      <trkpt lat="43.25709" lon="-5.1221576">
        <ele>244.0</ele>
        <time>2020-11-01T13:24:57Z</time>
      </trkpt>
      <trkpt lat="43.2571" lon="-5.122153">
        <ele>244.0</ele>
        <time>2020-11-01T13:24:58Z</time>
      </trkpt>
      <trkpt lat="43.257103" lon="-5.122148">
        <ele>243.0</ele>
        <time>2020-11-01T13:24:59Z</time>
      </trkpt>
      <trkpt lat="43.257107" lon="-5.122144">
        <ele>243.0</ele>
        <time>2020-11-01T13:25:00Z</time>
      </trkpt>
      <trkpt lat="43.25712" lon="-5.1221423">
        <ele>243.0</ele>
        <time>2020-11-01T13:25:02Z</time>
      </trkpt>
      <trkpt lat="43.257122" lon="-5.1221395">
        <ele>243.0</ele>
        <time>2020-11-01T13:25:02Z</time>
      </trkpt>
      <trkpt lat="43.25713" lon="-5.1221375">
        <ele>243.0</ele>
        <time>2020-11-01T13:25:03Z</time>
      </trkpt>
      <trkpt lat="43.257137" lon="-5.1221347">
        <ele>243.0</ele>
        <time>2020-11-01T13:25:04Z</time>
      </trkpt>
      <trkpt lat="43.257145" lon="-5.1221313">
        <ele>243.0</ele>
        <time>2020-11-01T13:25:05Z</time>
      </trkpt>
      <trkpt lat="43.257156" lon="-5.1221275">
        <ele>243.0</ele>
        <time>2020-11-01T13:25:06Z</time>
      </trkpt>
      <trkpt lat="43.257164" lon="-5.1221237">
        <ele>243.0</ele>
        <time>2020-11-01T13:25:07Z</time>
      </trkpt>
      <trkpt lat="43.257175" lon="-5.122118">
        <ele>243.0</ele>
        <time>2020-11-01T13:25:08Z</time>
      </trkpt>
      <trkpt lat="43.257187" lon="-5.122111">
        <ele>243.0</ele>
        <time>2020-11-01T13:25:10Z</time>
      </trkpt>
      <trkpt lat="43.257195" lon="-5.122103">
        <ele>243.0</ele>
        <time>2020-11-01T13:25:10Z</time>
      </trkpt>
      <trkpt lat="43.257206" lon="-5.122097">
        <ele>243.0</ele>
        <time>2020-11-01T13:25:11Z</time>
      </trkpt>
      <trkpt lat="43.257217" lon="-5.1220903">
        <ele>243.0</ele>
        <time>2020-11-01T13:25:12Z</time>
      </trkpt>
      <trkpt lat="43.257225" lon="-5.122084">
        <ele>243.0</ele>
        <time>2020-11-01T13:25:13Z</time>
      </trkpt>
      <trkpt lat="43.257236" lon="-5.122079">
        <ele>243.0</ele>
        <time>2020-11-01T13:25:14Z</time>
      </trkpt>
      <trkpt lat="43.25724" lon="-5.122074">
        <ele>243.0</ele>
        <time>2020-11-01T13:25:15Z</time>
      </trkpt>
      <trkpt lat="43.25725" lon="-5.1220703">
        <ele>243.0</ele>
        <time>2020-11-01T13:25:16Z</time>
      </trkpt>
      <trkpt lat="43.257256" lon="-5.1220655">
        <ele>243.0</ele>
        <time>2020-11-01T13:25:17Z</time>
      </trkpt>
      <trkpt lat="43.257267" lon="-5.1220627">
        <ele>243.0</ele>
        <time>2020-11-01T13:25:18Z</time>
      </trkpt>
      <trkpt lat="43.25728" lon="-5.122061">
        <ele>243.0</ele>
        <time>2020-11-01T13:25:19Z</time>
      </trkpt>
      <trkpt lat="43.257286" lon="-5.1220593">
        <ele>243.0</ele>
        <time>2020-11-01T13:25:20Z</time>
      </trkpt>
      <trkpt lat="43.257298" lon="-5.1220565">
        <ele>243.0</ele>
        <time>2020-11-01T13:25:21Z</time>
      </trkpt>
      <trkpt lat="43.25731" lon="-5.1220527">
        <ele>243.0</ele>
        <time>2020-11-01T13:25:21Z</time>
      </trkpt>
      <trkpt lat="43.257324" lon="-5.122047">
        <ele>243.0</ele>
        <time>2020-11-01T13:25:22Z</time>
      </trkpt>
      <trkpt lat="43.25734" lon="-5.122042">
        <ele>243.0</ele>
        <time>2020-11-01T13:25:23Z</time>
      </trkpt>
      <trkpt lat="43.25735" lon="-5.122039">
        <ele>243.0</ele>
        <time>2020-11-01T13:25:24Z</time>
      </trkpt>
      <trkpt lat="43.257366" lon="-5.1220374">
        <ele>243.0</ele>
        <time>2020-11-01T13:25:25Z</time>
      </trkpt>
      <trkpt lat="43.257374" lon="-5.122037">
        <ele>243.0</ele>
        <time>2020-11-01T13:25:26Z</time>
      </trkpt>
      <trkpt lat="43.25739" lon="-5.122036">
        <ele>243.0</ele>
        <time>2020-11-01T13:25:27Z</time>
      </trkpt>
      <trkpt lat="43.257404" lon="-5.122036">
        <ele>243.0</ele>
        <time>2020-11-01T13:25:28Z</time>
      </trkpt>
      <trkpt lat="43.257416" lon="-5.1220345">
        <ele>243.0</ele>
        <time>2020-11-01T13:25:29Z</time>
      </trkpt>
      <trkpt lat="43.257427" lon="-5.122034">
        <ele>243.0</ele>
        <time>2020-11-01T13:25:30Z</time>
      </trkpt>
      <trkpt lat="43.257435" lon="-5.1220355">
        <ele>243.0</ele>
        <time>2020-11-01T13:25:31Z</time>
      </trkpt>
      <trkpt lat="43.257446" lon="-5.122038">
        <ele>243.0</ele>
        <time>2020-11-01T13:25:32Z</time>
      </trkpt>
      <trkpt lat="43.257458" lon="-5.122039">
        <ele>243.0</ele>
        <time>2020-11-01T13:25:33Z</time>
      </trkpt>
      <trkpt lat="43.257465" lon="-5.122037">
        <ele>243.0</ele>
        <time>2020-11-01T13:25:34Z</time>
      </trkpt>
      <trkpt lat="43.257477" lon="-5.122035">
        <ele>243.0</ele>
        <time>2020-11-01T13:25:35Z</time>
      </trkpt>
      <trkpt lat="43.25749" lon="-5.122034">
        <ele>243.0</ele>
        <time>2020-11-01T13:25:36Z</time>
      </trkpt>
      <trkpt lat="43.257492" lon="-5.122034">
        <ele>243.0</ele>
        <time>2020-11-01T13:25:38Z</time>
      </trkpt>
      <trkpt lat="43.257496" lon="-5.122034">
        <ele>243.0</ele>
        <time>2020-11-01T13:25:38Z</time>
      </trkpt>
      <trkpt lat="43.257504" lon="-5.122033">
        <ele>243.0</ele>
        <time>2020-11-01T13:25:39Z</time>
      </trkpt>
      <trkpt lat="43.25751" lon="-5.12203">
        <ele>243.0</ele>
        <time>2020-11-01T13:25:40Z</time>
      </trkpt>
      <trkpt lat="43.257523" lon="-5.122026">
        <ele>243.0</ele>
        <time>2020-11-01T13:25:41Z</time>
      </trkpt>
      <trkpt lat="43.257534" lon="-5.1220245">
        <ele>243.0</ele>
        <time>2020-11-01T13:25:42Z</time>
      </trkpt>
      <trkpt lat="43.257545" lon="-5.122023">
        <ele>243.0</ele>
        <time>2020-11-01T13:25:43Z</time>
      </trkpt>
      <trkpt lat="43.257553" lon="-5.122023">
        <ele>243.0</ele>
        <time>2020-11-01T13:25:44Z</time>
      </trkpt>
      <trkpt lat="43.25756" lon="-5.122023">
        <ele>243.0</ele>
        <time>2020-11-01T13:25:45Z</time>
      </trkpt>
      <trkpt lat="43.25757" lon="-5.1220255">
        <ele>243.0</ele>
        <time>2020-11-01T13:25:46Z</time>
      </trkpt>
      <trkpt lat="43.25758" lon="-5.1220284">
        <ele>243.0</ele>
        <time>2020-11-01T13:25:47Z</time>
      </trkpt>
      <trkpt lat="43.25759" lon="-5.1220307">
        <ele>243.0</ele>
        <time>2020-11-01T13:25:48Z</time>
      </trkpt>
      <trkpt lat="43.2576" lon="-5.1220345">
        <ele>243.0</ele>
        <time>2020-11-01T13:25:49Z</time>
      </trkpt>
      <trkpt lat="43.25761" lon="-5.1220384">
        <ele>243.0</ele>
        <time>2020-11-01T13:25:50Z</time>
      </trkpt>
      <trkpt lat="43.25762" lon="-5.12204">
        <ele>243.0</ele>
        <time>2020-11-01T13:25:51Z</time>
      </trkpt>
      <trkpt lat="43.257626" lon="-5.122041">
        <ele>243.0</ele>
        <time>2020-11-01T13:25:53Z</time>
      </trkpt>
      <trkpt lat="43.257637" lon="-5.1220407">
        <ele>243.0</ele>
        <time>2020-11-01T13:25:53Z</time>
      </trkpt>
      <trkpt lat="43.25764" lon="-5.12204">
        <ele>243.0</ele>
        <time>2020-11-01T13:25:54Z</time>
      </trkpt>
      <trkpt lat="43.257652" lon="-5.1220417">
        <ele>243.0</ele>
        <time>2020-11-01T13:25:55Z</time>
      </trkpt>
      <trkpt lat="43.257656" lon="-5.1220427">
        <ele>243.0</ele>
        <time>2020-11-01T13:25:56Z</time>
      </trkpt>
      <trkpt lat="43.257668" lon="-5.1220446">
        <ele>243.0</ele>
        <time>2020-11-01T13:25:57Z</time>
      </trkpt>
      <trkpt lat="43.25767" lon="-5.1220465">
        <ele>243.0</ele>
        <time>2020-11-01T13:25:58Z</time>
      </trkpt>
      <trkpt lat="43.257683" lon="-5.122046">
        <ele>243.0</ele>
        <time>2020-11-01T13:25:59Z</time>
      </trkpt>
      <trkpt lat="43.25769" lon="-5.122045">
        <ele>243.0</ele>
        <time>2020-11-01T13:26:01Z</time>
      </trkpt>
      <trkpt lat="43.2577" lon="-5.1220436">
        <ele>243.0</ele>
        <time>2020-11-01T13:26:01Z</time>
      </trkpt>
      <trkpt lat="43.257713" lon="-5.122044">
        <ele>243.0</ele>
        <time>2020-11-01T13:26:02Z</time>
      </trkpt>
      <trkpt lat="43.257725" lon="-5.1220436">
        <ele>243.0</ele>
        <time>2020-11-01T13:26:03Z</time>
      </trkpt>
      <trkpt lat="43.257732" lon="-5.1220446">
        <ele>243.0</ele>
        <time>2020-11-01T13:26:04Z</time>
      </trkpt>
      <trkpt lat="43.25774" lon="-5.122046">
        <ele>243.0</ele>
        <time>2020-11-01T13:26:05Z</time>
      </trkpt>
      <trkpt lat="43.257748" lon="-5.122048">
        <ele>243.0</ele>
        <time>2020-11-01T13:26:06Z</time>
      </trkpt>
      <trkpt lat="43.257755" lon="-5.12205">
        <ele>243.0</ele>
        <time>2020-11-01T13:26:07Z</time>
      </trkpt>
      <trkpt lat="43.25776" lon="-5.1220493">
        <ele>243.0</ele>
        <time>2020-11-01T13:26:08Z</time>
      </trkpt>
      <trkpt lat="43.257763" lon="-5.122048">
        <ele>244.0</ele>
        <time>2020-11-01T13:26:09Z</time>
      </trkpt>
      <trkpt lat="43.25777" lon="-5.122048">
        <ele>244.0</ele>
        <time>2020-11-01T13:26:10Z</time>
      </trkpt>
      <trkpt lat="43.257774" lon="-5.1220484">
        <ele>244.0</ele>
        <time>2020-11-01T13:26:11Z</time>
      </trkpt>
      <trkpt lat="43.25778" lon="-5.12205">
        <ele>244.0</ele>
        <time>2020-11-01T13:26:12Z</time>
      </trkpt>
      <trkpt lat="43.257786" lon="-5.1220517">
        <ele>244.0</ele>
        <time>2020-11-01T13:26:13Z</time>
      </trkpt>
      <trkpt lat="43.25779" lon="-5.122053">
        <ele>244.0</ele>
        <time>2020-11-01T13:26:14Z</time>
      </trkpt>
      <trkpt lat="43.25779" lon="-5.1220555">
        <ele>244.0</ele>
        <time>2020-11-01T13:26:16Z</time>
      </trkpt>
      <trkpt lat="43.257793" lon="-5.1220584">
        <ele>244.0</ele>
        <time>2020-11-01T13:26:16Z</time>
      </trkpt>
      <trkpt lat="43.2578" lon="-5.122062">
        <ele>244.0</ele>
        <time>2020-11-01T13:26:17Z</time>
      </trkpt>
      <trkpt lat="43.257805" lon="-5.1220675">
        <ele>244.0</ele>
        <time>2020-11-01T13:26:18Z</time>
      </trkpt>
      <trkpt lat="43.25781" lon="-5.1220727">
        <ele>244.0</ele>
        <time>2020-11-01T13:26:19Z</time>
      </trkpt>
      <trkpt lat="43.257816" lon="-5.122078">
        <ele>245.0</ele>
        <time>2020-11-01T13:26:20Z</time>
      </trkpt>
      <trkpt lat="43.257824" lon="-5.1220818">
        <ele>245.0</ele>
        <time>2020-11-01T13:26:21Z</time>
      </trkpt>
      <trkpt lat="43.25783" lon="-5.122085">
        <ele>245.0</ele>
        <time>2020-11-01T13:26:22Z</time>
      </trkpt>
      <trkpt lat="43.257835" lon="-5.122087">
        <ele>245.0</ele>
        <time>2020-11-01T13:26:23Z</time>
      </trkpt>
      <trkpt lat="43.257847" lon="-5.122091">
        <ele>245.0</ele>
        <time>2020-11-01T13:26:24Z</time>
      </trkpt>
      <trkpt lat="43.257854" lon="-5.122096">
        <ele>245.0</ele>
        <time>2020-11-01T13:26:25Z</time>
      </trkpt>
      <trkpt lat="43.257866" lon="-5.1221004">
        <ele>245.0</ele>
        <time>2020-11-01T13:26:26Z</time>
      </trkpt>
      <trkpt lat="43.257877" lon="-5.122104">
        <ele>245.0</ele>
        <time>2020-11-01T13:26:27Z</time>
      </trkpt>
      <trkpt lat="43.257885" lon="-5.122107">
        <ele>245.0</ele>
        <time>2020-11-01T13:26:29Z</time>
      </trkpt>
      <trkpt lat="43.257896" lon="-5.12211">
        <ele>245.0</ele>
        <time>2020-11-01T13:26:29Z</time>
      </trkpt>
      <trkpt lat="43.2579" lon="-5.122112">
        <ele>245.0</ele>
        <time>2020-11-01T13:26:30Z</time>
      </trkpt>
      <trkpt lat="43.25791" lon="-5.1221137">
        <ele>245.0</ele>
        <time>2020-11-01T13:26:31Z</time>
      </trkpt>
      <trkpt lat="43.25792" lon="-5.122117">
        <ele>246.0</ele>
        <time>2020-11-01T13:26:32Z</time>
      </trkpt>
      <trkpt lat="43.257927" lon="-5.122121">
        <ele>246.0</ele>
        <time>2020-11-01T13:26:33Z</time>
      </trkpt>
      <trkpt lat="43.257935" lon="-5.1221256">
        <ele>246.0</ele>
        <time>2020-11-01T13:26:34Z</time>
      </trkpt>
      <trkpt lat="43.257942" lon="-5.1221304">
        <ele>246.0</ele>
        <time>2020-11-01T13:26:35Z</time>
      </trkpt>
      <trkpt lat="43.25795" lon="-5.122137">
        <ele>246.0</ele>
        <time>2020-11-01T13:26:36Z</time>
      </trkpt>
      <trkpt lat="43.257954" lon="-5.1221457">
        <ele>246.0</ele>
        <time>2020-11-01T13:26:37Z</time>
      </trkpt>
      <trkpt lat="43.257957" lon="-5.1221547">
        <ele>246.0</ele>
        <time>2020-11-01T13:26:38Z</time>
      </trkpt>
      <trkpt lat="43.257965" lon="-5.122166">
        <ele>246.0</ele>
        <time>2020-11-01T13:26:39Z</time>
      </trkpt>
      <trkpt lat="43.25797" lon="-5.122177">
        <ele>246.0</ele>
        <time>2020-11-01T13:26:40Z</time>
      </trkpt>
      <trkpt lat="43.257973" lon="-5.1221876">
        <ele>246.0</ele>
        <time>2020-11-01T13:26:41Z</time>
      </trkpt>
      <trkpt lat="43.25798" lon="-5.1221976">
        <ele>246.0</ele>
        <time>2020-11-01T13:26:42Z</time>
      </trkpt>
      <trkpt lat="43.257984" lon="-5.1222057">
        <ele>246.0</ele>
        <time>2020-11-01T13:26:44Z</time>
      </trkpt>
      <trkpt lat="43.257988" lon="-5.1222124">
        <ele>246.0</ele>
        <time>2020-11-01T13:26:44Z</time>
      </trkpt>
      <trkpt lat="43.257988" lon="-5.1222177">
        <ele>246.0</ele>
        <time>2020-11-01T13:26:45Z</time>
      </trkpt>
      <trkpt lat="43.257996" lon="-5.122221">
        <ele>246.0</ele>
        <time>2020-11-01T13:26:46Z</time>
      </trkpt>
      <trkpt lat="43.258" lon="-5.122225">
        <ele>246.0</ele>
        <time>2020-11-01T13:26:47Z</time>
      </trkpt>
      <trkpt lat="43.258003" lon="-5.1222267">
        <ele>246.0</ele>
        <time>2020-11-01T13:26:48Z</time>
      </trkpt>
      <trkpt lat="43.258015" lon="-5.12223">
        <ele>246.0</ele>
        <time>2020-11-01T13:26:49Z</time>
      </trkpt>
      <trkpt lat="43.25802" lon="-5.1222353">
        <ele>246.0</ele>
        <time>2020-11-01T13:26:50Z</time>
      </trkpt>
      <trkpt lat="43.25803" lon="-5.1222415">
        <ele>246.0</ele>
        <time>2020-11-01T13:26:51Z</time>
      </trkpt>
      <trkpt lat="43.258034" lon="-5.1222467">
        <ele>246.0</ele>
        <time>2020-11-01T13:26:52Z</time>
      </trkpt>
      <trkpt lat="43.258045" lon="-5.1222525">
        <ele>246.0</ele>
        <time>2020-11-01T13:26:53Z</time>
      </trkpt>
      <trkpt lat="43.25805" lon="-5.122259">
        <ele>246.0</ele>
        <time>2020-11-01T13:26:54Z</time>
      </trkpt>
      <trkpt lat="43.25806" lon="-5.122266">
        <ele>246.0</ele>
        <time>2020-11-01T13:26:55Z</time>
      </trkpt>
      <trkpt lat="43.25807" lon="-5.122271">
        <ele>246.0</ele>
        <time>2020-11-01T13:26:56Z</time>
      </trkpt>
      <trkpt lat="43.25808" lon="-5.122274">
        <ele>246.0</ele>
        <time>2020-11-01T13:26:57Z</time>
      </trkpt>
      <trkpt lat="43.25809" lon="-5.1222773">
        <ele>246.0</ele>
        <time>2020-11-01T13:26:58Z</time>
      </trkpt>
      <trkpt lat="43.258095" lon="-5.1222816">
        <ele>246.0</ele>
        <time>2020-11-01T13:26:59Z</time>
      </trkpt>
      <trkpt lat="43.258106" lon="-5.122283">
        <ele>246.0</ele>
        <time>2020-11-01T13:27:00Z</time>
      </trkpt>
      <trkpt lat="43.258118" lon="-5.122283">
        <ele>246.0</ele>
        <time>2020-11-01T13:27:01Z</time>
      </trkpt>
      <trkpt lat="43.25812" lon="-5.1222835">
        <ele>246.0</ele>
        <time>2020-11-01T13:27:02Z</time>
      </trkpt>
      <trkpt lat="43.25813" lon="-5.1222835">
        <ele>246.0</ele>
        <time>2020-11-01T13:27:03Z</time>
      </trkpt>
      <trkpt lat="43.258137" lon="-5.122285">
        <ele>246.0</ele>
        <time>2020-11-01T13:27:04Z</time>
      </trkpt>
      <trkpt lat="43.25815" lon="-5.122288">
        <ele>246.0</ele>
        <time>2020-11-01T13:27:05Z</time>
      </trkpt>
      <trkpt lat="43.25816" lon="-5.12229">
        <ele>246.0</ele>
        <time>2020-11-01T13:27:07Z</time>
      </trkpt>
      <trkpt lat="43.258163" lon="-5.12229">
        <ele>246.0</ele>
        <time>2020-11-01T13:27:07Z</time>
      </trkpt>
      <trkpt lat="43.258175" lon="-5.122289">
        <ele>246.0</ele>
        <time>2020-11-01T13:27:08Z</time>
      </trkpt>
      <trkpt lat="43.258183" lon="-5.1222878">
        <ele>246.0</ele>
        <time>2020-11-01T13:27:09Z</time>
      </trkpt>
      <trkpt lat="43.258194" lon="-5.1222854">
        <ele>246.0</ele>
        <time>2020-11-01T13:27:10Z</time>
      </trkpt>
      <trkpt lat="43.258205" lon="-5.122284">
        <ele>246.0</ele>
        <time>2020-11-01T13:27:11Z</time>
      </trkpt>
      <trkpt lat="43.258213" lon="-5.122283">
        <ele>246.0</ele>
        <time>2020-11-01T13:27:12Z</time>
      </trkpt>
      <trkpt lat="43.258224" lon="-5.1222825">
        <ele>246.0</ele>
        <time>2020-11-01T13:27:13Z</time>
      </trkpt>
      <trkpt lat="43.258236" lon="-5.122281">
        <ele>246.0</ele>
        <time>2020-11-01T13:27:14Z</time>
      </trkpt>
      <trkpt lat="43.258244" lon="-5.12228">
        <ele>246.0</ele>
        <time>2020-11-01T13:27:15Z</time>
      </trkpt>
      <trkpt lat="43.25825" lon="-5.1222816">
        <ele>246.0</ele>
        <time>2020-11-01T13:27:16Z</time>
      </trkpt>
      <trkpt lat="43.25826" lon="-5.122283">
        <ele>246.0</ele>
        <time>2020-11-01T13:27:17Z</time>
      </trkpt>
      <trkpt lat="43.25827" lon="-5.1222835">
        <ele>246.0</ele>
        <time>2020-11-01T13:27:18Z</time>
      </trkpt>
      <trkpt lat="43.25828" lon="-5.1222835">
        <ele>246.0</ele>
        <time>2020-11-01T13:27:19Z</time>
      </trkpt>
      <trkpt lat="43.258297" lon="-5.122283">
        <ele>246.0</ele>
        <time>2020-11-01T13:27:20Z</time>
      </trkpt>
      <trkpt lat="43.25831" lon="-5.122281">
        <ele>246.0</ele>
        <time>2020-11-01T13:27:21Z</time>
      </trkpt>
      <trkpt lat="43.258343" lon="-5.122293">
        <ele>246.0</ele>
        <time>2020-11-01T13:27:23Z</time>
      </trkpt>
      <trkpt lat="43.258343" lon="-5.1222944">
        <ele>246.0</ele>
        <time>2020-11-01T13:27:24Z</time>
      </trkpt>
      <trkpt lat="43.258343" lon="-5.1222963">
        <ele>246.0</ele>
        <time>2020-11-01T13:27:25Z</time>
      </trkpt>
      <trkpt lat="43.258347" lon="-5.122297">
        <ele>246.0</ele>
        <time>2020-11-01T13:27:26Z</time>
      </trkpt>
      <trkpt lat="43.258347" lon="-5.122297">
        <ele>246.0</ele>
        <time>2020-11-01T13:27:27Z</time>
      </trkpt>
      <trkpt lat="43.258354" lon="-5.122297">
        <ele>246.0</ele>
        <time>2020-11-01T13:27:28Z</time>
      </trkpt>
      <trkpt lat="43.258358" lon="-5.122294">
        <ele>246.0</ele>
        <time>2020-11-01T13:27:29Z</time>
      </trkpt>
      <trkpt lat="43.25837" lon="-5.122291">
        <ele>246.0</ele>
        <time>2020-11-01T13:27:30Z</time>
      </trkpt>
      <trkpt lat="43.258373" lon="-5.122289">
        <ele>246.0</ele>
        <time>2020-11-01T13:27:31Z</time>
      </trkpt>
      <trkpt lat="43.258385" lon="-5.1222863">
        <ele>246.0</ele>
        <time>2020-11-01T13:27:32Z</time>
      </trkpt>
      <trkpt lat="43.258392" lon="-5.122283">
        <ele>246.0</ele>
        <time>2020-11-01T13:27:33Z</time>
      </trkpt>
      <trkpt lat="43.2584" lon="-5.12228">
        <ele>246.0</ele>
        <time>2020-11-01T13:27:34Z</time>
      </trkpt>
      <trkpt lat="43.258408" lon="-5.1222773">
        <ele>246.0</ele>
        <time>2020-11-01T13:27:36Z</time>
      </trkpt>
      <trkpt lat="43.25842" lon="-5.122279">
        <ele>246.0</ele>
        <time>2020-11-01T13:27:36Z</time>
      </trkpt>
      <trkpt lat="43.258423" lon="-5.1222825">
        <ele>246.0</ele>
        <time>2020-11-01T13:27:37Z</time>
      </trkpt>
      <trkpt lat="43.258434" lon="-5.122288">
        <ele>246.0</ele>
        <time>2020-11-01T13:27:38Z</time>
      </trkpt>
      <trkpt lat="43.25844" lon="-5.1222944">
        <ele>246.0</ele>
        <time>2020-11-01T13:27:39Z</time>
      </trkpt>
      <trkpt lat="43.258446" lon="-5.1222997">
        <ele>246.0</ele>
        <time>2020-11-01T13:27:40Z</time>
      </trkpt>
      <trkpt lat="43.258453" lon="-5.122304">
        <ele>246.0</ele>
        <time>2020-11-01T13:27:41Z</time>
      </trkpt>
      <trkpt lat="43.25846" lon="-5.1223044">
        <ele>246.0</ele>
        <time>2020-11-01T13:27:42Z</time>
      </trkpt>
      <trkpt lat="43.25847" lon="-5.122306">
        <ele>245.0</ele>
        <time>2020-11-01T13:27:43Z</time>
      </trkpt>
      <trkpt lat="43.25848" lon="-5.1223073">
        <ele>245.0</ele>
        <time>2020-11-01T13:27:44Z</time>
      </trkpt>
      <trkpt lat="43.258484" lon="-5.122306">
        <ele>245.0</ele>
        <time>2020-11-01T13:27:45Z</time>
      </trkpt>
      <trkpt lat="43.258495" lon="-5.122305">
        <ele>245.0</ele>
        <time>2020-11-01T13:27:46Z</time>
      </trkpt>
      <trkpt lat="43.258503" lon="-5.122304">
        <ele>245.0</ele>
        <time>2020-11-01T13:27:47Z</time>
      </trkpt>
      <trkpt lat="43.258507" lon="-5.1223035">
        <ele>245.0</ele>
        <time>2020-11-01T13:27:48Z</time>
      </trkpt>
      <trkpt lat="43.258522" lon="-5.1223016">
        <ele>245.0</ele>
        <time>2020-11-01T13:27:50Z</time>
      </trkpt>
      <trkpt lat="43.258522" lon="-5.122299">
        <ele>245.0</ele>
        <time>2020-11-01T13:27:51Z</time>
      </trkpt>
      <trkpt lat="43.258526" lon="-5.122297">
        <ele>245.0</ele>
        <time>2020-11-01T13:27:52Z</time>
      </trkpt>
      <trkpt lat="43.258533" lon="-5.122294">
        <ele>245.0</ele>
        <time>2020-11-01T13:27:53Z</time>
      </trkpt>
      <trkpt lat="43.258537" lon="-5.122292">
        <ele>245.0</ele>
        <time>2020-11-01T13:27:54Z</time>
      </trkpt>
      <trkpt lat="43.258537" lon="-5.122289">
        <ele>245.0</ele>
        <time>2020-11-01T13:27:55Z</time>
      </trkpt>
      <trkpt lat="43.25854" lon="-5.1222878">
        <ele>245.0</ele>
        <time>2020-11-01T13:27:56Z</time>
      </trkpt>
      <trkpt lat="43.25854" lon="-5.122288">
        <ele>245.0</ele>
        <time>2020-11-01T13:27:57Z</time>
      </trkpt>
      <trkpt lat="43.25855" lon="-5.122289">
        <ele>245.0</ele>
        <time>2020-11-01T13:27:59Z</time>
      </trkpt>
      <trkpt lat="43.258553" lon="-5.1222863">
        <ele>245.0</ele>
        <time>2020-11-01T13:27:59Z</time>
      </trkpt>
      <trkpt lat="43.258564" lon="-5.122282">
        <ele>245.0</ele>
        <time>2020-11-01T13:28:00Z</time>
      </trkpt>
      <trkpt lat="43.258568" lon="-5.122279">
        <ele>245.0</ele>
        <time>2020-11-01T13:28:01Z</time>
      </trkpt>
      <trkpt lat="43.25857" lon="-5.1222777">
        <ele>245.0</ele>
        <time>2020-11-01T13:28:02Z</time>
      </trkpt>
      <trkpt lat="43.258583" lon="-5.1222754">
        <ele>245.0</ele>
        <time>2020-11-01T13:28:03Z</time>
      </trkpt>
      <trkpt lat="43.258595" lon="-5.1222734">
        <ele>245.0</ele>
        <time>2020-11-01T13:28:04Z</time>
      </trkpt>
      <trkpt lat="43.258602" lon="-5.1222715">
        <ele>245.0</ele>
        <time>2020-11-01T13:28:05Z</time>
      </trkpt>
      <trkpt lat="43.258614" lon="-5.122271">
        <ele>245.0</ele>
        <time>2020-11-01T13:28:06Z</time>
      </trkpt>
      <trkpt lat="43.25863" lon="-5.12227">
        <ele>245.0</ele>
        <time>2020-11-01T13:28:07Z</time>
      </trkpt>
      <trkpt lat="43.25864" lon="-5.1222687">
        <ele>245.0</ele>
        <time>2020-11-01T13:28:08Z</time>
      </trkpt>
      <trkpt lat="43.258648" lon="-5.1222677">
        <ele>245.0</ele>
        <time>2020-11-01T13:28:09Z</time>
      </trkpt>
      <trkpt lat="43.258656" lon="-5.1222687">
        <ele>245.0</ele>
        <time>2020-11-01T13:28:10Z</time>
      </trkpt>
      <trkpt lat="43.258663" lon="-5.1222696">
        <ele>245.0</ele>
        <time>2020-11-01T13:28:11Z</time>
      </trkpt>
      <trkpt lat="43.25868" lon="-5.1222696">
        <ele>245.0</ele>
        <time>2020-11-01T13:28:12Z</time>
      </trkpt>
      <trkpt lat="43.25869" lon="-5.1222687">
        <ele>245.0</ele>
        <time>2020-11-01T13:28:13Z</time>
      </trkpt>
      <trkpt lat="43.258698" lon="-5.1222677">
        <ele>245.0</ele>
        <time>2020-11-01T13:28:14Z</time>
      </trkpt>
      <trkpt lat="43.258705" lon="-5.122266">
        <ele>245.0</ele>
        <time>2020-11-01T13:28:15Z</time>
      </trkpt>
      <trkpt lat="43.258713" lon="-5.122264">
        <ele>245.0</ele>
        <time>2020-11-01T13:28:16Z</time>
      </trkpt>
      <trkpt lat="43.25872" lon="-5.122264">
        <ele>246.0</ele>
        <time>2020-11-01T13:28:17Z</time>
      </trkpt>
      <trkpt lat="43.258728" lon="-5.122264">
        <ele>246.0</ele>
        <time>2020-11-01T13:28:18Z</time>
      </trkpt>
      <trkpt lat="43.258736" lon="-5.122265">
        <ele>246.0</ele>
        <time>2020-11-01T13:28:20Z</time>
      </trkpt>
      <trkpt lat="43.258747" lon="-5.122266">
        <ele>246.0</ele>
        <time>2020-11-01T13:28:20Z</time>
      </trkpt>
      <trkpt lat="43.25876" lon="-5.122266">
        <ele>246.0</ele>
        <time>2020-11-01T13:28:21Z</time>
      </trkpt>
      <trkpt lat="43.258766" lon="-5.1222615">
        <ele>246.0</ele>
        <time>2020-11-01T13:28:22Z</time>
      </trkpt>
      <trkpt lat="43.258774" lon="-5.1222563">
        <ele>246.0</ele>
        <time>2020-11-01T13:28:23Z</time>
      </trkpt>
      <trkpt lat="43.25879" lon="-5.122249">
        <ele>246.0</ele>
        <time>2020-11-01T13:28:24Z</time>
      </trkpt>
      <trkpt lat="43.258797" lon="-5.1222434">
        <ele>246.0</ele>
        <time>2020-11-01T13:28:25Z</time>
      </trkpt>
      <trkpt lat="43.258804" lon="-5.122237">
        <ele>247.0</ele>
        <time>2020-11-01T13:28:26Z</time>
      </trkpt>
      <trkpt lat="43.258812" lon="-5.122232">
        <ele>247.0</ele>
        <time>2020-11-01T13:28:28Z</time>
      </trkpt>
      <trkpt lat="43.25882" lon="-5.1222277">
        <ele>247.0</ele>
        <time>2020-11-01T13:28:28Z</time>
      </trkpt>
      <trkpt lat="43.258827" lon="-5.122225">
        <ele>247.0</ele>
        <time>2020-11-01T13:28:29Z</time>
      </trkpt>
      <trkpt lat="43.258835" lon="-5.122221">
        <ele>247.0</ele>
        <time>2020-11-01T13:28:30Z</time>
      </trkpt>
      <trkpt lat="43.25884" lon="-5.122217">
        <ele>247.0</ele>
        <time>2020-11-01T13:28:31Z</time>
      </trkpt>
      <trkpt lat="43.25885" lon="-5.1222153">
        <ele>248.0</ele>
        <time>2020-11-01T13:28:32Z</time>
      </trkpt>
      <trkpt lat="43.258858" lon="-5.122214">
        <ele>248.0</ele>
        <time>2020-11-01T13:28:33Z</time>
      </trkpt>
      <trkpt lat="43.25887" lon="-5.122214">
        <ele>248.0</ele>
        <time>2020-11-01T13:28:34Z</time>
      </trkpt>
      <trkpt lat="43.25888" lon="-5.1222115">
        <ele>248.0</ele>
        <time>2020-11-01T13:28:35Z</time>
      </trkpt>
      <trkpt lat="43.258892" lon="-5.1222095">
        <ele>248.0</ele>
        <time>2020-11-01T13:28:36Z</time>
      </trkpt>
      <trkpt lat="43.2589" lon="-5.122208">
        <ele>249.0</ele>
        <time>2020-11-01T13:28:37Z</time>
      </trkpt>
      <trkpt lat="43.258907" lon="-5.122207">
        <ele>249.0</ele>
        <time>2020-11-01T13:28:38Z</time>
      </trkpt>
      <trkpt lat="43.25891" lon="-5.122212">
        <ele>249.0</ele>
        <time>2020-11-01T13:28:39Z</time>
      </trkpt>
      <trkpt lat="43.258915" lon="-5.122217">
        <ele>249.0</ele>
        <time>2020-11-01T13:28:40Z</time>
      </trkpt>
      <trkpt lat="43.258923" lon="-5.1222215">
        <ele>249.0</ele>
        <time>2020-11-01T13:28:41Z</time>
      </trkpt>
      <trkpt lat="43.258926" lon="-5.122225">
        <ele>249.0</ele>
        <time>2020-11-01T13:28:43Z</time>
      </trkpt>
      <trkpt lat="43.25893" lon="-5.1222277">
        <ele>250.0</ele>
        <time>2020-11-01T13:28:43Z</time>
      </trkpt>
      <trkpt lat="43.25894" lon="-5.122232">
        <ele>250.0</ele>
        <time>2020-11-01T13:28:44Z</time>
      </trkpt>
      <trkpt lat="43.258945" lon="-5.1222353">
        <ele>250.0</ele>
        <time>2020-11-01T13:28:45Z</time>
      </trkpt>
      <trkpt lat="43.258953" lon="-5.122238">
        <ele>250.0</ele>
        <time>2020-11-01T13:28:46Z</time>
      </trkpt>
      <trkpt lat="43.258957" lon="-5.1222415">
        <ele>250.0</ele>
        <time>2020-11-01T13:28:47Z</time>
      </trkpt>
      <trkpt lat="43.25897" lon="-5.122246">
        <ele>250.0</ele>
        <time>2020-11-01T13:28:48Z</time>
      </trkpt>
      <trkpt lat="43.258976" lon="-5.12225">
        <ele>250.0</ele>
        <time>2020-11-01T13:28:49Z</time>
      </trkpt>
      <trkpt lat="43.258984" lon="-5.122255">
        <ele>250.0</ele>
        <time>2020-11-01T13:28:50Z</time>
      </trkpt>
      <trkpt lat="43.25899" lon="-5.1222606">
        <ele>250.0</ele>
        <time>2020-11-01T13:28:51Z</time>
      </trkpt>
      <trkpt lat="43.259" lon="-5.1222653">
        <ele>250.0</ele>
        <time>2020-11-01T13:28:52Z</time>
      </trkpt>
      <trkpt lat="43.259003" lon="-5.1222687">
        <ele>251.0</ele>
        <time>2020-11-01T13:28:53Z</time>
      </trkpt>
      <trkpt lat="43.259003" lon="-5.1222725">
        <ele>251.0</ele>
        <time>2020-11-01T13:28:54Z</time>
      </trkpt>
      <trkpt lat="43.259007" lon="-5.122288">
        <ele>251.0</ele>
        <time>2020-11-01T13:28:56Z</time>
      </trkpt>
      <trkpt lat="43.259007" lon="-5.122289">
        <ele>251.0</ele>
        <time>2020-11-01T13:28:57Z</time>
      </trkpt>
      <trkpt lat="43.259014" lon="-5.1222906">
        <ele>251.0</ele>
        <time>2020-11-01T13:28:58Z</time>
      </trkpt>
      <trkpt lat="43.25902" lon="-5.122291">
        <ele>251.0</ele>
        <time>2020-11-01T13:28:59Z</time>
      </trkpt>
      <trkpt lat="43.25903" lon="-5.1222925">
        <ele>251.0</ele>
        <time>2020-11-01T13:29:00Z</time>
      </trkpt>
      <trkpt lat="43.259033" lon="-5.1222935">
        <ele>251.0</ele>
        <time>2020-11-01T13:29:01Z</time>
      </trkpt>
      <trkpt lat="43.259037" lon="-5.1222963">
        <ele>251.0</ele>
        <time>2020-11-01T13:29:02Z</time>
      </trkpt>
      <trkpt lat="43.25905" lon="-5.122305">
        <ele>251.0</ele>
        <time>2020-11-01T13:29:04Z</time>
      </trkpt>
      <trkpt lat="43.25905" lon="-5.1223054">
        <ele>251.0</ele>
        <time>2020-11-01T13:29:05Z</time>
      </trkpt>
      <trkpt lat="43.259052" lon="-5.122307">
        <ele>251.0</ele>
        <time>2020-11-01T13:29:07Z</time>
      </trkpt>
      <trkpt lat="43.259075" lon="-5.122315">
        <ele>251.0</ele>
        <time>2020-11-01T13:29:08Z</time>
      </trkpt>
      <trkpt lat="43.259075" lon="-5.1223173">
        <ele>251.0</ele>
        <time>2020-11-01T13:29:09Z</time>
      </trkpt>
      <trkpt lat="43.25908" lon="-5.122324">
        <ele>252.0</ele>
        <time>2020-11-01T13:29:10Z</time>
      </trkpt>
      <trkpt lat="43.259087" lon="-5.1223335">
        <ele>252.0</ele>
        <time>2020-11-01T13:29:11Z</time>
      </trkpt>
      <trkpt lat="43.25909" lon="-5.1223454">
        <ele>252.0</ele>
        <time>2020-11-01T13:29:12Z</time>
      </trkpt>
      <trkpt lat="43.259094" lon="-5.122356">
        <ele>252.0</ele>
        <time>2020-11-01T13:29:13Z</time>
      </trkpt>
      <trkpt lat="43.2591" lon="-5.122369">
        <ele>252.0</ele>
        <time>2020-11-01T13:29:15Z</time>
      </trkpt>
      <trkpt lat="43.259106" lon="-5.122382">
        <ele>252.0</ele>
        <time>2020-11-01T13:29:15Z</time>
      </trkpt>
      <trkpt lat="43.25911" lon="-5.1223955">
        <ele>252.0</ele>
        <time>2020-11-01T13:29:16Z</time>
      </trkpt>
      <trkpt lat="43.259117" lon="-5.122406">
        <ele>253.0</ele>
        <time>2020-11-01T13:29:17Z</time>
      </trkpt>
      <trkpt lat="43.25912" lon="-5.1224136">
        <ele>253.0</ele>
        <time>2020-11-01T13:29:18Z</time>
      </trkpt>
      <trkpt lat="43.259132" lon="-5.122418">
        <ele>253.0</ele>
        <time>2020-11-01T13:29:19Z</time>
      </trkpt>
      <trkpt lat="43.25914" lon="-5.122421">
        <ele>253.0</ele>
        <time>2020-11-01T13:29:20Z</time>
      </trkpt>
      <trkpt lat="43.25915" lon="-5.122423">
        <ele>253.0</ele>
        <time>2020-11-01T13:29:21Z</time>
      </trkpt>
      <trkpt lat="43.259155" lon="-5.122428">
        <ele>254.0</ele>
        <time>2020-11-01T13:29:22Z</time>
      </trkpt>
      <trkpt lat="43.259167" lon="-5.1224327">
        <ele>254.0</ele>
        <time>2020-11-01T13:29:23Z</time>
      </trkpt>
      <trkpt lat="43.25917" lon="-5.1224384">
        <ele>254.0</ele>
        <time>2020-11-01T13:29:24Z</time>
      </trkpt>
      <trkpt lat="43.25918" lon="-5.1224465">
        <ele>254.0</ele>
        <time>2020-11-01T13:29:25Z</time>
      </trkpt>
      <trkpt lat="43.259182" lon="-5.122455">
        <ele>254.0</ele>
        <time>2020-11-01T13:29:26Z</time>
      </trkpt>
      <trkpt lat="43.259186" lon="-5.1224623">
        <ele>255.0</ele>
        <time>2020-11-01T13:29:27Z</time>
      </trkpt>
      <trkpt lat="43.2592" lon="-5.1224694">
        <ele>255.0</ele>
        <time>2020-11-01T13:29:28Z</time>
      </trkpt>
      <trkpt lat="43.259216" lon="-5.12248">
        <ele>255.0</ele>
        <time>2020-11-01T13:29:29Z</time>
      </trkpt>
      <trkpt lat="43.259228" lon="-5.1224895">
        <ele>255.0</ele>
        <time>2020-11-01T13:29:30Z</time>
      </trkpt>
      <trkpt lat="43.25924" lon="-5.122496">
        <ele>255.0</ele>
        <time>2020-11-01T13:29:31Z</time>
      </trkpt>
      <trkpt lat="43.259243" lon="-5.122504">
        <ele>255.0</ele>
        <time>2020-11-01T13:29:32Z</time>
      </trkpt>
      <trkpt lat="43.259243" lon="-5.122512">
        <ele>256.0</ele>
        <time>2020-11-01T13:29:33Z</time>
      </trkpt>
      <trkpt lat="43.259247" lon="-5.1225176">
        <ele>256.0</ele>
        <time>2020-11-01T13:29:34Z</time>
      </trkpt>
      <trkpt lat="43.25926" lon="-5.1225333">
        <ele>256.0</ele>
        <time>2020-11-01T13:29:36Z</time>
      </trkpt>
      <trkpt lat="43.25926" lon="-5.122535">
        <ele>256.0</ele>
        <time>2020-11-01T13:29:36Z</time>
      </trkpt>
      <trkpt lat="43.25926" lon="-5.12254">
        <ele>256.0</ele>
        <time>2020-11-01T13:29:37Z</time>
      </trkpt>
      <trkpt lat="43.259266" lon="-5.1225467">
        <ele>256.0</ele>
        <time>2020-11-01T13:29:38Z</time>
      </trkpt>
      <trkpt lat="43.259274" lon="-5.1225553">
        <ele>256.0</ele>
        <time>2020-11-01T13:29:39Z</time>
      </trkpt>
      <trkpt lat="43.259285" lon="-5.1225634">
        <ele>256.0</ele>
        <time>2020-11-01T13:29:40Z</time>
      </trkpt>
      <trkpt lat="43.259296" lon="-5.1225715">
        <ele>256.0</ele>
        <time>2020-11-01T13:29:41Z</time>
      </trkpt>
      <trkpt lat="43.2593" lon="-5.122581">
        <ele>256.0</ele>
        <time>2020-11-01T13:29:42Z</time>
      </trkpt>
      <trkpt lat="43.259304" lon="-5.1225886">
        <ele>256.0</ele>
        <time>2020-11-01T13:29:43Z</time>
      </trkpt>
      <trkpt lat="43.25931" lon="-5.1225963">
        <ele>257.0</ele>
        <time>2020-11-01T13:29:44Z</time>
      </trkpt>
      <trkpt lat="43.259315" lon="-5.1226034">
        <ele>257.0</ele>
        <time>2020-11-01T13:29:45Z</time>
      </trkpt>
      <trkpt lat="43.259315" lon="-5.1226077">
        <ele>257.0</ele>
        <time>2020-11-01T13:29:46Z</time>
      </trkpt>
      <trkpt lat="43.25932" lon="-5.122612">
        <ele>257.0</ele>
        <time>2020-11-01T13:29:47Z</time>
      </trkpt>
      <trkpt lat="43.259327" lon="-5.122616">
        <ele>257.0</ele>
        <time>2020-11-01T13:29:48Z</time>
      </trkpt>
      <trkpt lat="43.25933" lon="-5.1226196">
        <ele>258.0</ele>
        <time>2020-11-01T13:29:49Z</time>
      </trkpt>
      <trkpt lat="43.259335" lon="-5.122625">
        <ele>258.0</ele>
        <time>2020-11-01T13:29:50Z</time>
      </trkpt>
      <trkpt lat="43.259346" lon="-5.1226306">
        <ele>258.0</ele>
        <time>2020-11-01T13:29:51Z</time>
      </trkpt>
      <trkpt lat="43.25935" lon="-5.122637">
        <ele>258.0</ele>
        <time>2020-11-01T13:29:52Z</time>
      </trkpt>
      <trkpt lat="43.259357" lon="-5.1226425">
        <ele>258.0</ele>
        <time>2020-11-01T13:29:53Z</time>
      </trkpt>
      <trkpt lat="43.25936" lon="-5.122647">
        <ele>259.0</ele>
        <time>2020-11-01T13:29:54Z</time>
      </trkpt>
      <trkpt lat="43.259365" lon="-5.1226506">
        <ele>259.0</ele>
        <time>2020-11-01T13:29:55Z</time>
      </trkpt>
      <trkpt lat="43.259373" lon="-5.122656">
        <ele>259.0</ele>
        <time>2020-11-01T13:29:56Z</time>
      </trkpt>
      <trkpt lat="43.259373" lon="-5.122662">
        <ele>259.0</ele>
        <time>2020-11-01T13:29:57Z</time>
      </trkpt>
      <trkpt lat="43.259388" lon="-5.122653">
        <ele>261.0</ele>
        <time>2020-11-01T13:30:27Z</time>
      </trkpt>
      <trkpt lat="43.25939" lon="-5.1226616">
        <ele>261.0</ele>
        <time>2020-11-01T13:30:30Z</time>
      </trkpt>
      <trkpt lat="43.25939" lon="-5.122666">
        <ele>261.0</ele>
        <time>2020-11-01T13:30:31Z</time>
      </trkpt>
      <trkpt lat="43.259396" lon="-5.1226764">
        <ele>261.0</ele>
        <time>2020-11-01T13:30:32Z</time>
      </trkpt>
      <trkpt lat="43.259403" lon="-5.122693">
        <ele>261.0</ele>
        <time>2020-11-01T13:30:33Z</time>
      </trkpt>
      <trkpt lat="43.25941" lon="-5.12271">
        <ele>261.0</ele>
        <time>2020-11-01T13:30:34Z</time>
      </trkpt>
      <trkpt lat="43.25942" lon="-5.122726">
        <ele>261.0</ele>
        <time>2020-11-01T13:30:35Z</time>
      </trkpt>
      <trkpt lat="43.259426" lon="-5.12274">
        <ele>262.0</ele>
        <time>2020-11-01T13:30:36Z</time>
      </trkpt>
      <trkpt lat="43.259438" lon="-5.122756">
        <ele>262.0</ele>
        <time>2020-11-01T13:30:37Z</time>
      </trkpt>
      <trkpt lat="43.259453" lon="-5.1227703">
        <ele>262.0</ele>
        <time>2020-11-01T13:30:38Z</time>
      </trkpt>
      <trkpt lat="43.259468" lon="-5.1227837">
        <ele>262.0</ele>
        <time>2020-11-01T13:30:39Z</time>
      </trkpt>
      <trkpt lat="43.25948" lon="-5.122794">
        <ele>262.0</ele>
        <time>2020-11-01T13:30:40Z</time>
      </trkpt>
      <trkpt lat="43.25949" lon="-5.1228027">
        <ele>262.0</ele>
        <time>2020-11-01T13:30:42Z</time>
      </trkpt>
      <trkpt lat="43.259495" lon="-5.1228085">
        <ele>263.0</ele>
        <time>2020-11-01T13:30:42Z</time>
      </trkpt>
      <trkpt lat="43.259495" lon="-5.122815">
        <ele>263.0</ele>
        <time>2020-11-01T13:30:43Z</time>
      </trkpt>
      <trkpt lat="43.259495" lon="-5.1228204">
        <ele>263.0</ele>
        <time>2020-11-01T13:30:44Z</time>
      </trkpt>
      <trkpt lat="43.2595" lon="-5.122825">
        <ele>263.0</ele>
        <time>2020-11-01T13:30:45Z</time>
      </trkpt>
      <trkpt lat="43.259506" lon="-5.1228285">
        <ele>263.0</ele>
        <time>2020-11-01T13:30:46Z</time>
      </trkpt>
      <trkpt lat="43.25951" lon="-5.1228323">
        <ele>263.0</ele>
        <time>2020-11-01T13:30:47Z</time>
      </trkpt>
      <trkpt lat="43.259525" lon="-5.1228356">
        <ele>263.0</ele>
        <time>2020-11-01T13:30:48Z</time>
      </trkpt>
      <trkpt lat="43.259537" lon="-5.1228385">
        <ele>263.0</ele>
        <time>2020-11-01T13:30:49Z</time>
      </trkpt>
      <trkpt lat="43.259544" lon="-5.1228437">
        <ele>263.0</ele>
        <time>2020-11-01T13:30:50Z</time>
      </trkpt>
      <trkpt lat="43.259556" lon="-5.1228485">
        <ele>263.0</ele>
        <time>2020-11-01T13:30:51Z</time>
      </trkpt>
      <trkpt lat="43.259567" lon="-5.1228557">
        <ele>264.0</ele>
        <time>2020-11-01T13:30:52Z</time>
      </trkpt>
      <trkpt lat="43.259575" lon="-5.122863">
        <ele>264.0</ele>
        <time>2020-11-01T13:30:53Z</time>
      </trkpt>
      <trkpt lat="43.259583" lon="-5.12287">
        <ele>264.0</ele>
        <time>2020-11-01T13:30:54Z</time>
      </trkpt>
      <trkpt lat="43.259586" lon="-5.1228757">
        <ele>264.0</ele>
        <time>2020-11-01T13:30:55Z</time>
      </trkpt>
      <trkpt lat="43.259598" lon="-5.1228805">
        <ele>264.0</ele>
        <time>2020-11-01T13:30:56Z</time>
      </trkpt>
      <trkpt lat="43.259605" lon="-5.1228843">
        <ele>264.0</ele>
        <time>2020-11-01T13:30:57Z</time>
      </trkpt>
      <trkpt lat="43.259613" lon="-5.1228905">
        <ele>264.0</ele>
        <time>2020-11-01T13:30:58Z</time>
      </trkpt>
      <trkpt lat="43.259617" lon="-5.122895">
        <ele>264.0</ele>
        <time>2020-11-01T13:30:59Z</time>
      </trkpt>
      <trkpt lat="43.259617" lon="-5.1228995">
        <ele>264.0</ele>
        <time>2020-11-01T13:31:00Z</time>
      </trkpt>
      <trkpt lat="43.25962" lon="-5.1229043">
        <ele>264.0</ele>
        <time>2020-11-01T13:31:01Z</time>
      </trkpt>
      <trkpt lat="43.25963" lon="-5.122909">
        <ele>264.0</ele>
        <time>2020-11-01T13:31:02Z</time>
      </trkpt>
      <trkpt lat="43.259636" lon="-5.122914">
        <ele>264.0</ele>
        <time>2020-11-01T13:31:03Z</time>
      </trkpt>
      <trkpt lat="43.259647" lon="-5.1229196">
        <ele>264.0</ele>
        <time>2020-11-01T13:31:04Z</time>
      </trkpt>
      <trkpt lat="43.25966" lon="-5.122925">
        <ele>264.0</ele>
        <time>2020-11-01T13:31:05Z</time>
      </trkpt>
      <trkpt lat="43.25967" lon="-5.122929">
        <ele>264.0</ele>
        <time>2020-11-01T13:31:06Z</time>
      </trkpt>
      <trkpt lat="43.259693" lon="-5.122941">
        <ele>264.0</ele>
        <time>2020-11-01T13:31:08Z</time>
      </trkpt>
      <trkpt lat="43.2597" lon="-5.122941">
        <ele>264.0</ele>
        <time>2020-11-01T13:31:09Z</time>
      </trkpt>
      <trkpt lat="43.2597" lon="-5.122942">
        <ele>264.0</ele>
        <time>2020-11-01T13:31:10Z</time>
      </trkpt>
      <trkpt lat="43.2597" lon="-5.122944">
        <ele>264.0</ele>
        <time>2020-11-01T13:31:11Z</time>
      </trkpt>
      <trkpt lat="43.259705" lon="-5.1229444">
        <ele>264.0</ele>
        <time>2020-11-01T13:31:12Z</time>
      </trkpt>
      <trkpt lat="43.25971" lon="-5.122944">
        <ele>264.0</ele>
        <time>2020-11-01T13:31:13Z</time>
      </trkpt>
      <trkpt lat="43.25971" lon="-5.1229434">
        <ele>264.0</ele>
        <time>2020-11-01T13:31:14Z</time>
      </trkpt>
      <trkpt lat="43.259716" lon="-5.1229477">
        <ele>264.0</ele>
        <time>2020-11-01T13:31:16Z</time>
      </trkpt>
      <trkpt lat="43.259716" lon="-5.1229486">
        <ele>263.0</ele>
        <time>2020-11-01T13:31:17Z</time>
      </trkpt>
      <trkpt lat="43.25972" lon="-5.1229506">
        <ele>263.0</ele>
        <time>2020-11-01T13:31:19Z</time>
      </trkpt>
      <trkpt lat="43.25972" lon="-5.1229534">
        <ele>263.0</ele>
        <time>2020-11-01T13:31:19Z</time>
      </trkpt>
      <trkpt lat="43.259724" lon="-5.1229563">
        <ele>263.0</ele>
        <time>2020-11-01T13:31:20Z</time>
      </trkpt>
      <trkpt lat="43.25973" lon="-5.122958">
        <ele>263.0</ele>
        <time>2020-11-01T13:31:21Z</time>
      </trkpt>
      <trkpt lat="43.259735" lon="-5.1229596">
        <ele>263.0</ele>
        <time>2020-11-01T13:31:22Z</time>
      </trkpt>
      <trkpt lat="43.25974" lon="-5.1229596">
        <ele>262.0</ele>
        <time>2020-11-01T13:31:23Z</time>
      </trkpt>
      <trkpt lat="43.259747" lon="-5.122959">
        <ele>262.0</ele>
        <time>2020-11-01T13:31:24Z</time>
      </trkpt>
      <trkpt lat="43.259754" lon="-5.1229577">
        <ele>262.0</ele>
        <time>2020-11-01T13:31:25Z</time>
      </trkpt>
      <trkpt lat="43.25976" lon="-5.1229553">
        <ele>262.0</ele>
        <time>2020-11-01T13:31:26Z</time>
      </trkpt>
      <trkpt lat="43.25977" lon="-5.1229525">
        <ele>262.0</ele>
        <time>2020-11-01T13:31:27Z</time>
      </trkpt>
      <trkpt lat="43.25978" lon="-5.1229496">
        <ele>261.0</ele>
        <time>2020-11-01T13:31:28Z</time>
      </trkpt>
      <trkpt lat="43.259792" lon="-5.122946">
        <ele>261.0</ele>
        <time>2020-11-01T13:31:29Z</time>
      </trkpt>
      <trkpt lat="43.2598" lon="-5.122944">
        <ele>261.0</ele>
        <time>2020-11-01T13:31:30Z</time>
      </trkpt>
      <trkpt lat="43.259808" lon="-5.122944">
        <ele>261.0</ele>
        <time>2020-11-01T13:31:31Z</time>
      </trkpt>
      <trkpt lat="43.259815" lon="-5.122944">
        <ele>261.0</ele>
        <time>2020-11-01T13:31:32Z</time>
      </trkpt>
      <trkpt lat="43.259827" lon="-5.122944">
        <ele>261.0</ele>
        <time>2020-11-01T13:31:33Z</time>
      </trkpt>
      <trkpt lat="43.25984" lon="-5.122946">
        <ele>261.0</ele>
        <time>2020-11-01T13:31:34Z</time>
      </trkpt>
      <trkpt lat="43.259842" lon="-5.122948">
        <ele>261.0</ele>
        <time>2020-11-01T13:31:35Z</time>
      </trkpt>
      <trkpt lat="43.259853" lon="-5.12295">
        <ele>261.0</ele>
        <time>2020-11-01T13:31:36Z</time>
      </trkpt>
      <trkpt lat="43.259865" lon="-5.1229515">
        <ele>261.0</ele>
        <time>2020-11-01T13:31:37Z</time>
      </trkpt>
      <trkpt lat="43.259872" lon="-5.1229515">
        <ele>261.0</ele>
        <time>2020-11-01T13:31:38Z</time>
      </trkpt>
      <trkpt lat="43.259884" lon="-5.1229515">
        <ele>260.0</ele>
        <time>2020-11-01T13:31:39Z</time>
      </trkpt>
      <trkpt lat="43.259895" lon="-5.122953">
        <ele>260.0</ele>
        <time>2020-11-01T13:31:40Z</time>
      </trkpt>
      <trkpt lat="43.259903" lon="-5.1229553">
        <ele>260.0</ele>
        <time>2020-11-01T13:31:42Z</time>
      </trkpt>
      <trkpt lat="43.259914" lon="-5.122958">
        <ele>260.0</ele>
        <time>2020-11-01T13:31:42Z</time>
      </trkpt>
      <trkpt lat="43.259926" lon="-5.1229634">
        <ele>260.0</ele>
        <time>2020-11-01T13:31:43Z</time>
      </trkpt>
      <trkpt lat="43.259933" lon="-5.122968">
        <ele>259.0</ele>
        <time>2020-11-01T13:31:44Z</time>
      </trkpt>
      <trkpt lat="43.259945" lon="-5.122974">
        <ele>259.0</ele>
        <time>2020-11-01T13:31:45Z</time>
      </trkpt>
      <trkpt lat="43.25995" lon="-5.1229777">
        <ele>259.0</ele>
        <time>2020-11-01T13:31:46Z</time>
      </trkpt>
      <trkpt lat="43.259956" lon="-5.1229806">
        <ele>259.0</ele>
        <time>2020-11-01T13:31:47Z</time>
      </trkpt>
      <trkpt lat="43.259964" lon="-5.1229815">
        <ele>259.0</ele>
        <time>2020-11-01T13:31:48Z</time>
      </trkpt>
      <trkpt lat="43.25997" lon="-5.122983">
        <ele>258.0</ele>
        <time>2020-11-01T13:31:49Z</time>
      </trkpt>
      <trkpt lat="43.25997" lon="-5.122985">
        <ele>258.0</ele>
        <time>2020-11-01T13:31:50Z</time>
      </trkpt>
      <trkpt lat="43.25998" lon="-5.1229877">
        <ele>258.0</ele>
        <time>2020-11-01T13:31:51Z</time>
      </trkpt>
      <trkpt lat="43.259987" lon="-5.1229906">
        <ele>258.0</ele>
        <time>2020-11-01T13:31:52Z</time>
      </trkpt>
      <trkpt lat="43.25999" lon="-5.122996">
        <ele>258.0</ele>
        <time>2020-11-01T13:31:53Z</time>
      </trkpt>
      <trkpt lat="43.260002" lon="-5.123">
        <ele>258.0</ele>
        <time>2020-11-01T13:31:54Z</time>
      </trkpt>
      <trkpt lat="43.26001" lon="-5.123003">
        <ele>258.0</ele>
        <time>2020-11-01T13:31:55Z</time>
      </trkpt>
      <trkpt lat="43.26002" lon="-5.123003">
        <ele>257.0</ele>
        <time>2020-11-01T13:31:56Z</time>
      </trkpt>
      <trkpt lat="43.260033" lon="-5.1230016">
        <ele>257.0</ele>
        <time>2020-11-01T13:31:57Z</time>
      </trkpt>
      <trkpt lat="43.260044" lon="-5.123001">
        <ele>257.0</ele>
        <time>2020-11-01T13:31:58Z</time>
      </trkpt>
      <trkpt lat="43.260048" lon="-5.123">
        <ele>257.0</ele>
        <time>2020-11-01T13:31:59Z</time>
      </trkpt>
      <trkpt lat="43.26005" lon="-5.123">
        <ele>257.0</ele>
        <time>2020-11-01T13:32:00Z</time>
      </trkpt>
      <trkpt lat="43.26006" lon="-5.1230025">
        <ele>257.0</ele>
        <time>2020-11-01T13:32:01Z</time>
      </trkpt>
      <trkpt lat="43.260067" lon="-5.1230044">
        <ele>257.0</ele>
        <time>2020-11-01T13:32:02Z</time>
      </trkpt>
      <trkpt lat="43.260075" lon="-5.1230044">
        <ele>256.0</ele>
        <time>2020-11-01T13:32:03Z</time>
      </trkpt>
      <trkpt lat="43.26008" lon="-5.123003">
        <ele>256.0</ele>
        <time>2020-11-01T13:32:05Z</time>
      </trkpt>
      <trkpt lat="43.260082" lon="-5.123002">
        <ele>256.0</ele>
        <time>2020-11-01T13:32:05Z</time>
      </trkpt>
      <trkpt lat="43.26009" lon="-5.123004">
        <ele>256.0</ele>
        <time>2020-11-01T13:32:06Z</time>
      </trkpt>
      <trkpt lat="43.260098" lon="-5.123006">
        <ele>256.0</ele>
        <time>2020-11-01T13:32:07Z</time>
      </trkpt>
      <trkpt lat="43.260105" lon="-5.1230087">
        <ele>256.0</ele>
        <time>2020-11-01T13:32:08Z</time>
      </trkpt>
      <trkpt lat="43.26011" lon="-5.123013">
        <ele>256.0</ele>
        <time>2020-11-01T13:32:09Z</time>
      </trkpt>
      <trkpt lat="43.260113" lon="-5.123017">
        <ele>256.0</ele>
        <time>2020-11-01T13:32:10Z</time>
      </trkpt>
      <trkpt lat="43.26012" lon="-5.1230187">
        <ele>256.0</ele>
        <time>2020-11-01T13:32:11Z</time>
      </trkpt>
      <trkpt lat="43.260124" lon="-5.1230206">
        <ele>256.0</ele>
        <time>2020-11-01T13:32:12Z</time>
      </trkpt>
      <trkpt lat="43.260136" lon="-5.123023">
        <ele>255.0</ele>
        <time>2020-11-01T13:32:13Z</time>
      </trkpt>
      <trkpt lat="43.26014" lon="-5.1230264">
        <ele>255.0</ele>
        <time>2020-11-01T13:32:14Z</time>
      </trkpt>
      <trkpt lat="43.260143" lon="-5.1230307">
        <ele>255.0</ele>
        <time>2020-11-01T13:32:15Z</time>
      </trkpt>
      <trkpt lat="43.260155" lon="-5.1230364">
        <ele>255.0</ele>
        <time>2020-11-01T13:32:16Z</time>
      </trkpt>
      <trkpt lat="43.26016" lon="-5.1230416">
        <ele>255.0</ele>
        <time>2020-11-01T13:32:17Z</time>
      </trkpt>
      <trkpt lat="43.26018" lon="-5.1230545">
        <ele>254.0</ele>
        <time>2020-11-01T13:32:20Z</time>
      </trkpt>
      <trkpt lat="43.260185" lon="-5.1230555">
        <ele>254.0</ele>
        <time>2020-11-01T13:32:21Z</time>
      </trkpt>
      <trkpt lat="43.26019" lon="-5.1230597">
        <ele>254.0</ele>
        <time>2020-11-01T13:32:22Z</time>
      </trkpt>
      <trkpt lat="43.260197" lon="-5.123064">
        <ele>254.0</ele>
        <time>2020-11-01T13:32:23Z</time>
      </trkpt>
      <trkpt lat="43.260204" lon="-5.1230674">
        <ele>253.0</ele>
        <time>2020-11-01T13:32:24Z</time>
      </trkpt>
      <trkpt lat="43.260216" lon="-5.123069">
        <ele>253.0</ele>
        <time>2020-11-01T13:32:25Z</time>
      </trkpt>
      <trkpt lat="43.26023" lon="-5.1230683">
        <ele>253.0</ele>
        <time>2020-11-01T13:32:26Z</time>
      </trkpt>
      <trkpt lat="43.260242" lon="-5.1230683">
        <ele>253.0</ele>
        <time>2020-11-01T13:32:27Z</time>
      </trkpt>
      <trkpt lat="43.260254" lon="-5.123069">
        <ele>253.0</ele>
        <time>2020-11-01T13:32:28Z</time>
      </trkpt>
      <trkpt lat="43.26026" lon="-5.123071">
        <ele>253.0</ele>
        <time>2020-11-01T13:32:29Z</time>
      </trkpt>
      <trkpt lat="43.26027" lon="-5.123073">
        <ele>252.0</ele>
        <time>2020-11-01T13:32:30Z</time>
      </trkpt>
      <trkpt lat="43.260273" lon="-5.1230755">
        <ele>252.0</ele>
        <time>2020-11-01T13:32:31Z</time>
      </trkpt>
      <trkpt lat="43.260277" lon="-5.123078">
        <ele>252.0</ele>
        <time>2020-11-01T13:32:32Z</time>
      </trkpt>
      <trkpt lat="43.260284" lon="-5.123079">
        <ele>252.0</ele>
        <time>2020-11-01T13:32:34Z</time>
      </trkpt>
      <trkpt lat="43.26029" lon="-5.123079">
        <ele>252.0</ele>
        <time>2020-11-01T13:32:34Z</time>
      </trkpt>
      <trkpt lat="43.2603" lon="-5.123079">
        <ele>252.0</ele>
        <time>2020-11-01T13:32:35Z</time>
      </trkpt>
      <trkpt lat="43.260303" lon="-5.1230764">
        <ele>252.0</ele>
        <time>2020-11-01T13:32:36Z</time>
      </trkpt>
      <trkpt lat="43.260307" lon="-5.123077">
        <ele>251.0</ele>
        <time>2020-11-01T13:32:37Z</time>
      </trkpt>
      <trkpt lat="43.260315" lon="-5.12308">
        <ele>251.0</ele>
        <time>2020-11-01T13:32:38Z</time>
      </trkpt>
      <trkpt lat="43.26032" lon="-5.1230817">
        <ele>251.0</ele>
        <time>2020-11-01T13:32:39Z</time>
      </trkpt>
      <trkpt lat="43.260323" lon="-5.123086">
        <ele>251.0</ele>
        <time>2020-11-01T13:32:40Z</time>
      </trkpt>
      <trkpt lat="43.26033" lon="-5.123091">
        <ele>251.0</ele>
        <time>2020-11-01T13:32:41Z</time>
      </trkpt>
      <trkpt lat="43.260338" lon="-5.1230965">
        <ele>251.0</ele>
        <time>2020-11-01T13:32:42Z</time>
      </trkpt>
      <trkpt lat="43.260345" lon="-5.123101">
        <ele>250.0</ele>
        <time>2020-11-01T13:32:43Z</time>
      </trkpt>
      <trkpt lat="43.26036" lon="-5.1231055">
        <ele>250.0</ele>
        <time>2020-11-01T13:32:44Z</time>
      </trkpt>
      <trkpt lat="43.26037" lon="-5.12311">
        <ele>250.0</ele>
        <time>2020-11-01T13:32:45Z</time>
      </trkpt>
      <trkpt lat="43.260376" lon="-5.123114">
        <ele>250.0</ele>
        <time>2020-11-01T13:32:46Z</time>
      </trkpt>
      <trkpt lat="43.260384" lon="-5.123117">
        <ele>250.0</ele>
        <time>2020-11-01T13:32:47Z</time>
      </trkpt>
      <trkpt lat="43.26039" lon="-5.1231203">
        <ele>250.0</ele>
        <time>2020-11-01T13:32:48Z</time>
      </trkpt>
      <trkpt lat="43.260395" lon="-5.1231227">
        <ele>250.0</ele>
        <time>2020-11-01T13:32:50Z</time>
      </trkpt>
      <trkpt lat="43.2604" lon="-5.123126">
        <ele>250.0</ele>
        <time>2020-11-01T13:32:50Z</time>
      </trkpt>
      <trkpt lat="43.26041" lon="-5.1231265">
        <ele>250.0</ele>
        <time>2020-11-01T13:32:51Z</time>
      </trkpt>
      <trkpt lat="43.260414" lon="-5.1231265">
        <ele>250.0</ele>
        <time>2020-11-01T13:32:52Z</time>
      </trkpt>
      <trkpt lat="43.26042" lon="-5.1231275">
        <ele>250.0</ele>
        <time>2020-11-01T13:32:53Z</time>
      </trkpt>
      <trkpt lat="43.260426" lon="-5.1231265">
        <ele>250.0</ele>
        <time>2020-11-01T13:32:54Z</time>
      </trkpt>
      <trkpt lat="43.260426" lon="-5.1231236">
        <ele>250.0</ele>
        <time>2020-11-01T13:32:55Z</time>
      </trkpt>
      <trkpt lat="43.260433" lon="-5.1231236">
        <ele>249.0</ele>
        <time>2020-11-01T13:32:56Z</time>
      </trkpt>
      <trkpt lat="43.260433" lon="-5.123124">
        <ele>249.0</ele>
        <time>2020-11-01T13:32:57Z</time>
      </trkpt>
      <trkpt lat="43.260437" lon="-5.1231265">
        <ele>249.0</ele>
        <time>2020-11-01T13:32:58Z</time>
      </trkpt>
      <trkpt lat="43.26044" lon="-5.1231303">
        <ele>249.0</ele>
        <time>2020-11-01T13:32:59Z</time>
      </trkpt>
      <trkpt lat="43.26045" lon="-5.123135">
        <ele>249.0</ele>
        <time>2020-11-01T13:33:00Z</time>
      </trkpt>
      <trkpt lat="43.260452" lon="-5.1231403">
        <ele>249.0</ele>
        <time>2020-11-01T13:33:01Z</time>
      </trkpt>
      <trkpt lat="43.260464" lon="-5.1231456">
        <ele>249.0</ele>
        <time>2020-11-01T13:33:02Z</time>
      </trkpt>
      <trkpt lat="43.260468" lon="-5.12315">
        <ele>248.0</ele>
        <time>2020-11-01T13:33:03Z</time>
      </trkpt>
      <trkpt lat="43.26047" lon="-5.1231527">
        <ele>248.0</ele>
        <time>2020-11-01T13:33:04Z</time>
      </trkpt>
      <trkpt lat="43.26048" lon="-5.123156">
        <ele>248.0</ele>
        <time>2020-11-01T13:33:05Z</time>
      </trkpt>
      <trkpt lat="43.260483" lon="-5.123161">
        <ele>248.0</ele>
        <time>2020-11-01T13:33:06Z</time>
      </trkpt>
      <trkpt lat="43.260494" lon="-5.1231675">
        <ele>248.0</ele>
        <time>2020-11-01T13:33:07Z</time>
      </trkpt>
      <trkpt lat="43.2605" lon="-5.123174">
        <ele>248.0</ele>
        <time>2020-11-01T13:33:08Z</time>
      </trkpt>
      <trkpt lat="43.26051" lon="-5.1231794">
        <ele>247.0</ele>
        <time>2020-11-01T13:33:09Z</time>
      </trkpt>
      <trkpt lat="43.260532" lon="-5.1231875">
        <ele>247.0</ele>
        <time>2020-11-01T13:33:11Z</time>
      </trkpt>
      <trkpt lat="43.260532" lon="-5.123187">
        <ele>247.0</ele>
        <time>2020-11-01T13:33:12Z</time>
      </trkpt>
      <trkpt lat="43.260532" lon="-5.1231856">
        <ele>247.0</ele>
        <time>2020-11-01T13:33:13Z</time>
      </trkpt>
      <trkpt lat="43.26054" lon="-5.123185">
        <ele>247.0</ele>
        <time>2020-11-01T13:33:14Z</time>
      </trkpt>
      <trkpt lat="43.26054" lon="-5.123186">
        <ele>246.0</ele>
        <time>2020-11-01T13:33:15Z</time>
      </trkpt>
      <trkpt lat="43.260544" lon="-5.123189">
        <ele>246.0</ele>
        <time>2020-11-01T13:33:16Z</time>
      </trkpt>
      <trkpt lat="43.260548" lon="-5.1231937">
        <ele>246.0</ele>
        <time>2020-11-01T13:33:17Z</time>
      </trkpt>
      <trkpt lat="43.26056" lon="-5.1232004">
        <ele>246.0</ele>
        <time>2020-11-01T13:33:18Z</time>
      </trkpt>
      <trkpt lat="43.260563" lon="-5.1232066">
        <ele>246.0</ele>
        <time>2020-11-01T13:33:19Z</time>
      </trkpt>
      <trkpt lat="43.260574" lon="-5.1232133">
        <ele>246.0</ele>
        <time>2020-11-01T13:33:20Z</time>
      </trkpt>
      <trkpt lat="43.26058" lon="-5.12322">
        <ele>246.0</ele>
        <time>2020-11-01T13:33:21Z</time>
      </trkpt>
      <trkpt lat="43.260586" lon="-5.123228">
        <ele>245.0</ele>
        <time>2020-11-01T13:33:22Z</time>
      </trkpt>
      <trkpt lat="43.26059" lon="-5.1232343">
        <ele>245.0</ele>
        <time>2020-11-01T13:33:23Z</time>
      </trkpt>
      <trkpt lat="43.260593" lon="-5.1232386">
        <ele>245.0</ele>
        <time>2020-11-01T13:33:24Z</time>
      </trkpt>
      <trkpt lat="43.2606" lon="-5.1232405">
        <ele>245.0</ele>
        <time>2020-11-01T13:33:25Z</time>
      </trkpt>
      <trkpt lat="43.260605" lon="-5.1232414">
        <ele>245.0</ele>
        <time>2020-11-01T13:33:27Z</time>
      </trkpt>
      <trkpt lat="43.26061" lon="-5.1232424">
        <ele>245.0</ele>
        <time>2020-11-01T13:33:27Z</time>
      </trkpt>
      <trkpt lat="43.260616" lon="-5.123241">
        <ele>244.0</ele>
        <time>2020-11-01T13:33:28Z</time>
      </trkpt>
      <trkpt lat="43.260628" lon="-5.1232414">
        <ele>244.0</ele>
        <time>2020-11-01T13:33:29Z</time>
      </trkpt>
      <trkpt lat="43.26063" lon="-5.123244">
        <ele>244.0</ele>
        <time>2020-11-01T13:33:30Z</time>
      </trkpt>
      <trkpt lat="43.26063" lon="-5.123247">
        <ele>244.0</ele>
        <time>2020-11-01T13:33:31Z</time>
      </trkpt>
      <trkpt lat="43.260635" lon="-5.1232505">
        <ele>244.0</ele>
        <time>2020-11-01T13:33:32Z</time>
      </trkpt>
      <trkpt lat="43.260643" lon="-5.1232543">
        <ele>244.0</ele>
        <time>2020-11-01T13:33:33Z</time>
      </trkpt>
      <trkpt lat="43.260647" lon="-5.123258">
        <ele>244.0</ele>
        <time>2020-11-01T13:33:34Z</time>
      </trkpt>
      <trkpt lat="43.26065" lon="-5.123261">
        <ele>244.0</ele>
        <time>2020-11-01T13:33:35Z</time>
      </trkpt>
      <trkpt lat="43.26066" lon="-5.123264">
        <ele>244.0</ele>
        <time>2020-11-01T13:33:36Z</time>
      </trkpt>
      <trkpt lat="43.260662" lon="-5.123268">
        <ele>243.0</ele>
        <time>2020-11-01T13:33:37Z</time>
      </trkpt>
      <trkpt lat="43.260677" lon="-5.1232724">
        <ele>243.0</ele>
        <time>2020-11-01T13:33:38Z</time>
      </trkpt>
      <trkpt lat="43.26069" lon="-5.123278">
        <ele>243.0</ele>
        <time>2020-11-01T13:33:39Z</time>
      </trkpt>
      <trkpt lat="43.260696" lon="-5.1232824">
        <ele>243.0</ele>
        <time>2020-11-01T13:33:40Z</time>
      </trkpt>
      <trkpt lat="43.260708" lon="-5.1232867">
        <ele>243.0</ele>
        <time>2020-11-01T13:33:41Z</time>
      </trkpt>
      <trkpt lat="43.26071" lon="-5.1232905">
        <ele>243.0</ele>
        <time>2020-11-01T13:33:42Z</time>
      </trkpt>
      <trkpt lat="43.26072" lon="-5.1232944">
        <ele>243.0</ele>
        <time>2020-11-01T13:33:43Z</time>
      </trkpt>
      <trkpt lat="43.260723" lon="-5.1232963">
        <ele>243.0</ele>
        <time>2020-11-01T13:33:44Z</time>
      </trkpt>
      <trkpt lat="43.260727" lon="-5.1232977">
        <ele>243.0</ele>
        <time>2020-11-01T13:33:45Z</time>
      </trkpt>
      <trkpt lat="43.260735" lon="-5.1233006">
        <ele>242.0</ele>
        <time>2020-11-01T13:33:46Z</time>
      </trkpt>
      <trkpt lat="43.26074" lon="-5.123303">
        <ele>242.0</ele>
        <time>2020-11-01T13:33:47Z</time>
      </trkpt>
      <trkpt lat="43.260742" lon="-5.1233077">
        <ele>242.0</ele>
        <time>2020-11-01T13:33:48Z</time>
      </trkpt>
      <trkpt lat="43.260754" lon="-5.1233125">
        <ele>242.0</ele>
        <time>2020-11-01T13:33:49Z</time>
      </trkpt>
      <trkpt lat="43.260757" lon="-5.1233172">
        <ele>242.0</ele>
        <time>2020-11-01T13:33:50Z</time>
      </trkpt>
      <trkpt lat="43.260765" lon="-5.1233244">
        <ele>242.0</ele>
        <time>2020-11-01T13:33:51Z</time>
      </trkpt>
      <trkpt lat="43.26077" lon="-5.123331">
        <ele>241.0</ele>
        <time>2020-11-01T13:33:51Z</time>
      </trkpt>
      <trkpt lat="43.26077" lon="-5.1233387">
        <ele>241.0</ele>
        <time>2020-11-01T13:33:52Z</time>
      </trkpt>
      <trkpt lat="43.26078" lon="-5.123354">
        <ele>241.0</ele>
        <time>2020-11-01T13:33:54Z</time>
      </trkpt>
      <trkpt lat="43.26078" lon="-5.1233544">
        <ele>241.0</ele>
        <time>2020-11-01T13:33:55Z</time>
      </trkpt>
      <trkpt lat="43.260784" lon="-5.123355">
        <ele>241.0</ele>
        <time>2020-11-01T13:33:56Z</time>
      </trkpt>
      <trkpt lat="43.260788" lon="-5.1233587">
        <ele>241.0</ele>
        <time>2020-11-01T13:33:57Z</time>
      </trkpt>
      <trkpt lat="43.260796" lon="-5.1233635">
        <ele>240.0</ele>
        <time>2020-11-01T13:33:58Z</time>
      </trkpt>
      <trkpt lat="43.2608" lon="-5.1233673">
        <ele>240.0</ele>
        <time>2020-11-01T13:33:59Z</time>
      </trkpt>
      <trkpt lat="43.260803" lon="-5.123371">
        <ele>240.0</ele>
        <time>2020-11-01T13:34:00Z</time>
      </trkpt>
      <trkpt lat="43.26081" lon="-5.123375">
        <ele>240.0</ele>
        <time>2020-11-01T13:34:01Z</time>
      </trkpt>
      <trkpt lat="43.260815" lon="-5.1233773">
        <ele>240.0</ele>
        <time>2020-11-01T13:34:02Z</time>
      </trkpt>
      <trkpt lat="43.260826" lon="-5.1233835">
        <ele>239.0</ele>
        <time>2020-11-01T13:34:03Z</time>
      </trkpt>
      <trkpt lat="43.26083" lon="-5.1233883">
        <ele>239.0</ele>
        <time>2020-11-01T13:34:04Z</time>
      </trkpt>
      <trkpt lat="43.260838" lon="-5.123392">
        <ele>239.0</ele>
        <time>2020-11-01T13:34:05Z</time>
      </trkpt>
      <trkpt lat="43.26084" lon="-5.1233954">
        <ele>239.0</ele>
        <time>2020-11-01T13:34:06Z</time>
      </trkpt>
      <trkpt lat="43.260845" lon="-5.1233983">
        <ele>239.0</ele>
        <time>2020-11-01T13:34:07Z</time>
      </trkpt>
      <trkpt lat="43.260853" lon="-5.123401">
        <ele>238.0</ele>
        <time>2020-11-01T13:34:08Z</time>
      </trkpt>
      <trkpt lat="43.26086" lon="-5.1234035">
        <ele>238.0</ele>
        <time>2020-11-01T13:34:09Z</time>
      </trkpt>
      <trkpt lat="43.260868" lon="-5.123406">
        <ele>238.0</ele>
        <time>2020-11-01T13:34:10Z</time>
      </trkpt>
      <trkpt lat="43.260876" lon="-5.1234097">
        <ele>238.0</ele>
        <time>2020-11-01T13:34:11Z</time>
      </trkpt>
      <trkpt lat="43.260883" lon="-5.1234174">
        <ele>238.0</ele>
        <time>2020-11-01T13:34:12Z</time>
      </trkpt>
      <trkpt lat="43.26089" lon="-5.1234274">
        <ele>237.0</ele>
        <time>2020-11-01T13:34:13Z</time>
      </trkpt>
      <trkpt lat="43.2609" lon="-5.123438">
        <ele>237.0</ele>
        <time>2020-11-01T13:34:14Z</time>
      </trkpt>
      <trkpt lat="43.260906" lon="-5.123448">
        <ele>237.0</ele>
        <time>2020-11-01T13:34:15Z</time>
      </trkpt>
      <trkpt lat="43.260914" lon="-5.123458">
        <ele>237.0</ele>
        <time>2020-11-01T13:34:16Z</time>
      </trkpt>
      <trkpt lat="43.26092" lon="-5.1234684">
        <ele>237.0</ele>
        <time>2020-11-01T13:34:17Z</time>
      </trkpt>
      <trkpt lat="43.26093" lon="-5.123476">
        <ele>237.0</ele>
        <time>2020-11-01T13:34:18Z</time>
      </trkpt>
      <trkpt lat="43.260944" lon="-5.1234956">
        <ele>237.0</ele>
        <time>2020-11-01T13:34:20Z</time>
      </trkpt>
      <trkpt lat="43.26095" lon="-5.123497">
        <ele>237.0</ele>
        <time>2020-11-01T13:34:21Z</time>
      </trkpt>
      <trkpt lat="43.260952" lon="-5.123502">
        <ele>237.0</ele>
        <time>2020-11-01T13:34:22Z</time>
      </trkpt>
      <trkpt lat="43.26096" lon="-5.123509">
        <ele>237.0</ele>
        <time>2020-11-01T13:34:23Z</time>
      </trkpt>
      <trkpt lat="43.260967" lon="-5.1235166">
        <ele>237.0</ele>
        <time>2020-11-01T13:34:24Z</time>
      </trkpt>
      <trkpt lat="43.260975" lon="-5.1235247">
        <ele>236.0</ele>
        <time>2020-11-01T13:34:26Z</time>
      </trkpt>
      <trkpt lat="43.260983" lon="-5.123534">
        <ele>236.0</ele>
        <time>2020-11-01T13:34:26Z</time>
      </trkpt>
      <trkpt lat="43.260994" lon="-5.1235437">
        <ele>236.0</ele>
        <time>2020-11-01T13:34:27Z</time>
      </trkpt>
      <trkpt lat="43.261005" lon="-5.123553">
        <ele>236.0</ele>
        <time>2020-11-01T13:34:28Z</time>
      </trkpt>
      <trkpt lat="43.261017" lon="-5.123562">
        <ele>236.0</ele>
        <time>2020-11-01T13:34:29Z</time>
      </trkpt>
      <trkpt lat="43.261024" lon="-5.123569">
        <ele>236.0</ele>
        <time>2020-11-01T13:34:30Z</time>
      </trkpt>
      <trkpt lat="43.261032" lon="-5.1235747">
        <ele>236.0</ele>
        <time>2020-11-01T13:34:31Z</time>
      </trkpt>
      <trkpt lat="43.26104" lon="-5.1235795">
        <ele>236.0</ele>
        <time>2020-11-01T13:34:32Z</time>
      </trkpt>
      <trkpt lat="43.26105" lon="-5.123584">
        <ele>235.0</ele>
        <time>2020-11-01T13:34:34Z</time>
      </trkpt>
      <trkpt lat="43.261055" lon="-5.1235886">
        <ele>235.0</ele>
        <time>2020-11-01T13:34:34Z</time>
      </trkpt>
      <trkpt lat="43.261066" lon="-5.123593">
        <ele>235.0</ele>
        <time>2020-11-01T13:34:35Z</time>
      </trkpt>
      <trkpt lat="43.261078" lon="-5.1235967">
        <ele>235.0</ele>
        <time>2020-11-01T13:34:36Z</time>
      </trkpt>
      <trkpt lat="43.26108" lon="-5.1235995">
        <ele>235.0</ele>
        <time>2020-11-01T13:34:37Z</time>
      </trkpt>
      <trkpt lat="43.261086" lon="-5.1236005">
        <ele>235.0</ele>
        <time>2020-11-01T13:34:38Z</time>
      </trkpt>
      <trkpt lat="43.261093" lon="-5.123599">
        <ele>235.0</ele>
        <time>2020-11-01T13:34:39Z</time>
      </trkpt>
      <trkpt lat="43.261093" lon="-5.1235967">
        <ele>235.0</ele>
        <time>2020-11-01T13:34:40Z</time>
      </trkpt>
      <trkpt lat="43.26111" lon="-5.1235905">
        <ele>234.0</ele>
        <time>2020-11-01T13:34:42Z</time>
      </trkpt>
      <trkpt lat="43.26111" lon="-5.12359">
        <ele>234.0</ele>
        <time>2020-11-01T13:34:43Z</time>
      </trkpt>
      <trkpt lat="43.261112" lon="-5.1235905">
        <ele>234.0</ele>
        <time>2020-11-01T13:34:44Z</time>
      </trkpt>
      <trkpt lat="43.261116" lon="-5.123591">
        <ele>234.0</ele>
        <time>2020-11-01T13:34:45Z</time>
      </trkpt>
      <trkpt lat="43.261124" lon="-5.123593">
        <ele>234.0</ele>
        <time>2020-11-01T13:34:46Z</time>
      </trkpt>
      <trkpt lat="43.261127" lon="-5.123594">
        <ele>234.0</ele>
        <time>2020-11-01T13:34:47Z</time>
      </trkpt>
      <trkpt lat="43.26113" lon="-5.123594">
        <ele>234.0</ele>
        <time>2020-11-01T13:34:48Z</time>
      </trkpt>
      <trkpt lat="43.261143" lon="-5.123596">
        <ele>233.0</ele>
        <time>2020-11-01T13:34:49Z</time>
      </trkpt>
      <trkpt lat="43.261147" lon="-5.1235986">
        <ele>233.0</ele>
        <time>2020-11-01T13:34:50Z</time>
      </trkpt>
      <trkpt lat="43.261154" lon="-5.1236014">
        <ele>233.0</ele>
        <time>2020-11-01T13:34:51Z</time>
      </trkpt>
      <trkpt lat="43.261158" lon="-5.1236033">
        <ele>233.0</ele>
        <time>2020-11-01T13:34:52Z</time>
      </trkpt>
      <trkpt lat="43.26116" lon="-5.1236053">
        <ele>233.0</ele>
        <time>2020-11-01T13:34:53Z</time>
      </trkpt>
      <trkpt lat="43.261173" lon="-5.123612">
        <ele>233.0</ele>
        <time>2020-11-01T13:34:55Z</time>
      </trkpt>
      <trkpt lat="43.261173" lon="-5.1236124">
        <ele>233.0</ele>
        <time>2020-11-01T13:34:56Z</time>
      </trkpt>
      <trkpt lat="43.261173" lon="-5.1236134">
        <ele>233.0</ele>
        <time>2020-11-01T13:34:57Z</time>
      </trkpt>
      <trkpt lat="43.261173" lon="-5.1236153">
        <ele>233.0</ele>
        <time>2020-11-01T13:34:59Z</time>
      </trkpt>
      <trkpt lat="43.261173" lon="-5.123615">
        <ele>233.0</ele>
        <time>2020-11-01T13:35:00Z</time>
      </trkpt>
      <trkpt lat="43.261173" lon="-5.1236105">
        <ele>232.0</ele>
        <time>2020-11-01T13:35:01Z</time>
      </trkpt>
      <trkpt lat="43.261173" lon="-5.123605">
        <ele>232.0</ele>
        <time>2020-11-01T13:35:02Z</time>
      </trkpt>
      <trkpt lat="43.261177" lon="-5.1235995">
        <ele>232.0</ele>
        <time>2020-11-01T13:35:03Z</time>
      </trkpt>
      <trkpt lat="43.261177" lon="-5.1235948">
        <ele>232.0</ele>
        <time>2020-11-01T13:35:04Z</time>
      </trkpt>
      <trkpt lat="43.261185" lon="-5.1235914">
        <ele>232.0</ele>
        <time>2020-11-01T13:35:06Z</time>
      </trkpt>
      <trkpt lat="43.261185" lon="-5.123588">
        <ele>232.0</ele>
        <time>2020-11-01T13:35:06Z</time>
      </trkpt>
      <trkpt lat="43.261185" lon="-5.1235847">
        <ele>232.0</ele>
        <time>2020-11-01T13:35:07Z</time>
      </trkpt>
      <trkpt lat="43.261185" lon="-5.123581">
        <ele>232.0</ele>
        <time>2020-11-01T13:35:08Z</time>
      </trkpt>
      <trkpt lat="43.26119" lon="-5.1235704">
        <ele>231.0</ele>
        <time>2020-11-01T13:35:19Z</time>
      </trkpt>
      <trkpt lat="43.261196" lon="-5.1235695">
        <ele>231.0</ele>
        <time>2020-11-01T13:35:20Z</time>
      </trkpt>
      <trkpt lat="43.2612" lon="-5.123569">
        <ele>231.0</ele>
        <time>2020-11-01T13:35:21Z</time>
      </trkpt>
      <trkpt lat="43.261204" lon="-5.1235695">
        <ele>231.0</ele>
        <time>2020-11-01T13:35:22Z</time>
      </trkpt>
      <trkpt lat="43.261215" lon="-5.1235714">
        <ele>231.0</ele>
        <time>2020-11-01T13:35:23Z</time>
      </trkpt>
      <trkpt lat="43.261227" lon="-5.1235733">
        <ele>231.0</ele>
        <time>2020-11-01T13:35:24Z</time>
      </trkpt>
      <trkpt lat="43.261242" lon="-5.1235743">
        <ele>230.0</ele>
        <time>2020-11-01T13:35:25Z</time>
      </trkpt>
      <trkpt lat="43.26125" lon="-5.1235747">
        <ele>230.0</ele>
        <time>2020-11-01T13:35:26Z</time>
      </trkpt>
      <trkpt lat="43.26126" lon="-5.123573">
        <ele>230.0</ele>
        <time>2020-11-01T13:35:27Z</time>
      </trkpt>
      <trkpt lat="43.261272" lon="-5.123569">
        <ele>230.0</ele>
        <time>2020-11-01T13:35:28Z</time>
      </trkpt>
      <trkpt lat="43.261288" lon="-5.123566">
        <ele>230.0</ele>
        <time>2020-11-01T13:35:29Z</time>
      </trkpt>
      <trkpt lat="43.261295" lon="-5.123564">
        <ele>229.0</ele>
        <time>2020-11-01T13:35:30Z</time>
      </trkpt>
      <trkpt lat="43.26131" lon="-5.1235633">
        <ele>229.0</ele>
        <time>2020-11-01T13:35:32Z</time>
      </trkpt>
      <trkpt lat="43.26132" lon="-5.1235633">
        <ele>229.0</ele>
        <time>2020-11-01T13:35:32Z</time>
      </trkpt>
      <trkpt lat="43.261326" lon="-5.1235657">
        <ele>229.0</ele>
        <time>2020-11-01T13:35:33Z</time>
      </trkpt>
      <trkpt lat="43.261333" lon="-5.123568">
        <ele>229.0</ele>
        <time>2020-11-01T13:35:34Z</time>
      </trkpt>
      <trkpt lat="43.261337" lon="-5.1235685">
        <ele>229.0</ele>
        <time>2020-11-01T13:35:35Z</time>
      </trkpt>
      <trkpt lat="43.26134" lon="-5.1235685">
        <ele>229.0</ele>
        <time>2020-11-01T13:35:36Z</time>
      </trkpt>
      <trkpt lat="43.261353" lon="-5.123569">
        <ele>229.0</ele>
        <time>2020-11-01T13:35:37Z</time>
      </trkpt>
      <trkpt lat="43.261356" lon="-5.12357">
        <ele>229.0</ele>
        <time>2020-11-01T13:35:38Z</time>
      </trkpt>
      <trkpt lat="43.261364" lon="-5.12357">
        <ele>229.0</ele>
        <time>2020-11-01T13:35:40Z</time>
      </trkpt>
      <trkpt lat="43.261368" lon="-5.1235704">
        <ele>229.0</ele>
        <time>2020-11-01T13:35:40Z</time>
      </trkpt>
      <trkpt lat="43.26137" lon="-5.1235723">
        <ele>229.0</ele>
        <time>2020-11-01T13:35:41Z</time>
      </trkpt>
      <trkpt lat="43.261383" lon="-5.1235747">
        <ele>229.0</ele>
        <time>2020-11-01T13:35:42Z</time>
      </trkpt>
      <trkpt lat="43.261395" lon="-5.1235766">
        <ele>229.0</ele>
        <time>2020-11-01T13:35:43Z</time>
      </trkpt>
      <trkpt lat="43.261406" lon="-5.123577">
        <ele>229.0</ele>
        <time>2020-11-01T13:35:44Z</time>
      </trkpt>
      <trkpt lat="43.261414" lon="-5.1235766">
        <ele>229.0</ele>
        <time>2020-11-01T13:35:45Z</time>
      </trkpt>
      <trkpt lat="43.261425" lon="-5.123576">
        <ele>229.0</ele>
        <time>2020-11-01T13:35:46Z</time>
      </trkpt>
      <trkpt lat="43.261436" lon="-5.1235723">
        <ele>229.0</ele>
        <time>2020-11-01T13:35:47Z</time>
      </trkpt>
      <trkpt lat="43.26144" lon="-5.1235695">
        <ele>229.0</ele>
        <time>2020-11-01T13:35:48Z</time>
      </trkpt>
      <trkpt lat="43.26145" lon="-5.123568">
        <ele>229.0</ele>
        <time>2020-11-01T13:35:49Z</time>
      </trkpt>
      <trkpt lat="43.26146" lon="-5.1235676">
        <ele>229.0</ele>
        <time>2020-11-01T13:35:50Z</time>
      </trkpt>
      <trkpt lat="43.26147" lon="-5.1235695">
        <ele>229.0</ele>
        <time>2020-11-01T13:35:51Z</time>
      </trkpt>
      <trkpt lat="43.261482" lon="-5.123573">
        <ele>229.0</ele>
        <time>2020-11-01T13:35:52Z</time>
      </trkpt>
      <trkpt lat="43.261497" lon="-5.1235766">
        <ele>229.0</ele>
        <time>2020-11-01T13:35:53Z</time>
      </trkpt>
      <trkpt lat="43.261505" lon="-5.123581">
        <ele>229.0</ele>
        <time>2020-11-01T13:35:55Z</time>
      </trkpt>
      <trkpt lat="43.261517" lon="-5.1235847">
        <ele>229.0</ele>
        <time>2020-11-01T13:35:55Z</time>
      </trkpt>
      <trkpt lat="43.261528" lon="-5.123589">
        <ele>229.0</ele>
        <time>2020-11-01T13:35:56Z</time>
      </trkpt>
      <trkpt lat="43.26153" lon="-5.123592">
        <ele>229.0</ele>
        <time>2020-11-01T13:35:57Z</time>
      </trkpt>
      <trkpt lat="43.261536" lon="-5.1235948">
        <ele>229.0</ele>
        <time>2020-11-01T13:35:58Z</time>
      </trkpt>
      <trkpt lat="43.26156" lon="-5.1236033">
        <ele>229.0</ele>
        <time>2020-11-01T13:36:00Z</time>
      </trkpt>
      <trkpt lat="43.26156" lon="-5.1236033">
        <ele>229.0</ele>
        <time>2020-11-01T13:36:01Z</time>
      </trkpt>
      <trkpt lat="43.261562" lon="-5.1236033">
        <ele>229.0</ele>
        <time>2020-11-01T13:36:03Z</time>
      </trkpt>
      <trkpt lat="43.261562" lon="-5.1236033">
        <ele>229.0</ele>
        <time>2020-11-01T13:36:03Z</time>
      </trkpt>
      <trkpt lat="43.261566" lon="-5.1236014">
        <ele>228.0</ele>
        <time>2020-11-01T13:36:04Z</time>
      </trkpt>
      <trkpt lat="43.261566" lon="-5.1235976">
        <ele>228.0</ele>
        <time>2020-11-01T13:36:05Z</time>
      </trkpt>
      <trkpt lat="43.261574" lon="-5.123597">
        <ele>228.0</ele>
        <time>2020-11-01T13:36:06Z</time>
      </trkpt>
      <trkpt lat="43.261578" lon="-5.123597">
        <ele>228.0</ele>
        <time>2020-11-01T13:36:07Z</time>
      </trkpt>
      <trkpt lat="43.261585" lon="-5.1235976">
        <ele>228.0</ele>
        <time>2020-11-01T13:36:08Z</time>
      </trkpt>
      <trkpt lat="43.261593" lon="-5.123599">
        <ele>228.0</ele>
        <time>2020-11-01T13:36:09Z</time>
      </trkpt>
      <trkpt lat="43.2616" lon="-5.1236">
        <ele>228.0</ele>
        <time>2020-11-01T13:36:11Z</time>
      </trkpt>
      <trkpt lat="43.26161" lon="-5.123601">
        <ele>227.0</ele>
        <time>2020-11-01T13:36:11Z</time>
      </trkpt>
      <trkpt lat="43.261616" lon="-5.123602">
        <ele>227.0</ele>
        <time>2020-11-01T13:36:12Z</time>
      </trkpt>
      <trkpt lat="43.26162" lon="-5.123603">
        <ele>227.0</ele>
        <time>2020-11-01T13:36:13Z</time>
      </trkpt>
      <trkpt lat="43.261623" lon="-5.1236043">
        <ele>227.0</ele>
        <time>2020-11-01T13:36:14Z</time>
      </trkpt>
      <trkpt lat="43.26163" lon="-5.123606">
        <ele>227.0</ele>
        <time>2020-11-01T13:36:15Z</time>
      </trkpt>
      <trkpt lat="43.261635" lon="-5.123607">
        <ele>227.0</ele>
        <time>2020-11-01T13:36:16Z</time>
      </trkpt>
      <trkpt lat="43.261646" lon="-5.123607">
        <ele>227.0</ele>
        <time>2020-11-01T13:36:17Z</time>
      </trkpt>
      <trkpt lat="43.26165" lon="-5.1236067">
        <ele>227.0</ele>
        <time>2020-11-01T13:36:18Z</time>
      </trkpt>
      <trkpt lat="43.261654" lon="-5.1236067">
        <ele>226.0</ele>
        <time>2020-11-01T13:36:19Z</time>
      </trkpt>
      <trkpt lat="43.26166" lon="-5.123607">
        <ele>226.0</ele>
        <time>2020-11-01T13:36:20Z</time>
      </trkpt>
      <trkpt lat="43.26167" lon="-5.123608">
        <ele>226.0</ele>
        <time>2020-11-01T13:36:21Z</time>
      </trkpt>
      <trkpt lat="43.26167" lon="-5.1236076">
        <ele>226.0</ele>
        <time>2020-11-01T13:36:22Z</time>
      </trkpt>
      <trkpt lat="43.26168" lon="-5.1236086">
        <ele>226.0</ele>
        <time>2020-11-01T13:36:24Z</time>
      </trkpt>
      <trkpt lat="43.261684" lon="-5.123611">
        <ele>226.0</ele>
        <time>2020-11-01T13:36:24Z</time>
      </trkpt>
      <trkpt lat="43.261692" lon="-5.1236153">
        <ele>226.0</ele>
        <time>2020-11-01T13:36:25Z</time>
      </trkpt>
      <trkpt lat="43.261696" lon="-5.123616">
        <ele>225.0</ele>
        <time>2020-11-01T13:36:26Z</time>
      </trkpt>
      <trkpt lat="43.2617" lon="-5.1236153">
        <ele>225.0</ele>
        <time>2020-11-01T13:36:27Z</time>
      </trkpt>
      <trkpt lat="43.26171" lon="-5.1236153">
        <ele>225.0</ele>
        <time>2020-11-01T13:36:28Z</time>
      </trkpt>
      <trkpt lat="43.261723" lon="-5.123616">
        <ele>225.0</ele>
        <time>2020-11-01T13:36:29Z</time>
      </trkpt>
      <trkpt lat="43.26173" lon="-5.123618">
        <ele>225.0</ele>
        <time>2020-11-01T13:36:30Z</time>
      </trkpt>
      <trkpt lat="43.261738" lon="-5.123618">
        <ele>225.0</ele>
        <time>2020-11-01T13:36:31Z</time>
      </trkpt>
      <trkpt lat="43.26174" lon="-5.1236186">
        <ele>225.0</ele>
        <time>2020-11-01T13:36:32Z</time>
      </trkpt>
      <trkpt lat="43.261745" lon="-5.12362">
        <ele>224.0</ele>
        <time>2020-11-01T13:36:33Z</time>
      </trkpt>
      <trkpt lat="43.261753" lon="-5.1236267">
        <ele>224.0</ele>
        <time>2020-11-01T13:36:34Z</time>
      </trkpt>
      <trkpt lat="43.26176" lon="-5.1236362">
        <ele>224.0</ele>
        <time>2020-11-01T13:36:35Z</time>
      </trkpt>
      <trkpt lat="43.261772" lon="-5.1236477">
        <ele>224.0</ele>
        <time>2020-11-01T13:36:36Z</time>
      </trkpt>
      <trkpt lat="43.26178" lon="-5.1236606">
        <ele>224.0</ele>
        <time>2020-11-01T13:36:37Z</time>
      </trkpt>
      <trkpt lat="43.261784" lon="-5.123673">
        <ele>223.0</ele>
        <time>2020-11-01T13:36:38Z</time>
      </trkpt>
      <trkpt lat="43.261787" lon="-5.1236844">
        <ele>223.0</ele>
        <time>2020-11-01T13:36:40Z</time>
      </trkpt>
      <trkpt lat="43.261795" lon="-5.123695">
        <ele>223.0</ele>
        <time>2020-11-01T13:36:40Z</time>
      </trkpt>
      <trkpt lat="43.261803" lon="-5.1237025">
        <ele>223.0</ele>
        <time>2020-11-01T13:36:41Z</time>
      </trkpt>
      <trkpt lat="43.26181" lon="-5.1237082">
        <ele>223.0</ele>
        <time>2020-11-01T13:36:42Z</time>
      </trkpt>
      <trkpt lat="43.261814" lon="-5.1237154">
        <ele>223.0</ele>
        <time>2020-11-01T13:36:43Z</time>
      </trkpt>
      <trkpt lat="43.261826" lon="-5.1237235">
        <ele>223.0</ele>
        <time>2020-11-01T13:36:44Z</time>
      </trkpt>
      <trkpt lat="43.26183" lon="-5.1237316">
        <ele>223.0</ele>
        <time>2020-11-01T13:36:45Z</time>
      </trkpt>
      <trkpt lat="43.26184" lon="-5.1237397">
        <ele>223.0</ele>
        <time>2020-11-01T13:36:46Z</time>
      </trkpt>
      <trkpt lat="43.26184" lon="-5.1237483">
        <ele>223.0</ele>
        <time>2020-11-01T13:36:47Z</time>
      </trkpt>
      <trkpt lat="43.261845" lon="-5.123755">
        <ele>223.0</ele>
        <time>2020-11-01T13:36:48Z</time>
      </trkpt>
      <trkpt lat="43.261845" lon="-5.123761">
        <ele>222.0</ele>
        <time>2020-11-01T13:36:49Z</time>
      </trkpt>
      <trkpt lat="43.261845" lon="-5.123765">
        <ele>222.0</ele>
        <time>2020-11-01T13:36:50Z</time>
      </trkpt>
      <trkpt lat="43.26185" lon="-5.123768">
        <ele>222.0</ele>
        <time>2020-11-01T13:36:51Z</time>
      </trkpt>
      <trkpt lat="43.261856" lon="-5.12377">
        <ele>222.0</ele>
        <time>2020-11-01T13:36:52Z</time>
      </trkpt>
      <trkpt lat="43.261864" lon="-5.123771">
        <ele>222.0</ele>
        <time>2020-11-01T13:36:53Z</time>
      </trkpt>
      <trkpt lat="43.26187" lon="-5.123777">
        <ele>221.0</ele>
        <time>2020-11-01T13:36:54Z</time>
      </trkpt>
      <trkpt lat="43.261875" lon="-5.1237855">
        <ele>221.0</ele>
        <time>2020-11-01T13:36:55Z</time>
      </trkpt>
      <trkpt lat="43.261875" lon="-5.123793">
        <ele>221.0</ele>
        <time>2020-11-01T13:36:56Z</time>
      </trkpt>
      <trkpt lat="43.261875" lon="-5.123798">
        <ele>221.0</ele>
        <time>2020-11-01T13:36:57Z</time>
      </trkpt>
      <trkpt lat="43.26187" lon="-5.123804">
        <ele>221.0</ele>
        <time>2020-11-01T13:36:58Z</time>
      </trkpt>
      <trkpt lat="43.261875" lon="-5.123813">
        <ele>221.0</ele>
        <time>2020-11-01T13:36:59Z</time>
      </trkpt>
      <trkpt lat="43.26188" lon="-5.1238213">
        <ele>221.0</ele>
        <time>2020-11-01T13:37:00Z</time>
      </trkpt>
      <trkpt lat="43.261887" lon="-5.12383">
        <ele>220.0</ele>
        <time>2020-11-01T13:37:01Z</time>
      </trkpt>
      <trkpt lat="43.261894" lon="-5.12384">
        <ele>220.0</ele>
        <time>2020-11-01T13:37:03Z</time>
      </trkpt>
      <trkpt lat="43.261906" lon="-5.1238494">
        <ele>220.0</ele>
        <time>2020-11-01T13:37:03Z</time>
      </trkpt>
      <trkpt lat="43.261917" lon="-5.123858">
        <ele>220.0</ele>
        <time>2020-11-01T13:37:04Z</time>
      </trkpt>
      <trkpt lat="43.26192" lon="-5.123867">
        <ele>220.0</ele>
        <time>2020-11-01T13:37:05Z</time>
      </trkpt>
      <trkpt lat="43.261925" lon="-5.1238766">
        <ele>219.0</ele>
        <time>2020-11-01T13:37:06Z</time>
      </trkpt>
      <trkpt lat="43.261936" lon="-5.123885">
        <ele>219.0</ele>
        <time>2020-11-01T13:37:07Z</time>
      </trkpt>
      <trkpt lat="43.261948" lon="-5.123897">
        <ele>219.0</ele>
        <time>2020-11-01T13:37:08Z</time>
      </trkpt>
      <trkpt lat="43.261955" lon="-5.1239114">
        <ele>219.0</ele>
        <time>2020-11-01T13:37:09Z</time>
      </trkpt>
      <trkpt lat="43.261967" lon="-5.123922">
        <ele>219.0</ele>
        <time>2020-11-01T13:37:10Z</time>
      </trkpt>
      <trkpt lat="43.261974" lon="-5.12393">
        <ele>219.0</ele>
        <time>2020-11-01T13:37:11Z</time>
      </trkpt>
      <trkpt lat="43.26198" lon="-5.123936">
        <ele>219.0</ele>
        <time>2020-11-01T13:37:12Z</time>
      </trkpt>
      <trkpt lat="43.261982" lon="-5.123941">
        <ele>218.0</ele>
        <time>2020-11-01T13:37:13Z</time>
      </trkpt>
      <trkpt lat="43.261993" lon="-5.1239433">
        <ele>218.0</ele>
        <time>2020-11-01T13:37:14Z</time>
      </trkpt>
      <trkpt lat="43.261997" lon="-5.123945">
        <ele>218.0</ele>
        <time>2020-11-01T13:37:15Z</time>
      </trkpt>
      <trkpt lat="43.262005" lon="-5.1239476">
        <ele>218.0</ele>
        <time>2020-11-01T13:37:16Z</time>
      </trkpt>
      <trkpt lat="43.262012" lon="-5.123947">
        <ele>218.0</ele>
        <time>2020-11-01T13:37:17Z</time>
      </trkpt>
      <trkpt lat="43.262024" lon="-5.1239476">
        <ele>218.0</ele>
        <time>2020-11-01T13:37:18Z</time>
      </trkpt>
      <trkpt lat="43.262028" lon="-5.1239495">
        <ele>218.0</ele>
        <time>2020-11-01T13:37:19Z</time>
      </trkpt>
      <trkpt lat="43.262035" lon="-5.1239524">
        <ele>218.0</ele>
        <time>2020-11-01T13:37:20Z</time>
      </trkpt>
      <trkpt lat="43.262043" lon="-5.123955">
        <ele>218.0</ele>
        <time>2020-11-01T13:37:21Z</time>
      </trkpt>
      <trkpt lat="43.26205" lon="-5.123959">
        <ele>218.0</ele>
        <time>2020-11-01T13:37:22Z</time>
      </trkpt>
      <trkpt lat="43.26206" lon="-5.1239624">
        <ele>218.0</ele>
        <time>2020-11-01T13:37:23Z</time>
      </trkpt>
      <trkpt lat="43.26207" lon="-5.1239667">
        <ele>218.0</ele>
        <time>2020-11-01T13:37:24Z</time>
      </trkpt>
      <trkpt lat="43.26208" lon="-5.12397">
        <ele>218.0</ele>
        <time>2020-11-01T13:37:25Z</time>
      </trkpt>
      <trkpt lat="43.262085" lon="-5.1239767">
        <ele>218.0</ele>
        <time>2020-11-01T13:37:26Z</time>
      </trkpt>
      <trkpt lat="43.26209" lon="-5.123983">
        <ele>218.0</ele>
        <time>2020-11-01T13:37:27Z</time>
      </trkpt>
      <trkpt lat="43.262096" lon="-5.1239877">
        <ele>218.0</ele>
        <time>2020-11-01T13:37:28Z</time>
      </trkpt>
      <trkpt lat="43.262096" lon="-5.123996">
        <ele>218.0</ele>
        <time>2020-11-01T13:37:29Z</time>
      </trkpt>
      <trkpt lat="43.262096" lon="-5.1240034">
        <ele>217.0</ele>
        <time>2020-11-01T13:37:30Z</time>
      </trkpt>
      <trkpt lat="43.262096" lon="-5.1240153">
        <ele>217.0</ele>
        <time>2020-11-01T13:37:31Z</time>
      </trkpt>
      <trkpt lat="43.262096" lon="-5.1240277">
        <ele>217.0</ele>
        <time>2020-11-01T13:37:32Z</time>
      </trkpt>
      <trkpt lat="43.262096" lon="-5.12404">
        <ele>217.0</ele>
        <time>2020-11-01T13:37:33Z</time>
      </trkpt>
      <trkpt lat="43.262096" lon="-5.124052">
        <ele>217.0</ele>
        <time>2020-11-01T13:37:34Z</time>
      </trkpt>
      <trkpt lat="43.262096" lon="-5.1240644">
        <ele>217.0</ele>
        <time>2020-11-01T13:37:35Z</time>
      </trkpt>
      <trkpt lat="43.262096" lon="-5.1240735">
        <ele>217.0</ele>
        <time>2020-11-01T13:37:36Z</time>
      </trkpt>
      <trkpt lat="43.262096" lon="-5.12408">
        <ele>216.0</ele>
        <time>2020-11-01T13:37:37Z</time>
      </trkpt>
      <trkpt lat="43.2621" lon="-5.124085">
        <ele>216.0</ele>
        <time>2020-11-01T13:37:39Z</time>
      </trkpt>
      <trkpt lat="43.2621" lon="-5.124092">
        <ele>216.0</ele>
        <time>2020-11-01T13:37:39Z</time>
      </trkpt>
      <trkpt lat="43.2621" lon="-5.1240997">
        <ele>216.0</ele>
        <time>2020-11-01T13:37:40Z</time>
      </trkpt>
      <trkpt lat="43.2621" lon="-5.124108">
        <ele>216.0</ele>
        <time>2020-11-01T13:37:41Z</time>
      </trkpt>
      <trkpt lat="43.262104" lon="-5.124116">
        <ele>216.0</ele>
        <time>2020-11-01T13:37:42Z</time>
      </trkpt>
      <trkpt lat="43.262104" lon="-5.124123">
        <ele>216.0</ele>
        <time>2020-11-01T13:37:43Z</time>
      </trkpt>
      <trkpt lat="43.262104" lon="-5.124129">
        <ele>216.0</ele>
        <time>2020-11-01T13:37:44Z</time>
      </trkpt>
      <trkpt lat="43.2621" lon="-5.1241465">
        <ele>216.0</ele>
        <time>2020-11-01T13:37:47Z</time>
      </trkpt>
      <trkpt lat="43.2621" lon="-5.1241484">
        <ele>215.0</ele>
        <time>2020-11-01T13:37:47Z</time>
      </trkpt>
      <trkpt lat="43.262104" lon="-5.124151">
        <ele>215.0</ele>
        <time>2020-11-01T13:37:48Z</time>
      </trkpt>
      <trkpt lat="43.262096" lon="-5.12417">
        <ele>215.0</ele>
        <time>2020-11-01T13:37:50Z</time>
      </trkpt>
      <trkpt lat="43.262096" lon="-5.124171">
        <ele>215.0</ele>
        <time>2020-11-01T13:37:51Z</time>
      </trkpt>
      <trkpt lat="43.262096" lon="-5.1241784">
        <ele>215.0</ele>
        <time>2020-11-01T13:37:52Z</time>
      </trkpt>
      <trkpt lat="43.262096" lon="-5.124191">
        <ele>215.0</ele>
        <time>2020-11-01T13:37:53Z</time>
      </trkpt>
      <trkpt lat="43.26209" lon="-5.1242013">
        <ele>215.0</ele>
        <time>2020-11-01T13:37:54Z</time>
      </trkpt>
      <trkpt lat="43.26209" lon="-5.124209">
        <ele>214.0</ele>
        <time>2020-11-01T13:37:55Z</time>
      </trkpt>
      <trkpt lat="43.262085" lon="-5.124213">
        <ele>214.0</ele>
        <time>2020-11-01T13:37:56Z</time>
      </trkpt>
      <trkpt lat="43.26209" lon="-5.1242332">
        <ele>214.0</ele>
        <time>2020-11-01T13:37:58Z</time>
      </trkpt>
      <trkpt lat="43.26209" lon="-5.1242347">
        <ele>214.0</ele>
        <time>2020-11-01T13:37:59Z</time>
      </trkpt>
      <trkpt lat="43.262096" lon="-5.1242375">
        <ele>214.0</ele>
        <time>2020-11-01T13:38:00Z</time>
      </trkpt>
      <trkpt lat="43.262096" lon="-5.124243">
        <ele>214.0</ele>
        <time>2020-11-01T13:38:01Z</time>
      </trkpt>
      <trkpt lat="43.26209" lon="-5.124249">
        <ele>214.0</ele>
        <time>2020-11-01T13:38:02Z</time>
      </trkpt>
      <trkpt lat="43.26209" lon="-5.124254">
        <ele>213.0</ele>
        <time>2020-11-01T13:38:03Z</time>
      </trkpt>
      <trkpt lat="43.26209" lon="-5.124259">
        <ele>213.0</ele>
        <time>2020-11-01T13:38:04Z</time>
      </trkpt>
      <trkpt lat="43.26209" lon="-5.124263">
        <ele>213.0</ele>
        <time>2020-11-01T13:38:05Z</time>
      </trkpt>
      <trkpt lat="43.26209" lon="-5.1242695">
        <ele>213.0</ele>
        <time>2020-11-01T13:38:06Z</time>
      </trkpt>
      <trkpt lat="43.26209" lon="-5.124275">
        <ele>213.0</ele>
        <time>2020-11-01T13:38:06Z</time>
      </trkpt>
      <trkpt lat="43.26209" lon="-5.1242833">
        <ele>213.0</ele>
        <time>2020-11-01T13:38:07Z</time>
      </trkpt>
      <trkpt lat="43.26209" lon="-5.1242933">
        <ele>213.0</ele>
        <time>2020-11-01T13:38:08Z</time>
      </trkpt>
      <trkpt lat="43.262085" lon="-5.1243052">
        <ele>213.0</ele>
        <time>2020-11-01T13:38:09Z</time>
      </trkpt>
      <trkpt lat="43.262085" lon="-5.124316">
        <ele>213.0</ele>
        <time>2020-11-01T13:38:10Z</time>
      </trkpt>
      <trkpt lat="43.26208" lon="-5.124327">
        <ele>213.0</ele>
        <time>2020-11-01T13:38:11Z</time>
      </trkpt>
      <trkpt lat="43.262074" lon="-5.124336">
        <ele>213.0</ele>
        <time>2020-11-01T13:38:12Z</time>
      </trkpt>
      <trkpt lat="43.262074" lon="-5.124343">
        <ele>213.0</ele>
        <time>2020-11-01T13:38:13Z</time>
      </trkpt>
      <trkpt lat="43.26207" lon="-5.1243496">
        <ele>212.0</ele>
        <time>2020-11-01T13:38:14Z</time>
      </trkpt>
      <trkpt lat="43.262066" lon="-5.124356">
        <ele>212.0</ele>
        <time>2020-11-01T13:38:15Z</time>
      </trkpt>
      <trkpt lat="43.26206" lon="-5.1243634">
        <ele>212.0</ele>
        <time>2020-11-01T13:38:16Z</time>
      </trkpt>
      <trkpt lat="43.262054" lon="-5.124371">
        <ele>212.0</ele>
        <time>2020-11-01T13:38:17Z</time>
      </trkpt>
      <trkpt lat="43.262054" lon="-5.12438">
        <ele>212.0</ele>
        <time>2020-11-01T13:38:18Z</time>
      </trkpt>
      <trkpt lat="43.26205" lon="-5.1243887">
        <ele>212.0</ele>
        <time>2020-11-01T13:38:19Z</time>
      </trkpt>
      <trkpt lat="43.262043" lon="-5.1243973">
        <ele>211.0</ele>
        <time>2020-11-01T13:38:20Z</time>
      </trkpt>
      <trkpt lat="43.262043" lon="-5.124406">
        <ele>211.0</ele>
        <time>2020-11-01T13:38:21Z</time>
      </trkpt>
      <trkpt lat="43.262043" lon="-5.1244144">
        <ele>211.0</ele>
        <time>2020-11-01T13:38:22Z</time>
      </trkpt>
      <trkpt lat="43.262043" lon="-5.1244245">
        <ele>211.0</ele>
        <time>2020-11-01T13:38:23Z</time>
      </trkpt>
      <trkpt lat="43.26205" lon="-5.1244373">
        <ele>211.0</ele>
        <time>2020-11-01T13:38:24Z</time>
      </trkpt>
      <trkpt lat="43.26205" lon="-5.124447">
        <ele>211.0</ele>
        <time>2020-11-01T13:38:25Z</time>
      </trkpt>
      <trkpt lat="43.262054" lon="-5.124455">
        <ele>210.0</ele>
        <time>2020-11-01T13:38:26Z</time>
      </trkpt>
      <trkpt lat="43.262054" lon="-5.1244617">
        <ele>210.0</ele>
        <time>2020-11-01T13:38:27Z</time>
      </trkpt>
      <trkpt lat="43.262054" lon="-5.1244683">
        <ele>210.0</ele>
        <time>2020-11-01T13:38:28Z</time>
      </trkpt>
      <trkpt lat="43.26205" lon="-5.124474">
        <ele>210.0</ele>
        <time>2020-11-01T13:38:29Z</time>
      </trkpt>
      <trkpt lat="43.26205" lon="-5.12448">
        <ele>210.0</ele>
        <time>2020-11-01T13:38:30Z</time>
      </trkpt>
      <trkpt lat="43.26205" lon="-5.124486">
        <ele>210.0</ele>
        <time>2020-11-01T13:38:31Z</time>
      </trkpt>
      <trkpt lat="43.262043" lon="-5.124492">
        <ele>209.0</ele>
        <time>2020-11-01T13:38:32Z</time>
      </trkpt>
      <trkpt lat="43.262043" lon="-5.1244974">
        <ele>209.0</ele>
        <time>2020-11-01T13:38:33Z</time>
      </trkpt>
      <trkpt lat="43.26204" lon="-5.1245027">
        <ele>209.0</ele>
        <time>2020-11-01T13:38:34Z</time>
      </trkpt>
      <trkpt lat="43.262035" lon="-5.124507">
        <ele>209.0</ele>
        <time>2020-11-01T13:38:35Z</time>
      </trkpt>
      <trkpt lat="43.262035" lon="-5.124513">
        <ele>209.0</ele>
        <time>2020-11-01T13:38:36Z</time>
      </trkpt>
      <trkpt lat="43.26204" lon="-5.1245184">
        <ele>209.0</ele>
        <time>2020-11-01T13:38:37Z</time>
      </trkpt>
      <trkpt lat="43.262043" lon="-5.1245227">
        <ele>209.0</ele>
        <time>2020-11-01T13:38:38Z</time>
      </trkpt>
      <trkpt lat="43.262043" lon="-5.124528">
        <ele>208.0</ele>
        <time>2020-11-01T13:38:39Z</time>
      </trkpt>
      <trkpt lat="43.26205" lon="-5.1245327">
        <ele>208.0</ele>
        <time>2020-11-01T13:38:40Z</time>
      </trkpt>
      <trkpt lat="43.26205" lon="-5.1245375">
        <ele>208.0</ele>
        <time>2020-11-01T13:38:41Z</time>
      </trkpt>
      <trkpt lat="43.26205" lon="-5.124542">
        <ele>208.0</ele>
        <time>2020-11-01T13:38:42Z</time>
      </trkpt>
      <trkpt lat="43.262054" lon="-5.124545">
        <ele>208.0</ele>
        <time>2020-11-01T13:38:43Z</time>
      </trkpt>
      <trkpt lat="43.262054" lon="-5.124546">
        <ele>208.0</ele>
        <time>2020-11-01T13:38:44Z</time>
      </trkpt>
      <trkpt lat="43.26206" lon="-5.124547">
        <ele>208.0</ele>
        <time>2020-11-01T13:38:45Z</time>
      </trkpt>
      <trkpt lat="43.262066" lon="-5.124556">
        <ele>208.0</ele>
        <time>2020-11-01T13:38:49Z</time>
      </trkpt>
      <trkpt lat="43.262066" lon="-5.124557">
        <ele>208.0</ele>
        <time>2020-11-01T13:38:49Z</time>
      </trkpt>
      <trkpt lat="43.262066" lon="-5.1245728">
        <ele>208.0</ele>
        <time>2020-11-01T13:38:51Z</time>
      </trkpt>
      <trkpt lat="43.262066" lon="-5.124574">
        <ele>208.0</ele>
        <time>2020-11-01T13:38:52Z</time>
      </trkpt>
      <trkpt lat="43.262066" lon="-5.124576">
        <ele>207.0</ele>
        <time>2020-11-01T13:38:53Z</time>
      </trkpt>
      <trkpt lat="43.262066" lon="-5.1245794">
        <ele>207.0</ele>
        <time>2020-11-01T13:38:54Z</time>
      </trkpt>
      <trkpt lat="43.262066" lon="-5.1245832">
        <ele>207.0</ele>
        <time>2020-11-01T13:38:55Z</time>
      </trkpt>
      <trkpt lat="43.262066" lon="-5.124587">
        <ele>207.0</ele>
        <time>2020-11-01T13:38:56Z</time>
      </trkpt>
      <trkpt lat="43.26207" lon="-5.12459">
        <ele>207.0</ele>
        <time>2020-11-01T13:38:57Z</time>
      </trkpt>
      <trkpt lat="43.26207" lon="-5.124594">
        <ele>207.0</ele>
        <time>2020-11-01T13:38:58Z</time>
      </trkpt>
      <trkpt lat="43.26207" lon="-5.124596">
        <ele>207.0</ele>
        <time>2020-11-01T13:38:59Z</time>
      </trkpt>
      <trkpt lat="43.262066" lon="-5.1245975">
        <ele>207.0</ele>
        <time>2020-11-01T13:39:00Z</time>
      </trkpt>
      <trkpt lat="43.26206" lon="-5.1246004">
        <ele>206.0</ele>
        <time>2020-11-01T13:39:01Z</time>
      </trkpt>
      <trkpt lat="43.262054" lon="-5.1246037">
        <ele>206.0</ele>
        <time>2020-11-01T13:39:02Z</time>
      </trkpt>
      <trkpt lat="43.26205" lon="-5.1246142">
        <ele>206.0</ele>
        <time>2020-11-01T13:39:04Z</time>
      </trkpt>
      <trkpt lat="43.26205" lon="-5.124618">
        <ele>206.0</ele>
        <time>2020-11-01T13:39:13Z</time>
      </trkpt>
      <trkpt lat="43.262054" lon="-5.1246185">
        <ele>206.0</ele>
        <time>2020-11-01T13:39:14Z</time>
      </trkpt>
      <trkpt lat="43.26206" lon="-5.124621">
        <ele>205.0</ele>
        <time>2020-11-01T13:39:15Z</time>
      </trkpt>
      <trkpt lat="43.262066" lon="-5.1246257">
        <ele>205.0</ele>
        <time>2020-11-01T13:39:16Z</time>
      </trkpt>
      <trkpt lat="43.26207" lon="-5.1246324">
        <ele>204.0</ele>
        <time>2020-11-01T13:39:17Z</time>
      </trkpt>
      <trkpt lat="43.26208" lon="-5.124638">
        <ele>204.0</ele>
        <time>2020-11-01T13:39:18Z</time>
      </trkpt>
      <trkpt lat="43.262085" lon="-5.1246443">
        <ele>204.0</ele>
        <time>2020-11-01T13:39:19Z</time>
      </trkpt>
      <trkpt lat="43.262096" lon="-5.1246505">
        <ele>203.0</ele>
        <time>2020-11-01T13:39:20Z</time>
      </trkpt>
      <trkpt lat="43.2621" lon="-5.124656">
        <ele>203.0</ele>
        <time>2020-11-01T13:39:21Z</time>
      </trkpt>
      <trkpt lat="43.26211" lon="-5.124661">
        <ele>203.0</ele>
        <time>2020-11-01T13:39:22Z</time>
      </trkpt>
      <trkpt lat="43.262115" lon="-5.124664">
        <ele>203.0</ele>
        <time>2020-11-01T13:39:24Z</time>
      </trkpt>
      <trkpt lat="43.26213" lon="-5.1246724">
        <ele>202.0</ele>
        <time>2020-11-01T13:39:25Z</time>
      </trkpt>
      <trkpt lat="43.26213" lon="-5.124672">
        <ele>202.0</ele>
        <time>2020-11-01T13:39:26Z</time>
      </trkpt>
      <trkpt lat="43.26213" lon="-5.1246715">
        <ele>202.0</ele>
        <time>2020-11-01T13:39:27Z</time>
      </trkpt>
      <trkpt lat="43.262135" lon="-5.124672">
        <ele>202.0</ele>
        <time>2020-11-01T13:39:28Z</time>
      </trkpt>
      <trkpt lat="43.262142" lon="-5.1246734">
        <ele>201.0</ele>
        <time>2020-11-01T13:39:29Z</time>
      </trkpt>
      <trkpt lat="43.262142" lon="-5.1246753">
        <ele>201.0</ele>
        <time>2020-11-01T13:39:30Z</time>
      </trkpt>
      <trkpt lat="43.262146" lon="-5.124677">
        <ele>201.0</ele>
        <time>2020-11-01T13:39:31Z</time>
      </trkpt>
      <trkpt lat="43.262146" lon="-5.1246777">
        <ele>201.0</ele>
        <time>2020-11-01T13:39:32Z</time>
      </trkpt>
      <trkpt lat="43.26215" lon="-5.1246777">
        <ele>201.0</ele>
        <time>2020-11-01T13:39:33Z</time>
      </trkpt>
      <trkpt lat="43.26216" lon="-5.1246767">
        <ele>200.0</ele>
        <time>2020-11-01T13:39:34Z</time>
      </trkpt>
      <trkpt lat="43.26217" lon="-5.124675">
        <ele>200.0</ele>
        <time>2020-11-01T13:39:35Z</time>
      </trkpt>
      <trkpt lat="43.262173" lon="-5.1246705">
        <ele>200.0</ele>
        <time>2020-11-01T13:39:36Z</time>
      </trkpt>
      <trkpt lat="43.262177" lon="-5.124668">
        <ele>200.0</ele>
        <time>2020-11-01T13:39:37Z</time>
      </trkpt>
      <trkpt lat="43.262184" lon="-5.1246667">
        <ele>200.0</ele>
        <time>2020-11-01T13:39:38Z</time>
      </trkpt>
      <trkpt lat="43.262188" lon="-5.1246686">
        <ele>199.0</ele>
        <time>2020-11-01T13:39:40Z</time>
      </trkpt>
      <trkpt lat="43.2622" lon="-5.1246715">
        <ele>199.0</ele>
        <time>2020-11-01T13:39:40Z</time>
      </trkpt>
      <trkpt lat="43.262203" lon="-5.1246767">
        <ele>199.0</ele>
        <time>2020-11-01T13:39:41Z</time>
      </trkpt>
      <trkpt lat="43.262215" lon="-5.1246824">
        <ele>199.0</ele>
        <time>2020-11-01T13:39:42Z</time>
      </trkpt>
      <trkpt lat="43.26222" lon="-5.124688">
        <ele>199.0</ele>
        <time>2020-11-01T13:39:43Z</time>
      </trkpt>
      <trkpt lat="43.262222" lon="-5.124693">
        <ele>199.0</ele>
        <time>2020-11-01T13:39:44Z</time>
      </trkpt>
      <trkpt lat="43.262222" lon="-5.124696">
        <ele>199.0</ele>
        <time>2020-11-01T13:39:45Z</time>
      </trkpt>
      <trkpt lat="43.262222" lon="-5.124699">
        <ele>199.0</ele>
        <time>2020-11-01T13:39:46Z</time>
      </trkpt>
      <trkpt lat="43.262222" lon="-5.124701">
        <ele>199.0</ele>
        <time>2020-11-01T13:39:47Z</time>
      </trkpt>
      <trkpt lat="43.26223" lon="-5.124702">
        <ele>199.0</ele>
        <time>2020-11-01T13:39:48Z</time>
      </trkpt>
      <trkpt lat="43.262238" lon="-5.124701">
        <ele>199.0</ele>
        <time>2020-11-01T13:39:49Z</time>
      </trkpt>
      <trkpt lat="43.26225" lon="-5.124699">
        <ele>199.0</ele>
        <time>2020-11-01T13:39:50Z</time>
      </trkpt>
      <trkpt lat="43.262253" lon="-5.124695">
        <ele>198.0</ele>
        <time>2020-11-01T13:39:51Z</time>
      </trkpt>
      <trkpt lat="43.262264" lon="-5.1246905">
        <ele>198.0</ele>
        <time>2020-11-01T13:39:52Z</time>
      </trkpt>
      <trkpt lat="43.262268" lon="-5.1246853">
        <ele>198.0</ele>
        <time>2020-11-01T13:39:53Z</time>
      </trkpt>
      <trkpt lat="43.26228" lon="-5.1246862">
        <ele>198.0</ele>
        <time>2020-11-01T13:39:54Z</time>
      </trkpt>
      <trkpt lat="43.262283" lon="-5.124691">
        <ele>198.0</ele>
        <time>2020-11-01T13:39:55Z</time>
      </trkpt>
      <trkpt lat="43.262295" lon="-5.124695">
        <ele>198.0</ele>
        <time>2020-11-01T13:39:56Z</time>
      </trkpt>
      <trkpt lat="43.262306" lon="-5.1246977">
        <ele>197.0</ele>
        <time>2020-11-01T13:39:57Z</time>
      </trkpt>
      <trkpt lat="43.26231" lon="-5.124699">
        <ele>197.0</ele>
        <time>2020-11-01T13:39:58Z</time>
      </trkpt>
      <trkpt lat="43.26232" lon="-5.1247">
        <ele>197.0</ele>
        <time>2020-11-01T13:39:59Z</time>
      </trkpt>
      <trkpt lat="43.26233" lon="-5.1247">
        <ele>197.0</ele>
        <time>2020-11-01T13:40:00Z</time>
      </trkpt>
      <trkpt lat="43.26234" lon="-5.124701">
        <ele>197.0</ele>
        <time>2020-11-01T13:40:01Z</time>
      </trkpt>
      <trkpt lat="43.262344" lon="-5.124703">
        <ele>196.0</ele>
        <time>2020-11-01T13:40:03Z</time>
      </trkpt>
      <trkpt lat="43.262356" lon="-5.124705">
        <ele>196.0</ele>
        <time>2020-11-01T13:40:03Z</time>
      </trkpt>
      <trkpt lat="43.26237" lon="-5.1247163">
        <ele>196.0</ele>
        <time>2020-11-01T13:40:06Z</time>
      </trkpt>
      <trkpt lat="43.26237" lon="-5.124717">
        <ele>196.0</ele>
        <time>2020-11-01T13:40:07Z</time>
      </trkpt>
      <trkpt lat="43.26237" lon="-5.1247177">
        <ele>196.0</ele>
        <time>2020-11-01T13:40:08Z</time>
      </trkpt>
      <trkpt lat="43.26238" lon="-5.1247177">
        <ele>195.0</ele>
        <time>2020-11-01T13:40:09Z</time>
      </trkpt>
      <trkpt lat="43.262383" lon="-5.1247168">
        <ele>195.0</ele>
        <time>2020-11-01T13:40:10Z</time>
      </trkpt>
      <trkpt lat="43.262386" lon="-5.124716">
        <ele>195.0</ele>
        <time>2020-11-01T13:40:11Z</time>
      </trkpt>
      <trkpt lat="43.262394" lon="-5.1247153">
        <ele>195.0</ele>
        <time>2020-11-01T13:40:12Z</time>
      </trkpt>
      <trkpt lat="43.262394" lon="-5.124712">
        <ele>195.0</ele>
        <time>2020-11-01T13:40:13Z</time>
      </trkpt>
      <trkpt lat="43.262394" lon="-5.124706">
        <ele>194.0</ele>
        <time>2020-11-01T13:40:14Z</time>
      </trkpt>
      <trkpt lat="43.262394" lon="-5.124698">
        <ele>194.0</ele>
        <time>2020-11-01T13:40:15Z</time>
      </trkpt>
      <trkpt lat="43.262386" lon="-5.1246886">
        <ele>194.0</ele>
        <time>2020-11-01T13:40:16Z</time>
      </trkpt>
      <trkpt lat="43.262386" lon="-5.124678">
        <ele>194.0</ele>
        <time>2020-11-01T13:40:17Z</time>
      </trkpt>
      <trkpt lat="43.262383" lon="-5.1246696">
        <ele>194.0</ele>
        <time>2020-11-01T13:40:18Z</time>
      </trkpt>
      <trkpt lat="43.26238" lon="-5.1246514">
        <ele>194.0</ele>
        <time>2020-11-01T13:40:24Z</time>
      </trkpt>
      <trkpt lat="43.26238" lon="-5.12465">
        <ele>193.0</ele>
        <time>2020-11-01T13:40:25Z</time>
      </trkpt>
      <trkpt lat="43.262383" lon="-5.124647">
        <ele>193.0</ele>
        <time>2020-11-01T13:40:26Z</time>
      </trkpt>
      <trkpt lat="43.262386" lon="-5.1246443">
        <ele>193.0</ele>
        <time>2020-11-01T13:40:27Z</time>
      </trkpt>
      <trkpt lat="43.262394" lon="-5.12464">
        <ele>193.0</ele>
        <time>2020-11-01T13:40:28Z</time>
      </trkpt>
      <trkpt lat="43.262398" lon="-5.124634">
        <ele>193.0</ele>
        <time>2020-11-01T13:40:29Z</time>
      </trkpt>
      <trkpt lat="43.26241" lon="-5.124629">
        <ele>193.0</ele>
        <time>2020-11-01T13:40:30Z</time>
      </trkpt>
      <trkpt lat="43.262413" lon="-5.1246247">
        <ele>193.0</ele>
        <time>2020-11-01T13:40:31Z</time>
      </trkpt>
      <trkpt lat="43.262432" lon="-5.1246195">
        <ele>193.0</ele>
        <time>2020-11-01T13:40:50Z</time>
      </trkpt>
      <trkpt lat="43.262505" lon="-5.124621">
        <ele>193.0</ele>
        <time>2020-11-01T13:42:03Z</time>
      </trkpt>
      <trkpt lat="43.262505" lon="-5.124622">
        <ele>193.0</ele>
        <time>2020-11-01T13:42:04Z</time>
      </trkpt>
      <trkpt lat="43.262505" lon="-5.1246233">
        <ele>193.0</ele>
        <time>2020-11-01T13:42:05Z</time>
      </trkpt>
      <trkpt lat="43.2625" lon="-5.1246257">
        <ele>193.0</ele>
        <time>2020-11-01T13:42:07Z</time>
      </trkpt>
      <trkpt lat="43.2625" lon="-5.124629">
        <ele>188.0</ele>
        <time>2020-11-01T13:42:07Z</time>
      </trkpt>
      <trkpt lat="43.2625" lon="-5.124633">
        <ele>188.0</ele>
        <time>2020-11-01T13:42:08Z</time>
      </trkpt>
      <trkpt lat="43.262505" lon="-5.1246376">
        <ele>188.0</ele>
        <time>2020-11-01T13:42:09Z</time>
      </trkpt>
      <trkpt lat="43.262505" lon="-5.1246433">
        <ele>188.0</ele>
        <time>2020-11-01T13:42:10Z</time>
      </trkpt>
      <trkpt lat="43.262505" lon="-5.124647">
        <ele>188.0</ele>
        <time>2020-11-01T13:42:11Z</time>
      </trkpt>
      <trkpt lat="43.2625" lon="-5.1246543">
        <ele>188.0</ele>
        <time>2020-11-01T13:42:12Z</time>
      </trkpt>
      <trkpt lat="43.262493" lon="-5.124665">
        <ele>188.0</ele>
        <time>2020-11-01T13:42:13Z</time>
      </trkpt>
      <trkpt lat="43.262486" lon="-5.1246758">
        <ele>188.0</ele>
        <time>2020-11-01T13:42:14Z</time>
      </trkpt>
      <trkpt lat="43.262478" lon="-5.1246853">
        <ele>188.0</ele>
        <time>2020-11-01T13:42:15Z</time>
      </trkpt>
      <trkpt lat="43.262478" lon="-5.1246953">
        <ele>188.0</ele>
        <time>2020-11-01T13:42:16Z</time>
      </trkpt>
      <trkpt lat="43.262478" lon="-5.124705">
        <ele>188.0</ele>
        <time>2020-11-01T13:42:17Z</time>
      </trkpt>
      <trkpt lat="43.262474" lon="-5.1247125">
        <ele>188.0</ele>
        <time>2020-11-01T13:42:18Z</time>
      </trkpt>
      <trkpt lat="43.262474" lon="-5.1247177">
        <ele>188.0</ele>
        <time>2020-11-01T13:42:19Z</time>
      </trkpt>
      <trkpt lat="43.26247" lon="-5.1247244">
        <ele>188.0</ele>
        <time>2020-11-01T13:42:20Z</time>
      </trkpt>
      <trkpt lat="43.26247" lon="-5.1247325">
        <ele>188.0</ele>
        <time>2020-11-01T13:42:21Z</time>
      </trkpt>
      <trkpt lat="43.262463" lon="-5.12474">
        <ele>188.0</ele>
        <time>2020-11-01T13:42:21Z</time>
      </trkpt>
      <trkpt lat="43.262463" lon="-5.124748">
        <ele>188.0</ele>
        <time>2020-11-01T13:42:22Z</time>
      </trkpt>
      <trkpt lat="43.26246" lon="-5.1247563">
        <ele>187.0</ele>
        <time>2020-11-01T13:42:23Z</time>
      </trkpt>
      <trkpt lat="43.262455" lon="-5.124764">
        <ele>187.0</ele>
        <time>2020-11-01T13:42:24Z</time>
      </trkpt>
      <trkpt lat="43.262455" lon="-5.1247725">
        <ele>187.0</ele>
        <time>2020-11-01T13:42:25Z</time>
      </trkpt>
      <trkpt lat="43.262455" lon="-5.1247816">
        <ele>187.0</ele>
        <time>2020-11-01T13:42:26Z</time>
      </trkpt>
      <trkpt lat="43.26246" lon="-5.1247907">
        <ele>187.0</ele>
        <time>2020-11-01T13:42:27Z</time>
      </trkpt>
      <trkpt lat="43.262463" lon="-5.1247983">
        <ele>187.0</ele>
        <time>2020-11-01T13:42:28Z</time>
      </trkpt>
      <trkpt lat="43.262474" lon="-5.124806">
        <ele>187.0</ele>
        <time>2020-11-01T13:42:29Z</time>
      </trkpt>
      <trkpt lat="43.262474" lon="-5.124814">
        <ele>187.0</ele>
        <time>2020-11-01T13:42:30Z</time>
      </trkpt>
      <trkpt lat="43.262478" lon="-5.1248217">
        <ele>187.0</ele>
        <time>2020-11-01T13:42:31Z</time>
      </trkpt>
      <trkpt lat="43.262478" lon="-5.1248274">
        <ele>187.0</ele>
        <time>2020-11-01T13:42:32Z</time>
      </trkpt>
      <trkpt lat="43.262478" lon="-5.1248317">
        <ele>187.0</ele>
        <time>2020-11-01T13:42:33Z</time>
      </trkpt>
      <trkpt lat="43.262486" lon="-5.124836">
        <ele>187.0</ele>
        <time>2020-11-01T13:42:34Z</time>
      </trkpt>
      <trkpt lat="43.262486" lon="-5.1248403">
        <ele>187.0</ele>
        <time>2020-11-01T13:42:35Z</time>
      </trkpt>
      <trkpt lat="43.26249" lon="-5.124844">
        <ele>187.0</ele>
        <time>2020-11-01T13:42:36Z</time>
      </trkpt>
      <trkpt lat="43.262493" lon="-5.124847">
        <ele>187.0</ele>
        <time>2020-11-01T13:42:37Z</time>
      </trkpt>
      <trkpt lat="43.2625" lon="-5.12485">
        <ele>187.0</ele>
        <time>2020-11-01T13:42:38Z</time>
      </trkpt>
      <trkpt lat="43.26251" lon="-5.1248536">
        <ele>187.0</ele>
        <time>2020-11-01T13:42:39Z</time>
      </trkpt>
      <trkpt lat="43.26252" lon="-5.1248593">
        <ele>187.0</ele>
        <time>2020-11-01T13:42:40Z</time>
      </trkpt>
      <trkpt lat="43.262535" lon="-5.124864">
        <ele>187.0</ele>
        <time>2020-11-01T13:42:41Z</time>
      </trkpt>
      <trkpt lat="43.262547" lon="-5.1248684">
        <ele>187.0</ele>
        <time>2020-11-01T13:42:42Z</time>
      </trkpt>
      <trkpt lat="43.26255" lon="-5.1248736">
        <ele>187.0</ele>
        <time>2020-11-01T13:42:43Z</time>
      </trkpt>
      <trkpt lat="43.262558" lon="-5.124878">
        <ele>187.0</ele>
        <time>2020-11-01T13:42:44Z</time>
      </trkpt>
      <trkpt lat="43.26256" lon="-5.1248813">
        <ele>187.0</ele>
        <time>2020-11-01T13:42:45Z</time>
      </trkpt>
      <trkpt lat="43.262566" lon="-5.1248875">
        <ele>187.0</ele>
        <time>2020-11-01T13:42:46Z</time>
      </trkpt>
      <trkpt lat="43.262573" lon="-5.124896">
        <ele>187.0</ele>
        <time>2020-11-01T13:42:47Z</time>
      </trkpt>
      <trkpt lat="43.262573" lon="-5.124906">
        <ele>187.0</ele>
        <time>2020-11-01T13:42:48Z</time>
      </trkpt>
      <trkpt lat="43.262573" lon="-5.1249146">
        <ele>187.0</ele>
        <time>2020-11-01T13:42:49Z</time>
      </trkpt>
      <trkpt lat="43.262573" lon="-5.1249228">
        <ele>188.0</ele>
        <time>2020-11-01T13:42:50Z</time>
      </trkpt>
      <trkpt lat="43.262573" lon="-5.12493">
        <ele>188.0</ele>
        <time>2020-11-01T13:42:51Z</time>
      </trkpt>
      <trkpt lat="43.262573" lon="-5.124936">
        <ele>188.0</ele>
        <time>2020-11-01T13:42:52Z</time>
      </trkpt>
      <trkpt lat="43.262573" lon="-5.124942">
        <ele>188.0</ele>
        <time>2020-11-01T13:42:53Z</time>
      </trkpt>
      <trkpt lat="43.262573" lon="-5.124947">
        <ele>188.0</ele>
        <time>2020-11-01T13:42:54Z</time>
      </trkpt>
      <trkpt lat="43.262573" lon="-5.1249523">
        <ele>188.0</ele>
        <time>2020-11-01T13:42:55Z</time>
      </trkpt>
      <trkpt lat="43.262577" lon="-5.1249557">
        <ele>188.0</ele>
        <time>2020-11-01T13:42:56Z</time>
      </trkpt>
      <trkpt lat="43.26259" lon="-5.1249614">
        <ele>189.0</ele>
        <time>2020-11-01T13:42:57Z</time>
      </trkpt>
      <trkpt lat="43.262596" lon="-5.1249657">
        <ele>189.0</ele>
        <time>2020-11-01T13:42:58Z</time>
      </trkpt>
      <trkpt lat="43.262604" lon="-5.1249685">
        <ele>189.0</ele>
        <time>2020-11-01T13:42:59Z</time>
      </trkpt>
      <trkpt lat="43.262623" lon="-5.1249876">
        <ele>189.0</ele>
        <time>2020-11-01T13:43:01Z</time>
      </trkpt>
      <trkpt lat="43.262623" lon="-5.1249924">
        <ele>189.0</ele>
        <time>2020-11-01T13:43:02Z</time>
      </trkpt>
      <trkpt lat="43.262627" lon="-5.125001">
        <ele>189.0</ele>
        <time>2020-11-01T13:43:03Z</time>
      </trkpt>
      <trkpt lat="43.262627" lon="-5.1250086">
        <ele>189.0</ele>
        <time>2020-11-01T13:43:04Z</time>
      </trkpt>
      <trkpt lat="43.262627" lon="-5.125018">
        <ele>190.0</ele>
        <time>2020-11-01T13:43:05Z</time>
      </trkpt>
      <trkpt lat="43.262634" lon="-5.1250257">
        <ele>190.0</ele>
        <time>2020-11-01T13:43:06Z</time>
      </trkpt>
      <trkpt lat="43.262638" lon="-5.125033">
        <ele>190.0</ele>
        <time>2020-11-01T13:43:07Z</time>
      </trkpt>
      <trkpt lat="43.26264" lon="-5.1250386">
        <ele>190.0</ele>
        <time>2020-11-01T13:43:08Z</time>
      </trkpt>
      <trkpt lat="43.26264" lon="-5.1250443">
        <ele>190.0</ele>
        <time>2020-11-01T13:43:09Z</time>
      </trkpt>
      <trkpt lat="43.26265" lon="-5.125051">
        <ele>190.0</ele>
        <time>2020-11-01T13:43:10Z</time>
      </trkpt>
      <trkpt lat="43.262653" lon="-5.125059">
        <ele>190.0</ele>
        <time>2020-11-01T13:43:11Z</time>
      </trkpt>
      <trkpt lat="43.262657" lon="-5.1250677">
        <ele>190.0</ele>
        <time>2020-11-01T13:43:12Z</time>
      </trkpt>
      <trkpt lat="43.262665" lon="-5.125073">
        <ele>190.0</ele>
        <time>2020-11-01T13:43:13Z</time>
      </trkpt>
      <trkpt lat="43.26267" lon="-5.12508">
        <ele>190.0</ele>
        <time>2020-11-01T13:43:14Z</time>
      </trkpt>
      <trkpt lat="43.262672" lon="-5.1250863">
        <ele>190.0</ele>
        <time>2020-11-01T13:43:15Z</time>
      </trkpt>
      <trkpt lat="43.262672" lon="-5.1250954">
        <ele>190.0</ele>
        <time>2020-11-01T13:43:16Z</time>
      </trkpt>
      <trkpt lat="43.26267" lon="-5.1251063">
        <ele>190.0</ele>
        <time>2020-11-01T13:43:17Z</time>
      </trkpt>
      <trkpt lat="43.26267" lon="-5.125119">
        <ele>190.0</ele>
        <time>2020-11-01T13:43:18Z</time>
      </trkpt>
      <trkpt lat="43.26267" lon="-5.1251335">
        <ele>190.0</ele>
        <time>2020-11-01T13:43:19Z</time>
      </trkpt>
      <trkpt lat="43.262672" lon="-5.125149">
        <ele>190.0</ele>
        <time>2020-11-01T13:43:20Z</time>
      </trkpt>
      <trkpt lat="43.26268" lon="-5.125165">
        <ele>190.0</ele>
        <time>2020-11-01T13:43:21Z</time>
      </trkpt>
      <trkpt lat="43.262672" lon="-5.1251807">
        <ele>190.0</ele>
        <time>2020-11-01T13:43:22Z</time>
      </trkpt>
      <trkpt lat="43.262672" lon="-5.125196">
        <ele>190.0</ele>
        <time>2020-11-01T13:43:23Z</time>
      </trkpt>
      <trkpt lat="43.26267" lon="-5.125209">
        <ele>190.0</ele>
        <time>2020-11-01T13:43:24Z</time>
      </trkpt>
      <trkpt lat="43.262665" lon="-5.1252193">
        <ele>190.0</ele>
        <time>2020-11-01T13:43:25Z</time>
      </trkpt>
      <trkpt lat="43.262665" lon="-5.125227">
        <ele>190.0</ele>
        <time>2020-11-01T13:43:26Z</time>
      </trkpt>
      <trkpt lat="43.26267" lon="-5.1252522">
        <ele>190.0</ele>
        <time>2020-11-01T13:43:28Z</time>
      </trkpt>
      <trkpt lat="43.262672" lon="-5.125255">
        <ele>190.0</ele>
        <time>2020-11-01T13:43:29Z</time>
      </trkpt>
      <trkpt lat="43.262672" lon="-5.1252604">
        <ele>190.0</ele>
        <time>2020-11-01T13:43:30Z</time>
      </trkpt>
      <trkpt lat="43.262684" lon="-5.1252685">
        <ele>190.0</ele>
        <time>2020-11-01T13:43:31Z</time>
      </trkpt>
      <trkpt lat="43.262688" lon="-5.1252766">
        <ele>190.0</ele>
        <time>2020-11-01T13:43:32Z</time>
      </trkpt>
      <trkpt lat="43.262695" lon="-5.1252837">
        <ele>190.0</ele>
        <time>2020-11-01T13:43:33Z</time>
      </trkpt>
      <trkpt lat="43.2627" lon="-5.1252904">
        <ele>190.0</ele>
        <time>2020-11-01T13:43:34Z</time>
      </trkpt>
      <trkpt lat="43.2627" lon="-5.125298">
        <ele>190.0</ele>
        <time>2020-11-01T13:43:35Z</time>
      </trkpt>
      <trkpt lat="43.262703" lon="-5.125306">
        <ele>190.0</ele>
        <time>2020-11-01T13:43:36Z</time>
      </trkpt>
      <trkpt lat="43.262703" lon="-5.1253166">
        <ele>190.0</ele>
        <time>2020-11-01T13:43:37Z</time>
      </trkpt>
      <trkpt lat="43.26271" lon="-5.1253285">
        <ele>190.0</ele>
        <time>2020-11-01T13:43:38Z</time>
      </trkpt>
      <trkpt lat="43.26271" lon="-5.125342">
        <ele>190.0</ele>
        <time>2020-11-01T13:43:39Z</time>
      </trkpt>
      <trkpt lat="43.26272" lon="-5.1253567">
        <ele>190.0</ele>
        <time>2020-11-01T13:43:40Z</time>
      </trkpt>
      <trkpt lat="43.262726" lon="-5.125371">
        <ele>190.0</ele>
        <time>2020-11-01T13:43:41Z</time>
      </trkpt>
      <trkpt lat="43.262733" lon="-5.1253843">
        <ele>190.0</ele>
        <time>2020-11-01T13:43:42Z</time>
      </trkpt>
      <trkpt lat="43.26274" lon="-5.125398">
        <ele>190.0</ele>
        <time>2020-11-01T13:43:43Z</time>
      </trkpt>
      <trkpt lat="43.262745" lon="-5.125411">
        <ele>190.0</ele>
        <time>2020-11-01T13:43:44Z</time>
      </trkpt>
      <trkpt lat="43.262753" lon="-5.125422">
        <ele>190.0</ele>
        <time>2020-11-01T13:43:45Z</time>
      </trkpt>
      <trkpt lat="43.262756" lon="-5.1254325">
        <ele>190.0</ele>
        <time>2020-11-01T13:43:46Z</time>
      </trkpt>
      <trkpt lat="43.262756" lon="-5.125442">
        <ele>190.0</ele>
        <time>2020-11-01T13:43:47Z</time>
      </trkpt>
      <trkpt lat="43.26276" lon="-5.125451">
        <ele>190.0</ele>
        <time>2020-11-01T13:43:48Z</time>
      </trkpt>
      <trkpt lat="43.262768" lon="-5.1254582">
        <ele>190.0</ele>
        <time>2020-11-01T13:43:49Z</time>
      </trkpt>
      <trkpt lat="43.262768" lon="-5.125465">
        <ele>190.0</ele>
        <time>2020-11-01T13:43:50Z</time>
      </trkpt>
      <trkpt lat="43.26277" lon="-5.125473">
        <ele>190.0</ele>
        <time>2020-11-01T13:43:51Z</time>
      </trkpt>
      <trkpt lat="43.262768" lon="-5.125483">
        <ele>190.0</ele>
        <time>2020-11-01T13:43:52Z</time>
      </trkpt>
      <trkpt lat="43.262768" lon="-5.125499">
        <ele>190.0</ele>
        <time>2020-11-01T13:43:53Z</time>
      </trkpt>
      <trkpt lat="43.26276" lon="-5.1255183">
        <ele>190.0</ele>
        <time>2020-11-01T13:43:54Z</time>
      </trkpt>
      <trkpt lat="43.262768" lon="-5.125537">
        <ele>190.0</ele>
        <time>2020-11-01T13:43:55Z</time>
      </trkpt>
      <trkpt lat="43.262768" lon="-5.125551">
        <ele>190.0</ele>
        <time>2020-11-01T13:43:56Z</time>
      </trkpt>
      <trkpt lat="43.26276" lon="-5.1255636">
        <ele>190.0</ele>
        <time>2020-11-01T13:43:57Z</time>
      </trkpt>
      <trkpt lat="43.26276" lon="-5.1255746">
        <ele>190.0</ele>
        <time>2020-11-01T13:43:58Z</time>
      </trkpt>
      <trkpt lat="43.262756" lon="-5.125585">
        <ele>190.0</ele>
        <time>2020-11-01T13:43:59Z</time>
      </trkpt>
      <trkpt lat="43.262756" lon="-5.125596">
        <ele>190.0</ele>
        <time>2020-11-01T13:44:00Z</time>
      </trkpt>
      <trkpt lat="43.262756" lon="-5.1256075">
        <ele>190.0</ele>
        <time>2020-11-01T13:44:01Z</time>
      </trkpt>
      <trkpt lat="43.262756" lon="-5.1256185">
        <ele>190.0</ele>
        <time>2020-11-01T13:44:02Z</time>
      </trkpt>
      <trkpt lat="43.262753" lon="-5.125627">
        <ele>190.0</ele>
        <time>2020-11-01T13:44:03Z</time>
      </trkpt>
      <trkpt lat="43.262753" lon="-5.125634">
        <ele>190.0</ele>
        <time>2020-11-01T13:44:04Z</time>
      </trkpt>
      <trkpt lat="43.262753" lon="-5.125643">
        <ele>190.0</ele>
        <time>2020-11-01T13:44:05Z</time>
      </trkpt>
      <trkpt lat="43.262756" lon="-5.1256514">
        <ele>190.0</ele>
        <time>2020-11-01T13:44:06Z</time>
      </trkpt>
      <trkpt lat="43.262756" lon="-5.125658">
        <ele>190.0</ele>
        <time>2020-11-01T13:44:07Z</time>
      </trkpt>
      <trkpt lat="43.26276" lon="-5.125665">
        <ele>190.0</ele>
        <time>2020-11-01T13:44:08Z</time>
      </trkpt>
      <trkpt lat="43.26276" lon="-5.125674">
        <ele>193.0</ele>
        <time>2020-11-01T13:44:09Z</time>
      </trkpt>
      <trkpt lat="43.26276" lon="-5.1256843">
        <ele>193.0</ele>
        <time>2020-11-01T13:44:10Z</time>
      </trkpt>
      <trkpt lat="43.26276" lon="-5.125696">
        <ele>193.0</ele>
        <time>2020-11-01T13:44:11Z</time>
      </trkpt>
      <trkpt lat="43.262768" lon="-5.1257076">
        <ele>193.0</ele>
        <time>2020-11-01T13:44:12Z</time>
      </trkpt>
      <trkpt lat="43.26277" lon="-5.1257176">
        <ele>193.0</ele>
        <time>2020-11-01T13:44:13Z</time>
      </trkpt>
      <trkpt lat="43.26277" lon="-5.1257257">
        <ele>193.0</ele>
        <time>2020-11-01T13:44:14Z</time>
      </trkpt>
      <trkpt lat="43.262768" lon="-5.1257334">
        <ele>193.0</ele>
        <time>2020-11-01T13:44:15Z</time>
      </trkpt>
      <trkpt lat="43.26276" lon="-5.125739">
        <ele>193.0</ele>
        <time>2020-11-01T13:44:16Z</time>
      </trkpt>
      <trkpt lat="43.262756" lon="-5.125746">
        <ele>193.0</ele>
        <time>2020-11-01T13:44:18Z</time>
      </trkpt>
      <trkpt lat="43.2628" lon="-5.1257973">
        <ele>193.0</ele>
        <time>2020-11-01T13:44:47Z</time>
      </trkpt>
      <trkpt lat="43.262802" lon="-5.1257977">
        <ele>193.0</ele>
        <time>2020-11-01T13:44:48Z</time>
      </trkpt>
      <trkpt lat="43.262802" lon="-5.1258">
        <ele>193.0</ele>
        <time>2020-11-01T13:44:49Z</time>
      </trkpt>
      <trkpt lat="43.262802" lon="-5.1258035">
        <ele>193.0</ele>
        <time>2020-11-01T13:44:50Z</time>
      </trkpt>
      <trkpt lat="43.262802" lon="-5.125812">
        <ele>193.0</ele>
        <time>2020-11-01T13:44:52Z</time>
      </trkpt>
      <trkpt lat="43.2628" lon="-5.1258106">
        <ele>193.0</ele>
        <time>2020-11-01T13:44:55Z</time>
      </trkpt>
      <trkpt lat="43.26279" lon="-5.125811">
        <ele>193.0</ele>
        <time>2020-11-01T13:44:56Z</time>
      </trkpt>
      <trkpt lat="43.262787" lon="-5.125813">
        <ele>193.0</ele>
        <time>2020-11-01T13:44:57Z</time>
      </trkpt>
      <trkpt lat="43.262787" lon="-5.1258197">
        <ele>193.0</ele>
        <time>2020-11-01T13:44:58Z</time>
      </trkpt>
      <trkpt lat="43.262787" lon="-5.125828">
        <ele>193.0</ele>
        <time>2020-11-01T13:44:59Z</time>
      </trkpt>
      <trkpt lat="43.26279" lon="-5.1258326">
        <ele>193.0</ele>
        <time>2020-11-01T13:45:00Z</time>
      </trkpt>
      <trkpt lat="43.26279" lon="-5.1258364">
        <ele>193.0</ele>
        <time>2020-11-01T13:45:01Z</time>
      </trkpt>
      <trkpt lat="43.2628" lon="-5.1258364">
        <ele>193.0</ele>
        <time>2020-11-01T13:45:02Z</time>
      </trkpt>
      <trkpt lat="43.262806" lon="-5.125837">
        <ele>193.0</ele>
        <time>2020-11-01T13:45:03Z</time>
      </trkpt>
      <trkpt lat="43.262814" lon="-5.1258373">
        <ele>193.0</ele>
        <time>2020-11-01T13:45:04Z</time>
      </trkpt>
      <trkpt lat="43.26282" lon="-5.125838">
        <ele>193.0</ele>
        <time>2020-11-01T13:45:05Z</time>
      </trkpt>
      <trkpt lat="43.262833" lon="-5.1258397">
        <ele>193.0</ele>
        <time>2020-11-01T13:45:06Z</time>
      </trkpt>
      <trkpt lat="43.262863" lon="-5.1258554">
        <ele>193.0</ele>
        <time>2020-11-01T13:45:08Z</time>
      </trkpt>
      <trkpt lat="43.262867" lon="-5.1258564">
        <ele>193.0</ele>
        <time>2020-11-01T13:45:09Z</time>
      </trkpt>
      <trkpt lat="43.262863" lon="-5.1258593">
        <ele>193.0</ele>
        <time>2020-11-01T13:45:10Z</time>
      </trkpt>
      <trkpt lat="43.26286" lon="-5.125864">
        <ele>193.0</ele>
        <time>2020-11-01T13:45:11Z</time>
      </trkpt>
      <trkpt lat="43.26285" lon="-5.12587">
        <ele>193.0</ele>
        <time>2020-11-01T13:45:12Z</time>
      </trkpt>
      <trkpt lat="43.262848" lon="-5.125876">
        <ele>193.0</ele>
        <time>2020-11-01T13:45:13Z</time>
      </trkpt>
      <trkpt lat="43.262844" lon="-5.125881">
        <ele>193.0</ele>
        <time>2020-11-01T13:45:14Z</time>
      </trkpt>
      <trkpt lat="43.262844" lon="-5.1258845">
        <ele>193.0</ele>
        <time>2020-11-01T13:45:16Z</time>
      </trkpt>
      <trkpt lat="43.262844" lon="-5.1258917">
        <ele>193.0</ele>
        <time>2020-11-01T13:45:16Z</time>
      </trkpt>
      <trkpt lat="43.26285" lon="-5.1259">
        <ele>193.0</ele>
        <time>2020-11-01T13:45:17Z</time>
      </trkpt>
      <trkpt lat="43.26286" lon="-5.125909">
        <ele>193.0</ele>
        <time>2020-11-01T13:45:18Z</time>
      </trkpt>
      <trkpt lat="43.26286" lon="-5.125918">
        <ele>190.0</ele>
        <time>2020-11-01T13:45:19Z</time>
      </trkpt>
      <trkpt lat="43.262863" lon="-5.1259265">
        <ele>190.0</ele>
        <time>2020-11-01T13:45:20Z</time>
      </trkpt>
      <trkpt lat="43.262867" lon="-5.1259356">
        <ele>190.0</ele>
        <time>2020-11-01T13:45:21Z</time>
      </trkpt>
      <trkpt lat="43.262875" lon="-5.1259413">
        <ele>190.0</ele>
        <time>2020-11-01T13:45:22Z</time>
      </trkpt>
      <trkpt lat="43.262882" lon="-5.125949">
        <ele>190.0</ele>
        <time>2020-11-01T13:45:23Z</time>
      </trkpt>
      <trkpt lat="43.26289" lon="-5.1259565">
        <ele>190.0</ele>
        <time>2020-11-01T13:45:24Z</time>
      </trkpt>
      <trkpt lat="43.262897" lon="-5.125962">
        <ele>190.0</ele>
        <time>2020-11-01T13:45:25Z</time>
      </trkpt>
      <trkpt lat="43.262905" lon="-5.125968">
        <ele>190.0</ele>
        <time>2020-11-01T13:45:26Z</time>
      </trkpt>
      <trkpt lat="43.262913" lon="-5.125974">
        <ele>190.0</ele>
        <time>2020-11-01T13:45:27Z</time>
      </trkpt>
      <trkpt lat="43.26292" lon="-5.1259794">
        <ele>190.0</ele>
        <time>2020-11-01T13:45:28Z</time>
      </trkpt>
      <trkpt lat="43.26293" lon="-5.125997">
        <ele>189.0</ele>
        <time>2020-11-01T13:45:30Z</time>
      </trkpt>
      <trkpt lat="43.262936" lon="-5.1259975">
        <ele>189.0</ele>
        <time>2020-11-01T13:45:31Z</time>
      </trkpt>
      <trkpt lat="43.26293" lon="-5.1260004">
        <ele>189.0</ele>
        <time>2020-11-01T13:45:33Z</time>
      </trkpt>
      <trkpt lat="43.26293" lon="-5.126001">
        <ele>189.0</ele>
        <time>2020-11-01T13:45:34Z</time>
      </trkpt>
      <trkpt lat="43.262936" lon="-5.1260037">
        <ele>188.0</ele>
        <time>2020-11-01T13:45:35Z</time>
      </trkpt>
      <trkpt lat="43.26294" lon="-5.126008">
        <ele>188.0</ele>
        <time>2020-11-01T13:45:36Z</time>
      </trkpt>
      <trkpt lat="43.26295" lon="-5.126014">
        <ele>188.0</ele>
        <time>2020-11-01T13:45:37Z</time>
      </trkpt>
      <trkpt lat="43.262955" lon="-5.126019">
        <ele>188.0</ele>
        <time>2020-11-01T13:45:38Z</time>
      </trkpt>
      <trkpt lat="43.262962" lon="-5.126027">
        <ele>188.0</ele>
        <time>2020-11-01T13:45:40Z</time>
      </trkpt>
      <trkpt lat="43.26297" lon="-5.126036">
        <ele>187.0</ele>
        <time>2020-11-01T13:45:40Z</time>
      </trkpt>
      <trkpt lat="43.262978" lon="-5.126046">
        <ele>187.0</ele>
        <time>2020-11-01T13:45:41Z</time>
      </trkpt>
      <trkpt lat="43.262978" lon="-5.1260605">
        <ele>187.0</ele>
        <time>2020-11-01T13:45:42Z</time>
      </trkpt>
      <trkpt lat="43.26298" lon="-5.1260757">
        <ele>187.0</ele>
        <time>2020-11-01T13:45:43Z</time>
      </trkpt>
      <trkpt lat="43.26298" lon="-5.126092">
        <ele>187.0</ele>
        <time>2020-11-01T13:45:44Z</time>
      </trkpt>
      <trkpt lat="43.26298" lon="-5.126108">
        <ele>187.0</ele>
        <time>2020-11-01T13:45:45Z</time>
      </trkpt>
      <trkpt lat="43.26298" lon="-5.1261215">
        <ele>186.0</ele>
        <time>2020-11-01T13:45:46Z</time>
      </trkpt>
      <trkpt lat="43.262985" lon="-5.1261487">
        <ele>186.0</ele>
        <time>2020-11-01T13:45:48Z</time>
      </trkpt>
      <trkpt lat="43.26298" lon="-5.1261487">
        <ele>186.0</ele>
        <time>2020-11-01T13:45:49Z</time>
      </trkpt>
      <trkpt lat="43.262985" lon="-5.1261497">
        <ele>186.0</ele>
        <time>2020-11-01T13:45:50Z</time>
      </trkpt>
      <trkpt lat="43.262985" lon="-5.1261525">
        <ele>186.0</ele>
        <time>2020-11-01T13:45:51Z</time>
      </trkpt>
      <trkpt lat="43.262993" lon="-5.1261563">
        <ele>186.0</ele>
        <time>2020-11-01T13:45:52Z</time>
      </trkpt>
      <trkpt lat="43.262997" lon="-5.126162">
        <ele>186.0</ele>
        <time>2020-11-01T13:45:53Z</time>
      </trkpt>
      <trkpt lat="43.263" lon="-5.1261687">
        <ele>186.0</ele>
        <time>2020-11-01T13:45:54Z</time>
      </trkpt>
      <trkpt lat="43.26301" lon="-5.1261797">
        <ele>186.0</ele>
        <time>2020-11-01T13:45:55Z</time>
      </trkpt>
      <trkpt lat="43.263012" lon="-5.126191">
        <ele>186.0</ele>
        <time>2020-11-01T13:45:56Z</time>
      </trkpt>
      <trkpt lat="43.263016" lon="-5.126202">
        <ele>186.0</ele>
        <time>2020-11-01T13:45:57Z</time>
      </trkpt>
      <trkpt lat="43.263023" lon="-5.1262145">
        <ele>186.0</ele>
        <time>2020-11-01T13:45:58Z</time>
      </trkpt>
      <trkpt lat="43.26303" lon="-5.1262283">
        <ele>186.0</ele>
        <time>2020-11-01T13:45:59Z</time>
      </trkpt>
      <trkpt lat="43.263042" lon="-5.126244">
        <ele>186.0</ele>
        <time>2020-11-01T13:46:00Z</time>
      </trkpt>
      <trkpt lat="43.263054" lon="-5.1262608">
        <ele>186.0</ele>
        <time>2020-11-01T13:46:01Z</time>
      </trkpt>
      <trkpt lat="43.26306" lon="-5.126274">
        <ele>186.0</ele>
        <time>2020-11-01T13:46:03Z</time>
      </trkpt>
      <trkpt lat="43.263073" lon="-5.1262846">
        <ele>186.0</ele>
        <time>2020-11-01T13:46:03Z</time>
      </trkpt>
      <trkpt lat="43.263077" lon="-5.1262937">
        <ele>186.0</ele>
        <time>2020-11-01T13:46:04Z</time>
      </trkpt>
      <trkpt lat="43.263084" lon="-5.126302">
        <ele>186.0</ele>
        <time>2020-11-01T13:46:05Z</time>
      </trkpt>
      <trkpt lat="43.26309" lon="-5.1263094">
        <ele>186.0</ele>
        <time>2020-11-01T13:46:06Z</time>
      </trkpt>
      <trkpt lat="43.263092" lon="-5.1263156">
        <ele>186.0</ele>
        <time>2020-11-01T13:46:07Z</time>
      </trkpt>
      <trkpt lat="43.2631" lon="-5.1263227">
        <ele>185.0</ele>
        <time>2020-11-01T13:46:08Z</time>
      </trkpt>
      <trkpt lat="43.263103" lon="-5.1263313">
        <ele>185.0</ele>
        <time>2020-11-01T13:46:09Z</time>
      </trkpt>
      <trkpt lat="43.263115" lon="-5.126338">
        <ele>185.0</ele>
        <time>2020-11-01T13:46:11Z</time>
      </trkpt>
      <trkpt lat="43.263126" lon="-5.1263423">
        <ele>185.0</ele>
        <time>2020-11-01T13:46:11Z</time>
      </trkpt>
      <trkpt lat="43.263134" lon="-5.126345">
        <ele>185.0</ele>
        <time>2020-11-01T13:46:12Z</time>
      </trkpt>
      <trkpt lat="43.26315" lon="-5.126352">
        <ele>185.0</ele>
        <time>2020-11-01T13:46:13Z</time>
      </trkpt>
      <trkpt lat="43.26316" lon="-5.1263585">
        <ele>185.0</ele>
        <time>2020-11-01T13:46:14Z</time>
      </trkpt>
      <trkpt lat="43.26318" lon="-5.1263614">
        <ele>185.0</ele>
        <time>2020-11-01T13:46:15Z</time>
      </trkpt>
      <trkpt lat="43.26319" lon="-5.1263604">
        <ele>185.0</ele>
        <time>2020-11-01T13:46:17Z</time>
      </trkpt>
      <trkpt lat="43.26321" lon="-5.1263576">
        <ele>185.0</ele>
        <time>2020-11-01T13:46:17Z</time>
      </trkpt>
      <trkpt lat="43.263237" lon="-5.1263595">
        <ele>185.0</ele>
        <time>2020-11-01T13:46:18Z</time>
      </trkpt>
      <trkpt lat="43.263264" lon="-5.1263695">
        <ele>185.0</ele>
        <time>2020-11-01T13:46:19Z</time>
      </trkpt>
      <trkpt lat="43.26328" lon="-5.126377">
        <ele>184.0</ele>
        <time>2020-11-01T13:46:20Z</time>
      </trkpt>
      <trkpt lat="43.263287" lon="-5.126383">
        <ele>184.0</ele>
        <time>2020-11-01T13:46:21Z</time>
      </trkpt>
      <trkpt lat="43.263283" lon="-5.126385">
        <ele>184.0</ele>
        <time>2020-11-01T13:46:22Z</time>
      </trkpt>
      <trkpt lat="43.26328" lon="-5.1263847">
        <ele>184.0</ele>
        <time>2020-11-01T13:46:23Z</time>
      </trkpt>
      <trkpt lat="43.26328" lon="-5.126382">
        <ele>184.0</ele>
        <time>2020-11-01T13:46:24Z</time>
      </trkpt>
      <trkpt lat="43.26327" lon="-5.12638">
        <ele>184.0</ele>
        <time>2020-11-01T13:46:25Z</time>
      </trkpt>
      <trkpt lat="43.263268" lon="-5.126379">
        <ele>184.0</ele>
        <time>2020-11-01T13:46:26Z</time>
      </trkpt>
      <trkpt lat="43.263264" lon="-5.1263833">
        <ele>184.0</ele>
        <time>2020-11-01T13:46:27Z</time>
      </trkpt>
      <trkpt lat="43.263264" lon="-5.1263905">
        <ele>184.0</ele>
        <time>2020-11-01T13:46:28Z</time>
      </trkpt>
      <trkpt lat="43.263268" lon="-5.1263976">
        <ele>184.0</ele>
        <time>2020-11-01T13:46:29Z</time>
      </trkpt>
      <trkpt lat="43.26327" lon="-5.1264033">
        <ele>184.0</ele>
        <time>2020-11-01T13:46:30Z</time>
      </trkpt>
      <trkpt lat="43.263283" lon="-5.1264076">
        <ele>184.0</ele>
        <time>2020-11-01T13:46:31Z</time>
      </trkpt>
      <trkpt lat="43.263283" lon="-5.126408">
        <ele>184.0</ele>
        <time>2020-11-01T13:46:32Z</time>
      </trkpt>
      <trkpt lat="43.263287" lon="-5.126407">
        <ele>184.0</ele>
        <time>2020-11-01T13:46:33Z</time>
      </trkpt>
      <trkpt lat="43.263287" lon="-5.1264124">
        <ele>184.0</ele>
        <time>2020-11-01T13:46:34Z</time>
      </trkpt>
      <trkpt lat="43.263287" lon="-5.12642">
        <ele>184.0</ele>
        <time>2020-11-01T13:46:35Z</time>
      </trkpt>
      <trkpt lat="43.263294" lon="-5.12643">
        <ele>184.0</ele>
        <time>2020-11-01T13:46:36Z</time>
      </trkpt>
      <trkpt lat="43.263298" lon="-5.1264424">
        <ele>184.0</ele>
        <time>2020-11-01T13:46:36Z</time>
      </trkpt>
      <trkpt lat="43.2633" lon="-5.126454">
        <ele>184.0</ele>
        <time>2020-11-01T13:46:37Z</time>
      </trkpt>
      <trkpt lat="43.2633" lon="-5.126461">
        <ele>183.0</ele>
        <time>2020-11-01T13:46:38Z</time>
      </trkpt>
      <trkpt lat="43.2633" lon="-5.1264644">
        <ele>183.0</ele>
        <time>2020-11-01T13:46:39Z</time>
      </trkpt>
      <trkpt lat="43.2633" lon="-5.1264653">
        <ele>183.0</ele>
        <time>2020-11-01T13:46:40Z</time>
      </trkpt>
      <trkpt lat="43.263298" lon="-5.12647">
        <ele>183.0</ele>
        <time>2020-11-01T13:46:42Z</time>
      </trkpt>
      <trkpt lat="43.263298" lon="-5.1264706">
        <ele>183.0</ele>
        <time>2020-11-01T13:46:43Z</time>
      </trkpt>
      <trkpt lat="43.263298" lon="-5.126472">
        <ele>183.0</ele>
        <time>2020-11-01T13:46:44Z</time>
      </trkpt>
      <trkpt lat="43.263298" lon="-5.1264744">
        <ele>183.0</ele>
        <time>2020-11-01T13:46:45Z</time>
      </trkpt>
      <trkpt lat="43.263298" lon="-5.1264796">
        <ele>183.0</ele>
        <time>2020-11-01T13:46:46Z</time>
      </trkpt>
      <trkpt lat="43.263298" lon="-5.1264873">
        <ele>183.0</ele>
        <time>2020-11-01T13:46:47Z</time>
      </trkpt>
      <trkpt lat="43.263298" lon="-5.1264954">
        <ele>183.0</ele>
        <time>2020-11-01T13:46:48Z</time>
      </trkpt>
      <trkpt lat="43.2633" lon="-5.1265054">
        <ele>183.0</ele>
        <time>2020-11-01T13:46:49Z</time>
      </trkpt>
      <trkpt lat="43.2633" lon="-5.1265154">
        <ele>183.0</ele>
        <time>2020-11-01T13:46:50Z</time>
      </trkpt>
      <trkpt lat="43.26331" lon="-5.1265254">
        <ele>183.0</ele>
        <time>2020-11-01T13:46:51Z</time>
      </trkpt>
      <trkpt lat="43.263313" lon="-5.126538">
        <ele>183.0</ele>
        <time>2020-11-01T13:46:52Z</time>
      </trkpt>
      <trkpt lat="43.26332" lon="-5.1265473">
        <ele>183.0</ele>
        <time>2020-11-01T13:46:53Z</time>
      </trkpt>
      <trkpt lat="43.263336" lon="-5.126562">
        <ele>183.0</ele>
        <time>2020-11-01T13:46:54Z</time>
      </trkpt>
      <trkpt lat="43.263355" lon="-5.1265745">
        <ele>183.0</ele>
        <time>2020-11-01T13:46:55Z</time>
      </trkpt>
      <trkpt lat="43.26337" lon="-5.126585">
        <ele>183.0</ele>
        <time>2020-11-01T13:46:56Z</time>
      </trkpt>
      <trkpt lat="43.263386" lon="-5.1265936">
        <ele>183.0</ele>
        <time>2020-11-01T13:46:57Z</time>
      </trkpt>
      <trkpt lat="43.263386" lon="-5.1266007">
        <ele>183.0</ele>
        <time>2020-11-01T13:46:58Z</time>
      </trkpt>
      <trkpt lat="43.263382" lon="-5.1266074">
        <ele>183.0</ele>
        <time>2020-11-01T13:46:59Z</time>
      </trkpt>
      <trkpt lat="43.26337" lon="-5.1266127">
        <ele>183.0</ele>
        <time>2020-11-01T13:47:00Z</time>
      </trkpt>
      <trkpt lat="43.263367" lon="-5.1266146">
        <ele>183.0</ele>
        <time>2020-11-01T13:47:01Z</time>
      </trkpt>
      <trkpt lat="43.26336" lon="-5.1266117">
        <ele>183.0</ele>
        <time>2020-11-01T13:47:02Z</time>
      </trkpt>
      <trkpt lat="43.26335" lon="-5.12661">
        <ele>183.0</ele>
        <time>2020-11-01T13:47:03Z</time>
      </trkpt>
      <trkpt lat="43.26334" lon="-5.1266127">
        <ele>183.0</ele>
        <time>2020-11-01T13:47:04Z</time>
      </trkpt>
      <trkpt lat="43.26334" lon="-5.12662">
        <ele>183.0</ele>
        <time>2020-11-01T13:47:05Z</time>
      </trkpt>
      <trkpt lat="43.263344" lon="-5.1266336">
        <ele>183.0</ele>
        <time>2020-11-01T13:47:06Z</time>
      </trkpt>
      <trkpt lat="43.26335" lon="-5.126644">
        <ele>183.0</ele>
        <time>2020-11-01T13:47:07Z</time>
      </trkpt>
      <trkpt lat="43.263355" lon="-5.126672">
        <ele>183.0</ele>
        <time>2020-11-01T13:47:09Z</time>
      </trkpt>
      <trkpt lat="43.263355" lon="-5.1266704">
        <ele>183.0</ele>
        <time>2020-11-01T13:47:10Z</time>
      </trkpt>
      <trkpt lat="43.26335" lon="-5.12667">
        <ele>183.0</ele>
        <time>2020-11-01T13:47:11Z</time>
      </trkpt>
      <trkpt lat="43.263344" lon="-5.1266713">
        <ele>183.0</ele>
        <time>2020-11-01T13:47:12Z</time>
      </trkpt>
      <trkpt lat="43.26334" lon="-5.1266723">
        <ele>183.0</ele>
        <time>2020-11-01T13:47:13Z</time>
      </trkpt>
      <trkpt lat="43.26334" lon="-5.1266727">
        <ele>183.0</ele>
        <time>2020-11-01T13:47:14Z</time>
      </trkpt>
      <trkpt lat="43.26334" lon="-5.1266723">
        <ele>183.0</ele>
        <time>2020-11-01T13:47:15Z</time>
      </trkpt>
      <trkpt lat="43.263336" lon="-5.1266713">
        <ele>183.0</ele>
        <time>2020-11-01T13:47:16Z</time>
      </trkpt>
      <trkpt lat="43.263336" lon="-5.126672">
        <ele>183.0</ele>
        <time>2020-11-01T13:47:17Z</time>
      </trkpt>
      <trkpt lat="43.263336" lon="-5.1266747">
        <ele>183.0</ele>
        <time>2020-11-01T13:47:18Z</time>
      </trkpt>
      <trkpt lat="43.26333" lon="-5.126677">
        <ele>183.0</ele>
        <time>2020-11-01T13:47:19Z</time>
      </trkpt>
      <trkpt lat="43.263325" lon="-5.126677">
        <ele>183.0</ele>
        <time>2020-11-01T13:47:20Z</time>
      </trkpt>
      <trkpt lat="43.26332" lon="-5.126677">
        <ele>183.0</ele>
        <time>2020-11-01T13:47:21Z</time>
      </trkpt>
      <trkpt lat="43.263313" lon="-5.1266737">
        <ele>183.0</ele>
        <time>2020-11-01T13:47:22Z</time>
      </trkpt>
      <trkpt lat="43.263313" lon="-5.126667">
        <ele>183.0</ele>
        <time>2020-11-01T13:47:23Z</time>
      </trkpt>
      <trkpt lat="43.26331" lon="-5.1266575">
        <ele>183.0</ele>
        <time>2020-11-01T13:47:24Z</time>
      </trkpt>
      <trkpt lat="43.263336" lon="-5.1266212">
        <ele>183.0</ele>
        <time>2020-11-01T13:47:26Z</time>
      </trkpt>
      <trkpt lat="43.263336" lon="-5.126622">
        <ele>183.0</ele>
        <time>2020-11-01T13:47:27Z</time>
      </trkpt>
      <trkpt lat="43.26334" lon="-5.1266184">
        <ele>183.0</ele>
        <time>2020-11-01T13:47:28Z</time>
      </trkpt>
      <trkpt lat="43.26335" lon="-5.1266127">
        <ele>183.0</ele>
        <time>2020-11-01T13:47:29Z</time>
      </trkpt>
      <trkpt lat="43.263367" lon="-5.126609">
        <ele>183.0</ele>
        <time>2020-11-01T13:47:30Z</time>
      </trkpt>
      <trkpt lat="43.263374" lon="-5.1266055">
        <ele>183.0</ele>
        <time>2020-11-01T13:47:31Z</time>
      </trkpt>
      <trkpt lat="43.26339" lon="-5.126607">
        <ele>185.0</ele>
        <time>2020-11-01T13:47:33Z</time>
      </trkpt>
      <trkpt lat="43.2634" lon="-5.1266103">
        <ele>185.0</ele>
        <time>2020-11-01T13:47:33Z</time>
      </trkpt>
      <trkpt lat="43.263405" lon="-5.1266136">
        <ele>185.0</ele>
        <time>2020-11-01T13:47:34Z</time>
      </trkpt>
      <trkpt lat="43.263412" lon="-5.126613">
        <ele>185.0</ele>
        <time>2020-11-01T13:47:35Z</time>
      </trkpt>
      <trkpt lat="43.263416" lon="-5.1266117">
        <ele>185.0</ele>
        <time>2020-11-01T13:47:36Z</time>
      </trkpt>
      <trkpt lat="43.263416" lon="-5.1266103">
        <ele>185.0</ele>
        <time>2020-11-01T13:47:37Z</time>
      </trkpt>
      <trkpt lat="43.26349" lon="-5.1266117">
        <ele>185.0</ele>
        <time>2020-11-01T13:47:41Z</time>
      </trkpt>
      <trkpt lat="43.26349" lon="-5.1266108">
        <ele>185.0</ele>
        <time>2020-11-01T13:47:42Z</time>
      </trkpt>
      <trkpt lat="43.263493" lon="-5.126609">
        <ele>185.0</ele>
        <time>2020-11-01T13:47:43Z</time>
      </trkpt>
      <trkpt lat="43.263493" lon="-5.1266055">
        <ele>185.0</ele>
        <time>2020-11-01T13:47:44Z</time>
      </trkpt>
      <trkpt lat="43.263496" lon="-5.1266026">
        <ele>185.0</ele>
        <time>2020-11-01T13:47:45Z</time>
      </trkpt>
      <trkpt lat="43.263496" lon="-5.1266">
        <ele>185.0</ele>
        <time>2020-11-01T13:47:46Z</time>
      </trkpt>
      <trkpt lat="43.263496" lon="-5.126597">
        <ele>185.0</ele>
        <time>2020-11-01T13:47:47Z</time>
      </trkpt>
      <trkpt lat="43.263496" lon="-5.1265936">
        <ele>185.0</ele>
        <time>2020-11-01T13:47:48Z</time>
      </trkpt>
      <trkpt lat="43.263504" lon="-5.1265903">
        <ele>185.0</ele>
        <time>2020-11-01T13:47:49Z</time>
      </trkpt>
      <trkpt lat="43.263508" lon="-5.126588">
        <ele>185.0</ele>
        <time>2020-11-01T13:47:51Z</time>
      </trkpt>
      <trkpt lat="43.263515" lon="-5.126588">
        <ele>185.0</ele>
        <time>2020-11-01T13:47:51Z</time>
      </trkpt>
      <trkpt lat="43.263523" lon="-5.12659">
        <ele>185.0</ele>
        <time>2020-11-01T13:47:52Z</time>
      </trkpt>
      <trkpt lat="43.263535" lon="-5.1265936">
        <ele>185.0</ele>
        <time>2020-11-01T13:47:53Z</time>
      </trkpt>
      <trkpt lat="43.263546" lon="-5.126598">
        <ele>185.0</ele>
        <time>2020-11-01T13:47:54Z</time>
      </trkpt>
      <trkpt lat="43.263554" lon="-5.126602">
        <ele>185.0</ele>
        <time>2020-11-01T13:47:55Z</time>
      </trkpt>
      <trkpt lat="43.26356" lon="-5.126607">
        <ele>185.0</ele>
        <time>2020-11-01T13:47:56Z</time>
      </trkpt>
      <trkpt lat="43.263565" lon="-5.12661">
        <ele>185.0</ele>
        <time>2020-11-01T13:47:57Z</time>
      </trkpt>
      <trkpt lat="43.26357" lon="-5.1266108">
        <ele>185.0</ele>
        <time>2020-11-01T13:47:59Z</time>
      </trkpt>
      <trkpt lat="43.26358" lon="-5.126611">
        <ele>185.0</ele>
        <time>2020-11-01T13:47:59Z</time>
      </trkpt>
      <trkpt lat="43.26358" lon="-5.1266103">
        <ele>185.0</ele>
        <time>2020-11-01T13:48:00Z</time>
      </trkpt>
      <trkpt lat="43.26358" lon="-5.126609">
        <ele>185.0</ele>
        <time>2020-11-01T13:48:01Z</time>
      </trkpt>
      <trkpt lat="43.26358" lon="-5.126607">
        <ele>185.0</ele>
        <time>2020-11-01T13:48:02Z</time>
      </trkpt>
      <trkpt lat="43.263577" lon="-5.126605">
        <ele>185.0</ele>
        <time>2020-11-01T13:48:03Z</time>
      </trkpt>
      <trkpt lat="43.263577" lon="-5.126607">
        <ele>185.0</ele>
        <time>2020-11-01T13:48:05Z</time>
      </trkpt>
      <trkpt lat="43.26358" lon="-5.126609">
        <ele>185.0</ele>
        <time>2020-11-01T13:48:06Z</time>
      </trkpt>
      <trkpt lat="43.263584" lon="-5.1266146">
        <ele>185.0</ele>
        <time>2020-11-01T13:48:07Z</time>
      </trkpt>
      <trkpt lat="43.263596" lon="-5.126622">
        <ele>185.0</ele>
        <time>2020-11-01T13:48:08Z</time>
      </trkpt>
      <trkpt lat="43.263607" lon="-5.126629">
        <ele>185.0</ele>
        <time>2020-11-01T13:48:09Z</time>
      </trkpt>
      <trkpt lat="43.263615" lon="-5.1266356">
        <ele>185.0</ele>
        <time>2020-11-01T13:48:10Z</time>
      </trkpt>
      <trkpt lat="43.263622" lon="-5.126645">
        <ele>185.0</ele>
        <time>2020-11-01T13:48:11Z</time>
      </trkpt>
      <trkpt lat="43.263626" lon="-5.1266584">
        <ele>185.0</ele>
        <time>2020-11-01T13:48:12Z</time>
      </trkpt>
      <trkpt lat="43.26363" lon="-5.126672">
        <ele>185.0</ele>
        <time>2020-11-01T13:48:13Z</time>
      </trkpt>
      <trkpt lat="43.263638" lon="-5.1266847">
        <ele>185.0</ele>
        <time>2020-11-01T13:48:14Z</time>
      </trkpt>
      <trkpt lat="43.263645" lon="-5.1266956">
        <ele>185.0</ele>
        <time>2020-11-01T13:48:15Z</time>
      </trkpt>
      <trkpt lat="43.263653" lon="-5.126705">
        <ele>185.0</ele>
        <time>2020-11-01T13:48:16Z</time>
      </trkpt>
      <trkpt lat="43.263653" lon="-5.1267138">
        <ele>185.0</ele>
        <time>2020-11-01T13:48:17Z</time>
      </trkpt>
      <trkpt lat="43.263657" lon="-5.126723">
        <ele>185.0</ele>
        <time>2020-11-01T13:48:18Z</time>
      </trkpt>
      <trkpt lat="43.263657" lon="-5.1267314">
        <ele>185.0</ele>
        <time>2020-11-01T13:48:19Z</time>
      </trkpt>
      <trkpt lat="43.26366" lon="-5.126737">
        <ele>185.0</ele>
        <time>2020-11-01T13:48:20Z</time>
      </trkpt>
      <trkpt lat="43.263668" lon="-5.126741">
        <ele>185.0</ele>
        <time>2020-11-01T13:48:22Z</time>
      </trkpt>
      <trkpt lat="43.263676" lon="-5.126741">
        <ele>185.0</ele>
        <time>2020-11-01T13:48:22Z</time>
      </trkpt>
      <trkpt lat="43.263687" lon="-5.12674">
        <ele>185.0</ele>
        <time>2020-11-01T13:48:23Z</time>
      </trkpt>
      <trkpt lat="43.2637" lon="-5.1267405">
        <ele>185.0</ele>
        <time>2020-11-01T13:48:24Z</time>
      </trkpt>
      <trkpt lat="43.26371" lon="-5.126742">
        <ele>185.0</ele>
        <time>2020-11-01T13:48:25Z</time>
      </trkpt>
      <trkpt lat="43.263725" lon="-5.1267405">
        <ele>185.0</ele>
        <time>2020-11-01T13:48:26Z</time>
      </trkpt>
      <trkpt lat="43.26374" lon="-5.126737">
        <ele>185.0</ele>
        <time>2020-11-01T13:48:27Z</time>
      </trkpt>
      <trkpt lat="43.26375" lon="-5.1267343">
        <ele>185.0</ele>
        <time>2020-11-01T13:48:28Z</time>
      </trkpt>
      <trkpt lat="43.26377" lon="-5.1267323">
        <ele>185.0</ele>
        <time>2020-11-01T13:48:30Z</time>
      </trkpt>
      <trkpt lat="43.26378" lon="-5.126732">
        <ele>185.0</ele>
        <time>2020-11-01T13:48:30Z</time>
      </trkpt>
      <trkpt lat="43.263794" lon="-5.1267295">
        <ele>185.0</ele>
        <time>2020-11-01T13:48:31Z</time>
      </trkpt>
      <trkpt lat="43.263805" lon="-5.1267323">
        <ele>185.0</ele>
        <time>2020-11-01T13:48:32Z</time>
      </trkpt>
      <trkpt lat="43.263824" lon="-5.126738">
        <ele>184.0</ele>
        <time>2020-11-01T13:48:33Z</time>
      </trkpt>
      <trkpt lat="43.26384" lon="-5.1267424">
        <ele>184.0</ele>
        <time>2020-11-01T13:48:34Z</time>
      </trkpt>
      <trkpt lat="43.26385" lon="-5.126743">
        <ele>184.0</ele>
        <time>2020-11-01T13:48:35Z</time>
      </trkpt>
      <trkpt lat="43.263863" lon="-5.126743">
        <ele>184.0</ele>
        <time>2020-11-01T13:48:36Z</time>
      </trkpt>
      <trkpt lat="43.263866" lon="-5.1267414">
        <ele>184.0</ele>
        <time>2020-11-01T13:48:37Z</time>
      </trkpt>
      <trkpt lat="43.263885" lon="-5.12674">
        <ele>184.0</ele>
        <time>2020-11-01T13:48:38Z</time>
      </trkpt>
      <trkpt lat="43.263897" lon="-5.126737">
        <ele>184.0</ele>
        <time>2020-11-01T13:48:39Z</time>
      </trkpt>
      <trkpt lat="43.263905" lon="-5.12674">
        <ele>184.0</ele>
        <time>2020-11-01T13:48:40Z</time>
      </trkpt>
      <trkpt lat="43.263905" lon="-5.12675">
        <ele>184.0</ele>
        <time>2020-11-01T13:48:41Z</time>
      </trkpt>
      <trkpt lat="43.263912" lon="-5.1267676">
        <ele>184.0</ele>
        <time>2020-11-01T13:48:42Z</time>
      </trkpt>
      <trkpt lat="43.263924" lon="-5.1267905">
        <ele>184.0</ele>
        <time>2020-11-01T13:48:43Z</time>
      </trkpt>
      <trkpt lat="43.26394" lon="-5.126818">
        <ele>184.0</ele>
        <time>2020-11-01T13:48:44Z</time>
      </trkpt>
      <trkpt lat="43.263954" lon="-5.1268444">
        <ele>184.0</ele>
        <time>2020-11-01T13:48:45Z</time>
      </trkpt>
      <trkpt lat="43.263966" lon="-5.1268644">
        <ele>184.0</ele>
        <time>2020-11-01T13:48:46Z</time>
      </trkpt>
      <trkpt lat="43.263973" lon="-5.1268773">
        <ele>184.0</ele>
        <time>2020-11-01T13:48:47Z</time>
      </trkpt>
      <trkpt lat="43.26398" lon="-5.126884">
        <ele>184.0</ele>
        <time>2020-11-01T13:48:48Z</time>
      </trkpt>
      <trkpt lat="43.26399" lon="-5.126887">
        <ele>184.0</ele>
        <time>2020-11-01T13:48:49Z</time>
      </trkpt>
      <trkpt lat="43.264004" lon="-5.12689">
        <ele>184.0</ele>
        <time>2020-11-01T13:48:50Z</time>
      </trkpt>
      <trkpt lat="43.264015" lon="-5.126894">
        <ele>184.0</ele>
        <time>2020-11-01T13:48:51Z</time>
      </trkpt>
      <trkpt lat="43.26403" lon="-5.126902">
        <ele>184.0</ele>
        <time>2020-11-01T13:48:52Z</time>
      </trkpt>
      <trkpt lat="43.26404" lon="-5.1269093">
        <ele>184.0</ele>
        <time>2020-11-01T13:48:53Z</time>
      </trkpt>
      <trkpt lat="43.26405" lon="-5.1269145">
        <ele>184.0</ele>
        <time>2020-11-01T13:48:54Z</time>
      </trkpt>
      <trkpt lat="43.26406" lon="-5.1269197">
        <ele>184.0</ele>
        <time>2020-11-01T13:48:55Z</time>
      </trkpt>
      <trkpt lat="43.264072" lon="-5.126925">
        <ele>184.0</ele>
        <time>2020-11-01T13:48:56Z</time>
      </trkpt>
      <trkpt lat="43.264072" lon="-5.126927">
        <ele>184.0</ele>
        <time>2020-11-01T13:48:57Z</time>
      </trkpt>
      <trkpt lat="43.264072" lon="-5.1269255">
        <ele>184.0</ele>
        <time>2020-11-01T13:48:58Z</time>
      </trkpt>
      <trkpt lat="43.264072" lon="-5.12692">
        <ele>184.0</ele>
        <time>2020-11-01T13:48:59Z</time>
      </trkpt>
      <trkpt lat="43.264065" lon="-5.126914">
        <ele>184.0</ele>
        <time>2020-11-01T13:49:00Z</time>
      </trkpt>
      <trkpt lat="43.264065" lon="-5.1269064">
        <ele>184.0</ele>
        <time>2020-11-01T13:49:01Z</time>
      </trkpt>
      <trkpt lat="43.264072" lon="-5.1269026">
        <ele>184.0</ele>
        <time>2020-11-01T13:49:02Z</time>
      </trkpt>
      <trkpt lat="43.264088" lon="-5.1269007">
        <ele>184.0</ele>
        <time>2020-11-01T13:49:03Z</time>
      </trkpt>
      <trkpt lat="43.264114" lon="-5.126898">
        <ele>184.0</ele>
        <time>2020-11-01T13:49:04Z</time>
      </trkpt>
      <trkpt lat="43.264133" lon="-5.1268907">
        <ele>184.0</ele>
        <time>2020-11-01T13:49:05Z</time>
      </trkpt>
      <trkpt lat="43.26415" lon="-5.126885">
        <ele>184.0</ele>
        <time>2020-11-01T13:49:06Z</time>
      </trkpt>
      <trkpt lat="43.26416" lon="-5.126879">
        <ele>184.0</ele>
        <time>2020-11-01T13:49:07Z</time>
      </trkpt>
      <trkpt lat="43.264164" lon="-5.1268744">
        <ele>184.0</ele>
        <time>2020-11-01T13:49:08Z</time>
      </trkpt>
      <trkpt lat="43.264164" lon="-5.126871">
        <ele>186.0</ele>
        <time>2020-11-01T13:49:09Z</time>
      </trkpt>
      <trkpt lat="43.264168" lon="-5.1268716">
        <ele>186.0</ele>
        <time>2020-11-01T13:49:10Z</time>
      </trkpt>
      <trkpt lat="43.264164" lon="-5.126869">
        <ele>186.0</ele>
        <time>2020-11-01T13:49:11Z</time>
      </trkpt>
      <trkpt lat="43.264164" lon="-5.1268644">
        <ele>186.0</ele>
        <time>2020-11-01T13:49:12Z</time>
      </trkpt>
      <trkpt lat="43.264168" lon="-5.126857">
        <ele>186.0</ele>
        <time>2020-11-01T13:49:13Z</time>
      </trkpt>
      <trkpt lat="43.26418" lon="-5.126849">
        <ele>186.0</ele>
        <time>2020-11-01T13:49:14Z</time>
      </trkpt>
      <trkpt lat="43.264183" lon="-5.126842">
        <ele>186.0</ele>
        <time>2020-11-01T13:49:15Z</time>
      </trkpt>
      <trkpt lat="43.26419" lon="-5.126841">
        <ele>186.0</ele>
        <time>2020-11-01T13:49:16Z</time>
      </trkpt>
      <trkpt lat="43.264183" lon="-5.1268415">
        <ele>186.0</ele>
        <time>2020-11-01T13:49:17Z</time>
      </trkpt>
      <trkpt lat="43.264175" lon="-5.126843">
        <ele>186.0</ele>
        <time>2020-11-01T13:49:18Z</time>
      </trkpt>
      <trkpt lat="43.264175" lon="-5.126845">
        <ele>186.0</ele>
        <time>2020-11-01T13:49:19Z</time>
      </trkpt>
      <trkpt lat="43.264175" lon="-5.12685">
        <ele>186.0</ele>
        <time>2020-11-01T13:49:20Z</time>
      </trkpt>
      <trkpt lat="43.26418" lon="-5.126857">
        <ele>186.0</ele>
        <time>2020-11-01T13:49:21Z</time>
      </trkpt>
      <trkpt lat="43.26419" lon="-5.1268625">
        <ele>186.0</ele>
        <time>2020-11-01T13:49:22Z</time>
      </trkpt>
      <trkpt lat="43.2642" lon="-5.1268682">
        <ele>186.0</ele>
        <time>2020-11-01T13:49:23Z</time>
      </trkpt>
      <trkpt lat="43.264214" lon="-5.126872">
        <ele>186.0</ele>
        <time>2020-11-01T13:49:24Z</time>
      </trkpt>
      <trkpt lat="43.264225" lon="-5.1268735">
        <ele>186.0</ele>
        <time>2020-11-01T13:49:25Z</time>
      </trkpt>
      <trkpt lat="43.264236" lon="-5.1268725">
        <ele>186.0</ele>
        <time>2020-11-01T13:49:26Z</time>
      </trkpt>
      <trkpt lat="43.264244" lon="-5.126869">
        <ele>186.0</ele>
        <time>2020-11-01T13:49:27Z</time>
      </trkpt>
      <trkpt lat="43.26425" lon="-5.126864">
        <ele>186.0</ele>
        <time>2020-11-01T13:49:28Z</time>
      </trkpt>
      <trkpt lat="43.264256" lon="-5.12686">
        <ele>186.0</ele>
        <time>2020-11-01T13:49:29Z</time>
      </trkpt>
      <trkpt lat="43.26426" lon="-5.126856">
        <ele>186.0</ele>
        <time>2020-11-01T13:49:30Z</time>
      </trkpt>
      <trkpt lat="43.264267" lon="-5.1268535">
        <ele>186.0</ele>
        <time>2020-11-01T13:49:31Z</time>
      </trkpt>
      <trkpt lat="43.26427" lon="-5.1268516">
        <ele>186.0</ele>
        <time>2020-11-01T13:49:32Z</time>
      </trkpt>
      <trkpt lat="43.264282" lon="-5.1268525">
        <ele>186.0</ele>
        <time>2020-11-01T13:49:33Z</time>
      </trkpt>
      <trkpt lat="43.264294" lon="-5.126856">
        <ele>186.0</ele>
        <time>2020-11-01T13:49:34Z</time>
      </trkpt>
      <trkpt lat="43.2643" lon="-5.1268597">
        <ele>186.0</ele>
        <time>2020-11-01T13:49:35Z</time>
      </trkpt>
      <trkpt lat="43.26431" lon="-5.126861">
        <ele>186.0</ele>
        <time>2020-11-01T13:49:36Z</time>
      </trkpt>
      <trkpt lat="43.264313" lon="-5.1268597">
        <ele>186.0</ele>
        <time>2020-11-01T13:49:37Z</time>
      </trkpt>
      <trkpt lat="43.264317" lon="-5.1268578">
        <ele>186.0</ele>
        <time>2020-11-01T13:49:38Z</time>
      </trkpt>
      <trkpt lat="43.264317" lon="-5.126854">
        <ele>186.0</ele>
        <time>2020-11-01T13:49:39Z</time>
      </trkpt>
      <trkpt lat="43.26433" lon="-5.126852">
        <ele>186.0</ele>
        <time>2020-11-01T13:49:40Z</time>
      </trkpt>
      <trkpt lat="43.264347" lon="-5.126854">
        <ele>186.0</ele>
        <time>2020-11-01T13:49:41Z</time>
      </trkpt>
      <trkpt lat="43.26437" lon="-5.126859">
        <ele>186.0</ele>
        <time>2020-11-01T13:49:42Z</time>
      </trkpt>
      <trkpt lat="43.264385" lon="-5.1268654">
        <ele>186.0</ele>
        <time>2020-11-01T13:49:43Z</time>
      </trkpt>
      <trkpt lat="43.264393" lon="-5.12687">
        <ele>186.0</ele>
        <time>2020-11-01T13:49:44Z</time>
      </trkpt>
      <trkpt lat="43.2644" lon="-5.1268716">
        <ele>186.0</ele>
        <time>2020-11-01T13:49:46Z</time>
      </trkpt>
      <trkpt lat="43.264404" lon="-5.1268754">
        <ele>186.0</ele>
        <time>2020-11-01T13:49:46Z</time>
      </trkpt>
      <trkpt lat="43.264416" lon="-5.12688">
        <ele>186.0</ele>
        <time>2020-11-01T13:49:47Z</time>
      </trkpt>
      <trkpt lat="43.26442" lon="-5.1268873">
        <ele>186.0</ele>
        <time>2020-11-01T13:49:48Z</time>
      </trkpt>
      <trkpt lat="43.264423" lon="-5.1268916">
        <ele>186.0</ele>
        <time>2020-11-01T13:49:49Z</time>
      </trkpt>
      <trkpt lat="43.264435" lon="-5.126897">
        <ele>186.0</ele>
        <time>2020-11-01T13:49:50Z</time>
      </trkpt>
      <trkpt lat="43.264446" lon="-5.1269026">
        <ele>186.0</ele>
        <time>2020-11-01T13:49:51Z</time>
      </trkpt>
      <trkpt lat="43.26445" lon="-5.1269097">
        <ele>186.0</ele>
        <time>2020-11-01T13:49:52Z</time>
      </trkpt>
      <trkpt lat="43.26446" lon="-5.126917">
        <ele>186.0</ele>
        <time>2020-11-01T13:49:53Z</time>
      </trkpt>
      <trkpt lat="43.264477" lon="-5.126927">
        <ele>186.0</ele>
        <time>2020-11-01T13:49:54Z</time>
      </trkpt>
      <trkpt lat="43.264496" lon="-5.1269364">
        <ele>186.0</ele>
        <time>2020-11-01T13:49:55Z</time>
      </trkpt>
      <trkpt lat="43.26451" lon="-5.1269484">
        <ele>186.0</ele>
        <time>2020-11-01T13:49:56Z</time>
      </trkpt>
      <trkpt lat="43.264534" lon="-5.1269627">
        <ele>186.0</ele>
        <time>2020-11-01T13:49:57Z</time>
      </trkpt>
      <trkpt lat="43.26454" lon="-5.1269755">
        <ele>186.0</ele>
        <time>2020-11-01T13:49:58Z</time>
      </trkpt>
      <trkpt lat="43.264538" lon="-5.126987">
        <ele>186.0</ele>
        <time>2020-11-01T13:49:59Z</time>
      </trkpt>
      <trkpt lat="43.26454" lon="-5.127003">
        <ele>186.0</ele>
        <time>2020-11-01T13:50:01Z</time>
      </trkpt>
      <trkpt lat="43.26454" lon="-5.1270013">
        <ele>186.0</ele>
        <time>2020-11-01T13:50:02Z</time>
      </trkpt>
      <trkpt lat="43.26455" lon="-5.1269994">
        <ele>186.0</ele>
        <time>2020-11-01T13:50:03Z</time>
      </trkpt>
      <trkpt lat="43.26455" lon="-5.1269975">
        <ele>186.0</ele>
        <time>2020-11-01T13:50:04Z</time>
      </trkpt>
      <trkpt lat="43.26455" lon="-5.1269937">
        <ele>186.0</ele>
        <time>2020-11-01T13:50:05Z</time>
      </trkpt>
      <trkpt lat="43.26455" lon="-5.126994">
        <ele>186.0</ele>
        <time>2020-11-01T13:50:06Z</time>
      </trkpt>
      <trkpt lat="43.264557" lon="-5.126997">
        <ele>186.0</ele>
        <time>2020-11-01T13:50:07Z</time>
      </trkpt>
      <trkpt lat="43.26457" lon="-5.127002">
        <ele>186.0</ele>
        <time>2020-11-01T13:50:08Z</time>
      </trkpt>
      <trkpt lat="43.264572" lon="-5.1270084">
        <ele>186.0</ele>
        <time>2020-11-01T13:50:09Z</time>
      </trkpt>
      <trkpt lat="43.26458" lon="-5.1270156">
        <ele>186.0</ele>
        <time>2020-11-01T13:50:10Z</time>
      </trkpt>
      <trkpt lat="43.264584" lon="-5.127025">
        <ele>186.0</ele>
        <time>2020-11-01T13:50:11Z</time>
      </trkpt>
      <trkpt lat="43.264584" lon="-5.1270337">
        <ele>186.0</ele>
        <time>2020-11-01T13:50:12Z</time>
      </trkpt>
      <trkpt lat="43.264587" lon="-5.127043">
        <ele>186.0</ele>
        <time>2020-11-01T13:50:13Z</time>
      </trkpt>
      <trkpt lat="43.264587" lon="-5.1270514">
        <ele>186.0</ele>
        <time>2020-11-01T13:50:14Z</time>
      </trkpt>
      <trkpt lat="43.264595" lon="-5.12706">
        <ele>186.0</ele>
        <time>2020-11-01T13:50:15Z</time>
      </trkpt>
      <trkpt lat="43.264595" lon="-5.127066">
        <ele>186.0</ele>
        <time>2020-11-01T13:50:16Z</time>
      </trkpt>
      <trkpt lat="43.264595" lon="-5.127072">
        <ele>186.0</ele>
        <time>2020-11-01T13:50:17Z</time>
      </trkpt>
      <trkpt lat="43.2646" lon="-5.1270766">
        <ele>186.0</ele>
        <time>2020-11-01T13:50:18Z</time>
      </trkpt>
      <trkpt lat="43.2646" lon="-5.127082">
        <ele>186.0</ele>
        <time>2020-11-01T13:50:19Z</time>
      </trkpt>
      <trkpt lat="43.264603" lon="-5.1270895">
        <ele>186.0</ele>
        <time>2020-11-01T13:50:20Z</time>
      </trkpt>
      <trkpt lat="43.264614" lon="-5.127101">
        <ele>186.0</ele>
        <time>2020-11-01T13:50:21Z</time>
      </trkpt>
      <trkpt lat="43.264626" lon="-5.12712">
        <ele>186.0</ele>
        <time>2020-11-01T13:50:22Z</time>
      </trkpt>
      <trkpt lat="43.26463" lon="-5.127139">
        <ele>186.0</ele>
        <time>2020-11-01T13:50:23Z</time>
      </trkpt>
      <trkpt lat="43.264633" lon="-5.127158">
        <ele>186.0</ele>
        <time>2020-11-01T13:50:24Z</time>
      </trkpt>
      <trkpt lat="43.26464" lon="-5.127175">
        <ele>186.0</ele>
        <time>2020-11-01T13:50:25Z</time>
      </trkpt>
      <trkpt lat="43.26464" lon="-5.1271844">
        <ele>186.0</ele>
        <time>2020-11-01T13:50:26Z</time>
      </trkpt>
      <trkpt lat="43.26464" lon="-5.12719">
        <ele>186.0</ele>
        <time>2020-11-01T13:50:27Z</time>
      </trkpt>
      <trkpt lat="43.264656" lon="-5.127203">
        <ele>186.0</ele>
        <time>2020-11-01T13:50:29Z</time>
      </trkpt>
      <trkpt lat="43.264656" lon="-5.127204">
        <ele>186.0</ele>
        <time>2020-11-01T13:50:30Z</time>
      </trkpt>
      <trkpt lat="43.26466" lon="-5.127205">
        <ele>186.0</ele>
        <time>2020-11-01T13:50:31Z</time>
      </trkpt>
      <trkpt lat="43.26466" lon="-5.127205">
        <ele>186.0</ele>
        <time>2020-11-01T13:50:32Z</time>
      </trkpt>
      <trkpt lat="43.264664" lon="-5.127205">
        <ele>186.0</ele>
        <time>2020-11-01T13:50:34Z</time>
      </trkpt>
      <trkpt lat="43.264675" lon="-5.127206">
        <ele>186.0</ele>
        <time>2020-11-01T13:50:34Z</time>
      </trkpt>
      <trkpt lat="43.26469" lon="-5.127206">
        <ele>186.0</ele>
        <time>2020-11-01T13:50:35Z</time>
      </trkpt>
      <trkpt lat="43.2647" lon="-5.1272097">
        <ele>186.0</ele>
        <time>2020-11-01T13:50:36Z</time>
      </trkpt>
      <trkpt lat="43.264713" lon="-5.127216">
        <ele>186.0</ele>
        <time>2020-11-01T13:50:37Z</time>
      </trkpt>
      <trkpt lat="43.26473" lon="-5.127223">
        <ele>186.0</ele>
        <time>2020-11-01T13:50:38Z</time>
      </trkpt>
      <trkpt lat="43.264744" lon="-5.1272273">
        <ele>186.0</ele>
        <time>2020-11-01T13:50:39Z</time>
      </trkpt>
      <trkpt lat="43.26476" lon="-5.1272287">
        <ele>186.0</ele>
        <time>2020-11-01T13:50:40Z</time>
      </trkpt>
      <trkpt lat="43.264767" lon="-5.127227">
        <ele>186.0</ele>
        <time>2020-11-01T13:50:42Z</time>
      </trkpt>
      <trkpt lat="43.264774" lon="-5.1272254">
        <ele>186.0</ele>
        <time>2020-11-01T13:50:42Z</time>
      </trkpt>
      <trkpt lat="43.264774" lon="-5.127229">
        <ele>186.0</ele>
        <time>2020-11-01T13:50:43Z</time>
      </trkpt>
      <trkpt lat="43.264767" lon="-5.127235">
        <ele>186.0</ele>
        <time>2020-11-01T13:50:44Z</time>
      </trkpt>
      <trkpt lat="43.264767" lon="-5.1272383">
        <ele>186.0</ele>
        <time>2020-11-01T13:50:45Z</time>
      </trkpt>
      <trkpt lat="43.264763" lon="-5.127239">
        <ele>186.0</ele>
        <time>2020-11-01T13:50:46Z</time>
      </trkpt>
      <trkpt lat="43.264763" lon="-5.12724">
        <ele>186.0</ele>
        <time>2020-11-01T13:50:47Z</time>
      </trkpt>
      <trkpt lat="43.264763" lon="-5.127244">
        <ele>186.0</ele>
        <time>2020-11-01T13:50:48Z</time>
      </trkpt>
      <trkpt lat="43.264763" lon="-5.1272526">
        <ele>187.0</ele>
        <time>2020-11-01T13:50:49Z</time>
      </trkpt>
      <trkpt lat="43.264763" lon="-5.1272635">
        <ele>187.0</ele>
        <time>2020-11-01T13:50:50Z</time>
      </trkpt>
      <trkpt lat="43.264767" lon="-5.127275">
        <ele>187.0</ele>
        <time>2020-11-01T13:50:51Z</time>
      </trkpt>
      <trkpt lat="43.264782" lon="-5.127288">
        <ele>187.0</ele>
        <time>2020-11-01T13:50:51Z</time>
      </trkpt>
      <trkpt lat="43.26479" lon="-5.1272964">
        <ele>187.0</ele>
        <time>2020-11-01T13:50:52Z</time>
      </trkpt>
      <trkpt lat="43.264793" lon="-5.1272993">
        <ele>187.0</ele>
        <time>2020-11-01T13:50:53Z</time>
      </trkpt>
      <trkpt lat="43.264797" lon="-5.127299">
        <ele>187.0</ele>
        <time>2020-11-01T13:50:54Z</time>
      </trkpt>
      <trkpt lat="43.264805" lon="-5.127298">
        <ele>187.0</ele>
        <time>2020-11-01T13:50:56Z</time>
      </trkpt>
      <trkpt lat="43.264812" lon="-5.1272984">
        <ele>187.0</ele>
        <time>2020-11-01T13:50:56Z</time>
      </trkpt>
      <trkpt lat="43.26482" lon="-5.1272993">
        <ele>187.0</ele>
        <time>2020-11-01T13:50:57Z</time>
      </trkpt>
      <trkpt lat="43.26482" lon="-5.127299">
        <ele>187.0</ele>
        <time>2020-11-01T13:50:58Z</time>
      </trkpt>
      <trkpt lat="43.26482" lon="-5.1272964">
        <ele>187.0</ele>
        <time>2020-11-01T13:50:59Z</time>
      </trkpt>
      <trkpt lat="43.26482" lon="-5.1272936">
        <ele>187.0</ele>
        <time>2020-11-01T13:51:00Z</time>
      </trkpt>
      <trkpt lat="43.264824" lon="-5.127295">
        <ele>187.0</ele>
        <time>2020-11-01T13:51:01Z</time>
      </trkpt>
      <trkpt lat="43.264828" lon="-5.1272984">
        <ele>187.0</ele>
        <time>2020-11-01T13:51:02Z</time>
      </trkpt>
      <trkpt lat="43.264835" lon="-5.1273046">
        <ele>187.0</ele>
        <time>2020-11-01T13:51:03Z</time>
      </trkpt>
      <trkpt lat="43.26484" lon="-5.1273165">
        <ele>187.0</ele>
        <time>2020-11-01T13:51:04Z</time>
      </trkpt>
      <trkpt lat="43.264843" lon="-5.1273327">
        <ele>187.0</ele>
        <time>2020-11-01T13:51:05Z</time>
      </trkpt>
      <trkpt lat="43.264854" lon="-5.127349">
        <ele>187.0</ele>
        <time>2020-11-01T13:51:06Z</time>
      </trkpt>
      <trkpt lat="43.264862" lon="-5.12736">
        <ele>187.0</ele>
        <time>2020-11-01T13:51:07Z</time>
      </trkpt>
      <trkpt lat="43.26487" lon="-5.1273675">
        <ele>187.0</ele>
        <time>2020-11-01T13:51:08Z</time>
      </trkpt>
      <trkpt lat="43.26488" lon="-5.127372">
        <ele>187.0</ele>
        <time>2020-11-01T13:51:09Z</time>
      </trkpt>
      <trkpt lat="43.264893" lon="-5.127374">
        <ele>187.0</ele>
        <time>2020-11-01T13:51:10Z</time>
      </trkpt>
      <trkpt lat="43.264896" lon="-5.1273775">
        <ele>187.0</ele>
        <time>2020-11-01T13:51:11Z</time>
      </trkpt>
      <trkpt lat="43.26491" lon="-5.1273823">
        <ele>187.0</ele>
        <time>2020-11-01T13:51:12Z</time>
      </trkpt>
      <trkpt lat="43.264923" lon="-5.127388">
        <ele>187.0</ele>
        <time>2020-11-01T13:51:13Z</time>
      </trkpt>
      <trkpt lat="43.26493" lon="-5.127395">
        <ele>187.0</ele>
        <time>2020-11-01T13:51:14Z</time>
      </trkpt>
      <trkpt lat="43.26494" lon="-5.127402">
        <ele>188.0</ele>
        <time>2020-11-01T13:51:15Z</time>
      </trkpt>
      <trkpt lat="43.264946" lon="-5.1274085">
        <ele>188.0</ele>
        <time>2020-11-01T13:51:16Z</time>
      </trkpt>
      <trkpt lat="43.264957" lon="-5.127415">
        <ele>188.0</ele>
        <time>2020-11-01T13:51:17Z</time>
      </trkpt>
      <trkpt lat="43.26496" lon="-5.127422">
        <ele>188.0</ele>
        <time>2020-11-01T13:51:18Z</time>
      </trkpt>
      <trkpt lat="43.264973" lon="-5.127437">
        <ele>188.0</ele>
        <time>2020-11-01T13:51:19Z</time>
      </trkpt>
      <trkpt lat="43.264973" lon="-5.127457">
        <ele>188.0</ele>
        <time>2020-11-01T13:51:20Z</time>
      </trkpt>
      <trkpt lat="43.264973" lon="-5.1274805">
        <ele>188.0</ele>
        <time>2020-11-01T13:51:21Z</time>
      </trkpt>
      <trkpt lat="43.26497" lon="-5.1275043">
        <ele>188.0</ele>
        <time>2020-11-01T13:51:22Z</time>
      </trkpt>
      <trkpt lat="43.26496" lon="-5.12752">
        <ele>188.0</ele>
        <time>2020-11-01T13:51:23Z</time>
      </trkpt>
      <trkpt lat="43.264954" lon="-5.127561">
        <ele>188.0</ele>
        <time>2020-11-01T13:51:25Z</time>
      </trkpt>
      <trkpt lat="43.264957" lon="-5.1275616">
        <ele>188.0</ele>
        <time>2020-11-01T13:51:26Z</time>
      </trkpt>
      <trkpt lat="43.264957" lon="-5.1275635">
        <ele>188.0</ele>
        <time>2020-11-01T13:51:27Z</time>
      </trkpt>
      <trkpt lat="43.264957" lon="-5.127565">
        <ele>188.0</ele>
        <time>2020-11-01T13:51:28Z</time>
      </trkpt>
      <trkpt lat="43.26496" lon="-5.127578">
        <ele>188.0</ele>
        <time>2020-11-01T13:51:30Z</time>
      </trkpt>
      <trkpt lat="43.26496" lon="-5.1275787">
        <ele>188.0</ele>
        <time>2020-11-01T13:51:31Z</time>
      </trkpt>
      <trkpt lat="43.26496" lon="-5.1275806">
        <ele>188.0</ele>
        <time>2020-11-01T13:51:32Z</time>
      </trkpt>
      <trkpt lat="43.264946" lon="-5.127586">
        <ele>188.0</ele>
        <time>2020-11-01T13:51:34Z</time>
      </trkpt>
      <trkpt lat="43.264946" lon="-5.127585">
        <ele>188.0</ele>
        <time>2020-11-01T13:51:35Z</time>
      </trkpt>
      <trkpt lat="43.264942" lon="-5.1275845">
        <ele>188.0</ele>
        <time>2020-11-01T13:51:36Z</time>
      </trkpt>
      <trkpt lat="43.264942" lon="-5.1275854">
        <ele>188.0</ele>
        <time>2020-11-01T13:51:37Z</time>
      </trkpt>
      <trkpt lat="43.264942" lon="-5.127589">
        <ele>188.0</ele>
        <time>2020-11-01T13:51:38Z</time>
      </trkpt>
      <trkpt lat="43.264942" lon="-5.1275935">
        <ele>188.0</ele>
        <time>2020-11-01T13:51:39Z</time>
      </trkpt>
      <trkpt lat="43.264946" lon="-5.1275983">
        <ele>188.0</ele>
        <time>2020-11-01T13:51:40Z</time>
      </trkpt>
      <trkpt lat="43.264954" lon="-5.127603">
        <ele>188.0</ele>
        <time>2020-11-01T13:51:41Z</time>
      </trkpt>
      <trkpt lat="43.264954" lon="-5.127609">
        <ele>188.0</ele>
        <time>2020-11-01T13:51:42Z</time>
      </trkpt>
      <trkpt lat="43.26496" lon="-5.1276135">
        <ele>188.0</ele>
        <time>2020-11-01T13:51:43Z</time>
      </trkpt>
      <trkpt lat="43.264946" lon="-5.127631">
        <ele>188.0</ele>
        <time>2020-11-01T13:51:45Z</time>
      </trkpt>
      <trkpt lat="43.264946" lon="-5.127631">
        <ele>190.0</ele>
        <time>2020-11-01T13:51:46Z</time>
      </trkpt>
      <trkpt lat="43.264942" lon="-5.127634">
        <ele>190.0</ele>
        <time>2020-11-01T13:51:47Z</time>
      </trkpt>
      <trkpt lat="43.26494" lon="-5.127645">
        <ele>190.0</ele>
        <time>2020-11-01T13:51:48Z</time>
      </trkpt>
      <trkpt lat="43.26493" lon="-5.1276555">
        <ele>190.0</ele>
        <time>2020-11-01T13:51:49Z</time>
      </trkpt>
      <trkpt lat="43.26494" lon="-5.1276684">
        <ele>190.0</ele>
        <time>2020-11-01T13:51:51Z</time>
      </trkpt>
      <trkpt lat="43.264942" lon="-5.12768">
        <ele>190.0</ele>
        <time>2020-11-01T13:51:51Z</time>
      </trkpt>
      <trkpt lat="43.264946" lon="-5.1276894">
        <ele>190.0</ele>
        <time>2020-11-01T13:51:52Z</time>
      </trkpt>
      <trkpt lat="43.264946" lon="-5.1276975">
        <ele>190.0</ele>
        <time>2020-11-01T13:51:53Z</time>
      </trkpt>
      <trkpt lat="43.264954" lon="-5.1277056">
        <ele>190.0</ele>
        <time>2020-11-01T13:51:54Z</time>
      </trkpt>
      <trkpt lat="43.264954" lon="-5.127713">
        <ele>190.0</ele>
        <time>2020-11-01T13:51:55Z</time>
      </trkpt>
      <trkpt lat="43.264954" lon="-5.1277204">
        <ele>190.0</ele>
        <time>2020-11-01T13:51:56Z</time>
      </trkpt>
      <trkpt lat="43.264942" lon="-5.127726">
        <ele>190.0</ele>
        <time>2020-11-01T13:51:57Z</time>
      </trkpt>
      <trkpt lat="43.26494" lon="-5.127734">
        <ele>190.0</ele>
        <time>2020-11-01T13:51:58Z</time>
      </trkpt>
      <trkpt lat="43.26494" lon="-5.127746">
        <ele>190.0</ele>
        <time>2020-11-01T13:51:59Z</time>
      </trkpt>
      <trkpt lat="43.264942" lon="-5.1277595">
        <ele>190.0</ele>
        <time>2020-11-01T13:52:00Z</time>
      </trkpt>
      <trkpt lat="43.264946" lon="-5.1277776">
        <ele>190.0</ele>
        <time>2020-11-01T13:52:01Z</time>
      </trkpt>
      <trkpt lat="43.264946" lon="-5.1277914">
        <ele>190.0</ele>
        <time>2020-11-01T13:52:02Z</time>
      </trkpt>
      <trkpt lat="43.264946" lon="-5.127817">
        <ele>190.0</ele>
        <time>2020-11-01T13:52:03Z</time>
      </trkpt>
      <trkpt lat="43.264946" lon="-5.1278377">
        <ele>190.0</ele>
        <time>2020-11-01T13:52:04Z</time>
      </trkpt>
      <trkpt lat="43.264946" lon="-5.1278496">
        <ele>190.0</ele>
        <time>2020-11-01T13:52:05Z</time>
      </trkpt>
      <trkpt lat="43.264954" lon="-5.127855">
        <ele>190.0</ele>
        <time>2020-11-01T13:52:06Z</time>
      </trkpt>
      <trkpt lat="43.264957" lon="-5.1278596">
        <ele>190.0</ele>
        <time>2020-11-01T13:52:07Z</time>
      </trkpt>
      <trkpt lat="43.264957" lon="-5.127863">
        <ele>190.0</ele>
        <time>2020-11-01T13:52:08Z</time>
      </trkpt>
      <trkpt lat="43.264957" lon="-5.1278644">
        <ele>190.0</ele>
        <time>2020-11-01T13:52:09Z</time>
      </trkpt>
      <trkpt lat="43.264957" lon="-5.127865">
        <ele>190.0</ele>
        <time>2020-11-01T13:52:10Z</time>
      </trkpt>
      <trkpt lat="43.264957" lon="-5.1278744">
        <ele>190.0</ele>
        <time>2020-11-01T13:52:12Z</time>
      </trkpt>
      <trkpt lat="43.264957" lon="-5.1278734">
        <ele>190.0</ele>
        <time>2020-11-01T13:52:13Z</time>
      </trkpt>
      <trkpt lat="43.264957" lon="-5.1278734">
        <ele>190.0</ele>
        <time>2020-11-01T13:52:14Z</time>
      </trkpt>
      <trkpt lat="43.264957" lon="-5.1278768">
        <ele>190.0</ele>
        <time>2020-11-01T13:52:15Z</time>
      </trkpt>
      <trkpt lat="43.264957" lon="-5.127883">
        <ele>190.0</ele>
        <time>2020-11-01T13:52:16Z</time>
      </trkpt>
      <trkpt lat="43.264954" lon="-5.127891">
        <ele>190.0</ele>
        <time>2020-11-01T13:52:17Z</time>
      </trkpt>
      <trkpt lat="43.264954" lon="-5.127901">
        <ele>190.0</ele>
        <time>2020-11-01T13:52:18Z</time>
      </trkpt>
      <trkpt lat="43.264954" lon="-5.1279097">
        <ele>190.0</ele>
        <time>2020-11-01T13:52:19Z</time>
      </trkpt>
      <trkpt lat="43.264957" lon="-5.127919">
        <ele>190.0</ele>
        <time>2020-11-01T13:52:20Z</time>
      </trkpt>
      <trkpt lat="43.264954" lon="-5.1279297">
        <ele>190.0</ele>
        <time>2020-11-01T13:52:21Z</time>
      </trkpt>
      <trkpt lat="43.264946" lon="-5.1279426">
        <ele>190.0</ele>
        <time>2020-11-01T13:52:22Z</time>
      </trkpt>
      <trkpt lat="43.264946" lon="-5.1279564">
        <ele>190.0</ele>
        <time>2020-11-01T13:52:23Z</time>
      </trkpt>
      <trkpt lat="43.264946" lon="-5.127971">
        <ele>190.0</ele>
        <time>2020-11-01T13:52:24Z</time>
      </trkpt>
      <trkpt lat="43.264946" lon="-5.1279807">
        <ele>190.0</ele>
        <time>2020-11-01T13:52:25Z</time>
      </trkpt>
      <trkpt lat="43.264954" lon="-5.127988">
        <ele>190.0</ele>
        <time>2020-11-01T13:52:26Z</time>
      </trkpt>
      <trkpt lat="43.264957" lon="-5.127994">
        <ele>190.0</ele>
        <time>2020-11-01T13:52:27Z</time>
      </trkpt>
      <trkpt lat="43.26496" lon="-5.1279974">
        <ele>190.0</ele>
        <time>2020-11-01T13:52:28Z</time>
      </trkpt>
      <trkpt lat="43.26497" lon="-5.128">
        <ele>190.0</ele>
        <time>2020-11-01T13:52:29Z</time>
      </trkpt>
      <trkpt lat="43.26497" lon="-5.128">
        <ele>190.0</ele>
        <time>2020-11-01T13:52:30Z</time>
      </trkpt>
      <trkpt lat="43.26497" lon="-5.128">
        <ele>190.0</ele>
        <time>2020-11-01T13:52:31Z</time>
      </trkpt>
      <trkpt lat="43.26497" lon="-5.1279993">
        <ele>190.0</ele>
        <time>2020-11-01T13:52:32Z</time>
      </trkpt>
      <trkpt lat="43.26496" lon="-5.127998">
        <ele>190.0</ele>
        <time>2020-11-01T13:52:33Z</time>
      </trkpt>
      <trkpt lat="43.26496" lon="-5.1279907">
        <ele>190.0</ele>
        <time>2020-11-01T13:52:35Z</time>
      </trkpt>
      <trkpt lat="43.26496" lon="-5.1279907">
        <ele>190.0</ele>
        <time>2020-11-01T13:52:37Z</time>
      </trkpt>
      <trkpt lat="43.26497" lon="-5.127992">
        <ele>190.0</ele>
        <time>2020-11-01T13:52:37Z</time>
      </trkpt>
      <trkpt lat="43.26497" lon="-5.127995">
        <ele>190.0</ele>
        <time>2020-11-01T13:52:38Z</time>
      </trkpt>
      <trkpt lat="43.26497" lon="-5.128">
        <ele>190.0</ele>
        <time>2020-11-01T13:52:39Z</time>
      </trkpt>
      <trkpt lat="43.26496" lon="-5.128005">
        <ele>190.0</ele>
        <time>2020-11-01T13:52:40Z</time>
      </trkpt>
      <trkpt lat="43.264957" lon="-5.1280103">
        <ele>190.0</ele>
        <time>2020-11-01T13:52:41Z</time>
      </trkpt>
      <trkpt lat="43.264957" lon="-5.1280165">
        <ele>190.0</ele>
        <time>2020-11-01T13:52:42Z</time>
      </trkpt>
      <trkpt lat="43.264954" lon="-5.128021">
        <ele>190.0</ele>
        <time>2020-11-01T13:52:43Z</time>
      </trkpt>
      <trkpt lat="43.264946" lon="-5.128022">
        <ele>190.0</ele>
        <time>2020-11-01T13:52:44Z</time>
      </trkpt>
      <trkpt lat="43.26494" lon="-5.1280212">
        <ele>190.0</ele>
        <time>2020-11-01T13:52:46Z</time>
      </trkpt>
      <trkpt lat="43.264927" lon="-5.1280203">
        <ele>190.0</ele>
        <time>2020-11-01T13:52:46Z</time>
      </trkpt>
      <trkpt lat="43.26491" lon="-5.1280193">
        <ele>190.0</ele>
        <time>2020-11-01T13:52:47Z</time>
      </trkpt>
      <trkpt lat="43.2649" lon="-5.1280184">
        <ele>190.0</ele>
        <time>2020-11-01T13:52:48Z</time>
      </trkpt>
      <trkpt lat="43.264896" lon="-5.1280217">
        <ele>190.0</ele>
        <time>2020-11-01T13:52:49Z</time>
      </trkpt>
      <trkpt lat="43.264896" lon="-5.1280303">
        <ele>190.0</ele>
        <time>2020-11-01T13:52:50Z</time>
      </trkpt>
      <trkpt lat="43.2649" lon="-5.128039">
        <ele>190.0</ele>
        <time>2020-11-01T13:52:51Z</time>
      </trkpt>
      <trkpt lat="43.2649" lon="-5.1280484">
        <ele>190.0</ele>
        <time>2020-11-01T13:52:52Z</time>
      </trkpt>
      <trkpt lat="43.264908" lon="-5.128057">
        <ele>190.0</ele>
        <time>2020-11-01T13:52:53Z</time>
      </trkpt>
      <trkpt lat="43.264908" lon="-5.128065">
        <ele>190.0</ele>
        <time>2020-11-01T13:52:54Z</time>
      </trkpt>
      <trkpt lat="43.264915" lon="-5.1280746">
        <ele>190.0</ele>
        <time>2020-11-01T13:52:55Z</time>
      </trkpt>
      <trkpt lat="43.264923" lon="-5.128084">
        <ele>190.0</ele>
        <time>2020-11-01T13:52:56Z</time>
      </trkpt>
      <trkpt lat="43.264927" lon="-5.128093">
        <ele>190.0</ele>
        <time>2020-11-01T13:52:57Z</time>
      </trkpt>
      <trkpt lat="43.26493" lon="-5.1281023">
        <ele>190.0</ele>
        <time>2020-11-01T13:52:58Z</time>
      </trkpt>
      <trkpt lat="43.26494" lon="-5.12811">
        <ele>190.0</ele>
        <time>2020-11-01T13:52:59Z</time>
      </trkpt>
      <trkpt lat="43.26494" lon="-5.128116">
        <ele>190.0</ele>
        <time>2020-11-01T13:53:00Z</time>
      </trkpt>
      <trkpt lat="43.264942" lon="-5.128122">
        <ele>190.0</ele>
        <time>2020-11-01T13:53:01Z</time>
      </trkpt>
      <trkpt lat="43.264942" lon="-5.1281266">
        <ele>190.0</ele>
        <time>2020-11-01T13:53:02Z</time>
      </trkpt>
      <trkpt lat="43.264946" lon="-5.1281333">
        <ele>190.0</ele>
        <time>2020-11-01T13:53:03Z</time>
      </trkpt>
      <trkpt lat="43.264954" lon="-5.1281414">
        <ele>190.0</ele>
        <time>2020-11-01T13:53:04Z</time>
      </trkpt>
      <trkpt lat="43.264957" lon="-5.1281505">
        <ele>190.0</ele>
        <time>2020-11-01T13:53:05Z</time>
      </trkpt>
      <trkpt lat="43.26496" lon="-5.1281614">
        <ele>190.0</ele>
        <time>2020-11-01T13:53:06Z</time>
      </trkpt>
      <trkpt lat="43.264973" lon="-5.128174">
        <ele>190.0</ele>
        <time>2020-11-01T13:53:07Z</time>
      </trkpt>
      <trkpt lat="43.264977" lon="-5.1281857">
        <ele>190.0</ele>
        <time>2020-11-01T13:53:08Z</time>
      </trkpt>
      <trkpt lat="43.264977" lon="-5.1281986">
        <ele>190.0</ele>
        <time>2020-11-01T13:53:10Z</time>
      </trkpt>
      <trkpt lat="43.264977" lon="-5.128213">
        <ele>190.0</ele>
        <time>2020-11-01T13:53:10Z</time>
      </trkpt>
      <trkpt lat="43.264977" lon="-5.1282244">
        <ele>190.0</ele>
        <time>2020-11-01T13:53:11Z</time>
      </trkpt>
      <trkpt lat="43.264973" lon="-5.1282344">
        <ele>190.0</ele>
        <time>2020-11-01T13:53:12Z</time>
      </trkpt>
      <trkpt lat="43.26496" lon="-5.128245">
        <ele>190.0</ele>
        <time>2020-11-01T13:53:13Z</time>
      </trkpt>
      <trkpt lat="43.264957" lon="-5.128255">
        <ele>190.0</ele>
        <time>2020-11-01T13:53:14Z</time>
      </trkpt>
      <trkpt lat="43.264946" lon="-5.128266">
        <ele>190.0</ele>
        <time>2020-11-01T13:53:15Z</time>
      </trkpt>
      <trkpt lat="43.26494" lon="-5.128279">
        <ele>190.0</ele>
        <time>2020-11-01T13:53:16Z</time>
      </trkpt>
      <trkpt lat="43.264927" lon="-5.128292">
        <ele>190.0</ele>
        <time>2020-11-01T13:53:17Z</time>
      </trkpt>
      <trkpt lat="43.264923" lon="-5.1283007">
        <ele>190.0</ele>
        <time>2020-11-01T13:53:18Z</time>
      </trkpt>
      <trkpt lat="43.264923" lon="-5.1283073">
        <ele>190.0</ele>
        <time>2020-11-01T13:53:19Z</time>
      </trkpt>
      <trkpt lat="43.264923" lon="-5.128313">
        <ele>190.0</ele>
        <time>2020-11-01T13:53:20Z</time>
      </trkpt>
      <trkpt lat="43.264923" lon="-5.128318">
        <ele>190.0</ele>
        <time>2020-11-01T13:53:21Z</time>
      </trkpt>
      <trkpt lat="43.264923" lon="-5.128323">
        <ele>190.0</ele>
        <time>2020-11-01T13:53:22Z</time>
      </trkpt>
      <trkpt lat="43.264923" lon="-5.1283298">
        <ele>190.0</ele>
        <time>2020-11-01T13:53:23Z</time>
      </trkpt>
      <trkpt lat="43.26493" lon="-5.1283355">
        <ele>190.0</ele>
        <time>2020-11-01T13:53:24Z</time>
      </trkpt>
      <trkpt lat="43.26494" lon="-5.128342">
        <ele>190.0</ele>
        <time>2020-11-01T13:53:25Z</time>
      </trkpt>
      <trkpt lat="43.264946" lon="-5.12835">
        <ele>190.0</ele>
        <time>2020-11-01T13:53:26Z</time>
      </trkpt>
      <trkpt lat="43.264957" lon="-5.128359">
        <ele>190.0</ele>
        <time>2020-11-01T13:53:27Z</time>
      </trkpt>
      <trkpt lat="43.26497" lon="-5.128369">
        <ele>190.0</ele>
        <time>2020-11-01T13:53:28Z</time>
      </trkpt>
      <trkpt lat="43.264973" lon="-5.1283793">
        <ele>190.0</ele>
        <time>2020-11-01T13:53:29Z</time>
      </trkpt>
      <trkpt lat="43.264977" lon="-5.12839">
        <ele>190.0</ele>
        <time>2020-11-01T13:53:30Z</time>
      </trkpt>
      <trkpt lat="43.264977" lon="-5.1283994">
        <ele>190.0</ele>
        <time>2020-11-01T13:53:31Z</time>
      </trkpt>
      <trkpt lat="43.264977" lon="-5.128411">
        <ele>190.0</ele>
        <time>2020-11-01T13:53:32Z</time>
      </trkpt>
      <trkpt lat="43.26497" lon="-5.128424">
        <ele>190.0</ele>
        <time>2020-11-01T13:53:33Z</time>
      </trkpt>
      <trkpt lat="43.26497" lon="-5.128438">
        <ele>190.0</ele>
        <time>2020-11-01T13:53:34Z</time>
      </trkpt>
      <trkpt lat="43.26497" lon="-5.1284513">
        <ele>190.0</ele>
        <time>2020-11-01T13:53:35Z</time>
      </trkpt>
      <trkpt lat="43.26497" lon="-5.128464">
        <ele>190.0</ele>
        <time>2020-11-01T13:53:36Z</time>
      </trkpt>
      <trkpt lat="43.26497" lon="-5.1284747">
        <ele>190.0</ele>
        <time>2020-11-01T13:53:38Z</time>
      </trkpt>
      <trkpt lat="43.26497" lon="-5.1284847">
        <ele>190.0</ele>
        <time>2020-11-01T13:53:38Z</time>
      </trkpt>
      <trkpt lat="43.264973" lon="-5.128495">
        <ele>190.0</ele>
        <time>2020-11-01T13:53:39Z</time>
      </trkpt>
      <trkpt lat="43.264977" lon="-5.128503">
        <ele>190.0</ele>
        <time>2020-11-01T13:53:40Z</time>
      </trkpt>
      <trkpt lat="43.264988" lon="-5.1285114">
        <ele>190.0</ele>
        <time>2020-11-01T13:53:41Z</time>
      </trkpt>
      <trkpt lat="43.26499" lon="-5.1285205">
        <ele>190.0</ele>
        <time>2020-11-01T13:53:42Z</time>
      </trkpt>
      <trkpt lat="43.265" lon="-5.128529">
        <ele>190.0</ele>
        <time>2020-11-01T13:53:43Z</time>
      </trkpt>
      <trkpt lat="43.265003" lon="-5.1285367">
        <ele>190.0</ele>
        <time>2020-11-01T13:53:44Z</time>
      </trkpt>
      <trkpt lat="43.265007" lon="-5.128545">
        <ele>190.0</ele>
        <time>2020-11-01T13:53:45Z</time>
      </trkpt>
      <trkpt lat="43.265015" lon="-5.1285543">
        <ele>190.0</ele>
        <time>2020-11-01T13:53:46Z</time>
      </trkpt>
      <trkpt lat="43.265015" lon="-5.128562">
        <ele>190.0</ele>
        <time>2020-11-01T13:53:47Z</time>
      </trkpt>
      <trkpt lat="43.265015" lon="-5.128571">
        <ele>190.0</ele>
        <time>2020-11-01T13:53:48Z</time>
      </trkpt>
      <trkpt lat="43.26502" lon="-5.128583">
        <ele>190.0</ele>
        <time>2020-11-01T13:53:49Z</time>
      </trkpt>
      <trkpt lat="43.265022" lon="-5.128596">
        <ele>190.0</ele>
        <time>2020-11-01T13:53:50Z</time>
      </trkpt>
      <trkpt lat="43.265022" lon="-5.128609">
        <ele>190.0</ele>
        <time>2020-11-01T13:53:51Z</time>
      </trkpt>
      <trkpt lat="43.265022" lon="-5.1286197">
        <ele>190.0</ele>
        <time>2020-11-01T13:53:53Z</time>
      </trkpt>
      <trkpt lat="43.26503" lon="-5.1286335">
        <ele>190.0</ele>
        <time>2020-11-01T13:53:53Z</time>
      </trkpt>
      <trkpt lat="43.265034" lon="-5.1286497">
        <ele>190.0</ele>
        <time>2020-11-01T13:53:54Z</time>
      </trkpt>
      <trkpt lat="43.265038" lon="-5.1286654">
        <ele>190.0</ele>
        <time>2020-11-01T13:53:55Z</time>
      </trkpt>
      <trkpt lat="43.265038" lon="-5.128679">
        <ele>190.0</ele>
        <time>2020-11-01T13:53:56Z</time>
      </trkpt>
      <trkpt lat="43.265038" lon="-5.1286902">
        <ele>190.0</ele>
        <time>2020-11-01T13:53:57Z</time>
      </trkpt>
      <trkpt lat="43.265038" lon="-5.128701">
        <ele>190.0</ele>
        <time>2020-11-01T13:53:58Z</time>
      </trkpt>
      <trkpt lat="43.265045" lon="-5.128711">
        <ele>190.0</ele>
        <time>2020-11-01T13:53:59Z</time>
      </trkpt>
      <trkpt lat="43.26505" lon="-5.12872">
        <ele>190.0</ele>
        <time>2020-11-01T13:54:00Z</time>
      </trkpt>
      <trkpt lat="43.265057" lon="-5.1287274">
        <ele>190.0</ele>
        <time>2020-11-01T13:54:01Z</time>
      </trkpt>
      <trkpt lat="43.26506" lon="-5.128735">
        <ele>190.0</ele>
        <time>2020-11-01T13:54:02Z</time>
      </trkpt>
      <trkpt lat="43.26507" lon="-5.1287427">
        <ele>190.0</ele>
        <time>2020-11-01T13:54:03Z</time>
      </trkpt>
      <trkpt lat="43.26507" lon="-5.128751">
        <ele>190.0</ele>
        <time>2020-11-01T13:54:04Z</time>
      </trkpt>
      <trkpt lat="43.265076" lon="-5.12876">
        <ele>190.0</ele>
        <time>2020-11-01T13:54:05Z</time>
      </trkpt>
      <trkpt lat="43.265076" lon="-5.1287684">
        <ele>190.0</ele>
        <time>2020-11-01T13:54:06Z</time>
      </trkpt>
      <trkpt lat="43.26508" lon="-5.1287775">
        <ele>190.0</ele>
        <time>2020-11-01T13:54:07Z</time>
      </trkpt>
      <trkpt lat="43.26509" lon="-5.1287856">
        <ele>190.0</ele>
        <time>2020-11-01T13:54:08Z</time>
      </trkpt>
      <trkpt lat="43.265095" lon="-5.1287913">
        <ele>190.0</ele>
        <time>2020-11-01T13:54:09Z</time>
      </trkpt>
      <trkpt lat="43.265095" lon="-5.1287985">
        <ele>190.0</ele>
        <time>2020-11-01T13:54:10Z</time>
      </trkpt>
      <trkpt lat="43.265095" lon="-5.1288085">
        <ele>190.0</ele>
        <time>2020-11-01T13:54:11Z</time>
      </trkpt>
      <trkpt lat="43.265095" lon="-5.12882">
        <ele>190.0</ele>
        <time>2020-11-01T13:54:12Z</time>
      </trkpt>
      <trkpt lat="43.265095" lon="-5.1288347">
        <ele>190.0</ele>
        <time>2020-11-01T13:54:13Z</time>
      </trkpt>
      <trkpt lat="43.265095" lon="-5.1288486">
        <ele>190.0</ele>
        <time>2020-11-01T13:54:14Z</time>
      </trkpt>
      <trkpt lat="43.265102" lon="-5.128864">
        <ele>190.0</ele>
        <time>2020-11-01T13:54:15Z</time>
      </trkpt>
      <trkpt lat="43.265102" lon="-5.1288786">
        <ele>190.0</ele>
        <time>2020-11-01T13:54:16Z</time>
      </trkpt>
      <trkpt lat="43.265102" lon="-5.128891">
        <ele>190.0</ele>
        <time>2020-11-01T13:54:17Z</time>
      </trkpt>
      <trkpt lat="43.265095" lon="-5.128902">
        <ele>190.0</ele>
        <time>2020-11-01T13:54:18Z</time>
      </trkpt>
      <trkpt lat="43.26509" lon="-5.1289134">
        <ele>190.0</ele>
        <time>2020-11-01T13:54:19Z</time>
      </trkpt>
      <trkpt lat="43.26509" lon="-5.1289253">
        <ele>190.0</ele>
        <time>2020-11-01T13:54:20Z</time>
      </trkpt>
      <trkpt lat="43.265087" lon="-5.128936">
        <ele>190.0</ele>
        <time>2020-11-01T13:54:21Z</time>
      </trkpt>
      <trkpt lat="43.265087" lon="-5.1289477">
        <ele>190.0</ele>
        <time>2020-11-01T13:54:22Z</time>
      </trkpt>
      <trkpt lat="43.265087" lon="-5.128957">
        <ele>190.0</ele>
        <time>2020-11-01T13:54:23Z</time>
      </trkpt>
      <trkpt lat="43.265087" lon="-5.128971">
        <ele>190.0</ele>
        <time>2020-11-01T13:54:24Z</time>
      </trkpt>
      <trkpt lat="43.26509" lon="-5.128987">
        <ele>190.0</ele>
        <time>2020-11-01T13:54:25Z</time>
      </trkpt>
      <trkpt lat="43.265102" lon="-5.129003">
        <ele>190.0</ele>
        <time>2020-11-01T13:54:26Z</time>
      </trkpt>
      <trkpt lat="43.265106" lon="-5.129017">
        <ele>190.0</ele>
        <time>2020-11-01T13:54:27Z</time>
      </trkpt>
      <trkpt lat="43.26511" lon="-5.1290283">
        <ele>190.0</ele>
        <time>2020-11-01T13:54:29Z</time>
      </trkpt>
      <trkpt lat="43.265118" lon="-5.129038">
        <ele>190.0</ele>
        <time>2020-11-01T13:54:29Z</time>
      </trkpt>
      <trkpt lat="43.26512" lon="-5.129046">
        <ele>190.0</ele>
        <time>2020-11-01T13:54:30Z</time>
      </trkpt>
      <trkpt lat="43.26512" lon="-5.1290536">
        <ele>190.0</ele>
        <time>2020-11-01T13:54:31Z</time>
      </trkpt>
      <trkpt lat="43.265125" lon="-5.1290607">
        <ele>190.0</ele>
        <time>2020-11-01T13:54:32Z</time>
      </trkpt>
      <trkpt lat="43.265133" lon="-5.1290665">
        <ele>190.0</ele>
        <time>2020-11-01T13:54:33Z</time>
      </trkpt>
      <trkpt lat="43.265137" lon="-5.1290717">
        <ele>190.0</ele>
        <time>2020-11-01T13:54:34Z</time>
      </trkpt>
      <trkpt lat="43.26515" lon="-5.129078">
        <ele>190.0</ele>
        <time>2020-11-01T13:54:35Z</time>
      </trkpt>
      <trkpt lat="43.265156" lon="-5.1290855">
        <ele>190.0</ele>
        <time>2020-11-01T13:54:36Z</time>
      </trkpt>
      <trkpt lat="43.265167" lon="-5.129093">
        <ele>190.0</ele>
        <time>2020-11-01T13:54:37Z</time>
      </trkpt>
      <trkpt lat="43.26517" lon="-5.1291013">
        <ele>190.0</ele>
        <time>2020-11-01T13:54:38Z</time>
      </trkpt>
      <trkpt lat="43.265182" lon="-5.1291113">
        <ele>190.0</ele>
        <time>2020-11-01T13:54:39Z</time>
      </trkpt>
      <trkpt lat="43.265186" lon="-5.1291213">
        <ele>190.0</ele>
        <time>2020-11-01T13:54:40Z</time>
      </trkpt>
      <trkpt lat="43.265194" lon="-5.1291294">
        <ele>190.0</ele>
        <time>2020-11-01T13:54:41Z</time>
      </trkpt>
      <trkpt lat="43.265194" lon="-5.129139">
        <ele>190.0</ele>
        <time>2020-11-01T13:54:42Z</time>
      </trkpt>
      <trkpt lat="43.265198" lon="-5.1291475">
        <ele>190.0</ele>
        <time>2020-11-01T13:54:43Z</time>
      </trkpt>
      <trkpt lat="43.265198" lon="-5.129157">
        <ele>189.0</ele>
        <time>2020-11-01T13:54:44Z</time>
      </trkpt>
      <trkpt lat="43.2652" lon="-5.129167">
        <ele>189.0</ele>
        <time>2020-11-01T13:54:45Z</time>
      </trkpt>
      <trkpt lat="43.2652" lon="-5.129175">
        <ele>189.0</ele>
        <time>2020-11-01T13:54:46Z</time>
      </trkpt>
      <trkpt lat="43.2652" lon="-5.1291842">
        <ele>189.0</ele>
        <time>2020-11-01T13:54:47Z</time>
      </trkpt>
      <trkpt lat="43.26521" lon="-5.1291966">
        <ele>189.0</ele>
        <time>2020-11-01T13:54:48Z</time>
      </trkpt>
      <trkpt lat="43.26521" lon="-5.12921">
        <ele>189.0</ele>
        <time>2020-11-01T13:54:49Z</time>
      </trkpt>
      <trkpt lat="43.265213" lon="-5.129221">
        <ele>189.0</ele>
        <time>2020-11-01T13:54:50Z</time>
      </trkpt>
      <trkpt lat="43.265213" lon="-5.129231">
        <ele>189.0</ele>
        <time>2020-11-01T13:54:51Z</time>
      </trkpt>
      <trkpt lat="43.265217" lon="-5.129241">
        <ele>189.0</ele>
        <time>2020-11-01T13:54:52Z</time>
      </trkpt>
      <trkpt lat="43.265217" lon="-5.1292515">
        <ele>189.0</ele>
        <time>2020-11-01T13:54:53Z</time>
      </trkpt>
      <trkpt lat="43.265224" lon="-5.1292624">
        <ele>189.0</ele>
        <time>2020-11-01T13:54:54Z</time>
      </trkpt>
      <trkpt lat="43.26523" lon="-5.1292725">
        <ele>189.0</ele>
        <time>2020-11-01T13:54:55Z</time>
      </trkpt>
      <trkpt lat="43.26523" lon="-5.129281">
        <ele>189.0</ele>
        <time>2020-11-01T13:54:56Z</time>
      </trkpt>
      <trkpt lat="43.265232" lon="-5.129288">
        <ele>189.0</ele>
        <time>2020-11-01T13:54:57Z</time>
      </trkpt>
      <trkpt lat="43.26524" lon="-5.1292934">
        <ele>189.0</ele>
        <time>2020-11-01T13:54:59Z</time>
      </trkpt>
      <trkpt lat="43.265244" lon="-5.1292987">
        <ele>189.0</ele>
        <time>2020-11-01T13:54:59Z</time>
      </trkpt>
      <trkpt lat="43.26525" lon="-5.129302">
        <ele>189.0</ele>
        <time>2020-11-01T13:55:00Z</time>
      </trkpt>
      <trkpt lat="43.26526" lon="-5.129307">
        <ele>189.0</ele>
        <time>2020-11-01T13:55:01Z</time>
      </trkpt>
      <trkpt lat="43.26527" lon="-5.1293125">
        <ele>188.0</ele>
        <time>2020-11-01T13:55:02Z</time>
      </trkpt>
      <trkpt lat="43.26528" lon="-5.129319">
        <ele>188.0</ele>
        <time>2020-11-01T13:55:03Z</time>
      </trkpt>
      <trkpt lat="43.26529" lon="-5.1293254">
        <ele>188.0</ele>
        <time>2020-11-01T13:55:04Z</time>
      </trkpt>
      <trkpt lat="43.265297" lon="-5.129334">
        <ele>188.0</ele>
        <time>2020-11-01T13:55:05Z</time>
      </trkpt>
      <trkpt lat="43.2653" lon="-5.129344">
        <ele>188.0</ele>
        <time>2020-11-01T13:55:06Z</time>
      </trkpt>
      <trkpt lat="43.2653" lon="-5.129354">
        <ele>188.0</ele>
        <time>2020-11-01T13:55:06Z</time>
      </trkpt>
      <trkpt lat="43.2653" lon="-5.129362">
        <ele>188.0</ele>
        <time>2020-11-01T13:55:07Z</time>
      </trkpt>
      <trkpt lat="43.265297" lon="-5.129369">
        <ele>188.0</ele>
        <time>2020-11-01T13:55:08Z</time>
      </trkpt>
      <trkpt lat="43.265297" lon="-5.1293745">
        <ele>188.0</ele>
        <time>2020-11-01T13:55:09Z</time>
      </trkpt>
      <trkpt lat="43.265297" lon="-5.1293817">
        <ele>187.0</ele>
        <time>2020-11-01T13:55:10Z</time>
      </trkpt>
      <trkpt lat="43.265297" lon="-5.1293902">
        <ele>187.0</ele>
        <time>2020-11-01T13:55:11Z</time>
      </trkpt>
      <trkpt lat="43.2653" lon="-5.1294">
        <ele>187.0</ele>
        <time>2020-11-01T13:55:12Z</time>
      </trkpt>
      <trkpt lat="43.265305" lon="-5.12941">
        <ele>187.0</ele>
        <time>2020-11-01T13:55:13Z</time>
      </trkpt>
      <trkpt lat="43.265312" lon="-5.1294203">
        <ele>187.0</ele>
        <time>2020-11-01T13:55:14Z</time>
      </trkpt>
      <trkpt lat="43.265316" lon="-5.1294312">
        <ele>187.0</ele>
        <time>2020-11-01T13:55:15Z</time>
      </trkpt>
      <trkpt lat="43.265327" lon="-5.1294436">
        <ele>187.0</ele>
        <time>2020-11-01T13:55:16Z</time>
      </trkpt>
      <trkpt lat="43.26533" lon="-5.1294556">
        <ele>187.0</ele>
        <time>2020-11-01T13:55:17Z</time>
      </trkpt>
      <trkpt lat="43.265335" lon="-5.1294684">
        <ele>187.0</ele>
        <time>2020-11-01T13:55:19Z</time>
      </trkpt>
      <trkpt lat="43.265343" lon="-5.1294813">
        <ele>187.0</ele>
        <time>2020-11-01T13:55:19Z</time>
      </trkpt>
      <trkpt lat="43.26535" lon="-5.129494">
        <ele>187.0</ele>
        <time>2020-11-01T13:55:20Z</time>
      </trkpt>
      <trkpt lat="43.26535" lon="-5.1295056">
        <ele>187.0</ele>
        <time>2020-11-01T13:55:21Z</time>
      </trkpt>
      <trkpt lat="43.26535" lon="-5.129518">
        <ele>187.0</ele>
        <time>2020-11-01T13:55:22Z</time>
      </trkpt>
      <trkpt lat="43.26535" lon="-5.129532">
        <ele>187.0</ele>
        <time>2020-11-01T13:55:23Z</time>
      </trkpt>
      <trkpt lat="43.26535" lon="-5.129549">
        <ele>187.0</ele>
        <time>2020-11-01T13:55:24Z</time>
      </trkpt>
      <trkpt lat="43.265358" lon="-5.129566">
        <ele>187.0</ele>
        <time>2020-11-01T13:55:25Z</time>
      </trkpt>
      <trkpt lat="43.26535" lon="-5.129583">
        <ele>187.0</ele>
        <time>2020-11-01T13:55:26Z</time>
      </trkpt>
      <trkpt lat="43.26535" lon="-5.129598">
        <ele>187.0</ele>
        <time>2020-11-01T13:55:27Z</time>
      </trkpt>
      <trkpt lat="43.26535" lon="-5.129612">
        <ele>187.0</ele>
        <time>2020-11-01T13:55:28Z</time>
      </trkpt>
      <trkpt lat="43.26535" lon="-5.129623">
        <ele>187.0</ele>
        <time>2020-11-01T13:55:29Z</time>
      </trkpt>
      <trkpt lat="43.26535" lon="-5.129632">
        <ele>187.0</ele>
        <time>2020-11-01T13:55:30Z</time>
      </trkpt>
      <trkpt lat="43.265358" lon="-5.12964">
        <ele>187.0</ele>
        <time>2020-11-01T13:55:31Z</time>
      </trkpt>
      <trkpt lat="43.26536" lon="-5.129648">
        <ele>187.0</ele>
        <time>2020-11-01T13:55:32Z</time>
      </trkpt>
      <trkpt lat="43.265373" lon="-5.1296554">
        <ele>187.0</ele>
        <time>2020-11-01T13:55:33Z</time>
      </trkpt>
      <trkpt lat="43.265373" lon="-5.1296635">
        <ele>187.0</ele>
        <time>2020-11-01T13:55:34Z</time>
      </trkpt>
      <trkpt lat="43.265377" lon="-5.1296744">
        <ele>187.0</ele>
        <time>2020-11-01T13:55:35Z</time>
      </trkpt>
      <trkpt lat="43.26538" lon="-5.129688">
        <ele>187.0</ele>
        <time>2020-11-01T13:55:36Z</time>
      </trkpt>
      <trkpt lat="43.26538" lon="-5.1297026">
        <ele>187.0</ele>
        <time>2020-11-01T13:55:37Z</time>
      </trkpt>
      <trkpt lat="43.26538" lon="-5.12972">
        <ele>187.0</ele>
        <time>2020-11-01T13:55:38Z</time>
      </trkpt>
      <trkpt lat="43.265377" lon="-5.1297364">
        <ele>187.0</ele>
        <time>2020-11-01T13:55:39Z</time>
      </trkpt>
      <trkpt lat="43.265373" lon="-5.129751">
        <ele>187.0</ele>
        <time>2020-11-01T13:55:40Z</time>
      </trkpt>
      <trkpt lat="43.26536" lon="-5.129763">
        <ele>187.0</ele>
        <time>2020-11-01T13:55:41Z</time>
      </trkpt>
      <trkpt lat="43.265358" lon="-5.1297746">
        <ele>187.0</ele>
        <time>2020-11-01T13:55:42Z</time>
      </trkpt>
      <trkpt lat="43.265347" lon="-5.129784">
        <ele>187.0</ele>
        <time>2020-11-01T13:55:43Z</time>
      </trkpt>
      <trkpt lat="43.265343" lon="-5.129793">
        <ele>187.0</ele>
        <time>2020-11-01T13:55:44Z</time>
      </trkpt>
      <trkpt lat="43.265335" lon="-5.1298003">
        <ele>187.0</ele>
        <time>2020-11-01T13:55:45Z</time>
      </trkpt>
      <trkpt lat="43.265335" lon="-5.1298065">
        <ele>187.0</ele>
        <time>2020-11-01T13:55:46Z</time>
      </trkpt>
      <trkpt lat="43.265335" lon="-5.1298156">
        <ele>187.0</ele>
        <time>2020-11-01T13:55:47Z</time>
      </trkpt>
      <trkpt lat="43.265347" lon="-5.129826">
        <ele>187.0</ele>
        <time>2020-11-01T13:55:49Z</time>
      </trkpt>
      <trkpt lat="43.26535" lon="-5.129838">
        <ele>187.0</ele>
        <time>2020-11-01T13:55:49Z</time>
      </trkpt>
      <trkpt lat="43.26536" lon="-5.1298485">
        <ele>187.0</ele>
        <time>2020-11-01T13:55:50Z</time>
      </trkpt>
      <trkpt lat="43.265366" lon="-5.129858">
        <ele>187.0</ele>
        <time>2020-11-01T13:55:51Z</time>
      </trkpt>
      <trkpt lat="43.265366" lon="-5.129865">
        <ele>187.0</ele>
        <time>2020-11-01T13:55:52Z</time>
      </trkpt>
      <trkpt lat="43.265366" lon="-5.129871">
        <ele>187.0</ele>
        <time>2020-11-01T13:55:53Z</time>
      </trkpt>
      <trkpt lat="43.265377" lon="-5.129877">
        <ele>187.0</ele>
        <time>2020-11-01T13:55:54Z</time>
      </trkpt>
      <trkpt lat="43.26538" lon="-5.129882">
        <ele>187.0</ele>
        <time>2020-11-01T13:55:55Z</time>
      </trkpt>
      <trkpt lat="43.265392" lon="-5.1298857">
        <ele>187.0</ele>
        <time>2020-11-01T13:55:57Z</time>
      </trkpt>
      <trkpt lat="43.26541" lon="-5.1299">
        <ele>187.0</ele>
        <time>2020-11-01T13:55:58Z</time>
      </trkpt>
      <trkpt lat="43.26541" lon="-5.129901">
        <ele>187.0</ele>
        <time>2020-11-01T13:55:59Z</time>
      </trkpt>
      <trkpt lat="43.26541" lon="-5.129903">
        <ele>187.0</ele>
        <time>2020-11-01T13:56:00Z</time>
      </trkpt>
      <trkpt lat="43.265408" lon="-5.1299043">
        <ele>187.0</ele>
        <time>2020-11-01T13:56:01Z</time>
      </trkpt>
      <trkpt lat="43.265408" lon="-5.129907">
        <ele>187.0</ele>
        <time>2020-11-01T13:56:02Z</time>
      </trkpt>
      <trkpt lat="43.265408" lon="-5.129912">
        <ele>187.0</ele>
        <time>2020-11-01T13:56:03Z</time>
      </trkpt>
      <trkpt lat="43.265404" lon="-5.1299176">
        <ele>187.0</ele>
        <time>2020-11-01T13:56:04Z</time>
      </trkpt>
      <trkpt lat="43.265404" lon="-5.1299224">
        <ele>187.0</ele>
        <time>2020-11-01T13:56:05Z</time>
      </trkpt>
      <trkpt lat="43.265396" lon="-5.1299267">
        <ele>187.0</ele>
        <time>2020-11-01T13:56:06Z</time>
      </trkpt>
      <trkpt lat="43.265396" lon="-5.129931">
        <ele>187.0</ele>
        <time>2020-11-01T13:56:07Z</time>
      </trkpt>
      <trkpt lat="43.265396" lon="-5.129935">
        <ele>187.0</ele>
        <time>2020-11-01T13:56:08Z</time>
      </trkpt>
      <trkpt lat="43.265396" lon="-5.1299386">
        <ele>187.0</ele>
        <time>2020-11-01T13:56:09Z</time>
      </trkpt>
      <trkpt lat="43.265396" lon="-5.129942">
        <ele>187.0</ele>
        <time>2020-11-01T13:56:10Z</time>
      </trkpt>
      <trkpt lat="43.265396" lon="-5.1299424">
        <ele>187.0</ele>
        <time>2020-11-01T13:56:11Z</time>
      </trkpt>
      <trkpt lat="43.265392" lon="-5.129944">
        <ele>187.0</ele>
        <time>2020-11-01T13:56:12Z</time>
      </trkpt>
      <trkpt lat="43.265392" lon="-5.1299515">
        <ele>187.0</ele>
        <time>2020-11-01T13:56:14Z</time>
      </trkpt>
      <trkpt lat="43.265392" lon="-5.129952">
        <ele>187.0</ele>
        <time>2020-11-01T13:56:15Z</time>
      </trkpt>
      <trkpt lat="43.26539" lon="-5.129958">
        <ele>187.0</ele>
        <time>2020-11-01T13:56:17Z</time>
      </trkpt>
      <trkpt lat="43.26539" lon="-5.129962">
        <ele>187.0</ele>
        <time>2020-11-01T13:56:18Z</time>
      </trkpt>
      <trkpt lat="43.26539" lon="-5.1299653">
        <ele>187.0</ele>
        <time>2020-11-01T13:56:19Z</time>
      </trkpt>
      <trkpt lat="43.26539" lon="-5.129969">
        <ele>187.0</ele>
        <time>2020-11-01T13:56:20Z</time>
      </trkpt>
      <trkpt lat="43.26539" lon="-5.129974">
        <ele>187.0</ele>
        <time>2020-11-01T13:56:21Z</time>
      </trkpt>
      <trkpt lat="43.26539" lon="-5.1299796">
        <ele>187.0</ele>
        <time>2020-11-01T13:56:22Z</time>
      </trkpt>
      <trkpt lat="43.26538" lon="-5.1299863">
        <ele>187.0</ele>
        <time>2020-11-01T13:56:23Z</time>
      </trkpt>
      <trkpt lat="43.26538" lon="-5.129993">
        <ele>186.0</ele>
        <time>2020-11-01T13:56:24Z</time>
      </trkpt>
      <trkpt lat="43.26538" lon="-5.13">
        <ele>186.0</ele>
        <time>2020-11-01T13:56:25Z</time>
      </trkpt>
      <trkpt lat="43.26539" lon="-5.1300077">
        <ele>186.0</ele>
        <time>2020-11-01T13:56:26Z</time>
      </trkpt>
      <trkpt lat="43.26539" lon="-5.130015">
        <ele>186.0</ele>
        <time>2020-11-01T13:56:27Z</time>
      </trkpt>
      <trkpt lat="43.26539" lon="-5.1300235">
        <ele>186.0</ele>
        <time>2020-11-01T13:56:28Z</time>
      </trkpt>
      <trkpt lat="43.26539" lon="-5.130033">
        <ele>186.0</ele>
        <time>2020-11-01T13:56:29Z</time>
      </trkpt>
      <trkpt lat="43.26539" lon="-5.1300445">
        <ele>186.0</ele>
        <time>2020-11-01T13:56:30Z</time>
      </trkpt>
      <trkpt lat="43.26539" lon="-5.1300554">
        <ele>186.0</ele>
        <time>2020-11-01T13:56:31Z</time>
      </trkpt>
      <trkpt lat="43.26539" lon="-5.130066">
        <ele>186.0</ele>
        <time>2020-11-01T13:56:32Z</time>
      </trkpt>
      <trkpt lat="43.26538" lon="-5.130077">
        <ele>186.0</ele>
        <time>2020-11-01T13:56:33Z</time>
      </trkpt>
      <trkpt lat="43.265377" lon="-5.130089">
        <ele>186.0</ele>
        <time>2020-11-01T13:56:34Z</time>
      </trkpt>
      <trkpt lat="43.26538" lon="-5.130102">
        <ele>186.0</ele>
        <time>2020-11-01T13:56:36Z</time>
      </trkpt>
      <trkpt lat="43.26539" lon="-5.130117">
        <ele>186.0</ele>
        <time>2020-11-01T13:56:36Z</time>
      </trkpt>
      <trkpt lat="43.26539" lon="-5.1301303">
        <ele>186.0</ele>
        <time>2020-11-01T13:56:37Z</time>
      </trkpt>
      <trkpt lat="43.26539" lon="-5.1301417">
        <ele>186.0</ele>
        <time>2020-11-01T13:56:38Z</time>
      </trkpt>
      <trkpt lat="43.26539" lon="-5.130153">
        <ele>186.0</ele>
        <time>2020-11-01T13:56:39Z</time>
      </trkpt>
      <trkpt lat="43.26539" lon="-5.1301646">
        <ele>186.0</ele>
        <time>2020-11-01T13:56:40Z</time>
      </trkpt>
      <trkpt lat="43.26539" lon="-5.1301765">
        <ele>186.0</ele>
        <time>2020-11-01T13:56:41Z</time>
      </trkpt>
      <trkpt lat="43.26539" lon="-5.1301894">
        <ele>186.0</ele>
        <time>2020-11-01T13:56:42Z</time>
      </trkpt>
      <trkpt lat="43.26539" lon="-5.1302047">
        <ele>186.0</ele>
        <time>2020-11-01T13:56:43Z</time>
      </trkpt>
      <trkpt lat="43.265392" lon="-5.1302185">
        <ele>186.0</ele>
        <time>2020-11-01T13:56:44Z</time>
      </trkpt>
      <trkpt lat="43.265392" lon="-5.130232">
        <ele>186.0</ele>
        <time>2020-11-01T13:56:45Z</time>
      </trkpt>
      <trkpt lat="43.265392" lon="-5.1302447">
        <ele>186.0</ele>
        <time>2020-11-01T13:56:46Z</time>
      </trkpt>
      <trkpt lat="43.26539" lon="-5.1302576">
        <ele>186.0</ele>
        <time>2020-11-01T13:56:47Z</time>
      </trkpt>
      <trkpt lat="43.26538" lon="-5.130271">
        <ele>186.0</ele>
        <time>2020-11-01T13:56:48Z</time>
      </trkpt>
      <trkpt lat="43.265377" lon="-5.1302857">
        <ele>186.0</ele>
        <time>2020-11-01T13:56:49Z</time>
      </trkpt>
      <trkpt lat="43.265373" lon="-5.1302996">
        <ele>186.0</ele>
        <time>2020-11-01T13:56:51Z</time>
      </trkpt>
      <trkpt lat="43.265373" lon="-5.130311">
        <ele>186.0</ele>
        <time>2020-11-01T13:56:51Z</time>
      </trkpt>
      <trkpt lat="43.265366" lon="-5.130321">
        <ele>186.0</ele>
        <time>2020-11-01T13:56:52Z</time>
      </trkpt>
      <trkpt lat="43.265366" lon="-5.13033">
        <ele>186.0</ele>
        <time>2020-11-01T13:56:53Z</time>
      </trkpt>
      <trkpt lat="43.265366" lon="-5.130339">
        <ele>186.0</ele>
        <time>2020-11-01T13:56:54Z</time>
      </trkpt>
      <trkpt lat="43.265366" lon="-5.1303477">
        <ele>186.0</ele>
        <time>2020-11-01T13:56:55Z</time>
      </trkpt>
      <trkpt lat="43.265373" lon="-5.1303554">
        <ele>186.0</ele>
        <time>2020-11-01T13:56:56Z</time>
      </trkpt>
      <trkpt lat="43.265373" lon="-5.130362">
        <ele>186.0</ele>
        <time>2020-11-01T13:56:57Z</time>
      </trkpt>
      <trkpt lat="43.265377" lon="-5.130369">
        <ele>186.0</ele>
        <time>2020-11-01T13:56:58Z</time>
      </trkpt>
      <trkpt lat="43.265377" lon="-5.130377">
        <ele>186.0</ele>
        <time>2020-11-01T13:56:59Z</time>
      </trkpt>
      <trkpt lat="43.26539" lon="-5.130386">
        <ele>186.0</ele>
        <time>2020-11-01T13:57:00Z</time>
      </trkpt>
      <trkpt lat="43.265404" lon="-5.1303954">
        <ele>186.0</ele>
        <time>2020-11-01T13:57:01Z</time>
      </trkpt>
      <trkpt lat="43.26542" lon="-5.1304035">
        <ele>186.0</ele>
        <time>2020-11-01T13:57:02Z</time>
      </trkpt>
      <trkpt lat="43.265427" lon="-5.1304126">
        <ele>186.0</ele>
        <time>2020-11-01T13:57:03Z</time>
      </trkpt>
      <trkpt lat="43.265438" lon="-5.1304226">
        <ele>184.0</ele>
        <time>2020-11-01T13:57:04Z</time>
      </trkpt>
      <trkpt lat="43.26545" lon="-5.130434">
        <ele>184.0</ele>
        <time>2020-11-01T13:57:05Z</time>
      </trkpt>
      <trkpt lat="43.265453" lon="-5.1304464">
        <ele>184.0</ele>
        <time>2020-11-01T13:57:06Z</time>
      </trkpt>
      <trkpt lat="43.26546" lon="-5.1304584">
        <ele>184.0</ele>
        <time>2020-11-01T13:57:07Z</time>
      </trkpt>
      <trkpt lat="43.26547" lon="-5.1304708">
        <ele>184.0</ele>
        <time>2020-11-01T13:57:08Z</time>
      </trkpt>
      <trkpt lat="43.26548" lon="-5.13048">
        <ele>184.0</ele>
        <time>2020-11-01T13:57:09Z</time>
      </trkpt>
      <trkpt lat="43.265484" lon="-5.1304874">
        <ele>184.0</ele>
        <time>2020-11-01T13:57:10Z</time>
      </trkpt>
      <trkpt lat="43.265495" lon="-5.1304927">
        <ele>184.0</ele>
        <time>2020-11-01T13:57:11Z</time>
      </trkpt>
      <trkpt lat="43.26551" lon="-5.1305003">
        <ele>184.0</ele>
        <time>2020-11-01T13:57:12Z</time>
      </trkpt>
      <trkpt lat="43.265526" lon="-5.130512">
        <ele>184.0</ele>
        <time>2020-11-01T13:57:13Z</time>
      </trkpt>
      <trkpt lat="43.26554" lon="-5.130522">
        <ele>184.0</ele>
        <time>2020-11-01T13:57:14Z</time>
      </trkpt>
      <trkpt lat="43.265553" lon="-5.130534">
        <ele>184.0</ele>
        <time>2020-11-01T13:57:15Z</time>
      </trkpt>
      <trkpt lat="43.265556" lon="-5.130546">
        <ele>184.0</ele>
        <time>2020-11-01T13:57:16Z</time>
      </trkpt>
      <trkpt lat="43.26556" lon="-5.1305556">
        <ele>184.0</ele>
        <time>2020-11-01T13:57:17Z</time>
      </trkpt>
      <trkpt lat="43.265556" lon="-5.1305633">
        <ele>184.0</ele>
        <time>2020-11-01T13:57:18Z</time>
      </trkpt>
      <trkpt lat="43.26556" lon="-5.1305723">
        <ele>184.0</ele>
        <time>2020-11-01T13:57:19Z</time>
      </trkpt>
      <trkpt lat="43.26556" lon="-5.130583">
        <ele>184.0</ele>
        <time>2020-11-01T13:57:20Z</time>
      </trkpt>
      <trkpt lat="43.265568" lon="-5.130594">
        <ele>184.0</ele>
        <time>2020-11-01T13:57:21Z</time>
      </trkpt>
      <trkpt lat="43.26557" lon="-5.130605">
        <ele>184.0</ele>
        <time>2020-11-01T13:57:22Z</time>
      </trkpt>
      <trkpt lat="43.265575" lon="-5.1306176">
        <ele>184.0</ele>
        <time>2020-11-01T13:57:23Z</time>
      </trkpt>
      <trkpt lat="43.265575" lon="-5.13063">
        <ele>184.0</ele>
        <time>2020-11-01T13:57:24Z</time>
      </trkpt>
      <trkpt lat="43.265583" lon="-5.1306424">
        <ele>184.0</ele>
        <time>2020-11-01T13:57:25Z</time>
      </trkpt>
      <trkpt lat="43.265587" lon="-5.130654">
        <ele>184.0</ele>
        <time>2020-11-01T13:57:26Z</time>
      </trkpt>
      <trkpt lat="43.265587" lon="-5.1306663">
        <ele>184.0</ele>
        <time>2020-11-01T13:57:27Z</time>
      </trkpt>
      <trkpt lat="43.26559" lon="-5.130678">
        <ele>184.0</ele>
        <time>2020-11-01T13:57:28Z</time>
      </trkpt>
      <trkpt lat="43.2656" lon="-5.130692">
        <ele>184.0</ele>
        <time>2020-11-01T13:57:29Z</time>
      </trkpt>
      <trkpt lat="43.265602" lon="-5.1307087">
        <ele>184.0</ele>
        <time>2020-11-01T13:57:30Z</time>
      </trkpt>
      <trkpt lat="43.265602" lon="-5.130725">
        <ele>184.0</ele>
        <time>2020-11-01T13:57:31Z</time>
      </trkpt>
      <trkpt lat="43.265602" lon="-5.1307397">
        <ele>184.0</ele>
        <time>2020-11-01T13:57:32Z</time>
      </trkpt>
      <trkpt lat="43.265606" lon="-5.130751">
        <ele>184.0</ele>
        <time>2020-11-01T13:57:33Z</time>
      </trkpt>
      <trkpt lat="43.265606" lon="-5.1307616">
        <ele>184.0</ele>
        <time>2020-11-01T13:57:35Z</time>
      </trkpt>
      <trkpt lat="43.265614" lon="-5.1307716">
        <ele>184.0</ele>
        <time>2020-11-01T13:57:35Z</time>
      </trkpt>
      <trkpt lat="43.265614" lon="-5.1307817">
        <ele>184.0</ele>
        <time>2020-11-01T13:57:36Z</time>
      </trkpt>
      <trkpt lat="43.265617" lon="-5.1307917">
        <ele>184.0</ele>
        <time>2020-11-01T13:57:37Z</time>
      </trkpt>
      <trkpt lat="43.26562" lon="-5.1308">
        <ele>184.0</ele>
        <time>2020-11-01T13:57:38Z</time>
      </trkpt>
      <trkpt lat="43.26562" lon="-5.1308084">
        <ele>184.0</ele>
        <time>2020-11-01T13:57:39Z</time>
      </trkpt>
      <trkpt lat="43.26563" lon="-5.1308174">
        <ele>184.0</ele>
        <time>2020-11-01T13:57:40Z</time>
      </trkpt>
      <trkpt lat="43.265633" lon="-5.1308284">
        <ele>184.0</ele>
        <time>2020-11-01T13:57:41Z</time>
      </trkpt>
      <trkpt lat="43.26564" lon="-5.130839">
        <ele>184.0</ele>
        <time>2020-11-01T13:57:42Z</time>
      </trkpt>
      <trkpt lat="43.265644" lon="-5.1308494">
        <ele>184.0</ele>
        <time>2020-11-01T13:57:43Z</time>
      </trkpt>
      <trkpt lat="43.265648" lon="-5.13086">
        <ele>184.0</ele>
        <time>2020-11-01T13:57:44Z</time>
      </trkpt>
      <trkpt lat="43.265656" lon="-5.1308684">
        <ele>184.0</ele>
        <time>2020-11-01T13:57:45Z</time>
      </trkpt>
      <trkpt lat="43.265656" lon="-5.130875">
        <ele>184.0</ele>
        <time>2020-11-01T13:57:46Z</time>
      </trkpt>
      <trkpt lat="43.265656" lon="-5.130881">
        <ele>184.0</ele>
        <time>2020-11-01T13:57:47Z</time>
      </trkpt>
      <trkpt lat="43.265648" lon="-5.1308856">
        <ele>184.0</ele>
        <time>2020-11-01T13:57:48Z</time>
      </trkpt>
      <trkpt lat="43.265648" lon="-5.1308913">
        <ele>184.0</ele>
        <time>2020-11-01T13:57:49Z</time>
      </trkpt>
      <trkpt lat="43.265656" lon="-5.1308994">
        <ele>184.0</ele>
        <time>2020-11-01T13:57:50Z</time>
      </trkpt>
      <trkpt lat="43.265656" lon="-5.130909">
        <ele>184.0</ele>
        <time>2020-11-01T13:57:51Z</time>
      </trkpt>
      <trkpt lat="43.265656" lon="-5.1309185">
        <ele>184.0</ele>
        <time>2020-11-01T13:57:52Z</time>
      </trkpt>
      <trkpt lat="43.265648" lon="-5.1309323">
        <ele>184.0</ele>
        <time>2020-11-01T13:57:53Z</time>
      </trkpt>
      <trkpt lat="43.265644" lon="-5.130947">
        <ele>184.0</ele>
        <time>2020-11-01T13:57:54Z</time>
      </trkpt>
      <trkpt lat="43.265633" lon="-5.1309643">
        <ele>184.0</ele>
        <time>2020-11-01T13:57:55Z</time>
      </trkpt>
      <trkpt lat="43.26563" lon="-5.130978">
        <ele>184.0</ele>
        <time>2020-11-01T13:57:56Z</time>
      </trkpt>
      <trkpt lat="43.26563" lon="-5.1309905">
        <ele>183.0</ele>
        <time>2020-11-01T13:57:58Z</time>
      </trkpt>
      <trkpt lat="43.26563" lon="-5.1310024">
        <ele>183.0</ele>
        <time>2020-11-01T13:57:58Z</time>
      </trkpt>
      <trkpt lat="43.26562" lon="-5.131014">
        <ele>183.0</ele>
        <time>2020-11-01T13:57:59Z</time>
      </trkpt>
      <trkpt lat="43.26562" lon="-5.131023">
        <ele>183.0</ele>
        <time>2020-11-01T13:58:00Z</time>
      </trkpt>
      <trkpt lat="43.26562" lon="-5.131032">
        <ele>183.0</ele>
        <time>2020-11-01T13:58:01Z</time>
      </trkpt>
      <trkpt lat="43.26563" lon="-5.1310434">
        <ele>183.0</ele>
        <time>2020-11-01T13:58:02Z</time>
      </trkpt>
      <trkpt lat="43.265633" lon="-5.1310573">
        <ele>183.0</ele>
        <time>2020-11-01T13:58:03Z</time>
      </trkpt>
      <trkpt lat="43.26564" lon="-5.131071">
        <ele>183.0</ele>
        <time>2020-11-01T13:58:04Z</time>
      </trkpt>
      <trkpt lat="43.26564" lon="-5.131084">
        <ele>183.0</ele>
        <time>2020-11-01T13:58:05Z</time>
      </trkpt>
      <trkpt lat="43.26564" lon="-5.1310983">
        <ele>183.0</ele>
        <time>2020-11-01T13:58:06Z</time>
      </trkpt>
      <trkpt lat="43.265644" lon="-5.131114">
        <ele>183.0</ele>
        <time>2020-11-01T13:58:07Z</time>
      </trkpt>
      <trkpt lat="43.265648" lon="-5.131131">
        <ele>183.0</ele>
        <time>2020-11-01T13:58:08Z</time>
      </trkpt>
      <trkpt lat="43.26566" lon="-5.1311493">
        <ele>183.0</ele>
        <time>2020-11-01T13:58:09Z</time>
      </trkpt>
      <trkpt lat="43.26567" lon="-5.131166">
        <ele>183.0</ele>
        <time>2020-11-01T13:58:11Z</time>
      </trkpt>
      <trkpt lat="43.26568" lon="-5.1311793">
        <ele>183.0</ele>
        <time>2020-11-01T13:58:11Z</time>
      </trkpt>
      <trkpt lat="43.265686" lon="-5.131191">
        <ele>183.0</ele>
        <time>2020-11-01T13:58:12Z</time>
      </trkpt>
      <trkpt lat="43.26569" lon="-5.131202">
        <ele>183.0</ele>
        <time>2020-11-01T13:58:13Z</time>
      </trkpt>
      <trkpt lat="43.265694" lon="-5.1312137">
        <ele>183.0</ele>
        <time>2020-11-01T13:58:14Z</time>
      </trkpt>
      <trkpt lat="43.2657" lon="-5.131225">
        <ele>183.0</ele>
        <time>2020-11-01T13:58:15Z</time>
      </trkpt>
      <trkpt lat="43.265705" lon="-5.1312356">
        <ele>183.0</ele>
        <time>2020-11-01T13:58:16Z</time>
      </trkpt>
      <trkpt lat="43.265705" lon="-5.1312466">
        <ele>183.0</ele>
        <time>2020-11-01T13:58:17Z</time>
      </trkpt>
      <trkpt lat="43.26571" lon="-5.131256">
        <ele>183.0</ele>
        <time>2020-11-01T13:58:18Z</time>
      </trkpt>
      <trkpt lat="43.26572" lon="-5.131281">
        <ele>183.0</ele>
        <time>2020-11-01T13:58:20Z</time>
      </trkpt>
      <trkpt lat="43.26572" lon="-5.131283">
        <ele>183.0</ele>
        <time>2020-11-01T13:58:21Z</time>
      </trkpt>
      <trkpt lat="43.26572" lon="-5.1312885">
        <ele>183.0</ele>
        <time>2020-11-01T13:58:22Z</time>
      </trkpt>
      <trkpt lat="43.265724" lon="-5.1312976">
        <ele>183.0</ele>
        <time>2020-11-01T13:58:23Z</time>
      </trkpt>
      <trkpt lat="43.26573" lon="-5.1313086">
        <ele>183.0</ele>
        <time>2020-11-01T13:58:24Z</time>
      </trkpt>
      <trkpt lat="43.265736" lon="-5.1313186">
        <ele>183.0</ele>
        <time>2020-11-01T13:58:25Z</time>
      </trkpt>
      <trkpt lat="43.26574" lon="-5.1313267">
        <ele>183.0</ele>
        <time>2020-11-01T13:58:27Z</time>
      </trkpt>
      <trkpt lat="43.26574" lon="-5.1313334">
        <ele>183.0</ele>
        <time>2020-11-01T13:58:27Z</time>
      </trkpt>
      <trkpt lat="43.265747" lon="-5.131341">
        <ele>183.0</ele>
        <time>2020-11-01T13:58:28Z</time>
      </trkpt>
      <trkpt lat="43.265747" lon="-5.1313505">
        <ele>183.0</ele>
        <time>2020-11-01T13:58:29Z</time>
      </trkpt>
      <trkpt lat="43.265747" lon="-5.1313605">
        <ele>183.0</ele>
        <time>2020-11-01T13:58:30Z</time>
      </trkpt>
      <trkpt lat="43.265747" lon="-5.13137">
        <ele>183.0</ele>
        <time>2020-11-01T13:58:31Z</time>
      </trkpt>
      <trkpt lat="43.26574" lon="-5.131377">
        <ele>183.0</ele>
        <time>2020-11-01T13:58:32Z</time>
      </trkpt>
      <trkpt lat="43.26574" lon="-5.131386">
        <ele>183.0</ele>
        <time>2020-11-01T13:58:33Z</time>
      </trkpt>
      <trkpt lat="43.26574" lon="-5.1313925">
        <ele>183.0</ele>
        <time>2020-11-01T13:58:34Z</time>
      </trkpt>
      <trkpt lat="43.26574" lon="-5.131399">
        <ele>183.0</ele>
        <time>2020-11-01T13:58:35Z</time>
      </trkpt>
      <trkpt lat="43.26574" lon="-5.1314073">
        <ele>183.0</ele>
        <time>2020-11-01T13:58:36Z</time>
      </trkpt>
      <trkpt lat="43.26574" lon="-5.131415">
        <ele>183.0</ele>
        <time>2020-11-01T13:58:37Z</time>
      </trkpt>
      <trkpt lat="43.265747" lon="-5.1314216">
        <ele>183.0</ele>
        <time>2020-11-01T13:58:38Z</time>
      </trkpt>
      <trkpt lat="43.265755" lon="-5.1314297">
        <ele>183.0</ele>
        <time>2020-11-01T13:58:39Z</time>
      </trkpt>
      <trkpt lat="43.26577" lon="-5.131435">
        <ele>183.0</ele>
        <time>2020-11-01T13:58:40Z</time>
      </trkpt>
      <trkpt lat="43.265785" lon="-5.13144">
        <ele>183.0</ele>
        <time>2020-11-01T13:58:42Z</time>
      </trkpt>
      <trkpt lat="43.265797" lon="-5.1314454">
        <ele>183.0</ele>
        <time>2020-11-01T13:58:42Z</time>
      </trkpt>
      <trkpt lat="43.2658" lon="-5.131452">
        <ele>183.0</ele>
        <time>2020-11-01T13:58:43Z</time>
      </trkpt>
      <trkpt lat="43.26581" lon="-5.131458">
        <ele>183.0</ele>
        <time>2020-11-01T13:58:44Z</time>
      </trkpt>
      <trkpt lat="43.26581" lon="-5.131464">
        <ele>183.0</ele>
        <time>2020-11-01T13:58:45Z</time>
      </trkpt>
      <trkpt lat="43.265812" lon="-5.1314726">
        <ele>183.0</ele>
        <time>2020-11-01T13:58:46Z</time>
      </trkpt>
      <trkpt lat="43.265812" lon="-5.131483">
        <ele>183.0</ele>
        <time>2020-11-01T13:58:47Z</time>
      </trkpt>
      <trkpt lat="43.265812" lon="-5.131493">
        <ele>183.0</ele>
        <time>2020-11-01T13:58:48Z</time>
      </trkpt>
      <trkpt lat="43.265816" lon="-5.131502">
        <ele>183.0</ele>
        <time>2020-11-01T13:58:49Z</time>
      </trkpt>
      <trkpt lat="43.265823" lon="-5.1315103">
        <ele>183.0</ele>
        <time>2020-11-01T13:58:50Z</time>
      </trkpt>
      <trkpt lat="43.265823" lon="-5.13152">
        <ele>183.0</ele>
        <time>2020-11-01T13:58:51Z</time>
      </trkpt>
      <trkpt lat="43.265827" lon="-5.13153">
        <ele>183.0</ele>
        <time>2020-11-01T13:58:52Z</time>
      </trkpt>
      <trkpt lat="43.265835" lon="-5.1315413">
        <ele>183.0</ele>
        <time>2020-11-01T13:58:53Z</time>
      </trkpt>
      <trkpt lat="43.26584" lon="-5.131552">
        <ele>183.0</ele>
        <time>2020-11-01T13:58:54Z</time>
      </trkpt>
      <trkpt lat="43.26585" lon="-5.1315627">
        <ele>183.0</ele>
        <time>2020-11-01T13:58:55Z</time>
      </trkpt>
      <trkpt lat="43.265854" lon="-5.131572">
        <ele>183.0</ele>
        <time>2020-11-01T13:58:56Z</time>
      </trkpt>
      <trkpt lat="43.265854" lon="-5.131585">
        <ele>183.0</ele>
        <time>2020-11-01T13:58:57Z</time>
      </trkpt>
      <trkpt lat="43.265865" lon="-5.1316037">
        <ele>183.0</ele>
        <time>2020-11-01T13:58:58Z</time>
      </trkpt>
      <trkpt lat="43.265865" lon="-5.1316214">
        <ele>183.0</ele>
        <time>2020-11-01T13:58:59Z</time>
      </trkpt>
      <trkpt lat="43.265865" lon="-5.1316376">
        <ele>183.0</ele>
        <time>2020-11-01T13:59:00Z</time>
      </trkpt>
      <trkpt lat="43.265865" lon="-5.1316524">
        <ele>183.0</ele>
        <time>2020-11-01T13:59:01Z</time>
      </trkpt>
      <trkpt lat="43.26587" lon="-5.1316657">
        <ele>183.0</ele>
        <time>2020-11-01T13:59:02Z</time>
      </trkpt>
      <trkpt lat="43.265873" lon="-5.1316795">
        <ele>185.0</ele>
        <time>2020-11-01T13:59:03Z</time>
      </trkpt>
      <trkpt lat="43.265873" lon="-5.131693">
        <ele>185.0</ele>
        <time>2020-11-01T13:59:05Z</time>
      </trkpt>
      <trkpt lat="43.26588" lon="-5.1317058">
        <ele>185.0</ele>
        <time>2020-11-01T13:59:05Z</time>
      </trkpt>
      <trkpt lat="43.26589" lon="-5.1317186">
        <ele>185.0</ele>
        <time>2020-11-01T13:59:06Z</time>
      </trkpt>
      <trkpt lat="43.265896" lon="-5.131733">
        <ele>186.0</ele>
        <time>2020-11-01T13:59:07Z</time>
      </trkpt>
      <trkpt lat="43.2659" lon="-5.1317472">
        <ele>186.0</ele>
        <time>2020-11-01T13:59:08Z</time>
      </trkpt>
      <trkpt lat="43.265903" lon="-5.131761">
        <ele>186.0</ele>
        <time>2020-11-01T13:59:09Z</time>
      </trkpt>
      <trkpt lat="43.265903" lon="-5.1317735">
        <ele>186.0</ele>
        <time>2020-11-01T13:59:10Z</time>
      </trkpt>
      <trkpt lat="43.26591" lon="-5.131784">
        <ele>186.0</ele>
        <time>2020-11-01T13:59:11Z</time>
      </trkpt>
      <trkpt lat="43.26591" lon="-5.131792">
        <ele>186.0</ele>
        <time>2020-11-01T13:59:12Z</time>
      </trkpt>
      <trkpt lat="43.265915" lon="-5.131802">
        <ele>186.0</ele>
        <time>2020-11-01T13:59:13Z</time>
      </trkpt>
      <trkpt lat="43.265915" lon="-5.131813">
        <ele>186.0</ele>
        <time>2020-11-01T13:59:14Z</time>
      </trkpt>
      <trkpt lat="43.26592" lon="-5.1318245">
        <ele>187.0</ele>
        <time>2020-11-01T13:59:15Z</time>
      </trkpt>
      <trkpt lat="43.265926" lon="-5.131835">
        <ele>187.0</ele>
        <time>2020-11-01T13:59:16Z</time>
      </trkpt>
      <trkpt lat="43.26593" lon="-5.131846">
        <ele>187.0</ele>
        <time>2020-11-01T13:59:18Z</time>
      </trkpt>
      <trkpt lat="43.265934" lon="-5.131856">
        <ele>187.0</ele>
        <time>2020-11-01T13:59:18Z</time>
      </trkpt>
      <trkpt lat="43.26594" lon="-5.131865">
        <ele>187.0</ele>
        <time>2020-11-01T13:59:19Z</time>
      </trkpt>
      <trkpt lat="43.265945" lon="-5.131873">
        <ele>187.0</ele>
        <time>2020-11-01T13:59:20Z</time>
      </trkpt>
      <trkpt lat="43.265945" lon="-5.1318817">
        <ele>187.0</ele>
        <time>2020-11-01T13:59:21Z</time>
      </trkpt>
      <trkpt lat="43.265945" lon="-5.1318874">
        <ele>187.0</ele>
        <time>2020-11-01T13:59:21Z</time>
      </trkpt>
      <trkpt lat="43.26595" lon="-5.131894">
        <ele>187.0</ele>
        <time>2020-11-01T13:59:22Z</time>
      </trkpt>
      <trkpt lat="43.265957" lon="-5.1318984">
        <ele>187.0</ele>
        <time>2020-11-01T13:59:23Z</time>
      </trkpt>
      <trkpt lat="43.26596" lon="-5.131905">
        <ele>187.0</ele>
        <time>2020-11-01T13:59:24Z</time>
      </trkpt>
      <trkpt lat="43.265965" lon="-5.131913">
        <ele>187.0</ele>
        <time>2020-11-01T13:59:25Z</time>
      </trkpt>
      <trkpt lat="43.265972" lon="-5.131922">
        <ele>187.0</ele>
        <time>2020-11-01T13:59:26Z</time>
      </trkpt>
      <trkpt lat="43.265976" lon="-5.13193">
        <ele>187.0</ele>
        <time>2020-11-01T13:59:27Z</time>
      </trkpt>
      <trkpt lat="43.265987" lon="-5.131939">
        <ele>187.0</ele>
        <time>2020-11-01T13:59:28Z</time>
      </trkpt>
      <trkpt lat="43.265995" lon="-5.1319475">
        <ele>187.0</ele>
        <time>2020-11-01T13:59:29Z</time>
      </trkpt>
      <trkpt lat="43.266003" lon="-5.1319547">
        <ele>187.0</ele>
        <time>2020-11-01T13:59:30Z</time>
      </trkpt>
      <trkpt lat="43.26601" lon="-5.1319623">
        <ele>187.0</ele>
        <time>2020-11-01T13:59:32Z</time>
      </trkpt>
      <trkpt lat="43.26602" lon="-5.1319714">
        <ele>187.0</ele>
        <time>2020-11-01T13:59:32Z</time>
      </trkpt>
      <trkpt lat="43.26603" lon="-5.1319814">
        <ele>187.0</ele>
        <time>2020-11-01T13:59:33Z</time>
      </trkpt>
      <trkpt lat="43.266037" lon="-5.13199">
        <ele>187.0</ele>
        <time>2020-11-01T13:59:34Z</time>
      </trkpt>
      <trkpt lat="43.266045" lon="-5.1319966">
        <ele>187.0</ele>
        <time>2020-11-01T13:59:35Z</time>
      </trkpt>
      <trkpt lat="43.26605" lon="-5.132003">
        <ele>187.0</ele>
        <time>2020-11-01T13:59:36Z</time>
      </trkpt>
      <trkpt lat="43.266052" lon="-5.1320086">
        <ele>187.0</ele>
        <time>2020-11-01T13:59:37Z</time>
      </trkpt>
      <trkpt lat="43.266064" lon="-5.1320133">
        <ele>187.0</ele>
        <time>2020-11-01T13:59:38Z</time>
      </trkpt>
      <trkpt lat="43.266068" lon="-5.1320186">
        <ele>187.0</ele>
        <time>2020-11-01T13:59:40Z</time>
      </trkpt>
      <trkpt lat="43.266075" lon="-5.132023">
        <ele>187.0</ele>
        <time>2020-11-01T13:59:40Z</time>
      </trkpt>
      <trkpt lat="43.26608" lon="-5.1320267">
        <ele>187.0</ele>
        <time>2020-11-01T13:59:41Z</time>
      </trkpt>
      <trkpt lat="43.26609" lon="-5.1320314">
        <ele>187.0</ele>
        <time>2020-11-01T13:59:42Z</time>
      </trkpt>
      <trkpt lat="43.26609" lon="-5.1320357">
        <ele>187.0</ele>
        <time>2020-11-01T13:59:43Z</time>
      </trkpt>
      <trkpt lat="43.266094" lon="-5.1320376">
        <ele>187.0</ele>
        <time>2020-11-01T13:59:44Z</time>
      </trkpt>
      <trkpt lat="43.266094" lon="-5.1320376">
        <ele>187.0</ele>
        <time>2020-11-01T13:59:45Z</time>
      </trkpt>
      <trkpt lat="43.266094" lon="-5.132041">
        <ele>187.0</ele>
        <time>2020-11-01T13:59:46Z</time>
      </trkpt>
      <trkpt lat="43.266098" lon="-5.1320443">
        <ele>187.0</ele>
        <time>2020-11-01T13:59:48Z</time>
      </trkpt>
      <trkpt lat="43.266106" lon="-5.1320457">
        <ele>187.0</ele>
        <time>2020-11-01T13:59:48Z</time>
      </trkpt>
      <trkpt lat="43.26611" lon="-5.1320467">
        <ele>187.0</ele>
        <time>2020-11-01T13:59:49Z</time>
      </trkpt>
      <trkpt lat="43.26611" lon="-5.1320477">
        <ele>187.0</ele>
        <time>2020-11-01T13:59:50Z</time>
      </trkpt>
      <trkpt lat="43.26611" lon="-5.1320505">
        <ele>186.0</ele>
        <time>2020-11-01T13:59:51Z</time>
      </trkpt>
      <trkpt lat="43.266113" lon="-5.132054">
        <ele>186.0</ele>
        <time>2020-11-01T13:59:52Z</time>
      </trkpt>
      <trkpt lat="43.266125" lon="-5.13206">
        <ele>186.0</ele>
        <time>2020-11-01T13:59:53Z</time>
      </trkpt>
      <trkpt lat="43.266136" lon="-5.132065">
        <ele>186.0</ele>
        <time>2020-11-01T13:59:54Z</time>
      </trkpt>
      <trkpt lat="43.26614" lon="-5.1320705">
        <ele>186.0</ele>
        <time>2020-11-01T13:59:56Z</time>
      </trkpt>
      <trkpt lat="43.266155" lon="-5.132077">
        <ele>186.0</ele>
        <time>2020-11-01T13:59:56Z</time>
      </trkpt>
      <trkpt lat="43.266167" lon="-5.132085">
        <ele>185.0</ele>
        <time>2020-11-01T13:59:57Z</time>
      </trkpt>
      <trkpt lat="43.266174" lon="-5.132093">
        <ele>185.0</ele>
        <time>2020-11-01T13:59:58Z</time>
      </trkpt>
      <trkpt lat="43.26619" lon="-5.132103">
        <ele>185.0</ele>
        <time>2020-11-01T13:59:59Z</time>
      </trkpt>
      <trkpt lat="43.266197" lon="-5.1321106">
        <ele>185.0</ele>
        <time>2020-11-01T14:00:00Z</time>
      </trkpt>
      <trkpt lat="43.2662" lon="-5.132117">
        <ele>185.0</ele>
        <time>2020-11-01T14:00:01Z</time>
      </trkpt>
      <trkpt lat="43.2662" lon="-5.1321216">
        <ele>185.0</ele>
        <time>2020-11-01T14:00:02Z</time>
      </trkpt>
      <trkpt lat="43.2662" lon="-5.132125">
        <ele>185.0</ele>
        <time>2020-11-01T14:00:03Z</time>
      </trkpt>
      <trkpt lat="43.266197" lon="-5.132131">
        <ele>185.0</ele>
        <time>2020-11-01T14:00:04Z</time>
      </trkpt>
      <trkpt lat="43.26619" lon="-5.1321397">
        <ele>185.0</ele>
        <time>2020-11-01T14:00:05Z</time>
      </trkpt>
      <trkpt lat="43.26619" lon="-5.1321497">
        <ele>185.0</ele>
        <time>2020-11-01T14:00:06Z</time>
      </trkpt>
      <trkpt lat="43.266197" lon="-5.13216">
        <ele>185.0</ele>
        <time>2020-11-01T14:00:07Z</time>
      </trkpt>
      <trkpt lat="43.2662" lon="-5.1321707">
        <ele>184.0</ele>
        <time>2020-11-01T14:00:08Z</time>
      </trkpt>
      <trkpt lat="43.266205" lon="-5.1321807">
        <ele>184.0</ele>
        <time>2020-11-01T14:00:09Z</time>
      </trkpt>
      <trkpt lat="43.266212" lon="-5.132189">
        <ele>184.0</ele>
        <time>2020-11-01T14:00:10Z</time>
      </trkpt>
      <trkpt lat="43.266224" lon="-5.132198">
        <ele>184.0</ele>
        <time>2020-11-01T14:00:11Z</time>
      </trkpt>
      <trkpt lat="43.266228" lon="-5.1322074">
        <ele>184.0</ele>
        <time>2020-11-01T14:00:12Z</time>
      </trkpt>
      <trkpt lat="43.26624" lon="-5.1322155">
        <ele>183.0</ele>
        <time>2020-11-01T14:00:13Z</time>
      </trkpt>
      <trkpt lat="43.266247" lon="-5.132222">
        <ele>183.0</ele>
        <time>2020-11-01T14:00:14Z</time>
      </trkpt>
      <trkpt lat="43.26626" lon="-5.1322284">
        <ele>183.0</ele>
        <time>2020-11-01T14:00:15Z</time>
      </trkpt>
      <trkpt lat="43.266262" lon="-5.132234">
        <ele>183.0</ele>
        <time>2020-11-01T14:00:16Z</time>
      </trkpt>
      <trkpt lat="43.266273" lon="-5.132241">
        <ele>183.0</ele>
        <time>2020-11-01T14:00:17Z</time>
      </trkpt>
      <trkpt lat="43.266277" lon="-5.1322484">
        <ele>183.0</ele>
        <time>2020-11-01T14:00:18Z</time>
      </trkpt>
      <trkpt lat="43.26629" lon="-5.1322565">
        <ele>183.0</ele>
        <time>2020-11-01T14:00:19Z</time>
      </trkpt>
      <trkpt lat="43.2663" lon="-5.1322637">
        <ele>183.0</ele>
        <time>2020-11-01T14:00:20Z</time>
      </trkpt>
      <trkpt lat="43.266308" lon="-5.13227">
        <ele>183.0</ele>
        <time>2020-11-01T14:00:21Z</time>
      </trkpt>
      <trkpt lat="43.26632" lon="-5.1322756">
        <ele>183.0</ele>
        <time>2020-11-01T14:00:22Z</time>
      </trkpt>
      <trkpt lat="43.26633" lon="-5.1322827">
        <ele>183.0</ele>
        <time>2020-11-01T14:00:24Z</time>
      </trkpt>
      <trkpt lat="43.26634" lon="-5.1322904">
        <ele>183.0</ele>
        <time>2020-11-01T14:00:24Z</time>
      </trkpt>
      <trkpt lat="43.266354" lon="-5.1323013">
        <ele>183.0</ele>
        <time>2020-11-01T14:00:25Z</time>
      </trkpt>
      <trkpt lat="43.26637" lon="-5.132313">
        <ele>183.0</ele>
        <time>2020-11-01T14:00:26Z</time>
      </trkpt>
      <trkpt lat="43.26638" lon="-5.1323266">
        <ele>183.0</ele>
        <time>2020-11-01T14:00:27Z</time>
      </trkpt>
      <trkpt lat="43.266396" lon="-5.132338">
        <ele>183.0</ele>
        <time>2020-11-01T14:00:28Z</time>
      </trkpt>
      <trkpt lat="43.266407" lon="-5.132349">
        <ele>183.0</ele>
        <time>2020-11-01T14:00:29Z</time>
      </trkpt>
      <trkpt lat="43.26642" lon="-5.132359">
        <ele>183.0</ele>
        <time>2020-11-01T14:00:30Z</time>
      </trkpt>
      <trkpt lat="43.266426" lon="-5.132371">
        <ele>183.0</ele>
        <time>2020-11-01T14:00:31Z</time>
      </trkpt>
      <trkpt lat="43.266434" lon="-5.132382">
        <ele>183.0</ele>
        <time>2020-11-01T14:00:32Z</time>
      </trkpt>
      <trkpt lat="43.26644" lon="-5.1323924">
        <ele>183.0</ele>
        <time>2020-11-01T14:00:33Z</time>
      </trkpt>
      <trkpt lat="43.266457" lon="-5.1324043">
        <ele>183.0</ele>
        <time>2020-11-01T14:00:34Z</time>
      </trkpt>
      <trkpt lat="43.266468" lon="-5.132418">
        <ele>183.0</ele>
        <time>2020-11-01T14:00:35Z</time>
      </trkpt>
      <trkpt lat="43.26648" lon="-5.1324306">
        <ele>183.0</ele>
        <time>2020-11-01T14:00:36Z</time>
      </trkpt>
      <trkpt lat="43.266495" lon="-5.1324444">
        <ele>183.0</ele>
        <time>2020-11-01T14:00:37Z</time>
      </trkpt>
      <trkpt lat="43.26651" lon="-5.1324596">
        <ele>183.0</ele>
        <time>2020-11-01T14:00:38Z</time>
      </trkpt>
      <trkpt lat="43.266525" lon="-5.132471">
        <ele>183.0</ele>
        <time>2020-11-01T14:00:39Z</time>
      </trkpt>
      <trkpt lat="43.266533" lon="-5.132482">
        <ele>183.0</ele>
        <time>2020-11-01T14:00:40Z</time>
      </trkpt>
      <trkpt lat="43.266544" lon="-5.132496">
        <ele>183.0</ele>
        <time>2020-11-01T14:00:41Z</time>
      </trkpt>
      <trkpt lat="43.266556" lon="-5.1325097">
        <ele>183.0</ele>
        <time>2020-11-01T14:00:42Z</time>
      </trkpt>
      <trkpt lat="43.26656" lon="-5.132523">
        <ele>183.0</ele>
        <time>2020-11-01T14:00:43Z</time>
      </trkpt>
      <trkpt lat="43.26657" lon="-5.132535">
        <ele>183.0</ele>
        <time>2020-11-01T14:00:44Z</time>
      </trkpt>
      <trkpt lat="43.266575" lon="-5.132545">
        <ele>183.0</ele>
        <time>2020-11-01T14:00:45Z</time>
      </trkpt>
      <trkpt lat="43.26658" lon="-5.132551">
        <ele>183.0</ele>
        <time>2020-11-01T14:00:46Z</time>
      </trkpt>
      <trkpt lat="43.266586" lon="-5.132555">
        <ele>183.0</ele>
        <time>2020-11-01T14:00:48Z</time>
      </trkpt>
      <trkpt lat="43.266594" lon="-5.132559">
        <ele>183.0</ele>
        <time>2020-11-01T14:00:48Z</time>
      </trkpt>
      <trkpt lat="43.2666" lon="-5.1325684">
        <ele>183.0</ele>
        <time>2020-11-01T14:00:49Z</time>
      </trkpt>
      <trkpt lat="43.266605" lon="-5.132585">
        <ele>183.0</ele>
        <time>2020-11-01T14:00:50Z</time>
      </trkpt>
      <trkpt lat="43.266613" lon="-5.1326013">
        <ele>183.0</ele>
        <time>2020-11-01T14:00:51Z</time>
      </trkpt>
      <trkpt lat="43.266617" lon="-5.1326156">
        <ele>183.0</ele>
        <time>2020-11-01T14:00:52Z</time>
      </trkpt>
      <trkpt lat="43.26662" lon="-5.1326275">
        <ele>183.0</ele>
        <time>2020-11-01T14:00:53Z</time>
      </trkpt>
      <trkpt lat="43.26663" lon="-5.132638">
        <ele>183.0</ele>
        <time>2020-11-01T14:00:54Z</time>
      </trkpt>
      <trkpt lat="43.266636" lon="-5.1326475">
        <ele>183.0</ele>
        <time>2020-11-01T14:00:55Z</time>
      </trkpt>
      <trkpt lat="43.266647" lon="-5.132656">
        <ele>183.0</ele>
        <time>2020-11-01T14:00:56Z</time>
      </trkpt>
      <trkpt lat="43.26665" lon="-5.132665">
        <ele>183.0</ele>
        <time>2020-11-01T14:00:57Z</time>
      </trkpt>
      <trkpt lat="43.266663" lon="-5.1326747">
        <ele>183.0</ele>
        <time>2020-11-01T14:00:58Z</time>
      </trkpt>
      <trkpt lat="43.266666" lon="-5.132685">
        <ele>183.0</ele>
        <time>2020-11-01T14:00:59Z</time>
      </trkpt>
      <trkpt lat="43.266674" lon="-5.132695">
        <ele>183.0</ele>
        <time>2020-11-01T14:01:00Z</time>
      </trkpt>
      <trkpt lat="43.266678" lon="-5.132704">
        <ele>183.0</ele>
        <time>2020-11-01T14:01:01Z</time>
      </trkpt>
      <trkpt lat="43.26669" lon="-5.132713">
        <ele>183.0</ele>
        <time>2020-11-01T14:01:02Z</time>
      </trkpt>
      <trkpt lat="43.266697" lon="-5.1327224">
        <ele>183.0</ele>
        <time>2020-11-01T14:01:03Z</time>
      </trkpt>
      <trkpt lat="43.26671" lon="-5.1327324">
        <ele>183.0</ele>
        <time>2020-11-01T14:01:04Z</time>
      </trkpt>
      <trkpt lat="43.26672" lon="-5.132742">
        <ele>183.0</ele>
        <time>2020-11-01T14:01:05Z</time>
      </trkpt>
      <trkpt lat="43.266724" lon="-5.1327515">
        <ele>183.0</ele>
        <time>2020-11-01T14:01:06Z</time>
      </trkpt>
      <trkpt lat="43.266727" lon="-5.13276">
        <ele>183.0</ele>
        <time>2020-11-01T14:01:07Z</time>
      </trkpt>
      <trkpt lat="43.266727" lon="-5.1327662">
        <ele>183.0</ele>
        <time>2020-11-01T14:01:09Z</time>
      </trkpt>
      <trkpt lat="43.266735" lon="-5.132772">
        <ele>183.0</ele>
        <time>2020-11-01T14:01:09Z</time>
      </trkpt>
      <trkpt lat="43.266743" lon="-5.1327777">
        <ele>183.0</ele>
        <time>2020-11-01T14:01:10Z</time>
      </trkpt>
      <trkpt lat="43.266754" lon="-5.1327863">
        <ele>183.0</ele>
        <time>2020-11-01T14:01:11Z</time>
      </trkpt>
      <trkpt lat="43.266758" lon="-5.1327944">
        <ele>183.0</ele>
        <time>2020-11-01T14:01:12Z</time>
      </trkpt>
      <trkpt lat="43.266766" lon="-5.132803">
        <ele>183.0</ele>
        <time>2020-11-01T14:01:13Z</time>
      </trkpt>
      <trkpt lat="43.266773" lon="-5.1328135">
        <ele>183.0</ele>
        <time>2020-11-01T14:01:14Z</time>
      </trkpt>
      <trkpt lat="43.26678" lon="-5.1328254">
        <ele>183.0</ele>
        <time>2020-11-01T14:01:15Z</time>
      </trkpt>
      <trkpt lat="43.26678" lon="-5.1328382">
        <ele>183.0</ele>
        <time>2020-11-01T14:01:17Z</time>
      </trkpt>
      <trkpt lat="43.266785" lon="-5.132853">
        <ele>183.0</ele>
        <time>2020-11-01T14:01:17Z</time>
      </trkpt>
      <trkpt lat="43.266792" lon="-5.1328683">
        <ele>183.0</ele>
        <time>2020-11-01T14:01:18Z</time>
      </trkpt>
      <trkpt lat="43.266796" lon="-5.132881">
        <ele>183.0</ele>
        <time>2020-11-01T14:01:19Z</time>
      </trkpt>
      <trkpt lat="43.266796" lon="-5.1328964">
        <ele>183.0</ele>
        <time>2020-11-01T14:01:20Z</time>
      </trkpt>
      <trkpt lat="43.2668" lon="-5.1329107">
        <ele>183.0</ele>
        <time>2020-11-01T14:01:21Z</time>
      </trkpt>
      <trkpt lat="43.2668" lon="-5.1329217">
        <ele>183.0</ele>
        <time>2020-11-01T14:01:22Z</time>
      </trkpt>
      <trkpt lat="43.266796" lon="-5.1329303">
        <ele>184.0</ele>
        <time>2020-11-01T14:01:23Z</time>
      </trkpt>
      <trkpt lat="43.266785" lon="-5.1329365">
        <ele>184.0</ele>
        <time>2020-11-01T14:01:24Z</time>
      </trkpt>
      <trkpt lat="43.26678" lon="-5.132943">
        <ele>184.0</ele>
        <time>2020-11-01T14:01:25Z</time>
      </trkpt>
      <trkpt lat="43.26677" lon="-5.1329494">
        <ele>184.0</ele>
        <time>2020-11-01T14:01:26Z</time>
      </trkpt>
      <trkpt lat="43.266766" lon="-5.1329565">
        <ele>184.0</ele>
        <time>2020-11-01T14:01:27Z</time>
      </trkpt>
      <trkpt lat="43.266758" lon="-5.132965">
        <ele>184.0</ele>
        <time>2020-11-01T14:01:28Z</time>
      </trkpt>
      <trkpt lat="43.266754" lon="-5.132973">
        <ele>184.0</ele>
        <time>2020-11-01T14:01:29Z</time>
      </trkpt>
      <trkpt lat="43.26675" lon="-5.132981">
        <ele>184.0</ele>
        <time>2020-11-01T14:01:30Z</time>
      </trkpt>
      <trkpt lat="43.26675" lon="-5.1329885">
        <ele>184.0</ele>
        <time>2020-11-01T14:01:31Z</time>
      </trkpt>
      <trkpt lat="43.26675" lon="-5.132997">
        <ele>184.0</ele>
        <time>2020-11-01T14:01:32Z</time>
      </trkpt>
      <trkpt lat="43.266754" lon="-5.133007">
        <ele>184.0</ele>
        <time>2020-11-01T14:01:33Z</time>
      </trkpt>
      <trkpt lat="43.266758" lon="-5.1330175">
        <ele>184.0</ele>
        <time>2020-11-01T14:01:34Z</time>
      </trkpt>
      <trkpt lat="43.266766" lon="-5.1330304">
        <ele>184.0</ele>
        <time>2020-11-01T14:01:35Z</time>
      </trkpt>
      <trkpt lat="43.26677" lon="-5.1330457">
        <ele>184.0</ele>
        <time>2020-11-01T14:01:36Z</time>
      </trkpt>
      <trkpt lat="43.26678" lon="-5.1330624">
        <ele>184.0</ele>
        <time>2020-11-01T14:01:37Z</time>
      </trkpt>
      <trkpt lat="43.266792" lon="-5.1330814">
        <ele>184.0</ele>
        <time>2020-11-01T14:01:38Z</time>
      </trkpt>
      <trkpt lat="43.2668" lon="-5.133098">
        <ele>184.0</ele>
        <time>2020-11-01T14:01:39Z</time>
      </trkpt>
      <trkpt lat="43.26681" lon="-5.1331153">
        <ele>184.0</ele>
        <time>2020-11-01T14:01:40Z</time>
      </trkpt>
      <trkpt lat="43.266823" lon="-5.133131">
        <ele>184.0</ele>
        <time>2020-11-01T14:01:41Z</time>
      </trkpt>
      <trkpt lat="43.26683" lon="-5.1331463">
        <ele>184.0</ele>
        <time>2020-11-01T14:01:42Z</time>
      </trkpt>
      <trkpt lat="43.266838" lon="-5.1331587">
        <ele>184.0</ele>
        <time>2020-11-01T14:01:43Z</time>
      </trkpt>
      <trkpt lat="43.266853" lon="-5.133172">
        <ele>184.0</ele>
        <time>2020-11-01T14:01:44Z</time>
      </trkpt>
      <trkpt lat="43.26686" lon="-5.1331863">
        <ele>184.0</ele>
        <time>2020-11-01T14:01:45Z</time>
      </trkpt>
      <trkpt lat="43.26687" lon="-5.133199">
        <ele>184.0</ele>
        <time>2020-11-01T14:01:46Z</time>
      </trkpt>
      <trkpt lat="43.266876" lon="-5.133211">
        <ele>184.0</ele>
        <time>2020-11-01T14:01:47Z</time>
      </trkpt>
      <trkpt lat="43.266884" lon="-5.1332207">
        <ele>184.0</ele>
        <time>2020-11-01T14:01:48Z</time>
      </trkpt>
      <trkpt lat="43.266888" lon="-5.1332273">
        <ele>184.0</ele>
        <time>2020-11-01T14:01:49Z</time>
      </trkpt>
      <trkpt lat="43.26689" lon="-5.1332345">
        <ele>184.0</ele>
        <time>2020-11-01T14:01:50Z</time>
      </trkpt>
      <trkpt lat="43.26689" lon="-5.1332436">
        <ele>184.0</ele>
        <time>2020-11-01T14:01:51Z</time>
      </trkpt>
      <trkpt lat="43.26689" lon="-5.133254">
        <ele>184.0</ele>
        <time>2020-11-01T14:01:52Z</time>
      </trkpt>
      <trkpt lat="43.2669" lon="-5.1332664">
        <ele>184.0</ele>
        <time>2020-11-01T14:01:53Z</time>
      </trkpt>
      <trkpt lat="43.266903" lon="-5.1332793">
        <ele>184.0</ele>
        <time>2020-11-01T14:01:54Z</time>
      </trkpt>
      <trkpt lat="43.266914" lon="-5.1332927">
        <ele>184.0</ele>
        <time>2020-11-01T14:01:55Z</time>
      </trkpt>
      <trkpt lat="43.26692" lon="-5.1333036">
        <ele>184.0</ele>
        <time>2020-11-01T14:01:56Z</time>
      </trkpt>
      <trkpt lat="43.26693" lon="-5.1333146">
        <ele>184.0</ele>
        <time>2020-11-01T14:01:57Z</time>
      </trkpt>
      <trkpt lat="43.266933" lon="-5.1333256">
        <ele>184.0</ele>
        <time>2020-11-01T14:01:58Z</time>
      </trkpt>
      <trkpt lat="43.266945" lon="-5.1333385">
        <ele>184.0</ele>
        <time>2020-11-01T14:01:59Z</time>
      </trkpt>
      <trkpt lat="43.26695" lon="-5.1333485">
        <ele>184.0</ele>
        <time>2020-11-01T14:02:00Z</time>
      </trkpt>
      <trkpt lat="43.26696" lon="-5.133358">
        <ele>184.0</ele>
        <time>2020-11-01T14:02:01Z</time>
      </trkpt>
      <trkpt lat="43.26696" lon="-5.1333675">
        <ele>184.0</ele>
        <time>2020-11-01T14:02:02Z</time>
      </trkpt>
      <trkpt lat="43.26696" lon="-5.1333766">
        <ele>184.0</ele>
        <time>2020-11-01T14:02:03Z</time>
      </trkpt>
      <trkpt lat="43.26696" lon="-5.1333866">
        <ele>184.0</ele>
        <time>2020-11-01T14:02:04Z</time>
      </trkpt>
      <trkpt lat="43.266964" lon="-5.1333976">
        <ele>184.0</ele>
        <time>2020-11-01T14:02:05Z</time>
      </trkpt>
      <trkpt lat="43.266964" lon="-5.1334066">
        <ele>184.0</ele>
        <time>2020-11-01T14:02:06Z</time>
      </trkpt>
      <trkpt lat="43.26696" lon="-5.1334157">
        <ele>184.0</ele>
        <time>2020-11-01T14:02:07Z</time>
      </trkpt>
      <trkpt lat="43.266953" lon="-5.133424">
        <ele>184.0</ele>
        <time>2020-11-01T14:02:08Z</time>
      </trkpt>
      <trkpt lat="43.266953" lon="-5.133432">
        <ele>184.0</ele>
        <time>2020-11-01T14:02:09Z</time>
      </trkpt>
      <trkpt lat="43.266953" lon="-5.133438">
        <ele>184.0</ele>
        <time>2020-11-01T14:02:10Z</time>
      </trkpt>
      <trkpt lat="43.26695" lon="-5.1334443">
        <ele>184.0</ele>
        <time>2020-11-01T14:02:11Z</time>
      </trkpt>
      <trkpt lat="43.26695" lon="-5.1334496">
        <ele>184.0</ele>
        <time>2020-11-01T14:02:12Z</time>
      </trkpt>
      <trkpt lat="43.26695" lon="-5.1334543">
        <ele>184.0</ele>
        <time>2020-11-01T14:02:13Z</time>
      </trkpt>
      <trkpt lat="43.266953" lon="-5.133462">
        <ele>184.0</ele>
        <time>2020-11-01T14:02:14Z</time>
      </trkpt>
      <trkpt lat="43.266953" lon="-5.133469">
        <ele>184.0</ele>
        <time>2020-11-01T14:02:15Z</time>
      </trkpt>
      <trkpt lat="43.26696" lon="-5.133476">
        <ele>184.0</ele>
        <time>2020-11-01T14:02:16Z</time>
      </trkpt>
      <trkpt lat="43.266964" lon="-5.133483">
        <ele>184.0</ele>
        <time>2020-11-01T14:02:17Z</time>
      </trkpt>
      <trkpt lat="43.266968" lon="-5.13349">
        <ele>184.0</ele>
        <time>2020-11-01T14:02:18Z</time>
      </trkpt>
      <trkpt lat="43.266975" lon="-5.1334968">
        <ele>184.0</ele>
        <time>2020-11-01T14:02:19Z</time>
      </trkpt>
      <trkpt lat="43.26698" lon="-5.1335044">
        <ele>184.0</ele>
        <time>2020-11-01T14:02:20Z</time>
      </trkpt>
      <trkpt lat="43.266987" lon="-5.1335144">
        <ele>184.0</ele>
        <time>2020-11-01T14:02:21Z</time>
      </trkpt>
      <trkpt lat="43.266994" lon="-5.1335263">
        <ele>184.0</ele>
        <time>2020-11-01T14:02:22Z</time>
      </trkpt>
      <trkpt lat="43.267006" lon="-5.133538">
        <ele>184.0</ele>
        <time>2020-11-01T14:02:23Z</time>
      </trkpt>
      <trkpt lat="43.26701" lon="-5.1335483">
        <ele>184.0</ele>
        <time>2020-11-01T14:02:24Z</time>
      </trkpt>
      <trkpt lat="43.267017" lon="-5.133557">
        <ele>184.0</ele>
        <time>2020-11-01T14:02:25Z</time>
      </trkpt>
      <trkpt lat="43.26702" lon="-5.1335645">
        <ele>184.0</ele>
        <time>2020-11-01T14:02:26Z</time>
      </trkpt>
      <trkpt lat="43.26702" lon="-5.133573">
        <ele>184.0</ele>
        <time>2020-11-01T14:02:27Z</time>
      </trkpt>
      <trkpt lat="43.26702" lon="-5.1335826">
        <ele>184.0</ele>
        <time>2020-11-01T14:02:28Z</time>
      </trkpt>
      <trkpt lat="43.267017" lon="-5.133592">
        <ele>184.0</ele>
        <time>2020-11-01T14:02:29Z</time>
      </trkpt>
      <trkpt lat="43.267017" lon="-5.1336">
        <ele>184.0</ele>
        <time>2020-11-01T14:02:30Z</time>
      </trkpt>
      <trkpt lat="43.267017" lon="-5.133608">
        <ele>184.0</ele>
        <time>2020-11-01T14:02:32Z</time>
      </trkpt>
      <trkpt lat="43.267017" lon="-5.133613">
        <ele>184.0</ele>
        <time>2020-11-01T14:02:32Z</time>
      </trkpt>
      <trkpt lat="43.26701" lon="-5.133628">
        <ele>184.0</ele>
        <time>2020-11-01T14:02:35Z</time>
      </trkpt>
      <trkpt lat="43.267017" lon="-5.1336303">
        <ele>184.0</ele>
        <time>2020-11-01T14:02:36Z</time>
      </trkpt>
      <trkpt lat="43.267017" lon="-5.133635">
        <ele>184.0</ele>
        <time>2020-11-01T14:02:37Z</time>
      </trkpt>
      <trkpt lat="43.267017" lon="-5.133644">
        <ele>184.0</ele>
        <time>2020-11-01T14:02:38Z</time>
      </trkpt>
      <trkpt lat="43.26702" lon="-5.133653">
        <ele>184.0</ele>
        <time>2020-11-01T14:02:39Z</time>
      </trkpt>
      <trkpt lat="43.267025" lon="-5.1336603">
        <ele>184.0</ele>
        <time>2020-11-01T14:02:40Z</time>
      </trkpt>
      <trkpt lat="43.267025" lon="-5.1336746">
        <ele>184.0</ele>
        <time>2020-11-01T14:02:42Z</time>
      </trkpt>
      <trkpt lat="43.267033" lon="-5.1336846">
        <ele>184.0</ele>
        <time>2020-11-01T14:02:44Z</time>
      </trkpt>
      <trkpt lat="43.267036" lon="-5.133687">
        <ele>184.0</ele>
        <time>2020-11-01T14:02:45Z</time>
      </trkpt>
      <trkpt lat="43.267036" lon="-5.133689">
        <ele>184.0</ele>
        <time>2020-11-01T14:02:46Z</time>
      </trkpt>
      <trkpt lat="43.267036" lon="-5.133693">
        <ele>184.0</ele>
        <time>2020-11-01T14:02:47Z</time>
      </trkpt>
      <trkpt lat="43.267036" lon="-5.1336975">
        <ele>184.0</ele>
        <time>2020-11-01T14:02:48Z</time>
      </trkpt>
      <trkpt lat="43.267033" lon="-5.1337004">
        <ele>184.0</ele>
        <time>2020-11-01T14:02:49Z</time>
      </trkpt>
      <trkpt lat="43.267025" lon="-5.1337004">
        <ele>184.0</ele>
        <time>2020-11-01T14:02:50Z</time>
      </trkpt>
      <trkpt lat="43.266922" lon="-5.133666">
        <ele>184.0</ele>
        <time>2020-11-01T14:05:41Z</time>
      </trkpt>
      <trkpt lat="43.266922" lon="-5.133667">
        <ele>184.0</ele>
        <time>2020-11-01T14:05:42Z</time>
      </trkpt>
      <trkpt lat="43.26692" lon="-5.133668">
        <ele>184.0</ele>
        <time>2020-11-01T14:05:43Z</time>
      </trkpt>
      <trkpt lat="43.26692" lon="-5.1336713">
        <ele>184.0</ele>
        <time>2020-11-01T14:05:44Z</time>
      </trkpt>
      <trkpt lat="43.266914" lon="-5.133678">
        <ele>184.0</ele>
        <time>2020-11-01T14:05:45Z</time>
      </trkpt>
      <trkpt lat="43.266914" lon="-5.1336884">
        <ele>184.0</ele>
        <time>2020-11-01T14:05:46Z</time>
      </trkpt>
      <trkpt lat="43.26692" lon="-5.1337013">
        <ele>184.0</ele>
        <time>2020-11-01T14:05:47Z</time>
      </trkpt>
      <trkpt lat="43.266922" lon="-5.1337147">
        <ele>184.0</ele>
        <time>2020-11-01T14:05:48Z</time>
      </trkpt>
      <trkpt lat="43.26693" lon="-5.1337276">
        <ele>184.0</ele>
        <time>2020-11-01T14:05:49Z</time>
      </trkpt>
      <trkpt lat="43.266933" lon="-5.133741">
        <ele>184.0</ele>
        <time>2020-11-01T14:05:50Z</time>
      </trkpt>
      <trkpt lat="43.26693" lon="-5.133754">
        <ele>184.0</ele>
        <time>2020-11-01T14:05:51Z</time>
      </trkpt>
      <trkpt lat="43.266922" lon="-5.133765">
        <ele>184.0</ele>
        <time>2020-11-01T14:05:52Z</time>
      </trkpt>
      <trkpt lat="43.26692" lon="-5.1337776">
        <ele>184.0</ele>
        <time>2020-11-01T14:05:53Z</time>
      </trkpt>
      <trkpt lat="43.26692" lon="-5.1337895">
        <ele>184.0</ele>
        <time>2020-11-01T14:05:54Z</time>
      </trkpt>
      <trkpt lat="43.266922" lon="-5.1338024">
        <ele>184.0</ele>
        <time>2020-11-01T14:05:56Z</time>
      </trkpt>
      <trkpt lat="43.26693" lon="-5.133814">
        <ele>184.0</ele>
        <time>2020-11-01T14:05:56Z</time>
      </trkpt>
      <trkpt lat="43.26693" lon="-5.133823">
        <ele>184.0</ele>
        <time>2020-11-01T14:05:57Z</time>
      </trkpt>
      <trkpt lat="43.266933" lon="-5.133834">
        <ele>184.0</ele>
        <time>2020-11-01T14:05:58Z</time>
      </trkpt>
      <trkpt lat="43.266937" lon="-5.1338453">
        <ele>184.0</ele>
        <time>2020-11-01T14:05:59Z</time>
      </trkpt>
      <trkpt lat="43.266945" lon="-5.1338577">
        <ele>184.0</ele>
        <time>2020-11-01T14:06:00Z</time>
      </trkpt>
      <trkpt lat="43.26695" lon="-5.133871">
        <ele>184.0</ele>
        <time>2020-11-01T14:06:01Z</time>
      </trkpt>
      <trkpt lat="43.266953" lon="-5.133884">
        <ele>184.0</ele>
        <time>2020-11-01T14:06:02Z</time>
      </trkpt>
      <trkpt lat="43.26696" lon="-5.133898">
        <ele>184.0</ele>
        <time>2020-11-01T14:06:04Z</time>
      </trkpt>
      <trkpt lat="43.266964" lon="-5.133909">
        <ele>184.0</ele>
        <time>2020-11-01T14:06:04Z</time>
      </trkpt>
      <trkpt lat="43.266975" lon="-5.13392">
        <ele>184.0</ele>
        <time>2020-11-01T14:06:05Z</time>
      </trkpt>
      <trkpt lat="43.26698" lon="-5.1339307">
        <ele>184.0</ele>
        <time>2020-11-01T14:06:06Z</time>
      </trkpt>
      <trkpt lat="43.26699" lon="-5.1339407">
        <ele>184.0</ele>
        <time>2020-11-01T14:06:07Z</time>
      </trkpt>
      <trkpt lat="43.266994" lon="-5.1339493">
        <ele>184.0</ele>
        <time>2020-11-01T14:06:08Z</time>
      </trkpt>
      <trkpt lat="43.267002" lon="-5.1339593">
        <ele>184.0</ele>
        <time>2020-11-01T14:06:09Z</time>
      </trkpt>
      <trkpt lat="43.267006" lon="-5.1339707">
        <ele>184.0</ele>
        <time>2020-11-01T14:06:10Z</time>
      </trkpt>
      <trkpt lat="43.26701" lon="-5.1339827">
        <ele>184.0</ele>
        <time>2020-11-01T14:06:11Z</time>
      </trkpt>
      <trkpt lat="43.267017" lon="-5.1339927">
        <ele>184.0</ele>
        <time>2020-11-01T14:06:12Z</time>
      </trkpt>
      <trkpt lat="43.267017" lon="-5.134003">
        <ele>184.0</ele>
        <time>2020-11-01T14:06:13Z</time>
      </trkpt>
      <trkpt lat="43.26702" lon="-5.1340117">
        <ele>184.0</ele>
        <time>2020-11-01T14:06:14Z</time>
      </trkpt>
      <trkpt lat="43.26702" lon="-5.1340184">
        <ele>184.0</ele>
        <time>2020-11-01T14:06:15Z</time>
      </trkpt>
      <trkpt lat="43.267033" lon="-5.134027">
        <ele>184.0</ele>
        <time>2020-11-01T14:06:17Z</time>
      </trkpt>
      <trkpt lat="43.26704" lon="-5.1340356">
        <ele>184.0</ele>
        <time>2020-11-01T14:06:17Z</time>
      </trkpt>
      <trkpt lat="43.26705" lon="-5.1340446">
        <ele>184.0</ele>
        <time>2020-11-01T14:06:18Z</time>
      </trkpt>
      <trkpt lat="43.267063" lon="-5.134053">
        <ele>184.0</ele>
        <time>2020-11-01T14:06:19Z</time>
      </trkpt>
      <trkpt lat="43.26707" lon="-5.1340585">
        <ele>184.0</ele>
        <time>2020-11-01T14:06:20Z</time>
      </trkpt>
      <trkpt lat="43.26708" lon="-5.1340623">
        <ele>184.0</ele>
        <time>2020-11-01T14:06:21Z</time>
      </trkpt>
      <trkpt lat="43.267094" lon="-5.1340685">
        <ele>184.0</ele>
        <time>2020-11-01T14:06:22Z</time>
      </trkpt>
      <trkpt lat="43.2671" lon="-5.134078">
        <ele>184.0</ele>
        <time>2020-11-01T14:06:23Z</time>
      </trkpt>
      <trkpt lat="43.26711" lon="-5.1340885">
        <ele>184.0</ele>
        <time>2020-11-01T14:06:24Z</time>
      </trkpt>
      <trkpt lat="43.267117" lon="-5.134098">
        <ele>184.0</ele>
        <time>2020-11-01T14:06:25Z</time>
      </trkpt>
      <trkpt lat="43.267128" lon="-5.1341057">
        <ele>184.0</ele>
        <time>2020-11-01T14:06:26Z</time>
      </trkpt>
      <trkpt lat="43.26714" lon="-5.134112">
        <ele>184.0</ele>
        <time>2020-11-01T14:06:27Z</time>
      </trkpt>
      <trkpt lat="43.267143" lon="-5.1341166">
        <ele>184.0</ele>
        <time>2020-11-01T14:06:28Z</time>
      </trkpt>
      <trkpt lat="43.267147" lon="-5.1341205">
        <ele>184.0</ele>
        <time>2020-11-01T14:06:29Z</time>
      </trkpt>
      <trkpt lat="43.26716" lon="-5.134125">
        <ele>184.0</ele>
        <time>2020-11-01T14:06:30Z</time>
      </trkpt>
      <trkpt lat="43.267162" lon="-5.1341295">
        <ele>184.0</ele>
        <time>2020-11-01T14:06:32Z</time>
      </trkpt>
      <trkpt lat="43.26717" lon="-5.1341352">
        <ele>184.0</ele>
        <time>2020-11-01T14:06:32Z</time>
      </trkpt>
      <trkpt lat="43.267185" lon="-5.1341496">
        <ele>184.0</ele>
        <time>2020-11-01T14:06:34Z</time>
      </trkpt>
      <trkpt lat="43.267185" lon="-5.1341486">
        <ele>184.0</ele>
        <time>2020-11-01T14:06:35Z</time>
      </trkpt>
      <trkpt lat="43.267185" lon="-5.13415">
        <ele>184.0</ele>
        <time>2020-11-01T14:06:36Z</time>
      </trkpt>
      <trkpt lat="43.26719" lon="-5.1341524">
        <ele>184.0</ele>
        <time>2020-11-01T14:06:37Z</time>
      </trkpt>
      <trkpt lat="43.267197" lon="-5.1341543">
        <ele>184.0</ele>
        <time>2020-11-01T14:06:38Z</time>
      </trkpt>
      <trkpt lat="43.2672" lon="-5.134158">
        <ele>184.0</ele>
        <time>2020-11-01T14:06:39Z</time>
      </trkpt>
      <trkpt lat="43.267216" lon="-5.1341877">
        <ele>184.0</ele>
        <time>2020-11-01T14:06:44Z</time>
      </trkpt>
      <trkpt lat="43.267216" lon="-5.1341877">
        <ele>184.0</ele>
        <time>2020-11-01T14:06:45Z</time>
      </trkpt>
      <trkpt lat="43.26722" lon="-5.1341877">
        <ele>184.0</ele>
        <time>2020-11-01T14:06:46Z</time>
      </trkpt>
      <trkpt lat="43.267227" lon="-5.134189">
        <ele>184.0</ele>
        <time>2020-11-01T14:06:47Z</time>
      </trkpt>
      <trkpt lat="43.26723" lon="-5.1341915">
        <ele>184.0</ele>
        <time>2020-11-01T14:06:48Z</time>
      </trkpt>
      <trkpt lat="43.267235" lon="-5.1341944">
        <ele>184.0</ele>
        <time>2020-11-01T14:06:49Z</time>
      </trkpt>
      <trkpt lat="43.267235" lon="-5.1341968">
        <ele>184.0</ele>
        <time>2020-11-01T14:06:50Z</time>
      </trkpt>
      <trkpt lat="43.267242" lon="-5.134199">
        <ele>184.0</ele>
        <time>2020-11-01T14:06:51Z</time>
      </trkpt>
      <trkpt lat="43.267242" lon="-5.1342015">
        <ele>184.0</ele>
        <time>2020-11-01T14:06:52Z</time>
      </trkpt>
      <trkpt lat="43.267246" lon="-5.134205">
        <ele>184.0</ele>
        <time>2020-11-01T14:06:53Z</time>
      </trkpt>
      <trkpt lat="43.267258" lon="-5.134209">
        <ele>184.0</ele>
        <time>2020-11-01T14:06:54Z</time>
      </trkpt>
      <trkpt lat="43.267265" lon="-5.1342134">
        <ele>184.0</ele>
        <time>2020-11-01T14:06:55Z</time>
      </trkpt>
      <trkpt lat="43.267277" lon="-5.1342177">
        <ele>184.0</ele>
        <time>2020-11-01T14:06:56Z</time>
      </trkpt>
      <trkpt lat="43.26728" lon="-5.13422">
        <ele>184.0</ele>
        <time>2020-11-01T14:06:57Z</time>
      </trkpt>
      <trkpt lat="43.267292" lon="-5.1342225">
        <ele>184.0</ele>
        <time>2020-11-01T14:06:58Z</time>
      </trkpt>
      <trkpt lat="43.267296" lon="-5.134227">
        <ele>184.0</ele>
        <time>2020-11-01T14:06:59Z</time>
      </trkpt>
      <trkpt lat="43.267307" lon="-5.1342325">
        <ele>184.0</ele>
        <time>2020-11-01T14:07:00Z</time>
      </trkpt>
      <trkpt lat="43.26731" lon="-5.134239">
        <ele>184.0</ele>
        <time>2020-11-01T14:07:01Z</time>
      </trkpt>
      <trkpt lat="43.267323" lon="-5.1342463">
        <ele>184.0</ele>
        <time>2020-11-01T14:07:02Z</time>
      </trkpt>
      <trkpt lat="43.267334" lon="-5.134253">
        <ele>184.0</ele>
        <time>2020-11-01T14:07:03Z</time>
      </trkpt>
      <trkpt lat="43.26734" lon="-5.134258">
        <ele>184.0</ele>
        <time>2020-11-01T14:07:04Z</time>
      </trkpt>
      <trkpt lat="43.267353" lon="-5.1342626">
        <ele>184.0</ele>
        <time>2020-11-01T14:07:05Z</time>
      </trkpt>
      <trkpt lat="43.267365" lon="-5.1342688">
        <ele>184.0</ele>
        <time>2020-11-01T14:07:06Z</time>
      </trkpt>
      <trkpt lat="43.267376" lon="-5.1342773">
        <ele>184.0</ele>
        <time>2020-11-01T14:07:07Z</time>
      </trkpt>
      <trkpt lat="43.267384" lon="-5.134284">
        <ele>184.0</ele>
        <time>2020-11-01T14:07:08Z</time>
      </trkpt>
      <trkpt lat="43.26739" lon="-5.13429">
        <ele>184.0</ele>
        <time>2020-11-01T14:07:09Z</time>
      </trkpt>
      <trkpt lat="43.267395" lon="-5.134294">
        <ele>184.0</ele>
        <time>2020-11-01T14:07:10Z</time>
      </trkpt>
      <trkpt lat="43.267395" lon="-5.134296">
        <ele>184.0</ele>
        <time>2020-11-01T14:07:11Z</time>
      </trkpt>
      <trkpt lat="43.26741" lon="-5.1343074">
        <ele>184.0</ele>
        <time>2020-11-01T14:07:13Z</time>
      </trkpt>
      <trkpt lat="43.26741" lon="-5.134307">
        <ele>184.0</ele>
        <time>2020-11-01T14:07:14Z</time>
      </trkpt>
      <trkpt lat="43.26741" lon="-5.1343102">
        <ele>184.0</ele>
        <time>2020-11-01T14:07:15Z</time>
      </trkpt>
      <trkpt lat="43.267414" lon="-5.1343145">
        <ele>184.0</ele>
        <time>2020-11-01T14:07:16Z</time>
      </trkpt>
      <trkpt lat="43.267414" lon="-5.13432">
        <ele>184.0</ele>
        <time>2020-11-01T14:07:17Z</time>
      </trkpt>
      <trkpt lat="43.26742" lon="-5.134325">
        <ele>184.0</ele>
        <time>2020-11-01T14:07:18Z</time>
      </trkpt>
      <trkpt lat="43.267426" lon="-5.1343303">
        <ele>184.0</ele>
        <time>2020-11-01T14:07:19Z</time>
      </trkpt>
      <trkpt lat="43.26743" lon="-5.1343365">
        <ele>184.0</ele>
        <time>2020-11-01T14:07:20Z</time>
      </trkpt>
      <trkpt lat="43.267437" lon="-5.134342">
        <ele>184.0</ele>
        <time>2020-11-01T14:07:21Z</time>
      </trkpt>
      <trkpt lat="43.26744" lon="-5.1343513">
        <ele>184.0</ele>
        <time>2020-11-01T14:07:22Z</time>
      </trkpt>
      <trkpt lat="43.267445" lon="-5.1343627">
        <ele>184.0</ele>
        <time>2020-11-01T14:07:23Z</time>
      </trkpt>
      <trkpt lat="43.267452" lon="-5.1343713">
        <ele>183.0</ele>
        <time>2020-11-01T14:07:24Z</time>
      </trkpt>
      <trkpt lat="43.267456" lon="-5.1343784">
        <ele>183.0</ele>
        <time>2020-11-01T14:07:25Z</time>
      </trkpt>
      <trkpt lat="43.26746" lon="-5.1343846">
        <ele>183.0</ele>
        <time>2020-11-01T14:07:26Z</time>
      </trkpt>
      <trkpt lat="43.267467" lon="-5.1343894">
        <ele>183.0</ele>
        <time>2020-11-01T14:07:27Z</time>
      </trkpt>
      <trkpt lat="43.267475" lon="-5.134411">
        <ele>183.0</ele>
        <time>2020-11-01T14:07:29Z</time>
      </trkpt>
      <trkpt lat="43.267475" lon="-5.134414">
        <ele>183.0</ele>
        <time>2020-11-01T14:07:30Z</time>
      </trkpt>
      <trkpt lat="43.267483" lon="-5.134421">
        <ele>183.0</ele>
        <time>2020-11-01T14:07:31Z</time>
      </trkpt>
      <trkpt lat="43.26749" lon="-5.13443">
        <ele>183.0</ele>
        <time>2020-11-01T14:07:32Z</time>
      </trkpt>
      <trkpt lat="43.267498" lon="-5.1344404">
        <ele>183.0</ele>
        <time>2020-11-01T14:07:33Z</time>
      </trkpt>
      <trkpt lat="43.2675" lon="-5.13445">
        <ele>183.0</ele>
        <time>2020-11-01T14:07:34Z</time>
      </trkpt>
      <trkpt lat="43.267506" lon="-5.13446">
        <ele>183.0</ele>
        <time>2020-11-01T14:07:35Z</time>
      </trkpt>
      <trkpt lat="43.267506" lon="-5.13447">
        <ele>183.0</ele>
        <time>2020-11-01T14:07:36Z</time>
      </trkpt>
      <trkpt lat="43.267513" lon="-5.134482">
        <ele>183.0</ele>
        <time>2020-11-01T14:07:37Z</time>
      </trkpt>
      <trkpt lat="43.267517" lon="-5.134496">
        <ele>183.0</ele>
        <time>2020-11-01T14:07:38Z</time>
      </trkpt>
      <trkpt lat="43.26752" lon="-5.1345134">
        <ele>182.0</ele>
        <time>2020-11-01T14:07:39Z</time>
      </trkpt>
      <trkpt lat="43.26753" lon="-5.134533">
        <ele>182.0</ele>
        <time>2020-11-01T14:07:40Z</time>
      </trkpt>
      <trkpt lat="43.267532" lon="-5.1345515">
        <ele>182.0</ele>
        <time>2020-11-01T14:07:41Z</time>
      </trkpt>
      <trkpt lat="43.267544" lon="-5.1345673">
        <ele>182.0</ele>
        <time>2020-11-01T14:07:42Z</time>
      </trkpt>
      <trkpt lat="43.26755" lon="-5.1345806">
        <ele>182.0</ele>
        <time>2020-11-01T14:07:43Z</time>
      </trkpt>
      <trkpt lat="43.26756" lon="-5.1345935">
        <ele>182.0</ele>
        <time>2020-11-01T14:07:44Z</time>
      </trkpt>
      <trkpt lat="43.267563" lon="-5.134603">
        <ele>182.0</ele>
        <time>2020-11-01T14:07:45Z</time>
      </trkpt>
      <trkpt lat="43.267563" lon="-5.1346126">
        <ele>182.0</ele>
        <time>2020-11-01T14:07:46Z</time>
      </trkpt>
      <trkpt lat="43.26757" lon="-5.1346216">
        <ele>182.0</ele>
        <time>2020-11-01T14:07:47Z</time>
      </trkpt>
      <trkpt lat="43.26757" lon="-5.134626">
        <ele>182.0</ele>
        <time>2020-11-01T14:07:48Z</time>
      </trkpt>
      <trkpt lat="43.26758" lon="-5.1346273">
        <ele>182.0</ele>
        <time>2020-11-01T14:07:49Z</time>
      </trkpt>
      <trkpt lat="43.26759" lon="-5.134628">
        <ele>182.0</ele>
        <time>2020-11-01T14:07:50Z</time>
      </trkpt>
      <trkpt lat="43.267593" lon="-5.1346273">
        <ele>182.0</ele>
        <time>2020-11-01T14:07:51Z</time>
      </trkpt>
      <trkpt lat="43.2676" lon="-5.134628">
        <ele>182.0</ele>
        <time>2020-11-01T14:07:51Z</time>
      </trkpt>
      <trkpt lat="43.267605" lon="-5.13463">
        <ele>182.0</ele>
        <time>2020-11-01T14:07:52Z</time>
      </trkpt>
      <trkpt lat="43.26761" lon="-5.1346316">
        <ele>182.0</ele>
        <time>2020-11-01T14:07:53Z</time>
      </trkpt>
      <trkpt lat="43.267616" lon="-5.1346345">
        <ele>182.0</ele>
        <time>2020-11-01T14:07:54Z</time>
      </trkpt>
      <trkpt lat="43.267616" lon="-5.1346364">
        <ele>182.0</ele>
        <time>2020-11-01T14:07:55Z</time>
      </trkpt>
      <trkpt lat="43.267616" lon="-5.1346393">
        <ele>182.0</ele>
        <time>2020-11-01T14:07:56Z</time>
      </trkpt>
      <trkpt lat="43.26762" lon="-5.134643">
        <ele>182.0</ele>
        <time>2020-11-01T14:07:57Z</time>
      </trkpt>
      <trkpt lat="43.26762" lon="-5.134647">
        <ele>182.0</ele>
        <time>2020-11-01T14:07:58Z</time>
      </trkpt>
      <trkpt lat="43.267624" lon="-5.1346574">
        <ele>182.0</ele>
        <time>2020-11-01T14:08:00Z</time>
      </trkpt>
      <trkpt lat="43.267624" lon="-5.134658">
        <ele>182.0</ele>
        <time>2020-11-01T14:08:01Z</time>
      </trkpt>
      <trkpt lat="43.26762" lon="-5.1346607">
        <ele>182.0</ele>
        <time>2020-11-01T14:08:02Z</time>
      </trkpt>
      <trkpt lat="43.26762" lon="-5.1346674">
        <ele>182.0</ele>
        <time>2020-11-01T14:08:03Z</time>
      </trkpt>
      <trkpt lat="43.26762" lon="-5.134676">
        <ele>182.0</ele>
        <time>2020-11-01T14:08:04Z</time>
      </trkpt>
      <trkpt lat="43.267624" lon="-5.1346865">
        <ele>182.0</ele>
        <time>2020-11-01T14:08:05Z</time>
      </trkpt>
      <trkpt lat="43.267624" lon="-5.1346974">
        <ele>182.0</ele>
        <time>2020-11-01T14:08:06Z</time>
      </trkpt>
      <trkpt lat="43.26763" lon="-5.1347103">
        <ele>182.0</ele>
        <time>2020-11-01T14:08:07Z</time>
      </trkpt>
      <trkpt lat="43.267635" lon="-5.1347237">
        <ele>182.0</ele>
        <time>2020-11-01T14:08:08Z</time>
      </trkpt>
      <trkpt lat="43.267647" lon="-5.1347384">
        <ele>182.0</ele>
        <time>2020-11-01T14:08:09Z</time>
      </trkpt>
      <trkpt lat="43.26765" lon="-5.134753">
        <ele>182.0</ele>
        <time>2020-11-01T14:08:10Z</time>
      </trkpt>
      <trkpt lat="43.267654" lon="-5.1347685">
        <ele>182.0</ele>
        <time>2020-11-01T14:08:11Z</time>
      </trkpt>
      <trkpt lat="43.267666" lon="-5.134785">
        <ele>182.0</ele>
        <time>2020-11-01T14:08:12Z</time>
      </trkpt>
      <trkpt lat="43.267677" lon="-5.134801">
        <ele>182.0</ele>
        <time>2020-11-01T14:08:13Z</time>
      </trkpt>
      <trkpt lat="43.267685" lon="-5.1348133">
        <ele>182.0</ele>
        <time>2020-11-01T14:08:14Z</time>
      </trkpt>
      <trkpt lat="43.267693" lon="-5.1348257">
        <ele>182.0</ele>
        <time>2020-11-01T14:08:15Z</time>
      </trkpt>
      <trkpt lat="43.267696" lon="-5.1348367">
        <ele>182.0</ele>
        <time>2020-11-01T14:08:16Z</time>
      </trkpt>
      <trkpt lat="43.2677" lon="-5.1348486">
        <ele>182.0</ele>
        <time>2020-11-01T14:08:17Z</time>
      </trkpt>
      <trkpt lat="43.26771" lon="-5.1348605">
        <ele>182.0</ele>
        <time>2020-11-01T14:08:18Z</time>
      </trkpt>
      <trkpt lat="43.267723" lon="-5.1348734">
        <ele>182.0</ele>
        <time>2020-11-01T14:08:19Z</time>
      </trkpt>
      <trkpt lat="43.26773" lon="-5.1348853">
        <ele>182.0</ele>
        <time>2020-11-01T14:08:20Z</time>
      </trkpt>
      <trkpt lat="43.26774" lon="-5.1348953">
        <ele>182.0</ele>
        <time>2020-11-01T14:08:21Z</time>
      </trkpt>
      <trkpt lat="43.267746" lon="-5.1349034">
        <ele>182.0</ele>
        <time>2020-11-01T14:08:22Z</time>
      </trkpt>
      <trkpt lat="43.267754" lon="-5.1349096">
        <ele>182.0</ele>
        <time>2020-11-01T14:08:23Z</time>
      </trkpt>
      <trkpt lat="43.267757" lon="-5.1349144">
        <ele>182.0</ele>
        <time>2020-11-01T14:08:24Z</time>
      </trkpt>
      <trkpt lat="43.267765" lon="-5.134918">
        <ele>182.0</ele>
        <time>2020-11-01T14:08:25Z</time>
      </trkpt>
      <trkpt lat="43.267773" lon="-5.1349235">
        <ele>182.0</ele>
        <time>2020-11-01T14:08:26Z</time>
      </trkpt>
      <trkpt lat="43.26778" lon="-5.13493">
        <ele>182.0</ele>
        <time>2020-11-01T14:08:27Z</time>
      </trkpt>
      <trkpt lat="43.267784" lon="-5.134937">
        <ele>182.0</ele>
        <time>2020-11-01T14:08:28Z</time>
      </trkpt>
      <trkpt lat="43.267788" lon="-5.134946">
        <ele>182.0</ele>
        <time>2020-11-01T14:08:29Z</time>
      </trkpt>
      <trkpt lat="43.267788" lon="-5.1349554">
        <ele>182.0</ele>
        <time>2020-11-01T14:08:30Z</time>
      </trkpt>
      <trkpt lat="43.267796" lon="-5.134963">
        <ele>182.0</ele>
        <time>2020-11-01T14:08:31Z</time>
      </trkpt>
      <trkpt lat="43.267796" lon="-5.1349697">
        <ele>182.0</ele>
        <time>2020-11-01T14:08:32Z</time>
      </trkpt>
      <trkpt lat="43.2678" lon="-5.1349735">
        <ele>182.0</ele>
        <time>2020-11-01T14:08:33Z</time>
      </trkpt>
      <trkpt lat="43.2678" lon="-5.1349745">
        <ele>182.0</ele>
        <time>2020-11-01T14:08:34Z</time>
      </trkpt>
      <trkpt lat="43.267803" lon="-5.1349735">
        <ele>182.0</ele>
        <time>2020-11-01T14:08:35Z</time>
      </trkpt>
      <trkpt lat="43.267803" lon="-5.134976">
        <ele>182.0</ele>
        <time>2020-11-01T14:08:36Z</time>
      </trkpt>
      <trkpt lat="43.26781" lon="-5.134979">
        <ele>182.0</ele>
        <time>2020-11-01T14:08:37Z</time>
      </trkpt>
      <trkpt lat="43.26781" lon="-5.134991">
        <ele>182.0</ele>
        <time>2020-11-01T14:08:38Z</time>
      </trkpt>
      <trkpt lat="43.26782" lon="-5.135008">
        <ele>181.0</ele>
        <time>2020-11-01T14:08:39Z</time>
      </trkpt>
      <trkpt lat="43.267826" lon="-5.1350255">
        <ele>181.0</ele>
        <time>2020-11-01T14:08:40Z</time>
      </trkpt>
      <trkpt lat="43.267834" lon="-5.1350408">
        <ele>181.0</ele>
        <time>2020-11-01T14:08:41Z</time>
      </trkpt>
      <trkpt lat="43.26784" lon="-5.1350536">
        <ele>181.0</ele>
        <time>2020-11-01T14:08:42Z</time>
      </trkpt>
      <trkpt lat="43.267845" lon="-5.1350646">
        <ele>181.0</ele>
        <time>2020-11-01T14:08:43Z</time>
      </trkpt>
      <trkpt lat="43.267845" lon="-5.135073">
        <ele>181.0</ele>
        <time>2020-11-01T14:08:45Z</time>
      </trkpt>
      <trkpt lat="43.267845" lon="-5.1350827">
        <ele>181.0</ele>
        <time>2020-11-01T14:08:45Z</time>
      </trkpt>
      <trkpt lat="43.267845" lon="-5.135093">
        <ele>181.0</ele>
        <time>2020-11-01T14:08:46Z</time>
      </trkpt>
      <trkpt lat="43.267845" lon="-5.1351023">
        <ele>181.0</ele>
        <time>2020-11-01T14:08:47Z</time>
      </trkpt>
      <trkpt lat="43.267845" lon="-5.135113">
        <ele>181.0</ele>
        <time>2020-11-01T14:08:48Z</time>
      </trkpt>
      <trkpt lat="43.267845" lon="-5.135122">
        <ele>181.0</ele>
        <time>2020-11-01T14:08:49Z</time>
      </trkpt>
      <trkpt lat="43.26785" lon="-5.1351314">
        <ele>181.0</ele>
        <time>2020-11-01T14:08:50Z</time>
      </trkpt>
      <trkpt lat="43.267857" lon="-5.135139">
        <ele>181.0</ele>
        <time>2020-11-01T14:08:51Z</time>
      </trkpt>
      <trkpt lat="43.267864" lon="-5.13515">
        <ele>181.0</ele>
        <time>2020-11-01T14:08:52Z</time>
      </trkpt>
      <trkpt lat="43.26787" lon="-5.1351595">
        <ele>181.0</ele>
        <time>2020-11-01T14:08:53Z</time>
      </trkpt>
      <trkpt lat="43.267887" lon="-5.135177">
        <ele>181.0</ele>
        <time>2020-11-01T14:08:55Z</time>
      </trkpt>
      <trkpt lat="43.267887" lon="-5.1351748">
        <ele>181.0</ele>
        <time>2020-11-01T14:08:56Z</time>
      </trkpt>
      <trkpt lat="43.267887" lon="-5.1351705">
        <ele>181.0</ele>
        <time>2020-11-01T14:08:57Z</time>
      </trkpt>
      <trkpt lat="43.267887" lon="-5.135166">
        <ele>181.0</ele>
        <time>2020-11-01T14:08:58Z</time>
      </trkpt>
      <trkpt lat="43.267887" lon="-5.135166">
        <ele>181.0</ele>
        <time>2020-11-01T14:08:59Z</time>
      </trkpt>
      <trkpt lat="43.26789" lon="-5.13517">
        <ele>181.0</ele>
        <time>2020-11-01T14:09:01Z</time>
      </trkpt>
      <trkpt lat="43.267895" lon="-5.1351776">
        <ele>181.0</ele>
        <time>2020-11-01T14:09:01Z</time>
      </trkpt>
      <trkpt lat="43.267895" lon="-5.1351857">
        <ele>181.0</ele>
        <time>2020-11-01T14:09:02Z</time>
      </trkpt>
      <trkpt lat="43.267902" lon="-5.135193">
        <ele>181.0</ele>
        <time>2020-11-01T14:09:03Z</time>
      </trkpt>
      <trkpt lat="43.267906" lon="-5.1351995">
        <ele>181.0</ele>
        <time>2020-11-01T14:09:04Z</time>
      </trkpt>
      <trkpt lat="43.26791" lon="-5.135207">
        <ele>181.0</ele>
        <time>2020-11-01T14:09:05Z</time>
      </trkpt>
      <trkpt lat="43.26791" lon="-5.1352153">
        <ele>181.0</ele>
        <time>2020-11-01T14:09:06Z</time>
      </trkpt>
      <trkpt lat="43.267918" lon="-5.135225">
        <ele>181.0</ele>
        <time>2020-11-01T14:09:07Z</time>
      </trkpt>
      <trkpt lat="43.26792" lon="-5.1352344">
        <ele>181.0</ele>
        <time>2020-11-01T14:09:08Z</time>
      </trkpt>
      <trkpt lat="43.267933" lon="-5.1352444">
        <ele>181.0</ele>
        <time>2020-11-01T14:09:09Z</time>
      </trkpt>
      <trkpt lat="43.267937" lon="-5.135256">
        <ele>181.0</ele>
        <time>2020-11-01T14:09:10Z</time>
      </trkpt>
      <trkpt lat="43.26795" lon="-5.135267">
        <ele>181.0</ele>
        <time>2020-11-01T14:09:11Z</time>
      </trkpt>
      <trkpt lat="43.26796" lon="-5.135278">
        <ele>181.0</ele>
        <time>2020-11-01T14:09:12Z</time>
      </trkpt>
      <trkpt lat="43.267967" lon="-5.1352916">
        <ele>181.0</ele>
        <time>2020-11-01T14:09:14Z</time>
      </trkpt>
      <trkpt lat="43.267975" lon="-5.1353073">
        <ele>181.0</ele>
        <time>2020-11-01T14:09:14Z</time>
      </trkpt>
      <trkpt lat="43.26798" lon="-5.1353235">
        <ele>181.0</ele>
        <time>2020-11-01T14:09:15Z</time>
      </trkpt>
      <trkpt lat="43.267982" lon="-5.135339">
        <ele>181.0</ele>
        <time>2020-11-01T14:09:16Z</time>
      </trkpt>
      <trkpt lat="43.26799" lon="-5.1353493">
        <ele>181.0</ele>
        <time>2020-11-01T14:09:17Z</time>
      </trkpt>
      <trkpt lat="43.267994" lon="-5.135359">
        <ele>181.0</ele>
        <time>2020-11-01T14:09:18Z</time>
      </trkpt>
      <trkpt lat="43.267994" lon="-5.1353674">
        <ele>181.0</ele>
        <time>2020-11-01T14:09:19Z</time>
      </trkpt>
      <trkpt lat="43.267998" lon="-5.1353765">
        <ele>181.0</ele>
        <time>2020-11-01T14:09:20Z</time>
      </trkpt>
      <trkpt lat="43.267998" lon="-5.1353874">
        <ele>181.0</ele>
        <time>2020-11-01T14:09:21Z</time>
      </trkpt>
      <trkpt lat="43.268005" lon="-5.1353984">
        <ele>181.0</ele>
        <time>2020-11-01T14:09:22Z</time>
      </trkpt>
      <trkpt lat="43.268005" lon="-5.135409">
        <ele>181.0</ele>
        <time>2020-11-01T14:09:23Z</time>
      </trkpt>
      <trkpt lat="43.268005" lon="-5.1354175">
        <ele>181.0</ele>
        <time>2020-11-01T14:09:24Z</time>
      </trkpt>
      <trkpt lat="43.268005" lon="-5.135442">
        <ele>181.0</ele>
        <time>2020-11-01T14:09:26Z</time>
      </trkpt>
      <trkpt lat="43.268005" lon="-5.1354427">
        <ele>181.0</ele>
        <time>2020-11-01T14:09:27Z</time>
      </trkpt>
      <trkpt lat="43.268005" lon="-5.1354475">
        <ele>181.0</ele>
        <time>2020-11-01T14:09:28Z</time>
      </trkpt>
      <trkpt lat="43.26801" lon="-5.135456">
        <ele>181.0</ele>
        <time>2020-11-01T14:09:30Z</time>
      </trkpt>
      <trkpt lat="43.26801" lon="-5.135466">
        <ele>181.0</ele>
        <time>2020-11-01T14:09:30Z</time>
      </trkpt>
      <trkpt lat="43.268013" lon="-5.1354733">
        <ele>181.0</ele>
        <time>2020-11-01T14:09:31Z</time>
      </trkpt>
      <trkpt lat="43.268013" lon="-5.1354795">
        <ele>181.0</ele>
        <time>2020-11-01T14:09:32Z</time>
      </trkpt>
      <trkpt lat="43.26801" lon="-5.135485">
        <ele>181.0</ele>
        <time>2020-11-01T14:09:33Z</time>
      </trkpt>
      <trkpt lat="43.268005" lon="-5.1354933">
        <ele>181.0</ele>
        <time>2020-11-01T14:09:35Z</time>
      </trkpt>
      <trkpt lat="43.268005" lon="-5.135493">
        <ele>181.0</ele>
        <time>2020-11-01T14:09:36Z</time>
      </trkpt>
      <trkpt lat="43.268005" lon="-5.135496">
        <ele>181.0</ele>
        <time>2020-11-01T14:09:37Z</time>
      </trkpt>
      <trkpt lat="43.267998" lon="-5.1355">
        <ele>181.0</ele>
        <time>2020-11-01T14:09:38Z</time>
      </trkpt>
      <trkpt lat="43.267998" lon="-5.135506">
        <ele>181.0</ele>
        <time>2020-11-01T14:09:39Z</time>
      </trkpt>
      <trkpt lat="43.267998" lon="-5.135513">
        <ele>181.0</ele>
        <time>2020-11-01T14:09:40Z</time>
      </trkpt>
      <trkpt lat="43.267998" lon="-5.1355205">
        <ele>181.0</ele>
        <time>2020-11-01T14:09:41Z</time>
      </trkpt>
      <trkpt lat="43.268005" lon="-5.135529">
        <ele>181.0</ele>
        <time>2020-11-01T14:09:42Z</time>
      </trkpt>
      <trkpt lat="43.26801" lon="-5.135536">
        <ele>181.0</ele>
        <time>2020-11-01T14:09:43Z</time>
      </trkpt>
      <trkpt lat="43.26801" lon="-5.1355424">
        <ele>181.0</ele>
        <time>2020-11-01T14:09:44Z</time>
      </trkpt>
      <trkpt lat="43.268013" lon="-5.135551">
        <ele>181.0</ele>
        <time>2020-11-01T14:09:45Z</time>
      </trkpt>
      <trkpt lat="43.26802" lon="-5.1355577">
        <ele>181.0</ele>
        <time>2020-11-01T14:09:46Z</time>
      </trkpt>
      <trkpt lat="43.26802" lon="-5.1355634">
        <ele>181.0</ele>
        <time>2020-11-01T14:09:47Z</time>
      </trkpt>
      <trkpt lat="43.268024" lon="-5.1355696">
        <ele>181.0</ele>
        <time>2020-11-01T14:09:48Z</time>
      </trkpt>
      <trkpt lat="43.268036" lon="-5.135578">
        <ele>179.0</ele>
        <time>2020-11-01T14:09:49Z</time>
      </trkpt>
      <trkpt lat="43.26804" lon="-5.135586">
        <ele>179.0</ele>
        <time>2020-11-01T14:09:50Z</time>
      </trkpt>
      <trkpt lat="43.268044" lon="-5.135596">
        <ele>179.0</ele>
        <time>2020-11-01T14:09:51Z</time>
      </trkpt>
      <trkpt lat="43.26805" lon="-5.1356063">
        <ele>179.0</ele>
        <time>2020-11-01T14:09:52Z</time>
      </trkpt>
      <trkpt lat="43.26805" lon="-5.135618">
        <ele>179.0</ele>
        <time>2020-11-01T14:09:53Z</time>
      </trkpt>
      <trkpt lat="43.268055" lon="-5.1356297">
        <ele>179.0</ele>
        <time>2020-11-01T14:09:54Z</time>
      </trkpt>
      <trkpt lat="43.268055" lon="-5.1356378">
        <ele>179.0</ele>
        <time>2020-11-01T14:09:55Z</time>
      </trkpt>
      <trkpt lat="43.26807" lon="-5.1356583">
        <ele>178.0</ele>
        <time>2020-11-01T14:09:57Z</time>
      </trkpt>
      <trkpt lat="43.26807" lon="-5.1356583">
        <ele>178.0</ele>
        <time>2020-11-01T14:09:58Z</time>
      </trkpt>
      <trkpt lat="43.268097" lon="-5.135652">
        <ele>178.0</ele>
        <time>2020-11-01T14:10:00Z</time>
      </trkpt>
      <trkpt lat="43.2681" lon="-5.135654">
        <ele>178.0</ele>
        <time>2020-11-01T14:10:01Z</time>
      </trkpt>
      <trkpt lat="43.268105" lon="-5.1356597">
        <ele>178.0</ele>
        <time>2020-11-01T14:10:02Z</time>
      </trkpt>
      <trkpt lat="43.268112" lon="-5.1356683">
        <ele>178.0</ele>
        <time>2020-11-01T14:10:04Z</time>
      </trkpt>
      <trkpt lat="43.268116" lon="-5.1356783">
        <ele>178.0</ele>
        <time>2020-11-01T14:10:04Z</time>
      </trkpt>
      <trkpt lat="43.26812" lon="-5.135689">
        <ele>178.0</ele>
        <time>2020-11-01T14:10:05Z</time>
      </trkpt>
      <trkpt lat="43.268127" lon="-5.135699">
        <ele>178.0</ele>
        <time>2020-11-01T14:10:06Z</time>
      </trkpt>
      <trkpt lat="43.26813" lon="-5.1357074">
        <ele>178.0</ele>
        <time>2020-11-01T14:10:07Z</time>
      </trkpt>
      <trkpt lat="43.268127" lon="-5.1357284">
        <ele>178.0</ele>
        <time>2020-11-01T14:10:12Z</time>
      </trkpt>
      <trkpt lat="43.268127" lon="-5.1357293">
        <ele>178.0</ele>
        <time>2020-11-01T14:10:13Z</time>
      </trkpt>
      <trkpt lat="43.268127" lon="-5.1357327">
        <ele>178.0</ele>
        <time>2020-11-01T14:10:14Z</time>
      </trkpt>
      <trkpt lat="43.268127" lon="-5.1357384">
        <ele>178.0</ele>
        <time>2020-11-01T14:10:15Z</time>
      </trkpt>
      <trkpt lat="43.26813" lon="-5.135748">
        <ele>178.0</ele>
        <time>2020-11-01T14:10:16Z</time>
      </trkpt>
      <trkpt lat="43.26813" lon="-5.135761">
        <ele>178.0</ele>
        <time>2020-11-01T14:10:17Z</time>
      </trkpt>
      <trkpt lat="43.26813" lon="-5.1357737">
        <ele>178.0</ele>
        <time>2020-11-01T14:10:18Z</time>
      </trkpt>
      <trkpt lat="43.26813" lon="-5.1357865">
        <ele>178.0</ele>
        <time>2020-11-01T14:10:20Z</time>
      </trkpt>
      <trkpt lat="43.268135" lon="-5.135801">
        <ele>178.0</ele>
        <time>2020-11-01T14:10:20Z</time>
      </trkpt>
      <trkpt lat="43.268135" lon="-5.1358156">
        <ele>178.0</ele>
        <time>2020-11-01T14:10:21Z</time>
      </trkpt>
      <trkpt lat="43.268143" lon="-5.13583">
        <ele>178.0</ele>
        <time>2020-11-01T14:10:22Z</time>
      </trkpt>
      <trkpt lat="43.268143" lon="-5.1358438">
        <ele>178.0</ele>
        <time>2020-11-01T14:10:23Z</time>
      </trkpt>
      <trkpt lat="43.268135" lon="-5.135858">
        <ele>178.0</ele>
        <time>2020-11-01T14:10:24Z</time>
      </trkpt>
      <trkpt lat="43.26813" lon="-5.13587">
        <ele>178.0</ele>
        <time>2020-11-01T14:10:25Z</time>
      </trkpt>
      <trkpt lat="43.268127" lon="-5.1358795">
        <ele>178.0</ele>
        <time>2020-11-01T14:10:26Z</time>
      </trkpt>
      <trkpt lat="43.26812" lon="-5.1358905">
        <ele>178.0</ele>
        <time>2020-11-01T14:10:27Z</time>
      </trkpt>
      <trkpt lat="43.26812" lon="-5.1359024">
        <ele>178.0</ele>
        <time>2020-11-01T14:10:28Z</time>
      </trkpt>
      <trkpt lat="43.26812" lon="-5.1359153">
        <ele>178.0</ele>
        <time>2020-11-01T14:10:29Z</time>
      </trkpt>
      <trkpt lat="43.26812" lon="-5.1359267">
        <ele>178.0</ele>
        <time>2020-11-01T14:10:30Z</time>
      </trkpt>
      <trkpt lat="43.26812" lon="-5.135937">
        <ele>178.0</ele>
        <time>2020-11-01T14:10:31Z</time>
      </trkpt>
      <trkpt lat="43.26812" lon="-5.1359477">
        <ele>178.0</ele>
        <time>2020-11-01T14:10:32Z</time>
      </trkpt>
      <trkpt lat="43.268116" lon="-5.1359587">
        <ele>178.0</ele>
        <time>2020-11-01T14:10:33Z</time>
      </trkpt>
      <trkpt lat="43.268116" lon="-5.135971">
        <ele>178.0</ele>
        <time>2020-11-01T14:10:34Z</time>
      </trkpt>
      <trkpt lat="43.268116" lon="-5.1359844">
        <ele>178.0</ele>
        <time>2020-11-01T14:10:35Z</time>
      </trkpt>
      <trkpt lat="43.268116" lon="-5.1359973">
        <ele>178.0</ele>
        <time>2020-11-01T14:10:36Z</time>
      </trkpt>
      <trkpt lat="43.268116" lon="-5.1360106">
        <ele>178.0</ele>
        <time>2020-11-01T14:10:37Z</time>
      </trkpt>
      <trkpt lat="43.26812" lon="-5.1360245">
        <ele>178.0</ele>
        <time>2020-11-01T14:10:38Z</time>
      </trkpt>
      <trkpt lat="43.268127" lon="-5.1360393">
        <ele>178.0</ele>
        <time>2020-11-01T14:10:39Z</time>
      </trkpt>
      <trkpt lat="43.26813" lon="-5.1360545">
        <ele>178.0</ele>
        <time>2020-11-01T14:10:40Z</time>
      </trkpt>
      <trkpt lat="43.268135" lon="-5.1360726">
        <ele>178.0</ele>
        <time>2020-11-01T14:10:41Z</time>
      </trkpt>
      <trkpt lat="43.268143" lon="-5.136091">
        <ele>178.0</ele>
        <time>2020-11-01T14:10:43Z</time>
      </trkpt>
      <trkpt lat="43.268143" lon="-5.136107">
        <ele>178.0</ele>
        <time>2020-11-01T14:10:43Z</time>
      </trkpt>
      <trkpt lat="43.268135" lon="-5.1361237">
        <ele>178.0</ele>
        <time>2020-11-01T14:10:44Z</time>
      </trkpt>
      <trkpt lat="43.268127" lon="-5.136137">
        <ele>178.0</ele>
        <time>2020-11-01T14:10:45Z</time>
      </trkpt>
      <trkpt lat="43.26812" lon="-5.136149">
        <ele>178.0</ele>
        <time>2020-11-01T14:10:46Z</time>
      </trkpt>
      <trkpt lat="43.268112" lon="-5.136161">
        <ele>178.0</ele>
        <time>2020-11-01T14:10:47Z</time>
      </trkpt>
      <trkpt lat="43.268105" lon="-5.1361704">
        <ele>178.0</ele>
        <time>2020-11-01T14:10:48Z</time>
      </trkpt>
      <trkpt lat="43.268105" lon="-5.1361804">
        <ele>178.0</ele>
        <time>2020-11-01T14:10:49Z</time>
      </trkpt>
      <trkpt lat="43.268105" lon="-5.136191">
        <ele>178.0</ele>
        <time>2020-11-01T14:10:50Z</time>
      </trkpt>
      <trkpt lat="43.268105" lon="-5.1362014">
        <ele>178.0</ele>
        <time>2020-11-01T14:10:51Z</time>
      </trkpt>
      <trkpt lat="43.268105" lon="-5.1362114">
        <ele>178.0</ele>
        <time>2020-11-01T14:10:52Z</time>
      </trkpt>
      <trkpt lat="43.268105" lon="-5.1362224">
        <ele>178.0</ele>
        <time>2020-11-01T14:10:53Z</time>
      </trkpt>
      <trkpt lat="43.268112" lon="-5.1362357">
        <ele>178.0</ele>
        <time>2020-11-01T14:10:54Z</time>
      </trkpt>
      <trkpt lat="43.268112" lon="-5.136252">
        <ele>178.0</ele>
        <time>2020-11-01T14:10:55Z</time>
      </trkpt>
      <trkpt lat="43.268116" lon="-5.136269">
        <ele>178.0</ele>
        <time>2020-11-01T14:10:56Z</time>
      </trkpt>
      <trkpt lat="43.26812" lon="-5.1362844">
        <ele>178.0</ele>
        <time>2020-11-01T14:10:58Z</time>
      </trkpt>
      <trkpt lat="43.26812" lon="-5.136298">
        <ele>178.0</ele>
        <time>2020-11-01T14:10:58Z</time>
      </trkpt>
      <trkpt lat="43.26812" lon="-5.1363106">
        <ele>178.0</ele>
        <time>2020-11-01T14:10:59Z</time>
      </trkpt>
      <trkpt lat="43.268127" lon="-5.1363206">
        <ele>178.0</ele>
        <time>2020-11-01T14:11:00Z</time>
      </trkpt>
      <trkpt lat="43.268127" lon="-5.136328">
        <ele>178.0</ele>
        <time>2020-11-01T14:11:01Z</time>
      </trkpt>
      <trkpt lat="43.26813" lon="-5.136335">
        <ele>178.0</ele>
        <time>2020-11-01T14:11:02Z</time>
      </trkpt>
      <trkpt lat="43.268135" lon="-5.1363397">
        <ele>178.0</ele>
        <time>2020-11-01T14:11:03Z</time>
      </trkpt>
      <trkpt lat="43.268135" lon="-5.136345">
        <ele>178.0</ele>
        <time>2020-11-01T14:11:04Z</time>
      </trkpt>
      <trkpt lat="43.268135" lon="-5.1363516">
        <ele>178.0</ele>
        <time>2020-11-01T14:11:05Z</time>
      </trkpt>
      <trkpt lat="43.268135" lon="-5.1363597">
        <ele>178.0</ele>
        <time>2020-11-01T14:11:06Z</time>
      </trkpt>
      <trkpt lat="43.268135" lon="-5.1363688">
        <ele>178.0</ele>
        <time>2020-11-01T14:11:07Z</time>
      </trkpt>
      <trkpt lat="43.268135" lon="-5.1363797">
        <ele>178.0</ele>
        <time>2020-11-01T14:11:08Z</time>
      </trkpt>
      <trkpt lat="43.268143" lon="-5.13639">
        <ele>178.0</ele>
        <time>2020-11-01T14:11:09Z</time>
      </trkpt>
      <trkpt lat="43.268143" lon="-5.1364">
        <ele>178.0</ele>
        <time>2020-11-01T14:11:10Z</time>
      </trkpt>
      <trkpt lat="43.268147" lon="-5.136409">
        <ele>178.0</ele>
        <time>2020-11-01T14:11:11Z</time>
      </trkpt>
      <trkpt lat="43.268158" lon="-5.1364193">
        <ele>178.0</ele>
        <time>2020-11-01T14:11:12Z</time>
      </trkpt>
      <trkpt lat="43.26816" lon="-5.13643">
        <ele>178.0</ele>
        <time>2020-11-01T14:11:13Z</time>
      </trkpt>
      <trkpt lat="43.26816" lon="-5.1364393">
        <ele>178.0</ele>
        <time>2020-11-01T14:11:14Z</time>
      </trkpt>
      <trkpt lat="43.26816" lon="-5.1364503">
        <ele>178.0</ele>
        <time>2020-11-01T14:11:15Z</time>
      </trkpt>
      <trkpt lat="43.26816" lon="-5.1364613">
        <ele>178.0</ele>
        <time>2020-11-01T14:11:16Z</time>
      </trkpt>
      <trkpt lat="43.26817" lon="-5.1364746">
        <ele>178.0</ele>
        <time>2020-11-01T14:11:18Z</time>
      </trkpt>
      <trkpt lat="43.268177" lon="-5.13649">
        <ele>178.0</ele>
        <time>2020-11-01T14:11:18Z</time>
      </trkpt>
      <trkpt lat="43.268185" lon="-5.136505">
        <ele>178.0</ele>
        <time>2020-11-01T14:11:19Z</time>
      </trkpt>
      <trkpt lat="43.268192" lon="-5.1365204">
        <ele>178.0</ele>
        <time>2020-11-01T14:11:20Z</time>
      </trkpt>
      <trkpt lat="43.268192" lon="-5.1365347">
        <ele>178.0</ele>
        <time>2020-11-01T14:11:21Z</time>
      </trkpt>
      <trkpt lat="43.2682" lon="-5.13655">
        <ele>178.0</ele>
        <time>2020-11-01T14:11:22Z</time>
      </trkpt>
      <trkpt lat="43.268204" lon="-5.1365657">
        <ele>178.0</ele>
        <time>2020-11-01T14:11:23Z</time>
      </trkpt>
      <trkpt lat="43.268208" lon="-5.13658">
        <ele>178.0</ele>
        <time>2020-11-01T14:11:24Z</time>
      </trkpt>
      <trkpt lat="43.268215" lon="-5.136594">
        <ele>178.0</ele>
        <time>2020-11-01T14:11:25Z</time>
      </trkpt>
      <trkpt lat="43.268215" lon="-5.136608">
        <ele>178.0</ele>
        <time>2020-11-01T14:11:26Z</time>
      </trkpt>
      <trkpt lat="43.26822" lon="-5.1366224">
        <ele>178.0</ele>
        <time>2020-11-01T14:11:27Z</time>
      </trkpt>
      <trkpt lat="43.268215" lon="-5.136635">
        <ele>178.0</ele>
        <time>2020-11-01T14:11:28Z</time>
      </trkpt>
      <trkpt lat="43.268215" lon="-5.136649">
        <ele>178.0</ele>
        <time>2020-11-01T14:11:29Z</time>
      </trkpt>
      <trkpt lat="43.268208" lon="-5.1366634">
        <ele>178.0</ele>
        <time>2020-11-01T14:11:30Z</time>
      </trkpt>
      <trkpt lat="43.268208" lon="-5.1366754">
        <ele>178.0</ele>
        <time>2020-11-01T14:11:31Z</time>
      </trkpt>
      <trkpt lat="43.268204" lon="-5.1366873">
        <ele>178.0</ele>
        <time>2020-11-01T14:11:33Z</time>
      </trkpt>
      <trkpt lat="43.268204" lon="-5.1366987">
        <ele>178.0</ele>
        <time>2020-11-01T14:11:33Z</time>
      </trkpt>
      <trkpt lat="43.2682" lon="-5.1367126">
        <ele>178.0</ele>
        <time>2020-11-01T14:11:34Z</time>
      </trkpt>
      <trkpt lat="43.2682" lon="-5.136727">
        <ele>178.0</ele>
        <time>2020-11-01T14:11:35Z</time>
      </trkpt>
      <trkpt lat="43.2682" lon="-5.13674">
        <ele>178.0</ele>
        <time>2020-11-01T14:11:36Z</time>
      </trkpt>
      <trkpt lat="43.268204" lon="-5.1367545">
        <ele>178.0</ele>
        <time>2020-11-01T14:11:37Z</time>
      </trkpt>
      <trkpt lat="43.268208" lon="-5.13677">
        <ele>178.0</ele>
        <time>2020-11-01T14:11:38Z</time>
      </trkpt>
      <trkpt lat="43.268215" lon="-5.1367846">
        <ele>178.0</ele>
        <time>2020-11-01T14:11:39Z</time>
      </trkpt>
      <trkpt lat="43.26822" lon="-5.136798">
        <ele>178.0</ele>
        <time>2020-11-01T14:11:40Z</time>
      </trkpt>
      <trkpt lat="43.26822" lon="-5.13681">
        <ele>178.0</ele>
        <time>2020-11-01T14:11:41Z</time>
      </trkpt>
      <trkpt lat="43.268223" lon="-5.1368184">
        <ele>178.0</ele>
        <time>2020-11-01T14:11:42Z</time>
      </trkpt>
      <trkpt lat="43.26823" lon="-5.136828">
        <ele>178.0</ele>
        <time>2020-11-01T14:11:43Z</time>
      </trkpt>
      <trkpt lat="43.268234" lon="-5.1368394">
        <ele>178.0</ele>
        <time>2020-11-01T14:11:44Z</time>
      </trkpt>
      <trkpt lat="43.268234" lon="-5.136853">
        <ele>178.0</ele>
        <time>2020-11-01T14:11:45Z</time>
      </trkpt>
      <trkpt lat="43.268246" lon="-5.136869">
        <ele>178.0</ele>
        <time>2020-11-01T14:11:46Z</time>
      </trkpt>
      <trkpt lat="43.26825" lon="-5.1368856">
        <ele>178.0</ele>
        <time>2020-11-01T14:11:48Z</time>
      </trkpt>
      <trkpt lat="43.268253" lon="-5.136902">
        <ele>178.0</ele>
        <time>2020-11-01T14:11:48Z</time>
      </trkpt>
      <trkpt lat="43.26826" lon="-5.1369166">
        <ele>178.0</ele>
        <time>2020-11-01T14:11:49Z</time>
      </trkpt>
      <trkpt lat="43.268265" lon="-5.136929">
        <ele>178.0</ele>
        <time>2020-11-01T14:11:50Z</time>
      </trkpt>
      <trkpt lat="43.268265" lon="-5.13694">
        <ele>178.0</ele>
        <time>2020-11-01T14:11:51Z</time>
      </trkpt>
      <trkpt lat="43.268265" lon="-5.1369505">
        <ele>178.0</ele>
        <time>2020-11-01T14:11:52Z</time>
      </trkpt>
      <trkpt lat="43.268265" lon="-5.1369624">
        <ele>178.0</ele>
        <time>2020-11-01T14:11:53Z</time>
      </trkpt>
      <trkpt lat="43.26826" lon="-5.136973">
        <ele>178.0</ele>
        <time>2020-11-01T14:11:54Z</time>
      </trkpt>
      <trkpt lat="43.26826" lon="-5.1369834">
        <ele>178.0</ele>
        <time>2020-11-01T14:11:55Z</time>
      </trkpt>
      <trkpt lat="43.26826" lon="-5.1369934">
        <ele>178.0</ele>
        <time>2020-11-01T14:11:56Z</time>
      </trkpt>
      <trkpt lat="43.26826" lon="-5.1370025">
        <ele>178.0</ele>
        <time>2020-11-01T14:11:57Z</time>
      </trkpt>
      <trkpt lat="43.268265" lon="-5.137011">
        <ele>178.0</ele>
        <time>2020-11-01T14:11:58Z</time>
      </trkpt>
      <trkpt lat="43.26827" lon="-5.137022">
        <ele>178.0</ele>
        <time>2020-11-01T14:11:59Z</time>
      </trkpt>
      <trkpt lat="43.268276" lon="-5.137032">
        <ele>177.0</ele>
        <time>2020-11-01T14:12:00Z</time>
      </trkpt>
      <trkpt lat="43.26828" lon="-5.137039">
        <ele>177.0</ele>
        <time>2020-11-01T14:12:01Z</time>
      </trkpt>
      <trkpt lat="43.268284" lon="-5.137048">
        <ele>177.0</ele>
        <time>2020-11-01T14:12:02Z</time>
      </trkpt>
      <trkpt lat="43.26829" lon="-5.137057">
        <ele>177.0</ele>
        <time>2020-11-01T14:12:03Z</time>
      </trkpt>
      <trkpt lat="43.268295" lon="-5.1370635">
        <ele>177.0</ele>
        <time>2020-11-01T14:12:04Z</time>
      </trkpt>
      <trkpt lat="43.268295" lon="-5.137069">
        <ele>177.0</ele>
        <time>2020-11-01T14:12:05Z</time>
      </trkpt>
      <trkpt lat="43.2683" lon="-5.1370754">
        <ele>177.0</ele>
        <time>2020-11-01T14:12:06Z</time>
      </trkpt>
      <trkpt lat="43.268307" lon="-5.137081">
        <ele>177.0</ele>
        <time>2020-11-01T14:12:06Z</time>
      </trkpt>
      <trkpt lat="43.26831" lon="-5.1370907">
        <ele>176.0</ele>
        <time>2020-11-01T14:12:08Z</time>
      </trkpt>
      <trkpt lat="43.268314" lon="-5.137103">
        <ele>176.0</ele>
        <time>2020-11-01T14:12:08Z</time>
      </trkpt>
      <trkpt lat="43.268326" lon="-5.1371193">
        <ele>176.0</ele>
        <time>2020-11-01T14:12:09Z</time>
      </trkpt>
      <trkpt lat="43.26833" lon="-5.137135">
        <ele>176.0</ele>
        <time>2020-11-01T14:12:10Z</time>
      </trkpt>
      <trkpt lat="43.268337" lon="-5.1371517">
        <ele>176.0</ele>
        <time>2020-11-01T14:12:11Z</time>
      </trkpt>
      <trkpt lat="43.268337" lon="-5.1371684">
        <ele>176.0</ele>
        <time>2020-11-01T14:12:12Z</time>
      </trkpt>
      <trkpt lat="43.26834" lon="-5.137184">
        <ele>176.0</ele>
        <time>2020-11-01T14:12:13Z</time>
      </trkpt>
      <trkpt lat="43.26835" lon="-5.137201">
        <ele>176.0</ele>
        <time>2020-11-01T14:12:14Z</time>
      </trkpt>
      <trkpt lat="43.268356" lon="-5.137217">
        <ele>176.0</ele>
        <time>2020-11-01T14:12:15Z</time>
      </trkpt>
      <trkpt lat="43.268368" lon="-5.1372347">
        <ele>176.0</ele>
        <time>2020-11-01T14:12:16Z</time>
      </trkpt>
      <trkpt lat="43.26838" lon="-5.137251">
        <ele>176.0</ele>
        <time>2020-11-01T14:12:17Z</time>
      </trkpt>
      <trkpt lat="43.268383" lon="-5.1372647">
        <ele>176.0</ele>
        <time>2020-11-01T14:12:18Z</time>
      </trkpt>
      <trkpt lat="43.268394" lon="-5.1372786">
        <ele>176.0</ele>
        <time>2020-11-01T14:12:19Z</time>
      </trkpt>
      <trkpt lat="43.2684" lon="-5.1372914">
        <ele>176.0</ele>
        <time>2020-11-01T14:12:20Z</time>
      </trkpt>
      <trkpt lat="43.268402" lon="-5.137302">
        <ele>176.0</ele>
        <time>2020-11-01T14:12:21Z</time>
      </trkpt>
      <trkpt lat="43.26841" lon="-5.1373124">
        <ele>176.0</ele>
        <time>2020-11-01T14:12:23Z</time>
      </trkpt>
      <trkpt lat="43.26841" lon="-5.137323">
        <ele>176.0</ele>
        <time>2020-11-01T14:12:23Z</time>
      </trkpt>
      <trkpt lat="43.26841" lon="-5.137334">
        <ele>176.0</ele>
        <time>2020-11-01T14:12:24Z</time>
      </trkpt>
      <trkpt lat="43.26841" lon="-5.137345">
        <ele>175.0</ele>
        <time>2020-11-01T14:12:25Z</time>
      </trkpt>
      <trkpt lat="43.26841" lon="-5.137356">
        <ele>175.0</ele>
        <time>2020-11-01T14:12:26Z</time>
      </trkpt>
      <trkpt lat="43.26841" lon="-5.1373672">
        <ele>175.0</ele>
        <time>2020-11-01T14:12:27Z</time>
      </trkpt>
      <trkpt lat="43.268414" lon="-5.1373796">
        <ele>175.0</ele>
        <time>2020-11-01T14:12:28Z</time>
      </trkpt>
      <trkpt lat="43.268414" lon="-5.1373916">
        <ele>175.0</ele>
        <time>2020-11-01T14:12:29Z</time>
      </trkpt>
      <trkpt lat="43.268417" lon="-5.137404">
        <ele>175.0</ele>
        <time>2020-11-01T14:12:30Z</time>
      </trkpt>
      <trkpt lat="43.26843" lon="-5.137417">
        <ele>175.0</ele>
        <time>2020-11-01T14:12:31Z</time>
      </trkpt>
      <trkpt lat="43.268433" lon="-5.1374264">
        <ele>175.0</ele>
        <time>2020-11-01T14:12:32Z</time>
      </trkpt>
      <trkpt lat="43.268433" lon="-5.1374373">
        <ele>175.0</ele>
        <time>2020-11-01T14:12:33Z</time>
      </trkpt>
      <trkpt lat="43.26844" lon="-5.1374474">
        <ele>175.0</ele>
        <time>2020-11-01T14:12:34Z</time>
      </trkpt>
      <trkpt lat="43.268444" lon="-5.1374564">
        <ele>175.0</ele>
        <time>2020-11-01T14:12:35Z</time>
      </trkpt>
      <trkpt lat="43.268444" lon="-5.1374655">
        <ele>175.0</ele>
        <time>2020-11-01T14:12:36Z</time>
      </trkpt>
      <trkpt lat="43.268448" lon="-5.137474">
        <ele>175.0</ele>
        <time>2020-11-01T14:12:37Z</time>
      </trkpt>
      <trkpt lat="43.268448" lon="-5.137482">
        <ele>175.0</ele>
        <time>2020-11-01T14:12:38Z</time>
      </trkpt>
      <trkpt lat="43.268448" lon="-5.1374927">
        <ele>175.0</ele>
        <time>2020-11-01T14:12:39Z</time>
      </trkpt>
      <trkpt lat="43.268456" lon="-5.1375036">
        <ele>175.0</ele>
        <time>2020-11-01T14:12:40Z</time>
      </trkpt>
      <trkpt lat="43.268456" lon="-5.137513">
        <ele>175.0</ele>
        <time>2020-11-01T14:12:41Z</time>
      </trkpt>
      <trkpt lat="43.26846" lon="-5.1375217">
        <ele>175.0</ele>
        <time>2020-11-01T14:12:42Z</time>
      </trkpt>
      <trkpt lat="43.268463" lon="-5.1375284">
        <ele>174.0</ele>
        <time>2020-11-01T14:12:43Z</time>
      </trkpt>
      <trkpt lat="43.26847" lon="-5.1375356">
        <ele>174.0</ele>
        <time>2020-11-01T14:12:44Z</time>
      </trkpt>
      <trkpt lat="43.268475" lon="-5.137543">
        <ele>174.0</ele>
        <time>2020-11-01T14:12:45Z</time>
      </trkpt>
      <trkpt lat="43.26848" lon="-5.1375523">
        <ele>174.0</ele>
        <time>2020-11-01T14:12:46Z</time>
      </trkpt>
      <trkpt lat="43.26849" lon="-5.137563">
        <ele>174.0</ele>
        <time>2020-11-01T14:12:47Z</time>
      </trkpt>
      <trkpt lat="43.268494" lon="-5.137576">
        <ele>174.0</ele>
        <time>2020-11-01T14:12:48Z</time>
      </trkpt>
      <trkpt lat="43.2685" lon="-5.1375885">
        <ele>174.0</ele>
        <time>2020-11-01T14:12:49Z</time>
      </trkpt>
      <trkpt lat="43.2685" lon="-5.1376004">
        <ele>174.0</ele>
        <time>2020-11-01T14:12:50Z</time>
      </trkpt>
      <trkpt lat="43.268505" lon="-5.1376114">
        <ele>174.0</ele>
        <time>2020-11-01T14:12:51Z</time>
      </trkpt>
      <trkpt lat="43.268505" lon="-5.1376233">
        <ele>174.0</ele>
        <time>2020-11-01T14:12:53Z</time>
      </trkpt>
      <trkpt lat="43.26851" lon="-5.1376367">
        <ele>174.0</ele>
        <time>2020-11-01T14:12:53Z</time>
      </trkpt>
      <trkpt lat="43.268517" lon="-5.1376505">
        <ele>174.0</ele>
        <time>2020-11-01T14:12:54Z</time>
      </trkpt>
      <trkpt lat="43.268528" lon="-5.137664">
        <ele>174.0</ele>
        <time>2020-11-01T14:12:55Z</time>
      </trkpt>
      <trkpt lat="43.26853" lon="-5.137675">
        <ele>174.0</ele>
        <time>2020-11-01T14:12:56Z</time>
      </trkpt>
      <trkpt lat="43.268536" lon="-5.1376853">
        <ele>174.0</ele>
        <time>2020-11-01T14:12:57Z</time>
      </trkpt>
      <trkpt lat="43.268543" lon="-5.1376977">
        <ele>174.0</ele>
        <time>2020-11-01T14:12:58Z</time>
      </trkpt>
      <trkpt lat="43.26855" lon="-5.1377106">
        <ele>174.0</ele>
        <time>2020-11-01T14:12:59Z</time>
      </trkpt>
      <trkpt lat="43.26856" lon="-5.137724">
        <ele>173.0</ele>
        <time>2020-11-01T14:13:00Z</time>
      </trkpt>
      <trkpt lat="43.268562" lon="-5.137737">
        <ele>173.0</ele>
        <time>2020-11-01T14:13:01Z</time>
      </trkpt>
      <trkpt lat="43.268562" lon="-5.1377487">
        <ele>173.0</ele>
        <time>2020-11-01T14:13:02Z</time>
      </trkpt>
      <trkpt lat="43.268566" lon="-5.137763">
        <ele>173.0</ele>
        <time>2020-11-01T14:13:03Z</time>
      </trkpt>
      <trkpt lat="43.268578" lon="-5.137778">
        <ele>173.0</ele>
        <time>2020-11-01T14:13:04Z</time>
      </trkpt>
      <trkpt lat="43.26859" lon="-5.13779">
        <ele>173.0</ele>
        <time>2020-11-01T14:13:05Z</time>
      </trkpt>
      <trkpt lat="43.268597" lon="-5.1378026">
        <ele>173.0</ele>
        <time>2020-11-01T14:13:06Z</time>
      </trkpt>
      <trkpt lat="43.268604" lon="-5.137815">
        <ele>173.0</ele>
        <time>2020-11-01T14:13:07Z</time>
      </trkpt>
      <trkpt lat="43.268612" lon="-5.137828">
        <ele>173.0</ele>
        <time>2020-11-01T14:13:08Z</time>
      </trkpt>
      <trkpt lat="43.268623" lon="-5.1378417">
        <ele>173.0</ele>
        <time>2020-11-01T14:13:09Z</time>
      </trkpt>
      <trkpt lat="43.268623" lon="-5.1378546">
        <ele>173.0</ele>
        <time>2020-11-01T14:13:10Z</time>
      </trkpt>
      <trkpt lat="43.268623" lon="-5.1378675">
        <ele>173.0</ele>
        <time>2020-11-01T14:13:11Z</time>
      </trkpt>
      <trkpt lat="43.268623" lon="-5.1378794">
        <ele>173.0</ele>
        <time>2020-11-01T14:13:12Z</time>
      </trkpt>
      <trkpt lat="43.268623" lon="-5.137891">
        <ele>173.0</ele>
        <time>2020-11-01T14:13:13Z</time>
      </trkpt>
      <trkpt lat="43.268627" lon="-5.1379027">
        <ele>173.0</ele>
        <time>2020-11-01T14:13:14Z</time>
      </trkpt>
      <trkpt lat="43.268635" lon="-5.1379147">
        <ele>173.0</ele>
        <time>2020-11-01T14:13:15Z</time>
      </trkpt>
      <trkpt lat="43.26864" lon="-5.137927">
        <ele>173.0</ele>
        <time>2020-11-01T14:13:16Z</time>
      </trkpt>
      <trkpt lat="43.268642" lon="-5.13794">
        <ele>173.0</ele>
        <time>2020-11-01T14:13:17Z</time>
      </trkpt>
      <trkpt lat="43.26865" lon="-5.137952">
        <ele>173.0</ele>
        <time>2020-11-01T14:13:18Z</time>
      </trkpt>
      <trkpt lat="43.26865" lon="-5.1379647">
        <ele>173.0</ele>
        <time>2020-11-01T14:13:19Z</time>
      </trkpt>
      <trkpt lat="43.268642" lon="-5.137978">
        <ele>173.0</ele>
        <time>2020-11-01T14:13:20Z</time>
      </trkpt>
      <trkpt lat="43.26864" lon="-5.1379914">
        <ele>173.0</ele>
        <time>2020-11-01T14:13:21Z</time>
      </trkpt>
      <trkpt lat="43.26864" lon="-5.1380033">
        <ele>173.0</ele>
        <time>2020-11-01T14:13:22Z</time>
      </trkpt>
      <trkpt lat="43.268635" lon="-5.1380424">
        <ele>173.0</ele>
        <time>2020-11-01T14:13:24Z</time>
      </trkpt>
      <trkpt lat="43.26864" lon="-5.1380463">
        <ele>173.0</ele>
        <time>2020-11-01T14:13:25Z</time>
      </trkpt>
      <trkpt lat="43.26864" lon="-5.1380525">
        <ele>173.0</ele>
        <time>2020-11-01T14:13:26Z</time>
      </trkpt>
      <trkpt lat="43.268642" lon="-5.1380587">
        <ele>173.0</ele>
        <time>2020-11-01T14:13:27Z</time>
      </trkpt>
      <trkpt lat="43.268642" lon="-5.138064">
        <ele>173.0</ele>
        <time>2020-11-01T14:13:28Z</time>
      </trkpt>
      <trkpt lat="43.268654" lon="-5.138068">
        <ele>173.0</ele>
        <time>2020-11-01T14:13:29Z</time>
      </trkpt>
      <trkpt lat="43.268658" lon="-5.1380715">
        <ele>173.0</ele>
        <time>2020-11-01T14:13:30Z</time>
      </trkpt>
      <trkpt lat="43.268665" lon="-5.1380763">
        <ele>173.0</ele>
        <time>2020-11-01T14:13:31Z</time>
      </trkpt>
      <trkpt lat="43.26867" lon="-5.138082">
        <ele>173.0</ele>
        <time>2020-11-01T14:13:32Z</time>
      </trkpt>
      <trkpt lat="43.268673" lon="-5.138088">
        <ele>173.0</ele>
        <time>2020-11-01T14:13:33Z</time>
      </trkpt>
      <trkpt lat="43.26868" lon="-5.1380935">
        <ele>173.0</ele>
        <time>2020-11-01T14:13:34Z</time>
      </trkpt>
      <trkpt lat="43.268684" lon="-5.1381006">
        <ele>173.0</ele>
        <time>2020-11-01T14:13:35Z</time>
      </trkpt>
      <trkpt lat="43.268684" lon="-5.1381073">
        <ele>173.0</ele>
        <time>2020-11-01T14:13:36Z</time>
      </trkpt>
      <trkpt lat="43.26869" lon="-5.1381164">
        <ele>173.0</ele>
        <time>2020-11-01T14:13:37Z</time>
      </trkpt>
      <trkpt lat="43.268696" lon="-5.1381273">
        <ele>173.0</ele>
        <time>2020-11-01T14:13:38Z</time>
      </trkpt>
      <trkpt lat="43.268696" lon="-5.1381397">
        <ele>173.0</ele>
        <time>2020-11-01T14:13:39Z</time>
      </trkpt>
      <trkpt lat="43.2687" lon="-5.1381536">
        <ele>173.0</ele>
        <time>2020-11-01T14:13:40Z</time>
      </trkpt>
      <trkpt lat="43.268703" lon="-5.1381674">
        <ele>173.0</ele>
        <time>2020-11-01T14:13:41Z</time>
      </trkpt>
      <trkpt lat="43.26871" lon="-5.138176">
        <ele>173.0</ele>
        <time>2020-11-01T14:13:42Z</time>
      </trkpt>
      <trkpt lat="43.268715" lon="-5.138178">
        <ele>173.0</ele>
        <time>2020-11-01T14:13:43Z</time>
      </trkpt>
      <trkpt lat="43.268723" lon="-5.1381774">
        <ele>173.0</ele>
        <time>2020-11-01T14:13:44Z</time>
      </trkpt>
      <trkpt lat="43.268726" lon="-5.138176">
        <ele>173.0</ele>
        <time>2020-11-01T14:13:45Z</time>
      </trkpt>
      <trkpt lat="43.26874" lon="-5.1381774">
        <ele>173.0</ele>
        <time>2020-11-01T14:13:49Z</time>
      </trkpt>
      <trkpt lat="43.26874" lon="-5.1381774">
        <ele>173.0</ele>
        <time>2020-11-01T14:13:50Z</time>
      </trkpt>
      <trkpt lat="43.26874" lon="-5.1381783">
        <ele>173.0</ele>
        <time>2020-11-01T14:13:51Z</time>
      </trkpt>
      <trkpt lat="43.268745" lon="-5.1381803">
        <ele>173.0</ele>
        <time>2020-11-01T14:13:53Z</time>
      </trkpt>
      <trkpt lat="43.268745" lon="-5.1381826">
        <ele>173.0</ele>
        <time>2020-11-01T14:13:53Z</time>
      </trkpt>
      <trkpt lat="43.268753" lon="-5.1381865">
        <ele>173.0</ele>
        <time>2020-11-01T14:13:54Z</time>
      </trkpt>
      <trkpt lat="43.268753" lon="-5.138191">
        <ele>173.0</ele>
        <time>2020-11-01T14:13:55Z</time>
      </trkpt>
      <trkpt lat="43.268757" lon="-5.1381965">
        <ele>173.0</ele>
        <time>2020-11-01T14:13:56Z</time>
      </trkpt>
      <trkpt lat="43.268757" lon="-5.1382017">
        <ele>173.0</ele>
        <time>2020-11-01T14:13:57Z</time>
      </trkpt>
      <trkpt lat="43.268757" lon="-5.1382046">
        <ele>173.0</ele>
        <time>2020-11-01T14:13:58Z</time>
      </trkpt>
      <trkpt lat="43.268757" lon="-5.138208">
        <ele>173.0</ele>
        <time>2020-11-01T14:13:59Z</time>
      </trkpt>
      <trkpt lat="43.268757" lon="-5.1382117">
        <ele>173.0</ele>
        <time>2020-11-01T14:14:00Z</time>
      </trkpt>
      <trkpt lat="43.26876" lon="-5.138218">
        <ele>173.0</ele>
        <time>2020-11-01T14:14:01Z</time>
      </trkpt>
      <trkpt lat="43.26876" lon="-5.1382246">
        <ele>173.0</ele>
        <time>2020-11-01T14:14:02Z</time>
      </trkpt>
      <trkpt lat="43.26877" lon="-5.138233">
        <ele>173.0</ele>
        <time>2020-11-01T14:14:03Z</time>
      </trkpt>
      <trkpt lat="43.268772" lon="-5.138244">
        <ele>173.0</ele>
        <time>2020-11-01T14:14:04Z</time>
      </trkpt>
      <trkpt lat="43.268776" lon="-5.1382575">
        <ele>173.0</ele>
        <time>2020-11-01T14:14:05Z</time>
      </trkpt>
      <trkpt lat="43.268787" lon="-5.138269">
        <ele>173.0</ele>
        <time>2020-11-01T14:14:06Z</time>
      </trkpt>
      <trkpt lat="43.2688" lon="-5.1382785">
        <ele>173.0</ele>
        <time>2020-11-01T14:14:07Z</time>
      </trkpt>
      <trkpt lat="43.268803" lon="-5.1382856">
        <ele>173.0</ele>
        <time>2020-11-01T14:14:08Z</time>
      </trkpt>
      <trkpt lat="43.268814" lon="-5.1382914">
        <ele>173.0</ele>
        <time>2020-11-01T14:14:09Z</time>
      </trkpt>
      <trkpt lat="43.26882" lon="-5.1382957">
        <ele>173.0</ele>
        <time>2020-11-01T14:14:10Z</time>
      </trkpt>
      <trkpt lat="43.26883" lon="-5.1383014">
        <ele>173.0</ele>
        <time>2020-11-01T14:14:11Z</time>
      </trkpt>
      <trkpt lat="43.268833" lon="-5.1383104">
        <ele>173.0</ele>
        <time>2020-11-01T14:14:12Z</time>
      </trkpt>
      <trkpt lat="43.268837" lon="-5.138321">
        <ele>173.0</ele>
        <time>2020-11-01T14:14:13Z</time>
      </trkpt>
      <trkpt lat="43.268837" lon="-5.1383295">
        <ele>173.0</ele>
        <time>2020-11-01T14:14:14Z</time>
      </trkpt>
      <trkpt lat="43.268837" lon="-5.1383386">
        <ele>173.0</ele>
        <time>2020-11-01T14:14:15Z</time>
      </trkpt>
      <trkpt lat="43.268845" lon="-5.1383495">
        <ele>173.0</ele>
        <time>2020-11-01T14:14:16Z</time>
      </trkpt>
      <trkpt lat="43.268845" lon="-5.1383615">
        <ele>173.0</ele>
        <time>2020-11-01T14:14:17Z</time>
      </trkpt>
      <trkpt lat="43.26885" lon="-5.138373">
        <ele>173.0</ele>
        <time>2020-11-01T14:14:18Z</time>
      </trkpt>
      <trkpt lat="43.268852" lon="-5.1383834">
        <ele>173.0</ele>
        <time>2020-11-01T14:14:19Z</time>
      </trkpt>
      <trkpt lat="43.268852" lon="-5.138394">
        <ele>173.0</ele>
        <time>2020-11-01T14:14:20Z</time>
      </trkpt>
      <trkpt lat="43.268852" lon="-5.1384034">
        <ele>173.0</ele>
        <time>2020-11-01T14:14:22Z</time>
      </trkpt>
      <trkpt lat="43.26886" lon="-5.138412">
        <ele>173.0</ele>
        <time>2020-11-01T14:14:22Z</time>
      </trkpt>
      <trkpt lat="43.26886" lon="-5.1384215">
        <ele>173.0</ele>
        <time>2020-11-01T14:14:23Z</time>
      </trkpt>
      <trkpt lat="43.268864" lon="-5.1384315">
        <ele>173.0</ele>
        <time>2020-11-01T14:14:24Z</time>
      </trkpt>
      <trkpt lat="43.268864" lon="-5.138444">
        <ele>173.0</ele>
        <time>2020-11-01T14:14:25Z</time>
      </trkpt>
      <trkpt lat="43.268864" lon="-5.1384587">
        <ele>173.0</ele>
        <time>2020-11-01T14:14:26Z</time>
      </trkpt>
      <trkpt lat="43.268867" lon="-5.1384754">
        <ele>173.0</ele>
        <time>2020-11-01T14:14:27Z</time>
      </trkpt>
      <trkpt lat="43.268875" lon="-5.1384907">
        <ele>173.0</ele>
        <time>2020-11-01T14:14:28Z</time>
      </trkpt>
      <trkpt lat="43.26888" lon="-5.1385064">
        <ele>173.0</ele>
        <time>2020-11-01T14:14:30Z</time>
      </trkpt>
      <trkpt lat="43.26889" lon="-5.13852">
        <ele>173.0</ele>
        <time>2020-11-01T14:14:30Z</time>
      </trkpt>
      <trkpt lat="43.268894" lon="-5.1385345">
        <ele>173.0</ele>
        <time>2020-11-01T14:14:31Z</time>
      </trkpt>
      <trkpt lat="43.268906" lon="-5.13855">
        <ele>173.0</ele>
        <time>2020-11-01T14:14:32Z</time>
      </trkpt>
      <trkpt lat="43.268917" lon="-5.1385646">
        <ele>173.0</ele>
        <time>2020-11-01T14:14:33Z</time>
      </trkpt>
      <trkpt lat="43.268925" lon="-5.1385775">
        <ele>173.0</ele>
        <time>2020-11-01T14:14:34Z</time>
      </trkpt>
      <trkpt lat="43.268936" lon="-5.138591">
        <ele>173.0</ele>
        <time>2020-11-01T14:14:35Z</time>
      </trkpt>
      <trkpt lat="43.26894" lon="-5.1386046">
        <ele>173.0</ele>
        <time>2020-11-01T14:14:36Z</time>
      </trkpt>
      <trkpt lat="43.268948" lon="-5.1386166">
        <ele>173.0</ele>
        <time>2020-11-01T14:14:37Z</time>
      </trkpt>
      <trkpt lat="43.268955" lon="-5.138628">
        <ele>173.0</ele>
        <time>2020-11-01T14:14:38Z</time>
      </trkpt>
      <trkpt lat="43.268963" lon="-5.1386375">
        <ele>173.0</ele>
        <time>2020-11-01T14:14:39Z</time>
      </trkpt>
      <trkpt lat="43.268967" lon="-5.1386456">
        <ele>173.0</ele>
        <time>2020-11-01T14:14:40Z</time>
      </trkpt>
      <trkpt lat="43.26897" lon="-5.138654">
        <ele>173.0</ele>
        <time>2020-11-01T14:14:41Z</time>
      </trkpt>
      <trkpt lat="43.26898" lon="-5.138661">
        <ele>173.0</ele>
        <time>2020-11-01T14:14:42Z</time>
      </trkpt>
      <trkpt lat="43.26898" lon="-5.138668">
        <ele>173.0</ele>
        <time>2020-11-01T14:14:43Z</time>
      </trkpt>
      <trkpt lat="43.268982" lon="-5.1386757">
        <ele>173.0</ele>
        <time>2020-11-01T14:14:44Z</time>
      </trkpt>
      <trkpt lat="43.268986" lon="-5.138686">
        <ele>173.0</ele>
        <time>2020-11-01T14:14:45Z</time>
      </trkpt>
      <trkpt lat="43.268997" lon="-5.1386967">
        <ele>173.0</ele>
        <time>2020-11-01T14:14:46Z</time>
      </trkpt>
      <trkpt lat="43.269" lon="-5.1387095">
        <ele>173.0</ele>
        <time>2020-11-01T14:14:47Z</time>
      </trkpt>
      <trkpt lat="43.269" lon="-5.1387215">
        <ele>173.0</ele>
        <time>2020-11-01T14:14:48Z</time>
      </trkpt>
      <trkpt lat="43.26901" lon="-5.138733">
        <ele>173.0</ele>
        <time>2020-11-01T14:14:49Z</time>
      </trkpt>
      <trkpt lat="43.269012" lon="-5.138743">
        <ele>173.0</ele>
        <time>2020-11-01T14:14:50Z</time>
      </trkpt>
      <trkpt lat="43.269012" lon="-5.1387506">
        <ele>173.0</ele>
        <time>2020-11-01T14:14:51Z</time>
      </trkpt>
      <trkpt lat="43.269012" lon="-5.138758">
        <ele>173.0</ele>
        <time>2020-11-01T14:14:52Z</time>
      </trkpt>
      <trkpt lat="43.269016" lon="-5.1387653">
        <ele>173.0</ele>
        <time>2020-11-01T14:14:53Z</time>
      </trkpt>
      <trkpt lat="43.269016" lon="-5.138774">
        <ele>173.0</ele>
        <time>2020-11-01T14:14:54Z</time>
      </trkpt>
      <trkpt lat="43.269016" lon="-5.1387844">
        <ele>173.0</ele>
        <time>2020-11-01T14:14:55Z</time>
      </trkpt>
      <trkpt lat="43.269024" lon="-5.1387973">
        <ele>173.0</ele>
        <time>2020-11-01T14:14:56Z</time>
      </trkpt>
      <trkpt lat="43.269028" lon="-5.138812">
        <ele>173.0</ele>
        <time>2020-11-01T14:14:57Z</time>
      </trkpt>
      <trkpt lat="43.26903" lon="-5.1388273">
        <ele>173.0</ele>
        <time>2020-11-01T14:14:58Z</time>
      </trkpt>
      <trkpt lat="43.26904" lon="-5.138842">
        <ele>173.0</ele>
        <time>2020-11-01T14:14:59Z</time>
      </trkpt>
      <trkpt lat="43.26904" lon="-5.138855">
        <ele>172.0</ele>
        <time>2020-11-01T14:15:00Z</time>
      </trkpt>
      <trkpt lat="43.26904" lon="-5.1388674">
        <ele>172.0</ele>
        <time>2020-11-01T14:15:01Z</time>
      </trkpt>
      <trkpt lat="43.269043" lon="-5.1388803">
        <ele>172.0</ele>
        <time>2020-11-01T14:15:02Z</time>
      </trkpt>
      <trkpt lat="43.269054" lon="-5.1388927">
        <ele>172.0</ele>
        <time>2020-11-01T14:15:03Z</time>
      </trkpt>
      <trkpt lat="43.269062" lon="-5.138905">
        <ele>172.0</ele>
        <time>2020-11-01T14:15:04Z</time>
      </trkpt>
      <trkpt lat="43.269077" lon="-5.138917">
        <ele>172.0</ele>
        <time>2020-11-01T14:15:05Z</time>
      </trkpt>
      <trkpt lat="43.26909" lon="-5.1389275">
        <ele>172.0</ele>
        <time>2020-11-01T14:15:06Z</time>
      </trkpt>
      <trkpt lat="43.269093" lon="-5.1389356">
        <ele>172.0</ele>
        <time>2020-11-01T14:15:07Z</time>
      </trkpt>
      <trkpt lat="43.2691" lon="-5.1389413">
        <ele>172.0</ele>
        <time>2020-11-01T14:15:08Z</time>
      </trkpt>
      <trkpt lat="43.269104" lon="-5.138947">
        <ele>172.0</ele>
        <time>2020-11-01T14:15:09Z</time>
      </trkpt>
      <trkpt lat="43.26911" lon="-5.138953">
        <ele>172.0</ele>
        <time>2020-11-01T14:15:10Z</time>
      </trkpt>
      <trkpt lat="43.269115" lon="-5.138961">
        <ele>172.0</ele>
        <time>2020-11-01T14:15:11Z</time>
      </trkpt>
      <trkpt lat="43.26912" lon="-5.1389694">
        <ele>172.0</ele>
        <time>2020-11-01T14:15:12Z</time>
      </trkpt>
      <trkpt lat="43.269127" lon="-5.1389785">
        <ele>172.0</ele>
        <time>2020-11-01T14:15:13Z</time>
      </trkpt>
      <trkpt lat="43.26913" lon="-5.138987">
        <ele>172.0</ele>
        <time>2020-11-01T14:15:14Z</time>
      </trkpt>
      <trkpt lat="43.269135" lon="-5.1389937">
        <ele>172.0</ele>
        <time>2020-11-01T14:15:15Z</time>
      </trkpt>
      <trkpt lat="43.269142" lon="-5.1390023">
        <ele>172.0</ele>
        <time>2020-11-01T14:15:16Z</time>
      </trkpt>
      <trkpt lat="43.269146" lon="-5.139013">
        <ele>172.0</ele>
        <time>2020-11-01T14:15:17Z</time>
      </trkpt>
      <trkpt lat="43.269146" lon="-5.139023">
        <ele>172.0</ele>
        <time>2020-11-01T14:15:18Z</time>
      </trkpt>
      <trkpt lat="43.26915" lon="-5.139032">
        <ele>172.0</ele>
        <time>2020-11-01T14:15:19Z</time>
      </trkpt>
      <trkpt lat="43.26915" lon="-5.1390386">
        <ele>172.0</ele>
        <time>2020-11-01T14:15:20Z</time>
      </trkpt>
      <trkpt lat="43.26915" lon="-5.1390443">
        <ele>172.0</ele>
        <time>2020-11-01T14:15:21Z</time>
      </trkpt>
      <trkpt lat="43.269146" lon="-5.1390443">
        <ele>172.0</ele>
        <time>2020-11-01T14:15:22Z</time>
      </trkpt>
      <trkpt lat="43.269146" lon="-5.1390443">
        <ele>172.0</ele>
        <time>2020-11-01T14:15:23Z</time>
      </trkpt>
      <trkpt lat="43.26915" lon="-5.139047">
        <ele>172.0</ele>
        <time>2020-11-01T14:15:24Z</time>
      </trkpt>
      <trkpt lat="43.26915" lon="-5.139052">
        <ele>172.0</ele>
        <time>2020-11-01T14:15:25Z</time>
      </trkpt>
      <trkpt lat="43.26915" lon="-5.13906">
        <ele>172.0</ele>
        <time>2020-11-01T14:15:26Z</time>
      </trkpt>
      <trkpt lat="43.26915" lon="-5.1390686">
        <ele>172.0</ele>
        <time>2020-11-01T14:15:27Z</time>
      </trkpt>
      <trkpt lat="43.26915" lon="-5.139076">
        <ele>172.0</ele>
        <time>2020-11-01T14:15:28Z</time>
      </trkpt>
      <trkpt lat="43.26915" lon="-5.1390815">
        <ele>172.0</ele>
        <time>2020-11-01T14:15:29Z</time>
      </trkpt>
      <trkpt lat="43.269157" lon="-5.139086">
        <ele>172.0</ele>
        <time>2020-11-01T14:15:30Z</time>
      </trkpt>
      <trkpt lat="43.269157" lon="-5.13909">
        <ele>172.0</ele>
        <time>2020-11-01T14:15:31Z</time>
      </trkpt>
      <trkpt lat="43.269157" lon="-5.139096">
        <ele>172.0</ele>
        <time>2020-11-01T14:15:32Z</time>
      </trkpt>
      <trkpt lat="43.26916" lon="-5.139103">
        <ele>172.0</ele>
        <time>2020-11-01T14:15:33Z</time>
      </trkpt>
      <trkpt lat="43.26916" lon="-5.1391115">
        <ele>172.0</ele>
        <time>2020-11-01T14:15:34Z</time>
      </trkpt>
      <trkpt lat="43.269165" lon="-5.1391225">
        <ele>172.0</ele>
        <time>2020-11-01T14:15:35Z</time>
      </trkpt>
      <trkpt lat="43.269165" lon="-5.139134">
        <ele>172.0</ele>
        <time>2020-11-01T14:15:36Z</time>
      </trkpt>
      <trkpt lat="43.269173" lon="-5.139144">
        <ele>172.0</ele>
        <time>2020-11-01T14:15:37Z</time>
      </trkpt>
      <trkpt lat="43.269176" lon="-5.1391544">
        <ele>172.0</ele>
        <time>2020-11-01T14:15:38Z</time>
      </trkpt>
      <trkpt lat="43.26918" lon="-5.139165">
        <ele>172.0</ele>
        <time>2020-11-01T14:15:39Z</time>
      </trkpt>
      <trkpt lat="43.269188" lon="-5.1391764">
        <ele>172.0</ele>
        <time>2020-11-01T14:15:40Z</time>
      </trkpt>
      <trkpt lat="43.26919" lon="-5.139186">
        <ele>172.0</ele>
        <time>2020-11-01T14:15:41Z</time>
      </trkpt>
      <trkpt lat="43.269203" lon="-5.139193">
        <ele>172.0</ele>
        <time>2020-11-01T14:15:42Z</time>
      </trkpt>
      <trkpt lat="43.269222" lon="-5.1392117">
        <ele>172.0</ele>
        <time>2020-11-01T14:15:44Z</time>
      </trkpt>
      <trkpt lat="43.269222" lon="-5.1392117">
        <ele>172.0</ele>
        <time>2020-11-01T14:15:45Z</time>
      </trkpt>
      <trkpt lat="43.269226" lon="-5.1392107">
        <ele>172.0</ele>
        <time>2020-11-01T14:15:46Z</time>
      </trkpt>
      <trkpt lat="43.269234" lon="-5.139208">
        <ele>172.0</ele>
        <time>2020-11-01T14:15:47Z</time>
      </trkpt>
      <trkpt lat="43.26924" lon="-5.1392064">
        <ele>172.0</ele>
        <time>2020-11-01T14:15:48Z</time>
      </trkpt>
      <trkpt lat="43.26925" lon="-5.139207">
        <ele>172.0</ele>
        <time>2020-11-01T14:15:49Z</time>
      </trkpt>
      <trkpt lat="43.269257" lon="-5.1392107">
        <ele>172.0</ele>
        <time>2020-11-01T14:15:50Z</time>
      </trkpt>
      <trkpt lat="43.269264" lon="-5.1392174">
        <ele>172.0</ele>
        <time>2020-11-01T14:15:52Z</time>
      </trkpt>
      <trkpt lat="43.269268" lon="-5.139229">
        <ele>172.0</ele>
        <time>2020-11-01T14:15:52Z</time>
      </trkpt>
      <trkpt lat="43.26928" lon="-5.1392403">
        <ele>172.0</ele>
        <time>2020-11-01T14:15:53Z</time>
      </trkpt>
      <trkpt lat="43.269283" lon="-5.13925">
        <ele>172.0</ele>
        <time>2020-11-01T14:15:54Z</time>
      </trkpt>
      <trkpt lat="43.269283" lon="-5.1392555">
        <ele>172.0</ele>
        <time>2020-11-01T14:15:55Z</time>
      </trkpt>
      <trkpt lat="43.269287" lon="-5.13926">
        <ele>172.0</ele>
        <time>2020-11-01T14:15:56Z</time>
      </trkpt>
      <trkpt lat="43.269295" lon="-5.139265">
        <ele>172.0</ele>
        <time>2020-11-01T14:15:58Z</time>
      </trkpt>
      <trkpt lat="43.2693" lon="-5.139265">
        <ele>172.0</ele>
        <time>2020-11-01T14:15:59Z</time>
      </trkpt>
      <trkpt lat="43.2693" lon="-5.1392655">
        <ele>172.0</ele>
        <time>2020-11-01T14:16:00Z</time>
      </trkpt>
      <trkpt lat="43.269306" lon="-5.139269">
        <ele>172.0</ele>
        <time>2020-11-01T14:16:01Z</time>
      </trkpt>
      <trkpt lat="43.269306" lon="-5.1392736">
        <ele>172.0</ele>
        <time>2020-11-01T14:16:02Z</time>
      </trkpt>
      <trkpt lat="43.26931" lon="-5.139284">
        <ele>172.0</ele>
        <time>2020-11-01T14:16:03Z</time>
      </trkpt>
      <trkpt lat="43.269314" lon="-5.1392975">
        <ele>172.0</ele>
        <time>2020-11-01T14:16:04Z</time>
      </trkpt>
      <trkpt lat="43.26932" lon="-5.1393147">
        <ele>174.0</ele>
        <time>2020-11-01T14:16:05Z</time>
      </trkpt>
      <trkpt lat="43.269325" lon="-5.13933">
        <ele>174.0</ele>
        <time>2020-11-01T14:16:06Z</time>
      </trkpt>
      <trkpt lat="43.26933" lon="-5.1393414">
        <ele>174.0</ele>
        <time>2020-11-01T14:16:07Z</time>
      </trkpt>
      <trkpt lat="43.269352" lon="-5.139378">
        <ele>174.0</ele>
        <time>2020-11-01T14:16:13Z</time>
      </trkpt>
      <trkpt lat="43.269352" lon="-5.1393805">
        <ele>174.0</ele>
        <time>2020-11-01T14:16:14Z</time>
      </trkpt>
      <trkpt lat="43.269352" lon="-5.139383">
        <ele>174.0</ele>
        <time>2020-11-01T14:16:15Z</time>
      </trkpt>
      <trkpt lat="43.269352" lon="-5.1393867">
        <ele>174.0</ele>
        <time>2020-11-01T14:16:16Z</time>
      </trkpt>
      <trkpt lat="43.269352" lon="-5.139393">
        <ele>174.0</ele>
        <time>2020-11-01T14:16:17Z</time>
      </trkpt>
      <trkpt lat="43.269352" lon="-5.1393976">
        <ele>174.0</ele>
        <time>2020-11-01T14:16:18Z</time>
      </trkpt>
      <trkpt lat="43.269352" lon="-5.139405">
        <ele>174.0</ele>
        <time>2020-11-01T14:16:19Z</time>
      </trkpt>
      <trkpt lat="43.269352" lon="-5.13941">
        <ele>174.0</ele>
        <time>2020-11-01T14:16:20Z</time>
      </trkpt>
      <trkpt lat="43.269352" lon="-5.1394143">
        <ele>174.0</ele>
        <time>2020-11-01T14:16:21Z</time>
      </trkpt>
      <trkpt lat="43.269344" lon="-5.139428">
        <ele>174.0</ele>
        <time>2020-11-01T14:16:25Z</time>
      </trkpt>
      <trkpt lat="43.269344" lon="-5.1394324">
        <ele>174.0</ele>
        <time>2020-11-01T14:16:26Z</time>
      </trkpt>
      <trkpt lat="43.269352" lon="-5.1394405">
        <ele>174.0</ele>
        <time>2020-11-01T14:16:27Z</time>
      </trkpt>
      <trkpt lat="43.269356" lon="-5.13945">
        <ele>174.0</ele>
        <time>2020-11-01T14:16:28Z</time>
      </trkpt>
      <trkpt lat="43.26936" lon="-5.1394606">
        <ele>174.0</ele>
        <time>2020-11-01T14:16:29Z</time>
      </trkpt>
      <trkpt lat="43.269367" lon="-5.1394734">
        <ele>174.0</ele>
        <time>2020-11-01T14:16:30Z</time>
      </trkpt>
      <trkpt lat="43.26937" lon="-5.1394863">
        <ele>174.0</ele>
        <time>2020-11-01T14:16:31Z</time>
      </trkpt>
      <trkpt lat="43.26937" lon="-5.139497">
        <ele>174.0</ele>
        <time>2020-11-01T14:16:32Z</time>
      </trkpt>
      <trkpt lat="43.269375" lon="-5.139506">
        <ele>174.0</ele>
        <time>2020-11-01T14:16:33Z</time>
      </trkpt>
      <trkpt lat="43.269382" lon="-5.1395135">
        <ele>174.0</ele>
        <time>2020-11-01T14:16:34Z</time>
      </trkpt>
      <trkpt lat="43.269382" lon="-5.1395216">
        <ele>174.0</ele>
        <time>2020-11-01T14:16:35Z</time>
      </trkpt>
      <trkpt lat="43.269386" lon="-5.1395297">
        <ele>174.0</ele>
        <time>2020-11-01T14:16:36Z</time>
      </trkpt>
      <trkpt lat="43.269386" lon="-5.139539">
        <ele>174.0</ele>
        <time>2020-11-01T14:16:37Z</time>
      </trkpt>
      <trkpt lat="43.26939" lon="-5.139549">
        <ele>174.0</ele>
        <time>2020-11-01T14:16:38Z</time>
      </trkpt>
      <trkpt lat="43.26939" lon="-5.139557">
        <ele>174.0</ele>
        <time>2020-11-01T14:16:39Z</time>
      </trkpt>
      <trkpt lat="43.2694" lon="-5.139566">
        <ele>174.0</ele>
        <time>2020-11-01T14:16:40Z</time>
      </trkpt>
      <trkpt lat="43.269405" lon="-5.1395764">
        <ele>174.0</ele>
        <time>2020-11-01T14:16:41Z</time>
      </trkpt>
      <trkpt lat="43.269417" lon="-5.1395884">
        <ele>174.0</ele>
        <time>2020-11-01T14:16:42Z</time>
      </trkpt>
      <trkpt lat="43.26942" lon="-5.1395984">
        <ele>174.0</ele>
        <time>2020-11-01T14:16:43Z</time>
      </trkpt>
      <trkpt lat="43.26943" lon="-5.139609">
        <ele>174.0</ele>
        <time>2020-11-01T14:16:44Z</time>
      </trkpt>
      <trkpt lat="43.269432" lon="-5.1396184">
        <ele>174.0</ele>
        <time>2020-11-01T14:16:45Z</time>
      </trkpt>
      <trkpt lat="43.269436" lon="-5.1396275">
        <ele>174.0</ele>
        <time>2020-11-01T14:16:46Z</time>
      </trkpt>
      <trkpt lat="43.269447" lon="-5.139637">
        <ele>174.0</ele>
        <time>2020-11-01T14:16:47Z</time>
      </trkpt>
      <trkpt lat="43.26946" lon="-5.1396456">
        <ele>174.0</ele>
        <time>2020-11-01T14:16:48Z</time>
      </trkpt>
      <trkpt lat="43.269463" lon="-5.1396513">
        <ele>174.0</ele>
        <time>2020-11-01T14:16:49Z</time>
      </trkpt>
      <trkpt lat="43.269463" lon="-5.1396565">
        <ele>174.0</ele>
        <time>2020-11-01T14:16:50Z</time>
      </trkpt>
      <trkpt lat="43.269466" lon="-5.1396613">
        <ele>174.0</ele>
        <time>2020-11-01T14:16:51Z</time>
      </trkpt>
      <trkpt lat="43.269474" lon="-5.139667">
        <ele>174.0</ele>
        <time>2020-11-01T14:16:52Z</time>
      </trkpt>
      <trkpt lat="43.26948" lon="-5.1396737">
        <ele>174.0</ele>
        <time>2020-11-01T14:16:53Z</time>
      </trkpt>
      <trkpt lat="43.269493" lon="-5.139682">
        <ele>174.0</ele>
        <time>2020-11-01T14:16:54Z</time>
      </trkpt>
      <trkpt lat="43.269505" lon="-5.139691">
        <ele>174.0</ele>
        <time>2020-11-01T14:16:55Z</time>
      </trkpt>
      <trkpt lat="43.269516" lon="-5.139701">
        <ele>174.0</ele>
        <time>2020-11-01T14:16:56Z</time>
      </trkpt>
      <trkpt lat="43.26952" lon="-5.1397114">
        <ele>174.0</ele>
        <time>2020-11-01T14:16:57Z</time>
      </trkpt>
      <trkpt lat="43.269524" lon="-5.13972">
        <ele>174.0</ele>
        <time>2020-11-01T14:16:58Z</time>
      </trkpt>
      <trkpt lat="43.26953" lon="-5.13973">
        <ele>174.0</ele>
        <time>2020-11-01T14:16:59Z</time>
      </trkpt>
      <trkpt lat="43.269535" lon="-5.139742">
        <ele>174.0</ele>
        <time>2020-11-01T14:17:00Z</time>
      </trkpt>
      <trkpt lat="43.269535" lon="-5.1397557">
        <ele>174.0</ele>
        <time>2020-11-01T14:17:01Z</time>
      </trkpt>
      <trkpt lat="43.26954" lon="-5.1397676">
        <ele>174.0</ele>
        <time>2020-11-01T14:17:02Z</time>
      </trkpt>
      <trkpt lat="43.26954" lon="-5.139778">
        <ele>174.0</ele>
        <time>2020-11-01T14:17:03Z</time>
      </trkpt>
      <trkpt lat="43.269547" lon="-5.1397862">
        <ele>174.0</ele>
        <time>2020-11-01T14:17:04Z</time>
      </trkpt>
      <trkpt lat="43.26955" lon="-5.1397924">
        <ele>174.0</ele>
        <time>2020-11-01T14:17:05Z</time>
      </trkpt>
      <trkpt lat="43.26955" lon="-5.139798">
        <ele>174.0</ele>
        <time>2020-11-01T14:17:06Z</time>
      </trkpt>
      <trkpt lat="43.269554" lon="-5.1398034">
        <ele>174.0</ele>
        <time>2020-11-01T14:17:07Z</time>
      </trkpt>
      <trkpt lat="43.26957" lon="-5.139809">
        <ele>174.0</ele>
        <time>2020-11-01T14:17:08Z</time>
      </trkpt>
      <trkpt lat="43.269585" lon="-5.139817">
        <ele>174.0</ele>
        <time>2020-11-01T14:17:09Z</time>
      </trkpt>
      <trkpt lat="43.269608" lon="-5.1398325">
        <ele>174.0</ele>
        <time>2020-11-01T14:17:10Z</time>
      </trkpt>
      <trkpt lat="43.269623" lon="-5.139847">
        <ele>174.0</ele>
        <time>2020-11-01T14:17:11Z</time>
      </trkpt>
      <trkpt lat="43.26963" lon="-5.1398597">
        <ele>174.0</ele>
        <time>2020-11-01T14:17:12Z</time>
      </trkpt>
      <trkpt lat="43.26964" lon="-5.139872">
        <ele>174.0</ele>
        <time>2020-11-01T14:17:13Z</time>
      </trkpt>
      <trkpt lat="43.269653" lon="-5.139884">
        <ele>174.0</ele>
        <time>2020-11-01T14:17:14Z</time>
      </trkpt>
      <trkpt lat="43.269657" lon="-5.139895">
        <ele>174.0</ele>
        <time>2020-11-01T14:17:15Z</time>
      </trkpt>
      <trkpt lat="43.269657" lon="-5.1399045">
        <ele>174.0</ele>
        <time>2020-11-01T14:17:16Z</time>
      </trkpt>
      <trkpt lat="43.26966" lon="-5.139914">
        <ele>174.0</ele>
        <time>2020-11-01T14:17:17Z</time>
      </trkpt>
      <trkpt lat="43.26967" lon="-5.139922">
        <ele>174.0</ele>
        <time>2020-11-01T14:17:18Z</time>
      </trkpt>
      <trkpt lat="43.269672" lon="-5.139928">
        <ele>174.0</ele>
        <time>2020-11-01T14:17:19Z</time>
      </trkpt>
      <trkpt lat="43.269684" lon="-5.1399326">
        <ele>174.0</ele>
        <time>2020-11-01T14:17:20Z</time>
      </trkpt>
      <trkpt lat="43.269688" lon="-5.1399384">
        <ele>174.0</ele>
        <time>2020-11-01T14:17:21Z</time>
      </trkpt>
      <trkpt lat="43.269695" lon="-5.139943">
        <ele>174.0</ele>
        <time>2020-11-01T14:17:22Z</time>
      </trkpt>
      <trkpt lat="43.269695" lon="-5.1399503">
        <ele>174.0</ele>
        <time>2020-11-01T14:17:23Z</time>
      </trkpt>
      <trkpt lat="43.269695" lon="-5.139959">
        <ele>174.0</ele>
        <time>2020-11-01T14:17:24Z</time>
      </trkpt>
      <trkpt lat="43.2697" lon="-5.139968">
        <ele>174.0</ele>
        <time>2020-11-01T14:17:25Z</time>
      </trkpt>
      <trkpt lat="43.269703" lon="-5.139978">
        <ele>174.0</ele>
        <time>2020-11-01T14:17:26Z</time>
      </trkpt>
      <trkpt lat="43.26971" lon="-5.139989">
        <ele>174.0</ele>
        <time>2020-11-01T14:17:27Z</time>
      </trkpt>
      <trkpt lat="43.269714" lon="-5.14">
        <ele>174.0</ele>
        <time>2020-11-01T14:17:28Z</time>
      </trkpt>
      <trkpt lat="43.26972" lon="-5.1400094">
        <ele>174.0</ele>
        <time>2020-11-01T14:17:29Z</time>
      </trkpt>
      <trkpt lat="43.269726" lon="-5.1400185">
        <ele>174.0</ele>
        <time>2020-11-01T14:17:30Z</time>
      </trkpt>
      <trkpt lat="43.26973" lon="-5.140027">
        <ele>174.0</ele>
        <time>2020-11-01T14:17:31Z</time>
      </trkpt>
      <trkpt lat="43.26973" lon="-5.1400356">
        <ele>174.0</ele>
        <time>2020-11-01T14:17:32Z</time>
      </trkpt>
      <trkpt lat="43.26974" lon="-5.140046">
        <ele>174.0</ele>
        <time>2020-11-01T14:17:33Z</time>
      </trkpt>
      <trkpt lat="43.26975" lon="-5.140055">
        <ele>174.0</ele>
        <time>2020-11-01T14:17:34Z</time>
      </trkpt>
      <trkpt lat="43.26976" lon="-5.140064">
        <ele>174.0</ele>
        <time>2020-11-01T14:17:35Z</time>
      </trkpt>
      <trkpt lat="43.26977" lon="-5.140071">
        <ele>174.0</ele>
        <time>2020-11-01T14:17:36Z</time>
      </trkpt>
      <trkpt lat="43.26978" lon="-5.1400766">
        <ele>174.0</ele>
        <time>2020-11-01T14:17:37Z</time>
      </trkpt>
      <trkpt lat="43.269794" lon="-5.1400795">
        <ele>174.0</ele>
        <time>2020-11-01T14:17:38Z</time>
      </trkpt>
      <trkpt lat="43.269806" lon="-5.1400843">
        <ele>174.0</ele>
        <time>2020-11-01T14:17:40Z</time>
      </trkpt>
      <trkpt lat="43.26981" lon="-5.1400905">
        <ele>174.0</ele>
        <time>2020-11-01T14:17:40Z</time>
      </trkpt>
      <trkpt lat="43.269817" lon="-5.140096">
        <ele>174.0</ele>
        <time>2020-11-01T14:17:41Z</time>
      </trkpt>
      <trkpt lat="43.269825" lon="-5.1401014">
        <ele>174.0</ele>
        <time>2020-11-01T14:17:42Z</time>
      </trkpt>
      <trkpt lat="43.269833" lon="-5.1401076">
        <ele>174.0</ele>
        <time>2020-11-01T14:17:43Z</time>
      </trkpt>
      <trkpt lat="43.269836" lon="-5.140113">
        <ele>174.0</ele>
        <time>2020-11-01T14:17:44Z</time>
      </trkpt>
      <trkpt lat="43.26984" lon="-5.140118">
        <ele>174.0</ele>
        <time>2020-11-01T14:17:45Z</time>
      </trkpt>
      <trkpt lat="43.269848" lon="-5.1401234">
        <ele>174.0</ele>
        <time>2020-11-01T14:17:46Z</time>
      </trkpt>
      <trkpt lat="43.269848" lon="-5.1401267">
        <ele>174.0</ele>
        <time>2020-11-01T14:17:47Z</time>
      </trkpt>
      <trkpt lat="43.26985" lon="-5.140132">
        <ele>174.0</ele>
        <time>2020-11-01T14:17:48Z</time>
      </trkpt>
      <trkpt lat="43.269855" lon="-5.1401367">
        <ele>174.0</ele>
        <time>2020-11-01T14:17:49Z</time>
      </trkpt>
      <trkpt lat="43.269855" lon="-5.140145">
        <ele>174.0</ele>
        <time>2020-11-01T14:17:50Z</time>
      </trkpt>
      <trkpt lat="43.269863" lon="-5.1401553">
        <ele>174.0</ele>
        <time>2020-11-01T14:17:51Z</time>
      </trkpt>
      <trkpt lat="43.269863" lon="-5.140171">
        <ele>174.0</ele>
        <time>2020-11-01T14:17:52Z</time>
      </trkpt>
      <trkpt lat="43.269855" lon="-5.140186">
        <ele>174.0</ele>
        <time>2020-11-01T14:17:53Z</time>
      </trkpt>
      <trkpt lat="43.269863" lon="-5.140197">
        <ele>174.0</ele>
        <time>2020-11-01T14:17:54Z</time>
      </trkpt>
      <trkpt lat="43.269867" lon="-5.1402087">
        <ele>174.0</ele>
        <time>2020-11-01T14:17:55Z</time>
      </trkpt>
      <trkpt lat="43.26988" lon="-5.14022">
        <ele>174.0</ele>
        <time>2020-11-01T14:17:56Z</time>
      </trkpt>
      <trkpt lat="43.26989" lon="-5.1402335">
        <ele>174.0</ele>
        <time>2020-11-01T14:17:57Z</time>
      </trkpt>
      <trkpt lat="43.269894" lon="-5.1402473">
        <ele>174.0</ele>
        <time>2020-11-01T14:17:58Z</time>
      </trkpt>
      <trkpt lat="43.269894" lon="-5.140258">
        <ele>174.0</ele>
        <time>2020-11-01T14:17:59Z</time>
      </trkpt>
      <trkpt lat="43.269897" lon="-5.1402664">
        <ele>174.0</ele>
        <time>2020-11-01T14:18:00Z</time>
      </trkpt>
      <trkpt lat="43.269905" lon="-5.140274">
        <ele>174.0</ele>
        <time>2020-11-01T14:18:01Z</time>
      </trkpt>
      <trkpt lat="43.269913" lon="-5.1402817">
        <ele>174.0</ele>
        <time>2020-11-01T14:18:03Z</time>
      </trkpt>
      <trkpt lat="43.26992" lon="-5.1402907">
        <ele>174.0</ele>
        <time>2020-11-01T14:18:03Z</time>
      </trkpt>
      <trkpt lat="43.269924" lon="-5.1403003">
        <ele>174.0</ele>
        <time>2020-11-01T14:18:04Z</time>
      </trkpt>
      <trkpt lat="43.269936" lon="-5.1403127">
        <ele>174.0</ele>
        <time>2020-11-01T14:18:05Z</time>
      </trkpt>
      <trkpt lat="43.26994" lon="-5.1403255">
        <ele>174.0</ele>
        <time>2020-11-01T14:18:06Z</time>
      </trkpt>
      <trkpt lat="43.269943" lon="-5.1403394">
        <ele>174.0</ele>
        <time>2020-11-01T14:18:07Z</time>
      </trkpt>
      <trkpt lat="43.26995" lon="-5.140351">
        <ele>174.0</ele>
        <time>2020-11-01T14:18:08Z</time>
      </trkpt>
      <trkpt lat="43.26996" lon="-5.1403627">
        <ele>174.0</ele>
        <time>2020-11-01T14:18:09Z</time>
      </trkpt>
      <trkpt lat="43.26997" lon="-5.1403723">
        <ele>174.0</ele>
        <time>2020-11-01T14:18:10Z</time>
      </trkpt>
      <trkpt lat="43.269985" lon="-5.140396">
        <ele>174.0</ele>
        <time>2020-11-01T14:18:12Z</time>
      </trkpt>
      <trkpt lat="43.269985" lon="-5.1403966">
        <ele>174.0</ele>
        <time>2020-11-01T14:18:13Z</time>
      </trkpt>
      <trkpt lat="43.26999" lon="-5.1404004">
        <ele>174.0</ele>
        <time>2020-11-01T14:18:14Z</time>
      </trkpt>
      <trkpt lat="43.269997" lon="-5.140405">
        <ele>174.0</ele>
        <time>2020-11-01T14:18:15Z</time>
      </trkpt>
      <trkpt lat="43.27" lon="-5.1404114">
        <ele>174.0</ele>
        <time>2020-11-01T14:18:16Z</time>
      </trkpt>
      <trkpt lat="43.270004" lon="-5.1404176">
        <ele>174.0</ele>
        <time>2020-11-01T14:18:17Z</time>
      </trkpt>
      <trkpt lat="43.27001" lon="-5.140424">
        <ele>174.0</ele>
        <time>2020-11-01T14:18:18Z</time>
      </trkpt>
      <trkpt lat="43.27002" lon="-5.1404314">
        <ele>174.0</ele>
        <time>2020-11-01T14:18:19Z</time>
      </trkpt>
      <trkpt lat="43.27003" lon="-5.1404414">
        <ele>174.0</ele>
        <time>2020-11-01T14:18:20Z</time>
      </trkpt>
      <trkpt lat="43.270035" lon="-5.140454">
        <ele>174.0</ele>
        <time>2020-11-01T14:18:21Z</time>
      </trkpt>
      <trkpt lat="43.270046" lon="-5.140465">
        <ele>174.0</ele>
        <time>2020-11-01T14:18:22Z</time>
      </trkpt>
      <trkpt lat="43.27005" lon="-5.1404777">
        <ele>174.0</ele>
        <time>2020-11-01T14:18:24Z</time>
      </trkpt>
      <trkpt lat="43.270058" lon="-5.140488">
        <ele>174.0</ele>
        <time>2020-11-01T14:18:24Z</time>
      </trkpt>
      <trkpt lat="43.270058" lon="-5.1405005">
        <ele>174.0</ele>
        <time>2020-11-01T14:18:25Z</time>
      </trkpt>
      <trkpt lat="43.270077" lon="-5.140533">
        <ele>174.0</ele>
        <time>2020-11-01T14:18:27Z</time>
      </trkpt>
      <trkpt lat="43.270077" lon="-5.140535">
        <ele>175.0</ele>
        <time>2020-11-01T14:18:28Z</time>
      </trkpt>
      <trkpt lat="43.270077" lon="-5.14054">
        <ele>175.0</ele>
        <time>2020-11-01T14:18:29Z</time>
      </trkpt>
      <trkpt lat="43.270084" lon="-5.1405463">
        <ele>175.0</ele>
        <time>2020-11-01T14:18:30Z</time>
      </trkpt>
      <trkpt lat="43.27009" lon="-5.1405544">
        <ele>175.0</ele>
        <time>2020-11-01T14:18:31Z</time>
      </trkpt>
      <trkpt lat="43.270092" lon="-5.140563">
        <ele>175.0</ele>
        <time>2020-11-01T14:18:32Z</time>
      </trkpt>
      <trkpt lat="43.270103" lon="-5.140571">
        <ele>175.0</ele>
        <time>2020-11-01T14:18:33Z</time>
      </trkpt>
      <trkpt lat="43.270115" lon="-5.140581">
        <ele>175.0</ele>
        <time>2020-11-01T14:18:34Z</time>
      </trkpt>
      <trkpt lat="43.270123" lon="-5.1405907">
        <ele>175.0</ele>
        <time>2020-11-01T14:18:35Z</time>
      </trkpt>
      <trkpt lat="43.27013" lon="-5.1406016">
        <ele>175.0</ele>
        <time>2020-11-01T14:18:36Z</time>
      </trkpt>
      <trkpt lat="43.270138" lon="-5.1406136">
        <ele>175.0</ele>
        <time>2020-11-01T14:18:37Z</time>
      </trkpt>
      <trkpt lat="43.27015" lon="-5.1406255">
        <ele>175.0</ele>
        <time>2020-11-01T14:18:38Z</time>
      </trkpt>
      <trkpt lat="43.27016" lon="-5.140634">
        <ele>175.0</ele>
        <time>2020-11-01T14:18:39Z</time>
      </trkpt>
      <trkpt lat="43.27017" lon="-5.1406417">
        <ele>175.0</ele>
        <time>2020-11-01T14:18:40Z</time>
      </trkpt>
      <trkpt lat="43.270176" lon="-5.140649">
        <ele>175.0</ele>
        <time>2020-11-01T14:18:41Z</time>
      </trkpt>
      <trkpt lat="43.27018" lon="-5.1406565">
        <ele>175.0</ele>
        <time>2020-11-01T14:18:42Z</time>
      </trkpt>
      <trkpt lat="43.270184" lon="-5.1406636">
        <ele>175.0</ele>
        <time>2020-11-01T14:18:43Z</time>
      </trkpt>
      <trkpt lat="43.27019" lon="-5.1406703">
        <ele>176.0</ele>
        <time>2020-11-01T14:18:44Z</time>
      </trkpt>
      <trkpt lat="43.2702" lon="-5.140677">
        <ele>176.0</ele>
        <time>2020-11-01T14:18:45Z</time>
      </trkpt>
      <trkpt lat="43.27021" lon="-5.140685">
        <ele>176.0</ele>
        <time>2020-11-01T14:18:46Z</time>
      </trkpt>
      <trkpt lat="43.270214" lon="-5.1406946">
        <ele>176.0</ele>
        <time>2020-11-01T14:18:47Z</time>
      </trkpt>
      <trkpt lat="43.270226" lon="-5.1407037">
        <ele>176.0</ele>
        <time>2020-11-01T14:18:48Z</time>
      </trkpt>
      <trkpt lat="43.27023" lon="-5.1407137">
        <ele>176.0</ele>
        <time>2020-11-01T14:18:49Z</time>
      </trkpt>
      <trkpt lat="43.270237" lon="-5.1407237">
        <ele>176.0</ele>
        <time>2020-11-01T14:18:50Z</time>
      </trkpt>
      <trkpt lat="43.270245" lon="-5.1407337">
        <ele>176.0</ele>
        <time>2020-11-01T14:18:51Z</time>
      </trkpt>
      <trkpt lat="43.270252" lon="-5.1407423">
        <ele>176.0</ele>
        <time>2020-11-01T14:18:52Z</time>
      </trkpt>
      <trkpt lat="43.270256" lon="-5.14075">
        <ele>176.0</ele>
        <time>2020-11-01T14:18:53Z</time>
      </trkpt>
      <trkpt lat="43.270267" lon="-5.1407595">
        <ele>176.0</ele>
        <time>2020-11-01T14:18:55Z</time>
      </trkpt>
      <trkpt lat="43.270267" lon="-5.1407576">
        <ele>176.0</ele>
        <time>2020-11-01T14:18:56Z</time>
      </trkpt>
      <trkpt lat="43.27027" lon="-5.1407566">
        <ele>177.0</ele>
        <time>2020-11-01T14:18:57Z</time>
      </trkpt>
      <trkpt lat="43.27028" lon="-5.1407576">
        <ele>177.0</ele>
        <time>2020-11-01T14:18:58Z</time>
      </trkpt>
      <trkpt lat="43.270283" lon="-5.140759">
        <ele>177.0</ele>
        <time>2020-11-01T14:18:59Z</time>
      </trkpt>
      <trkpt lat="43.270287" lon="-5.1407614">
        <ele>177.0</ele>
        <time>2020-11-01T14:19:00Z</time>
      </trkpt>
      <trkpt lat="43.270294" lon="-5.1407623">
        <ele>177.0</ele>
        <time>2020-11-01T14:19:01Z</time>
      </trkpt>
      <trkpt lat="43.2703" lon="-5.1407633">
        <ele>177.0</ele>
        <time>2020-11-01T14:19:02Z</time>
      </trkpt>
      <trkpt lat="43.270313" lon="-5.140763">
        <ele>177.0</ele>
        <time>2020-11-01T14:19:03Z</time>
      </trkpt>
      <trkpt lat="43.270325" lon="-5.1407633">
        <ele>177.0</ele>
        <time>2020-11-01T14:19:04Z</time>
      </trkpt>
      <trkpt lat="43.27033" lon="-5.1407657">
        <ele>177.0</ele>
        <time>2020-11-01T14:19:05Z</time>
      </trkpt>
      <trkpt lat="43.27034" lon="-5.1407714">
        <ele>177.0</ele>
        <time>2020-11-01T14:19:06Z</time>
      </trkpt>
      <trkpt lat="43.270348" lon="-5.14078">
        <ele>177.0</ele>
        <time>2020-11-01T14:19:07Z</time>
      </trkpt>
      <trkpt lat="43.27036" lon="-5.140788">
        <ele>177.0</ele>
        <time>2020-11-01T14:19:09Z</time>
      </trkpt>
      <trkpt lat="43.270363" lon="-5.1407943">
        <ele>177.0</ele>
        <time>2020-11-01T14:19:09Z</time>
      </trkpt>
      <trkpt lat="43.27037" lon="-5.140802">
        <ele>177.0</ele>
        <time>2020-11-01T14:19:10Z</time>
      </trkpt>
      <trkpt lat="43.270374" lon="-5.140811">
        <ele>177.0</ele>
        <time>2020-11-01T14:19:11Z</time>
      </trkpt>
      <trkpt lat="43.27038" lon="-5.140819">
        <ele>177.0</ele>
        <time>2020-11-01T14:19:12Z</time>
      </trkpt>
      <trkpt lat="43.270386" lon="-5.1408277">
        <ele>177.0</ele>
        <time>2020-11-01T14:19:13Z</time>
      </trkpt>
      <trkpt lat="43.270386" lon="-5.1408367">
        <ele>177.0</ele>
        <time>2020-11-01T14:19:14Z</time>
      </trkpt>
      <trkpt lat="43.27039" lon="-5.1408463">
        <ele>177.0</ele>
        <time>2020-11-01T14:19:15Z</time>
      </trkpt>
      <trkpt lat="43.270393" lon="-5.1408553">
        <ele>177.0</ele>
        <time>2020-11-01T14:19:16Z</time>
      </trkpt>
      <trkpt lat="43.270405" lon="-5.140864">
        <ele>177.0</ele>
        <time>2020-11-01T14:19:17Z</time>
      </trkpt>
      <trkpt lat="43.27041" lon="-5.1408706">
        <ele>177.0</ele>
        <time>2020-11-01T14:19:18Z</time>
      </trkpt>
      <trkpt lat="43.27042" lon="-5.1408763">
        <ele>177.0</ele>
        <time>2020-11-01T14:19:19Z</time>
      </trkpt>
      <trkpt lat="43.270424" lon="-5.140881">
        <ele>177.0</ele>
        <time>2020-11-01T14:19:20Z</time>
      </trkpt>
      <trkpt lat="43.27044" lon="-5.1408896">
        <ele>177.0</ele>
        <time>2020-11-01T14:19:21Z</time>
      </trkpt>
      <trkpt lat="43.270462" lon="-5.140903">
        <ele>177.0</ele>
        <time>2020-11-01T14:19:22Z</time>
      </trkpt>
      <trkpt lat="43.27048" lon="-5.14092">
        <ele>177.0</ele>
        <time>2020-11-01T14:19:23Z</time>
      </trkpt>
      <trkpt lat="43.270496" lon="-5.140936">
        <ele>177.0</ele>
        <time>2020-11-01T14:19:24Z</time>
      </trkpt>
      <trkpt lat="43.27051" lon="-5.1409464">
        <ele>177.0</ele>
        <time>2020-11-01T14:19:25Z</time>
      </trkpt>
      <trkpt lat="43.270523" lon="-5.140951">
        <ele>178.0</ele>
        <time>2020-11-01T14:19:26Z</time>
      </trkpt>
      <trkpt lat="43.270527" lon="-5.140955">
        <ele>178.0</ele>
        <time>2020-11-01T14:19:27Z</time>
      </trkpt>
      <trkpt lat="43.27054" lon="-5.1409583">
        <ele>178.0</ele>
        <time>2020-11-01T14:19:28Z</time>
      </trkpt>
      <trkpt lat="43.27055" lon="-5.140963">
        <ele>178.0</ele>
        <time>2020-11-01T14:19:29Z</time>
      </trkpt>
      <trkpt lat="43.270557" lon="-5.1409664">
        <ele>178.0</ele>
        <time>2020-11-01T14:19:30Z</time>
      </trkpt>
      <trkpt lat="43.27057" lon="-5.1409693">
        <ele>178.0</ele>
        <time>2020-11-01T14:19:31Z</time>
      </trkpt>
      <trkpt lat="43.27058" lon="-5.140973">
        <ele>178.0</ele>
        <time>2020-11-01T14:19:32Z</time>
      </trkpt>
      <trkpt lat="43.270584" lon="-5.1409783">
        <ele>178.0</ele>
        <time>2020-11-01T14:19:33Z</time>
      </trkpt>
      <trkpt lat="43.270596" lon="-5.140984">
        <ele>178.0</ele>
        <time>2020-11-01T14:19:34Z</time>
      </trkpt>
      <trkpt lat="43.270603" lon="-5.1409903">
        <ele>178.0</ele>
        <time>2020-11-01T14:19:35Z</time>
      </trkpt>
      <trkpt lat="43.27061" lon="-5.140998">
        <ele>178.0</ele>
        <time>2020-11-01T14:19:36Z</time>
      </trkpt>
      <trkpt lat="43.27062" lon="-5.1410065">
        <ele>178.0</ele>
        <time>2020-11-01T14:19:37Z</time>
      </trkpt>
      <trkpt lat="43.270626" lon="-5.1410146">
        <ele>178.0</ele>
        <time>2020-11-01T14:19:38Z</time>
      </trkpt>
      <trkpt lat="43.270634" lon="-5.1410236">
        <ele>178.0</ele>
        <time>2020-11-01T14:19:39Z</time>
      </trkpt>
      <trkpt lat="43.270645" lon="-5.14103">
        <ele>178.0</ele>
        <time>2020-11-01T14:19:41Z</time>
      </trkpt>
      <trkpt lat="43.270668" lon="-5.141033">
        <ele>178.0</ele>
        <time>2020-11-01T14:19:41Z</time>
      </trkpt>
      <trkpt lat="43.270676" lon="-5.1410375">
        <ele>178.0</ele>
        <time>2020-11-01T14:19:42Z</time>
      </trkpt>
      <trkpt lat="43.27069" lon="-5.141041">
        <ele>178.0</ele>
        <time>2020-11-01T14:19:43Z</time>
      </trkpt>
      <trkpt lat="43.270702" lon="-5.141046">
        <ele>178.0</ele>
        <time>2020-11-01T14:19:44Z</time>
      </trkpt>
      <trkpt lat="43.270714" lon="-5.1410513">
        <ele>178.0</ele>
        <time>2020-11-01T14:19:45Z</time>
      </trkpt>
      <trkpt lat="43.270718" lon="-5.141058">
        <ele>178.0</ele>
        <time>2020-11-01T14:19:46Z</time>
      </trkpt>
      <trkpt lat="43.27073" lon="-5.141066">
        <ele>178.0</ele>
        <time>2020-11-01T14:19:47Z</time>
      </trkpt>
      <trkpt lat="43.270737" lon="-5.1410856">
        <ele>178.0</ele>
        <time>2020-11-01T14:19:49Z</time>
      </trkpt>
      <trkpt lat="43.27075" lon="-5.141084">
        <ele>178.0</ele>
        <time>2020-11-01T14:19:51Z</time>
      </trkpt>
      <trkpt lat="43.270752" lon="-5.141086">
        <ele>178.0</ele>
        <time>2020-11-01T14:19:52Z</time>
      </trkpt>
      <trkpt lat="43.27076" lon="-5.1410894">
        <ele>178.0</ele>
        <time>2020-11-01T14:19:53Z</time>
      </trkpt>
      <trkpt lat="43.270767" lon="-5.1410966">
        <ele>178.0</ele>
        <time>2020-11-01T14:19:54Z</time>
      </trkpt>
      <trkpt lat="43.270775" lon="-5.141106">
        <ele>178.0</ele>
        <time>2020-11-01T14:19:55Z</time>
      </trkpt>
      <trkpt lat="43.27078" lon="-5.141116">
        <ele>178.0</ele>
        <time>2020-11-01T14:19:56Z</time>
      </trkpt>
      <trkpt lat="43.270782" lon="-5.1411266">
        <ele>178.0</ele>
        <time>2020-11-01T14:19:57Z</time>
      </trkpt>
      <trkpt lat="43.270794" lon="-5.1411386">
        <ele>178.0</ele>
        <time>2020-11-01T14:19:58Z</time>
      </trkpt>
      <trkpt lat="43.270798" lon="-5.141151">
        <ele>178.0</ele>
        <time>2020-11-01T14:19:59Z</time>
      </trkpt>
      <trkpt lat="43.27081" lon="-5.141162">
        <ele>178.0</ele>
        <time>2020-11-01T14:20:00Z</time>
      </trkpt>
      <trkpt lat="43.270813" lon="-5.141173">
        <ele>178.0</ele>
        <time>2020-11-01T14:20:01Z</time>
      </trkpt>
      <trkpt lat="43.270824" lon="-5.141182">
        <ele>178.0</ele>
        <time>2020-11-01T14:20:02Z</time>
      </trkpt>
      <trkpt lat="43.270836" lon="-5.141192">
        <ele>178.0</ele>
        <time>2020-11-01T14:20:04Z</time>
      </trkpt>
      <trkpt lat="43.270847" lon="-5.1412024">
        <ele>178.0</ele>
        <time>2020-11-01T14:20:04Z</time>
      </trkpt>
      <trkpt lat="43.270855" lon="-5.141213">
        <ele>178.0</ele>
        <time>2020-11-01T14:20:05Z</time>
      </trkpt>
      <trkpt lat="43.270866" lon="-5.141224">
        <ele>178.0</ele>
        <time>2020-11-01T14:20:06Z</time>
      </trkpt>
      <trkpt lat="43.270878" lon="-5.141233">
        <ele>178.0</ele>
        <time>2020-11-01T14:20:07Z</time>
      </trkpt>
      <trkpt lat="43.27088" lon="-5.141241">
        <ele>178.0</ele>
        <time>2020-11-01T14:20:08Z</time>
      </trkpt>
      <trkpt lat="43.270893" lon="-5.1412473">
        <ele>178.0</ele>
        <time>2020-11-01T14:20:09Z</time>
      </trkpt>
      <trkpt lat="43.2709" lon="-5.141255">
        <ele>178.0</ele>
        <time>2020-11-01T14:20:10Z</time>
      </trkpt>
      <trkpt lat="43.270912" lon="-5.1412635">
        <ele>177.0</ele>
        <time>2020-11-01T14:20:11Z</time>
      </trkpt>
      <trkpt lat="43.270924" lon="-5.1412725">
        <ele>177.0</ele>
        <time>2020-11-01T14:20:12Z</time>
      </trkpt>
      <trkpt lat="43.270927" lon="-5.14128">
        <ele>177.0</ele>
        <time>2020-11-01T14:20:13Z</time>
      </trkpt>
      <trkpt lat="43.270943" lon="-5.141299">
        <ele>177.0</ele>
        <time>2020-11-01T14:20:16Z</time>
      </trkpt>
      <trkpt lat="43.270947" lon="-5.1413007">
        <ele>177.0</ele>
        <time>2020-11-01T14:20:18Z</time>
      </trkpt>
      <trkpt lat="43.270947" lon="-5.1413045">
        <ele>177.0</ele>
        <time>2020-11-01T14:20:18Z</time>
      </trkpt>
      <trkpt lat="43.270954" lon="-5.141308">
        <ele>176.0</ele>
        <time>2020-11-01T14:20:19Z</time>
      </trkpt>
      <trkpt lat="43.27096" lon="-5.1413307">
        <ele>176.0</ele>
        <time>2020-11-01T14:20:21Z</time>
      </trkpt>
      <trkpt lat="43.27096" lon="-5.1413364">
        <ele>176.0</ele>
        <time>2020-11-01T14:20:22Z</time>
      </trkpt>
      <trkpt lat="43.27096" lon="-5.141346">
        <ele>176.0</ele>
        <time>2020-11-01T14:20:23Z</time>
      </trkpt>
      <trkpt lat="43.27097" lon="-5.141355">
        <ele>176.0</ele>
        <time>2020-11-01T14:20:24Z</time>
      </trkpt>
      <trkpt lat="43.27097" lon="-5.141362">
        <ele>176.0</ele>
        <time>2020-11-01T14:20:25Z</time>
      </trkpt>
      <trkpt lat="43.270977" lon="-5.1413674">
        <ele>176.0</ele>
        <time>2020-11-01T14:20:26Z</time>
      </trkpt>
      <trkpt lat="43.270985" lon="-5.141371">
        <ele>176.0</ele>
        <time>2020-11-01T14:20:27Z</time>
      </trkpt>
      <trkpt lat="43.27099" lon="-5.141373">
        <ele>176.0</ele>
        <time>2020-11-01T14:20:28Z</time>
      </trkpt>
      <trkpt lat="43.271" lon="-5.1413765">
        <ele>176.0</ele>
        <time>2020-11-01T14:20:29Z</time>
      </trkpt>
      <trkpt lat="43.271008" lon="-5.1413813">
        <ele>176.0</ele>
        <time>2020-11-01T14:20:30Z</time>
      </trkpt>
      <trkpt lat="43.271023" lon="-5.1413875">
        <ele>175.0</ele>
        <time>2020-11-01T14:20:31Z</time>
      </trkpt>
      <trkpt lat="43.27104" lon="-5.1413956">
        <ele>175.0</ele>
        <time>2020-11-01T14:20:32Z</time>
      </trkpt>
      <trkpt lat="43.271057" lon="-5.141403">
        <ele>175.0</ele>
        <time>2020-11-01T14:20:34Z</time>
      </trkpt>
      <trkpt lat="43.271065" lon="-5.141411">
        <ele>175.0</ele>
        <time>2020-11-01T14:20:34Z</time>
      </trkpt>
      <trkpt lat="43.271076" lon="-5.141417">
        <ele>175.0</ele>
        <time>2020-11-01T14:20:35Z</time>
      </trkpt>
      <trkpt lat="43.27108" lon="-5.1414223">
        <ele>175.0</ele>
        <time>2020-11-01T14:20:36Z</time>
      </trkpt>
      <trkpt lat="43.27108" lon="-5.1414237">
        <ele>174.0</ele>
        <time>2020-11-01T14:20:36Z</time>
      </trkpt>
      <trkpt lat="43.27108" lon="-5.1414237">
        <ele>174.0</ele>
        <time>2020-11-01T14:20:37Z</time>
      </trkpt>
      <trkpt lat="43.27108" lon="-5.1414247">
        <ele>174.0</ele>
        <time>2020-11-01T14:20:38Z</time>
      </trkpt>
      <trkpt lat="43.271088" lon="-5.1414304">
        <ele>174.0</ele>
        <time>2020-11-01T14:20:40Z</time>
      </trkpt>
      <trkpt lat="43.27109" lon="-5.141431">
        <ele>174.0</ele>
        <time>2020-11-01T14:20:41Z</time>
      </trkpt>
      <trkpt lat="43.27109" lon="-5.14143">
        <ele>174.0</ele>
        <time>2020-11-01T14:20:42Z</time>
      </trkpt>
      <trkpt lat="43.27109" lon="-5.141437">
        <ele>174.0</ele>
        <time>2020-11-01T14:20:45Z</time>
      </trkpt>
      <trkpt lat="43.27109" lon="-5.1414375">
        <ele>174.0</ele>
        <time>2020-11-01T14:20:46Z</time>
      </trkpt>
      <trkpt lat="43.27109" lon="-5.141439">
        <ele>174.0</ele>
        <time>2020-11-01T14:20:47Z</time>
      </trkpt>
      <trkpt lat="43.27109" lon="-5.1414394">
        <ele>174.0</ele>
        <time>2020-11-01T14:20:48Z</time>
      </trkpt>
      <trkpt lat="43.271095" lon="-5.1414385">
        <ele>173.0</ele>
        <time>2020-11-01T14:20:49Z</time>
      </trkpt>
      <trkpt lat="43.271095" lon="-5.1414375">
        <ele>173.0</ele>
        <time>2020-11-01T14:20:51Z</time>
      </trkpt>
      <trkpt lat="43.271103" lon="-5.1414356">
        <ele>173.0</ele>
        <time>2020-11-01T14:20:51Z</time>
      </trkpt>
      <trkpt lat="43.271103" lon="-5.141432">
        <ele>173.0</ele>
        <time>2020-11-01T14:20:52Z</time>
      </trkpt>
      <trkpt lat="43.271103" lon="-5.141426">
        <ele>173.0</ele>
        <time>2020-11-01T14:20:53Z</time>
      </trkpt>
      <trkpt lat="43.27111" lon="-5.1414003">
        <ele>173.0</ele>
        <time>2020-11-01T14:20:55Z</time>
      </trkpt>
      <trkpt lat="43.27111" lon="-5.141401">
        <ele>173.0</ele>
        <time>2020-11-01T14:20:56Z</time>
      </trkpt>
      <trkpt lat="43.27111" lon="-5.1414027">
        <ele>173.0</ele>
        <time>2020-11-01T14:20:57Z</time>
      </trkpt>
      <trkpt lat="43.27112" lon="-5.1414046">
        <ele>173.0</ele>
        <time>2020-11-01T14:20:58Z</time>
      </trkpt>
      <trkpt lat="43.271122" lon="-5.14141">
        <ele>173.0</ele>
        <time>2020-11-01T14:20:59Z</time>
      </trkpt>
      <trkpt lat="43.271126" lon="-5.1414213">
        <ele>173.0</ele>
        <time>2020-11-01T14:21:00Z</time>
      </trkpt>
      <trkpt lat="43.271133" lon="-5.141436">
        <ele>173.0</ele>
        <time>2020-11-01T14:21:01Z</time>
      </trkpt>
      <trkpt lat="43.271137" lon="-5.1414475">
        <ele>173.0</ele>
        <time>2020-11-01T14:21:02Z</time>
      </trkpt>
      <trkpt lat="43.27114" lon="-5.141458">
        <ele>173.0</ele>
        <time>2020-11-01T14:21:03Z</time>
      </trkpt>
      <trkpt lat="43.27114" lon="-5.1414638">
        <ele>173.0</ele>
        <time>2020-11-01T14:21:04Z</time>
      </trkpt>
      <trkpt lat="43.27115" lon="-5.141471">
        <ele>173.0</ele>
        <time>2020-11-01T14:21:06Z</time>
      </trkpt>
      <trkpt lat="43.27115" lon="-5.141477">
        <ele>173.0</ele>
        <time>2020-11-01T14:21:06Z</time>
      </trkpt>
      <trkpt lat="43.271156" lon="-5.1414886">
        <ele>173.0</ele>
        <time>2020-11-01T14:21:08Z</time>
      </trkpt>
      <trkpt lat="43.271164" lon="-5.141488">
        <ele>173.0</ele>
        <time>2020-11-01T14:21:09Z</time>
      </trkpt>
      <trkpt lat="43.271168" lon="-5.1414866">
        <ele>173.0</ele>
        <time>2020-11-01T14:21:10Z</time>
      </trkpt>
      <trkpt lat="43.27117" lon="-5.141487">
        <ele>173.0</ele>
        <time>2020-11-01T14:21:11Z</time>
      </trkpt>
      <trkpt lat="43.27118" lon="-5.1414914">
        <ele>173.0</ele>
        <time>2020-11-01T14:21:12Z</time>
      </trkpt>
      <trkpt lat="43.271183" lon="-5.1414976">
        <ele>172.0</ele>
        <time>2020-11-01T14:21:13Z</time>
      </trkpt>
      <trkpt lat="43.271187" lon="-5.141504">
        <ele>172.0</ele>
        <time>2020-11-01T14:21:14Z</time>
      </trkpt>
      <trkpt lat="43.271194" lon="-5.141511">
        <ele>172.0</ele>
        <time>2020-11-01T14:21:15Z</time>
      </trkpt>
      <trkpt lat="43.2712" lon="-5.1415186">
        <ele>172.0</ele>
        <time>2020-11-01T14:21:16Z</time>
      </trkpt>
      <trkpt lat="43.2712" lon="-5.1415253">
        <ele>172.0</ele>
        <time>2020-11-01T14:21:17Z</time>
      </trkpt>
      <trkpt lat="43.2712" lon="-5.141532">
        <ele>172.0</ele>
        <time>2020-11-01T14:21:18Z</time>
      </trkpt>
      <trkpt lat="43.271202" lon="-5.141538">
        <ele>171.0</ele>
        <time>2020-11-01T14:21:19Z</time>
      </trkpt>
      <trkpt lat="43.271202" lon="-5.1415467">
        <ele>171.0</ele>
        <time>2020-11-01T14:21:20Z</time>
      </trkpt>
      <trkpt lat="43.271202" lon="-5.1415534">
        <ele>171.0</ele>
        <time>2020-11-01T14:21:21Z</time>
      </trkpt>
      <trkpt lat="43.27121" lon="-5.1415606">
        <ele>171.0</ele>
        <time>2020-11-01T14:21:23Z</time>
      </trkpt>
      <trkpt lat="43.27121" lon="-5.1415625">
        <ele>171.0</ele>
        <time>2020-11-01T14:21:23Z</time>
      </trkpt>
      <trkpt lat="43.27121" lon="-5.1415625">
        <ele>171.0</ele>
        <time>2020-11-01T14:21:24Z</time>
      </trkpt>
      <trkpt lat="43.27121" lon="-5.1415644">
        <ele>170.0</ele>
        <time>2020-11-01T14:21:25Z</time>
      </trkpt>
      <trkpt lat="43.271214" lon="-5.1415644">
        <ele>170.0</ele>
        <time>2020-11-01T14:21:26Z</time>
      </trkpt>
      <trkpt lat="43.271217" lon="-5.1415653">
        <ele>170.0</ele>
        <time>2020-11-01T14:21:27Z</time>
      </trkpt>
      <trkpt lat="43.271217" lon="-5.141567">
        <ele>170.0</ele>
        <time>2020-11-01T14:21:28Z</time>
      </trkpt>
      <trkpt lat="43.271225" lon="-5.1415706">
        <ele>170.0</ele>
        <time>2020-11-01T14:21:29Z</time>
      </trkpt>
      <trkpt lat="43.271225" lon="-5.1415734">
        <ele>170.0</ele>
        <time>2020-11-01T14:21:30Z</time>
      </trkpt>
      <trkpt lat="43.271225" lon="-5.141576">
        <ele>169.0</ele>
        <time>2020-11-01T14:21:31Z</time>
      </trkpt>
      <trkpt lat="43.271225" lon="-5.1415796">
        <ele>169.0</ele>
        <time>2020-11-01T14:21:32Z</time>
      </trkpt>
      <trkpt lat="43.271225" lon="-5.141586">
        <ele>169.0</ele>
        <time>2020-11-01T14:21:33Z</time>
      </trkpt>
      <trkpt lat="43.27123" lon="-5.1415935">
        <ele>169.0</ele>
        <time>2020-11-01T14:21:34Z</time>
      </trkpt>
      <trkpt lat="43.27123" lon="-5.141602">
        <ele>169.0</ele>
        <time>2020-11-01T14:21:35Z</time>
      </trkpt>
      <trkpt lat="43.27123" lon="-5.1416116">
        <ele>169.0</ele>
        <time>2020-11-01T14:21:36Z</time>
      </trkpt>
      <trkpt lat="43.271236" lon="-5.141622">
        <ele>169.0</ele>
        <time>2020-11-01T14:21:37Z</time>
      </trkpt>
      <trkpt lat="43.271236" lon="-5.141634">
        <ele>169.0</ele>
        <time>2020-11-01T14:21:38Z</time>
      </trkpt>
      <trkpt lat="43.271236" lon="-5.1416435">
        <ele>169.0</ele>
        <time>2020-11-01T14:21:39Z</time>
      </trkpt>
      <trkpt lat="43.271236" lon="-5.1416535">
        <ele>169.0</ele>
        <time>2020-11-01T14:21:40Z</time>
      </trkpt>
      <trkpt lat="43.27124" lon="-5.1416655">
        <ele>169.0</ele>
        <time>2020-11-01T14:21:41Z</time>
      </trkpt>
      <trkpt lat="43.271244" lon="-5.1416783">
        <ele>168.0</ele>
        <time>2020-11-01T14:21:42Z</time>
      </trkpt>
      <trkpt lat="43.27125" lon="-5.1416917">
        <ele>168.0</ele>
        <time>2020-11-01T14:21:43Z</time>
      </trkpt>
      <trkpt lat="43.27126" lon="-5.1417065">
        <ele>168.0</ele>
        <time>2020-11-01T14:21:44Z</time>
      </trkpt>
      <trkpt lat="43.27127" lon="-5.1417212">
        <ele>168.0</ele>
        <time>2020-11-01T14:21:45Z</time>
      </trkpt>
      <trkpt lat="43.271282" lon="-5.1417375">
        <ele>168.0</ele>
        <time>2020-11-01T14:21:46Z</time>
      </trkpt>
      <trkpt lat="43.27129" lon="-5.1417537">
        <ele>168.0</ele>
        <time>2020-11-01T14:21:47Z</time>
      </trkpt>
      <trkpt lat="43.271297" lon="-5.1417694">
        <ele>167.0</ele>
        <time>2020-11-01T14:21:48Z</time>
      </trkpt>
      <trkpt lat="43.271305" lon="-5.1417885">
        <ele>167.0</ele>
        <time>2020-11-01T14:21:49Z</time>
      </trkpt>
      <trkpt lat="43.271317" lon="-5.141806">
        <ele>167.0</ele>
        <time>2020-11-01T14:21:50Z</time>
      </trkpt>
      <trkpt lat="43.27132" lon="-5.1418223">
        <ele>167.0</ele>
        <time>2020-11-01T14:21:51Z</time>
      </trkpt>
      <trkpt lat="43.271336" lon="-5.1418386">
        <ele>167.0</ele>
        <time>2020-11-01T14:21:52Z</time>
      </trkpt>
      <trkpt lat="43.271347" lon="-5.1418533">
        <ele>167.0</ele>
        <time>2020-11-01T14:21:53Z</time>
      </trkpt>
      <trkpt lat="43.27136" lon="-5.1418676">
        <ele>167.0</ele>
        <time>2020-11-01T14:21:54Z</time>
      </trkpt>
      <trkpt lat="43.271362" lon="-5.14188">
        <ele>167.0</ele>
        <time>2020-11-01T14:21:55Z</time>
      </trkpt>
      <trkpt lat="43.271374" lon="-5.1418915">
        <ele>166.0</ele>
        <time>2020-11-01T14:21:56Z</time>
      </trkpt>
      <trkpt lat="43.27138" lon="-5.141902">
        <ele>166.0</ele>
        <time>2020-11-01T14:21:57Z</time>
      </trkpt>
      <trkpt lat="43.27139" lon="-5.141913">
        <ele>166.0</ele>
        <time>2020-11-01T14:21:58Z</time>
      </trkpt>
      <trkpt lat="43.271393" lon="-5.1419263">
        <ele>166.0</ele>
        <time>2020-11-01T14:21:59Z</time>
      </trkpt>
      <trkpt lat="43.271404" lon="-5.1419425">
        <ele>166.0</ele>
        <time>2020-11-01T14:22:01Z</time>
      </trkpt>
      <trkpt lat="43.271408" lon="-5.14196">
        <ele>166.0</ele>
        <time>2020-11-01T14:22:01Z</time>
      </trkpt>
      <trkpt lat="43.27141" lon="-5.141977">
        <ele>166.0</ele>
        <time>2020-11-01T14:22:02Z</time>
      </trkpt>
      <trkpt lat="43.27141" lon="-5.1419945">
        <ele>166.0</ele>
        <time>2020-11-01T14:22:03Z</time>
      </trkpt>
      <trkpt lat="43.27141" lon="-5.1420107">
        <ele>166.0</ele>
        <time>2020-11-01T14:22:04Z</time>
      </trkpt>
      <trkpt lat="43.27142" lon="-5.1420283">
        <ele>166.0</ele>
        <time>2020-11-01T14:22:05Z</time>
      </trkpt>
      <trkpt lat="43.271423" lon="-5.1420445">
        <ele>166.0</ele>
        <time>2020-11-01T14:22:06Z</time>
      </trkpt>
      <trkpt lat="43.27143" lon="-5.14206">
        <ele>166.0</ele>
        <time>2020-11-01T14:22:07Z</time>
      </trkpt>
      <trkpt lat="43.271435" lon="-5.142073">
        <ele>166.0</ele>
        <time>2020-11-01T14:22:08Z</time>
      </trkpt>
      <trkpt lat="43.271446" lon="-5.1420846">
        <ele>166.0</ele>
        <time>2020-11-01T14:22:09Z</time>
      </trkpt>
      <trkpt lat="43.27145" lon="-5.1420956">
        <ele>166.0</ele>
        <time>2020-11-01T14:22:10Z</time>
      </trkpt>
      <trkpt lat="43.271454" lon="-5.142108">
        <ele>166.0</ele>
        <time>2020-11-01T14:22:11Z</time>
      </trkpt>
      <trkpt lat="43.271454" lon="-5.1421237">
        <ele>166.0</ele>
        <time>2020-11-01T14:22:12Z</time>
      </trkpt>
      <trkpt lat="43.27146" lon="-5.142141">
        <ele>166.0</ele>
        <time>2020-11-01T14:22:13Z</time>
      </trkpt>
      <trkpt lat="43.271454" lon="-5.142159">
        <ele>166.0</ele>
        <time>2020-11-01T14:22:14Z</time>
      </trkpt>
      <trkpt lat="43.271454" lon="-5.1421747">
        <ele>166.0</ele>
        <time>2020-11-01T14:22:15Z</time>
      </trkpt>
      <trkpt lat="43.27146" lon="-5.1421866">
        <ele>166.0</ele>
        <time>2020-11-01T14:22:16Z</time>
      </trkpt>
      <trkpt lat="43.27146" lon="-5.142197">
        <ele>166.0</ele>
        <time>2020-11-01T14:22:17Z</time>
      </trkpt>
      <trkpt lat="43.271465" lon="-5.142206">
        <ele>166.0</ele>
        <time>2020-11-01T14:22:18Z</time>
      </trkpt>
      <trkpt lat="43.27147" lon="-5.1422143">
        <ele>166.0</ele>
        <time>2020-11-01T14:22:19Z</time>
      </trkpt>
      <trkpt lat="43.271477" lon="-5.142224">
        <ele>166.0</ele>
        <time>2020-11-01T14:22:20Z</time>
      </trkpt>
      <trkpt lat="43.271477" lon="-5.142238">
        <ele>166.0</ele>
        <time>2020-11-01T14:22:21Z</time>
      </trkpt>
      <trkpt lat="43.27148" lon="-5.142253">
        <ele>166.0</ele>
        <time>2020-11-01T14:22:22Z</time>
      </trkpt>
      <trkpt lat="43.27148" lon="-5.1422677">
        <ele>166.0</ele>
        <time>2020-11-01T14:22:23Z</time>
      </trkpt>
      <trkpt lat="43.271477" lon="-5.14228">
        <ele>166.0</ele>
        <time>2020-11-01T14:22:24Z</time>
      </trkpt>
      <trkpt lat="43.271477" lon="-5.142293">
        <ele>166.0</ele>
        <time>2020-11-01T14:22:25Z</time>
      </trkpt>
      <trkpt lat="43.271477" lon="-5.1423035">
        <ele>166.0</ele>
        <time>2020-11-01T14:22:26Z</time>
      </trkpt>
      <trkpt lat="43.27147" lon="-5.1423125">
        <ele>166.0</ele>
        <time>2020-11-01T14:22:27Z</time>
      </trkpt>
      <trkpt lat="43.271465" lon="-5.142319">
        <ele>166.0</ele>
        <time>2020-11-01T14:22:28Z</time>
      </trkpt>
      <trkpt lat="43.271465" lon="-5.142327">
        <ele>166.0</ele>
        <time>2020-11-01T14:22:29Z</time>
      </trkpt>
      <trkpt lat="43.27146" lon="-5.142336">
        <ele>166.0</ele>
        <time>2020-11-01T14:22:30Z</time>
      </trkpt>
      <trkpt lat="43.27146" lon="-5.1423454">
        <ele>166.0</ele>
        <time>2020-11-01T14:22:31Z</time>
      </trkpt>
      <trkpt lat="43.27146" lon="-5.1423545">
        <ele>166.0</ele>
        <time>2020-11-01T14:22:32Z</time>
      </trkpt>
      <trkpt lat="43.27146" lon="-5.142365">
        <ele>166.0</ele>
        <time>2020-11-01T14:22:33Z</time>
      </trkpt>
      <trkpt lat="43.271465" lon="-5.142376">
        <ele>166.0</ele>
        <time>2020-11-01T14:22:34Z</time>
      </trkpt>
      <trkpt lat="43.271465" lon="-5.142388">
        <ele>166.0</ele>
        <time>2020-11-01T14:22:35Z</time>
      </trkpt>
      <trkpt lat="43.271465" lon="-5.1423993">
        <ele>166.0</ele>
        <time>2020-11-01T14:22:36Z</time>
      </trkpt>
      <trkpt lat="43.27147" lon="-5.1424108">
        <ele>166.0</ele>
        <time>2020-11-01T14:22:37Z</time>
      </trkpt>
      <trkpt lat="43.27147" lon="-5.1424227">
        <ele>166.0</ele>
        <time>2020-11-01T14:22:38Z</time>
      </trkpt>
      <trkpt lat="43.271465" lon="-5.1424327">
        <ele>166.0</ele>
        <time>2020-11-01T14:22:39Z</time>
      </trkpt>
      <trkpt lat="43.271465" lon="-5.142443">
        <ele>166.0</ele>
        <time>2020-11-01T14:22:40Z</time>
      </trkpt>
      <trkpt lat="43.27146" lon="-5.142454">
        <ele>166.0</ele>
        <time>2020-11-01T14:22:41Z</time>
      </trkpt>
      <trkpt lat="43.27146" lon="-5.142463">
        <ele>166.0</ele>
        <time>2020-11-01T14:22:42Z</time>
      </trkpt>
      <trkpt lat="43.27146" lon="-5.1424704">
        <ele>166.0</ele>
        <time>2020-11-01T14:22:43Z</time>
      </trkpt>
      <trkpt lat="43.271454" lon="-5.142477">
        <ele>166.0</ele>
        <time>2020-11-01T14:22:44Z</time>
      </trkpt>
      <trkpt lat="43.271454" lon="-5.142481">
        <ele>166.0</ele>
        <time>2020-11-01T14:22:45Z</time>
      </trkpt>
      <trkpt lat="43.27145" lon="-5.1424828">
        <ele>166.0</ele>
        <time>2020-11-01T14:22:46Z</time>
      </trkpt>
      <trkpt lat="43.27145" lon="-5.142477">
        <ele>168.0</ele>
        <time>2020-11-01T14:22:48Z</time>
      </trkpt>
      <trkpt lat="43.27145" lon="-5.1424756">
        <ele>168.0</ele>
        <time>2020-11-01T14:22:49Z</time>
      </trkpt>
      <trkpt lat="43.271454" lon="-5.142477">
        <ele>168.0</ele>
        <time>2020-11-01T14:22:50Z</time>
      </trkpt>
      <trkpt lat="43.271454" lon="-5.14248">
        <ele>168.0</ele>
        <time>2020-11-01T14:22:51Z</time>
      </trkpt>
      <trkpt lat="43.271454" lon="-5.1424856">
        <ele>168.0</ele>
        <time>2020-11-01T14:22:52Z</time>
      </trkpt>
      <trkpt lat="43.27146" lon="-5.1424956">
        <ele>168.0</ele>
        <time>2020-11-01T14:22:53Z</time>
      </trkpt>
      <trkpt lat="43.271465" lon="-5.142508">
        <ele>168.0</ele>
        <time>2020-11-01T14:22:54Z</time>
      </trkpt>
      <trkpt lat="43.27147" lon="-5.142522">
        <ele>168.0</ele>
        <time>2020-11-01T14:22:55Z</time>
      </trkpt>
      <trkpt lat="43.271477" lon="-5.1425343">
        <ele>168.0</ele>
        <time>2020-11-01T14:22:56Z</time>
      </trkpt>
      <trkpt lat="43.271484" lon="-5.1425467">
        <ele>168.0</ele>
        <time>2020-11-01T14:22:57Z</time>
      </trkpt>
      <trkpt lat="43.271492" lon="-5.14256">
        <ele>168.0</ele>
        <time>2020-11-01T14:22:58Z</time>
      </trkpt>
      <trkpt lat="43.271492" lon="-5.142572">
        <ele>168.0</ele>
        <time>2020-11-01T14:22:59Z</time>
      </trkpt>
      <trkpt lat="43.271496" lon="-5.1425824">
        <ele>168.0</ele>
        <time>2020-11-01T14:23:00Z</time>
      </trkpt>
      <trkpt lat="43.2715" lon="-5.1425924">
        <ele>168.0</ele>
        <time>2020-11-01T14:23:01Z</time>
      </trkpt>
      <trkpt lat="43.2715" lon="-5.142604">
        <ele>168.0</ele>
        <time>2020-11-01T14:23:02Z</time>
      </trkpt>
      <trkpt lat="43.2715" lon="-5.1426153">
        <ele>168.0</ele>
        <time>2020-11-01T14:23:03Z</time>
      </trkpt>
      <trkpt lat="43.2715" lon="-5.142627">
        <ele>168.0</ele>
        <time>2020-11-01T14:23:04Z</time>
      </trkpt>
      <trkpt lat="43.2715" lon="-5.142637">
        <ele>168.0</ele>
        <time>2020-11-01T14:23:05Z</time>
      </trkpt>
      <trkpt lat="43.271507" lon="-5.1426477">
        <ele>168.0</ele>
        <time>2020-11-01T14:23:06Z</time>
      </trkpt>
      <trkpt lat="43.27151" lon="-5.142659">
        <ele>168.0</ele>
        <time>2020-11-01T14:23:07Z</time>
      </trkpt>
      <trkpt lat="43.271515" lon="-5.1426697">
        <ele>168.0</ele>
        <time>2020-11-01T14:23:08Z</time>
      </trkpt>
      <trkpt lat="43.271523" lon="-5.1426783">
        <ele>168.0</ele>
        <time>2020-11-01T14:23:09Z</time>
      </trkpt>
      <trkpt lat="43.27153" lon="-5.142688">
        <ele>168.0</ele>
        <time>2020-11-01T14:23:10Z</time>
      </trkpt>
      <trkpt lat="43.271538" lon="-5.1426992">
        <ele>168.0</ele>
        <time>2020-11-01T14:23:11Z</time>
      </trkpt>
      <trkpt lat="43.27154" lon="-5.14271">
        <ele>168.0</ele>
        <time>2020-11-01T14:23:12Z</time>
      </trkpt>
      <trkpt lat="43.271545" lon="-5.142721">
        <ele>168.0</ele>
        <time>2020-11-01T14:23:13Z</time>
      </trkpt>
      <trkpt lat="43.271557" lon="-5.142732">
        <ele>168.0</ele>
        <time>2020-11-01T14:23:14Z</time>
      </trkpt>
      <trkpt lat="43.27156" lon="-5.142741">
        <ele>168.0</ele>
        <time>2020-11-01T14:23:15Z</time>
      </trkpt>
      <trkpt lat="43.27157" lon="-5.1427526">
        <ele>168.0</ele>
        <time>2020-11-01T14:23:16Z</time>
      </trkpt>
      <trkpt lat="43.271572" lon="-5.142766">
        <ele>168.0</ele>
        <time>2020-11-01T14:23:17Z</time>
      </trkpt>
      <trkpt lat="43.271576" lon="-5.1427784">
        <ele>168.0</ele>
        <time>2020-11-01T14:23:18Z</time>
      </trkpt>
      <trkpt lat="43.271584" lon="-5.1427884">
        <ele>168.0</ele>
        <time>2020-11-01T14:23:19Z</time>
      </trkpt>
      <trkpt lat="43.271584" lon="-5.142797">
        <ele>168.0</ele>
        <time>2020-11-01T14:23:20Z</time>
      </trkpt>
      <trkpt lat="43.271584" lon="-5.142805">
        <ele>168.0</ele>
        <time>2020-11-01T14:23:21Z</time>
      </trkpt>
      <trkpt lat="43.271587" lon="-5.1428146">
        <ele>168.0</ele>
        <time>2020-11-01T14:23:22Z</time>
      </trkpt>
      <trkpt lat="43.27159" lon="-5.142826">
        <ele>168.0</ele>
        <time>2020-11-01T14:23:23Z</time>
      </trkpt>
      <trkpt lat="43.271603" lon="-5.142838">
        <ele>168.0</ele>
        <time>2020-11-01T14:23:24Z</time>
      </trkpt>
      <trkpt lat="43.271614" lon="-5.1428504">
        <ele>168.0</ele>
        <time>2020-11-01T14:23:25Z</time>
      </trkpt>
      <trkpt lat="43.271626" lon="-5.142862">
        <ele>168.0</ele>
        <time>2020-11-01T14:23:26Z</time>
      </trkpt>
      <trkpt lat="43.27163" lon="-5.142872">
        <ele>168.0</ele>
        <time>2020-11-01T14:23:27Z</time>
      </trkpt>
      <trkpt lat="43.27164" lon="-5.14288">
        <ele>168.0</ele>
        <time>2020-11-01T14:23:28Z</time>
      </trkpt>
      <trkpt lat="43.271645" lon="-5.142886">
        <ele>168.0</ele>
        <time>2020-11-01T14:23:29Z</time>
      </trkpt>
      <trkpt lat="43.27166" lon="-5.1428933">
        <ele>168.0</ele>
        <time>2020-11-01T14:23:31Z</time>
      </trkpt>
      <trkpt lat="43.27166" lon="-5.1428924">
        <ele>168.0</ele>
        <time>2020-11-01T14:23:32Z</time>
      </trkpt>
      <trkpt lat="43.27166" lon="-5.1428924">
        <ele>168.0</ele>
        <time>2020-11-01T14:23:33Z</time>
      </trkpt>
      <trkpt lat="43.27166" lon="-5.1428933">
        <ele>168.0</ele>
        <time>2020-11-01T14:23:34Z</time>
      </trkpt>
      <trkpt lat="43.271664" lon="-5.1428943">
        <ele>168.0</ele>
        <time>2020-11-01T14:23:35Z</time>
      </trkpt>
      <trkpt lat="43.271664" lon="-5.142895">
        <ele>168.0</ele>
        <time>2020-11-01T14:23:36Z</time>
      </trkpt>
      <trkpt lat="43.27167" lon="-5.1429014">
        <ele>168.0</ele>
        <time>2020-11-01T14:23:38Z</time>
      </trkpt>
      <trkpt lat="43.27167" lon="-5.142902">
        <ele>168.0</ele>
        <time>2020-11-01T14:23:39Z</time>
      </trkpt>
      <trkpt lat="43.271675" lon="-5.1429048">
        <ele>168.0</ele>
        <time>2020-11-01T14:23:40Z</time>
      </trkpt>
      <trkpt lat="43.271675" lon="-5.1429076">
        <ele>168.0</ele>
        <time>2020-11-01T14:23:41Z</time>
      </trkpt>
      <trkpt lat="43.271675" lon="-5.1429095">
        <ele>168.0</ele>
        <time>2020-11-01T14:23:42Z</time>
      </trkpt>
      <trkpt lat="43.27168" lon="-5.142914">
        <ele>168.0</ele>
        <time>2020-11-01T14:23:43Z</time>
      </trkpt>
      <trkpt lat="43.271687" lon="-5.1429195">
        <ele>168.0</ele>
        <time>2020-11-01T14:23:44Z</time>
      </trkpt>
      <trkpt lat="43.27169" lon="-5.142926">
        <ele>168.0</ele>
        <time>2020-11-01T14:23:45Z</time>
      </trkpt>
      <trkpt lat="43.271694" lon="-5.1429353">
        <ele>168.0</ele>
        <time>2020-11-01T14:23:46Z</time>
      </trkpt>
      <trkpt lat="43.271706" lon="-5.142945">
        <ele>168.0</ele>
        <time>2020-11-01T14:23:47Z</time>
      </trkpt>
      <trkpt lat="43.27171" lon="-5.1429534">
        <ele>168.0</ele>
        <time>2020-11-01T14:23:48Z</time>
      </trkpt>
      <trkpt lat="43.271717" lon="-5.142964">
        <ele>168.0</ele>
        <time>2020-11-01T14:23:49Z</time>
      </trkpt>
      <trkpt lat="43.27172" lon="-5.142975">
        <ele>168.0</ele>
        <time>2020-11-01T14:23:50Z</time>
      </trkpt>
      <trkpt lat="43.271725" lon="-5.1429873">
        <ele>168.0</ele>
        <time>2020-11-01T14:23:51Z</time>
      </trkpt>
      <trkpt lat="43.271732" lon="-5.142998">
        <ele>168.0</ele>
        <time>2020-11-01T14:23:52Z</time>
      </trkpt>
      <trkpt lat="43.271736" lon="-5.1430106">
        <ele>168.0</ele>
        <time>2020-11-01T14:23:54Z</time>
      </trkpt>
      <trkpt lat="43.27174" lon="-5.1430225">
        <ele>168.0</ele>
        <time>2020-11-01T14:23:54Z</time>
      </trkpt>
      <trkpt lat="43.27174" lon="-5.1430316">
        <ele>168.0</ele>
        <time>2020-11-01T14:23:55Z</time>
      </trkpt>
      <trkpt lat="43.27174" lon="-5.143041">
        <ele>168.0</ele>
        <time>2020-11-01T14:23:56Z</time>
      </trkpt>
      <trkpt lat="43.271748" lon="-5.1430526">
        <ele>168.0</ele>
        <time>2020-11-01T14:23:57Z</time>
      </trkpt>
      <trkpt lat="43.271748" lon="-5.143066">
        <ele>168.0</ele>
        <time>2020-11-01T14:23:58Z</time>
      </trkpt>
      <trkpt lat="43.271748" lon="-5.143077">
        <ele>168.0</ele>
        <time>2020-11-01T14:23:59Z</time>
      </trkpt>
      <trkpt lat="43.271748" lon="-5.143087">
        <ele>168.0</ele>
        <time>2020-11-01T14:24:00Z</time>
      </trkpt>
      <trkpt lat="43.271748" lon="-5.143097">
        <ele>168.0</ele>
        <time>2020-11-01T14:24:01Z</time>
      </trkpt>
      <trkpt lat="43.271748" lon="-5.1431074">
        <ele>168.0</ele>
        <time>2020-11-01T14:24:02Z</time>
      </trkpt>
      <trkpt lat="43.27175" lon="-5.1431227">
        <ele>168.0</ele>
        <time>2020-11-01T14:24:03Z</time>
      </trkpt>
      <trkpt lat="43.271755" lon="-5.143138">
        <ele>168.0</ele>
        <time>2020-11-01T14:24:04Z</time>
      </trkpt>
      <trkpt lat="43.271763" lon="-5.143155">
        <ele>168.0</ele>
        <time>2020-11-01T14:24:05Z</time>
      </trkpt>
      <trkpt lat="43.271767" lon="-5.14317">
        <ele>168.0</ele>
        <time>2020-11-01T14:24:07Z</time>
      </trkpt>
      <trkpt lat="43.27177" lon="-5.1431823">
        <ele>168.0</ele>
        <time>2020-11-01T14:24:07Z</time>
      </trkpt>
      <trkpt lat="43.27178" lon="-5.1431904">
        <ele>168.0</ele>
        <time>2020-11-01T14:24:08Z</time>
      </trkpt>
      <trkpt lat="43.271782" lon="-5.143195">
        <ele>168.0</ele>
        <time>2020-11-01T14:24:09Z</time>
      </trkpt>
      <trkpt lat="43.271786" lon="-5.1432">
        <ele>168.0</ele>
        <time>2020-11-01T14:24:10Z</time>
      </trkpt>
      <trkpt lat="43.271797" lon="-5.143206">
        <ele>168.0</ele>
        <time>2020-11-01T14:24:13Z</time>
      </trkpt>
      <trkpt lat="43.271793" lon="-5.143218">
        <ele>168.0</ele>
        <time>2020-11-01T14:24:16Z</time>
      </trkpt>
      <trkpt lat="43.271793" lon="-5.143219">
        <ele>169.0</ele>
        <time>2020-11-01T14:24:16Z</time>
      </trkpt>
      <trkpt lat="43.271793" lon="-5.1432204">
        <ele>169.0</ele>
        <time>2020-11-01T14:24:17Z</time>
      </trkpt>
      <trkpt lat="43.27182" lon="-5.1432147">
        <ele>169.0</ele>
        <time>2020-11-01T14:25:05Z</time>
      </trkpt>
      <trkpt lat="43.271824" lon="-5.143217">
        <ele>169.0</ele>
        <time>2020-11-01T14:25:06Z</time>
      </trkpt>
      <trkpt lat="43.271824" lon="-5.1432247">
        <ele>169.0</ele>
        <time>2020-11-01T14:25:07Z</time>
      </trkpt>
      <trkpt lat="43.271828" lon="-5.1432347">
        <ele>169.0</ele>
        <time>2020-11-01T14:25:08Z</time>
      </trkpt>
      <trkpt lat="43.271828" lon="-5.1432447">
        <ele>169.0</ele>
        <time>2020-11-01T14:25:09Z</time>
      </trkpt>
      <trkpt lat="43.271835" lon="-5.1432533">
        <ele>169.0</ele>
        <time>2020-11-01T14:25:10Z</time>
      </trkpt>
      <trkpt lat="43.27184" lon="-5.143262">
        <ele>169.0</ele>
        <time>2020-11-01T14:25:11Z</time>
      </trkpt>
      <trkpt lat="43.271843" lon="-5.1432705">
        <ele>169.0</ele>
        <time>2020-11-01T14:25:12Z</time>
      </trkpt>
      <trkpt lat="43.271854" lon="-5.143281">
        <ele>169.0</ele>
        <time>2020-11-01T14:25:13Z</time>
      </trkpt>
      <trkpt lat="43.27186" lon="-5.14329">
        <ele>169.0</ele>
        <time>2020-11-01T14:25:14Z</time>
      </trkpt>
      <trkpt lat="43.27187" lon="-5.1432986">
        <ele>169.0</ele>
        <time>2020-11-01T14:25:15Z</time>
      </trkpt>
      <trkpt lat="43.27188" lon="-5.143307">
        <ele>169.0</ele>
        <time>2020-11-01T14:25:16Z</time>
      </trkpt>
      <trkpt lat="43.27189" lon="-5.1433144">
        <ele>169.0</ele>
        <time>2020-11-01T14:25:17Z</time>
      </trkpt>
      <trkpt lat="43.271896" lon="-5.1433215">
        <ele>169.0</ele>
        <time>2020-11-01T14:25:18Z</time>
      </trkpt>
      <trkpt lat="43.2719" lon="-5.1433306">
        <ele>169.0</ele>
        <time>2020-11-01T14:25:19Z</time>
      </trkpt>
      <trkpt lat="43.27191" lon="-5.1433425">
        <ele>169.0</ele>
        <time>2020-11-01T14:25:20Z</time>
      </trkpt>
      <trkpt lat="43.271915" lon="-5.1433573">
        <ele>169.0</ele>
        <time>2020-11-01T14:25:21Z</time>
      </trkpt>
      <trkpt lat="43.27192" lon="-5.143372">
        <ele>169.0</ele>
        <time>2020-11-01T14:25:22Z</time>
      </trkpt>
      <trkpt lat="43.271927" lon="-5.1433887">
        <ele>169.0</ele>
        <time>2020-11-01T14:25:23Z</time>
      </trkpt>
      <trkpt lat="43.271927" lon="-5.143404">
        <ele>169.0</ele>
        <time>2020-11-01T14:25:25Z</time>
      </trkpt>
      <trkpt lat="43.27193" lon="-5.1434145">
        <ele>169.0</ele>
        <time>2020-11-01T14:25:25Z</time>
      </trkpt>
      <trkpt lat="43.27193" lon="-5.1434236">
        <ele>169.0</ele>
        <time>2020-11-01T14:25:26Z</time>
      </trkpt>
      <trkpt lat="43.271935" lon="-5.1434317">
        <ele>169.0</ele>
        <time>2020-11-01T14:25:27Z</time>
      </trkpt>
      <trkpt lat="43.271942" lon="-5.14344">
        <ele>169.0</ele>
        <time>2020-11-01T14:25:28Z</time>
      </trkpt>
      <trkpt lat="43.271942" lon="-5.14345">
        <ele>169.0</ele>
        <time>2020-11-01T14:25:29Z</time>
      </trkpt>
      <trkpt lat="43.271942" lon="-5.143459">
        <ele>169.0</ele>
        <time>2020-11-01T14:25:30Z</time>
      </trkpt>
      <trkpt lat="43.271946" lon="-5.1434674">
        <ele>169.0</ele>
        <time>2020-11-01T14:25:31Z</time>
      </trkpt>
      <trkpt lat="43.271946" lon="-5.1434746">
        <ele>169.0</ele>
        <time>2020-11-01T14:25:32Z</time>
      </trkpt>
      <trkpt lat="43.27195" lon="-5.143482">
        <ele>169.0</ele>
        <time>2020-11-01T14:25:33Z</time>
      </trkpt>
      <trkpt lat="43.271957" lon="-5.143491">
        <ele>169.0</ele>
        <time>2020-11-01T14:25:34Z</time>
      </trkpt>
      <trkpt lat="43.27196" lon="-5.143497">
        <ele>169.0</ele>
        <time>2020-11-01T14:25:35Z</time>
      </trkpt>
      <trkpt lat="43.271965" lon="-5.1435037">
        <ele>169.0</ele>
        <time>2020-11-01T14:25:36Z</time>
      </trkpt>
      <trkpt lat="43.271973" lon="-5.1435094">
        <ele>169.0</ele>
        <time>2020-11-01T14:25:37Z</time>
      </trkpt>
      <trkpt lat="43.271976" lon="-5.143515">
        <ele>169.0</ele>
        <time>2020-11-01T14:25:38Z</time>
      </trkpt>
      <trkpt lat="43.271812" lon="-5.143651">
        <ele>169.0</ele>
        <time>2020-11-01T14:29:07Z</time>
      </trkpt>
      <trkpt lat="43.271812" lon="-5.1436486">
        <ele>169.0</ele>
        <time>2020-11-01T14:29:08Z</time>
      </trkpt>
      <trkpt lat="43.27182" lon="-5.143645">
        <ele>169.0</ele>
        <time>2020-11-01T14:29:09Z</time>
      </trkpt>
      <trkpt lat="43.271824" lon="-5.1436396">
        <ele>169.0</ele>
        <time>2020-11-01T14:29:10Z</time>
      </trkpt>
      <trkpt lat="43.271835" lon="-5.1436357">
        <ele>169.0</ele>
        <time>2020-11-01T14:29:11Z</time>
      </trkpt>
      <trkpt lat="43.27184" lon="-5.1436334">
        <ele>169.0</ele>
        <time>2020-11-01T14:29:12Z</time>
      </trkpt>
      <trkpt lat="43.27184" lon="-5.1436315">
        <ele>169.0</ele>
        <time>2020-11-01T14:29:13Z</time>
      </trkpt>
      <trkpt lat="43.271843" lon="-5.1436324">
        <ele>169.0</ele>
        <time>2020-11-01T14:29:14Z</time>
      </trkpt>
      <trkpt lat="43.27185" lon="-5.1436357">
        <ele>169.0</ele>
        <time>2020-11-01T14:29:15Z</time>
      </trkpt>
      <trkpt lat="43.271854" lon="-5.143638">
        <ele>169.0</ele>
        <time>2020-11-01T14:29:16Z</time>
      </trkpt>
      <trkpt lat="43.271854" lon="-5.1436415">
        <ele>169.0</ele>
        <time>2020-11-01T14:29:17Z</time>
      </trkpt>
      <trkpt lat="43.27186" lon="-5.1436453">
        <ele>169.0</ele>
        <time>2020-11-01T14:29:18Z</time>
      </trkpt>
      <trkpt lat="43.27187" lon="-5.1436486">
        <ele>169.0</ele>
        <time>2020-11-01T14:29:19Z</time>
      </trkpt>
      <trkpt lat="43.27188" lon="-5.143652">
        <ele>169.0</ele>
        <time>2020-11-01T14:29:20Z</time>
      </trkpt>
      <trkpt lat="43.27189" lon="-5.143656">
        <ele>169.0</ele>
        <time>2020-11-01T14:29:21Z</time>
      </trkpt>
      <trkpt lat="43.271904" lon="-5.1436596">
        <ele>169.0</ele>
        <time>2020-11-01T14:29:22Z</time>
      </trkpt>
      <trkpt lat="43.27192" lon="-5.1436644">
        <ele>169.0</ele>
        <time>2020-11-01T14:29:23Z</time>
      </trkpt>
      <trkpt lat="43.271935" lon="-5.143669">
        <ele>169.0</ele>
        <time>2020-11-01T14:29:24Z</time>
      </trkpt>
      <trkpt lat="43.27195" lon="-5.1436715">
        <ele>169.0</ele>
        <time>2020-11-01T14:29:25Z</time>
      </trkpt>
      <trkpt lat="43.27196" lon="-5.1436715">
        <ele>169.0</ele>
        <time>2020-11-01T14:29:26Z</time>
      </trkpt>
      <trkpt lat="43.271973" lon="-5.1436734">
        <ele>169.0</ele>
        <time>2020-11-01T14:29:27Z</time>
      </trkpt>
      <trkpt lat="43.271976" lon="-5.1436753">
        <ele>169.0</ele>
        <time>2020-11-01T14:29:28Z</time>
      </trkpt>
      <trkpt lat="43.27198" lon="-5.1436777">
        <ele>169.0</ele>
        <time>2020-11-01T14:29:29Z</time>
      </trkpt>
      <trkpt lat="43.271988" lon="-5.143681">
        <ele>169.0</ele>
        <time>2020-11-01T14:29:30Z</time>
      </trkpt>
      <trkpt lat="43.271996" lon="-5.1436863">
        <ele>169.0</ele>
        <time>2020-11-01T14:29:31Z</time>
      </trkpt>
      <trkpt lat="43.272007" lon="-5.1436925">
        <ele>169.0</ele>
        <time>2020-11-01T14:29:32Z</time>
      </trkpt>
      <trkpt lat="43.27202" lon="-5.1436973">
        <ele>169.0</ele>
        <time>2020-11-01T14:29:34Z</time>
      </trkpt>
      <trkpt lat="43.27203" lon="-5.1437025">
        <ele>169.0</ele>
        <time>2020-11-01T14:29:34Z</time>
      </trkpt>
      <trkpt lat="43.272038" lon="-5.143708">
        <ele>168.0</ele>
        <time>2020-11-01T14:29:35Z</time>
      </trkpt>
      <trkpt lat="43.272053" lon="-5.1437125">
        <ele>168.0</ele>
        <time>2020-11-01T14:29:36Z</time>
      </trkpt>
      <trkpt lat="43.272064" lon="-5.143714">
        <ele>168.0</ele>
        <time>2020-11-01T14:29:37Z</time>
      </trkpt>
      <trkpt lat="43.272076" lon="-5.1437163">
        <ele>168.0</ele>
        <time>2020-11-01T14:29:38Z</time>
      </trkpt>
      <trkpt lat="43.27208" lon="-5.1437154">
        <ele>168.0</ele>
        <time>2020-11-01T14:29:39Z</time>
      </trkpt>
      <trkpt lat="43.27209" lon="-5.143714">
        <ele>168.0</ele>
        <time>2020-11-01T14:29:40Z</time>
      </trkpt>
      <trkpt lat="43.2721" lon="-5.143714">
        <ele>168.0</ele>
        <time>2020-11-01T14:29:41Z</time>
      </trkpt>
      <trkpt lat="43.27211" lon="-5.1437182">
        <ele>168.0</ele>
        <time>2020-11-01T14:29:42Z</time>
      </trkpt>
      <trkpt lat="43.272114" lon="-5.143725">
        <ele>168.0</ele>
        <time>2020-11-01T14:29:43Z</time>
      </trkpt>
      <trkpt lat="43.27212" lon="-5.1437345">
        <ele>168.0</ele>
        <time>2020-11-01T14:29:44Z</time>
      </trkpt>
      <trkpt lat="43.272125" lon="-5.143746">
        <ele>168.0</ele>
        <time>2020-11-01T14:29:45Z</time>
      </trkpt>
      <trkpt lat="43.27213" lon="-5.1437573">
        <ele>168.0</ele>
        <time>2020-11-01T14:29:46Z</time>
      </trkpt>
      <trkpt lat="43.272137" lon="-5.1437683">
        <ele>168.0</ele>
        <time>2020-11-01T14:29:47Z</time>
      </trkpt>
      <trkpt lat="43.272144" lon="-5.143779">
        <ele>168.0</ele>
        <time>2020-11-01T14:29:48Z</time>
      </trkpt>
      <trkpt lat="43.272152" lon="-5.1437883">
        <ele>168.0</ele>
        <time>2020-11-01T14:29:49Z</time>
      </trkpt>
      <trkpt lat="43.27216" lon="-5.1437984">
        <ele>168.0</ele>
        <time>2020-11-01T14:29:50Z</time>
      </trkpt>
      <trkpt lat="43.272175" lon="-5.143809">
        <ele>168.0</ele>
        <time>2020-11-01T14:29:51Z</time>
      </trkpt>
      <trkpt lat="43.272182" lon="-5.143818">
        <ele>168.0</ele>
        <time>2020-11-01T14:29:52Z</time>
      </trkpt>
      <trkpt lat="43.27219" lon="-5.143824">
        <ele>168.0</ele>
        <time>2020-11-01T14:29:53Z</time>
      </trkpt>
      <trkpt lat="43.2722" lon="-5.1438303">
        <ele>168.0</ele>
        <time>2020-11-01T14:29:54Z</time>
      </trkpt>
      <trkpt lat="43.27221" lon="-5.143838">
        <ele>168.0</ele>
        <time>2020-11-01T14:29:55Z</time>
      </trkpt>
      <trkpt lat="43.272213" lon="-5.1438475">
        <ele>168.0</ele>
        <time>2020-11-01T14:29:56Z</time>
      </trkpt>
      <trkpt lat="43.272224" lon="-5.1438575">
        <ele>168.0</ele>
        <time>2020-11-01T14:29:57Z</time>
      </trkpt>
      <trkpt lat="43.27223" lon="-5.143866">
        <ele>168.0</ele>
        <time>2020-11-01T14:29:58Z</time>
      </trkpt>
      <trkpt lat="43.27224" lon="-5.1438746">
        <ele>168.0</ele>
        <time>2020-11-01T14:29:59Z</time>
      </trkpt>
      <trkpt lat="43.272247" lon="-5.14388">
        <ele>168.0</ele>
        <time>2020-11-01T14:30:00Z</time>
      </trkpt>
      <trkpt lat="43.27226" lon="-5.1438813">
        <ele>168.0</ele>
        <time>2020-11-01T14:30:01Z</time>
      </trkpt>
      <trkpt lat="43.27227" lon="-5.143883">
        <ele>168.0</ele>
        <time>2020-11-01T14:30:02Z</time>
      </trkpt>
      <trkpt lat="43.272274" lon="-5.1438856">
        <ele>168.0</ele>
        <time>2020-11-01T14:30:03Z</time>
      </trkpt>
      <trkpt lat="43.272278" lon="-5.143888">
        <ele>168.0</ele>
        <time>2020-11-01T14:30:04Z</time>
      </trkpt>
      <trkpt lat="43.272278" lon="-5.1438866">
        <ele>168.0</ele>
        <time>2020-11-01T14:30:05Z</time>
      </trkpt>
      <trkpt lat="43.272285" lon="-5.1438847">
        <ele>168.0</ele>
        <time>2020-11-01T14:30:06Z</time>
      </trkpt>
      <trkpt lat="43.27229" lon="-5.1438823">
        <ele>168.0</ele>
        <time>2020-11-01T14:30:07Z</time>
      </trkpt>
      <trkpt lat="43.27229" lon="-5.1438727">
        <ele>168.0</ele>
        <time>2020-11-01T14:30:09Z</time>
      </trkpt>
      <trkpt lat="43.27229" lon="-5.143872">
        <ele>168.0</ele>
        <time>2020-11-01T14:30:10Z</time>
      </trkpt>
      <trkpt lat="43.27229" lon="-5.1438775">
        <ele>168.0</ele>
        <time>2020-11-01T14:30:13Z</time>
      </trkpt>
      <trkpt lat="43.272305" lon="-5.143879">
        <ele>168.0</ele>
        <time>2020-11-01T14:30:16Z</time>
      </trkpt>
      <trkpt lat="43.272305" lon="-5.143878">
        <ele>168.0</ele>
        <time>2020-11-01T14:30:17Z</time>
      </trkpt>
      <trkpt lat="43.272305" lon="-5.14388">
        <ele>168.0</ele>
        <time>2020-11-01T14:30:18Z</time>
      </trkpt>
      <trkpt lat="43.27231" lon="-5.1438813">
        <ele>168.0</ele>
        <time>2020-11-01T14:30:19Z</time>
      </trkpt>
      <trkpt lat="43.272316" lon="-5.1438837">
        <ele>168.0</ele>
        <time>2020-11-01T14:30:20Z</time>
      </trkpt>
      <trkpt lat="43.272324" lon="-5.1438856">
        <ele>168.0</ele>
        <time>2020-11-01T14:30:21Z</time>
      </trkpt>
      <trkpt lat="43.27233" lon="-5.1438894">
        <ele>168.0</ele>
        <time>2020-11-01T14:30:22Z</time>
      </trkpt>
      <trkpt lat="43.27234" lon="-5.143893">
        <ele>168.0</ele>
        <time>2020-11-01T14:30:23Z</time>
      </trkpt>
      <trkpt lat="43.272346" lon="-5.143895">
        <ele>168.0</ele>
        <time>2020-11-01T14:30:24Z</time>
      </trkpt>
      <trkpt lat="43.272354" lon="-5.143898">
        <ele>168.0</ele>
        <time>2020-11-01T14:30:25Z</time>
      </trkpt>
      <trkpt lat="43.272366" lon="-5.143899">
        <ele>168.0</ele>
        <time>2020-11-01T14:30:26Z</time>
      </trkpt>
      <trkpt lat="43.272377" lon="-5.143902">
        <ele>168.0</ele>
        <time>2020-11-01T14:30:27Z</time>
      </trkpt>
      <trkpt lat="43.27239" lon="-5.1439066">
        <ele>168.0</ele>
        <time>2020-11-01T14:30:28Z</time>
      </trkpt>
      <trkpt lat="43.272404" lon="-5.143913">
        <ele>168.0</ele>
        <time>2020-11-01T14:30:29Z</time>
      </trkpt>
      <trkpt lat="43.27241" lon="-5.14392">
        <ele>168.0</ele>
        <time>2020-11-01T14:30:30Z</time>
      </trkpt>
      <trkpt lat="43.272423" lon="-5.1439276">
        <ele>168.0</ele>
        <time>2020-11-01T14:30:31Z</time>
      </trkpt>
      <trkpt lat="43.272434" lon="-5.1439342">
        <ele>168.0</ele>
        <time>2020-11-01T14:30:32Z</time>
      </trkpt>
      <trkpt lat="43.27244" lon="-5.14394">
        <ele>168.0</ele>
        <time>2020-11-01T14:30:33Z</time>
      </trkpt>
      <trkpt lat="43.272453" lon="-5.143942">
        <ele>168.0</ele>
        <time>2020-11-01T14:30:34Z</time>
      </trkpt>
      <trkpt lat="43.272465" lon="-5.1439447">
        <ele>168.0</ele>
        <time>2020-11-01T14:30:35Z</time>
      </trkpt>
      <trkpt lat="43.27248" lon="-5.1439495">
        <ele>168.0</ele>
        <time>2020-11-01T14:30:36Z</time>
      </trkpt>
      <trkpt lat="43.272488" lon="-5.1439548">
        <ele>168.0</ele>
        <time>2020-11-01T14:30:37Z</time>
      </trkpt>
      <trkpt lat="43.272503" lon="-5.1439586">
        <ele>168.0</ele>
        <time>2020-11-01T14:30:38Z</time>
      </trkpt>
      <trkpt lat="43.27251" lon="-5.143959">
        <ele>168.0</ele>
        <time>2020-11-01T14:30:39Z</time>
      </trkpt>
      <trkpt lat="43.27252" lon="-5.143959">
        <ele>168.0</ele>
        <time>2020-11-01T14:30:40Z</time>
      </trkpt>
      <trkpt lat="43.272526" lon="-5.1439576">
        <ele>167.0</ele>
        <time>2020-11-01T14:30:41Z</time>
      </trkpt>
      <trkpt lat="43.27253" lon="-5.143955">
        <ele>167.0</ele>
        <time>2020-11-01T14:30:42Z</time>
      </trkpt>
      <trkpt lat="43.272533" lon="-5.1439543">
        <ele>167.0</ele>
        <time>2020-11-01T14:30:43Z</time>
      </trkpt>
      <trkpt lat="43.272545" lon="-5.1439533">
        <ele>167.0</ele>
        <time>2020-11-01T14:30:44Z</time>
      </trkpt>
      <trkpt lat="43.272556" lon="-5.1439514">
        <ele>167.0</ele>
        <time>2020-11-01T14:30:45Z</time>
      </trkpt>
      <trkpt lat="43.27256" lon="-5.1439495">
        <ele>167.0</ele>
        <time>2020-11-01T14:30:46Z</time>
      </trkpt>
      <trkpt lat="43.27257" lon="-5.143948">
        <ele>167.0</ele>
        <time>2020-11-01T14:30:47Z</time>
      </trkpt>
      <trkpt lat="43.272583" lon="-5.143944">
        <ele>167.0</ele>
        <time>2020-11-01T14:30:48Z</time>
      </trkpt>
      <trkpt lat="43.272587" lon="-5.1439357">
        <ele>167.0</ele>
        <time>2020-11-01T14:30:49Z</time>
      </trkpt>
      <trkpt lat="43.2726" lon="-5.1439276">
        <ele>167.0</ele>
        <time>2020-11-01T14:30:50Z</time>
      </trkpt>
      <trkpt lat="43.272602" lon="-5.143919">
        <ele>167.0</ele>
        <time>2020-11-01T14:30:51Z</time>
      </trkpt>
      <trkpt lat="43.272614" lon="-5.1439104">
        <ele>167.0</ele>
        <time>2020-11-01T14:30:52Z</time>
      </trkpt>
      <trkpt lat="43.272617" lon="-5.1439023">
        <ele>167.0</ele>
        <time>2020-11-01T14:30:53Z</time>
      </trkpt>
      <trkpt lat="43.27263" lon="-5.143894">
        <ele>167.0</ele>
        <time>2020-11-01T14:30:54Z</time>
      </trkpt>
      <trkpt lat="43.272633" lon="-5.1438856">
        <ele>167.0</ele>
        <time>2020-11-01T14:30:55Z</time>
      </trkpt>
      <trkpt lat="43.272636" lon="-5.14388">
        <ele>167.0</ele>
        <time>2020-11-01T14:30:56Z</time>
      </trkpt>
      <trkpt lat="43.272648" lon="-5.143876">
        <ele>167.0</ele>
        <time>2020-11-01T14:30:57Z</time>
      </trkpt>
      <trkpt lat="43.27265" lon="-5.1438737">
        <ele>167.0</ele>
        <time>2020-11-01T14:30:58Z</time>
      </trkpt>
      <trkpt lat="43.272663" lon="-5.1438737">
        <ele>167.0</ele>
        <time>2020-11-01T14:30:59Z</time>
      </trkpt>
      <trkpt lat="43.272667" lon="-5.1438737">
        <ele>167.0</ele>
        <time>2020-11-01T14:31:00Z</time>
      </trkpt>
      <trkpt lat="43.272675" lon="-5.1438737">
        <ele>167.0</ele>
        <time>2020-11-01T14:31:01Z</time>
      </trkpt>
      <trkpt lat="43.272682" lon="-5.1438756">
        <ele>167.0</ele>
        <time>2020-11-01T14:31:02Z</time>
      </trkpt>
      <trkpt lat="43.272694" lon="-5.143876">
        <ele>167.0</ele>
        <time>2020-11-01T14:31:03Z</time>
      </trkpt>
      <trkpt lat="43.272705" lon="-5.143879">
        <ele>167.0</ele>
        <time>2020-11-01T14:31:04Z</time>
      </trkpt>
      <trkpt lat="43.272713" lon="-5.1438837">
        <ele>167.0</ele>
        <time>2020-11-01T14:31:05Z</time>
      </trkpt>
      <trkpt lat="43.272724" lon="-5.1438875">
        <ele>167.0</ele>
        <time>2020-11-01T14:31:06Z</time>
      </trkpt>
      <trkpt lat="43.272728" lon="-5.143893">
        <ele>167.0</ele>
        <time>2020-11-01T14:31:08Z</time>
      </trkpt>
      <trkpt lat="43.27274" lon="-5.1439">
        <ele>167.0</ele>
        <time>2020-11-01T14:31:08Z</time>
      </trkpt>
      <trkpt lat="43.27275" lon="-5.143906">
        <ele>167.0</ele>
        <time>2020-11-01T14:31:09Z</time>
      </trkpt>
      <trkpt lat="43.272766" lon="-5.1439147">
        <ele>167.0</ele>
        <time>2020-11-01T14:31:10Z</time>
      </trkpt>
      <trkpt lat="43.272778" lon="-5.1439204">
        <ele>167.0</ele>
        <time>2020-11-01T14:31:11Z</time>
      </trkpt>
      <trkpt lat="43.272785" lon="-5.1439247">
        <ele>167.0</ele>
        <time>2020-11-01T14:31:12Z</time>
      </trkpt>
      <trkpt lat="43.272797" lon="-5.1439276">
        <ele>167.0</ele>
        <time>2020-11-01T14:31:13Z</time>
      </trkpt>
      <trkpt lat="43.2728" lon="-5.1439304">
        <ele>167.0</ele>
        <time>2020-11-01T14:31:14Z</time>
      </trkpt>
      <trkpt lat="43.27281" lon="-5.143938">
        <ele>165.0</ele>
        <time>2020-11-01T14:31:15Z</time>
      </trkpt>
      <trkpt lat="43.272816" lon="-5.1439443">
        <ele>165.0</ele>
        <time>2020-11-01T14:31:16Z</time>
      </trkpt>
      <trkpt lat="43.27283" lon="-5.1439476">
        <ele>165.0</ele>
        <time>2020-11-01T14:31:17Z</time>
      </trkpt>
      <trkpt lat="43.272842" lon="-5.143948">
        <ele>165.0</ele>
        <time>2020-11-01T14:31:18Z</time>
      </trkpt>
      <trkpt lat="43.272854" lon="-5.1439457">
        <ele>165.0</ele>
        <time>2020-11-01T14:31:19Z</time>
      </trkpt>
      <trkpt lat="43.27286" lon="-5.1439443">
        <ele>165.0</ele>
        <time>2020-11-01T14:31:20Z</time>
      </trkpt>
      <trkpt lat="43.272873" lon="-5.1439457">
        <ele>165.0</ele>
        <time>2020-11-01T14:31:21Z</time>
      </trkpt>
      <trkpt lat="43.272884" lon="-5.143949">
        <ele>165.0</ele>
        <time>2020-11-01T14:31:22Z</time>
      </trkpt>
      <trkpt lat="43.27289" lon="-5.143953">
        <ele>165.0</ele>
        <time>2020-11-01T14:31:23Z</time>
      </trkpt>
      <trkpt lat="43.2729" lon="-5.143957">
        <ele>165.0</ele>
        <time>2020-11-01T14:31:24Z</time>
      </trkpt>
      <trkpt lat="43.272907" lon="-5.1439605">
        <ele>165.0</ele>
        <time>2020-11-01T14:31:25Z</time>
      </trkpt>
      <trkpt lat="43.272915" lon="-5.1439667">
        <ele>165.0</ele>
        <time>2020-11-01T14:31:26Z</time>
      </trkpt>
      <trkpt lat="43.272923" lon="-5.1439734">
        <ele>165.0</ele>
        <time>2020-11-01T14:31:27Z</time>
      </trkpt>
      <trkpt lat="43.272934" lon="-5.143981">
        <ele>165.0</ele>
        <time>2020-11-01T14:31:28Z</time>
      </trkpt>
      <trkpt lat="43.272945" lon="-5.143985">
        <ele>165.0</ele>
        <time>2020-11-01T14:31:29Z</time>
      </trkpt>
      <trkpt lat="43.272953" lon="-5.143988">
        <ele>165.0</ele>
        <time>2020-11-01T14:31:30Z</time>
      </trkpt>
      <trkpt lat="43.27296" lon="-5.1439905">
        <ele>165.0</ele>
        <time>2020-11-01T14:31:31Z</time>
      </trkpt>
      <trkpt lat="43.272964" lon="-5.1439924">
        <ele>165.0</ele>
        <time>2020-11-01T14:31:32Z</time>
      </trkpt>
      <trkpt lat="43.272976" lon="-5.143994">
        <ele>165.0</ele>
        <time>2020-11-01T14:31:33Z</time>
      </trkpt>
      <trkpt lat="43.273003" lon="-5.143994">
        <ele>165.0</ele>
        <time>2020-11-01T14:31:35Z</time>
      </trkpt>
      <trkpt lat="43.273003" lon="-5.1439924">
        <ele>165.0</ele>
        <time>2020-11-01T14:31:36Z</time>
      </trkpt>
      <trkpt lat="43.273006" lon="-5.14399">
        <ele>165.0</ele>
        <time>2020-11-01T14:31:37Z</time>
      </trkpt>
      <trkpt lat="43.273018" lon="-5.1439877">
        <ele>165.0</ele>
        <time>2020-11-01T14:31:38Z</time>
      </trkpt>
      <trkpt lat="43.27302" lon="-5.1439843">
        <ele>165.0</ele>
        <time>2020-11-01T14:31:40Z</time>
      </trkpt>
      <trkpt lat="43.273033" lon="-5.14398">
        <ele>165.0</ele>
        <time>2020-11-01T14:31:40Z</time>
      </trkpt>
      <trkpt lat="43.273037" lon="-5.1439757">
        <ele>165.0</ele>
        <time>2020-11-01T14:31:41Z</time>
      </trkpt>
      <trkpt lat="43.27305" lon="-5.1439743">
        <ele>165.0</ele>
        <time>2020-11-01T14:31:42Z</time>
      </trkpt>
      <trkpt lat="43.273056" lon="-5.1439753">
        <ele>165.0</ele>
        <time>2020-11-01T14:31:43Z</time>
      </trkpt>
      <trkpt lat="43.273067" lon="-5.1439757">
        <ele>165.0</ele>
        <time>2020-11-01T14:31:44Z</time>
      </trkpt>
      <trkpt lat="43.27308" lon="-5.143976">
        <ele>165.0</ele>
        <time>2020-11-01T14:31:45Z</time>
      </trkpt>
      <trkpt lat="43.273087" lon="-5.1439753">
        <ele>165.0</ele>
        <time>2020-11-01T14:31:46Z</time>
      </trkpt>
      <trkpt lat="43.273098" lon="-5.1439734">
        <ele>165.0</ele>
        <time>2020-11-01T14:31:47Z</time>
      </trkpt>
      <trkpt lat="43.273113" lon="-5.143972">
        <ele>166.0</ele>
        <time>2020-11-01T14:31:48Z</time>
      </trkpt>
      <trkpt lat="43.273117" lon="-5.1439695">
        <ele>166.0</ele>
        <time>2020-11-01T14:31:49Z</time>
      </trkpt>
      <trkpt lat="43.27313" lon="-5.143967">
        <ele>166.0</ele>
        <time>2020-11-01T14:31:50Z</time>
      </trkpt>
      <trkpt lat="43.27314" lon="-5.1439652">
        <ele>166.0</ele>
        <time>2020-11-01T14:31:51Z</time>
      </trkpt>
      <trkpt lat="43.273148" lon="-5.1439633">
        <ele>166.0</ele>
        <time>2020-11-01T14:31:52Z</time>
      </trkpt>
      <trkpt lat="43.27316" lon="-5.143959">
        <ele>166.0</ele>
        <time>2020-11-01T14:31:53Z</time>
      </trkpt>
      <trkpt lat="43.27317" lon="-5.143956">
        <ele>166.0</ele>
        <time>2020-11-01T14:31:54Z</time>
      </trkpt>
      <trkpt lat="43.273186" lon="-5.1439548">
        <ele>166.0</ele>
        <time>2020-11-01T14:31:55Z</time>
      </trkpt>
      <trkpt lat="43.273197" lon="-5.143953">
        <ele>166.0</ele>
        <time>2020-11-01T14:31:56Z</time>
      </trkpt>
      <trkpt lat="43.273205" lon="-5.143951">
        <ele>166.0</ele>
        <time>2020-11-01T14:31:57Z</time>
      </trkpt>
      <trkpt lat="43.27322" lon="-5.143947">
        <ele>166.0</ele>
        <time>2020-11-01T14:31:58Z</time>
      </trkpt>
      <trkpt lat="43.27323" lon="-5.143941">
        <ele>166.0</ele>
        <time>2020-11-01T14:31:59Z</time>
      </trkpt>
      <trkpt lat="43.273235" lon="-5.143935">
        <ele>166.0</ele>
        <time>2020-11-01T14:32:00Z</time>
      </trkpt>
      <trkpt lat="43.27325" lon="-5.1439304">
        <ele>166.0</ele>
        <time>2020-11-01T14:32:01Z</time>
      </trkpt>
      <trkpt lat="43.273262" lon="-5.1439266">
        <ele>167.0</ele>
        <time>2020-11-01T14:32:02Z</time>
      </trkpt>
      <trkpt lat="43.273273" lon="-5.143924">
        <ele>167.0</ele>
        <time>2020-11-01T14:32:03Z</time>
      </trkpt>
      <trkpt lat="43.273277" lon="-5.1439223">
        <ele>167.0</ele>
        <time>2020-11-01T14:32:04Z</time>
      </trkpt>
      <trkpt lat="43.27328" lon="-5.1439214">
        <ele>167.0</ele>
        <time>2020-11-01T14:32:05Z</time>
      </trkpt>
      <trkpt lat="43.273293" lon="-5.1439214">
        <ele>167.0</ele>
        <time>2020-11-01T14:32:06Z</time>
      </trkpt>
      <trkpt lat="43.273296" lon="-5.1439238">
        <ele>167.0</ele>
        <time>2020-11-01T14:32:07Z</time>
      </trkpt>
      <trkpt lat="43.273304" lon="-5.1439285">
        <ele>167.0</ele>
        <time>2020-11-01T14:32:08Z</time>
      </trkpt>
      <trkpt lat="43.273308" lon="-5.1439323">
        <ele>168.0</ele>
        <time>2020-11-01T14:32:09Z</time>
      </trkpt>
      <trkpt lat="43.27331" lon="-5.1439333">
        <ele>168.0</ele>
        <time>2020-11-01T14:32:10Z</time>
      </trkpt>
      <trkpt lat="43.27332" lon="-5.1439342">
        <ele>168.0</ele>
        <time>2020-11-01T14:32:11Z</time>
      </trkpt>
      <trkpt lat="43.273327" lon="-5.1439342">
        <ele>168.0</ele>
        <time>2020-11-01T14:32:12Z</time>
      </trkpt>
      <trkpt lat="43.273335" lon="-5.143932">
        <ele>168.0</ele>
        <time>2020-11-01T14:32:13Z</time>
      </trkpt>
      <trkpt lat="43.27335" lon="-5.143934">
        <ele>168.0</ele>
        <time>2020-11-01T14:32:14Z</time>
      </trkpt>
      <trkpt lat="43.27336" lon="-5.143938">
        <ele>168.0</ele>
        <time>2020-11-01T14:32:15Z</time>
      </trkpt>
      <trkpt lat="43.27337" lon="-5.143943">
        <ele>168.0</ele>
        <time>2020-11-01T14:32:16Z</time>
      </trkpt>
      <trkpt lat="43.27338" lon="-5.143947">
        <ele>168.0</ele>
        <time>2020-11-01T14:32:17Z</time>
      </trkpt>
      <trkpt lat="43.27339" lon="-5.143949">
        <ele>168.0</ele>
        <time>2020-11-01T14:32:18Z</time>
      </trkpt>
      <trkpt lat="43.273396" lon="-5.1439514">
        <ele>169.0</ele>
        <time>2020-11-01T14:32:19Z</time>
      </trkpt>
      <trkpt lat="43.273407" lon="-5.143955">
        <ele>169.0</ele>
        <time>2020-11-01T14:32:20Z</time>
      </trkpt>
      <trkpt lat="43.27341" lon="-5.143958">
        <ele>169.0</ele>
        <time>2020-11-01T14:32:21Z</time>
      </trkpt>
      <trkpt lat="43.273422" lon="-5.1439633">
        <ele>169.0</ele>
        <time>2020-11-01T14:32:22Z</time>
      </trkpt>
      <trkpt lat="43.27343" lon="-5.143968">
        <ele>169.0</ele>
        <time>2020-11-01T14:32:23Z</time>
      </trkpt>
      <trkpt lat="43.273438" lon="-5.143973">
        <ele>169.0</ele>
        <time>2020-11-01T14:32:25Z</time>
      </trkpt>
      <trkpt lat="43.27344" lon="-5.143978">
        <ele>169.0</ele>
        <time>2020-11-01T14:32:25Z</time>
      </trkpt>
      <trkpt lat="43.273445" lon="-5.143984">
        <ele>169.0</ele>
        <time>2020-11-01T14:32:26Z</time>
      </trkpt>
      <trkpt lat="43.273457" lon="-5.1439896">
        <ele>169.0</ele>
        <time>2020-11-01T14:32:27Z</time>
      </trkpt>
      <trkpt lat="43.27347" lon="-5.1439934">
        <ele>169.0</ele>
        <time>2020-11-01T14:32:28Z</time>
      </trkpt>
      <trkpt lat="43.273483" lon="-5.143998">
        <ele>169.0</ele>
        <time>2020-11-01T14:32:29Z</time>
      </trkpt>
      <trkpt lat="43.27349" lon="-5.1440043">
        <ele>169.0</ele>
        <time>2020-11-01T14:32:30Z</time>
      </trkpt>
      <trkpt lat="43.2735" lon="-5.144012">
        <ele>169.0</ele>
        <time>2020-11-01T14:32:31Z</time>
      </trkpt>
      <trkpt lat="43.273506" lon="-5.1440215">
        <ele>168.0</ele>
        <time>2020-11-01T14:32:32Z</time>
      </trkpt>
      <trkpt lat="43.273518" lon="-5.1440325">
        <ele>168.0</ele>
        <time>2020-11-01T14:32:33Z</time>
      </trkpt>
      <trkpt lat="43.27352" lon="-5.144041">
        <ele>168.0</ele>
        <time>2020-11-01T14:32:34Z</time>
      </trkpt>
      <trkpt lat="43.273533" lon="-5.1440487">
        <ele>168.0</ele>
        <time>2020-11-01T14:32:35Z</time>
      </trkpt>
      <trkpt lat="43.273537" lon="-5.144054">
        <ele>168.0</ele>
        <time>2020-11-01T14:32:36Z</time>
      </trkpt>
      <trkpt lat="43.27355" lon="-5.1440563">
        <ele>168.0</ele>
        <time>2020-11-01T14:32:37Z</time>
      </trkpt>
      <trkpt lat="43.273556" lon="-5.144057">
        <ele>168.0</ele>
        <time>2020-11-01T14:32:38Z</time>
      </trkpt>
      <trkpt lat="43.27356" lon="-5.1440554">
        <ele>168.0</ele>
        <time>2020-11-01T14:32:39Z</time>
      </trkpt>
      <trkpt lat="43.273563" lon="-5.1440554">
        <ele>168.0</ele>
        <time>2020-11-01T14:32:40Z</time>
      </trkpt>
      <trkpt lat="43.273563" lon="-5.1440587">
        <ele>168.0</ele>
        <time>2020-11-01T14:32:41Z</time>
      </trkpt>
      <trkpt lat="43.273563" lon="-5.144062">
        <ele>168.0</ele>
        <time>2020-11-01T14:32:42Z</time>
      </trkpt>
      <trkpt lat="43.27357" lon="-5.144061">
        <ele>168.0</ele>
        <time>2020-11-01T14:32:43Z</time>
      </trkpt>
      <trkpt lat="43.27357" lon="-5.144054">
        <ele>168.0</ele>
        <time>2020-11-01T14:32:44Z</time>
      </trkpt>
      <trkpt lat="43.273575" lon="-5.1440454">
        <ele>168.0</ele>
        <time>2020-11-01T14:32:45Z</time>
      </trkpt>
      <trkpt lat="43.27358" lon="-5.1440363">
        <ele>168.0</ele>
        <time>2020-11-01T14:32:46Z</time>
      </trkpt>
      <trkpt lat="43.27358" lon="-5.1440277">
        <ele>168.0</ele>
        <time>2020-11-01T14:32:47Z</time>
      </trkpt>
      <trkpt lat="43.27358" lon="-5.1440196">
        <ele>168.0</ele>
        <time>2020-11-01T14:32:48Z</time>
      </trkpt>
      <trkpt lat="43.273575" lon="-5.144012">
        <ele>168.0</ele>
        <time>2020-11-01T14:32:49Z</time>
      </trkpt>
      <trkpt lat="43.273575" lon="-5.1440024">
        <ele>168.0</ele>
        <time>2020-11-01T14:32:50Z</time>
      </trkpt>
      <trkpt lat="43.273575" lon="-5.1439934">
        <ele>168.0</ele>
        <time>2020-11-01T14:32:51Z</time>
      </trkpt>
      <trkpt lat="43.27357" lon="-5.143983">
        <ele>168.0</ele>
        <time>2020-11-01T14:32:52Z</time>
      </trkpt>
      <trkpt lat="43.27357" lon="-5.1439714">
        <ele>168.0</ele>
        <time>2020-11-01T14:32:53Z</time>
      </trkpt>
      <trkpt lat="43.273563" lon="-5.1439614">
        <ele>168.0</ele>
        <time>2020-11-01T14:32:54Z</time>
      </trkpt>
      <trkpt lat="43.273563" lon="-5.1439514">
        <ele>168.0</ele>
        <time>2020-11-01T14:32:55Z</time>
      </trkpt>
      <trkpt lat="43.27356" lon="-5.143941">
        <ele>168.0</ele>
        <time>2020-11-01T14:32:56Z</time>
      </trkpt>
      <trkpt lat="43.273556" lon="-5.1439285">
        <ele>168.0</ele>
        <time>2020-11-01T14:32:57Z</time>
      </trkpt>
      <trkpt lat="43.27355" lon="-5.143915">
        <ele>168.0</ele>
        <time>2020-11-01T14:32:58Z</time>
      </trkpt>
      <trkpt lat="43.27355" lon="-5.1439004">
        <ele>168.0</ele>
        <time>2020-11-01T14:32:59Z</time>
      </trkpt>
      <trkpt lat="43.27355" lon="-5.143885">
        <ele>168.0</ele>
        <time>2020-11-01T14:33:00Z</time>
      </trkpt>
      <trkpt lat="43.273544" lon="-5.143872">
        <ele>168.0</ele>
        <time>2020-11-01T14:33:01Z</time>
      </trkpt>
      <trkpt lat="43.273544" lon="-5.1438613">
        <ele>168.0</ele>
        <time>2020-11-01T14:33:02Z</time>
      </trkpt>
      <trkpt lat="43.273537" lon="-5.143851">
        <ele>168.0</ele>
        <time>2020-11-01T14:33:03Z</time>
      </trkpt>
      <trkpt lat="43.273537" lon="-5.143836">
        <ele>168.0</ele>
        <time>2020-11-01T14:33:04Z</time>
      </trkpt>
      <trkpt lat="43.27353" lon="-5.1438212">
        <ele>168.0</ele>
        <time>2020-11-01T14:33:05Z</time>
      </trkpt>
      <trkpt lat="43.27353" lon="-5.143809">
        <ele>168.0</ele>
        <time>2020-11-01T14:33:06Z</time>
      </trkpt>
      <trkpt lat="43.27352" lon="-5.1437974">
        <ele>168.0</ele>
        <time>2020-11-01T14:33:07Z</time>
      </trkpt>
      <trkpt lat="43.273518" lon="-5.1437845">
        <ele>168.0</ele>
        <time>2020-11-01T14:33:08Z</time>
      </trkpt>
      <trkpt lat="43.273518" lon="-5.143773">
        <ele>168.0</ele>
        <time>2020-11-01T14:33:09Z</time>
      </trkpt>
      <trkpt lat="43.273514" lon="-5.143763">
        <ele>168.0</ele>
        <time>2020-11-01T14:33:10Z</time>
      </trkpt>
      <trkpt lat="43.273506" lon="-5.1437516">
        <ele>168.0</ele>
        <time>2020-11-01T14:33:11Z</time>
      </trkpt>
      <trkpt lat="43.273502" lon="-5.1437387">
        <ele>168.0</ele>
        <time>2020-11-01T14:33:12Z</time>
      </trkpt>
      <trkpt lat="43.273502" lon="-5.143725">
        <ele>168.0</ele>
        <time>2020-11-01T14:33:13Z</time>
      </trkpt>
      <trkpt lat="43.2735" lon="-5.1437116">
        <ele>168.0</ele>
        <time>2020-11-01T14:33:14Z</time>
      </trkpt>
      <trkpt lat="43.27349" lon="-5.143698">
        <ele>168.0</ele>
        <time>2020-11-01T14:33:16Z</time>
      </trkpt>
      <trkpt lat="43.27349" lon="-5.1436853">
        <ele>168.0</ele>
        <time>2020-11-01T14:33:16Z</time>
      </trkpt>
      <trkpt lat="43.273487" lon="-5.1436725">
        <ele>168.0</ele>
        <time>2020-11-01T14:33:17Z</time>
      </trkpt>
      <trkpt lat="43.273487" lon="-5.143659">
        <ele>168.0</ele>
        <time>2020-11-01T14:33:18Z</time>
      </trkpt>
      <trkpt lat="43.273487" lon="-5.1436462">
        <ele>168.0</ele>
        <time>2020-11-01T14:33:19Z</time>
      </trkpt>
      <trkpt lat="43.273487" lon="-5.143635">
        <ele>168.0</ele>
        <time>2020-11-01T14:33:20Z</time>
      </trkpt>
      <trkpt lat="43.273487" lon="-5.1436257">
        <ele>168.0</ele>
        <time>2020-11-01T14:33:21Z</time>
      </trkpt>
      <trkpt lat="43.273487" lon="-5.1436186">
        <ele>168.0</ele>
        <time>2020-11-01T14:33:21Z</time>
      </trkpt>
      <trkpt lat="43.27349" lon="-5.1436133">
        <ele>168.0</ele>
        <time>2020-11-01T14:33:22Z</time>
      </trkpt>
      <trkpt lat="43.27349" lon="-5.1436057">
        <ele>168.0</ele>
        <time>2020-11-01T14:33:25Z</time>
      </trkpt>
      <trkpt lat="43.27349" lon="-5.143607">
        <ele>168.0</ele>
        <time>2020-11-01T14:33:26Z</time>
      </trkpt>
      <trkpt lat="43.273487" lon="-5.143609">
        <ele>168.0</ele>
        <time>2020-11-01T14:33:27Z</time>
      </trkpt>
      <trkpt lat="43.273487" lon="-5.143608">
        <ele>168.0</ele>
        <time>2020-11-01T14:33:28Z</time>
      </trkpt>
      <trkpt lat="43.273483" lon="-5.1436067">
        <ele>168.0</ele>
        <time>2020-11-01T14:33:29Z</time>
      </trkpt>
      <trkpt lat="43.273483" lon="-5.143603">
        <ele>168.0</ele>
        <time>2020-11-01T14:33:30Z</time>
      </trkpt>
      <trkpt lat="43.273476" lon="-5.1435957">
        <ele>168.0</ele>
        <time>2020-11-01T14:33:32Z</time>
      </trkpt>
      <trkpt lat="43.27347" lon="-5.1435885">
        <ele>168.0</ele>
        <time>2020-11-01T14:33:32Z</time>
      </trkpt>
      <trkpt lat="43.27346" lon="-5.143581">
        <ele>168.0</ele>
        <time>2020-11-01T14:33:33Z</time>
      </trkpt>
      <trkpt lat="43.273457" lon="-5.143574">
        <ele>168.0</ele>
        <time>2020-11-01T14:33:34Z</time>
      </trkpt>
      <trkpt lat="43.273445" lon="-5.1435676">
        <ele>168.0</ele>
        <time>2020-11-01T14:33:35Z</time>
      </trkpt>
      <trkpt lat="43.273438" lon="-5.1435575">
        <ele>168.0</ele>
        <time>2020-11-01T14:33:36Z</time>
      </trkpt>
      <trkpt lat="43.273426" lon="-5.1435485">
        <ele>168.0</ele>
        <time>2020-11-01T14:33:37Z</time>
      </trkpt>
      <trkpt lat="43.273422" lon="-5.14354">
        <ele>168.0</ele>
        <time>2020-11-01T14:33:38Z</time>
      </trkpt>
      <trkpt lat="43.27341" lon="-5.143533">
        <ele>168.0</ele>
        <time>2020-11-01T14:33:39Z</time>
      </trkpt>
      <trkpt lat="43.273407" lon="-5.1435275">
        <ele>168.0</ele>
        <time>2020-11-01T14:33:40Z</time>
      </trkpt>
      <trkpt lat="43.273396" lon="-5.143522">
        <ele>168.0</ele>
        <time>2020-11-01T14:33:41Z</time>
      </trkpt>
      <trkpt lat="43.273384" lon="-5.1435146">
        <ele>168.0</ele>
        <time>2020-11-01T14:33:42Z</time>
      </trkpt>
      <trkpt lat="43.273376" lon="-5.1435065">
        <ele>168.0</ele>
        <time>2020-11-01T14:33:43Z</time>
      </trkpt>
      <trkpt lat="43.27337" lon="-5.1434984">
        <ele>168.0</ele>
        <time>2020-11-01T14:33:44Z</time>
      </trkpt>
      <trkpt lat="43.27336" lon="-5.143492">
        <ele>168.0</ele>
        <time>2020-11-01T14:33:45Z</time>
      </trkpt>
      <trkpt lat="43.273354" lon="-5.143488">
        <ele>168.0</ele>
        <time>2020-11-01T14:33:46Z</time>
      </trkpt>
      <trkpt lat="43.273342" lon="-5.1434827">
        <ele>168.0</ele>
        <time>2020-11-01T14:33:47Z</time>
      </trkpt>
      <trkpt lat="43.27334" lon="-5.143478">
        <ele>168.0</ele>
        <time>2020-11-01T14:33:48Z</time>
      </trkpt>
      <trkpt lat="43.273327" lon="-5.143471">
        <ele>168.0</ele>
        <time>2020-11-01T14:33:49Z</time>
      </trkpt>
      <trkpt lat="43.273323" lon="-5.143462">
        <ele>168.0</ele>
        <time>2020-11-01T14:33:50Z</time>
      </trkpt>
      <trkpt lat="43.27331" lon="-5.14345">
        <ele>168.0</ele>
        <time>2020-11-01T14:33:51Z</time>
      </trkpt>
      <trkpt lat="43.273308" lon="-5.143437">
        <ele>168.0</ele>
        <time>2020-11-01T14:33:52Z</time>
      </trkpt>
      <trkpt lat="43.273296" lon="-5.1434226">
        <ele>168.0</ele>
        <time>2020-11-01T14:33:53Z</time>
      </trkpt>
      <trkpt lat="43.273293" lon="-5.1434097">
        <ele>168.0</ele>
        <time>2020-11-01T14:33:54Z</time>
      </trkpt>
      <trkpt lat="43.27328" lon="-5.1434">
        <ele>168.0</ele>
        <time>2020-11-01T14:33:55Z</time>
      </trkpt>
      <trkpt lat="43.273273" lon="-5.1433935">
        <ele>168.0</ele>
        <time>2020-11-01T14:33:56Z</time>
      </trkpt>
      <trkpt lat="43.273262" lon="-5.143389">
        <ele>168.0</ele>
        <time>2020-11-01T14:33:57Z</time>
      </trkpt>
      <trkpt lat="43.273247" lon="-5.143386">
        <ele>168.0</ele>
        <time>2020-11-01T14:33:58Z</time>
      </trkpt>
      <trkpt lat="43.273235" lon="-5.1433816">
        <ele>169.0</ele>
        <time>2020-11-01T14:33:59Z</time>
      </trkpt>
      <trkpt lat="43.273228" lon="-5.143378">
        <ele>169.0</ele>
        <time>2020-11-01T14:34:00Z</time>
      </trkpt>
    </trkseg>
  </trk>
</gpx>
